<?xml version="1.0" encoding="UTF-8"?>
<gpx version="1.1" creator="https://www.youtrack.es" xsi:schemaLocation="http://www.topografix.com/GPX/1/1 http://www.topografix.com/GPX/1/1/gpx.xsd http://www.garmin.com/xmlschemas/GpxExtensions/v3 http://www.garmin.com/xmlschemas/GpxExtensionsv3.xsd http://www.garmin.com/xmlschemas/TrackPointExtension/v1 http://www.garmin.com/xmlschemas/TrackPointExtensionv1.xsd" xmlns:gpxtpx="http://www.garmin.com/xmlschemas/TrackPointExtension/v1" xmlns:gpxx="http://www.garmin.com/xmlschemas/GpxExtensions/v3" xmlns:xsi="http://www.w3.org/2001/XMLSchema-instance">
  <metadata>
    <link href="https://www.youtrack.es">
      <text>YouTrack.es</text>
    </link>
    <time>2026-05-07T20:54:04Z</time>
  </metadata>
  <trk>
    <src>https://www.youtrack.es</src>
    <link href="https://www.youtrack.es/ruta/15877-ruta-de-los-3000-ibones">
      <text>YouTrack.es</text>
    </link>
    <trkseg>
      <trkpt lat="42.8518330" lon="-0.1471890">
        <ele>1525.6</ele>
        <time>2020-09-13T05:43:26Z</time>
      </trkpt>
      <trkpt lat="42.8517820" lon="-0.1471840">
        <ele>1525.8</ele>
        <time>2020-09-13T05:43:34Z</time>
      </trkpt>
      <trkpt lat="42.8517640" lon="-0.1471680">
        <ele>1525.8</ele>
        <time>2020-09-13T05:43:36Z</time>
      </trkpt>
      <trkpt lat="42.8516940" lon="-0.1469610">
        <ele>1525.6</ele>
        <time>2020-09-13T05:43:53Z</time>
      </trkpt>
      <trkpt lat="42.8516870" lon="-0.1468320">
        <ele>1525.6</ele>
        <time>2020-09-13T05:44:02Z</time>
      </trkpt>
      <trkpt lat="42.8516800" lon="-0.1467990">
        <ele>1525.6</ele>
        <time>2020-09-13T05:44:04Z</time>
      </trkpt>
      <trkpt lat="42.8516840" lon="-0.1465890">
        <ele>1525.4</ele>
        <time>2020-09-13T05:44:16Z</time>
      </trkpt>
      <trkpt lat="42.8517740" lon="-0.1463600">
        <ele>1525.0</ele>
        <time>2020-09-13T05:44:33Z</time>
      </trkpt>
      <trkpt lat="42.8517920" lon="-0.1462890">
        <ele>1524.8</ele>
        <time>2020-09-13T05:44:39Z</time>
      </trkpt>
      <trkpt lat="42.8518220" lon="-0.1461900">
        <ele>1524.6</ele>
        <time>2020-09-13T05:44:46Z</time>
      </trkpt>
      <trkpt lat="42.8518340" lon="-0.1461620">
        <ele>1524.6</ele>
        <time>2020-09-13T05:44:48Z</time>
      </trkpt>
      <trkpt lat="42.8518740" lon="-0.1460690">
        <ele>1524.6</ele>
        <time>2020-09-13T05:44:54Z</time>
      </trkpt>
      <trkpt lat="42.8519760" lon="-0.1458480">
        <ele>1524.2</ele>
        <time>2020-09-13T05:45:09Z</time>
      </trkpt>
      <trkpt lat="42.8520670" lon="-0.1456290">
        <ele>1524.2</ele>
        <time>2020-09-13T05:45:25Z</time>
      </trkpt>
      <trkpt lat="42.8521560" lon="-0.1454040">
        <ele>1523.8</ele>
        <time>2020-09-13T05:45:38Z</time>
      </trkpt>
      <trkpt lat="42.8521540" lon="-0.1453370">
        <ele>1523.4</ele>
        <time>2020-09-13T05:45:41Z</time>
      </trkpt>
      <trkpt lat="42.8522290" lon="-0.1450950">
        <ele>1522.8</ele>
        <time>2020-09-13T05:45:56Z</time>
      </trkpt>
      <trkpt lat="42.8523280" lon="-0.1448730">
        <ele>1524.4</ele>
        <time>2020-09-13T05:46:10Z</time>
      </trkpt>
      <trkpt lat="42.8523320" lon="-0.1448560">
        <ele>1524.4</ele>
        <time>2020-09-13T05:46:11Z</time>
      </trkpt>
      <trkpt lat="42.8524030" lon="-0.1446170">
        <ele>1525.4</ele>
        <time>2020-09-13T05:46:25Z</time>
      </trkpt>
      <trkpt lat="42.8524220" lon="-0.1444790">
        <ele>1525.6</ele>
        <time>2020-09-13T05:46:32Z</time>
      </trkpt>
      <trkpt lat="42.8525050" lon="-0.1442440">
        <ele>1525.6</ele>
        <time>2020-09-13T05:46:46Z</time>
      </trkpt>
      <trkpt lat="42.8525780" lon="-0.1440200">
        <ele>1526.4</ele>
        <time>2020-09-13T05:47:00Z</time>
      </trkpt>
      <trkpt lat="42.8525860" lon="-0.1439850">
        <ele>1526.6</ele>
        <time>2020-09-13T05:47:02Z</time>
      </trkpt>
      <trkpt lat="42.8526030" lon="-0.1439390">
        <ele>1526.6</ele>
        <time>2020-09-13T05:47:05Z</time>
      </trkpt>
      <trkpt lat="42.8526530" lon="-0.1437430">
        <ele>1526.4</ele>
        <time>2020-09-13T05:47:16Z</time>
      </trkpt>
      <trkpt lat="42.8526850" lon="-0.1434890">
        <ele>1526.0</ele>
        <time>2020-09-13T05:47:31Z</time>
      </trkpt>
      <trkpt lat="42.8526850" lon="-0.1432350">
        <ele>1525.8</ele>
        <time>2020-09-13T05:47:44Z</time>
      </trkpt>
      <trkpt lat="42.8526740" lon="-0.1431040">
        <ele>1525.6</ele>
        <time>2020-09-13T05:47:51Z</time>
      </trkpt>
      <trkpt lat="42.8526750" lon="-0.1428510">
        <ele>1525.2</ele>
        <time>2020-09-13T05:48:04Z</time>
      </trkpt>
      <trkpt lat="42.8525930" lon="-0.1426350">
        <ele>1525.0</ele>
        <time>2020-09-13T05:48:14Z</time>
      </trkpt>
      <trkpt lat="42.8524680" lon="-0.1425450">
        <ele>1525.2</ele>
        <time>2020-09-13T05:48:26Z</time>
      </trkpt>
      <trkpt lat="42.8523610" lon="-0.1424850">
        <ele>1524.8</ele>
        <time>2020-09-13T05:48:32Z</time>
      </trkpt>
      <trkpt lat="42.8522220" lon="-0.1423180">
        <ele>1524.6</ele>
        <time>2020-09-13T05:48:45Z</time>
      </trkpt>
      <trkpt lat="42.8522120" lon="-0.1423040">
        <ele>1524.6</ele>
        <time>2020-09-13T05:48:46Z</time>
      </trkpt>
      <trkpt lat="42.8521010" lon="-0.1421150">
        <ele>1524.4</ele>
        <time>2020-09-13T05:48:59Z</time>
      </trkpt>
      <trkpt lat="42.8520630" lon="-0.1420160">
        <ele>1524.2</ele>
        <time>2020-09-13T05:49:05Z</time>
      </trkpt>
      <trkpt lat="42.8519170" lon="-0.1418540">
        <ele>1523.6</ele>
        <time>2020-09-13T05:49:18Z</time>
      </trkpt>
      <trkpt lat="42.8519070" lon="-0.1418410">
        <ele>1523.4</ele>
        <time>2020-09-13T05:49:19Z</time>
      </trkpt>
      <trkpt lat="42.8517780" lon="-0.1416630">
        <ele>1522.6</ele>
        <time>2020-09-13T05:49:32Z</time>
      </trkpt>
      <trkpt lat="42.8517720" lon="-0.1416490">
        <ele>1522.4</ele>
        <time>2020-09-13T05:49:33Z</time>
      </trkpt>
      <trkpt lat="42.8517090" lon="-0.1415680">
        <ele>1521.2</ele>
        <time>2020-09-13T05:49:40Z</time>
      </trkpt>
      <trkpt lat="42.8516260" lon="-0.1415140">
        <ele>1520.0</ele>
        <time>2020-09-13T05:49:47Z</time>
      </trkpt>
      <trkpt lat="42.8516140" lon="-0.1415080">
        <ele>1519.8</ele>
        <time>2020-09-13T05:49:48Z</time>
      </trkpt>
      <trkpt lat="42.8515940" lon="-0.1414950">
        <ele>1519.6</ele>
        <time>2020-09-13T05:49:50Z</time>
      </trkpt>
      <trkpt lat="42.8515580" lon="-0.1414810">
        <ele>1519.2</ele>
        <time>2020-09-13T05:49:52Z</time>
      </trkpt>
      <trkpt lat="42.8515400" lon="-0.1414720">
        <ele>1519.0</ele>
        <time>2020-09-13T05:49:53Z</time>
      </trkpt>
      <trkpt lat="42.8514530" lon="-0.1413750">
        <ele>1517.8</ele>
        <time>2020-09-13T05:49:59Z</time>
      </trkpt>
      <trkpt lat="42.8514110" lon="-0.1412840">
        <ele>1516.6</ele>
        <time>2020-09-13T05:50:05Z</time>
      </trkpt>
      <trkpt lat="42.8513920" lon="-0.1412160">
        <ele>1515.6</ele>
        <time>2020-09-13T05:50:10Z</time>
      </trkpt>
      <trkpt lat="42.8513930" lon="-0.1410680">
        <ele>1514.4</ele>
        <time>2020-09-13T05:50:16Z</time>
      </trkpt>
      <trkpt lat="42.8513780" lon="-0.1409530">
        <ele>1513.4</ele>
        <time>2020-09-13T05:50:22Z</time>
      </trkpt>
      <trkpt lat="42.8513620" lon="-0.1408570">
        <ele>1512.4</ele>
        <time>2020-09-13T05:50:28Z</time>
      </trkpt>
      <trkpt lat="42.8513430" lon="-0.1407520">
        <ele>1511.2</ele>
        <time>2020-09-13T05:50:34Z</time>
      </trkpt>
      <trkpt lat="42.8513290" lon="-0.1406960">
        <ele>1510.4</ele>
        <time>2020-09-13T05:50:38Z</time>
      </trkpt>
      <trkpt lat="42.8513270" lon="-0.1406890">
        <ele>1510.2</ele>
        <time>2020-09-13T05:50:40Z</time>
      </trkpt>
      <trkpt lat="42.8513270" lon="-0.1406840">
        <ele>1510.2</ele>
        <time>2020-09-13T05:50:41Z</time>
      </trkpt>
      <trkpt lat="42.8513260" lon="-0.1406260">
        <ele>1509.6</ele>
        <time>2020-09-13T05:50:45Z</time>
      </trkpt>
      <trkpt lat="42.8513350" lon="-0.1405870">
        <ele>1509.2</ele>
        <time>2020-09-13T05:50:48Z</time>
      </trkpt>
      <trkpt lat="42.8513400" lon="-0.1405180">
        <ele>1508.8</ele>
        <time>2020-09-13T05:50:52Z</time>
      </trkpt>
      <trkpt lat="42.8513660" lon="-0.1404030">
        <ele>1508.0</ele>
        <time>2020-09-13T05:50:59Z</time>
      </trkpt>
      <trkpt lat="42.8514030" lon="-0.1402910">
        <ele>1507.2</ele>
        <time>2020-09-13T05:51:06Z</time>
      </trkpt>
      <trkpt lat="42.8514150" lon="-0.1402610">
        <ele>1507.0</ele>
        <time>2020-09-13T05:51:08Z</time>
      </trkpt>
      <trkpt lat="42.8514580" lon="-0.1401220">
        <ele>1506.0</ele>
        <time>2020-09-13T05:51:16Z</time>
      </trkpt>
      <trkpt lat="42.8514450" lon="-0.1400650">
        <ele>1505.6</ele>
        <time>2020-09-13T05:51:19Z</time>
      </trkpt>
      <trkpt lat="42.8514590" lon="-0.1399600">
        <ele>1504.8</ele>
        <time>2020-09-13T05:51:25Z</time>
      </trkpt>
      <trkpt lat="42.8514370" lon="-0.1398260">
        <ele>1503.6</ele>
        <time>2020-09-13T05:51:31Z</time>
      </trkpt>
      <trkpt lat="42.8513890" lon="-0.1397930">
        <ele>1503.2</ele>
        <time>2020-09-13T05:51:34Z</time>
      </trkpt>
      <trkpt lat="42.8513410" lon="-0.1398060">
        <ele>1502.4</ele>
        <time>2020-09-13T05:51:37Z</time>
      </trkpt>
      <trkpt lat="42.8511700" lon="-0.1398900">
        <ele>1501.6</ele>
        <time>2020-09-13T05:51:50Z</time>
      </trkpt>
      <trkpt lat="42.8511030" lon="-0.1399500">
        <ele>1501.4</ele>
        <time>2020-09-13T05:51:56Z</time>
      </trkpt>
      <trkpt lat="42.8510580" lon="-0.1400170">
        <ele>1501.2</ele>
        <time>2020-09-13T05:52:01Z</time>
      </trkpt>
      <trkpt lat="42.8510470" lon="-0.1400420">
        <ele>1501.2</ele>
        <time>2020-09-13T05:52:04Z</time>
      </trkpt>
      <trkpt lat="42.8510730" lon="-0.1400000">
        <ele>1501.2</ele>
        <time>2020-09-13T05:52:08Z</time>
      </trkpt>
      <trkpt lat="42.8511240" lon="-0.1399020">
        <ele>1501.2</ele>
        <time>2020-09-13T05:52:15Z</time>
      </trkpt>
      <trkpt lat="42.8511240" lon="-0.1398870">
        <ele>1501.2</ele>
        <time>2020-09-13T05:52:17Z</time>
      </trkpt>
      <trkpt lat="42.8511070" lon="-0.1398990">
        <ele>1501.4</ele>
        <time>2020-09-13T05:52:20Z</time>
      </trkpt>
      <trkpt lat="42.8510690" lon="-0.1399150">
        <ele>1501.6</ele>
        <time>2020-09-13T05:52:23Z</time>
      </trkpt>
      <trkpt lat="42.8510190" lon="-0.1399030">
        <ele>1501.6</ele>
        <time>2020-09-13T05:52:28Z</time>
      </trkpt>
      <trkpt lat="42.8510080" lon="-0.1398730">
        <ele>1501.4</ele>
        <time>2020-09-13T05:52:31Z</time>
      </trkpt>
      <trkpt lat="42.8509980" lon="-0.1398610">
        <ele>1501.2</ele>
        <time>2020-09-13T05:52:33Z</time>
      </trkpt>
      <trkpt lat="42.8509780" lon="-0.1398440">
        <ele>1501.2</ele>
        <time>2020-09-13T05:52:35Z</time>
      </trkpt>
      <trkpt lat="42.8509020" lon="-0.1396260">
        <ele>1500.4</ele>
        <time>2020-09-13T05:52:50Z</time>
      </trkpt>
      <trkpt lat="42.8508960" lon="-0.1395890">
        <ele>1500.2</ele>
        <time>2020-09-13T05:52:52Z</time>
      </trkpt>
      <trkpt lat="42.8509220" lon="-0.1393870">
        <ele>1499.2</ele>
        <time>2020-09-13T05:53:06Z</time>
      </trkpt>
      <trkpt lat="42.8509030" lon="-0.1392930">
        <ele>1498.2</ele>
        <time>2020-09-13T05:53:12Z</time>
      </trkpt>
      <trkpt lat="42.8508620" lon="-0.1391520">
        <ele>1497.2</ele>
        <time>2020-09-13T05:53:20Z</time>
      </trkpt>
      <trkpt lat="42.8508140" lon="-0.1390410">
        <ele>1496.0</ele>
        <time>2020-09-13T05:53:26Z</time>
      </trkpt>
      <trkpt lat="42.8507930" lon="-0.1389160">
        <ele>1495.2</ele>
        <time>2020-09-13T05:53:33Z</time>
      </trkpt>
      <trkpt lat="42.8507800" lon="-0.1388950">
        <ele>1494.8</ele>
        <time>2020-09-13T05:53:35Z</time>
      </trkpt>
      <trkpt lat="42.8507750" lon="-0.1388910">
        <ele>1494.8</ele>
        <time>2020-09-13T05:53:36Z</time>
      </trkpt>
      <trkpt lat="42.8507460" lon="-0.1388670">
        <ele>1495.0</ele>
        <time>2020-09-13T05:53:41Z</time>
      </trkpt>
      <trkpt lat="42.8507350" lon="-0.1388450">
        <ele>1495.2</ele>
        <time>2020-09-13T05:53:43Z</time>
      </trkpt>
      <trkpt lat="42.8507130" lon="-0.1388030">
        <ele>1496.0</ele>
        <time>2020-09-13T05:53:47Z</time>
      </trkpt>
      <trkpt lat="42.8506960" lon="-0.1387670">
        <ele>1496.8</ele>
        <time>2020-09-13T05:53:51Z</time>
      </trkpt>
      <trkpt lat="42.8506950" lon="-0.1387660">
        <ele>1497.0</ele>
        <time>2020-09-13T05:53:52Z</time>
      </trkpt>
      <trkpt lat="42.8506910" lon="-0.1387690">
        <ele>1497.2</ele>
        <time>2020-09-13T05:53:53Z</time>
      </trkpt>
      <trkpt lat="42.8506850" lon="-0.1387860">
        <ele>1497.4</ele>
        <time>2020-09-13T05:53:55Z</time>
      </trkpt>
      <trkpt lat="42.8506700" lon="-0.1388140">
        <ele>1498.0</ele>
        <time>2020-09-13T05:53:58Z</time>
      </trkpt>
      <trkpt lat="42.8506570" lon="-0.1388390">
        <ele>1498.6</ele>
        <time>2020-09-13T05:54:00Z</time>
      </trkpt>
      <trkpt lat="42.8506410" lon="-0.1388600">
        <ele>1499.2</ele>
        <time>2020-09-13T05:54:02Z</time>
      </trkpt>
      <trkpt lat="42.8506260" lon="-0.1388830">
        <ele>1499.4</ele>
        <time>2020-09-13T05:54:03Z</time>
      </trkpt>
      <trkpt lat="42.8505900" lon="-0.1389670">
        <ele>1500.2</ele>
        <time>2020-09-13T05:54:08Z</time>
      </trkpt>
      <trkpt lat="42.8505860" lon="-0.1389760">
        <ele>1500.4</ele>
        <time>2020-09-13T05:54:09Z</time>
      </trkpt>
      <trkpt lat="42.8505620" lon="-0.1390120">
        <ele>1501.2</ele>
        <time>2020-09-13T05:54:12Z</time>
      </trkpt>
      <trkpt lat="42.8505290" lon="-0.1390480">
        <ele>1502.4</ele>
        <time>2020-09-13T05:54:16Z</time>
      </trkpt>
      <trkpt lat="42.8505050" lon="-0.1390910">
        <ele>1503.2</ele>
        <time>2020-09-13T05:54:20Z</time>
      </trkpt>
      <trkpt lat="42.8504850" lon="-0.1390970">
        <ele>1503.6</ele>
        <time>2020-09-13T05:54:22Z</time>
      </trkpt>
      <trkpt lat="42.8504790" lon="-0.1391130">
        <ele>1503.8</ele>
        <time>2020-09-13T05:54:24Z</time>
      </trkpt>
      <trkpt lat="42.8505010" lon="-0.1390500">
        <ele>1504.6</ele>
        <time>2020-09-13T05:54:29Z</time>
      </trkpt>
      <trkpt lat="42.8505110" lon="-0.1390270">
        <ele>1504.6</ele>
        <time>2020-09-13T05:54:31Z</time>
      </trkpt>
      <trkpt lat="42.8505310" lon="-0.1389930">
        <ele>1505.0</ele>
        <time>2020-09-13T05:54:34Z</time>
      </trkpt>
      <trkpt lat="42.8505290" lon="-0.1389800">
        <ele>1505.4</ele>
        <time>2020-09-13T05:54:36Z</time>
      </trkpt>
      <trkpt lat="42.8505280" lon="-0.1389760">
        <ele>1505.6</ele>
        <time>2020-09-13T05:54:37Z</time>
      </trkpt>
      <trkpt lat="42.8505280" lon="-0.1389650">
        <ele>1505.8</ele>
        <time>2020-09-13T05:54:38Z</time>
      </trkpt>
      <trkpt lat="42.8505350" lon="-0.1389430">
        <ele>1506.2</ele>
        <time>2020-09-13T05:54:40Z</time>
      </trkpt>
      <trkpt lat="42.8505380" lon="-0.1389210">
        <ele>1506.8</ele>
        <time>2020-09-13T05:54:42Z</time>
      </trkpt>
      <trkpt lat="42.8505440" lon="-0.1389010">
        <ele>1507.2</ele>
        <time>2020-09-13T05:54:44Z</time>
      </trkpt>
      <trkpt lat="42.8505300" lon="-0.1388520">
        <ele>1507.8</ele>
        <time>2020-09-13T05:54:48Z</time>
      </trkpt>
      <trkpt lat="42.8505080" lon="-0.1388410">
        <ele>1508.0</ele>
        <time>2020-09-13T05:54:50Z</time>
      </trkpt>
      <trkpt lat="42.8504930" lon="-0.1388690">
        <ele>1508.6</ele>
        <time>2020-09-13T05:54:53Z</time>
      </trkpt>
      <trkpt lat="42.8504910" lon="-0.1388760">
        <ele>1509.0</ele>
        <time>2020-09-13T05:54:54Z</time>
      </trkpt>
      <trkpt lat="42.8504520" lon="-0.1388500">
        <ele>1510.0</ele>
        <time>2020-09-13T05:55:08Z</time>
      </trkpt>
      <trkpt lat="42.8504150" lon="-0.1389000">
        <ele>1510.4</ele>
        <time>2020-09-13T05:55:40Z</time>
      </trkpt>
      <trkpt lat="42.8503960" lon="-0.1389140">
        <ele>1511.2</ele>
        <time>2020-09-13T05:55:42Z</time>
      </trkpt>
      <trkpt lat="42.8503530" lon="-0.1389590">
        <ele>1512.2</ele>
        <time>2020-09-13T05:55:46Z</time>
      </trkpt>
      <trkpt lat="42.8503430" lon="-0.1389790">
        <ele>1512.6</ele>
        <time>2020-09-13T05:55:48Z</time>
      </trkpt>
      <trkpt lat="42.8503060" lon="-0.1390100">
        <ele>1513.4</ele>
        <time>2020-09-13T05:55:52Z</time>
      </trkpt>
      <trkpt lat="42.8502970" lon="-0.1390400">
        <ele>1514.0</ele>
        <time>2020-09-13T05:55:55Z</time>
      </trkpt>
      <trkpt lat="42.8502710" lon="-0.1390990">
        <ele>1514.4</ele>
        <time>2020-09-13T05:56:00Z</time>
      </trkpt>
      <trkpt lat="42.8502640" lon="-0.1391130">
        <ele>1514.8</ele>
        <time>2020-09-13T05:56:02Z</time>
      </trkpt>
      <trkpt lat="42.8502510" lon="-0.1391320">
        <ele>1515.4</ele>
        <time>2020-09-13T05:56:05Z</time>
      </trkpt>
      <trkpt lat="42.8502240" lon="-0.1391500">
        <ele>1516.8</ele>
        <time>2020-09-13T05:56:09Z</time>
      </trkpt>
      <trkpt lat="42.8502250" lon="-0.1391190">
        <ele>1517.8</ele>
        <time>2020-09-13T05:56:14Z</time>
      </trkpt>
      <trkpt lat="42.8502340" lon="-0.1390420">
        <ele>1519.0</ele>
        <time>2020-09-13T05:56:20Z</time>
      </trkpt>
      <trkpt lat="42.8502720" lon="-0.1389220">
        <ele>1519.2</ele>
        <time>2020-09-13T05:56:29Z</time>
      </trkpt>
      <trkpt lat="42.8502830" lon="-0.1388260">
        <ele>1520.0</ele>
        <time>2020-09-13T05:56:36Z</time>
      </trkpt>
      <trkpt lat="42.8502920" lon="-0.1387750">
        <ele>1520.8</ele>
        <time>2020-09-13T05:56:40Z</time>
      </trkpt>
      <trkpt lat="42.8503120" lon="-0.1387350">
        <ele>1521.2</ele>
        <time>2020-09-13T05:56:43Z</time>
      </trkpt>
      <trkpt lat="42.8503090" lon="-0.1387220">
        <ele>1521.2</ele>
        <time>2020-09-13T05:56:44Z</time>
      </trkpt>
      <trkpt lat="42.8503080" lon="-0.1387040">
        <ele>1521.6</ele>
        <time>2020-09-13T05:56:46Z</time>
      </trkpt>
      <trkpt lat="42.8503120" lon="-0.1386530">
        <ele>1522.4</ele>
        <time>2020-09-13T05:56:50Z</time>
      </trkpt>
      <trkpt lat="42.8503070" lon="-0.1386190">
        <ele>1523.4</ele>
        <time>2020-09-13T05:56:55Z</time>
      </trkpt>
      <trkpt lat="42.8503060" lon="-0.1386100">
        <ele>1524.0</ele>
        <time>2020-09-13T05:56:58Z</time>
      </trkpt>
      <trkpt lat="42.8503030" lon="-0.1385980">
        <ele>1524.6</ele>
        <time>2020-09-13T05:57:00Z</time>
      </trkpt>
      <trkpt lat="42.8502950" lon="-0.1385540">
        <ele>1525.6</ele>
        <time>2020-09-13T05:57:06Z</time>
      </trkpt>
      <trkpt lat="42.8502250" lon="-0.1385450">
        <ele>1526.8</ele>
        <time>2020-09-13T05:57:13Z</time>
      </trkpt>
      <trkpt lat="42.8501910" lon="-0.1385270">
        <ele>1528.0</ele>
        <time>2020-09-13T05:57:18Z</time>
      </trkpt>
      <trkpt lat="42.8501780" lon="-0.1384950">
        <ele>1529.0</ele>
        <time>2020-09-13T05:57:23Z</time>
      </trkpt>
      <trkpt lat="42.8501720" lon="-0.1384930">
        <ele>1529.2</ele>
        <time>2020-09-13T05:57:24Z</time>
      </trkpt>
      <trkpt lat="42.8501550" lon="-0.1385010">
        <ele>1530.2</ele>
        <time>2020-09-13T05:57:27Z</time>
      </trkpt>
      <trkpt lat="42.8501210" lon="-0.1385540">
        <ele>1531.2</ele>
        <time>2020-09-13T05:57:35Z</time>
      </trkpt>
      <trkpt lat="42.8501110" lon="-0.1385570">
        <ele>1531.4</ele>
        <time>2020-09-13T05:57:36Z</time>
      </trkpt>
      <trkpt lat="42.8501090" lon="-0.1385640">
        <ele>1531.6</ele>
        <time>2020-09-13T05:57:38Z</time>
      </trkpt>
      <trkpt lat="42.8501010" lon="-0.1385790">
        <ele>1531.8</ele>
        <time>2020-09-13T05:57:41Z</time>
      </trkpt>
      <trkpt lat="42.8500640" lon="-0.1386340">
        <ele>1532.2</ele>
        <time>2020-09-13T05:57:45Z</time>
      </trkpt>
      <trkpt lat="42.8500580" lon="-0.1386470">
        <ele>1532.4</ele>
        <time>2020-09-13T05:57:46Z</time>
      </trkpt>
      <trkpt lat="42.8500330" lon="-0.1386960">
        <ele>1532.8</ele>
        <time>2020-09-13T05:57:49Z</time>
      </trkpt>
      <trkpt lat="42.8500000" lon="-0.1387550">
        <ele>1533.4</ele>
        <time>2020-09-13T05:57:53Z</time>
      </trkpt>
      <trkpt lat="42.8499860" lon="-0.1387770">
        <ele>1533.8</ele>
        <time>2020-09-13T05:57:56Z</time>
      </trkpt>
      <trkpt lat="42.8499710" lon="-0.1387730">
        <ele>1534.0</ele>
        <time>2020-09-13T05:57:58Z</time>
      </trkpt>
      <trkpt lat="42.8499610" lon="-0.1387620">
        <ele>1534.4</ele>
        <time>2020-09-13T05:58:01Z</time>
      </trkpt>
      <trkpt lat="42.8499620" lon="-0.1387530">
        <ele>1534.8</ele>
        <time>2020-09-13T05:58:03Z</time>
      </trkpt>
      <trkpt lat="42.8499660" lon="-0.1387320">
        <ele>1535.4</ele>
        <time>2020-09-13T05:58:05Z</time>
      </trkpt>
      <trkpt lat="42.8499910" lon="-0.1387160">
        <ele>1536.0</ele>
        <time>2020-09-13T05:58:07Z</time>
      </trkpt>
      <trkpt lat="42.8500090" lon="-0.1386820">
        <ele>1536.4</ele>
        <time>2020-09-13T05:58:10Z</time>
      </trkpt>
      <trkpt lat="42.8500090" lon="-0.1386690">
        <ele>1536.4</ele>
        <time>2020-09-13T05:58:11Z</time>
      </trkpt>
      <trkpt lat="42.8500170" lon="-0.1386480">
        <ele>1536.8</ele>
        <time>2020-09-13T05:58:13Z</time>
      </trkpt>
      <trkpt lat="42.8500470" lon="-0.1385800">
        <ele>1537.6</ele>
        <time>2020-09-13T05:58:19Z</time>
      </trkpt>
      <trkpt lat="42.8500470" lon="-0.1385330">
        <ele>1538.4</ele>
        <time>2020-09-13T05:58:24Z</time>
      </trkpt>
      <trkpt lat="42.8500350" lon="-0.1385290">
        <ele>1538.8</ele>
        <time>2020-09-13T05:58:25Z</time>
      </trkpt>
      <trkpt lat="42.8500210" lon="-0.1385420">
        <ele>1538.8</ele>
        <time>2020-09-13T05:58:27Z</time>
      </trkpt>
      <trkpt lat="42.8499940" lon="-0.1385490">
        <ele>1539.0</ele>
        <time>2020-09-13T05:58:30Z</time>
      </trkpt>
      <trkpt lat="42.8499660" lon="-0.1385350">
        <ele>1539.6</ele>
        <time>2020-09-13T05:58:34Z</time>
      </trkpt>
      <trkpt lat="42.8499620" lon="-0.1385280">
        <ele>1540.0</ele>
        <time>2020-09-13T05:58:35Z</time>
      </trkpt>
      <trkpt lat="42.8499670" lon="-0.1385130">
        <ele>1540.6</ele>
        <time>2020-09-13T05:58:37Z</time>
      </trkpt>
      <trkpt lat="42.8499550" lon="-0.1385040">
        <ele>1541.2</ele>
        <time>2020-09-13T05:58:39Z</time>
      </trkpt>
      <trkpt lat="42.8499430" lon="-0.1384970">
        <ele>1542.2</ele>
        <time>2020-09-13T05:58:43Z</time>
      </trkpt>
      <trkpt lat="42.8499370" lon="-0.1384860">
        <ele>1543.2</ele>
        <time>2020-09-13T05:58:47Z</time>
      </trkpt>
      <trkpt lat="42.8499240" lon="-0.1384630">
        <ele>1544.4</ele>
        <time>2020-09-13T05:58:51Z</time>
      </trkpt>
      <trkpt lat="42.8498810" lon="-0.1384420">
        <ele>1545.4</ele>
        <time>2020-09-13T05:58:56Z</time>
      </trkpt>
      <trkpt lat="42.8498480" lon="-0.1384110">
        <ele>1546.6</ele>
        <time>2020-09-13T05:59:01Z</time>
      </trkpt>
      <trkpt lat="42.8498120" lon="-0.1383860">
        <ele>1547.6</ele>
        <time>2020-09-13T05:59:08Z</time>
      </trkpt>
      <trkpt lat="42.8497610" lon="-0.1384410">
        <ele>1548.8</ele>
        <time>2020-09-13T05:59:18Z</time>
      </trkpt>
      <trkpt lat="42.8497450" lon="-0.1384440">
        <ele>1550.0</ele>
        <time>2020-09-13T05:59:22Z</time>
      </trkpt>
      <trkpt lat="42.8497030" lon="-0.1384740">
        <ele>1551.0</ele>
        <time>2020-09-13T05:59:28Z</time>
      </trkpt>
      <trkpt lat="42.8496610" lon="-0.1384570">
        <ele>1552.2</ele>
        <time>2020-09-13T05:59:34Z</time>
      </trkpt>
      <trkpt lat="42.8496120" lon="-0.1384200">
        <ele>1553.2</ele>
        <time>2020-09-13T05:59:41Z</time>
      </trkpt>
      <trkpt lat="42.8495230" lon="-0.1384390">
        <ele>1554.2</ele>
        <time>2020-09-13T05:59:49Z</time>
      </trkpt>
      <trkpt lat="42.8495190" lon="-0.1384430">
        <ele>1554.4</ele>
        <time>2020-09-13T05:59:50Z</time>
      </trkpt>
      <trkpt lat="42.8494920" lon="-0.1384680">
        <ele>1554.8</ele>
        <time>2020-09-13T05:59:54Z</time>
      </trkpt>
      <trkpt lat="42.8494740" lon="-0.1384880">
        <ele>1555.4</ele>
        <time>2020-09-13T05:59:58Z</time>
      </trkpt>
      <trkpt lat="42.8494420" lon="-0.1384800">
        <ele>1556.6</ele>
        <time>2020-09-13T06:00:03Z</time>
      </trkpt>
      <trkpt lat="42.8493910" lon="-0.1384730">
        <ele>1557.6</ele>
        <time>2020-09-13T06:00:10Z</time>
      </trkpt>
      <trkpt lat="42.8493460" lon="-0.1385020">
        <ele>1558.6</ele>
        <time>2020-09-13T06:00:17Z</time>
      </trkpt>
      <trkpt lat="42.8493150" lon="-0.1385430">
        <ele>1559.8</ele>
        <time>2020-09-13T06:00:24Z</time>
      </trkpt>
      <trkpt lat="42.8493040" lon="-0.1385530">
        <ele>1560.8</ele>
        <time>2020-09-13T06:00:29Z</time>
      </trkpt>
      <trkpt lat="42.8492640" lon="-0.1385840">
        <ele>1561.8</ele>
        <time>2020-09-13T06:00:37Z</time>
      </trkpt>
      <trkpt lat="42.8492450" lon="-0.1386110">
        <ele>1563.0</ele>
        <time>2020-09-13T06:00:41Z</time>
      </trkpt>
      <trkpt lat="42.8492020" lon="-0.1386100">
        <ele>1564.0</ele>
        <time>2020-09-13T06:00:46Z</time>
      </trkpt>
      <trkpt lat="42.8491440" lon="-0.1386450">
        <ele>1564.6</ele>
        <time>2020-09-13T06:00:52Z</time>
      </trkpt>
      <trkpt lat="42.8491310" lon="-0.1386440">
        <ele>1565.0</ele>
        <time>2020-09-13T06:00:55Z</time>
      </trkpt>
      <trkpt lat="42.8491240" lon="-0.1386500">
        <ele>1565.2</ele>
        <time>2020-09-13T06:00:56Z</time>
      </trkpt>
      <trkpt lat="42.8491160" lon="-0.1386570">
        <ele>1565.4</ele>
        <time>2020-09-13T06:00:58Z</time>
      </trkpt>
      <trkpt lat="42.8490980" lon="-0.1386650">
        <ele>1566.2</ele>
        <time>2020-09-13T06:01:02Z</time>
      </trkpt>
      <trkpt lat="42.8490730" lon="-0.1386690">
        <ele>1567.2</ele>
        <time>2020-09-13T06:01:08Z</time>
      </trkpt>
      <trkpt lat="42.8490430" lon="-0.1386610">
        <ele>1568.6</ele>
        <time>2020-09-13T06:01:13Z</time>
      </trkpt>
      <trkpt lat="42.8490360" lon="-0.1386510">
        <ele>1569.6</ele>
        <time>2020-09-13T06:01:18Z</time>
      </trkpt>
      <trkpt lat="42.8490180" lon="-0.1386420">
        <ele>1570.6</ele>
        <time>2020-09-13T06:01:22Z</time>
      </trkpt>
      <trkpt lat="42.8489810" lon="-0.1386050">
        <ele>1571.8</ele>
        <time>2020-09-13T06:01:27Z</time>
      </trkpt>
      <trkpt lat="42.8489480" lon="-0.1386000">
        <ele>1573.0</ele>
        <time>2020-09-13T06:01:33Z</time>
      </trkpt>
      <trkpt lat="42.8489090" lon="-0.1386080">
        <ele>1574.0</ele>
        <time>2020-09-13T06:01:40Z</time>
      </trkpt>
      <trkpt lat="42.8488720" lon="-0.1386330">
        <ele>1575.2</ele>
        <time>2020-09-13T06:01:46Z</time>
      </trkpt>
      <trkpt lat="42.8488380" lon="-0.1386460">
        <ele>1576.4</ele>
        <time>2020-09-13T06:01:53Z</time>
      </trkpt>
      <trkpt lat="42.8488100" lon="-0.1386590">
        <ele>1577.6</ele>
        <time>2020-09-13T06:01:59Z</time>
      </trkpt>
      <trkpt lat="42.8487840" lon="-0.1386220">
        <ele>1578.8</ele>
        <time>2020-09-13T06:02:04Z</time>
      </trkpt>
      <trkpt lat="42.8487810" lon="-0.1385950">
        <ele>1579.8</ele>
        <time>2020-09-13T06:02:09Z</time>
      </trkpt>
      <trkpt lat="42.8487430" lon="-0.1386100">
        <ele>1581.0</ele>
        <time>2020-09-13T06:02:15Z</time>
      </trkpt>
      <trkpt lat="42.8487030" lon="-0.1386090">
        <ele>1581.4</ele>
        <time>2020-09-13T06:02:18Z</time>
      </trkpt>
      <trkpt lat="42.8486770" lon="-0.1385920">
        <ele>1581.8</ele>
        <time>2020-09-13T06:02:21Z</time>
      </trkpt>
      <trkpt lat="42.8486620" lon="-0.1385810">
        <ele>1582.0</ele>
        <time>2020-09-13T06:02:23Z</time>
      </trkpt>
      <trkpt lat="42.8486470" lon="-0.1385760">
        <ele>1582.2</ele>
        <time>2020-09-13T06:02:25Z</time>
      </trkpt>
      <trkpt lat="42.8486260" lon="-0.1385990">
        <ele>1583.0</ele>
        <time>2020-09-13T06:02:29Z</time>
      </trkpt>
      <trkpt lat="42.8486220" lon="-0.1385930">
        <ele>1583.2</ele>
        <time>2020-09-13T06:02:30Z</time>
      </trkpt>
      <trkpt lat="42.8485930" lon="-0.1385760">
        <ele>1584.2</ele>
        <time>2020-09-13T06:02:35Z</time>
      </trkpt>
      <trkpt lat="42.8485070" lon="-0.1385540">
        <ele>1585.2</ele>
        <time>2020-09-13T06:02:46Z</time>
      </trkpt>
      <trkpt lat="42.8484660" lon="-0.1385340">
        <ele>1586.2</ele>
        <time>2020-09-13T06:02:52Z</time>
      </trkpt>
      <trkpt lat="42.8484000" lon="-0.1385290">
        <ele>1587.2</ele>
        <time>2020-09-13T06:03:01Z</time>
      </trkpt>
      <trkpt lat="42.8483730" lon="-0.1385020">
        <ele>1588.4</ele>
        <time>2020-09-13T06:03:08Z</time>
      </trkpt>
      <trkpt lat="42.8483480" lon="-0.1384550">
        <ele>1589.4</ele>
        <time>2020-09-13T06:03:13Z</time>
      </trkpt>
      <trkpt lat="42.8482860" lon="-0.1384480">
        <ele>1590.6</ele>
        <time>2020-09-13T06:03:22Z</time>
      </trkpt>
      <trkpt lat="42.8482560" lon="-0.1384350">
        <ele>1591.6</ele>
        <time>2020-09-13T06:03:28Z</time>
      </trkpt>
      <trkpt lat="42.8482210" lon="-0.1384200">
        <ele>1592.8</ele>
        <time>2020-09-13T06:03:35Z</time>
      </trkpt>
      <trkpt lat="42.8481750" lon="-0.1384060">
        <ele>1593.8</ele>
        <time>2020-09-13T06:03:41Z</time>
      </trkpt>
      <trkpt lat="42.8480970" lon="-0.1383700">
        <ele>1595.0</ele>
        <time>2020-09-13T06:03:50Z</time>
      </trkpt>
      <trkpt lat="42.8480490" lon="-0.1383760">
        <ele>1596.0</ele>
        <time>2020-09-13T06:03:54Z</time>
      </trkpt>
      <trkpt lat="42.8480100" lon="-0.1384100">
        <ele>1597.2</ele>
        <time>2020-09-13T06:04:00Z</time>
      </trkpt>
      <trkpt lat="42.8480020" lon="-0.1384040">
        <ele>1597.4</ele>
        <time>2020-09-13T06:04:01Z</time>
      </trkpt>
      <trkpt lat="42.8479690" lon="-0.1383980">
        <ele>1598.4</ele>
        <time>2020-09-13T06:04:05Z</time>
      </trkpt>
      <trkpt lat="42.8479400" lon="-0.1384020">
        <ele>1599.0</ele>
        <time>2020-09-13T06:04:07Z</time>
      </trkpt>
      <trkpt lat="42.8479290" lon="-0.1384050">
        <ele>1599.4</ele>
        <time>2020-09-13T06:04:09Z</time>
      </trkpt>
      <trkpt lat="42.8478760" lon="-0.1383950">
        <ele>1600.4</ele>
        <time>2020-09-13T06:04:15Z</time>
      </trkpt>
      <trkpt lat="42.8478650" lon="-0.1383980">
        <ele>1600.4</ele>
        <time>2020-09-13T06:04:16Z</time>
      </trkpt>
      <trkpt lat="42.8478560" lon="-0.1384040">
        <ele>1600.6</ele>
        <time>2020-09-13T06:04:17Z</time>
      </trkpt>
      <trkpt lat="42.8477490" lon="-0.1384030">
        <ele>1601.4</ele>
        <time>2020-09-13T06:04:27Z</time>
      </trkpt>
      <trkpt lat="42.8476790" lon="-0.1383680">
        <ele>1602.0</ele>
        <time>2020-09-13T06:04:36Z</time>
      </trkpt>
      <trkpt lat="42.8476260" lon="-0.1383650">
        <ele>1602.6</ele>
        <time>2020-09-13T06:04:41Z</time>
      </trkpt>
      <trkpt lat="42.8476050" lon="-0.1383490">
        <ele>1603.0</ele>
        <time>2020-09-13T06:04:43Z</time>
      </trkpt>
      <trkpt lat="42.8475790" lon="-0.1383310">
        <ele>1603.4</ele>
        <time>2020-09-13T06:04:47Z</time>
      </trkpt>
      <trkpt lat="42.8475640" lon="-0.1383250">
        <ele>1603.6</ele>
        <time>2020-09-13T06:04:49Z</time>
      </trkpt>
      <trkpt lat="42.8475320" lon="-0.1383020">
        <ele>1603.8</ele>
        <time>2020-09-13T06:04:54Z</time>
      </trkpt>
      <trkpt lat="42.8475140" lon="-0.1383110">
        <ele>1603.8</ele>
        <time>2020-09-13T06:04:56Z</time>
      </trkpt>
      <trkpt lat="42.8474570" lon="-0.1383410">
        <ele>1604.8</ele>
        <time>2020-09-13T06:05:01Z</time>
      </trkpt>
      <trkpt lat="42.8474390" lon="-0.1383440">
        <ele>1605.0</ele>
        <time>2020-09-13T06:05:03Z</time>
      </trkpt>
      <trkpt lat="42.8474110" lon="-0.1383710">
        <ele>1605.4</ele>
        <time>2020-09-13T06:05:06Z</time>
      </trkpt>
      <trkpt lat="42.8473520" lon="-0.1384100">
        <ele>1605.2</ele>
        <time>2020-09-13T06:05:11Z</time>
      </trkpt>
      <trkpt lat="42.8473250" lon="-0.1384410">
        <ele>1605.4</ele>
        <time>2020-09-13T06:05:15Z</time>
      </trkpt>
      <trkpt lat="42.8471620" lon="-0.1384620">
        <ele>1605.8</ele>
        <time>2020-09-13T06:05:28Z</time>
      </trkpt>
      <trkpt lat="42.8471200" lon="-0.1385160">
        <ele>1606.4</ele>
        <time>2020-09-13T06:05:33Z</time>
      </trkpt>
      <trkpt lat="42.8470510" lon="-0.1385050">
        <ele>1606.8</ele>
        <time>2020-09-13T06:05:39Z</time>
      </trkpt>
      <trkpt lat="42.8470430" lon="-0.1385020">
        <ele>1607.0</ele>
        <time>2020-09-13T06:05:41Z</time>
      </trkpt>
      <trkpt lat="42.8470180" lon="-0.1384820">
        <ele>1607.2</ele>
        <time>2020-09-13T06:05:43Z</time>
      </trkpt>
      <trkpt lat="42.8470020" lon="-0.1384730">
        <ele>1607.4</ele>
        <time>2020-09-13T06:05:45Z</time>
      </trkpt>
      <trkpt lat="42.8469890" lon="-0.1384630">
        <ele>1607.6</ele>
        <time>2020-09-13T06:05:47Z</time>
      </trkpt>
      <trkpt lat="42.8469660" lon="-0.1384590">
        <ele>1607.8</ele>
        <time>2020-09-13T06:05:50Z</time>
      </trkpt>
      <trkpt lat="42.8469380" lon="-0.1384260">
        <ele>1608.6</ele>
        <time>2020-09-13T06:05:54Z</time>
      </trkpt>
      <trkpt lat="42.8469380" lon="-0.1384170">
        <ele>1608.8</ele>
        <time>2020-09-13T06:05:55Z</time>
      </trkpt>
      <trkpt lat="42.8469390" lon="-0.1384090">
        <ele>1609.0</ele>
        <time>2020-09-13T06:05:56Z</time>
      </trkpt>
      <trkpt lat="42.8469340" lon="-0.1383960">
        <ele>1609.4</ele>
        <time>2020-09-13T06:05:58Z</time>
      </trkpt>
      <trkpt lat="42.8469100" lon="-0.1383920">
        <ele>1610.0</ele>
        <time>2020-09-13T06:06:02Z</time>
      </trkpt>
      <trkpt lat="42.8468700" lon="-0.1384010">
        <ele>1611.2</ele>
        <time>2020-09-13T06:06:07Z</time>
      </trkpt>
      <trkpt lat="42.8468400" lon="-0.1384010">
        <ele>1612.2</ele>
        <time>2020-09-13T06:06:11Z</time>
      </trkpt>
      <trkpt lat="42.8467910" lon="-0.1384200">
        <ele>1613.0</ele>
        <time>2020-09-13T06:06:17Z</time>
      </trkpt>
      <trkpt lat="42.8467730" lon="-0.1384120">
        <ele>1613.4</ele>
        <time>2020-09-13T06:06:19Z</time>
      </trkpt>
      <trkpt lat="42.8467580" lon="-0.1384200">
        <ele>1614.2</ele>
        <time>2020-09-13T06:06:21Z</time>
      </trkpt>
      <trkpt lat="42.8467500" lon="-0.1384390">
        <ele>1614.6</ele>
        <time>2020-09-13T06:06:23Z</time>
      </trkpt>
      <trkpt lat="42.8467360" lon="-0.1385190">
        <ele>1615.4</ele>
        <time>2020-09-13T06:06:28Z</time>
      </trkpt>
      <trkpt lat="42.8467300" lon="-0.1385280">
        <ele>1615.6</ele>
        <time>2020-09-13T06:06:29Z</time>
      </trkpt>
      <trkpt lat="42.8466990" lon="-0.1385660">
        <ele>1616.4</ele>
        <time>2020-09-13T06:06:34Z</time>
      </trkpt>
      <trkpt lat="42.8466930" lon="-0.1385840">
        <ele>1616.6</ele>
        <time>2020-09-13T06:06:36Z</time>
      </trkpt>
      <trkpt lat="42.8466620" lon="-0.1386160">
        <ele>1617.6</ele>
        <time>2020-09-13T06:06:39Z</time>
      </trkpt>
      <trkpt lat="42.8466550" lon="-0.1386240">
        <ele>1617.8</ele>
        <time>2020-09-13T06:06:40Z</time>
      </trkpt>
      <trkpt lat="42.8466320" lon="-0.1386750">
        <ele>1618.8</ele>
        <time>2020-09-13T06:06:45Z</time>
      </trkpt>
      <trkpt lat="42.8466150" lon="-0.1387060">
        <ele>1619.0</ele>
        <time>2020-09-13T06:06:48Z</time>
      </trkpt>
      <trkpt lat="42.8465920" lon="-0.1387210">
        <ele>1619.8</ele>
        <time>2020-09-13T06:06:51Z</time>
      </trkpt>
      <trkpt lat="42.8465880" lon="-0.1387190">
        <ele>1620.2</ele>
        <time>2020-09-13T06:06:53Z</time>
      </trkpt>
      <trkpt lat="42.8465680" lon="-0.1387120">
        <ele>1621.2</ele>
        <time>2020-09-13T06:06:58Z</time>
      </trkpt>
      <trkpt lat="42.8465590" lon="-0.1387100">
        <ele>1622.4</ele>
        <time>2020-09-13T06:07:03Z</time>
      </trkpt>
      <trkpt lat="42.8465530" lon="-0.1387270">
        <ele>1623.6</ele>
        <time>2020-09-13T06:07:07Z</time>
      </trkpt>
      <trkpt lat="42.8465330" lon="-0.1387290">
        <ele>1624.6</ele>
        <time>2020-09-13T06:07:12Z</time>
      </trkpt>
      <trkpt lat="42.8465230" lon="-0.1387200">
        <ele>1625.8</ele>
        <time>2020-09-13T06:07:16Z</time>
      </trkpt>
      <trkpt lat="42.8464980" lon="-0.1387110">
        <ele>1626.8</ele>
        <time>2020-09-13T06:07:24Z</time>
      </trkpt>
      <trkpt lat="42.8464670" lon="-0.1387060">
        <ele>1628.0</ele>
        <time>2020-09-13T06:07:28Z</time>
      </trkpt>
      <trkpt lat="42.8464540" lon="-0.1386910">
        <ele>1629.0</ele>
        <time>2020-09-13T06:07:35Z</time>
      </trkpt>
      <trkpt lat="42.8463260" lon="-0.1386830">
        <ele>1630.2</ele>
        <time>2020-09-13T06:07:49Z</time>
      </trkpt>
      <trkpt lat="42.8463060" lon="-0.1386840">
        <ele>1630.6</ele>
        <time>2020-09-13T06:07:51Z</time>
      </trkpt>
      <trkpt lat="42.8462840" lon="-0.1386480">
        <ele>1630.8</ele>
        <time>2020-09-13T06:07:54Z</time>
      </trkpt>
      <trkpt lat="42.8462570" lon="-0.1386170">
        <ele>1631.2</ele>
        <time>2020-09-13T06:07:58Z</time>
      </trkpt>
      <trkpt lat="42.8462490" lon="-0.1386140">
        <ele>1631.4</ele>
        <time>2020-09-13T06:07:59Z</time>
      </trkpt>
      <trkpt lat="42.8462300" lon="-0.1386060">
        <ele>1631.6</ele>
        <time>2020-09-13T06:08:01Z</time>
      </trkpt>
      <trkpt lat="42.8460440" lon="-0.1385990">
        <ele>1630.8</ele>
        <time>2020-09-13T06:08:16Z</time>
      </trkpt>
      <trkpt lat="42.8460200" lon="-0.1385930">
        <ele>1630.8</ele>
        <time>2020-09-13T06:08:17Z</time>
      </trkpt>
      <trkpt lat="42.8459960" lon="-0.1385970">
        <ele>1631.0</ele>
        <time>2020-09-13T06:08:19Z</time>
      </trkpt>
      <trkpt lat="42.8459500" lon="-0.1386320">
        <ele>1632.4</ele>
        <time>2020-09-13T06:08:31Z</time>
      </trkpt>
      <trkpt lat="42.8459810" lon="-0.1385970">
        <ele>1633.4</ele>
        <time>2020-09-13T06:08:35Z</time>
      </trkpt>
      <trkpt lat="42.8459840" lon="-0.1385890">
        <ele>1633.6</ele>
        <time>2020-09-13T06:08:36Z</time>
      </trkpt>
      <trkpt lat="42.8459740" lon="-0.1385610">
        <ele>1634.0</ele>
        <time>2020-09-13T06:08:38Z</time>
      </trkpt>
      <trkpt lat="42.8459810" lon="-0.1385430">
        <ele>1634.4</ele>
        <time>2020-09-13T06:08:40Z</time>
      </trkpt>
      <trkpt lat="42.8459820" lon="-0.1385310">
        <ele>1634.6</ele>
        <time>2020-09-13T06:08:41Z</time>
      </trkpt>
      <trkpt lat="42.8459940" lon="-0.1385300">
        <ele>1635.2</ele>
        <time>2020-09-13T06:08:44Z</time>
      </trkpt>
      <trkpt lat="42.8459770" lon="-0.1385490">
        <ele>1635.8</ele>
        <time>2020-09-13T06:08:47Z</time>
      </trkpt>
      <trkpt lat="42.8459270" lon="-0.1386100">
        <ele>1636.8</ele>
        <time>2020-09-13T06:08:54Z</time>
      </trkpt>
      <trkpt lat="42.8459220" lon="-0.1386210">
        <ele>1637.0</ele>
        <time>2020-09-13T06:08:55Z</time>
      </trkpt>
      <trkpt lat="42.8459230" lon="-0.1386400">
        <ele>1637.6</ele>
        <time>2020-09-13T06:08:58Z</time>
      </trkpt>
      <trkpt lat="42.8459210" lon="-0.1386190">
        <ele>1638.0</ele>
        <time>2020-09-13T06:09:00Z</time>
      </trkpt>
      <trkpt lat="42.8459160" lon="-0.1386090">
        <ele>1638.4</ele>
        <time>2020-09-13T06:09:02Z</time>
      </trkpt>
      <trkpt lat="42.8458990" lon="-0.1385910">
        <ele>1639.0</ele>
        <time>2020-09-13T06:09:05Z</time>
      </trkpt>
      <trkpt lat="42.8458560" lon="-0.1385680">
        <ele>1640.2</ele>
        <time>2020-09-13T06:09:10Z</time>
      </trkpt>
      <trkpt lat="42.8458270" lon="-0.1385830">
        <ele>1641.0</ele>
        <time>2020-09-13T06:09:12Z</time>
      </trkpt>
      <trkpt lat="42.8458120" lon="-0.1386020">
        <ele>1641.4</ele>
        <time>2020-09-13T06:09:14Z</time>
      </trkpt>
      <trkpt lat="42.8457890" lon="-0.1386500">
        <ele>1642.6</ele>
        <time>2020-09-13T06:09:21Z</time>
      </trkpt>
      <trkpt lat="42.8457310" lon="-0.1386440">
        <ele>1643.6</ele>
        <time>2020-09-13T06:09:26Z</time>
      </trkpt>
      <trkpt lat="42.8456690" lon="-0.1386630">
        <ele>1643.8</ele>
        <time>2020-09-13T06:09:34Z</time>
      </trkpt>
      <trkpt lat="42.8456040" lon="-0.1386790">
        <ele>1643.8</ele>
        <time>2020-09-13T06:09:41Z</time>
      </trkpt>
      <trkpt lat="42.8455180" lon="-0.1387460">
        <ele>1643.4</ele>
        <time>2020-09-13T06:09:49Z</time>
      </trkpt>
      <trkpt lat="42.8454580" lon="-0.1387800">
        <ele>1643.4</ele>
        <time>2020-09-13T06:09:54Z</time>
      </trkpt>
      <trkpt lat="42.8454150" lon="-0.1387850">
        <ele>1643.2</ele>
        <time>2020-09-13T06:09:58Z</time>
      </trkpt>
      <trkpt lat="42.8453910" lon="-0.1387980">
        <ele>1643.0</ele>
        <time>2020-09-13T06:10:00Z</time>
      </trkpt>
      <trkpt lat="42.8453600" lon="-0.1388020">
        <ele>1643.0</ele>
        <time>2020-09-13T06:10:02Z</time>
      </trkpt>
      <trkpt lat="42.8453580" lon="-0.1388000">
        <ele>1643.0</ele>
        <time>2020-09-13T06:10:04Z</time>
      </trkpt>
      <trkpt lat="42.8453130" lon="-0.1387860">
        <ele>1643.0</ele>
        <time>2020-09-13T06:10:09Z</time>
      </trkpt>
      <trkpt lat="42.8452700" lon="-0.1387990">
        <ele>1642.8</ele>
        <time>2020-09-13T06:10:12Z</time>
      </trkpt>
      <trkpt lat="42.8452470" lon="-0.1388130">
        <ele>1643.0</ele>
        <time>2020-09-13T06:10:14Z</time>
      </trkpt>
      <trkpt lat="42.8452000" lon="-0.1388290">
        <ele>1643.4</ele>
        <time>2020-09-13T06:10:18Z</time>
      </trkpt>
      <trkpt lat="42.8451060" lon="-0.1388660">
        <ele>1643.6</ele>
        <time>2020-09-13T06:10:27Z</time>
      </trkpt>
      <trkpt lat="42.8450690" lon="-0.1388790">
        <ele>1644.0</ele>
        <time>2020-09-13T06:10:31Z</time>
      </trkpt>
      <trkpt lat="42.8450520" lon="-0.1388820">
        <ele>1644.2</ele>
        <time>2020-09-13T06:10:33Z</time>
      </trkpt>
      <trkpt lat="42.8450310" lon="-0.1388880">
        <ele>1644.6</ele>
        <time>2020-09-13T06:10:35Z</time>
      </trkpt>
      <trkpt lat="42.8449120" lon="-0.1388770">
        <ele>1645.8</ele>
        <time>2020-09-13T06:10:46Z</time>
      </trkpt>
      <trkpt lat="42.8448320" lon="-0.1388690">
        <ele>1646.6</ele>
        <time>2020-09-13T06:10:53Z</time>
      </trkpt>
      <trkpt lat="42.8447880" lon="-0.1388560">
        <ele>1646.6</ele>
        <time>2020-09-13T06:10:58Z</time>
      </trkpt>
      <trkpt lat="42.8447850" lon="-0.1388540">
        <ele>1646.8</ele>
        <time>2020-09-13T06:10:59Z</time>
      </trkpt>
      <trkpt lat="42.8447400" lon="-0.1388570">
        <ele>1647.8</ele>
        <time>2020-09-13T06:11:05Z</time>
      </trkpt>
      <trkpt lat="42.8447330" lon="-0.1388540">
        <ele>1648.0</ele>
        <time>2020-09-13T06:11:06Z</time>
      </trkpt>
      <trkpt lat="42.8447250" lon="-0.1388530">
        <ele>1648.2</ele>
        <time>2020-09-13T06:11:07Z</time>
      </trkpt>
      <trkpt lat="42.8447170" lon="-0.1388450">
        <ele>1648.4</ele>
        <time>2020-09-13T06:11:09Z</time>
      </trkpt>
      <trkpt lat="42.8446960" lon="-0.1388370">
        <ele>1648.8</ele>
        <time>2020-09-13T06:11:11Z</time>
      </trkpt>
      <trkpt lat="42.8446730" lon="-0.1388300">
        <ele>1649.2</ele>
        <time>2020-09-13T06:11:13Z</time>
      </trkpt>
      <trkpt lat="42.8446260" lon="-0.1388010">
        <ele>1650.4</ele>
        <time>2020-09-13T06:11:20Z</time>
      </trkpt>
      <trkpt lat="42.8446150" lon="-0.1387960">
        <ele>1650.8</ele>
        <time>2020-09-13T06:11:22Z</time>
      </trkpt>
      <trkpt lat="42.8445950" lon="-0.1387920">
        <ele>1651.4</ele>
        <time>2020-09-13T06:11:26Z</time>
      </trkpt>
      <trkpt lat="42.8445820" lon="-0.1387740">
        <ele>1652.6</ele>
        <time>2020-09-13T06:11:31Z</time>
      </trkpt>
      <trkpt lat="42.8445610" lon="-0.1387580">
        <ele>1653.6</ele>
        <time>2020-09-13T06:11:34Z</time>
      </trkpt>
      <trkpt lat="42.8445530" lon="-0.1387490">
        <ele>1653.8</ele>
        <time>2020-09-13T06:11:35Z</time>
      </trkpt>
      <trkpt lat="42.8445290" lon="-0.1387200">
        <ele>1654.8</ele>
        <time>2020-09-13T06:11:39Z</time>
      </trkpt>
      <trkpt lat="42.8445240" lon="-0.1387110">
        <ele>1655.0</ele>
        <time>2020-09-13T06:11:40Z</time>
      </trkpt>
      <trkpt lat="42.8445160" lon="-0.1387000">
        <ele>1655.0</ele>
        <time>2020-09-13T06:11:41Z</time>
      </trkpt>
      <trkpt lat="42.8444710" lon="-0.1386930">
        <ele>1655.4</ele>
        <time>2020-09-13T06:11:46Z</time>
      </trkpt>
      <trkpt lat="42.8443880" lon="-0.1386900">
        <ele>1656.0</ele>
        <time>2020-09-13T06:11:52Z</time>
      </trkpt>
      <trkpt lat="42.8443310" lon="-0.1386800">
        <ele>1656.8</ele>
        <time>2020-09-13T06:11:58Z</time>
      </trkpt>
      <trkpt lat="42.8443150" lon="-0.1386730">
        <ele>1657.2</ele>
        <time>2020-09-13T06:12:00Z</time>
      </trkpt>
      <trkpt lat="42.8442550" lon="-0.1386780">
        <ele>1658.0</ele>
        <time>2020-09-13T06:12:05Z</time>
      </trkpt>
      <trkpt lat="42.8442370" lon="-0.1386820">
        <ele>1658.2</ele>
        <time>2020-09-13T06:12:07Z</time>
      </trkpt>
      <trkpt lat="42.8442110" lon="-0.1386910">
        <ele>1658.6</ele>
        <time>2020-09-13T06:12:09Z</time>
      </trkpt>
      <trkpt lat="42.8441960" lon="-0.1386990">
        <ele>1659.0</ele>
        <time>2020-09-13T06:12:11Z</time>
      </trkpt>
      <trkpt lat="42.8441550" lon="-0.1386750">
        <ele>1659.2</ele>
        <time>2020-09-13T06:12:16Z</time>
      </trkpt>
      <trkpt lat="42.8441300" lon="-0.1386770">
        <ele>1659.6</ele>
        <time>2020-09-13T06:12:19Z</time>
      </trkpt>
      <trkpt lat="42.8441100" lon="-0.1386790">
        <ele>1660.0</ele>
        <time>2020-09-13T06:12:21Z</time>
      </trkpt>
      <trkpt lat="42.8440920" lon="-0.1386850">
        <ele>1660.2</ele>
        <time>2020-09-13T06:12:25Z</time>
      </trkpt>
      <trkpt lat="42.8440740" lon="-0.1386940">
        <ele>1660.2</ele>
        <time>2020-09-13T06:12:27Z</time>
      </trkpt>
      <trkpt lat="42.8440410" lon="-0.1387030">
        <ele>1660.6</ele>
        <time>2020-09-13T06:12:30Z</time>
      </trkpt>
      <trkpt lat="42.8439750" lon="-0.1387360">
        <ele>1661.4</ele>
        <time>2020-09-13T06:12:36Z</time>
      </trkpt>
      <trkpt lat="42.8439320" lon="-0.1387560">
        <ele>1661.8</ele>
        <time>2020-09-13T06:12:40Z</time>
      </trkpt>
      <trkpt lat="42.8439180" lon="-0.1387560">
        <ele>1662.0</ele>
        <time>2020-09-13T06:12:42Z</time>
      </trkpt>
      <trkpt lat="42.8439030" lon="-0.1387530">
        <ele>1662.6</ele>
        <time>2020-09-13T06:12:45Z</time>
      </trkpt>
      <trkpt lat="42.8438870" lon="-0.1387380">
        <ele>1662.8</ele>
        <time>2020-09-13T06:12:47Z</time>
      </trkpt>
      <trkpt lat="42.8438680" lon="-0.1387340">
        <ele>1663.2</ele>
        <time>2020-09-13T06:12:50Z</time>
      </trkpt>
      <trkpt lat="42.8438490" lon="-0.1387380">
        <ele>1663.4</ele>
        <time>2020-09-13T06:12:52Z</time>
      </trkpt>
      <trkpt lat="42.8438240" lon="-0.1387480">
        <ele>1663.4</ele>
        <time>2020-09-13T06:12:54Z</time>
      </trkpt>
      <trkpt lat="42.8438170" lon="-0.1387580">
        <ele>1663.6</ele>
        <time>2020-09-13T06:12:55Z</time>
      </trkpt>
      <trkpt lat="42.8437970" lon="-0.1387630">
        <ele>1664.2</ele>
        <time>2020-09-13T06:12:58Z</time>
      </trkpt>
      <trkpt lat="42.8437760" lon="-0.1387540">
        <ele>1664.6</ele>
        <time>2020-09-13T06:13:00Z</time>
      </trkpt>
      <trkpt lat="42.8437340" lon="-0.1387580">
        <ele>1664.8</ele>
        <time>2020-09-13T06:13:03Z</time>
      </trkpt>
      <trkpt lat="42.8436750" lon="-0.1387830">
        <ele>1665.8</ele>
        <time>2020-09-13T06:13:09Z</time>
      </trkpt>
      <trkpt lat="42.8436330" lon="-0.1387920">
        <ele>1666.0</ele>
        <time>2020-09-13T06:13:13Z</time>
      </trkpt>
      <trkpt lat="42.8435950" lon="-0.1387880">
        <ele>1666.2</ele>
        <time>2020-09-13T06:13:16Z</time>
      </trkpt>
      <trkpt lat="42.8434690" lon="-0.1388400">
        <ele>1666.4</ele>
        <time>2020-09-13T06:13:28Z</time>
      </trkpt>
      <trkpt lat="42.8434320" lon="-0.1388270">
        <ele>1666.8</ele>
        <time>2020-09-13T06:13:32Z</time>
      </trkpt>
      <trkpt lat="42.8434190" lon="-0.1388280">
        <ele>1666.8</ele>
        <time>2020-09-13T06:13:33Z</time>
      </trkpt>
      <trkpt lat="42.8432460" lon="-0.1387780">
        <ele>1667.2</ele>
        <time>2020-09-13T06:13:48Z</time>
      </trkpt>
      <trkpt lat="42.8432110" lon="-0.1387570">
        <ele>1667.6</ele>
        <time>2020-09-13T06:13:53Z</time>
      </trkpt>
      <trkpt lat="42.8431870" lon="-0.1387460">
        <ele>1667.8</ele>
        <time>2020-09-13T06:13:55Z</time>
      </trkpt>
      <trkpt lat="42.8431600" lon="-0.1387480">
        <ele>1667.6</ele>
        <time>2020-09-13T06:13:57Z</time>
      </trkpt>
      <trkpt lat="42.8430700" lon="-0.1387810">
        <ele>1667.4</ele>
        <time>2020-09-13T06:14:05Z</time>
      </trkpt>
      <trkpt lat="42.8430460" lon="-0.1387810">
        <ele>1667.4</ele>
        <time>2020-09-13T06:14:08Z</time>
      </trkpt>
      <trkpt lat="42.8429880" lon="-0.1387580">
        <ele>1667.6</ele>
        <time>2020-09-13T06:14:13Z</time>
      </trkpt>
      <trkpt lat="42.8429610" lon="-0.1387520">
        <ele>1668.0</ele>
        <time>2020-09-13T06:14:16Z</time>
      </trkpt>
      <trkpt lat="42.8429050" lon="-0.1387430">
        <ele>1668.8</ele>
        <time>2020-09-13T06:14:21Z</time>
      </trkpt>
      <trkpt lat="42.8428820" lon="-0.1387330">
        <ele>1668.8</ele>
        <time>2020-09-13T06:14:22Z</time>
      </trkpt>
      <trkpt lat="42.8428150" lon="-0.1387190">
        <ele>1669.8</ele>
        <time>2020-09-13T06:14:29Z</time>
      </trkpt>
      <trkpt lat="42.8427980" lon="-0.1387150">
        <ele>1670.2</ele>
        <time>2020-09-13T06:14:31Z</time>
      </trkpt>
      <trkpt lat="42.8427610" lon="-0.1387030">
        <ele>1671.0</ele>
        <time>2020-09-13T06:14:35Z</time>
      </trkpt>
      <trkpt lat="42.8426930" lon="-0.1387280">
        <ele>1672.0</ele>
        <time>2020-09-13T06:14:43Z</time>
      </trkpt>
      <trkpt lat="42.8426740" lon="-0.1387430">
        <ele>1672.4</ele>
        <time>2020-09-13T06:14:46Z</time>
      </trkpt>
      <trkpt lat="42.8426380" lon="-0.1387590">
        <ele>1672.8</ele>
        <time>2020-09-13T06:14:50Z</time>
      </trkpt>
      <trkpt lat="42.8425870" lon="-0.1387950">
        <ele>1672.8</ele>
        <time>2020-09-13T06:14:54Z</time>
      </trkpt>
      <trkpt lat="42.8425480" lon="-0.1388420">
        <ele>1673.2</ele>
        <time>2020-09-13T06:14:57Z</time>
      </trkpt>
      <trkpt lat="42.8425290" lon="-0.1388540">
        <ele>1673.4</ele>
        <time>2020-09-13T06:14:58Z</time>
      </trkpt>
      <trkpt lat="42.8424920" lon="-0.1390290">
        <ele>1674.2</ele>
        <time>2020-09-13T06:15:09Z</time>
      </trkpt>
      <trkpt lat="42.8424810" lon="-0.1390900">
        <ele>1674.8</ele>
        <time>2020-09-13T06:15:13Z</time>
      </trkpt>
      <trkpt lat="42.8424490" lon="-0.1391390">
        <ele>1675.0</ele>
        <time>2020-09-13T06:15:18Z</time>
      </trkpt>
      <trkpt lat="42.8423490" lon="-0.1391310">
        <ele>1674.0</ele>
        <time>2020-09-13T06:15:27Z</time>
      </trkpt>
      <trkpt lat="42.8423370" lon="-0.1391300">
        <ele>1673.8</ele>
        <time>2020-09-13T06:15:30Z</time>
      </trkpt>
      <trkpt lat="42.8423270" lon="-0.1391040">
        <ele>1673.6</ele>
        <time>2020-09-13T06:15:32Z</time>
      </trkpt>
      <trkpt lat="42.8423110" lon="-0.1390840">
        <ele>1673.6</ele>
        <time>2020-09-13T06:15:34Z</time>
      </trkpt>
      <trkpt lat="42.8421980" lon="-0.1390500">
        <ele>1675.2</ele>
        <time>2020-09-13T06:15:45Z</time>
      </trkpt>
      <trkpt lat="42.8421880" lon="-0.1390590">
        <ele>1675.4</ele>
        <time>2020-09-13T06:15:46Z</time>
      </trkpt>
      <trkpt lat="42.8421630" lon="-0.1390940">
        <ele>1675.4</ele>
        <time>2020-09-13T06:15:49Z</time>
      </trkpt>
      <trkpt lat="42.8420570" lon="-0.1390510">
        <ele>1676.4</ele>
        <time>2020-09-13T06:16:00Z</time>
      </trkpt>
      <trkpt lat="42.8419820" lon="-0.1390280">
        <ele>1677.0</ele>
        <time>2020-09-13T06:16:09Z</time>
      </trkpt>
      <trkpt lat="42.8419350" lon="-0.1390210">
        <ele>1677.2</ele>
        <time>2020-09-13T06:16:14Z</time>
      </trkpt>
      <trkpt lat="42.8418400" lon="-0.1390290">
        <ele>1677.4</ele>
        <time>2020-09-13T06:16:21Z</time>
      </trkpt>
      <trkpt lat="42.8416760" lon="-0.1389320">
        <ele>1678.4</ele>
        <time>2020-09-13T06:16:37Z</time>
      </trkpt>
      <trkpt lat="42.8414960" lon="-0.1389240">
        <ele>1678.2</ele>
        <time>2020-09-13T06:16:51Z</time>
      </trkpt>
      <trkpt lat="42.8414500" lon="-0.1389070">
        <ele>1678.6</ele>
        <time>2020-09-13T06:16:55Z</time>
      </trkpt>
      <trkpt lat="42.8413720" lon="-0.1388730">
        <ele>1679.6</ele>
        <time>2020-09-13T06:17:03Z</time>
      </trkpt>
      <trkpt lat="42.8413620" lon="-0.1388490">
        <ele>1679.8</ele>
        <time>2020-09-13T06:17:05Z</time>
      </trkpt>
      <trkpt lat="42.8413540" lon="-0.1388390">
        <ele>1680.0</ele>
        <time>2020-09-13T06:17:06Z</time>
      </trkpt>
      <trkpt lat="42.8413270" lon="-0.1388440">
        <ele>1680.6</ele>
        <time>2020-09-13T06:17:09Z</time>
      </trkpt>
      <trkpt lat="42.8413190" lon="-0.1388460">
        <ele>1680.8</ele>
        <time>2020-09-13T06:17:10Z</time>
      </trkpt>
      <trkpt lat="42.8412970" lon="-0.1388350">
        <ele>1681.0</ele>
        <time>2020-09-13T06:17:12Z</time>
      </trkpt>
      <trkpt lat="42.8412460" lon="-0.1388080">
        <ele>1682.0</ele>
        <time>2020-09-13T06:17:17Z</time>
      </trkpt>
      <trkpt lat="42.8412240" lon="-0.1387740">
        <ele>1682.6</ele>
        <time>2020-09-13T06:17:20Z</time>
      </trkpt>
      <trkpt lat="42.8412090" lon="-0.1387540">
        <ele>1683.2</ele>
        <time>2020-09-13T06:17:23Z</time>
      </trkpt>
      <trkpt lat="42.8412070" lon="-0.1387460">
        <ele>1683.4</ele>
        <time>2020-09-13T06:17:24Z</time>
      </trkpt>
      <trkpt lat="42.8412050" lon="-0.1387180">
        <ele>1683.8</ele>
        <time>2020-09-13T06:17:26Z</time>
      </trkpt>
      <trkpt lat="42.8411950" lon="-0.1387060">
        <ele>1684.4</ele>
        <time>2020-09-13T06:17:28Z</time>
      </trkpt>
      <trkpt lat="42.8411940" lon="-0.1387030">
        <ele>1684.6</ele>
        <time>2020-09-13T06:17:29Z</time>
      </trkpt>
      <trkpt lat="42.8411640" lon="-0.1386470">
        <ele>1685.4</ele>
        <time>2020-09-13T06:17:37Z</time>
      </trkpt>
      <trkpt lat="42.8411280" lon="-0.1386240">
        <ele>1686.8</ele>
        <time>2020-09-13T06:17:42Z</time>
      </trkpt>
      <trkpt lat="42.8411280" lon="-0.1386170">
        <ele>1687.4</ele>
        <time>2020-09-13T06:17:44Z</time>
      </trkpt>
      <trkpt lat="42.8411290" lon="-0.1386080">
        <ele>1688.0</ele>
        <time>2020-09-13T06:17:46Z</time>
      </trkpt>
      <trkpt lat="42.8411010" lon="-0.1386040">
        <ele>1689.0</ele>
        <time>2020-09-13T06:17:50Z</time>
      </trkpt>
      <trkpt lat="42.8410740" lon="-0.1385880">
        <ele>1690.2</ele>
        <time>2020-09-13T06:17:56Z</time>
      </trkpt>
      <trkpt lat="42.8410670" lon="-0.1385540">
        <ele>1691.4</ele>
        <time>2020-09-13T06:17:59Z</time>
      </trkpt>
      <trkpt lat="42.8410470" lon="-0.1385260">
        <ele>1692.6</ele>
        <time>2020-09-13T06:18:03Z</time>
      </trkpt>
      <trkpt lat="42.8410140" lon="-0.1385030">
        <ele>1693.8</ele>
        <time>2020-09-13T06:18:08Z</time>
      </trkpt>
      <trkpt lat="42.8409010" lon="-0.1384930">
        <ele>1695.0</ele>
        <time>2020-09-13T06:18:20Z</time>
      </trkpt>
      <trkpt lat="42.8408780" lon="-0.1385130">
        <ele>1695.0</ele>
        <time>2020-09-13T06:18:22Z</time>
      </trkpt>
      <trkpt lat="42.8408530" lon="-0.1385180">
        <ele>1695.0</ele>
        <time>2020-09-13T06:18:24Z</time>
      </trkpt>
      <trkpt lat="42.8407900" lon="-0.1384940">
        <ele>1694.2</ele>
        <time>2020-09-13T06:18:29Z</time>
      </trkpt>
      <trkpt lat="42.8407770" lon="-0.1384670">
        <ele>1694.2</ele>
        <time>2020-09-13T06:18:31Z</time>
      </trkpt>
      <trkpt lat="42.8407360" lon="-0.1384300">
        <ele>1694.2</ele>
        <time>2020-09-13T06:18:34Z</time>
      </trkpt>
      <trkpt lat="42.8407040" lon="-0.1383950">
        <ele>1694.0</ele>
        <time>2020-09-13T06:18:37Z</time>
      </trkpt>
      <trkpt lat="42.8406860" lon="-0.1383960">
        <ele>1693.8</ele>
        <time>2020-09-13T06:18:39Z</time>
      </trkpt>
      <trkpt lat="42.8406660" lon="-0.1383990">
        <ele>1693.4</ele>
        <time>2020-09-13T06:18:41Z</time>
      </trkpt>
      <trkpt lat="42.8406410" lon="-0.1383980">
        <ele>1692.8</ele>
        <time>2020-09-13T06:18:44Z</time>
      </trkpt>
      <trkpt lat="42.8406190" lon="-0.1384120">
        <ele>1692.2</ele>
        <time>2020-09-13T06:18:47Z</time>
      </trkpt>
      <trkpt lat="42.8405980" lon="-0.1384340">
        <ele>1692.0</ele>
        <time>2020-09-13T06:18:49Z</time>
      </trkpt>
      <trkpt lat="42.8405720" lon="-0.1384540">
        <ele>1691.8</ele>
        <time>2020-09-13T06:18:52Z</time>
      </trkpt>
      <trkpt lat="42.8405650" lon="-0.1384520">
        <ele>1691.8</ele>
        <time>2020-09-13T06:18:53Z</time>
      </trkpt>
      <trkpt lat="42.8405310" lon="-0.1384580">
        <ele>1691.8</ele>
        <time>2020-09-13T06:18:56Z</time>
      </trkpt>
      <trkpt lat="42.8404790" lon="-0.1384720">
        <ele>1691.8</ele>
        <time>2020-09-13T06:19:02Z</time>
      </trkpt>
      <trkpt lat="42.8404630" lon="-0.1384740">
        <ele>1691.2</ele>
        <time>2020-09-13T06:19:04Z</time>
      </trkpt>
      <trkpt lat="42.8404460" lon="-0.1384780">
        <ele>1690.8</ele>
        <time>2020-09-13T06:19:06Z</time>
      </trkpt>
      <trkpt lat="42.8403930" lon="-0.1384930">
        <ele>1689.6</ele>
        <time>2020-09-13T06:19:11Z</time>
      </trkpt>
      <trkpt lat="42.8403220" lon="-0.1385090">
        <ele>1688.2</ele>
        <time>2020-09-13T06:19:15Z</time>
      </trkpt>
      <trkpt lat="42.8402970" lon="-0.1384850">
        <ele>1687.8</ele>
        <time>2020-09-13T06:19:18Z</time>
      </trkpt>
      <trkpt lat="42.8402430" lon="-0.1384670">
        <ele>1687.4</ele>
        <time>2020-09-13T06:19:23Z</time>
      </trkpt>
      <trkpt lat="42.8402390" lon="-0.1384720">
        <ele>1687.2</ele>
        <time>2020-09-13T06:19:24Z</time>
      </trkpt>
      <trkpt lat="42.8402330" lon="-0.1384740">
        <ele>1687.0</ele>
        <time>2020-09-13T06:19:25Z</time>
      </trkpt>
      <trkpt lat="42.8402230" lon="-0.1384940">
        <ele>1686.0</ele>
        <time>2020-09-13T06:19:28Z</time>
      </trkpt>
      <trkpt lat="42.8402060" lon="-0.1385000">
        <ele>1685.8</ele>
        <time>2020-09-13T06:19:30Z</time>
      </trkpt>
      <trkpt lat="42.8401730" lon="-0.1384950">
        <ele>1685.6</ele>
        <time>2020-09-13T06:19:32Z</time>
      </trkpt>
      <trkpt lat="42.8401440" lon="-0.1384820">
        <ele>1685.4</ele>
        <time>2020-09-13T06:19:35Z</time>
      </trkpt>
      <trkpt lat="42.8401060" lon="-0.1384650">
        <ele>1685.0</ele>
        <time>2020-09-13T06:19:38Z</time>
      </trkpt>
      <trkpt lat="42.8400910" lon="-0.1384690">
        <ele>1685.0</ele>
        <time>2020-09-13T06:19:39Z</time>
      </trkpt>
      <trkpt lat="42.8400680" lon="-0.1384920">
        <ele>1684.6</ele>
        <time>2020-09-13T06:19:41Z</time>
      </trkpt>
      <trkpt lat="42.8400640" lon="-0.1385110">
        <ele>1684.2</ele>
        <time>2020-09-13T06:19:44Z</time>
      </trkpt>
      <trkpt lat="42.8400280" lon="-0.1384890">
        <ele>1683.8</ele>
        <time>2020-09-13T06:19:52Z</time>
      </trkpt>
      <trkpt lat="42.8399520" lon="-0.1385120">
        <ele>1683.6</ele>
        <time>2020-09-13T06:19:57Z</time>
      </trkpt>
      <trkpt lat="42.8398050" lon="-0.1385850">
        <ele>1685.0</ele>
        <time>2020-09-13T06:20:11Z</time>
      </trkpt>
      <trkpt lat="42.8397720" lon="-0.1385970">
        <ele>1685.2</ele>
        <time>2020-09-13T06:20:14Z</time>
      </trkpt>
      <trkpt lat="42.8397310" lon="-0.1385870">
        <ele>1685.6</ele>
        <time>2020-09-13T06:20:18Z</time>
      </trkpt>
      <trkpt lat="42.8396950" lon="-0.1386060">
        <ele>1686.0</ele>
        <time>2020-09-13T06:20:21Z</time>
      </trkpt>
      <trkpt lat="42.8396030" lon="-0.1386290">
        <ele>1687.0</ele>
        <time>2020-09-13T06:20:30Z</time>
      </trkpt>
      <trkpt lat="42.8395000" lon="-0.1386230">
        <ele>1688.0</ele>
        <time>2020-09-13T06:20:39Z</time>
      </trkpt>
      <trkpt lat="42.8394890" lon="-0.1386210">
        <ele>1688.6</ele>
        <time>2020-09-13T06:20:41Z</time>
      </trkpt>
      <trkpt lat="42.8394610" lon="-0.1386210">
        <ele>1689.2</ele>
        <time>2020-09-13T06:20:44Z</time>
      </trkpt>
      <trkpt lat="42.8394490" lon="-0.1386210">
        <ele>1689.4</ele>
        <time>2020-09-13T06:20:45Z</time>
      </trkpt>
      <trkpt lat="42.8394200" lon="-0.1386330">
        <ele>1689.6</ele>
        <time>2020-09-13T06:20:48Z</time>
      </trkpt>
      <trkpt lat="42.8394040" lon="-0.1386410">
        <ele>1689.8</ele>
        <time>2020-09-13T06:20:50Z</time>
      </trkpt>
      <trkpt lat="42.8393830" lon="-0.1386590">
        <ele>1690.2</ele>
        <time>2020-09-13T06:20:52Z</time>
      </trkpt>
      <trkpt lat="42.8393730" lon="-0.1386630">
        <ele>1690.2</ele>
        <time>2020-09-13T06:20:53Z</time>
      </trkpt>
      <trkpt lat="42.8392040" lon="-0.1387650">
        <ele>1689.6</ele>
        <time>2020-09-13T06:21:07Z</time>
      </trkpt>
      <trkpt lat="42.8391380" lon="-0.1387690">
        <ele>1689.2</ele>
        <time>2020-09-13T06:21:12Z</time>
      </trkpt>
      <trkpt lat="42.8390980" lon="-0.1387830">
        <ele>1688.0</ele>
        <time>2020-09-13T06:21:17Z</time>
      </trkpt>
      <trkpt lat="42.8390380" lon="-0.1387690">
        <ele>1687.8</ele>
        <time>2020-09-13T06:21:21Z</time>
      </trkpt>
      <trkpt lat="42.8389940" lon="-0.1387740">
        <ele>1688.6</ele>
        <time>2020-09-13T06:21:26Z</time>
      </trkpt>
      <trkpt lat="42.8389720" lon="-0.1388000">
        <ele>1689.2</ele>
        <time>2020-09-13T06:21:30Z</time>
      </trkpt>
      <trkpt lat="42.8389410" lon="-0.1387940">
        <ele>1689.4</ele>
        <time>2020-09-13T06:21:32Z</time>
      </trkpt>
      <trkpt lat="42.8387940" lon="-0.1387390">
        <ele>1690.2</ele>
        <time>2020-09-13T06:21:44Z</time>
      </trkpt>
      <trkpt lat="42.8387820" lon="-0.1387370">
        <ele>1690.4</ele>
        <time>2020-09-13T06:21:46Z</time>
      </trkpt>
      <trkpt lat="42.8387610" lon="-0.1387320">
        <ele>1690.4</ele>
        <time>2020-09-13T06:21:48Z</time>
      </trkpt>
      <trkpt lat="42.8387470" lon="-0.1387300">
        <ele>1690.6</ele>
        <time>2020-09-13T06:21:49Z</time>
      </trkpt>
      <trkpt lat="42.8386880" lon="-0.1387150">
        <ele>1691.2</ele>
        <time>2020-09-13T06:21:55Z</time>
      </trkpt>
      <trkpt lat="42.8386710" lon="-0.1387120">
        <ele>1691.4</ele>
        <time>2020-09-13T06:21:58Z</time>
      </trkpt>
      <trkpt lat="42.8386590" lon="-0.1387230">
        <ele>1691.6</ele>
        <time>2020-09-13T06:22:00Z</time>
      </trkpt>
      <trkpt lat="42.8386270" lon="-0.1387340">
        <ele>1692.0</ele>
        <time>2020-09-13T06:22:03Z</time>
      </trkpt>
      <trkpt lat="42.8385970" lon="-0.1387170">
        <ele>1692.4</ele>
        <time>2020-09-13T06:22:06Z</time>
      </trkpt>
      <trkpt lat="42.8385580" lon="-0.1387110">
        <ele>1693.0</ele>
        <time>2020-09-13T06:22:10Z</time>
      </trkpt>
      <trkpt lat="42.8385440" lon="-0.1387070">
        <ele>1693.4</ele>
        <time>2020-09-13T06:22:12Z</time>
      </trkpt>
      <trkpt lat="42.8385320" lon="-0.1387060">
        <ele>1693.4</ele>
        <time>2020-09-13T06:22:13Z</time>
      </trkpt>
      <trkpt lat="42.8385200" lon="-0.1387020">
        <ele>1693.6</ele>
        <time>2020-09-13T06:22:14Z</time>
      </trkpt>
      <trkpt lat="42.8384970" lon="-0.1386910">
        <ele>1694.0</ele>
        <time>2020-09-13T06:22:16Z</time>
      </trkpt>
      <trkpt lat="42.8384760" lon="-0.1386690">
        <ele>1694.2</ele>
        <time>2020-09-13T06:22:18Z</time>
      </trkpt>
      <trkpt lat="42.8384610" lon="-0.1386550">
        <ele>1694.6</ele>
        <time>2020-09-13T06:22:20Z</time>
      </trkpt>
      <trkpt lat="42.8384010" lon="-0.1386330">
        <ele>1695.6</ele>
        <time>2020-09-13T06:22:26Z</time>
      </trkpt>
      <trkpt lat="42.8383860" lon="-0.1386190">
        <ele>1695.6</ele>
        <time>2020-09-13T06:22:28Z</time>
      </trkpt>
      <trkpt lat="42.8383760" lon="-0.1386140">
        <ele>1695.8</ele>
        <time>2020-09-13T06:22:29Z</time>
      </trkpt>
      <trkpt lat="42.8383440" lon="-0.1386130">
        <ele>1696.0</ele>
        <time>2020-09-13T06:22:33Z</time>
      </trkpt>
      <trkpt lat="42.8383050" lon="-0.1385760">
        <ele>1696.6</ele>
        <time>2020-09-13T06:22:39Z</time>
      </trkpt>
      <trkpt lat="42.8382960" lon="-0.1385690">
        <ele>1696.8</ele>
        <time>2020-09-13T06:22:40Z</time>
      </trkpt>
      <trkpt lat="42.8382400" lon="-0.1385400">
        <ele>1697.4</ele>
        <time>2020-09-13T06:22:45Z</time>
      </trkpt>
      <trkpt lat="42.8381280" lon="-0.1384770">
        <ele>1697.8</ele>
        <time>2020-09-13T06:22:53Z</time>
      </trkpt>
      <trkpt lat="42.8379690" lon="-0.1384080">
        <ele>1698.4</ele>
        <time>2020-09-13T06:23:08Z</time>
      </trkpt>
      <trkpt lat="42.8378270" lon="-0.1383750">
        <ele>1698.8</ele>
        <time>2020-09-13T06:23:20Z</time>
      </trkpt>
      <trkpt lat="42.8378010" lon="-0.1383380">
        <ele>1699.4</ele>
        <time>2020-09-13T06:23:24Z</time>
      </trkpt>
      <trkpt lat="42.8377930" lon="-0.1383220">
        <ele>1699.8</ele>
        <time>2020-09-13T06:23:26Z</time>
      </trkpt>
      <trkpt lat="42.8377860" lon="-0.1383160">
        <ele>1699.8</ele>
        <time>2020-09-13T06:23:27Z</time>
      </trkpt>
      <trkpt lat="42.8377660" lon="-0.1382880">
        <ele>1700.4</ele>
        <time>2020-09-13T06:23:30Z</time>
      </trkpt>
      <trkpt lat="42.8377540" lon="-0.1382770">
        <ele>1700.6</ele>
        <time>2020-09-13T06:23:32Z</time>
      </trkpt>
      <trkpt lat="42.8377490" lon="-0.1382740">
        <ele>1701.0</ele>
        <time>2020-09-13T06:23:34Z</time>
      </trkpt>
      <trkpt lat="42.8377060" lon="-0.1382700">
        <ele>1702.0</ele>
        <time>2020-09-13T06:23:40Z</time>
      </trkpt>
      <trkpt lat="42.8376600" lon="-0.1382510">
        <ele>1702.6</ele>
        <time>2020-09-13T06:23:44Z</time>
      </trkpt>
      <trkpt lat="42.8376350" lon="-0.1382460">
        <ele>1702.8</ele>
        <time>2020-09-13T06:23:46Z</time>
      </trkpt>
      <trkpt lat="42.8376240" lon="-0.1382530">
        <ele>1703.0</ele>
        <time>2020-09-13T06:23:47Z</time>
      </trkpt>
      <trkpt lat="42.8375690" lon="-0.1382630">
        <ele>1703.8</ele>
        <time>2020-09-13T06:23:51Z</time>
      </trkpt>
      <trkpt lat="42.8375270" lon="-0.1382500">
        <ele>1704.0</ele>
        <time>2020-09-13T06:23:54Z</time>
      </trkpt>
      <trkpt lat="42.8375160" lon="-0.1382530">
        <ele>1704.2</ele>
        <time>2020-09-13T06:23:55Z</time>
      </trkpt>
      <trkpt lat="42.8375000" lon="-0.1382580">
        <ele>1704.4</ele>
        <time>2020-09-13T06:23:57Z</time>
      </trkpt>
      <trkpt lat="42.8374580" lon="-0.1382760">
        <ele>1704.8</ele>
        <time>2020-09-13T06:24:00Z</time>
      </trkpt>
      <trkpt lat="42.8374310" lon="-0.1382700">
        <ele>1705.2</ele>
        <time>2020-09-13T06:24:03Z</time>
      </trkpt>
      <trkpt lat="42.8373900" lon="-0.1382890">
        <ele>1705.6</ele>
        <time>2020-09-13T06:24:06Z</time>
      </trkpt>
      <trkpt lat="42.8373220" lon="-0.1383440">
        <ele>1705.8</ele>
        <time>2020-09-13T06:24:13Z</time>
      </trkpt>
      <trkpt lat="42.8372830" lon="-0.1383430">
        <ele>1705.8</ele>
        <time>2020-09-13T06:24:17Z</time>
      </trkpt>
      <trkpt lat="42.8372580" lon="-0.1383270">
        <ele>1706.2</ele>
        <time>2020-09-13T06:24:20Z</time>
      </trkpt>
      <trkpt lat="42.8372490" lon="-0.1383270">
        <ele>1706.4</ele>
        <time>2020-09-13T06:24:21Z</time>
      </trkpt>
      <trkpt lat="42.8372250" lon="-0.1383200">
        <ele>1706.8</ele>
        <time>2020-09-13T06:24:23Z</time>
      </trkpt>
      <trkpt lat="42.8371790" lon="-0.1383280">
        <ele>1707.4</ele>
        <time>2020-09-13T06:24:27Z</time>
      </trkpt>
      <trkpt lat="42.8371000" lon="-0.1383310">
        <ele>1707.4</ele>
        <time>2020-09-13T06:24:35Z</time>
      </trkpt>
      <trkpt lat="42.8370640" lon="-0.1383350">
        <ele>1707.6</ele>
        <time>2020-09-13T06:24:38Z</time>
      </trkpt>
      <trkpt lat="42.8370010" lon="-0.1383120">
        <ele>1708.2</ele>
        <time>2020-09-13T06:24:44Z</time>
      </trkpt>
      <trkpt lat="42.8369920" lon="-0.1383110">
        <ele>1708.4</ele>
        <time>2020-09-13T06:24:45Z</time>
      </trkpt>
      <trkpt lat="42.8369210" lon="-0.1382880">
        <ele>1709.6</ele>
        <time>2020-09-13T06:24:51Z</time>
      </trkpt>
      <trkpt lat="42.8367470" lon="-0.1383160">
        <ele>1710.4</ele>
        <time>2020-09-13T06:25:05Z</time>
      </trkpt>
      <trkpt lat="42.8367070" lon="-0.1383230">
        <ele>1710.6</ele>
        <time>2020-09-13T06:25:08Z</time>
      </trkpt>
      <trkpt lat="42.8366740" lon="-0.1383190">
        <ele>1710.6</ele>
        <time>2020-09-13T06:25:11Z</time>
      </trkpt>
      <trkpt lat="42.8365420" lon="-0.1383590">
        <ele>1710.8</ele>
        <time>2020-09-13T06:25:22Z</time>
      </trkpt>
      <trkpt lat="42.8364640" lon="-0.1383990">
        <ele>1711.4</ele>
        <time>2020-09-13T06:25:29Z</time>
      </trkpt>
      <trkpt lat="42.8364300" lon="-0.1384140">
        <ele>1711.6</ele>
        <time>2020-09-13T06:25:32Z</time>
      </trkpt>
      <trkpt lat="42.8364190" lon="-0.1384150">
        <ele>1711.8</ele>
        <time>2020-09-13T06:25:33Z</time>
      </trkpt>
      <trkpt lat="42.8363610" lon="-0.1384680">
        <ele>1712.8</ele>
        <time>2020-09-13T06:25:39Z</time>
      </trkpt>
      <trkpt lat="42.8363480" lon="-0.1384750">
        <ele>1712.8</ele>
        <time>2020-09-13T06:25:40Z</time>
      </trkpt>
      <trkpt lat="42.8363180" lon="-0.1385070">
        <ele>1713.2</ele>
        <time>2020-09-13T06:25:43Z</time>
      </trkpt>
      <trkpt lat="42.8362600" lon="-0.1385720">
        <ele>1713.8</ele>
        <time>2020-09-13T06:25:49Z</time>
      </trkpt>
      <trkpt lat="42.8361950" lon="-0.1386320">
        <ele>1715.0</ele>
        <time>2020-09-13T06:25:57Z</time>
      </trkpt>
      <trkpt lat="42.8360680" lon="-0.1386530">
        <ele>1715.2</ele>
        <time>2020-09-13T06:26:08Z</time>
      </trkpt>
      <trkpt lat="42.8359360" lon="-0.1386480">
        <ele>1716.0</ele>
        <time>2020-09-13T06:26:18Z</time>
      </trkpt>
      <trkpt lat="42.8359140" lon="-0.1386390">
        <ele>1716.0</ele>
        <time>2020-09-13T06:26:20Z</time>
      </trkpt>
      <trkpt lat="42.8358420" lon="-0.1386420">
        <ele>1716.4</ele>
        <time>2020-09-13T06:26:28Z</time>
      </trkpt>
      <trkpt lat="42.8358130" lon="-0.1386430">
        <ele>1716.6</ele>
        <time>2020-09-13T06:26:31Z</time>
      </trkpt>
      <trkpt lat="42.8357780" lon="-0.1386210">
        <ele>1716.8</ele>
        <time>2020-09-13T06:26:34Z</time>
      </trkpt>
      <trkpt lat="42.8357540" lon="-0.1386270">
        <ele>1717.0</ele>
        <time>2020-09-13T06:26:35Z</time>
      </trkpt>
      <trkpt lat="42.8355820" lon="-0.1386920">
        <ele>1717.8</ele>
        <time>2020-09-13T06:26:46Z</time>
      </trkpt>
      <trkpt lat="42.8354840" lon="-0.1386980">
        <ele>1718.0</ele>
        <time>2020-09-13T06:26:54Z</time>
      </trkpt>
      <trkpt lat="42.8354740" lon="-0.1387010">
        <ele>1718.0</ele>
        <time>2020-09-13T06:26:55Z</time>
      </trkpt>
      <trkpt lat="42.8352960" lon="-0.1387430">
        <ele>1718.6</ele>
        <time>2020-09-13T06:27:12Z</time>
      </trkpt>
      <trkpt lat="42.8351500" lon="-0.1388780">
        <ele>1719.0</ele>
        <time>2020-09-13T06:27:25Z</time>
      </trkpt>
      <trkpt lat="42.8350050" lon="-0.1389740">
        <ele>1720.0</ele>
        <time>2020-09-13T06:27:38Z</time>
      </trkpt>
      <trkpt lat="42.8348370" lon="-0.1390970">
        <ele>1721.2</ele>
        <time>2020-09-13T06:27:52Z</time>
      </trkpt>
      <trkpt lat="42.8347990" lon="-0.1391410">
        <ele>1721.8</ele>
        <time>2020-09-13T06:27:56Z</time>
      </trkpt>
      <trkpt lat="42.8347610" lon="-0.1391630">
        <ele>1722.4</ele>
        <time>2020-09-13T06:28:00Z</time>
      </trkpt>
      <trkpt lat="42.8346180" lon="-0.1392100">
        <ele>1723.4</ele>
        <time>2020-09-13T06:28:11Z</time>
      </trkpt>
      <trkpt lat="42.8344440" lon="-0.1391470">
        <ele>1723.4</ele>
        <time>2020-09-13T06:28:25Z</time>
      </trkpt>
      <trkpt lat="42.8342610" lon="-0.1390950">
        <ele>1723.4</ele>
        <time>2020-09-13T06:28:39Z</time>
      </trkpt>
      <trkpt lat="42.8340860" lon="-0.1390090">
        <ele>1723.8</ele>
        <time>2020-09-13T06:28:53Z</time>
      </trkpt>
      <trkpt lat="42.8340690" lon="-0.1390070">
        <ele>1723.8</ele>
        <time>2020-09-13T06:28:54Z</time>
      </trkpt>
      <trkpt lat="42.8339360" lon="-0.1388500">
        <ele>1723.4</ele>
        <time>2020-09-13T06:29:06Z</time>
      </trkpt>
      <trkpt lat="42.8339100" lon="-0.1387780">
        <ele>1723.0</ele>
        <time>2020-09-13T06:29:11Z</time>
      </trkpt>
      <trkpt lat="42.8338910" lon="-0.1387420">
        <ele>1723.0</ele>
        <time>2020-09-13T06:29:16Z</time>
      </trkpt>
      <trkpt lat="42.8339580" lon="-0.1387350">
        <ele>1723.0</ele>
        <time>2020-09-13T06:29:23Z</time>
      </trkpt>
      <trkpt lat="42.8340250" lon="-0.1389570">
        <ele>1723.2</ele>
        <time>2020-09-13T06:29:35Z</time>
      </trkpt>
      <trkpt lat="42.8341830" lon="-0.1390970">
        <ele>1723.6</ele>
        <time>2020-09-13T06:29:48Z</time>
      </trkpt>
      <trkpt lat="42.8342310" lon="-0.1391640">
        <ele>1723.0</ele>
        <time>2020-09-13T06:29:54Z</time>
      </trkpt>
      <trkpt lat="42.8342750" lon="-0.1392170">
        <ele>1722.2</ele>
        <time>2020-09-13T06:29:59Z</time>
      </trkpt>
      <trkpt lat="42.8343320" lon="-0.1392740">
        <ele>1721.2</ele>
        <time>2020-09-13T06:30:04Z</time>
      </trkpt>
      <trkpt lat="42.8344360" lon="-0.1394090">
        <ele>1720.0</ele>
        <time>2020-09-13T06:30:13Z</time>
      </trkpt>
      <trkpt lat="42.8344870" lon="-0.1396550">
        <ele>1720.4</ele>
        <time>2020-09-13T06:30:26Z</time>
      </trkpt>
      <trkpt lat="42.8345210" lon="-0.1398270">
        <ele>1721.2</ele>
        <time>2020-09-13T06:30:36Z</time>
      </trkpt>
      <trkpt lat="42.8345270" lon="-0.1399110">
        <ele>1722.2</ele>
        <time>2020-09-13T06:30:41Z</time>
      </trkpt>
      <trkpt lat="42.8345380" lon="-0.1399720">
        <ele>1723.0</ele>
        <time>2020-09-13T06:30:46Z</time>
      </trkpt>
      <trkpt lat="42.8345760" lon="-0.1399620">
        <ele>1723.2</ele>
        <time>2020-09-13T06:30:49Z</time>
      </trkpt>
      <trkpt lat="42.8346190" lon="-0.1399310">
        <ele>1723.4</ele>
        <time>2020-09-13T06:30:53Z</time>
      </trkpt>
      <trkpt lat="42.8347920" lon="-0.1400060">
        <ele>1724.0</ele>
        <time>2020-09-13T06:31:08Z</time>
      </trkpt>
      <trkpt lat="42.8348010" lon="-0.1400080">
        <ele>1724.2</ele>
        <time>2020-09-13T06:31:09Z</time>
      </trkpt>
      <trkpt lat="42.8349510" lon="-0.1400430">
        <ele>1723.2</ele>
        <time>2020-09-13T06:31:20Z</time>
      </trkpt>
      <trkpt lat="42.8349850" lon="-0.1400430">
        <ele>1722.6</ele>
        <time>2020-09-13T06:31:22Z</time>
      </trkpt>
      <trkpt lat="42.8350350" lon="-0.1400780">
        <ele>1722.2</ele>
        <time>2020-09-13T06:31:26Z</time>
      </trkpt>
      <trkpt lat="42.8350430" lon="-0.1400970">
        <ele>1722.0</ele>
        <time>2020-09-13T06:31:27Z</time>
      </trkpt>
      <trkpt lat="42.8350550" lon="-0.1401310">
        <ele>1721.4</ele>
        <time>2020-09-13T06:31:29Z</time>
      </trkpt>
      <trkpt lat="42.8350750" lon="-0.1401760">
        <ele>1721.0</ele>
        <time>2020-09-13T06:31:32Z</time>
      </trkpt>
      <trkpt lat="42.8350810" lon="-0.1401930">
        <ele>1720.8</ele>
        <time>2020-09-13T06:31:33Z</time>
      </trkpt>
      <trkpt lat="42.8351640" lon="-0.1404210">
        <ele>1719.8</ele>
        <time>2020-09-13T06:31:48Z</time>
      </trkpt>
      <trkpt lat="42.8352460" lon="-0.1406030">
        <ele>1719.4</ele>
        <time>2020-09-13T06:32:00Z</time>
      </trkpt>
      <trkpt lat="42.8351960" lon="-0.1406920">
        <ele>1720.6</ele>
        <time>2020-09-13T06:32:07Z</time>
      </trkpt>
      <trkpt lat="42.8351870" lon="-0.1407300">
        <ele>1720.8</ele>
        <time>2020-09-13T06:32:09Z</time>
      </trkpt>
      <trkpt lat="42.8351020" lon="-0.1409370">
        <ele>1720.8</ele>
        <time>2020-09-13T06:32:22Z</time>
      </trkpt>
      <trkpt lat="42.8350120" lon="-0.1411500">
        <ele>1721.6</ele>
        <time>2020-09-13T06:32:35Z</time>
      </trkpt>
      <trkpt lat="42.8349770" lon="-0.1412180">
        <ele>1721.8</ele>
        <time>2020-09-13T06:32:39Z</time>
      </trkpt>
      <trkpt lat="42.8348260" lon="-0.1413450">
        <ele>1722.2</ele>
        <time>2020-09-13T06:32:53Z</time>
      </trkpt>
      <trkpt lat="42.8347470" lon="-0.1414250">
        <ele>1723.0</ele>
        <time>2020-09-13T06:33:02Z</time>
      </trkpt>
      <trkpt lat="42.8345630" lon="-0.1414810">
        <ele>1723.2</ele>
        <time>2020-09-13T06:33:16Z</time>
      </trkpt>
      <trkpt lat="42.8343960" lon="-0.1415880">
        <ele>1723.0</ele>
        <time>2020-09-13T06:33:31Z</time>
      </trkpt>
      <trkpt lat="42.8343110" lon="-0.1416220">
        <ele>1723.0</ele>
        <time>2020-09-13T06:33:38Z</time>
      </trkpt>
      <trkpt lat="42.8341330" lon="-0.1416470">
        <ele>1722.6</ele>
        <time>2020-09-13T06:33:52Z</time>
      </trkpt>
      <trkpt lat="42.8340600" lon="-0.1417000">
        <ele>1722.6</ele>
        <time>2020-09-13T06:33:59Z</time>
      </trkpt>
      <trkpt lat="42.8338890" lon="-0.1417710">
        <ele>1722.4</ele>
        <time>2020-09-13T06:34:15Z</time>
      </trkpt>
      <trkpt lat="42.8338290" lon="-0.1418020">
        <ele>1722.4</ele>
        <time>2020-09-13T06:34:19Z</time>
      </trkpt>
      <trkpt lat="42.8337690" lon="-0.1418190">
        <ele>1722.2</ele>
        <time>2020-09-13T06:34:23Z</time>
      </trkpt>
      <trkpt lat="42.8337390" lon="-0.1418340">
        <ele>1722.0</ele>
        <time>2020-09-13T06:34:25Z</time>
      </trkpt>
      <trkpt lat="42.8335640" lon="-0.1418180">
        <ele>1721.8</ele>
        <time>2020-09-13T06:34:40Z</time>
      </trkpt>
      <trkpt lat="42.8335430" lon="-0.1418090">
        <ele>1721.8</ele>
        <time>2020-09-13T06:34:42Z</time>
      </trkpt>
      <trkpt lat="42.8333670" lon="-0.1417330">
        <ele>1722.2</ele>
        <time>2020-09-13T06:34:55Z</time>
      </trkpt>
      <trkpt lat="42.8331800" lon="-0.1417240">
        <ele>1721.6</ele>
        <time>2020-09-13T06:35:11Z</time>
      </trkpt>
      <trkpt lat="42.8329950" lon="-0.1417300">
        <ele>1721.4</ele>
        <time>2020-09-13T06:35:24Z</time>
      </trkpt>
      <trkpt lat="42.8328140" lon="-0.1417170">
        <ele>1721.6</ele>
        <time>2020-09-13T06:35:40Z</time>
      </trkpt>
      <trkpt lat="42.8327870" lon="-0.1417210">
        <ele>1721.8</ele>
        <time>2020-09-13T06:35:42Z</time>
      </trkpt>
      <trkpt lat="42.8326060" lon="-0.1416900">
        <ele>1722.6</ele>
        <time>2020-09-13T06:35:55Z</time>
      </trkpt>
      <trkpt lat="42.8324760" lon="-0.1416560">
        <ele>1723.2</ele>
        <time>2020-09-13T06:36:04Z</time>
      </trkpt>
      <trkpt lat="42.8323220" lon="-0.1415980">
        <ele>1724.2</ele>
        <time>2020-09-13T06:36:15Z</time>
      </trkpt>
      <trkpt lat="42.8321510" lon="-0.1415440">
        <ele>1724.8</ele>
        <time>2020-09-13T06:36:29Z</time>
      </trkpt>
      <trkpt lat="42.8320920" lon="-0.1415220">
        <ele>1725.2</ele>
        <time>2020-09-13T06:36:33Z</time>
      </trkpt>
      <trkpt lat="42.8319020" lon="-0.1415190">
        <ele>1725.8</ele>
        <time>2020-09-13T06:36:48Z</time>
      </trkpt>
      <trkpt lat="42.8317260" lon="-0.1416180">
        <ele>1725.8</ele>
        <time>2020-09-13T06:37:03Z</time>
      </trkpt>
      <trkpt lat="42.8315510" lon="-0.1417250">
        <ele>1725.8</ele>
        <time>2020-09-13T06:37:18Z</time>
      </trkpt>
      <trkpt lat="42.8315160" lon="-0.1417440">
        <ele>1725.8</ele>
        <time>2020-09-13T06:37:21Z</time>
      </trkpt>
      <trkpt lat="42.8314570" lon="-0.1417880">
        <ele>1726.2</ele>
        <time>2020-09-13T06:37:25Z</time>
      </trkpt>
      <trkpt lat="42.8314410" lon="-0.1417970">
        <ele>1726.4</ele>
        <time>2020-09-13T06:37:26Z</time>
      </trkpt>
      <trkpt lat="42.8313880" lon="-0.1417860">
        <ele>1726.4</ele>
        <time>2020-09-13T06:37:29Z</time>
      </trkpt>
      <trkpt lat="42.8313000" lon="-0.1418040">
        <ele>1725.8</ele>
        <time>2020-09-13T06:37:36Z</time>
      </trkpt>
      <trkpt lat="42.8311380" lon="-0.1418630">
        <ele>1725.2</ele>
        <time>2020-09-13T06:37:48Z</time>
      </trkpt>
      <trkpt lat="42.8311100" lon="-0.1418730">
        <ele>1725.0</ele>
        <time>2020-09-13T06:37:50Z</time>
      </trkpt>
      <trkpt lat="42.8310910" lon="-0.1418800">
        <ele>1724.8</ele>
        <time>2020-09-13T06:37:52Z</time>
      </trkpt>
      <trkpt lat="42.8309100" lon="-0.1419090">
        <ele>1724.6</ele>
        <time>2020-09-13T06:38:09Z</time>
      </trkpt>
      <trkpt lat="42.8308560" lon="-0.1418780">
        <ele>1724.6</ele>
        <time>2020-09-13T06:38:13Z</time>
      </trkpt>
      <trkpt lat="42.8308170" lon="-0.1418920">
        <ele>1724.6</ele>
        <time>2020-09-13T06:38:16Z</time>
      </trkpt>
      <trkpt lat="42.8306350" lon="-0.1418910">
        <ele>1724.6</ele>
        <time>2020-09-13T06:38:31Z</time>
      </trkpt>
      <trkpt lat="42.8306150" lon="-0.1419000">
        <ele>1724.8</ele>
        <time>2020-09-13T06:38:33Z</time>
      </trkpt>
      <trkpt lat="42.8304520" lon="-0.1417520">
        <ele>1724.6</ele>
        <time>2020-09-13T06:38:48Z</time>
      </trkpt>
      <trkpt lat="42.8302680" lon="-0.1416870">
        <ele>1725.6</ele>
        <time>2020-09-13T06:39:02Z</time>
      </trkpt>
      <trkpt lat="42.8300910" lon="-0.1416140">
        <ele>1724.2</ele>
        <time>2020-09-13T06:39:16Z</time>
      </trkpt>
      <trkpt lat="42.8299960" lon="-0.1415660">
        <ele>1723.0</ele>
        <time>2020-09-13T06:39:23Z</time>
      </trkpt>
      <trkpt lat="42.8298030" lon="-0.1414850">
        <ele>1723.4</ele>
        <time>2020-09-13T06:39:40Z</time>
      </trkpt>
      <trkpt lat="42.8297380" lon="-0.1414870">
        <ele>1723.4</ele>
        <time>2020-09-13T06:39:45Z</time>
      </trkpt>
      <trkpt lat="42.8297320" lon="-0.1414610">
        <ele>1723.2</ele>
        <time>2020-09-13T06:39:47Z</time>
      </trkpt>
      <trkpt lat="42.8296970" lon="-0.1414540">
        <ele>1723.2</ele>
        <time>2020-09-13T06:39:50Z</time>
      </trkpt>
      <trkpt lat="42.8295380" lon="-0.1413380">
        <ele>1722.4</ele>
        <time>2020-09-13T06:40:05Z</time>
      </trkpt>
      <trkpt lat="42.8294190" lon="-0.1412290">
        <ele>1722.6</ele>
        <time>2020-09-13T06:40:18Z</time>
      </trkpt>
      <trkpt lat="42.8293850" lon="-0.1412120">
        <ele>1722.6</ele>
        <time>2020-09-13T06:40:21Z</time>
      </trkpt>
      <trkpt lat="42.8292890" lon="-0.1412590">
        <ele>1722.0</ele>
        <time>2020-09-13T06:40:29Z</time>
      </trkpt>
      <trkpt lat="42.8292540" lon="-0.1412660">
        <ele>1721.8</ele>
        <time>2020-09-13T06:40:34Z</time>
      </trkpt>
      <trkpt lat="42.8291530" lon="-0.1411360">
        <ele>1720.8</ele>
        <time>2020-09-13T06:40:42Z</time>
      </trkpt>
      <trkpt lat="42.8290110" lon="-0.1410650">
        <ele>1721.4</ele>
        <time>2020-09-13T06:40:57Z</time>
      </trkpt>
      <trkpt lat="42.8289460" lon="-0.1410220">
        <ele>1721.2</ele>
        <time>2020-09-13T06:41:02Z</time>
      </trkpt>
      <trkpt lat="42.8287620" lon="-0.1410260">
        <ele>1721.4</ele>
        <time>2020-09-13T06:41:16Z</time>
      </trkpt>
      <trkpt lat="42.8286120" lon="-0.1409040">
        <ele>1721.6</ele>
        <time>2020-09-13T06:41:30Z</time>
      </trkpt>
      <trkpt lat="42.8285160" lon="-0.1407900">
        <ele>1721.2</ele>
        <time>2020-09-13T06:41:40Z</time>
      </trkpt>
      <trkpt lat="42.8284000" lon="-0.1406130">
        <ele>1719.8</ele>
        <time>2020-09-13T06:41:56Z</time>
      </trkpt>
      <trkpt lat="42.8283960" lon="-0.1406000">
        <ele>1719.6</ele>
        <time>2020-09-13T06:41:58Z</time>
      </trkpt>
      <trkpt lat="42.8283520" lon="-0.1406560">
        <ele>1719.0</ele>
        <time>2020-09-13T06:42:25Z</time>
      </trkpt>
      <trkpt lat="42.8282940" lon="-0.1406490">
        <ele>1720.0</ele>
        <time>2020-09-13T06:42:32Z</time>
      </trkpt>
      <trkpt lat="42.8282580" lon="-0.1406750">
        <ele>1720.2</ele>
        <time>2020-09-13T06:42:36Z</time>
      </trkpt>
      <trkpt lat="42.8281440" lon="-0.1407080">
        <ele>1720.2</ele>
        <time>2020-09-13T06:42:47Z</time>
      </trkpt>
      <trkpt lat="42.8280480" lon="-0.1406330">
        <ele>1720.8</ele>
        <time>2020-09-13T06:42:54Z</time>
      </trkpt>
      <trkpt lat="42.8280090" lon="-0.1406080">
        <ele>1720.8</ele>
        <time>2020-09-13T06:42:58Z</time>
      </trkpt>
      <trkpt lat="42.8279940" lon="-0.1406310">
        <ele>1720.8</ele>
        <time>2020-09-13T06:43:00Z</time>
      </trkpt>
      <trkpt lat="42.8279670" lon="-0.1406680">
        <ele>1721.0</ele>
        <time>2020-09-13T06:43:03Z</time>
      </trkpt>
      <trkpt lat="42.8279450" lon="-0.1406730">
        <ele>1721.2</ele>
        <time>2020-09-13T06:43:06Z</time>
      </trkpt>
      <trkpt lat="42.8279060" lon="-0.1406470">
        <ele>1721.0</ele>
        <time>2020-09-13T06:43:12Z</time>
      </trkpt>
      <trkpt lat="42.8278970" lon="-0.1406170">
        <ele>1720.6</ele>
        <time>2020-09-13T06:43:14Z</time>
      </trkpt>
      <trkpt lat="42.8278570" lon="-0.1405810">
        <ele>1719.8</ele>
        <time>2020-09-13T06:43:18Z</time>
      </trkpt>
      <trkpt lat="42.8278300" lon="-0.1405760">
        <ele>1719.8</ele>
        <time>2020-09-13T06:43:20Z</time>
      </trkpt>
      <trkpt lat="42.8277980" lon="-0.1405670">
        <ele>1719.6</ele>
        <time>2020-09-13T06:43:23Z</time>
      </trkpt>
      <trkpt lat="42.8277670" lon="-0.1405570">
        <ele>1720.0</ele>
        <time>2020-09-13T06:43:27Z</time>
      </trkpt>
      <trkpt lat="42.8277440" lon="-0.1405680">
        <ele>1720.2</ele>
        <time>2020-09-13T06:43:29Z</time>
      </trkpt>
      <trkpt lat="42.8276080" lon="-0.1406060">
        <ele>1720.6</ele>
        <time>2020-09-13T06:43:41Z</time>
      </trkpt>
      <trkpt lat="42.8275710" lon="-0.1405560">
        <ele>1720.8</ele>
        <time>2020-09-13T06:43:46Z</time>
      </trkpt>
      <trkpt lat="42.8275650" lon="-0.1405510">
        <ele>1720.8</ele>
        <time>2020-09-13T06:43:47Z</time>
      </trkpt>
      <trkpt lat="42.8275520" lon="-0.1405550">
        <ele>1720.8</ele>
        <time>2020-09-13T06:43:49Z</time>
      </trkpt>
      <trkpt lat="42.8275350" lon="-0.1405580">
        <ele>1720.8</ele>
        <time>2020-09-13T06:43:51Z</time>
      </trkpt>
      <trkpt lat="42.8275290" lon="-0.1405630">
        <ele>1721.0</ele>
        <time>2020-09-13T06:43:52Z</time>
      </trkpt>
      <trkpt lat="42.8274990" lon="-0.1405460">
        <ele>1721.0</ele>
        <time>2020-09-13T06:43:55Z</time>
      </trkpt>
      <trkpt lat="42.8274880" lon="-0.1405210">
        <ele>1721.0</ele>
        <time>2020-09-13T06:44:00Z</time>
      </trkpt>
      <trkpt lat="42.8274780" lon="-0.1404890">
        <ele>1721.0</ele>
        <time>2020-09-13T06:44:03Z</time>
      </trkpt>
      <trkpt lat="42.8274420" lon="-0.1404850">
        <ele>1721.0</ele>
        <time>2020-09-13T06:44:07Z</time>
      </trkpt>
      <trkpt lat="42.8273450" lon="-0.1405210">
        <ele>1721.8</ele>
        <time>2020-09-13T06:44:15Z</time>
      </trkpt>
      <trkpt lat="42.8272610" lon="-0.1405160">
        <ele>1722.8</ele>
        <time>2020-09-13T06:44:23Z</time>
      </trkpt>
      <trkpt lat="42.8272390" lon="-0.1405100">
        <ele>1723.0</ele>
        <time>2020-09-13T06:44:25Z</time>
      </trkpt>
      <trkpt lat="42.8272110" lon="-0.1404910">
        <ele>1723.8</ele>
        <time>2020-09-13T06:44:28Z</time>
      </trkpt>
      <trkpt lat="42.8272070" lon="-0.1404790">
        <ele>1724.0</ele>
        <time>2020-09-13T06:44:29Z</time>
      </trkpt>
      <trkpt lat="42.8271710" lon="-0.1404150">
        <ele>1724.2</ele>
        <time>2020-09-13T06:44:36Z</time>
      </trkpt>
      <trkpt lat="42.8271540" lon="-0.1404050">
        <ele>1724.4</ele>
        <time>2020-09-13T06:44:38Z</time>
      </trkpt>
      <trkpt lat="42.8270830" lon="-0.1403700">
        <ele>1725.2</ele>
        <time>2020-09-13T06:44:46Z</time>
      </trkpt>
      <trkpt lat="42.8270130" lon="-0.1403160">
        <ele>1726.2</ele>
        <time>2020-09-13T06:44:52Z</time>
      </trkpt>
      <trkpt lat="42.8269860" lon="-0.1403220">
        <ele>1726.6</ele>
        <time>2020-09-13T06:44:55Z</time>
      </trkpt>
      <trkpt lat="42.8269630" lon="-0.1403310">
        <ele>1727.4</ele>
        <time>2020-09-13T06:44:59Z</time>
      </trkpt>
      <trkpt lat="42.8269380" lon="-0.1403140">
        <ele>1728.0</ele>
        <time>2020-09-13T06:45:01Z</time>
      </trkpt>
      <trkpt lat="42.8269170" lon="-0.1402980">
        <ele>1728.2</ele>
        <time>2020-09-13T06:45:03Z</time>
      </trkpt>
      <trkpt lat="42.8269060" lon="-0.1402920">
        <ele>1728.4</ele>
        <time>2020-09-13T06:45:04Z</time>
      </trkpt>
      <trkpt lat="42.8268790" lon="-0.1403140">
        <ele>1728.8</ele>
        <time>2020-09-13T06:45:08Z</time>
      </trkpt>
      <trkpt lat="42.8268640" lon="-0.1403170">
        <ele>1729.0</ele>
        <time>2020-09-13T06:45:10Z</time>
      </trkpt>
      <trkpt lat="42.8268470" lon="-0.1402970">
        <ele>1729.4</ele>
        <time>2020-09-13T06:45:12Z</time>
      </trkpt>
      <trkpt lat="42.8268390" lon="-0.1402850">
        <ele>1729.4</ele>
        <time>2020-09-13T06:45:13Z</time>
      </trkpt>
      <trkpt lat="42.8267930" lon="-0.1402490">
        <ele>1728.6</ele>
        <time>2020-09-13T06:45:19Z</time>
      </trkpt>
      <trkpt lat="42.8267810" lon="-0.1402170">
        <ele>1728.4</ele>
        <time>2020-09-13T06:45:21Z</time>
      </trkpt>
      <trkpt lat="42.8267280" lon="-0.1402170">
        <ele>1728.0</ele>
        <time>2020-09-13T06:45:26Z</time>
      </trkpt>
      <trkpt lat="42.8266650" lon="-0.1402390">
        <ele>1728.0</ele>
        <time>2020-09-13T06:45:32Z</time>
      </trkpt>
      <trkpt lat="42.8266520" lon="-0.1402190">
        <ele>1728.0</ele>
        <time>2020-09-13T06:45:34Z</time>
      </trkpt>
      <trkpt lat="42.8266180" lon="-0.1401500">
        <ele>1727.6</ele>
        <time>2020-09-13T06:45:38Z</time>
      </trkpt>
      <trkpt lat="42.8265870" lon="-0.1401340">
        <ele>1727.4</ele>
        <time>2020-09-13T06:45:41Z</time>
      </trkpt>
      <trkpt lat="42.8265740" lon="-0.1401170">
        <ele>1727.4</ele>
        <time>2020-09-13T06:45:43Z</time>
      </trkpt>
      <trkpt lat="42.8265530" lon="-0.1401050">
        <ele>1727.4</ele>
        <time>2020-09-13T06:45:45Z</time>
      </trkpt>
      <trkpt lat="42.8265110" lon="-0.1400710">
        <ele>1726.4</ele>
        <time>2020-09-13T06:45:49Z</time>
      </trkpt>
      <trkpt lat="42.8264960" lon="-0.1400620">
        <ele>1726.2</ele>
        <time>2020-09-13T06:45:50Z</time>
      </trkpt>
      <trkpt lat="42.8264450" lon="-0.1400360">
        <ele>1725.0</ele>
        <time>2020-09-13T06:45:54Z</time>
      </trkpt>
      <trkpt lat="42.8263210" lon="-0.1399260">
        <ele>1724.0</ele>
        <time>2020-09-13T06:46:08Z</time>
      </trkpt>
      <trkpt lat="42.8263120" lon="-0.1399160">
        <ele>1723.8</ele>
        <time>2020-09-13T06:46:10Z</time>
      </trkpt>
      <trkpt lat="42.8262690" lon="-0.1399040">
        <ele>1723.6</ele>
        <time>2020-09-13T06:47:32Z</time>
      </trkpt>
      <trkpt lat="42.8262500" lon="-0.1399830">
        <ele>1723.0</ele>
        <time>2020-09-13T06:47:43Z</time>
      </trkpt>
      <trkpt lat="42.8262660" lon="-0.1398800">
        <ele>1723.2</ele>
        <time>2020-09-13T06:49:13Z</time>
      </trkpt>
      <trkpt lat="42.8262640" lon="-0.1399620">
        <ele>1723.2</ele>
        <time>2020-09-13T06:49:54Z</time>
      </trkpt>
      <trkpt lat="42.8262260" lon="-0.1399680">
        <ele>1723.2</ele>
        <time>2020-09-13T06:50:23Z</time>
      </trkpt>
      <trkpt lat="42.8262060" lon="-0.1399750">
        <ele>1724.2</ele>
        <time>2020-09-13T06:50:25Z</time>
      </trkpt>
      <trkpt lat="42.8261270" lon="-0.1399680">
        <ele>1725.0</ele>
        <time>2020-09-13T06:50:32Z</time>
      </trkpt>
      <trkpt lat="42.8261020" lon="-0.1399610">
        <ele>1725.2</ele>
        <time>2020-09-13T06:50:35Z</time>
      </trkpt>
      <trkpt lat="42.8260260" lon="-0.1399530">
        <ele>1726.4</ele>
        <time>2020-09-13T06:50:42Z</time>
      </trkpt>
      <trkpt lat="42.8259520" lon="-0.1400130">
        <ele>1726.8</ele>
        <time>2020-09-13T06:50:49Z</time>
      </trkpt>
      <trkpt lat="42.8259010" lon="-0.1399980">
        <ele>1727.4</ele>
        <time>2020-09-13T06:50:54Z</time>
      </trkpt>
      <trkpt lat="42.8258320" lon="-0.1399210">
        <ele>1728.2</ele>
        <time>2020-09-13T06:51:01Z</time>
      </trkpt>
      <trkpt lat="42.8258000" lon="-0.1398610">
        <ele>1728.4</ele>
        <time>2020-09-13T06:51:05Z</time>
      </trkpt>
      <trkpt lat="42.8257670" lon="-0.1398460">
        <ele>1728.4</ele>
        <time>2020-09-13T06:51:08Z</time>
      </trkpt>
      <trkpt lat="42.8257360" lon="-0.1398440">
        <ele>1728.8</ele>
        <time>2020-09-13T06:51:11Z</time>
      </trkpt>
      <trkpt lat="42.8257150" lon="-0.1398070">
        <ele>1729.2</ele>
        <time>2020-09-13T06:51:14Z</time>
      </trkpt>
      <trkpt lat="42.8257000" lon="-0.1398000">
        <ele>1729.4</ele>
        <time>2020-09-13T06:51:16Z</time>
      </trkpt>
      <trkpt lat="42.8255370" lon="-0.1397590">
        <ele>1729.4</ele>
        <time>2020-09-13T06:51:28Z</time>
      </trkpt>
      <trkpt lat="42.8254020" lon="-0.1397640">
        <ele>1729.6</ele>
        <time>2020-09-13T06:51:38Z</time>
      </trkpt>
      <trkpt lat="42.8252180" lon="-0.1397680">
        <ele>1730.0</ele>
        <time>2020-09-13T06:51:51Z</time>
      </trkpt>
      <trkpt lat="42.8252060" lon="-0.1397710">
        <ele>1730.2</ele>
        <time>2020-09-13T06:51:52Z</time>
      </trkpt>
      <trkpt lat="42.8251800" lon="-0.1397730">
        <ele>1730.4</ele>
        <time>2020-09-13T06:51:55Z</time>
      </trkpt>
      <trkpt lat="42.8251600" lon="-0.1397620">
        <ele>1730.8</ele>
        <time>2020-09-13T06:51:57Z</time>
      </trkpt>
      <trkpt lat="42.8251210" lon="-0.1397470">
        <ele>1731.6</ele>
        <time>2020-09-13T06:52:01Z</time>
      </trkpt>
      <trkpt lat="42.8250650" lon="-0.1397410">
        <ele>1732.6</ele>
        <time>2020-09-13T06:52:07Z</time>
      </trkpt>
      <trkpt lat="42.8250130" lon="-0.1397380">
        <ele>1733.2</ele>
        <time>2020-09-13T06:52:12Z</time>
      </trkpt>
      <trkpt lat="42.8249730" lon="-0.1397230">
        <ele>1733.8</ele>
        <time>2020-09-13T06:52:15Z</time>
      </trkpt>
      <trkpt lat="42.8248620" lon="-0.1396890">
        <ele>1734.8</ele>
        <time>2020-09-13T06:52:24Z</time>
      </trkpt>
      <trkpt lat="42.8247940" lon="-0.1396470">
        <ele>1735.8</ele>
        <time>2020-09-13T06:52:32Z</time>
      </trkpt>
      <trkpt lat="42.8247800" lon="-0.1396510">
        <ele>1736.4</ele>
        <time>2020-09-13T06:52:34Z</time>
      </trkpt>
      <trkpt lat="42.8247410" lon="-0.1396780">
        <ele>1737.0</ele>
        <time>2020-09-13T06:52:38Z</time>
      </trkpt>
      <trkpt lat="42.8246590" lon="-0.1396910">
        <ele>1738.2</ele>
        <time>2020-09-13T06:52:46Z</time>
      </trkpt>
      <trkpt lat="42.8245710" lon="-0.1396440">
        <ele>1739.2</ele>
        <time>2020-09-13T06:52:56Z</time>
      </trkpt>
      <trkpt lat="42.8245490" lon="-0.1396170">
        <ele>1739.6</ele>
        <time>2020-09-13T06:52:59Z</time>
      </trkpt>
      <trkpt lat="42.8245210" lon="-0.1395720">
        <ele>1740.2</ele>
        <time>2020-09-13T06:53:03Z</time>
      </trkpt>
      <trkpt lat="42.8244490" lon="-0.1395000">
        <ele>1741.4</ele>
        <time>2020-09-13T06:53:12Z</time>
      </trkpt>
      <trkpt lat="42.8244110" lon="-0.1394260">
        <ele>1742.4</ele>
        <time>2020-09-13T06:53:19Z</time>
      </trkpt>
      <trkpt lat="42.8243790" lon="-0.1393810">
        <ele>1743.2</ele>
        <time>2020-09-13T06:53:24Z</time>
      </trkpt>
      <trkpt lat="42.8243650" lon="-0.1393660">
        <ele>1743.4</ele>
        <time>2020-09-13T06:53:25Z</time>
      </trkpt>
      <trkpt lat="42.8243140" lon="-0.1393000">
        <ele>1744.6</ele>
        <time>2020-09-13T06:53:33Z</time>
      </trkpt>
      <trkpt lat="42.8243090" lon="-0.1392810">
        <ele>1744.8</ele>
        <time>2020-09-13T06:53:35Z</time>
      </trkpt>
      <trkpt lat="42.8242880" lon="-0.1392580">
        <ele>1745.2</ele>
        <time>2020-09-13T06:53:38Z</time>
      </trkpt>
      <trkpt lat="42.8242580" lon="-0.1392270">
        <ele>1745.6</ele>
        <time>2020-09-13T06:53:42Z</time>
      </trkpt>
      <trkpt lat="42.8242270" lon="-0.1391950">
        <ele>1746.2</ele>
        <time>2020-09-13T06:53:46Z</time>
      </trkpt>
      <trkpt lat="42.8242110" lon="-0.1391720">
        <ele>1746.8</ele>
        <time>2020-09-13T06:53:49Z</time>
      </trkpt>
      <trkpt lat="42.8241710" lon="-0.1391130">
        <ele>1747.8</ele>
        <time>2020-09-13T06:53:55Z</time>
      </trkpt>
      <trkpt lat="42.8241650" lon="-0.1390870">
        <ele>1748.2</ele>
        <time>2020-09-13T06:53:57Z</time>
      </trkpt>
      <trkpt lat="42.8241600" lon="-0.1390640">
        <ele>1748.4</ele>
        <time>2020-09-13T06:53:59Z</time>
      </trkpt>
      <trkpt lat="42.8241140" lon="-0.1390340">
        <ele>1748.8</ele>
        <time>2020-09-13T06:54:04Z</time>
      </trkpt>
      <trkpt lat="42.8241080" lon="-0.1390160">
        <ele>1749.0</ele>
        <time>2020-09-13T06:54:06Z</time>
      </trkpt>
      <trkpt lat="42.8240930" lon="-0.1389930">
        <ele>1749.2</ele>
        <time>2020-09-13T06:54:08Z</time>
      </trkpt>
      <trkpt lat="42.8240610" lon="-0.1389640">
        <ele>1750.0</ele>
        <time>2020-09-13T06:54:11Z</time>
      </trkpt>
      <trkpt lat="42.8240260" lon="-0.1389080">
        <ele>1750.6</ele>
        <time>2020-09-13T06:54:17Z</time>
      </trkpt>
      <trkpt lat="42.8240140" lon="-0.1388870">
        <ele>1750.8</ele>
        <time>2020-09-13T06:54:19Z</time>
      </trkpt>
      <trkpt lat="42.8239020" lon="-0.1388930">
        <ele>1750.6</ele>
        <time>2020-09-13T06:54:28Z</time>
      </trkpt>
      <trkpt lat="42.8238910" lon="-0.1388870">
        <ele>1750.6</ele>
        <time>2020-09-13T06:54:29Z</time>
      </trkpt>
      <trkpt lat="42.8238230" lon="-0.1387980">
        <ele>1750.8</ele>
        <time>2020-09-13T06:54:36Z</time>
      </trkpt>
      <trkpt lat="42.8238150" lon="-0.1387670">
        <ele>1751.0</ele>
        <time>2020-09-13T06:54:38Z</time>
      </trkpt>
      <trkpt lat="42.8238120" lon="-0.1387510">
        <ele>1751.0</ele>
        <time>2020-09-13T06:54:39Z</time>
      </trkpt>
      <trkpt lat="42.8238130" lon="-0.1387300">
        <ele>1751.4</ele>
        <time>2020-09-13T06:54:41Z</time>
      </trkpt>
      <trkpt lat="42.8238120" lon="-0.1387280">
        <ele>1751.4</ele>
        <time>2020-09-13T06:54:43Z</time>
      </trkpt>
      <trkpt lat="42.8238230" lon="-0.1388120">
        <ele>1751.4</ele>
        <time>2020-09-13T06:55:18Z</time>
      </trkpt>
      <trkpt lat="42.8238150" lon="-0.1387150">
        <ele>1751.6</ele>
        <time>2020-09-13T06:55:28Z</time>
      </trkpt>
      <trkpt lat="42.8238730" lon="-0.1384730">
        <ele>1751.2</ele>
        <time>2020-09-13T06:55:40Z</time>
      </trkpt>
      <trkpt lat="42.8238670" lon="-0.1384500">
        <ele>1751.4</ele>
        <time>2020-09-13T06:55:42Z</time>
      </trkpt>
      <trkpt lat="42.8238350" lon="-0.1384310">
        <ele>1752.0</ele>
        <time>2020-09-13T06:55:45Z</time>
      </trkpt>
      <trkpt lat="42.8238270" lon="-0.1384300">
        <ele>1752.4</ele>
        <time>2020-09-13T06:55:46Z</time>
      </trkpt>
      <trkpt lat="42.8238140" lon="-0.1384100">
        <ele>1753.4</ele>
        <time>2020-09-13T06:55:49Z</time>
      </trkpt>
      <trkpt lat="42.8238220" lon="-0.1383730">
        <ele>1754.6</ele>
        <time>2020-09-13T06:55:53Z</time>
      </trkpt>
      <trkpt lat="42.8238000" lon="-0.1383510">
        <ele>1755.2</ele>
        <time>2020-09-13T06:55:56Z</time>
      </trkpt>
      <trkpt lat="42.8237930" lon="-0.1383350">
        <ele>1755.8</ele>
        <time>2020-09-13T06:55:58Z</time>
      </trkpt>
      <trkpt lat="42.8237890" lon="-0.1383270">
        <ele>1756.0</ele>
        <time>2020-09-13T06:55:59Z</time>
      </trkpt>
      <trkpt lat="42.8237910" lon="-0.1383040">
        <ele>1756.6</ele>
        <time>2020-09-13T06:56:01Z</time>
      </trkpt>
      <trkpt lat="42.8237880" lon="-0.1382920">
        <ele>1757.0</ele>
        <time>2020-09-13T06:56:02Z</time>
      </trkpt>
      <trkpt lat="42.8237890" lon="-0.1382580">
        <ele>1757.8</ele>
        <time>2020-09-13T06:56:05Z</time>
      </trkpt>
      <trkpt lat="42.8237870" lon="-0.1382460">
        <ele>1758.0</ele>
        <time>2020-09-13T06:56:06Z</time>
      </trkpt>
      <trkpt lat="42.8237770" lon="-0.1382320">
        <ele>1758.4</ele>
        <time>2020-09-13T06:56:08Z</time>
      </trkpt>
      <trkpt lat="42.8237500" lon="-0.1382360">
        <ele>1759.0</ele>
        <time>2020-09-13T06:56:10Z</time>
      </trkpt>
      <trkpt lat="42.8237390" lon="-0.1382390">
        <ele>1759.4</ele>
        <time>2020-09-13T06:56:11Z</time>
      </trkpt>
      <trkpt lat="42.8236910" lon="-0.1382550">
        <ele>1760.2</ele>
        <time>2020-09-13T06:56:16Z</time>
      </trkpt>
      <trkpt lat="42.8236420" lon="-0.1382620">
        <ele>1761.2</ele>
        <time>2020-09-13T06:56:21Z</time>
      </trkpt>
      <trkpt lat="42.8236340" lon="-0.1382590">
        <ele>1761.2</ele>
        <time>2020-09-13T06:56:22Z</time>
      </trkpt>
      <trkpt lat="42.8236220" lon="-0.1382590">
        <ele>1761.4</ele>
        <time>2020-09-13T06:56:23Z</time>
      </trkpt>
      <trkpt lat="42.8236020" lon="-0.1382650">
        <ele>1761.6</ele>
        <time>2020-09-13T06:56:25Z</time>
      </trkpt>
      <trkpt lat="42.8235870" lon="-0.1382760">
        <ele>1762.0</ele>
        <time>2020-09-13T06:56:27Z</time>
      </trkpt>
      <trkpt lat="42.8235650" lon="-0.1382880">
        <ele>1762.4</ele>
        <time>2020-09-13T06:56:29Z</time>
      </trkpt>
      <trkpt lat="42.8235570" lon="-0.1382990">
        <ele>1762.4</ele>
        <time>2020-09-13T06:56:30Z</time>
      </trkpt>
      <trkpt lat="42.8235370" lon="-0.1383150">
        <ele>1763.0</ele>
        <time>2020-09-13T06:56:33Z</time>
      </trkpt>
      <trkpt lat="42.8235170" lon="-0.1383370">
        <ele>1763.4</ele>
        <time>2020-09-13T06:56:35Z</time>
      </trkpt>
      <trkpt lat="42.8235020" lon="-0.1383500">
        <ele>1763.8</ele>
        <time>2020-09-13T06:56:37Z</time>
      </trkpt>
      <trkpt lat="42.8234560" lon="-0.1383880">
        <ele>1764.6</ele>
        <time>2020-09-13T06:56:42Z</time>
      </trkpt>
      <trkpt lat="42.8234340" lon="-0.1384310">
        <ele>1765.6</ele>
        <time>2020-09-13T06:56:46Z</time>
      </trkpt>
      <trkpt lat="42.8234240" lon="-0.1384350">
        <ele>1765.8</ele>
        <time>2020-09-13T06:56:47Z</time>
      </trkpt>
      <trkpt lat="42.8234080" lon="-0.1384260">
        <ele>1766.2</ele>
        <time>2020-09-13T06:56:49Z</time>
      </trkpt>
      <trkpt lat="42.8234010" lon="-0.1384170">
        <ele>1766.6</ele>
        <time>2020-09-13T06:56:50Z</time>
      </trkpt>
      <trkpt lat="42.8233910" lon="-0.1384060">
        <ele>1766.8</ele>
        <time>2020-09-13T06:56:51Z</time>
      </trkpt>
      <trkpt lat="42.8233790" lon="-0.1383920">
        <ele>1767.0</ele>
        <time>2020-09-13T06:56:53Z</time>
      </trkpt>
      <trkpt lat="42.8233670" lon="-0.1383430">
        <ele>1767.6</ele>
        <time>2020-09-13T06:56:57Z</time>
      </trkpt>
      <trkpt lat="42.8233630" lon="-0.1383340">
        <ele>1767.8</ele>
        <time>2020-09-13T06:56:58Z</time>
      </trkpt>
      <trkpt lat="42.8233420" lon="-0.1382900">
        <ele>1768.8</ele>
        <time>2020-09-13T06:57:03Z</time>
      </trkpt>
      <trkpt lat="42.8233280" lon="-0.1382820">
        <ele>1769.0</ele>
        <time>2020-09-13T06:57:05Z</time>
      </trkpt>
      <trkpt lat="42.8233180" lon="-0.1382780">
        <ele>1769.2</ele>
        <time>2020-09-13T06:57:06Z</time>
      </trkpt>
      <trkpt lat="42.8232790" lon="-0.1382570">
        <ele>1770.2</ele>
        <time>2020-09-13T06:57:11Z</time>
      </trkpt>
      <trkpt lat="42.8231950" lon="-0.1381860">
        <ele>1771.2</ele>
        <time>2020-09-13T06:57:20Z</time>
      </trkpt>
      <trkpt lat="42.8231890" lon="-0.1381740">
        <ele>1771.2</ele>
        <time>2020-09-13T06:57:21Z</time>
      </trkpt>
      <trkpt lat="42.8231370" lon="-0.1381090">
        <ele>1771.6</ele>
        <time>2020-09-13T06:57:28Z</time>
      </trkpt>
      <trkpt lat="42.8231030" lon="-0.1380410">
        <ele>1772.4</ele>
        <time>2020-09-13T06:57:33Z</time>
      </trkpt>
      <trkpt lat="42.8230560" lon="-0.1379280">
        <ele>1772.6</ele>
        <time>2020-09-13T06:57:41Z</time>
      </trkpt>
      <trkpt lat="42.8230510" lon="-0.1378990">
        <ele>1772.8</ele>
        <time>2020-09-13T06:57:43Z</time>
      </trkpt>
      <trkpt lat="42.8230410" lon="-0.1378710">
        <ele>1772.8</ele>
        <time>2020-09-13T06:57:45Z</time>
      </trkpt>
      <trkpt lat="42.8230140" lon="-0.1378230">
        <ele>1772.6</ele>
        <time>2020-09-13T06:57:49Z</time>
      </trkpt>
      <trkpt lat="42.8229290" lon="-0.1376300">
        <ele>1772.8</ele>
        <time>2020-09-13T06:58:04Z</time>
      </trkpt>
      <trkpt lat="42.8228670" lon="-0.1376040">
        <ele>1773.6</ele>
        <time>2020-09-13T06:58:11Z</time>
      </trkpt>
      <trkpt lat="42.8227960" lon="-0.1375910">
        <ele>1774.6</ele>
        <time>2020-09-13T06:58:18Z</time>
      </trkpt>
      <trkpt lat="42.8227230" lon="-0.1375580">
        <ele>1775.8</ele>
        <time>2020-09-13T06:58:25Z</time>
      </trkpt>
      <trkpt lat="42.8226480" lon="-0.1375660">
        <ele>1776.8</ele>
        <time>2020-09-13T06:58:32Z</time>
      </trkpt>
      <trkpt lat="42.8226020" lon="-0.1375340">
        <ele>1777.8</ele>
        <time>2020-09-13T06:58:37Z</time>
      </trkpt>
      <trkpt lat="42.8225040" lon="-0.1374940">
        <ele>1779.0</ele>
        <time>2020-09-13T06:58:48Z</time>
      </trkpt>
      <trkpt lat="42.8224380" lon="-0.1374870">
        <ele>1780.0</ele>
        <time>2020-09-13T06:58:54Z</time>
      </trkpt>
      <trkpt lat="42.8222700" lon="-0.1374340">
        <ele>1781.0</ele>
        <time>2020-09-13T06:59:11Z</time>
      </trkpt>
      <trkpt lat="42.8222620" lon="-0.1374380">
        <ele>1781.0</ele>
        <time>2020-09-13T06:59:12Z</time>
      </trkpt>
      <trkpt lat="42.8222100" lon="-0.1374380">
        <ele>1781.4</ele>
        <time>2020-09-13T06:59:17Z</time>
      </trkpt>
      <trkpt lat="42.8221740" lon="-0.1374430">
        <ele>1781.4</ele>
        <time>2020-09-13T06:59:20Z</time>
      </trkpt>
      <trkpt lat="42.8221380" lon="-0.1374370">
        <ele>1781.4</ele>
        <time>2020-09-13T06:59:23Z</time>
      </trkpt>
      <trkpt lat="42.8220390" lon="-0.1374140">
        <ele>1782.2</ele>
        <time>2020-09-13T06:59:32Z</time>
      </trkpt>
      <trkpt lat="42.8219310" lon="-0.1373910">
        <ele>1783.2</ele>
        <time>2020-09-13T06:59:42Z</time>
      </trkpt>
      <trkpt lat="42.8217510" lon="-0.1373090">
        <ele>1783.8</ele>
        <time>2020-09-13T06:59:58Z</time>
      </trkpt>
      <trkpt lat="42.8216930" lon="-0.1372570">
        <ele>1783.6</ele>
        <time>2020-09-13T07:00:03Z</time>
      </trkpt>
      <trkpt lat="42.8216640" lon="-0.1372470">
        <ele>1783.4</ele>
        <time>2020-09-13T07:00:05Z</time>
      </trkpt>
      <trkpt lat="42.8216270" lon="-0.1372360">
        <ele>1783.6</ele>
        <time>2020-09-13T07:00:08Z</time>
      </trkpt>
      <trkpt lat="42.8216040" lon="-0.1372300">
        <ele>1783.6</ele>
        <time>2020-09-13T07:00:10Z</time>
      </trkpt>
      <trkpt lat="42.8215430" lon="-0.1372410">
        <ele>1784.2</ele>
        <time>2020-09-13T07:00:17Z</time>
      </trkpt>
      <trkpt lat="42.8214660" lon="-0.1372060">
        <ele>1785.0</ele>
        <time>2020-09-13T07:00:25Z</time>
      </trkpt>
      <trkpt lat="42.8214410" lon="-0.1371950">
        <ele>1785.4</ele>
        <time>2020-09-13T07:00:28Z</time>
      </trkpt>
      <trkpt lat="42.8213740" lon="-0.1371730">
        <ele>1786.6</ele>
        <time>2020-09-13T07:00:34Z</time>
      </trkpt>
      <trkpt lat="42.8212970" lon="-0.1371220">
        <ele>1787.6</ele>
        <time>2020-09-13T07:00:42Z</time>
      </trkpt>
      <trkpt lat="42.8212770" lon="-0.1371200">
        <ele>1788.0</ele>
        <time>2020-09-13T07:00:44Z</time>
      </trkpt>
      <trkpt lat="42.8211970" lon="-0.1370960">
        <ele>1788.8</ele>
        <time>2020-09-13T07:00:50Z</time>
      </trkpt>
      <trkpt lat="42.8210430" lon="-0.1371290">
        <ele>1789.8</ele>
        <time>2020-09-13T07:01:03Z</time>
      </trkpt>
      <trkpt lat="42.8209590" lon="-0.1371420">
        <ele>1790.8</ele>
        <time>2020-09-13T07:01:11Z</time>
      </trkpt>
      <trkpt lat="42.8209320" lon="-0.1371460">
        <ele>1791.6</ele>
        <time>2020-09-13T07:01:14Z</time>
      </trkpt>
      <trkpt lat="42.8209200" lon="-0.1371480">
        <ele>1791.8</ele>
        <time>2020-09-13T07:01:16Z</time>
      </trkpt>
      <trkpt lat="42.8208980" lon="-0.1371430">
        <ele>1793.0</ele>
        <time>2020-09-13T07:01:21Z</time>
      </trkpt>
      <trkpt lat="42.8208680" lon="-0.1371270">
        <ele>1793.4</ele>
        <time>2020-09-13T07:01:24Z</time>
      </trkpt>
      <trkpt lat="42.8208060" lon="-0.1371590">
        <ele>1793.4</ele>
        <time>2020-09-13T07:01:31Z</time>
      </trkpt>
      <trkpt lat="42.8207960" lon="-0.1371570">
        <ele>1793.6</ele>
        <time>2020-09-13T07:01:33Z</time>
      </trkpt>
      <trkpt lat="42.8207840" lon="-0.1371510">
        <ele>1794.4</ele>
        <time>2020-09-13T07:01:35Z</time>
      </trkpt>
      <trkpt lat="42.8207690" lon="-0.1371340">
        <ele>1795.4</ele>
        <time>2020-09-13T07:01:40Z</time>
      </trkpt>
      <trkpt lat="42.8205940" lon="-0.1372100">
        <ele>1795.4</ele>
        <time>2020-09-13T07:02:02Z</time>
      </trkpt>
      <trkpt lat="42.8205380" lon="-0.1372210">
        <ele>1795.4</ele>
        <time>2020-09-13T07:02:07Z</time>
      </trkpt>
      <trkpt lat="42.8204950" lon="-0.1372350">
        <ele>1796.2</ele>
        <time>2020-09-13T07:02:11Z</time>
      </trkpt>
      <trkpt lat="42.8204740" lon="-0.1372340">
        <ele>1796.4</ele>
        <time>2020-09-13T07:02:13Z</time>
      </trkpt>
      <trkpt lat="42.8204250" lon="-0.1372290">
        <ele>1797.4</ele>
        <time>2020-09-13T07:02:17Z</time>
      </trkpt>
      <trkpt lat="42.8204030" lon="-0.1372260">
        <ele>1797.6</ele>
        <time>2020-09-13T07:02:19Z</time>
      </trkpt>
      <trkpt lat="42.8202270" lon="-0.1371750">
        <ele>1798.6</ele>
        <time>2020-09-13T07:02:32Z</time>
      </trkpt>
      <trkpt lat="42.8202160" lon="-0.1371780">
        <ele>1798.6</ele>
        <time>2020-09-13T07:02:33Z</time>
      </trkpt>
      <trkpt lat="42.8202040" lon="-0.1371760">
        <ele>1798.6</ele>
        <time>2020-09-13T07:02:34Z</time>
      </trkpt>
      <trkpt lat="42.8201800" lon="-0.1371820">
        <ele>1798.8</ele>
        <time>2020-09-13T07:02:36Z</time>
      </trkpt>
      <trkpt lat="42.8201610" lon="-0.1372050">
        <ele>1799.4</ele>
        <time>2020-09-13T07:02:39Z</time>
      </trkpt>
      <trkpt lat="42.8201330" lon="-0.1372400">
        <ele>1799.6</ele>
        <time>2020-09-13T07:02:42Z</time>
      </trkpt>
      <trkpt lat="42.8201230" lon="-0.1372470">
        <ele>1799.6</ele>
        <time>2020-09-13T07:02:43Z</time>
      </trkpt>
      <trkpt lat="42.8201130" lon="-0.1372480">
        <ele>1799.8</ele>
        <time>2020-09-13T07:02:44Z</time>
      </trkpt>
      <trkpt lat="42.8199940" lon="-0.1372830">
        <ele>1800.6</ele>
        <time>2020-09-13T07:02:56Z</time>
      </trkpt>
      <trkpt lat="42.8198180" lon="-0.1373780">
        <ele>1801.0</ele>
        <time>2020-09-13T07:03:11Z</time>
      </trkpt>
      <trkpt lat="42.8197520" lon="-0.1374030">
        <ele>1801.2</ele>
        <time>2020-09-13T07:03:17Z</time>
      </trkpt>
      <trkpt lat="42.8197290" lon="-0.1374340">
        <ele>1801.6</ele>
        <time>2020-09-13T07:03:20Z</time>
      </trkpt>
      <trkpt lat="42.8197110" lon="-0.1374540">
        <ele>1802.2</ele>
        <time>2020-09-13T07:03:23Z</time>
      </trkpt>
      <trkpt lat="42.8196940" lon="-0.1374620">
        <ele>1803.0</ele>
        <time>2020-09-13T07:03:25Z</time>
      </trkpt>
      <trkpt lat="42.8196550" lon="-0.1374920">
        <ele>1804.2</ele>
        <time>2020-09-13T07:03:30Z</time>
      </trkpt>
      <trkpt lat="42.8196430" lon="-0.1375230">
        <ele>1804.8</ele>
        <time>2020-09-13T07:03:33Z</time>
      </trkpt>
      <trkpt lat="42.8196310" lon="-0.1375230">
        <ele>1805.2</ele>
        <time>2020-09-13T07:03:36Z</time>
      </trkpt>
      <trkpt lat="42.8195950" lon="-0.1375330">
        <ele>1806.4</ele>
        <time>2020-09-13T07:03:43Z</time>
      </trkpt>
      <trkpt lat="42.8195380" lon="-0.1375390">
        <ele>1807.6</ele>
        <time>2020-09-13T07:03:49Z</time>
      </trkpt>
      <trkpt lat="42.8194870" lon="-0.1375380">
        <ele>1808.6</ele>
        <time>2020-09-13T07:03:54Z</time>
      </trkpt>
      <trkpt lat="42.8194470" lon="-0.1375340">
        <ele>1809.8</ele>
        <time>2020-09-13T07:03:59Z</time>
      </trkpt>
      <trkpt lat="42.8194280" lon="-0.1375290">
        <ele>1810.2</ele>
        <time>2020-09-13T07:04:01Z</time>
      </trkpt>
      <trkpt lat="42.8194040" lon="-0.1375210">
        <ele>1810.8</ele>
        <time>2020-09-13T07:04:04Z</time>
      </trkpt>
      <trkpt lat="42.8193690" lon="-0.1375110">
        <ele>1811.8</ele>
        <time>2020-09-13T07:04:08Z</time>
      </trkpt>
      <trkpt lat="42.8193620" lon="-0.1375070">
        <ele>1812.0</ele>
        <time>2020-09-13T07:04:09Z</time>
      </trkpt>
      <trkpt lat="42.8193580" lon="-0.1375000">
        <ele>1813.0</ele>
        <time>2020-09-13T07:04:13Z</time>
      </trkpt>
      <trkpt lat="42.8193060" lon="-0.1374330">
        <ele>1814.0</ele>
        <time>2020-09-13T07:04:32Z</time>
      </trkpt>
      <trkpt lat="42.8192830" lon="-0.1373950">
        <ele>1815.2</ele>
        <time>2020-09-13T07:04:38Z</time>
      </trkpt>
      <trkpt lat="42.8192060" lon="-0.1372830">
        <ele>1815.8</ele>
        <time>2020-09-13T07:04:50Z</time>
      </trkpt>
      <trkpt lat="42.8192030" lon="-0.1372510">
        <ele>1816.4</ele>
        <time>2020-09-13T07:04:53Z</time>
      </trkpt>
      <trkpt lat="42.8191970" lon="-0.1372240">
        <ele>1817.4</ele>
        <time>2020-09-13T07:04:56Z</time>
      </trkpt>
      <trkpt lat="42.8191920" lon="-0.1372170">
        <ele>1817.8</ele>
        <time>2020-09-13T07:04:57Z</time>
      </trkpt>
      <trkpt lat="42.8191590" lon="-0.1372170">
        <ele>1818.8</ele>
        <time>2020-09-13T07:05:01Z</time>
      </trkpt>
      <trkpt lat="42.8191330" lon="-0.1372440">
        <ele>1819.8</ele>
        <time>2020-09-13T07:05:05Z</time>
      </trkpt>
      <trkpt lat="42.8191220" lon="-0.1372480">
        <ele>1819.8</ele>
        <time>2020-09-13T07:05:06Z</time>
      </trkpt>
      <trkpt lat="42.8190550" lon="-0.1372430">
        <ele>1820.4</ele>
        <time>2020-09-13T07:05:12Z</time>
      </trkpt>
      <trkpt lat="42.8190320" lon="-0.1372470">
        <ele>1820.4</ele>
        <time>2020-09-13T07:05:14Z</time>
      </trkpt>
      <trkpt lat="42.8190000" lon="-0.1372580">
        <ele>1820.4</ele>
        <time>2020-09-13T07:05:17Z</time>
      </trkpt>
      <trkpt lat="42.8189260" lon="-0.1373790">
        <ele>1820.8</ele>
        <time>2020-09-13T07:05:26Z</time>
      </trkpt>
      <trkpt lat="42.8189180" lon="-0.1373850">
        <ele>1820.8</ele>
        <time>2020-09-13T07:05:28Z</time>
      </trkpt>
      <trkpt lat="42.8189100" lon="-0.1373890">
        <ele>1821.0</ele>
        <time>2020-09-13T07:05:29Z</time>
      </trkpt>
      <trkpt lat="42.8188970" lon="-0.1374150">
        <ele>1821.0</ele>
        <time>2020-09-13T07:05:32Z</time>
      </trkpt>
      <trkpt lat="42.8188430" lon="-0.1374910">
        <ele>1822.0</ele>
        <time>2020-09-13T07:05:40Z</time>
      </trkpt>
      <trkpt lat="42.8186720" lon="-0.1375720">
        <ele>1823.0</ele>
        <time>2020-09-13T07:05:57Z</time>
      </trkpt>
      <trkpt lat="42.8186520" lon="-0.1375910">
        <ele>1823.0</ele>
        <time>2020-09-13T07:05:59Z</time>
      </trkpt>
      <trkpt lat="42.8185770" lon="-0.1376730">
        <ele>1824.2</ele>
        <time>2020-09-13T07:06:07Z</time>
      </trkpt>
      <trkpt lat="42.8184940" lon="-0.1377800">
        <ele>1825.2</ele>
        <time>2020-09-13T07:06:17Z</time>
      </trkpt>
      <trkpt lat="42.8184610" lon="-0.1378040">
        <ele>1825.6</ele>
        <time>2020-09-13T07:06:21Z</time>
      </trkpt>
      <trkpt lat="42.8184390" lon="-0.1378210">
        <ele>1826.0</ele>
        <time>2020-09-13T07:06:24Z</time>
      </trkpt>
      <trkpt lat="42.8184040" lon="-0.1378160">
        <ele>1826.4</ele>
        <time>2020-09-13T07:06:27Z</time>
      </trkpt>
      <trkpt lat="42.8183580" lon="-0.1378150">
        <ele>1826.8</ele>
        <time>2020-09-13T07:06:31Z</time>
      </trkpt>
      <trkpt lat="42.8183280" lon="-0.1378200">
        <ele>1827.6</ele>
        <time>2020-09-13T07:06:34Z</time>
      </trkpt>
      <trkpt lat="42.8182930" lon="-0.1378380">
        <ele>1828.2</ele>
        <time>2020-09-13T07:06:38Z</time>
      </trkpt>
      <trkpt lat="42.8182630" lon="-0.1378480">
        <ele>1828.6</ele>
        <time>2020-09-13T07:06:41Z</time>
      </trkpt>
      <trkpt lat="42.8182390" lon="-0.1378460">
        <ele>1828.6</ele>
        <time>2020-09-13T07:06:43Z</time>
      </trkpt>
      <trkpt lat="42.8180890" lon="-0.1378690">
        <ele>1828.8</ele>
        <time>2020-09-13T07:06:55Z</time>
      </trkpt>
      <trkpt lat="42.8180500" lon="-0.1378850">
        <ele>1829.4</ele>
        <time>2020-09-13T07:06:59Z</time>
      </trkpt>
      <trkpt lat="42.8180400" lon="-0.1378870">
        <ele>1829.6</ele>
        <time>2020-09-13T07:07:00Z</time>
      </trkpt>
      <trkpt lat="42.8179800" lon="-0.1378690">
        <ele>1830.6</ele>
        <time>2020-09-13T07:07:06Z</time>
      </trkpt>
      <trkpt lat="42.8178920" lon="-0.1378140">
        <ele>1831.0</ele>
        <time>2020-09-13T07:07:15Z</time>
      </trkpt>
      <trkpt lat="42.8178640" lon="-0.1377740">
        <ele>1831.4</ele>
        <time>2020-09-13T07:07:19Z</time>
      </trkpt>
      <trkpt lat="42.8178170" lon="-0.1377600">
        <ele>1831.2</ele>
        <time>2020-09-13T07:07:23Z</time>
      </trkpt>
      <trkpt lat="42.8177890" lon="-0.1377330">
        <ele>1831.2</ele>
        <time>2020-09-13T07:07:26Z</time>
      </trkpt>
      <trkpt lat="42.8177390" lon="-0.1377120">
        <ele>1831.2</ele>
        <time>2020-09-13T07:07:31Z</time>
      </trkpt>
      <trkpt lat="42.8176430" lon="-0.1375740">
        <ele>1831.4</ele>
        <time>2020-09-13T07:07:44Z</time>
      </trkpt>
      <trkpt lat="42.8176080" lon="-0.1375620">
        <ele>1831.4</ele>
        <time>2020-09-13T07:07:48Z</time>
      </trkpt>
      <trkpt lat="42.8175560" lon="-0.1375430">
        <ele>1831.4</ele>
        <time>2020-09-13T07:07:52Z</time>
      </trkpt>
      <trkpt lat="42.8175210" lon="-0.1375370">
        <ele>1831.6</ele>
        <time>2020-09-13T07:07:55Z</time>
      </trkpt>
      <trkpt lat="42.8174710" lon="-0.1375100">
        <ele>1832.6</ele>
        <time>2020-09-13T07:08:00Z</time>
      </trkpt>
      <trkpt lat="42.8174540" lon="-0.1374630">
        <ele>1832.8</ele>
        <time>2020-09-13T07:08:03Z</time>
      </trkpt>
      <trkpt lat="42.8174490" lon="-0.1374470">
        <ele>1832.8</ele>
        <time>2020-09-13T07:08:04Z</time>
      </trkpt>
      <trkpt lat="42.8174190" lon="-0.1374370">
        <ele>1833.4</ele>
        <time>2020-09-13T07:08:07Z</time>
      </trkpt>
      <trkpt lat="42.8173540" lon="-0.1374590">
        <ele>1833.6</ele>
        <time>2020-09-13T07:08:12Z</time>
      </trkpt>
      <trkpt lat="42.8173480" lon="-0.1374540">
        <ele>1833.8</ele>
        <time>2020-09-13T07:08:13Z</time>
      </trkpt>
      <trkpt lat="42.8173430" lon="-0.1374480">
        <ele>1833.8</ele>
        <time>2020-09-13T07:08:14Z</time>
      </trkpt>
      <trkpt lat="42.8173280" lon="-0.1374450">
        <ele>1834.0</ele>
        <time>2020-09-13T07:08:16Z</time>
      </trkpt>
      <trkpt lat="42.8172900" lon="-0.1374400">
        <ele>1834.6</ele>
        <time>2020-09-13T07:08:20Z</time>
      </trkpt>
      <trkpt lat="42.8172900" lon="-0.1374080">
        <ele>1834.8</ele>
        <time>2020-09-13T07:08:22Z</time>
      </trkpt>
      <trkpt lat="42.8172590" lon="-0.1374060">
        <ele>1835.4</ele>
        <time>2020-09-13T07:08:25Z</time>
      </trkpt>
      <trkpt lat="42.8172270" lon="-0.1374130">
        <ele>1836.0</ele>
        <time>2020-09-13T07:08:28Z</time>
      </trkpt>
      <trkpt lat="42.8172040" lon="-0.1374110">
        <ele>1836.2</ele>
        <time>2020-09-13T07:08:30Z</time>
      </trkpt>
      <trkpt lat="42.8171790" lon="-0.1374200">
        <ele>1836.4</ele>
        <time>2020-09-13T07:08:32Z</time>
      </trkpt>
      <trkpt lat="42.8171280" lon="-0.1374100">
        <ele>1837.0</ele>
        <time>2020-09-13T07:08:37Z</time>
      </trkpt>
      <trkpt lat="42.8170700" lon="-0.1374090">
        <ele>1838.0</ele>
        <time>2020-09-13T07:08:43Z</time>
      </trkpt>
      <trkpt lat="42.8169920" lon="-0.1374200">
        <ele>1839.2</ele>
        <time>2020-09-13T07:08:49Z</time>
      </trkpt>
      <trkpt lat="42.8169480" lon="-0.1374210">
        <ele>1839.6</ele>
        <time>2020-09-13T07:08:52Z</time>
      </trkpt>
      <trkpt lat="42.8169130" lon="-0.1374280">
        <ele>1839.6</ele>
        <time>2020-09-13T07:08:55Z</time>
      </trkpt>
      <trkpt lat="42.8169020" lon="-0.1373920">
        <ele>1840.2</ele>
        <time>2020-09-13T07:08:58Z</time>
      </trkpt>
      <trkpt lat="42.8168890" lon="-0.1373750">
        <ele>1840.6</ele>
        <time>2020-09-13T07:09:00Z</time>
      </trkpt>
      <trkpt lat="42.8168800" lon="-0.1373600">
        <ele>1841.0</ele>
        <time>2020-09-13T07:09:02Z</time>
      </trkpt>
      <trkpt lat="42.8168730" lon="-0.1373540">
        <ele>1841.2</ele>
        <time>2020-09-13T07:09:03Z</time>
      </trkpt>
      <trkpt lat="42.8168560" lon="-0.1373550">
        <ele>1841.4</ele>
        <time>2020-09-13T07:09:05Z</time>
      </trkpt>
      <trkpt lat="42.8168270" lon="-0.1373330">
        <ele>1842.2</ele>
        <time>2020-09-13T07:09:09Z</time>
      </trkpt>
      <trkpt lat="42.8168180" lon="-0.1373300">
        <ele>1842.4</ele>
        <time>2020-09-13T07:09:10Z</time>
      </trkpt>
      <trkpt lat="42.8168140" lon="-0.1373200">
        <ele>1842.6</ele>
        <time>2020-09-13T07:09:11Z</time>
      </trkpt>
      <trkpt lat="42.8168040" lon="-0.1373170">
        <ele>1843.4</ele>
        <time>2020-09-13T07:09:14Z</time>
      </trkpt>
      <trkpt lat="42.8167670" lon="-0.1373770">
        <ele>1844.0</ele>
        <time>2020-09-13T07:09:25Z</time>
      </trkpt>
      <trkpt lat="42.8167410" lon="-0.1373760">
        <ele>1844.0</ele>
        <time>2020-09-13T07:09:28Z</time>
      </trkpt>
      <trkpt lat="42.8167160" lon="-0.1373590">
        <ele>1844.2</ele>
        <time>2020-09-13T07:09:31Z</time>
      </trkpt>
      <trkpt lat="42.8167010" lon="-0.1373490">
        <ele>1844.4</ele>
        <time>2020-09-13T07:09:33Z</time>
      </trkpt>
      <trkpt lat="42.8166950" lon="-0.1373270">
        <ele>1844.8</ele>
        <time>2020-09-13T07:09:35Z</time>
      </trkpt>
      <trkpt lat="42.8166700" lon="-0.1373050">
        <ele>1845.6</ele>
        <time>2020-09-13T07:09:39Z</time>
      </trkpt>
      <trkpt lat="42.8166490" lon="-0.1372870">
        <ele>1846.2</ele>
        <time>2020-09-13T07:09:43Z</time>
      </trkpt>
      <trkpt lat="42.8166290" lon="-0.1372850">
        <ele>1846.8</ele>
        <time>2020-09-13T07:09:45Z</time>
      </trkpt>
      <trkpt lat="42.8166250" lon="-0.1372870">
        <ele>1847.0</ele>
        <time>2020-09-13T07:09:46Z</time>
      </trkpt>
      <trkpt lat="42.8165780" lon="-0.1373210">
        <ele>1847.8</ele>
        <time>2020-09-13T07:09:51Z</time>
      </trkpt>
      <trkpt lat="42.8165630" lon="-0.1373300">
        <ele>1848.0</ele>
        <time>2020-09-13T07:09:52Z</time>
      </trkpt>
      <trkpt lat="42.8165330" lon="-0.1373660">
        <ele>1848.2</ele>
        <time>2020-09-13T07:09:54Z</time>
      </trkpt>
      <trkpt lat="42.8165090" lon="-0.1373920">
        <ele>1848.8</ele>
        <time>2020-09-13T07:09:57Z</time>
      </trkpt>
      <trkpt lat="42.8165000" lon="-0.1373950">
        <ele>1849.0</ele>
        <time>2020-09-13T07:09:58Z</time>
      </trkpt>
      <trkpt lat="42.8164900" lon="-0.1374070">
        <ele>1849.0</ele>
        <time>2020-09-13T07:10:00Z</time>
      </trkpt>
      <trkpt lat="42.8164840" lon="-0.1374090">
        <ele>1849.4</ele>
        <time>2020-09-13T07:10:02Z</time>
      </trkpt>
      <trkpt lat="42.8164860" lon="-0.1373990">
        <ele>1850.0</ele>
        <time>2020-09-13T07:10:04Z</time>
      </trkpt>
      <trkpt lat="42.8164780" lon="-0.1373770">
        <ele>1850.6</ele>
        <time>2020-09-13T07:10:06Z</time>
      </trkpt>
      <trkpt lat="42.8164640" lon="-0.1373630">
        <ele>1850.8</ele>
        <time>2020-09-13T07:10:08Z</time>
      </trkpt>
      <trkpt lat="42.8164460" lon="-0.1373620">
        <ele>1851.0</ele>
        <time>2020-09-13T07:10:10Z</time>
      </trkpt>
      <trkpt lat="42.8164350" lon="-0.1373670">
        <ele>1851.2</ele>
        <time>2020-09-13T07:10:12Z</time>
      </trkpt>
      <trkpt lat="42.8164290" lon="-0.1373710">
        <ele>1851.4</ele>
        <time>2020-09-13T07:10:13Z</time>
      </trkpt>
      <trkpt lat="42.8163940" lon="-0.1373460">
        <ele>1852.2</ele>
        <time>2020-09-13T07:10:19Z</time>
      </trkpt>
      <trkpt lat="42.8163240" lon="-0.1373580">
        <ele>1853.6</ele>
        <time>2020-09-13T07:10:26Z</time>
      </trkpt>
      <trkpt lat="42.8163120" lon="-0.1373640">
        <ele>1853.8</ele>
        <time>2020-09-13T07:10:28Z</time>
      </trkpt>
      <trkpt lat="42.8162960" lon="-0.1373480">
        <ele>1854.2</ele>
        <time>2020-09-13T07:10:31Z</time>
      </trkpt>
      <trkpt lat="42.8162870" lon="-0.1373260">
        <ele>1854.6</ele>
        <time>2020-09-13T07:10:35Z</time>
      </trkpt>
      <trkpt lat="42.8162590" lon="-0.1373090">
        <ele>1855.6</ele>
        <time>2020-09-13T07:10:40Z</time>
      </trkpt>
      <trkpt lat="42.8162390" lon="-0.1372950">
        <ele>1856.6</ele>
        <time>2020-09-13T07:10:43Z</time>
      </trkpt>
      <trkpt lat="42.8162110" lon="-0.1372750">
        <ele>1857.8</ele>
        <time>2020-09-13T07:10:47Z</time>
      </trkpt>
      <trkpt lat="42.8161690" lon="-0.1372590">
        <ele>1859.0</ele>
        <time>2020-09-13T07:10:52Z</time>
      </trkpt>
      <trkpt lat="42.8161090" lon="-0.1372450">
        <ele>1860.0</ele>
        <time>2020-09-13T07:10:59Z</time>
      </trkpt>
      <trkpt lat="42.8161060" lon="-0.1372610">
        <ele>1860.4</ele>
        <time>2020-09-13T07:11:01Z</time>
      </trkpt>
      <trkpt lat="42.8160520" lon="-0.1372540">
        <ele>1860.6</ele>
        <time>2020-09-13T07:11:10Z</time>
      </trkpt>
      <trkpt lat="42.8160320" lon="-0.1372300">
        <ele>1861.2</ele>
        <time>2020-09-13T07:11:13Z</time>
      </trkpt>
      <trkpt lat="42.8160140" lon="-0.1372310">
        <ele>1861.4</ele>
        <time>2020-09-13T07:11:14Z</time>
      </trkpt>
      <trkpt lat="42.8159490" lon="-0.1372270">
        <ele>1862.2</ele>
        <time>2020-09-13T07:11:19Z</time>
      </trkpt>
      <trkpt lat="42.8159410" lon="-0.1372300">
        <ele>1862.4</ele>
        <time>2020-09-13T07:11:20Z</time>
      </trkpt>
      <trkpt lat="42.8159240" lon="-0.1372170">
        <ele>1863.8</ele>
        <time>2020-09-13T07:11:23Z</time>
      </trkpt>
      <trkpt lat="42.8158870" lon="-0.1372430">
        <ele>1864.4</ele>
        <time>2020-09-13T07:11:27Z</time>
      </trkpt>
      <trkpt lat="42.8158590" lon="-0.1372500">
        <ele>1864.6</ele>
        <time>2020-09-13T07:11:30Z</time>
      </trkpt>
      <trkpt lat="42.8158500" lon="-0.1372630">
        <ele>1864.8</ele>
        <time>2020-09-13T07:11:31Z</time>
      </trkpt>
      <trkpt lat="42.8158360" lon="-0.1372700">
        <ele>1864.8</ele>
        <time>2020-09-13T07:11:33Z</time>
      </trkpt>
      <trkpt lat="42.8158100" lon="-0.1373140">
        <ele>1865.2</ele>
        <time>2020-09-13T07:11:39Z</time>
      </trkpt>
      <trkpt lat="42.8157970" lon="-0.1373760">
        <ele>1865.6</ele>
        <time>2020-09-13T07:11:41Z</time>
      </trkpt>
      <trkpt lat="42.8157920" lon="-0.1374170">
        <ele>1865.8</ele>
        <time>2020-09-13T07:11:42Z</time>
      </trkpt>
      <trkpt lat="42.8157910" lon="-0.1374350">
        <ele>1866.0</ele>
        <time>2020-09-13T07:11:43Z</time>
      </trkpt>
      <trkpt lat="42.8157790" lon="-0.1374680">
        <ele>1866.4</ele>
        <time>2020-09-13T07:11:45Z</time>
      </trkpt>
      <trkpt lat="42.8157640" lon="-0.1374910">
        <ele>1866.6</ele>
        <time>2020-09-13T07:11:48Z</time>
      </trkpt>
      <trkpt lat="42.8157610" lon="-0.1374990">
        <ele>1867.0</ele>
        <time>2020-09-13T07:11:50Z</time>
      </trkpt>
      <trkpt lat="42.8157250" lon="-0.1375030">
        <ele>1868.0</ele>
        <time>2020-09-13T07:12:02Z</time>
      </trkpt>
      <trkpt lat="42.8157160" lon="-0.1374990">
        <ele>1868.2</ele>
        <time>2020-09-13T07:12:03Z</time>
      </trkpt>
      <trkpt lat="42.8156890" lon="-0.1374940">
        <ele>1869.2</ele>
        <time>2020-09-13T07:12:08Z</time>
      </trkpt>
      <trkpt lat="42.8156680" lon="-0.1375070">
        <ele>1870.2</ele>
        <time>2020-09-13T07:12:12Z</time>
      </trkpt>
      <trkpt lat="42.8156280" lon="-0.1374800">
        <ele>1871.4</ele>
        <time>2020-09-13T07:12:21Z</time>
      </trkpt>
      <trkpt lat="42.8155790" lon="-0.1374440">
        <ele>1872.4</ele>
        <time>2020-09-13T07:12:27Z</time>
      </trkpt>
      <trkpt lat="42.8155150" lon="-0.1373930">
        <ele>1873.6</ele>
        <time>2020-09-13T07:12:35Z</time>
      </trkpt>
      <trkpt lat="42.8154200" lon="-0.1373620">
        <ele>1874.6</ele>
        <time>2020-09-13T07:12:44Z</time>
      </trkpt>
      <trkpt lat="42.8154120" lon="-0.1373550">
        <ele>1874.8</ele>
        <time>2020-09-13T07:12:45Z</time>
      </trkpt>
      <trkpt lat="42.8153400" lon="-0.1373510">
        <ele>1875.8</ele>
        <time>2020-09-13T07:12:53Z</time>
      </trkpt>
      <trkpt lat="42.8152830" lon="-0.1373190">
        <ele>1877.0</ele>
        <time>2020-09-13T07:13:00Z</time>
      </trkpt>
      <trkpt lat="42.8152280" lon="-0.1372220">
        <ele>1878.0</ele>
        <time>2020-09-13T07:13:09Z</time>
      </trkpt>
      <trkpt lat="42.8151980" lon="-0.1371880">
        <ele>1878.6</ele>
        <time>2020-09-13T07:13:13Z</time>
      </trkpt>
      <trkpt lat="42.8151600" lon="-0.1371910">
        <ele>1879.0</ele>
        <time>2020-09-13T07:13:16Z</time>
      </trkpt>
      <trkpt lat="42.8151170" lon="-0.1372070">
        <ele>1879.0</ele>
        <time>2020-09-13T07:13:20Z</time>
      </trkpt>
      <trkpt lat="42.8150920" lon="-0.1371850">
        <ele>1879.4</ele>
        <time>2020-09-13T07:13:23Z</time>
      </trkpt>
      <trkpt lat="42.8150800" lon="-0.1371860">
        <ele>1879.6</ele>
        <time>2020-09-13T07:13:25Z</time>
      </trkpt>
      <trkpt lat="42.8150650" lon="-0.1371920">
        <ele>1880.0</ele>
        <time>2020-09-13T07:13:27Z</time>
      </trkpt>
      <trkpt lat="42.8150550" lon="-0.1371990">
        <ele>1880.4</ele>
        <time>2020-09-13T07:13:29Z</time>
      </trkpt>
      <trkpt lat="42.8150310" lon="-0.1371860">
        <ele>1881.2</ele>
        <time>2020-09-13T07:13:32Z</time>
      </trkpt>
      <trkpt lat="42.8149770" lon="-0.1372100">
        <ele>1882.2</ele>
        <time>2020-09-13T07:13:38Z</time>
      </trkpt>
      <trkpt lat="42.8149710" lon="-0.1372050">
        <ele>1882.2</ele>
        <time>2020-09-13T07:13:39Z</time>
      </trkpt>
      <trkpt lat="42.8149320" lon="-0.1371940">
        <ele>1882.8</ele>
        <time>2020-09-13T07:13:44Z</time>
      </trkpt>
      <trkpt lat="42.8149030" lon="-0.1372080">
        <ele>1883.4</ele>
        <time>2020-09-13T07:13:47Z</time>
      </trkpt>
      <trkpt lat="42.8148930" lon="-0.1372060">
        <ele>1883.4</ele>
        <time>2020-09-13T07:13:48Z</time>
      </trkpt>
      <trkpt lat="42.8148480" lon="-0.1371500">
        <ele>1884.6</ele>
        <time>2020-09-13T07:13:54Z</time>
      </trkpt>
      <trkpt lat="42.8148030" lon="-0.1371300">
        <ele>1885.6</ele>
        <time>2020-09-13T07:13:59Z</time>
      </trkpt>
      <trkpt lat="42.8147520" lon="-0.1371380">
        <ele>1886.2</ele>
        <time>2020-09-13T07:14:04Z</time>
      </trkpt>
      <trkpt lat="42.8147300" lon="-0.1371500">
        <ele>1886.6</ele>
        <time>2020-09-13T07:14:07Z</time>
      </trkpt>
      <trkpt lat="42.8146850" lon="-0.1371500">
        <ele>1887.4</ele>
        <time>2020-09-13T07:14:12Z</time>
      </trkpt>
      <trkpt lat="42.8146650" lon="-0.1371370">
        <ele>1887.8</ele>
        <time>2020-09-13T07:14:14Z</time>
      </trkpt>
      <trkpt lat="42.8146540" lon="-0.1371320">
        <ele>1888.2</ele>
        <time>2020-09-13T07:14:16Z</time>
      </trkpt>
      <trkpt lat="42.8146560" lon="-0.1371460">
        <ele>1888.6</ele>
        <time>2020-09-13T07:14:19Z</time>
      </trkpt>
      <trkpt lat="42.8146580" lon="-0.1371460">
        <ele>1888.8</ele>
        <time>2020-09-13T07:14:20Z</time>
      </trkpt>
      <trkpt lat="42.8146450" lon="-0.1371490">
        <ele>1889.0</ele>
        <time>2020-09-13T07:14:23Z</time>
      </trkpt>
      <trkpt lat="42.8146180" lon="-0.1371570">
        <ele>1889.2</ele>
        <time>2020-09-13T07:14:26Z</time>
      </trkpt>
      <trkpt lat="42.8146000" lon="-0.1371670">
        <ele>1889.6</ele>
        <time>2020-09-13T07:14:28Z</time>
      </trkpt>
      <trkpt lat="42.8145880" lon="-0.1371650">
        <ele>1889.8</ele>
        <time>2020-09-13T07:14:30Z</time>
      </trkpt>
      <trkpt lat="42.8145850" lon="-0.1371610">
        <ele>1890.0</ele>
        <time>2020-09-13T07:14:31Z</time>
      </trkpt>
      <trkpt lat="42.8145760" lon="-0.1371270">
        <ele>1891.2</ele>
        <time>2020-09-13T07:14:36Z</time>
      </trkpt>
      <trkpt lat="42.8145880" lon="-0.1370790">
        <ele>1892.2</ele>
        <time>2020-09-13T07:14:42Z</time>
      </trkpt>
      <trkpt lat="42.8145940" lon="-0.1370500">
        <ele>1893.6</ele>
        <time>2020-09-13T07:14:46Z</time>
      </trkpt>
      <trkpt lat="42.8146090" lon="-0.1370120">
        <ele>1894.6</ele>
        <time>2020-09-13T07:14:51Z</time>
      </trkpt>
      <trkpt lat="42.8146380" lon="-0.1369660">
        <ele>1895.8</ele>
        <time>2020-09-13T07:14:57Z</time>
      </trkpt>
      <trkpt lat="42.8146100" lon="-0.1369510">
        <ele>1896.2</ele>
        <time>2020-09-13T07:15:00Z</time>
      </trkpt>
      <trkpt lat="42.8145840" lon="-0.1369610">
        <ele>1897.2</ele>
        <time>2020-09-13T07:15:03Z</time>
      </trkpt>
      <trkpt lat="42.8145530" lon="-0.1369680">
        <ele>1898.2</ele>
        <time>2020-09-13T07:15:06Z</time>
      </trkpt>
      <trkpt lat="42.8145310" lon="-0.1369770">
        <ele>1898.6</ele>
        <time>2020-09-13T07:15:08Z</time>
      </trkpt>
      <trkpt lat="42.8145050" lon="-0.1369920">
        <ele>1899.2</ele>
        <time>2020-09-13T07:15:11Z</time>
      </trkpt>
      <trkpt lat="42.8144950" lon="-0.1369950">
        <ele>1899.4</ele>
        <time>2020-09-13T07:15:12Z</time>
      </trkpt>
      <trkpt lat="42.8144880" lon="-0.1369920">
        <ele>1900.0</ele>
        <time>2020-09-13T07:15:14Z</time>
      </trkpt>
      <trkpt lat="42.8144710" lon="-0.1369900">
        <ele>1900.8</ele>
        <time>2020-09-13T07:15:17Z</time>
      </trkpt>
      <trkpt lat="42.8144260" lon="-0.1369760">
        <ele>1901.8</ele>
        <time>2020-09-13T07:15:23Z</time>
      </trkpt>
      <trkpt lat="42.8143910" lon="-0.1369750">
        <ele>1902.8</ele>
        <time>2020-09-13T07:15:27Z</time>
      </trkpt>
      <trkpt lat="42.8143270" lon="-0.1369540">
        <ele>1904.0</ele>
        <time>2020-09-13T07:15:34Z</time>
      </trkpt>
      <trkpt lat="42.8143180" lon="-0.1369520">
        <ele>1904.2</ele>
        <time>2020-09-13T07:15:35Z</time>
      </trkpt>
      <trkpt lat="42.8142830" lon="-0.1369400">
        <ele>1905.4</ele>
        <time>2020-09-13T07:15:40Z</time>
      </trkpt>
      <trkpt lat="42.8142600" lon="-0.1369350">
        <ele>1906.0</ele>
        <time>2020-09-13T07:15:42Z</time>
      </trkpt>
      <trkpt lat="42.8142370" lon="-0.1369350">
        <ele>1906.4</ele>
        <time>2020-09-13T07:15:44Z</time>
      </trkpt>
      <trkpt lat="42.8141940" lon="-0.1369500">
        <ele>1906.8</ele>
        <time>2020-09-13T07:15:48Z</time>
      </trkpt>
      <trkpt lat="42.8141520" lon="-0.1369980">
        <ele>1907.4</ele>
        <time>2020-09-13T07:15:52Z</time>
      </trkpt>
      <trkpt lat="42.8141430" lon="-0.1370130">
        <ele>1907.8</ele>
        <time>2020-09-13T07:15:54Z</time>
      </trkpt>
      <trkpt lat="42.8141260" lon="-0.1370250">
        <ele>1908.0</ele>
        <time>2020-09-13T07:15:56Z</time>
      </trkpt>
      <trkpt lat="42.8141150" lon="-0.1370460">
        <ele>1908.4</ele>
        <time>2020-09-13T07:15:59Z</time>
      </trkpt>
      <trkpt lat="42.8141100" lon="-0.1370450">
        <ele>1908.8</ele>
        <time>2020-09-13T07:16:00Z</time>
      </trkpt>
      <trkpt lat="42.8141010" lon="-0.1370480">
        <ele>1909.2</ele>
        <time>2020-09-13T07:16:02Z</time>
      </trkpt>
      <trkpt lat="42.8140990" lon="-0.1370500">
        <ele>1909.6</ele>
        <time>2020-09-13T07:16:03Z</time>
      </trkpt>
      <trkpt lat="42.8141920" lon="-0.1370630">
        <ele>1910.4</ele>
        <time>2020-09-13T07:16:13Z</time>
      </trkpt>
      <trkpt lat="42.8140940" lon="-0.1370970">
        <ele>1910.4</ele>
        <time>2020-09-13T07:16:17Z</time>
      </trkpt>
      <trkpt lat="42.8140400" lon="-0.1371060">
        <ele>1910.4</ele>
        <time>2020-09-13T07:16:20Z</time>
      </trkpt>
      <trkpt lat="42.8140160" lon="-0.1371210">
        <ele>1910.6</ele>
        <time>2020-09-13T07:16:22Z</time>
      </trkpt>
      <trkpt lat="42.8140020" lon="-0.1371280">
        <ele>1910.6</ele>
        <time>2020-09-13T07:16:23Z</time>
      </trkpt>
      <trkpt lat="42.8139840" lon="-0.1371310">
        <ele>1910.8</ele>
        <time>2020-09-13T07:16:25Z</time>
      </trkpt>
      <trkpt lat="42.8139590" lon="-0.1372050">
        <ele>1911.6</ele>
        <time>2020-09-13T07:16:31Z</time>
      </trkpt>
      <trkpt lat="42.8139550" lon="-0.1372750">
        <ele>1911.8</ele>
        <time>2020-09-13T07:16:36Z</time>
      </trkpt>
      <trkpt lat="42.8139310" lon="-0.1373250">
        <ele>1912.2</ele>
        <time>2020-09-13T07:16:40Z</time>
      </trkpt>
      <trkpt lat="42.8139080" lon="-0.1373340">
        <ele>1912.8</ele>
        <time>2020-09-13T07:16:42Z</time>
      </trkpt>
      <trkpt lat="42.8138800" lon="-0.1373540">
        <ele>1913.8</ele>
        <time>2020-09-13T07:16:48Z</time>
      </trkpt>
      <trkpt lat="42.8138380" lon="-0.1373930">
        <ele>1915.0</ele>
        <time>2020-09-13T07:16:54Z</time>
      </trkpt>
      <trkpt lat="42.8138230" lon="-0.1374130">
        <ele>1915.6</ele>
        <time>2020-09-13T07:16:57Z</time>
      </trkpt>
      <trkpt lat="42.8138180" lon="-0.1374260">
        <ele>1916.2</ele>
        <time>2020-09-13T07:16:59Z</time>
      </trkpt>
      <trkpt lat="42.8137830" lon="-0.1374530">
        <ele>1917.4</ele>
        <time>2020-09-13T07:17:05Z</time>
      </trkpt>
      <trkpt lat="42.8137430" lon="-0.1374740">
        <ele>1918.6</ele>
        <time>2020-09-13T07:17:10Z</time>
      </trkpt>
      <trkpt lat="42.8137120" lon="-0.1374890">
        <ele>1919.8</ele>
        <time>2020-09-13T07:17:15Z</time>
      </trkpt>
      <trkpt lat="42.8136330" lon="-0.1375290">
        <ele>1920.8</ele>
        <time>2020-09-13T07:17:23Z</time>
      </trkpt>
      <trkpt lat="42.8136150" lon="-0.1375410">
        <ele>1921.4</ele>
        <time>2020-09-13T07:17:25Z</time>
      </trkpt>
      <trkpt lat="42.8135990" lon="-0.1375500">
        <ele>1921.8</ele>
        <time>2020-09-13T07:17:28Z</time>
      </trkpt>
      <trkpt lat="42.8135660" lon="-0.1375780">
        <ele>1922.2</ele>
        <time>2020-09-13T07:17:31Z</time>
      </trkpt>
      <trkpt lat="42.8135140" lon="-0.1375920">
        <ele>1922.6</ele>
        <time>2020-09-13T07:17:36Z</time>
      </trkpt>
      <trkpt lat="42.8134910" lon="-0.1376010">
        <ele>1923.0</ele>
        <time>2020-09-13T07:17:38Z</time>
      </trkpt>
      <trkpt lat="42.8134300" lon="-0.1376530">
        <ele>1924.0</ele>
        <time>2020-09-13T07:17:46Z</time>
      </trkpt>
      <trkpt lat="42.8134140" lon="-0.1376980">
        <ele>1925.2</ele>
        <time>2020-09-13T07:17:51Z</time>
      </trkpt>
      <trkpt lat="42.8134180" lon="-0.1377230">
        <ele>1925.6</ele>
        <time>2020-09-13T07:17:53Z</time>
      </trkpt>
      <trkpt lat="42.8134170" lon="-0.1377460">
        <ele>1926.0</ele>
        <time>2020-09-13T07:17:56Z</time>
      </trkpt>
      <trkpt lat="42.8134120" lon="-0.1377520">
        <ele>1926.2</ele>
        <time>2020-09-13T07:17:59Z</time>
      </trkpt>
      <trkpt lat="42.8134090" lon="-0.1377710">
        <ele>1926.0</ele>
        <time>2020-09-13T07:18:54Z</time>
      </trkpt>
      <trkpt lat="42.8133450" lon="-0.1377810">
        <ele>1927.2</ele>
        <time>2020-09-13T07:19:00Z</time>
      </trkpt>
      <trkpt lat="42.8133040" lon="-0.1377700">
        <ele>1927.2</ele>
        <time>2020-09-13T07:19:03Z</time>
      </trkpt>
      <trkpt lat="42.8132890" lon="-0.1377710">
        <ele>1927.2</ele>
        <time>2020-09-13T07:19:04Z</time>
      </trkpt>
      <trkpt lat="42.8132280" lon="-0.1377870">
        <ele>1927.4</ele>
        <time>2020-09-13T07:19:09Z</time>
      </trkpt>
      <trkpt lat="42.8130940" lon="-0.1377260">
        <ele>1928.4</ele>
        <time>2020-09-13T07:19:20Z</time>
      </trkpt>
      <trkpt lat="42.8130040" lon="-0.1376840">
        <ele>1928.6</ele>
        <time>2020-09-13T07:19:28Z</time>
      </trkpt>
      <trkpt lat="42.8129800" lon="-0.1376950">
        <ele>1928.6</ele>
        <time>2020-09-13T07:19:30Z</time>
      </trkpt>
      <trkpt lat="42.8129180" lon="-0.1377480">
        <ele>1928.6</ele>
        <time>2020-09-13T07:19:35Z</time>
      </trkpt>
      <trkpt lat="42.8129050" lon="-0.1377730">
        <ele>1928.8</ele>
        <time>2020-09-13T07:19:37Z</time>
      </trkpt>
      <trkpt lat="42.8128790" lon="-0.1377830">
        <ele>1929.4</ele>
        <time>2020-09-13T07:19:40Z</time>
      </trkpt>
      <trkpt lat="42.8128680" lon="-0.1377900">
        <ele>1929.8</ele>
        <time>2020-09-13T07:19:42Z</time>
      </trkpt>
      <trkpt lat="42.8128380" lon="-0.1377790">
        <ele>1930.6</ele>
        <time>2020-09-13T07:19:46Z</time>
      </trkpt>
      <trkpt lat="42.8128190" lon="-0.1377730">
        <ele>1930.8</ele>
        <time>2020-09-13T07:19:48Z</time>
      </trkpt>
      <trkpt lat="42.8128030" lon="-0.1377670">
        <ele>1931.0</ele>
        <time>2020-09-13T07:19:50Z</time>
      </trkpt>
      <trkpt lat="42.8127920" lon="-0.1377610">
        <ele>1930.8</ele>
        <time>2020-09-13T07:19:52Z</time>
      </trkpt>
      <trkpt lat="42.8127760" lon="-0.1377590">
        <ele>1930.4</ele>
        <time>2020-09-13T07:19:54Z</time>
      </trkpt>
      <trkpt lat="42.8127320" lon="-0.1377320">
        <ele>1929.4</ele>
        <time>2020-09-13T07:19:58Z</time>
      </trkpt>
      <trkpt lat="42.8126270" lon="-0.1376550">
        <ele>1929.2</ele>
        <time>2020-09-13T07:20:08Z</time>
      </trkpt>
      <trkpt lat="42.8126010" lon="-0.1376480">
        <ele>1929.6</ele>
        <time>2020-09-13T07:20:10Z</time>
      </trkpt>
      <trkpt lat="42.8124210" lon="-0.1377070">
        <ele>1930.2</ele>
        <time>2020-09-13T07:20:26Z</time>
      </trkpt>
      <trkpt lat="42.8124070" lon="-0.1376840">
        <ele>1930.6</ele>
        <time>2020-09-13T07:20:28Z</time>
      </trkpt>
      <trkpt lat="42.8124000" lon="-0.1376750">
        <ele>1930.8</ele>
        <time>2020-09-13T07:20:29Z</time>
      </trkpt>
      <trkpt lat="42.8123800" lon="-0.1376530">
        <ele>1931.0</ele>
        <time>2020-09-13T07:20:31Z</time>
      </trkpt>
      <trkpt lat="42.8123510" lon="-0.1375750">
        <ele>1930.8</ele>
        <time>2020-09-13T07:20:36Z</time>
      </trkpt>
      <trkpt lat="42.8122510" lon="-0.1375940">
        <ele>1930.6</ele>
        <time>2020-09-13T07:20:45Z</time>
      </trkpt>
      <trkpt lat="42.8122160" lon="-0.1376010">
        <ele>1930.8</ele>
        <time>2020-09-13T07:20:48Z</time>
      </trkpt>
      <trkpt lat="42.8121240" lon="-0.1376060">
        <ele>1931.4</ele>
        <time>2020-09-13T07:20:56Z</time>
      </trkpt>
      <trkpt lat="42.8120980" lon="-0.1376440">
        <ele>1931.4</ele>
        <time>2020-09-13T07:20:59Z</time>
      </trkpt>
      <trkpt lat="42.8120500" lon="-0.1376460">
        <ele>1931.6</ele>
        <time>2020-09-13T07:21:03Z</time>
      </trkpt>
      <trkpt lat="42.8120380" lon="-0.1376460">
        <ele>1931.8</ele>
        <time>2020-09-13T07:21:04Z</time>
      </trkpt>
      <trkpt lat="42.8119540" lon="-0.1376600">
        <ele>1932.4</ele>
        <time>2020-09-13T07:21:12Z</time>
      </trkpt>
      <trkpt lat="42.8119350" lon="-0.1376730">
        <ele>1932.8</ele>
        <time>2020-09-13T07:21:14Z</time>
      </trkpt>
      <trkpt lat="42.8118080" lon="-0.1377160">
        <ele>1933.8</ele>
        <time>2020-09-13T07:21:25Z</time>
      </trkpt>
      <trkpt lat="42.8116340" lon="-0.1376400">
        <ele>1934.8</ele>
        <time>2020-09-13T07:21:42Z</time>
      </trkpt>
      <trkpt lat="42.8116220" lon="-0.1376330">
        <ele>1935.0</ele>
        <time>2020-09-13T07:21:43Z</time>
      </trkpt>
      <trkpt lat="42.8116100" lon="-0.1376290">
        <ele>1935.0</ele>
        <time>2020-09-13T07:21:44Z</time>
      </trkpt>
      <trkpt lat="42.8114670" lon="-0.1376130">
        <ele>1935.6</ele>
        <time>2020-09-13T07:21:56Z</time>
      </trkpt>
      <trkpt lat="42.8114350" lon="-0.1376010">
        <ele>1936.0</ele>
        <time>2020-09-13T07:21:59Z</time>
      </trkpt>
      <trkpt lat="42.8113360" lon="-0.1376130">
        <ele>1937.2</ele>
        <time>2020-09-13T07:22:09Z</time>
      </trkpt>
      <trkpt lat="42.8113080" lon="-0.1376190">
        <ele>1937.8</ele>
        <time>2020-09-13T07:22:12Z</time>
      </trkpt>
      <trkpt lat="42.8112880" lon="-0.1376310">
        <ele>1938.2</ele>
        <time>2020-09-13T07:22:14Z</time>
      </trkpt>
      <trkpt lat="42.8112780" lon="-0.1376350">
        <ele>1938.4</ele>
        <time>2020-09-13T07:22:15Z</time>
      </trkpt>
      <trkpt lat="42.8112610" lon="-0.1376390">
        <ele>1938.8</ele>
        <time>2020-09-13T07:22:17Z</time>
      </trkpt>
      <trkpt lat="42.8112290" lon="-0.1376330">
        <ele>1939.2</ele>
        <time>2020-09-13T07:22:21Z</time>
      </trkpt>
      <trkpt lat="42.8112190" lon="-0.1376320">
        <ele>1939.6</ele>
        <time>2020-09-13T07:22:22Z</time>
      </trkpt>
      <trkpt lat="42.8111910" lon="-0.1376230">
        <ele>1940.4</ele>
        <time>2020-09-13T07:22:25Z</time>
      </trkpt>
      <trkpt lat="42.8111300" lon="-0.1376050">
        <ele>1941.4</ele>
        <time>2020-09-13T07:22:32Z</time>
      </trkpt>
      <trkpt lat="42.8110990" lon="-0.1376020">
        <ele>1942.6</ele>
        <time>2020-09-13T07:22:36Z</time>
      </trkpt>
      <trkpt lat="42.8110470" lon="-0.1376310">
        <ele>1943.6</ele>
        <time>2020-09-13T07:22:41Z</time>
      </trkpt>
      <trkpt lat="42.8109840" lon="-0.1377080">
        <ele>1944.6</ele>
        <time>2020-09-13T07:22:49Z</time>
      </trkpt>
      <trkpt lat="42.8109620" lon="-0.1377400">
        <ele>1945.0</ele>
        <time>2020-09-13T07:22:52Z</time>
      </trkpt>
      <trkpt lat="42.8109380" lon="-0.1377660">
        <ele>1945.8</ele>
        <time>2020-09-13T07:22:55Z</time>
      </trkpt>
      <trkpt lat="42.8109280" lon="-0.1377730">
        <ele>1946.2</ele>
        <time>2020-09-13T07:22:57Z</time>
      </trkpt>
      <trkpt lat="42.8109190" lon="-0.1377920">
        <ele>1946.6</ele>
        <time>2020-09-13T07:23:02Z</time>
      </trkpt>
      <trkpt lat="42.8108900" lon="-0.1378180">
        <ele>1947.0</ele>
        <time>2020-09-13T07:23:06Z</time>
      </trkpt>
      <trkpt lat="42.8108710" lon="-0.1378330">
        <ele>1947.4</ele>
        <time>2020-09-13T07:23:08Z</time>
      </trkpt>
      <trkpt lat="42.8108610" lon="-0.1378580">
        <ele>1947.8</ele>
        <time>2020-09-13T07:23:10Z</time>
      </trkpt>
      <trkpt lat="42.8108550" lon="-0.1378700">
        <ele>1948.0</ele>
        <time>2020-09-13T07:23:11Z</time>
      </trkpt>
      <trkpt lat="42.8108460" lon="-0.1379260">
        <ele>1949.0</ele>
        <time>2020-09-13T07:23:16Z</time>
      </trkpt>
      <trkpt lat="42.8108400" lon="-0.1379340">
        <ele>1949.2</ele>
        <time>2020-09-13T07:23:17Z</time>
      </trkpt>
      <trkpt lat="42.8108320" lon="-0.1379420">
        <ele>1949.6</ele>
        <time>2020-09-13T07:23:19Z</time>
      </trkpt>
      <trkpt lat="42.8108130" lon="-0.1379740">
        <ele>1949.8</ele>
        <time>2020-09-13T07:23:22Z</time>
      </trkpt>
      <trkpt lat="42.8108000" lon="-0.1380070">
        <ele>1950.0</ele>
        <time>2020-09-13T07:23:25Z</time>
      </trkpt>
      <trkpt lat="42.8107860" lon="-0.1380290">
        <ele>1950.4</ele>
        <time>2020-09-13T07:23:28Z</time>
      </trkpt>
      <trkpt lat="42.8107660" lon="-0.1380410">
        <ele>1951.0</ele>
        <time>2020-09-13T07:23:30Z</time>
      </trkpt>
      <trkpt lat="42.8107430" lon="-0.1380520">
        <ele>1951.2</ele>
        <time>2020-09-13T07:23:32Z</time>
      </trkpt>
      <trkpt lat="42.8107330" lon="-0.1380580">
        <ele>1951.4</ele>
        <time>2020-09-13T07:23:33Z</time>
      </trkpt>
      <trkpt lat="42.8107010" lon="-0.1380810">
        <ele>1952.2</ele>
        <time>2020-09-13T07:23:37Z</time>
      </trkpt>
      <trkpt lat="42.8106830" lon="-0.1380850">
        <ele>1952.6</ele>
        <time>2020-09-13T07:23:39Z</time>
      </trkpt>
      <trkpt lat="42.8106510" lon="-0.1380790">
        <ele>1953.6</ele>
        <time>2020-09-13T07:23:42Z</time>
      </trkpt>
      <trkpt lat="42.8106450" lon="-0.1380840">
        <ele>1954.0</ele>
        <time>2020-09-13T07:23:43Z</time>
      </trkpt>
      <trkpt lat="42.8104620" lon="-0.1381140">
        <ele>1953.8</ele>
        <time>2020-09-13T07:24:03Z</time>
      </trkpt>
      <trkpt lat="42.8104390" lon="-0.1381220">
        <ele>1953.6</ele>
        <time>2020-09-13T07:24:05Z</time>
      </trkpt>
      <trkpt lat="42.8104230" lon="-0.1381180">
        <ele>1953.4</ele>
        <time>2020-09-13T07:24:07Z</time>
      </trkpt>
      <trkpt lat="42.8103990" lon="-0.1381030">
        <ele>1953.0</ele>
        <time>2020-09-13T07:24:09Z</time>
      </trkpt>
      <trkpt lat="42.8103780" lon="-0.1380900">
        <ele>1953.0</ele>
        <time>2020-09-13T07:24:11Z</time>
      </trkpt>
      <trkpt lat="42.8102960" lon="-0.1380780">
        <ele>1953.0</ele>
        <time>2020-09-13T07:24:19Z</time>
      </trkpt>
      <trkpt lat="42.8102310" lon="-0.1380180">
        <ele>1952.8</ele>
        <time>2020-09-13T07:24:26Z</time>
      </trkpt>
      <trkpt lat="42.8100660" lon="-0.1379070">
        <ele>1952.6</ele>
        <time>2020-09-13T07:24:42Z</time>
      </trkpt>
      <trkpt lat="42.8099960" lon="-0.1378410">
        <ele>1953.2</ele>
        <time>2020-09-13T07:24:50Z</time>
      </trkpt>
      <trkpt lat="42.8099740" lon="-0.1378270">
        <ele>1953.4</ele>
        <time>2020-09-13T07:24:52Z</time>
      </trkpt>
      <trkpt lat="42.8098800" lon="-0.1376380">
        <ele>1953.6</ele>
        <time>2020-09-13T07:25:08Z</time>
      </trkpt>
      <trkpt lat="42.8098540" lon="-0.1375940">
        <ele>1954.2</ele>
        <time>2020-09-13T07:25:12Z</time>
      </trkpt>
      <trkpt lat="42.8097690" lon="-0.1375190">
        <ele>1955.2</ele>
        <time>2020-09-13T07:25:22Z</time>
      </trkpt>
      <trkpt lat="42.8097410" lon="-0.1374850">
        <ele>1956.0</ele>
        <time>2020-09-13T07:25:26Z</time>
      </trkpt>
      <trkpt lat="42.8097240" lon="-0.1374680">
        <ele>1956.4</ele>
        <time>2020-09-13T07:25:28Z</time>
      </trkpt>
      <trkpt lat="42.8096930" lon="-0.1374440">
        <ele>1957.2</ele>
        <time>2020-09-13T07:25:32Z</time>
      </trkpt>
      <trkpt lat="42.8096780" lon="-0.1374030">
        <ele>1957.6</ele>
        <time>2020-09-13T07:25:35Z</time>
      </trkpt>
      <trkpt lat="42.8096050" lon="-0.1371990">
        <ele>1957.4</ele>
        <time>2020-09-13T07:25:50Z</time>
      </trkpt>
      <trkpt lat="42.8094430" lon="-0.1370910">
        <ele>1957.6</ele>
        <time>2020-09-13T07:26:04Z</time>
      </trkpt>
      <trkpt lat="42.8093840" lon="-0.1370160">
        <ele>1958.6</ele>
        <time>2020-09-13T07:26:12Z</time>
      </trkpt>
      <trkpt lat="42.8093590" lon="-0.1369740">
        <ele>1959.2</ele>
        <time>2020-09-13T07:26:17Z</time>
      </trkpt>
      <trkpt lat="42.8093340" lon="-0.1369370">
        <ele>1959.8</ele>
        <time>2020-09-13T07:26:21Z</time>
      </trkpt>
      <trkpt lat="42.8093300" lon="-0.1369260">
        <ele>1959.8</ele>
        <time>2020-09-13T07:26:22Z</time>
      </trkpt>
      <trkpt lat="42.8092720" lon="-0.1368570">
        <ele>1960.8</ele>
        <time>2020-09-13T07:26:31Z</time>
      </trkpt>
      <trkpt lat="42.8092180" lon="-0.1367510">
        <ele>1961.8</ele>
        <time>2020-09-13T07:26:41Z</time>
      </trkpt>
      <trkpt lat="42.8092060" lon="-0.1367280">
        <ele>1962.2</ele>
        <time>2020-09-13T07:26:43Z</time>
      </trkpt>
      <trkpt lat="42.8091960" lon="-0.1367060">
        <ele>1962.6</ele>
        <time>2020-09-13T07:26:45Z</time>
      </trkpt>
      <trkpt lat="42.8091720" lon="-0.1366690">
        <ele>1963.0</ele>
        <time>2020-09-13T07:26:49Z</time>
      </trkpt>
      <trkpt lat="42.8091510" lon="-0.1366530">
        <ele>1963.2</ele>
        <time>2020-09-13T07:26:51Z</time>
      </trkpt>
      <trkpt lat="42.8091200" lon="-0.1366090">
        <ele>1964.0</ele>
        <time>2020-09-13T07:26:57Z</time>
      </trkpt>
      <trkpt lat="42.8091020" lon="-0.1365920">
        <ele>1964.4</ele>
        <time>2020-09-13T07:27:00Z</time>
      </trkpt>
      <trkpt lat="42.8090910" lon="-0.1365760">
        <ele>1964.6</ele>
        <time>2020-09-13T07:27:02Z</time>
      </trkpt>
      <trkpt lat="42.8090700" lon="-0.1365610">
        <ele>1965.0</ele>
        <time>2020-09-13T07:27:06Z</time>
      </trkpt>
      <trkpt lat="42.8090620" lon="-0.1365560">
        <ele>1965.0</ele>
        <time>2020-09-13T07:27:07Z</time>
      </trkpt>
      <trkpt lat="42.8090450" lon="-0.1365420">
        <ele>1964.8</ele>
        <time>2020-09-13T07:27:10Z</time>
      </trkpt>
      <trkpt lat="42.8090310" lon="-0.1365010">
        <ele>1966.2</ele>
        <time>2020-09-13T07:28:10Z</time>
      </trkpt>
      <trkpt lat="42.8090160" lon="-0.1364990">
        <ele>1967.2</ele>
        <time>2020-09-13T07:28:33Z</time>
      </trkpt>
      <trkpt lat="42.8089640" lon="-0.1364720">
        <ele>1966.6</ele>
        <time>2020-09-13T07:29:16Z</time>
      </trkpt>
      <trkpt lat="42.8089040" lon="-0.1364410">
        <ele>1966.2</ele>
        <time>2020-09-13T07:29:19Z</time>
      </trkpt>
      <trkpt lat="42.8088860" lon="-0.1364300">
        <ele>1966.0</ele>
        <time>2020-09-13T07:29:20Z</time>
      </trkpt>
      <trkpt lat="42.8087150" lon="-0.1363820">
        <ele>1966.6</ele>
        <time>2020-09-13T07:29:34Z</time>
      </trkpt>
      <trkpt lat="42.8086200" lon="-0.1364610">
        <ele>1966.2</ele>
        <time>2020-09-13T07:29:42Z</time>
      </trkpt>
      <trkpt lat="42.8086170" lon="-0.1366170">
        <ele>1965.4</ele>
        <time>2020-09-13T07:29:51Z</time>
      </trkpt>
      <trkpt lat="42.8086580" lon="-0.1366760">
        <ele>1965.4</ele>
        <time>2020-09-13T07:29:56Z</time>
      </trkpt>
      <trkpt lat="42.8086850" lon="-0.1367180">
        <ele>1965.8</ele>
        <time>2020-09-13T07:30:00Z</time>
      </trkpt>
      <trkpt lat="42.8086870" lon="-0.1367190">
        <ele>1966.0</ele>
        <time>2020-09-13T07:30:02Z</time>
      </trkpt>
      <trkpt lat="42.8087060" lon="-0.1367010">
        <ele>1965.2</ele>
        <time>2020-09-13T07:30:35Z</time>
      </trkpt>
      <trkpt lat="42.8086580" lon="-0.1368840">
        <ele>1965.6</ele>
        <time>2020-09-13T07:31:06Z</time>
      </trkpt>
      <trkpt lat="42.8086280" lon="-0.1366940">
        <ele>1965.6</ele>
        <time>2020-09-13T07:31:31Z</time>
      </trkpt>
      <trkpt lat="42.8086240" lon="-0.1366930">
        <ele>1965.6</ele>
        <time>2020-09-13T07:31:36Z</time>
      </trkpt>
      <trkpt lat="42.8085600" lon="-0.1367290">
        <ele>1965.0</ele>
        <time>2020-09-13T07:31:43Z</time>
      </trkpt>
      <trkpt lat="42.8084960" lon="-0.1368250">
        <ele>1965.0</ele>
        <time>2020-09-13T07:31:51Z</time>
      </trkpt>
      <trkpt lat="42.8084680" lon="-0.1368110">
        <ele>1965.0</ele>
        <time>2020-09-13T07:31:54Z</time>
      </trkpt>
      <trkpt lat="42.8084200" lon="-0.1368120">
        <ele>1965.2</ele>
        <time>2020-09-13T07:31:59Z</time>
      </trkpt>
      <trkpt lat="42.8083530" lon="-0.1368070">
        <ele>1965.0</ele>
        <time>2020-09-13T07:32:07Z</time>
      </trkpt>
      <trkpt lat="42.8083370" lon="-0.1367890">
        <ele>1965.2</ele>
        <time>2020-09-13T07:32:09Z</time>
      </trkpt>
      <trkpt lat="42.8083120" lon="-0.1367970">
        <ele>1965.6</ele>
        <time>2020-09-13T07:32:12Z</time>
      </trkpt>
      <trkpt lat="42.8082810" lon="-0.1367860">
        <ele>1965.6</ele>
        <time>2020-09-13T07:32:16Z</time>
      </trkpt>
      <trkpt lat="42.8082320" lon="-0.1367690">
        <ele>1966.2</ele>
        <time>2020-09-13T07:32:21Z</time>
      </trkpt>
      <trkpt lat="42.8081530" lon="-0.1367440">
        <ele>1965.4</ele>
        <time>2020-09-13T07:32:29Z</time>
      </trkpt>
      <trkpt lat="42.8081100" lon="-0.1367570">
        <ele>1965.4</ele>
        <time>2020-09-13T07:32:33Z</time>
      </trkpt>
      <trkpt lat="42.8080270" lon="-0.1367440">
        <ele>1965.8</ele>
        <time>2020-09-13T07:32:40Z</time>
      </trkpt>
      <trkpt lat="42.8080130" lon="-0.1367330">
        <ele>1965.6</ele>
        <time>2020-09-13T07:32:42Z</time>
      </trkpt>
      <trkpt lat="42.8079920" lon="-0.1366910">
        <ele>1965.2</ele>
        <time>2020-09-13T07:32:45Z</time>
      </trkpt>
      <trkpt lat="42.8079500" lon="-0.1366720">
        <ele>1965.0</ele>
        <time>2020-09-13T07:32:48Z</time>
      </trkpt>
      <trkpt lat="42.8078920" lon="-0.1366660">
        <ele>1964.6</ele>
        <time>2020-09-13T07:32:53Z</time>
      </trkpt>
      <trkpt lat="42.8078570" lon="-0.1366610">
        <ele>1964.8</ele>
        <time>2020-09-13T07:32:56Z</time>
      </trkpt>
      <trkpt lat="42.8077720" lon="-0.1366640">
        <ele>1965.6</ele>
        <time>2020-09-13T07:33:03Z</time>
      </trkpt>
      <trkpt lat="42.8077210" lon="-0.1366380">
        <ele>1966.0</ele>
        <time>2020-09-13T07:33:07Z</time>
      </trkpt>
      <trkpt lat="42.8076450" lon="-0.1365870">
        <ele>1966.0</ele>
        <time>2020-09-13T07:33:13Z</time>
      </trkpt>
      <trkpt lat="42.8074820" lon="-0.1365050">
        <ele>1966.4</ele>
        <time>2020-09-13T07:33:27Z</time>
      </trkpt>
      <trkpt lat="42.8073080" lon="-0.1365610">
        <ele>1966.2</ele>
        <time>2020-09-13T07:33:39Z</time>
      </trkpt>
      <trkpt lat="42.8072750" lon="-0.1366020">
        <ele>1966.4</ele>
        <time>2020-09-13T07:33:43Z</time>
      </trkpt>
      <trkpt lat="42.8071050" lon="-0.1365300">
        <ele>1966.4</ele>
        <time>2020-09-13T07:33:55Z</time>
      </trkpt>
      <trkpt lat="42.8070890" lon="-0.1365260">
        <ele>1966.4</ele>
        <time>2020-09-13T07:33:56Z</time>
      </trkpt>
      <trkpt lat="42.8069970" lon="-0.1365440">
        <ele>1965.2</ele>
        <time>2020-09-13T07:34:03Z</time>
      </trkpt>
      <trkpt lat="42.8069740" lon="-0.1365330">
        <ele>1965.2</ele>
        <time>2020-09-13T07:34:05Z</time>
      </trkpt>
      <trkpt lat="42.8067980" lon="-0.1365750">
        <ele>1965.8</ele>
        <time>2020-09-13T07:34:19Z</time>
      </trkpt>
      <trkpt lat="42.8066130" lon="-0.1365630">
        <ele>1966.6</ele>
        <time>2020-09-13T07:34:35Z</time>
      </trkpt>
      <trkpt lat="42.8065430" lon="-0.1365610">
        <ele>1967.2</ele>
        <time>2020-09-13T07:34:41Z</time>
      </trkpt>
      <trkpt lat="42.8064340" lon="-0.1365660">
        <ele>1968.2</ele>
        <time>2020-09-13T07:34:51Z</time>
      </trkpt>
      <trkpt lat="42.8063020" lon="-0.1366130">
        <ele>1969.2</ele>
        <time>2020-09-13T07:35:01Z</time>
      </trkpt>
      <trkpt lat="42.8062280" lon="-0.1366990">
        <ele>1970.4</ele>
        <time>2020-09-13T07:35:09Z</time>
      </trkpt>
      <trkpt lat="42.8061600" lon="-0.1368350">
        <ele>1971.4</ele>
        <time>2020-09-13T07:35:18Z</time>
      </trkpt>
      <trkpt lat="42.8061040" lon="-0.1369430">
        <ele>1972.4</ele>
        <time>2020-09-13T07:35:27Z</time>
      </trkpt>
      <trkpt lat="42.8060420" lon="-0.1370770">
        <ele>1973.6</ele>
        <time>2020-09-13T07:35:37Z</time>
      </trkpt>
      <trkpt lat="42.8059910" lon="-0.1371760">
        <ele>1974.8</ele>
        <time>2020-09-13T07:35:45Z</time>
      </trkpt>
      <trkpt lat="42.8059560" lon="-0.1372060">
        <ele>1975.4</ele>
        <time>2020-09-13T07:35:50Z</time>
      </trkpt>
      <trkpt lat="42.8059340" lon="-0.1372120">
        <ele>1975.6</ele>
        <time>2020-09-13T07:35:53Z</time>
      </trkpt>
      <trkpt lat="42.8059140" lon="-0.1372200">
        <ele>1975.8</ele>
        <time>2020-09-13T07:35:55Z</time>
      </trkpt>
      <trkpt lat="42.8059030" lon="-0.1372500">
        <ele>1976.4</ele>
        <time>2020-09-13T07:35:58Z</time>
      </trkpt>
      <trkpt lat="42.8058780" lon="-0.1372620">
        <ele>1976.8</ele>
        <time>2020-09-13T07:36:01Z</time>
      </trkpt>
      <trkpt lat="42.8058510" lon="-0.1373170">
        <ele>1977.4</ele>
        <time>2020-09-13T07:36:05Z</time>
      </trkpt>
      <trkpt lat="42.8058470" lon="-0.1373400">
        <ele>1977.6</ele>
        <time>2020-09-13T07:36:07Z</time>
      </trkpt>
      <trkpt lat="42.8058390" lon="-0.1373520">
        <ele>1977.8</ele>
        <time>2020-09-13T07:36:08Z</time>
      </trkpt>
      <trkpt lat="42.8057930" lon="-0.1373960">
        <ele>1979.0</ele>
        <time>2020-09-13T07:36:14Z</time>
      </trkpt>
      <trkpt lat="42.8057840" lon="-0.1373930">
        <ele>1979.2</ele>
        <time>2020-09-13T07:36:15Z</time>
      </trkpt>
      <trkpt lat="42.8057450" lon="-0.1374280">
        <ele>1979.8</ele>
        <time>2020-09-13T07:36:20Z</time>
      </trkpt>
      <trkpt lat="42.8057340" lon="-0.1374370">
        <ele>1980.0</ele>
        <time>2020-09-13T07:36:22Z</time>
      </trkpt>
      <trkpt lat="42.8057110" lon="-0.1374470">
        <ele>1980.6</ele>
        <time>2020-09-13T07:36:25Z</time>
      </trkpt>
      <trkpt lat="42.8057020" lon="-0.1374630">
        <ele>1981.2</ele>
        <time>2020-09-13T07:36:27Z</time>
      </trkpt>
      <trkpt lat="42.8056860" lon="-0.1375040">
        <ele>1981.8</ele>
        <time>2020-09-13T07:36:30Z</time>
      </trkpt>
      <trkpt lat="42.8056410" lon="-0.1375430">
        <ele>1982.4</ele>
        <time>2020-09-13T07:36:35Z</time>
      </trkpt>
      <trkpt lat="42.8056220" lon="-0.1376510">
        <ele>1983.4</ele>
        <time>2020-09-13T07:36:43Z</time>
      </trkpt>
      <trkpt lat="42.8056140" lon="-0.1376560">
        <ele>1983.6</ele>
        <time>2020-09-13T07:36:44Z</time>
      </trkpt>
      <trkpt lat="42.8055870" lon="-0.1376560">
        <ele>1984.2</ele>
        <time>2020-09-13T07:36:47Z</time>
      </trkpt>
      <trkpt lat="42.8055730" lon="-0.1376540">
        <ele>1984.4</ele>
        <time>2020-09-13T07:36:49Z</time>
      </trkpt>
      <trkpt lat="42.8054960" lon="-0.1376420">
        <ele>1985.0</ele>
        <time>2020-09-13T07:36:57Z</time>
      </trkpt>
      <trkpt lat="42.8054770" lon="-0.1376420">
        <ele>1985.6</ele>
        <time>2020-09-13T07:36:59Z</time>
      </trkpt>
      <trkpt lat="42.8054490" lon="-0.1376300">
        <ele>1986.2</ele>
        <time>2020-09-13T07:37:02Z</time>
      </trkpt>
      <trkpt lat="42.8054400" lon="-0.1376070">
        <ele>1986.4</ele>
        <time>2020-09-13T07:37:04Z</time>
      </trkpt>
      <trkpt lat="42.8054370" lon="-0.1375950">
        <ele>1986.6</ele>
        <time>2020-09-13T07:37:05Z</time>
      </trkpt>
      <trkpt lat="42.8054330" lon="-0.1375780">
        <ele>1987.0</ele>
        <time>2020-09-13T07:37:07Z</time>
      </trkpt>
      <trkpt lat="42.8054330" lon="-0.1375380">
        <ele>1987.6</ele>
        <time>2020-09-13T07:37:10Z</time>
      </trkpt>
      <trkpt lat="42.8054300" lon="-0.1375280">
        <ele>1988.0</ele>
        <time>2020-09-13T07:37:11Z</time>
      </trkpt>
      <trkpt lat="42.8053510" lon="-0.1374880">
        <ele>1988.8</ele>
        <time>2020-09-13T07:37:19Z</time>
      </trkpt>
      <trkpt lat="42.8052840" lon="-0.1374550">
        <ele>1989.8</ele>
        <time>2020-09-13T07:37:26Z</time>
      </trkpt>
      <trkpt lat="42.8052640" lon="-0.1374560">
        <ele>1990.4</ele>
        <time>2020-09-13T07:37:28Z</time>
      </trkpt>
      <trkpt lat="42.8052440" lon="-0.1374300">
        <ele>1991.0</ele>
        <time>2020-09-13T07:37:31Z</time>
      </trkpt>
      <trkpt lat="42.8052410" lon="-0.1374220">
        <ele>1991.2</ele>
        <time>2020-09-13T07:37:32Z</time>
      </trkpt>
      <trkpt lat="42.8052330" lon="-0.1374130">
        <ele>1991.4</ele>
        <time>2020-09-13T07:37:34Z</time>
      </trkpt>
      <trkpt lat="42.8052220" lon="-0.1374040">
        <ele>1992.0</ele>
        <time>2020-09-13T07:37:36Z</time>
      </trkpt>
      <trkpt lat="42.8052090" lon="-0.1373970">
        <ele>1992.2</ele>
        <time>2020-09-13T07:37:38Z</time>
      </trkpt>
      <trkpt lat="42.8051980" lon="-0.1373920">
        <ele>1993.0</ele>
        <time>2020-09-13T07:37:41Z</time>
      </trkpt>
      <trkpt lat="42.8051450" lon="-0.1373610">
        <ele>1994.0</ele>
        <time>2020-09-13T07:37:48Z</time>
      </trkpt>
      <trkpt lat="42.8050960" lon="-0.1373210">
        <ele>1995.2</ele>
        <time>2020-09-13T07:37:53Z</time>
      </trkpt>
      <trkpt lat="42.8049840" lon="-0.1373280">
        <ele>1996.2</ele>
        <time>2020-09-13T07:38:03Z</time>
      </trkpt>
      <trkpt lat="42.8049160" lon="-0.1373400">
        <ele>1997.4</ele>
        <time>2020-09-13T07:38:09Z</time>
      </trkpt>
      <trkpt lat="42.8048000" lon="-0.1373860">
        <ele>1998.2</ele>
        <time>2020-09-13T07:38:19Z</time>
      </trkpt>
      <trkpt lat="42.8047790" lon="-0.1374010">
        <ele>1998.6</ele>
        <time>2020-09-13T07:38:21Z</time>
      </trkpt>
      <trkpt lat="42.8047460" lon="-0.1374230">
        <ele>1999.4</ele>
        <time>2020-09-13T07:38:25Z</time>
      </trkpt>
      <trkpt lat="42.8047340" lon="-0.1374120">
        <ele>1999.6</ele>
        <time>2020-09-13T07:38:26Z</time>
      </trkpt>
      <trkpt lat="42.8047160" lon="-0.1374000">
        <ele>2000.2</ele>
        <time>2020-09-13T07:38:28Z</time>
      </trkpt>
      <trkpt lat="42.8046970" lon="-0.1374020">
        <ele>2000.4</ele>
        <time>2020-09-13T07:38:30Z</time>
      </trkpt>
      <trkpt lat="42.8046840" lon="-0.1374060">
        <ele>2000.8</ele>
        <time>2020-09-13T07:38:32Z</time>
      </trkpt>
      <trkpt lat="42.8046610" lon="-0.1374060">
        <ele>2001.6</ele>
        <time>2020-09-13T07:38:35Z</time>
      </trkpt>
      <trkpt lat="42.8046440" lon="-0.1374110">
        <ele>2002.0</ele>
        <time>2020-09-13T07:38:37Z</time>
      </trkpt>
      <trkpt lat="42.8046350" lon="-0.1374170">
        <ele>2002.2</ele>
        <time>2020-09-13T07:38:38Z</time>
      </trkpt>
      <trkpt lat="42.8046250" lon="-0.1374180">
        <ele>2002.4</ele>
        <time>2020-09-13T07:38:40Z</time>
      </trkpt>
      <trkpt lat="42.8046170" lon="-0.1374170">
        <ele>2003.0</ele>
        <time>2020-09-13T07:38:42Z</time>
      </trkpt>
      <trkpt lat="42.8045260" lon="-0.1374140">
        <ele>2004.0</ele>
        <time>2020-09-13T07:38:51Z</time>
      </trkpt>
      <trkpt lat="42.8045090" lon="-0.1374170">
        <ele>2004.4</ele>
        <time>2020-09-13T07:38:53Z</time>
      </trkpt>
      <trkpt lat="42.8044680" lon="-0.1374080">
        <ele>2005.2</ele>
        <time>2020-09-13T07:38:58Z</time>
      </trkpt>
      <trkpt lat="42.8044420" lon="-0.1374040">
        <ele>2006.0</ele>
        <time>2020-09-13T07:39:01Z</time>
      </trkpt>
      <trkpt lat="42.8044300" lon="-0.1373950">
        <ele>2006.2</ele>
        <time>2020-09-13T07:39:03Z</time>
      </trkpt>
      <trkpt lat="42.8044100" lon="-0.1373820">
        <ele>2006.4</ele>
        <time>2020-09-13T07:39:05Z</time>
      </trkpt>
      <trkpt lat="42.8043830" lon="-0.1373800">
        <ele>2006.8</ele>
        <time>2020-09-13T07:39:08Z</time>
      </trkpt>
      <trkpt lat="42.8043490" lon="-0.1373640">
        <ele>2007.2</ele>
        <time>2020-09-13T07:39:12Z</time>
      </trkpt>
      <trkpt lat="42.8043170" lon="-0.1373570">
        <ele>2008.4</ele>
        <time>2020-09-13T07:39:16Z</time>
      </trkpt>
      <trkpt lat="42.8042990" lon="-0.1373580">
        <ele>2009.4</ele>
        <time>2020-09-13T07:39:19Z</time>
      </trkpt>
      <trkpt lat="42.8042710" lon="-0.1373470">
        <ele>2010.6</ele>
        <time>2020-09-13T07:39:23Z</time>
      </trkpt>
      <trkpt lat="42.8042300" lon="-0.1373800">
        <ele>2011.6</ele>
        <time>2020-09-13T07:39:29Z</time>
      </trkpt>
      <trkpt lat="42.8042030" lon="-0.1373430">
        <ele>2012.6</ele>
        <time>2020-09-13T07:39:33Z</time>
      </trkpt>
      <trkpt lat="42.8041760" lon="-0.1373440">
        <ele>2013.2</ele>
        <time>2020-09-13T07:39:36Z</time>
      </trkpt>
      <trkpt lat="42.8041390" lon="-0.1373590">
        <ele>2013.8</ele>
        <time>2020-09-13T07:39:40Z</time>
      </trkpt>
      <trkpt lat="42.8041150" lon="-0.1373640">
        <ele>2014.0</ele>
        <time>2020-09-13T07:39:43Z</time>
      </trkpt>
      <trkpt lat="42.8040620" lon="-0.1373960">
        <ele>2014.2</ele>
        <time>2020-09-13T07:39:49Z</time>
      </trkpt>
      <trkpt lat="42.8040420" lon="-0.1374110">
        <ele>2014.4</ele>
        <time>2020-09-13T07:39:51Z</time>
      </trkpt>
      <trkpt lat="42.8039970" lon="-0.1374000">
        <ele>2015.0</ele>
        <time>2020-09-13T07:39:55Z</time>
      </trkpt>
      <trkpt lat="42.8038870" lon="-0.1374120">
        <ele>2016.0</ele>
        <time>2020-09-13T07:40:06Z</time>
      </trkpt>
      <trkpt lat="42.8037550" lon="-0.1374490">
        <ele>2017.2</ele>
        <time>2020-09-13T07:40:17Z</time>
      </trkpt>
      <trkpt lat="42.8035900" lon="-0.1375640">
        <ele>2018.2</ele>
        <time>2020-09-13T07:40:33Z</time>
      </trkpt>
      <trkpt lat="42.8035630" lon="-0.1375870">
        <ele>2018.8</ele>
        <time>2020-09-13T07:40:36Z</time>
      </trkpt>
      <trkpt lat="42.8035370" lon="-0.1375820">
        <ele>2019.0</ele>
        <time>2020-09-13T07:40:38Z</time>
      </trkpt>
      <trkpt lat="42.8035170" lon="-0.1375830">
        <ele>2019.2</ele>
        <time>2020-09-13T07:40:40Z</time>
      </trkpt>
      <trkpt lat="42.8034840" lon="-0.1375990">
        <ele>2019.6</ele>
        <time>2020-09-13T07:40:43Z</time>
      </trkpt>
      <trkpt lat="42.8034280" lon="-0.1376280">
        <ele>2020.4</ele>
        <time>2020-09-13T07:40:49Z</time>
      </trkpt>
      <trkpt lat="42.8033310" lon="-0.1377670">
        <ele>2021.2</ele>
        <time>2020-09-13T07:41:01Z</time>
      </trkpt>
      <trkpt lat="42.8033260" lon="-0.1377740">
        <ele>2021.4</ele>
        <time>2020-09-13T07:41:02Z</time>
      </trkpt>
      <trkpt lat="42.8033170" lon="-0.1377850">
        <ele>2021.6</ele>
        <time>2020-09-13T07:41:04Z</time>
      </trkpt>
      <trkpt lat="42.8033020" lon="-0.1378020">
        <ele>2021.6</ele>
        <time>2020-09-13T07:41:06Z</time>
      </trkpt>
      <trkpt lat="42.8032620" lon="-0.1378350">
        <ele>2021.8</ele>
        <time>2020-09-13T07:41:11Z</time>
      </trkpt>
      <trkpt lat="42.8032360" lon="-0.1378310">
        <ele>2022.4</ele>
        <time>2020-09-13T07:41:14Z</time>
      </trkpt>
      <trkpt lat="42.8032280" lon="-0.1378350">
        <ele>2022.6</ele>
        <time>2020-09-13T07:41:15Z</time>
      </trkpt>
      <trkpt lat="42.8031470" lon="-0.1378850">
        <ele>2023.6</ele>
        <time>2020-09-13T07:41:24Z</time>
      </trkpt>
      <trkpt lat="42.8031290" lon="-0.1378930">
        <ele>2024.0</ele>
        <time>2020-09-13T07:41:26Z</time>
      </trkpt>
      <trkpt lat="42.8030460" lon="-0.1379130">
        <ele>2024.8</ele>
        <time>2020-09-13T07:41:34Z</time>
      </trkpt>
      <trkpt lat="42.8029870" lon="-0.1379500">
        <ele>2025.8</ele>
        <time>2020-09-13T07:41:40Z</time>
      </trkpt>
      <trkpt lat="42.8029790" lon="-0.1379500">
        <ele>2025.8</ele>
        <time>2020-09-13T07:41:41Z</time>
      </trkpt>
      <trkpt lat="42.8029560" lon="-0.1379430">
        <ele>2026.2</ele>
        <time>2020-09-13T07:41:44Z</time>
      </trkpt>
      <trkpt lat="42.8029010" lon="-0.1379110">
        <ele>2026.8</ele>
        <time>2020-09-13T07:41:50Z</time>
      </trkpt>
      <trkpt lat="42.8027750" lon="-0.1379330">
        <ele>2026.6</ele>
        <time>2020-09-13T07:42:03Z</time>
      </trkpt>
      <trkpt lat="42.8027220" lon="-0.1379670">
        <ele>2027.0</ele>
        <time>2020-09-13T07:42:09Z</time>
      </trkpt>
      <trkpt lat="42.8027180" lon="-0.1379910">
        <ele>2027.0</ele>
        <time>2020-09-13T07:42:11Z</time>
      </trkpt>
      <trkpt lat="42.8026970" lon="-0.1380120">
        <ele>2027.2</ele>
        <time>2020-09-13T07:42:14Z</time>
      </trkpt>
      <trkpt lat="42.8026890" lon="-0.1380230">
        <ele>2027.2</ele>
        <time>2020-09-13T07:42:16Z</time>
      </trkpt>
      <trkpt lat="42.8026770" lon="-0.1380370">
        <ele>2027.2</ele>
        <time>2020-09-13T07:42:18Z</time>
      </trkpt>
      <trkpt lat="42.8026680" lon="-0.1380690">
        <ele>2027.0</ele>
        <time>2020-09-13T07:42:20Z</time>
      </trkpt>
      <trkpt lat="42.8026560" lon="-0.1381330">
        <ele>2026.6</ele>
        <time>2020-09-13T07:42:23Z</time>
      </trkpt>
      <trkpt lat="42.8026300" lon="-0.1382120">
        <ele>2028.0</ele>
        <time>2020-09-13T07:42:28Z</time>
      </trkpt>
      <trkpt lat="42.8026040" lon="-0.1382480">
        <ele>2028.0</ele>
        <time>2020-09-13T07:42:34Z</time>
      </trkpt>
      <trkpt lat="42.8025800" lon="-0.1382940">
        <ele>2028.2</ele>
        <time>2020-09-13T07:42:39Z</time>
      </trkpt>
      <trkpt lat="42.8025710" lon="-0.1383210">
        <ele>2028.2</ele>
        <time>2020-09-13T07:42:41Z</time>
      </trkpt>
      <trkpt lat="42.8025630" lon="-0.1383390">
        <ele>2028.2</ele>
        <time>2020-09-13T07:42:43Z</time>
      </trkpt>
      <trkpt lat="42.8025490" lon="-0.1383540">
        <ele>2028.4</ele>
        <time>2020-09-13T07:42:45Z</time>
      </trkpt>
      <trkpt lat="42.8025350" lon="-0.1383620">
        <ele>2028.4</ele>
        <time>2020-09-13T07:42:47Z</time>
      </trkpt>
      <trkpt lat="42.8024960" lon="-0.1383830">
        <ele>2028.2</ele>
        <time>2020-09-13T07:42:51Z</time>
      </trkpt>
      <trkpt lat="42.8024120" lon="-0.1384500">
        <ele>2029.2</ele>
        <time>2020-09-13T07:43:24Z</time>
      </trkpt>
      <trkpt lat="42.8023800" lon="-0.1384860">
        <ele>2030.4</ele>
        <time>2020-09-13T07:43:28Z</time>
      </trkpt>
      <trkpt lat="42.8023770" lon="-0.1384850">
        <ele>2030.8</ele>
        <time>2020-09-13T07:43:29Z</time>
      </trkpt>
      <trkpt lat="42.8023710" lon="-0.1384720">
        <ele>2031.6</ele>
        <time>2020-09-13T07:43:31Z</time>
      </trkpt>
      <trkpt lat="42.8023560" lon="-0.1385530">
        <ele>2032.0</ele>
        <time>2020-09-13T07:43:50Z</time>
      </trkpt>
      <trkpt lat="42.8022900" lon="-0.1386220">
        <ele>2031.2</ele>
        <time>2020-09-13T07:43:57Z</time>
      </trkpt>
      <trkpt lat="42.8022510" lon="-0.1386420">
        <ele>2031.0</ele>
        <time>2020-09-13T07:44:01Z</time>
      </trkpt>
      <trkpt lat="42.8022440" lon="-0.1386210">
        <ele>2030.8</ele>
        <time>2020-09-13T07:44:03Z</time>
      </trkpt>
      <trkpt lat="42.8022200" lon="-0.1385980">
        <ele>2030.6</ele>
        <time>2020-09-13T07:44:06Z</time>
      </trkpt>
      <trkpt lat="42.8022130" lon="-0.1385960">
        <ele>2030.4</ele>
        <time>2020-09-13T07:44:07Z</time>
      </trkpt>
      <trkpt lat="42.8020420" lon="-0.1386650">
        <ele>2029.2</ele>
        <time>2020-09-13T07:44:19Z</time>
      </trkpt>
      <trkpt lat="42.8019750" lon="-0.1387540">
        <ele>2028.4</ele>
        <time>2020-09-13T07:44:25Z</time>
      </trkpt>
      <trkpt lat="42.8019600" lon="-0.1387810">
        <ele>2028.4</ele>
        <time>2020-09-13T07:44:27Z</time>
      </trkpt>
      <trkpt lat="42.8018730" lon="-0.1387480">
        <ele>2028.2</ele>
        <time>2020-09-13T07:44:33Z</time>
      </trkpt>
      <trkpt lat="42.8016860" lon="-0.1388120">
        <ele>2027.4</ele>
        <time>2020-09-13T07:44:49Z</time>
      </trkpt>
      <trkpt lat="42.8015040" lon="-0.1387740">
        <ele>2027.6</ele>
        <time>2020-09-13T07:45:02Z</time>
      </trkpt>
      <trkpt lat="42.8013890" lon="-0.1387880">
        <ele>2027.2</ele>
        <time>2020-09-13T07:45:11Z</time>
      </trkpt>
      <trkpt lat="42.8012070" lon="-0.1387840">
        <ele>2027.4</ele>
        <time>2020-09-13T07:45:25Z</time>
      </trkpt>
      <trkpt lat="42.8010430" lon="-0.1387770">
        <ele>2027.8</ele>
        <time>2020-09-13T07:45:39Z</time>
      </trkpt>
      <trkpt lat="42.8009800" lon="-0.1388560">
        <ele>2027.6</ele>
        <time>2020-09-13T07:45:46Z</time>
      </trkpt>
      <trkpt lat="42.8009620" lon="-0.1388680">
        <ele>2027.6</ele>
        <time>2020-09-13T07:45:48Z</time>
      </trkpt>
      <trkpt lat="42.8008930" lon="-0.1388770">
        <ele>2028.2</ele>
        <time>2020-09-13T07:45:54Z</time>
      </trkpt>
      <trkpt lat="42.8008170" lon="-0.1388830">
        <ele>2028.4</ele>
        <time>2020-09-13T07:46:01Z</time>
      </trkpt>
      <trkpt lat="42.8007980" lon="-0.1388950">
        <ele>2028.2</ele>
        <time>2020-09-13T07:46:03Z</time>
      </trkpt>
      <trkpt lat="42.8006250" lon="-0.1388900">
        <ele>2028.4</ele>
        <time>2020-09-13T07:46:21Z</time>
      </trkpt>
      <trkpt lat="42.8005560" lon="-0.1388980">
        <ele>2028.4</ele>
        <time>2020-09-13T07:46:27Z</time>
      </trkpt>
      <trkpt lat="42.8003890" lon="-0.1389450">
        <ele>2029.4</ele>
        <time>2020-09-13T07:46:39Z</time>
      </trkpt>
      <trkpt lat="42.8002130" lon="-0.1389130">
        <ele>2029.6</ele>
        <time>2020-09-13T07:46:51Z</time>
      </trkpt>
      <trkpt lat="42.8001650" lon="-0.1389630">
        <ele>2029.4</ele>
        <time>2020-09-13T07:46:55Z</time>
      </trkpt>
      <trkpt lat="42.8001340" lon="-0.1389660">
        <ele>2029.2</ele>
        <time>2020-09-13T07:46:57Z</time>
      </trkpt>
      <trkpt lat="42.8000890" lon="-0.1389440">
        <ele>2029.6</ele>
        <time>2020-09-13T07:47:02Z</time>
      </trkpt>
      <trkpt lat="42.8000490" lon="-0.1389400">
        <ele>2029.6</ele>
        <time>2020-09-13T07:47:05Z</time>
      </trkpt>
      <trkpt lat="42.7998690" lon="-0.1389120">
        <ele>2029.0</ele>
        <time>2020-09-13T07:47:17Z</time>
      </trkpt>
      <trkpt lat="42.7996910" lon="-0.1389680">
        <ele>2029.0</ele>
        <time>2020-09-13T07:47:30Z</time>
      </trkpt>
      <trkpt lat="42.7996620" lon="-0.1390090">
        <ele>2029.6</ele>
        <time>2020-09-13T07:47:33Z</time>
      </trkpt>
      <trkpt lat="42.7995460" lon="-0.1390900">
        <ele>2029.0</ele>
        <time>2020-09-13T07:47:43Z</time>
      </trkpt>
      <trkpt lat="42.7995290" lon="-0.1391120">
        <ele>2029.8</ele>
        <time>2020-09-13T07:47:46Z</time>
      </trkpt>
      <trkpt lat="42.7994230" lon="-0.1391610">
        <ele>2030.0</ele>
        <time>2020-09-13T07:47:54Z</time>
      </trkpt>
      <trkpt lat="42.7993920" lon="-0.1391580">
        <ele>2030.4</ele>
        <time>2020-09-13T07:47:56Z</time>
      </trkpt>
      <trkpt lat="42.7992210" lon="-0.1392010">
        <ele>2031.2</ele>
        <time>2020-09-13T07:48:11Z</time>
      </trkpt>
      <trkpt lat="42.7991900" lon="-0.1392100">
        <ele>2031.2</ele>
        <time>2020-09-13T07:48:14Z</time>
      </trkpt>
      <trkpt lat="42.7991340" lon="-0.1392510">
        <ele>2030.6</ele>
        <time>2020-09-13T07:48:21Z</time>
      </trkpt>
      <trkpt lat="42.7989660" lon="-0.1393640">
        <ele>2030.0</ele>
        <time>2020-09-13T07:48:38Z</time>
      </trkpt>
      <trkpt lat="42.7987930" lon="-0.1394240">
        <ele>2031.2</ele>
        <time>2020-09-13T07:48:53Z</time>
      </trkpt>
      <trkpt lat="42.7987670" lon="-0.1394240">
        <ele>2031.2</ele>
        <time>2020-09-13T07:48:55Z</time>
      </trkpt>
      <trkpt lat="42.7987430" lon="-0.1394300">
        <ele>2031.2</ele>
        <time>2020-09-13T07:48:57Z</time>
      </trkpt>
      <trkpt lat="42.7985560" lon="-0.1393440">
        <ele>2031.4</ele>
        <time>2020-09-13T07:49:08Z</time>
      </trkpt>
      <trkpt lat="42.7985100" lon="-0.1393270">
        <ele>2031.6</ele>
        <time>2020-09-13T07:49:11Z</time>
      </trkpt>
      <trkpt lat="42.7984690" lon="-0.1393490">
        <ele>2032.0</ele>
        <time>2020-09-13T07:49:15Z</time>
      </trkpt>
      <trkpt lat="42.7984340" lon="-0.1393530">
        <ele>2032.8</ele>
        <time>2020-09-13T07:49:18Z</time>
      </trkpt>
      <trkpt lat="42.7984140" lon="-0.1393710">
        <ele>2033.4</ele>
        <time>2020-09-13T07:49:20Z</time>
      </trkpt>
      <trkpt lat="42.7983950" lon="-0.1394240">
        <ele>2033.8</ele>
        <time>2020-09-13T07:49:24Z</time>
      </trkpt>
      <trkpt lat="42.7983250" lon="-0.1395230">
        <ele>2033.8</ele>
        <time>2020-09-13T07:49:33Z</time>
      </trkpt>
      <trkpt lat="42.7982600" lon="-0.1396120">
        <ele>2034.2</ele>
        <time>2020-09-13T07:49:41Z</time>
      </trkpt>
      <trkpt lat="42.7982140" lon="-0.1396200">
        <ele>2035.0</ele>
        <time>2020-09-13T07:49:44Z</time>
      </trkpt>
      <trkpt lat="42.7981500" lon="-0.1396950">
        <ele>2033.8</ele>
        <time>2020-09-13T07:49:51Z</time>
      </trkpt>
      <trkpt lat="42.7980870" lon="-0.1397560">
        <ele>2035.2</ele>
        <time>2020-09-13T07:49:57Z</time>
      </trkpt>
      <trkpt lat="42.7980700" lon="-0.1397480">
        <ele>2036.4</ele>
        <time>2020-09-13T07:49:59Z</time>
      </trkpt>
      <trkpt lat="42.7980130" lon="-0.1397560">
        <ele>2035.6</ele>
        <time>2020-09-13T07:50:05Z</time>
      </trkpt>
      <trkpt lat="42.7979940" lon="-0.1397780">
        <ele>2035.2</ele>
        <time>2020-09-13T07:50:07Z</time>
      </trkpt>
      <trkpt lat="42.7978350" lon="-0.1399110">
        <ele>2036.0</ele>
        <time>2020-09-13T07:50:22Z</time>
      </trkpt>
      <trkpt lat="42.7978150" lon="-0.1399310">
        <ele>2036.0</ele>
        <time>2020-09-13T07:50:24Z</time>
      </trkpt>
      <trkpt lat="42.7977670" lon="-0.1399580">
        <ele>2036.4</ele>
        <time>2020-09-13T07:50:28Z</time>
      </trkpt>
      <trkpt lat="42.7976230" lon="-0.1400170">
        <ele>2037.4</ele>
        <time>2020-09-13T07:50:41Z</time>
      </trkpt>
      <trkpt lat="42.7975870" lon="-0.1400240">
        <ele>2037.4</ele>
        <time>2020-09-13T07:50:44Z</time>
      </trkpt>
      <trkpt lat="42.7974920" lon="-0.1400600">
        <ele>2038.4</ele>
        <time>2020-09-13T07:50:54Z</time>
      </trkpt>
      <trkpt lat="42.7973880" lon="-0.1401040">
        <ele>2039.6</ele>
        <time>2020-09-13T07:51:03Z</time>
      </trkpt>
      <trkpt lat="42.7972940" lon="-0.1402610">
        <ele>2040.6</ele>
        <time>2020-09-13T07:51:16Z</time>
      </trkpt>
      <trkpt lat="42.7972360" lon="-0.1402760">
        <ele>2041.8</ele>
        <time>2020-09-13T07:51:21Z</time>
      </trkpt>
      <trkpt lat="42.7972090" lon="-0.1402840">
        <ele>2041.8</ele>
        <time>2020-09-13T07:51:23Z</time>
      </trkpt>
      <trkpt lat="42.7971610" lon="-0.1403350">
        <ele>2040.8</ele>
        <time>2020-09-13T07:51:28Z</time>
      </trkpt>
      <trkpt lat="42.7971450" lon="-0.1403830">
        <ele>2040.6</ele>
        <time>2020-09-13T07:51:31Z</time>
      </trkpt>
      <trkpt lat="42.7971090" lon="-0.1404500">
        <ele>2041.6</ele>
        <time>2020-09-13T07:51:37Z</time>
      </trkpt>
      <trkpt lat="42.7971000" lon="-0.1404520">
        <ele>2041.8</ele>
        <time>2020-09-13T07:51:38Z</time>
      </trkpt>
      <trkpt lat="42.7970820" lon="-0.1404630">
        <ele>2042.0</ele>
        <time>2020-09-13T07:51:40Z</time>
      </trkpt>
      <trkpt lat="42.7970580" lon="-0.1404850">
        <ele>2042.2</ele>
        <time>2020-09-13T07:51:43Z</time>
      </trkpt>
      <trkpt lat="42.7970400" lon="-0.1404880">
        <ele>2042.6</ele>
        <time>2020-09-13T07:51:45Z</time>
      </trkpt>
      <trkpt lat="42.7970190" lon="-0.1404950">
        <ele>2043.0</ele>
        <time>2020-09-13T07:51:47Z</time>
      </trkpt>
      <trkpt lat="42.7969620" lon="-0.1405480">
        <ele>2044.0</ele>
        <time>2020-09-13T07:51:53Z</time>
      </trkpt>
      <trkpt lat="42.7968880" lon="-0.1405630">
        <ele>2045.2</ele>
        <time>2020-09-13T07:51:59Z</time>
      </trkpt>
      <trkpt lat="42.7967860" lon="-0.1406100">
        <ele>2046.0</ele>
        <time>2020-09-13T07:52:08Z</time>
      </trkpt>
      <trkpt lat="42.7967270" lon="-0.1406430">
        <ele>2046.2</ele>
        <time>2020-09-13T07:52:14Z</time>
      </trkpt>
      <trkpt lat="42.7966460" lon="-0.1406410">
        <ele>2047.4</ele>
        <time>2020-09-13T07:52:21Z</time>
      </trkpt>
      <trkpt lat="42.7965600" lon="-0.1406520">
        <ele>2048.4</ele>
        <time>2020-09-13T07:52:30Z</time>
      </trkpt>
      <trkpt lat="42.7965540" lon="-0.1406490">
        <ele>2048.4</ele>
        <time>2020-09-13T07:52:31Z</time>
      </trkpt>
      <trkpt lat="42.7965470" lon="-0.1406480">
        <ele>2048.6</ele>
        <time>2020-09-13T07:52:32Z</time>
      </trkpt>
      <trkpt lat="42.7965300" lon="-0.1406490">
        <ele>2049.0</ele>
        <time>2020-09-13T07:52:34Z</time>
      </trkpt>
      <trkpt lat="42.7965080" lon="-0.1406490">
        <ele>2049.4</ele>
        <time>2020-09-13T07:52:36Z</time>
      </trkpt>
      <trkpt lat="42.7964880" lon="-0.1406570">
        <ele>2049.8</ele>
        <time>2020-09-13T07:52:38Z</time>
      </trkpt>
      <trkpt lat="42.7964290" lon="-0.1407310">
        <ele>2050.6</ele>
        <time>2020-09-13T07:52:45Z</time>
      </trkpt>
      <trkpt lat="42.7963740" lon="-0.1408180">
        <ele>2051.4</ele>
        <time>2020-09-13T07:52:54Z</time>
      </trkpt>
      <trkpt lat="42.7963570" lon="-0.1408390">
        <ele>2051.6</ele>
        <time>2020-09-13T07:52:57Z</time>
      </trkpt>
      <trkpt lat="42.7963230" lon="-0.1408620">
        <ele>2052.2</ele>
        <time>2020-09-13T07:53:01Z</time>
      </trkpt>
      <trkpt lat="42.7963040" lon="-0.1408960">
        <ele>2052.8</ele>
        <time>2020-09-13T07:53:05Z</time>
      </trkpt>
      <trkpt lat="42.7962600" lon="-0.1409220">
        <ele>2053.6</ele>
        <time>2020-09-13T07:53:11Z</time>
      </trkpt>
      <trkpt lat="42.7962470" lon="-0.1409100">
        <ele>2053.8</ele>
        <time>2020-09-13T07:53:13Z</time>
      </trkpt>
      <trkpt lat="42.7962170" lon="-0.1409180">
        <ele>2055.0</ele>
        <time>2020-09-13T07:53:18Z</time>
      </trkpt>
      <trkpt lat="42.7961240" lon="-0.1409380">
        <ele>2056.2</ele>
        <time>2020-09-13T07:53:27Z</time>
      </trkpt>
      <trkpt lat="42.7961160" lon="-0.1409410">
        <ele>2056.2</ele>
        <time>2020-09-13T07:53:28Z</time>
      </trkpt>
      <trkpt lat="42.7960980" lon="-0.1409500">
        <ele>2056.4</ele>
        <time>2020-09-13T07:53:30Z</time>
      </trkpt>
      <trkpt lat="42.7960790" lon="-0.1409830">
        <ele>2057.2</ele>
        <time>2020-09-13T07:53:34Z</time>
      </trkpt>
      <trkpt lat="42.7960740" lon="-0.1409910">
        <ele>2057.4</ele>
        <time>2020-09-13T07:53:35Z</time>
      </trkpt>
      <trkpt lat="42.7960320" lon="-0.1410630">
        <ele>2058.2</ele>
        <time>2020-09-13T07:53:42Z</time>
      </trkpt>
      <trkpt lat="42.7960130" lon="-0.1410780">
        <ele>2058.2</ele>
        <time>2020-09-13T07:53:44Z</time>
      </trkpt>
      <trkpt lat="42.7960010" lon="-0.1410810">
        <ele>2058.2</ele>
        <time>2020-09-13T07:53:45Z</time>
      </trkpt>
      <trkpt lat="42.7959490" lon="-0.1411220">
        <ele>2059.4</ele>
        <time>2020-09-13T07:53:51Z</time>
      </trkpt>
      <trkpt lat="42.7959230" lon="-0.1411640">
        <ele>2060.4</ele>
        <time>2020-09-13T07:53:56Z</time>
      </trkpt>
      <trkpt lat="42.7959170" lon="-0.1411900">
        <ele>2060.8</ele>
        <time>2020-09-13T07:53:58Z</time>
      </trkpt>
      <trkpt lat="42.7959080" lon="-0.1412400">
        <ele>2061.4</ele>
        <time>2020-09-13T07:54:02Z</time>
      </trkpt>
      <trkpt lat="42.7959060" lon="-0.1412490">
        <ele>2061.6</ele>
        <time>2020-09-13T07:54:03Z</time>
      </trkpt>
      <trkpt lat="42.7958900" lon="-0.1412750">
        <ele>2062.2</ele>
        <time>2020-09-13T07:54:06Z</time>
      </trkpt>
      <trkpt lat="42.7958750" lon="-0.1412940">
        <ele>2062.6</ele>
        <time>2020-09-13T07:54:08Z</time>
      </trkpt>
      <trkpt lat="42.7958550" lon="-0.1413320">
        <ele>2062.8</ele>
        <time>2020-09-13T07:54:11Z</time>
      </trkpt>
      <trkpt lat="42.7958530" lon="-0.1414540">
        <ele>2063.8</ele>
        <time>2020-09-13T07:54:20Z</time>
      </trkpt>
      <trkpt lat="42.7958490" lon="-0.1414970">
        <ele>2064.2</ele>
        <time>2020-09-13T07:54:23Z</time>
      </trkpt>
      <trkpt lat="42.7958320" lon="-0.1415160">
        <ele>2064.6</ele>
        <time>2020-09-13T07:54:25Z</time>
      </trkpt>
      <trkpt lat="42.7958230" lon="-0.1415160">
        <ele>2064.8</ele>
        <time>2020-09-13T07:54:26Z</time>
      </trkpt>
      <trkpt lat="42.7957810" lon="-0.1415330">
        <ele>2065.6</ele>
        <time>2020-09-13T07:54:30Z</time>
      </trkpt>
      <trkpt lat="42.7957610" lon="-0.1415490">
        <ele>2065.8</ele>
        <time>2020-09-13T07:54:33Z</time>
      </trkpt>
      <trkpt lat="42.7957560" lon="-0.1415550">
        <ele>2066.0</ele>
        <time>2020-09-13T07:54:34Z</time>
      </trkpt>
      <trkpt lat="42.7957480" lon="-0.1415690">
        <ele>2067.0</ele>
        <time>2020-09-13T07:54:38Z</time>
      </trkpt>
      <trkpt lat="42.7957480" lon="-0.1415970">
        <ele>2068.0</ele>
        <time>2020-09-13T07:54:42Z</time>
      </trkpt>
      <trkpt lat="42.7957180" lon="-0.1416150">
        <ele>2069.2</ele>
        <time>2020-09-13T07:54:47Z</time>
      </trkpt>
      <trkpt lat="42.7956980" lon="-0.1416410">
        <ele>2070.2</ele>
        <time>2020-09-13T07:54:50Z</time>
      </trkpt>
      <trkpt lat="42.7956940" lon="-0.1416580">
        <ele>2070.4</ele>
        <time>2020-09-13T07:54:51Z</time>
      </trkpt>
      <trkpt lat="42.7956680" lon="-0.1417120">
        <ele>2071.2</ele>
        <time>2020-09-13T07:54:58Z</time>
      </trkpt>
      <trkpt lat="42.7956260" lon="-0.1416900">
        <ele>2072.4</ele>
        <time>2020-09-13T07:55:04Z</time>
      </trkpt>
      <trkpt lat="42.7955810" lon="-0.1416960">
        <ele>2073.2</ele>
        <time>2020-09-13T07:55:09Z</time>
      </trkpt>
      <trkpt lat="42.7955640" lon="-0.1416830">
        <ele>2073.4</ele>
        <time>2020-09-13T07:55:11Z</time>
      </trkpt>
      <trkpt lat="42.7955000" lon="-0.1416960">
        <ele>2074.8</ele>
        <time>2020-09-13T07:55:18Z</time>
      </trkpt>
      <trkpt lat="42.7954770" lon="-0.1417070">
        <ele>2075.4</ele>
        <time>2020-09-13T07:55:21Z</time>
      </trkpt>
      <trkpt lat="42.7954410" lon="-0.1417160">
        <ele>2075.8</ele>
        <time>2020-09-13T07:55:25Z</time>
      </trkpt>
      <trkpt lat="42.7953820" lon="-0.1417230">
        <ele>2076.8</ele>
        <time>2020-09-13T07:55:31Z</time>
      </trkpt>
      <trkpt lat="42.7953580" lon="-0.1417290">
        <ele>2077.4</ele>
        <time>2020-09-13T07:55:34Z</time>
      </trkpt>
      <trkpt lat="42.7952980" lon="-0.1417040">
        <ele>2077.8</ele>
        <time>2020-09-13T07:55:40Z</time>
      </trkpt>
      <trkpt lat="42.7952170" lon="-0.1416960">
        <ele>2078.8</ele>
        <time>2020-09-13T07:55:47Z</time>
      </trkpt>
      <trkpt lat="42.7951680" lon="-0.1417300">
        <ele>2080.0</ele>
        <time>2020-09-13T07:55:53Z</time>
      </trkpt>
      <trkpt lat="42.7951240" lon="-0.1417550">
        <ele>2081.0</ele>
        <time>2020-09-13T07:55:59Z</time>
      </trkpt>
      <trkpt lat="42.7950810" lon="-0.1417550">
        <ele>2082.2</ele>
        <time>2020-09-13T07:56:05Z</time>
      </trkpt>
      <trkpt lat="42.7950220" lon="-0.1417400">
        <ele>2083.2</ele>
        <time>2020-09-13T07:56:12Z</time>
      </trkpt>
      <trkpt lat="42.7949400" lon="-0.1417630">
        <ele>2084.2</ele>
        <time>2020-09-13T07:56:19Z</time>
      </trkpt>
      <trkpt lat="42.7949020" lon="-0.1417810">
        <ele>2084.4</ele>
        <time>2020-09-13T07:56:23Z</time>
      </trkpt>
      <trkpt lat="42.7948720" lon="-0.1418110">
        <ele>2085.0</ele>
        <time>2020-09-13T07:56:27Z</time>
      </trkpt>
      <trkpt lat="42.7948530" lon="-0.1418240">
        <ele>2085.2</ele>
        <time>2020-09-13T07:56:29Z</time>
      </trkpt>
      <trkpt lat="42.7948330" lon="-0.1418280">
        <ele>2085.4</ele>
        <time>2020-09-13T07:56:31Z</time>
      </trkpt>
      <trkpt lat="42.7948110" lon="-0.1418370">
        <ele>2085.8</ele>
        <time>2020-09-13T07:56:33Z</time>
      </trkpt>
      <trkpt lat="42.7947800" lon="-0.1418460">
        <ele>2086.4</ele>
        <time>2020-09-13T07:56:36Z</time>
      </trkpt>
      <trkpt lat="42.7947450" lon="-0.1418870">
        <ele>2087.4</ele>
        <time>2020-09-13T07:56:41Z</time>
      </trkpt>
      <trkpt lat="42.7947360" lon="-0.1419020">
        <ele>2087.6</ele>
        <time>2020-09-13T07:56:43Z</time>
      </trkpt>
      <trkpt lat="42.7947320" lon="-0.1419120">
        <ele>2087.6</ele>
        <time>2020-09-13T07:56:44Z</time>
      </trkpt>
      <trkpt lat="42.7946930" lon="-0.1419020">
        <ele>2088.8</ele>
        <time>2020-09-13T07:56:48Z</time>
      </trkpt>
      <trkpt lat="42.7946860" lon="-0.1419110">
        <ele>2089.0</ele>
        <time>2020-09-13T07:56:49Z</time>
      </trkpt>
      <trkpt lat="42.7946420" lon="-0.1419550">
        <ele>2089.8</ele>
        <time>2020-09-13T07:56:55Z</time>
      </trkpt>
      <trkpt lat="42.7945910" lon="-0.1419710">
        <ele>2091.0</ele>
        <time>2020-09-13T07:57:03Z</time>
      </trkpt>
      <trkpt lat="42.7945850" lon="-0.1419720">
        <ele>2091.0</ele>
        <time>2020-09-13T07:57:04Z</time>
      </trkpt>
      <trkpt lat="42.7945680" lon="-0.1419740">
        <ele>2091.4</ele>
        <time>2020-09-13T07:57:06Z</time>
      </trkpt>
      <trkpt lat="42.7945410" lon="-0.1419680">
        <ele>2092.0</ele>
        <time>2020-09-13T07:57:09Z</time>
      </trkpt>
      <trkpt lat="42.7945310" lon="-0.1419720">
        <ele>2092.2</ele>
        <time>2020-09-13T07:57:10Z</time>
      </trkpt>
      <trkpt lat="42.7945090" lon="-0.1419770">
        <ele>2092.8</ele>
        <time>2020-09-13T07:57:13Z</time>
      </trkpt>
      <trkpt lat="42.7945030" lon="-0.1419910">
        <ele>2093.2</ele>
        <time>2020-09-13T07:57:15Z</time>
      </trkpt>
      <trkpt lat="42.7945120" lon="-0.1420230">
        <ele>2094.2</ele>
        <time>2020-09-13T07:57:19Z</time>
      </trkpt>
      <trkpt lat="42.7945370" lon="-0.1420650">
        <ele>2095.4</ele>
        <time>2020-09-13T07:57:24Z</time>
      </trkpt>
      <trkpt lat="42.7945470" lon="-0.1421300">
        <ele>2096.4</ele>
        <time>2020-09-13T07:57:29Z</time>
      </trkpt>
      <trkpt lat="42.7945880" lon="-0.1422090">
        <ele>2097.6</ele>
        <time>2020-09-13T07:57:39Z</time>
      </trkpt>
      <trkpt lat="42.7945300" lon="-0.1422250">
        <ele>2098.8</ele>
        <time>2020-09-13T07:57:47Z</time>
      </trkpt>
      <trkpt lat="42.7944940" lon="-0.1422390">
        <ele>2099.8</ele>
        <time>2020-09-13T07:57:52Z</time>
      </trkpt>
      <trkpt lat="42.7944740" lon="-0.1422580">
        <ele>2101.0</ele>
        <time>2020-09-13T07:57:57Z</time>
      </trkpt>
      <trkpt lat="42.7944910" lon="-0.1423000">
        <ele>2102.0</ele>
        <time>2020-09-13T07:58:02Z</time>
      </trkpt>
      <trkpt lat="42.7944900" lon="-0.1423430">
        <ele>2103.2</ele>
        <time>2020-09-13T07:58:09Z</time>
      </trkpt>
      <trkpt lat="42.7944820" lon="-0.1423520">
        <ele>2104.2</ele>
        <time>2020-09-13T07:58:13Z</time>
      </trkpt>
      <trkpt lat="42.7944820" lon="-0.1423280">
        <ele>2105.4</ele>
        <time>2020-09-13T07:58:21Z</time>
      </trkpt>
      <trkpt lat="42.7944350" lon="-0.1423550">
        <ele>2106.6</ele>
        <time>2020-09-13T07:58:28Z</time>
      </trkpt>
      <trkpt lat="42.7944250" lon="-0.1423750">
        <ele>2107.8</ele>
        <time>2020-09-13T07:58:32Z</time>
      </trkpt>
      <trkpt lat="42.7944270" lon="-0.1423860">
        <ele>2107.8</ele>
        <time>2020-09-13T07:58:33Z</time>
      </trkpt>
      <trkpt lat="42.7944390" lon="-0.1424120">
        <ele>2108.8</ele>
        <time>2020-09-13T07:58:36Z</time>
      </trkpt>
      <trkpt lat="42.7944380" lon="-0.1424130">
        <ele>2109.2</ele>
        <time>2020-09-13T07:58:37Z</time>
      </trkpt>
      <trkpt lat="42.7944260" lon="-0.1424140">
        <ele>2110.0</ele>
        <time>2020-09-13T07:58:39Z</time>
      </trkpt>
      <trkpt lat="42.7944140" lon="-0.1424210">
        <ele>2111.4</ele>
        <time>2020-09-13T07:58:44Z</time>
      </trkpt>
      <trkpt lat="42.7944030" lon="-0.1424380">
        <ele>2112.4</ele>
        <time>2020-09-13T07:58:47Z</time>
      </trkpt>
      <trkpt lat="42.7943870" lon="-0.1424800">
        <ele>2113.6</ele>
        <time>2020-09-13T07:58:51Z</time>
      </trkpt>
      <trkpt lat="42.7943720" lon="-0.1424660">
        <ele>2114.8</ele>
        <time>2020-09-13T07:58:55Z</time>
      </trkpt>
      <trkpt lat="42.7943160" lon="-0.1424410">
        <ele>2116.0</ele>
        <time>2020-09-13T07:59:02Z</time>
      </trkpt>
      <trkpt lat="42.7942870" lon="-0.1424560">
        <ele>2117.0</ele>
        <time>2020-09-13T07:59:06Z</time>
      </trkpt>
      <trkpt lat="42.7941780" lon="-0.1424230">
        <ele>2118.0</ele>
        <time>2020-09-13T07:59:18Z</time>
      </trkpt>
      <trkpt lat="42.7941710" lon="-0.1424250">
        <ele>2118.2</ele>
        <time>2020-09-13T07:59:19Z</time>
      </trkpt>
      <trkpt lat="42.7941220" lon="-0.1424400">
        <ele>2119.0</ele>
        <time>2020-09-13T07:59:25Z</time>
      </trkpt>
      <trkpt lat="42.7941010" lon="-0.1424520">
        <ele>2119.2</ele>
        <time>2020-09-13T07:59:27Z</time>
      </trkpt>
      <trkpt lat="42.7940710" lon="-0.1424440">
        <ele>2119.0</ele>
        <time>2020-09-13T07:59:30Z</time>
      </trkpt>
      <trkpt lat="42.7940050" lon="-0.1424520">
        <ele>2117.2</ele>
        <time>2020-09-13T07:59:35Z</time>
      </trkpt>
      <trkpt lat="42.7939620" lon="-0.1424650">
        <ele>2115.8</ele>
        <time>2020-09-13T07:59:38Z</time>
      </trkpt>
      <trkpt lat="42.7939420" lon="-0.1424660">
        <ele>2115.4</ele>
        <time>2020-09-13T07:59:40Z</time>
      </trkpt>
      <trkpt lat="42.7938990" lon="-0.1424850">
        <ele>2116.0</ele>
        <time>2020-09-13T07:59:45Z</time>
      </trkpt>
      <trkpt lat="42.7938550" lon="-0.1425080">
        <ele>2116.8</ele>
        <time>2020-09-13T07:59:49Z</time>
      </trkpt>
      <trkpt lat="42.7937870" lon="-0.1424870">
        <ele>2117.0</ele>
        <time>2020-09-13T07:59:55Z</time>
      </trkpt>
      <trkpt lat="42.7937550" lon="-0.1424910">
        <ele>2117.8</ele>
        <time>2020-09-13T07:59:59Z</time>
      </trkpt>
      <trkpt lat="42.7937480" lon="-0.1424900">
        <ele>2118.0</ele>
        <time>2020-09-13T08:00:01Z</time>
      </trkpt>
      <trkpt lat="42.7937310" lon="-0.1424700">
        <ele>2118.4</ele>
        <time>2020-09-13T08:00:05Z</time>
      </trkpt>
      <trkpt lat="42.7936850" lon="-0.1424710">
        <ele>2118.4</ele>
        <time>2020-09-13T08:00:07Z</time>
      </trkpt>
      <trkpt lat="42.7936590" lon="-0.1424660">
        <ele>2118.6</ele>
        <time>2020-09-13T08:00:09Z</time>
      </trkpt>
      <trkpt lat="42.7936590" lon="-0.1424850">
        <ele>2119.0</ele>
        <time>2020-09-13T08:00:13Z</time>
      </trkpt>
      <trkpt lat="42.7937260" lon="-0.1423910">
        <ele>2118.0</ele>
        <time>2020-09-13T08:00:34Z</time>
      </trkpt>
      <trkpt lat="42.7937160" lon="-0.1424300">
        <ele>2118.0</ele>
        <time>2020-09-13T08:00:52Z</time>
      </trkpt>
      <trkpt lat="42.7936270" lon="-0.1425510">
        <ele>2118.4</ele>
        <time>2020-09-13T08:01:13Z</time>
      </trkpt>
      <trkpt lat="42.7936000" lon="-0.1425230">
        <ele>2118.2</ele>
        <time>2020-09-13T08:01:15Z</time>
      </trkpt>
      <trkpt lat="42.7935670" lon="-0.1425280">
        <ele>2117.0</ele>
        <time>2020-09-13T08:01:18Z</time>
      </trkpt>
      <trkpt lat="42.7935580" lon="-0.1425250">
        <ele>2116.6</ele>
        <time>2020-09-13T08:01:19Z</time>
      </trkpt>
      <trkpt lat="42.7935470" lon="-0.1425200">
        <ele>2116.2</ele>
        <time>2020-09-13T08:01:21Z</time>
      </trkpt>
      <trkpt lat="42.7935470" lon="-0.1425110">
        <ele>2115.8</ele>
        <time>2020-09-13T08:01:22Z</time>
      </trkpt>
      <trkpt lat="42.7935420" lon="-0.1424980">
        <ele>2115.4</ele>
        <time>2020-09-13T08:01:23Z</time>
      </trkpt>
      <trkpt lat="42.7935220" lon="-0.1424680">
        <ele>2114.8</ele>
        <time>2020-09-13T08:01:25Z</time>
      </trkpt>
      <trkpt lat="42.7935040" lon="-0.1424210">
        <ele>2114.4</ele>
        <time>2020-09-13T08:01:28Z</time>
      </trkpt>
      <trkpt lat="42.7934950" lon="-0.1423710">
        <ele>2113.4</ele>
        <time>2020-09-13T08:01:31Z</time>
      </trkpt>
      <trkpt lat="42.7934150" lon="-0.1421340">
        <ele>2113.2</ele>
        <time>2020-09-13T08:01:49Z</time>
      </trkpt>
      <trkpt lat="42.7934170" lon="-0.1421060">
        <ele>2113.0</ele>
        <time>2020-09-13T08:01:51Z</time>
      </trkpt>
      <trkpt lat="42.7934320" lon="-0.1420700">
        <ele>2112.8</ele>
        <time>2020-09-13T08:01:53Z</time>
      </trkpt>
      <trkpt lat="42.7933630" lon="-0.1419150">
        <ele>2113.8</ele>
        <time>2020-09-13T08:02:05Z</time>
      </trkpt>
      <trkpt lat="42.7933380" lon="-0.1419240">
        <ele>2113.0</ele>
        <time>2020-09-13T08:02:07Z</time>
      </trkpt>
      <trkpt lat="42.7933080" lon="-0.1419320">
        <ele>2112.2</ele>
        <time>2020-09-13T08:02:09Z</time>
      </trkpt>
      <trkpt lat="42.7931330" lon="-0.1418590">
        <ele>2112.6</ele>
        <time>2020-09-13T08:02:23Z</time>
      </trkpt>
      <trkpt lat="42.7931180" lon="-0.1418490">
        <ele>2112.4</ele>
        <time>2020-09-13T08:02:24Z</time>
      </trkpt>
      <trkpt lat="42.7929840" lon="-0.1417750">
        <ele>2112.0</ele>
        <time>2020-09-13T08:02:35Z</time>
      </trkpt>
      <trkpt lat="42.7929580" lon="-0.1417790">
        <ele>2112.4</ele>
        <time>2020-09-13T08:02:37Z</time>
      </trkpt>
      <trkpt lat="42.7929230" lon="-0.1417660">
        <ele>2112.6</ele>
        <time>2020-09-13T08:02:40Z</time>
      </trkpt>
      <trkpt lat="42.7928980" lon="-0.1417710">
        <ele>2112.4</ele>
        <time>2020-09-13T08:02:43Z</time>
      </trkpt>
      <trkpt lat="42.7928920" lon="-0.1417450">
        <ele>2112.2</ele>
        <time>2020-09-13T08:02:48Z</time>
      </trkpt>
      <trkpt lat="42.7928880" lon="-0.1417450">
        <ele>2112.4</ele>
        <time>2020-09-13T08:02:50Z</time>
      </trkpt>
      <trkpt lat="42.7928590" lon="-0.1417170">
        <ele>2112.2</ele>
        <time>2020-09-13T08:02:53Z</time>
      </trkpt>
      <trkpt lat="42.7927140" lon="-0.1416110">
        <ele>2112.6</ele>
        <time>2020-09-13T08:03:08Z</time>
      </trkpt>
      <trkpt lat="42.7927130" lon="-0.1414710">
        <ele>2113.4</ele>
        <time>2020-09-13T08:03:17Z</time>
      </trkpt>
      <trkpt lat="42.7927240" lon="-0.1414330">
        <ele>2114.6</ele>
        <time>2020-09-13T08:03:21Z</time>
      </trkpt>
      <trkpt lat="42.7927260" lon="-0.1414230">
        <ele>2115.0</ele>
        <time>2020-09-13T08:03:22Z</time>
      </trkpt>
      <trkpt lat="42.7927170" lon="-0.1413960">
        <ele>2115.4</ele>
        <time>2020-09-13T08:03:24Z</time>
      </trkpt>
      <trkpt lat="42.7927090" lon="-0.1413840">
        <ele>2115.6</ele>
        <time>2020-09-13T08:03:25Z</time>
      </trkpt>
      <trkpt lat="42.7927060" lon="-0.1413710">
        <ele>2116.0</ele>
        <time>2020-09-13T08:03:26Z</time>
      </trkpt>
      <trkpt lat="42.7927100" lon="-0.1413250">
        <ele>2116.8</ele>
        <time>2020-09-13T08:03:29Z</time>
      </trkpt>
      <trkpt lat="42.7927190" lon="-0.1412990">
        <ele>2117.2</ele>
        <time>2020-09-13T08:03:31Z</time>
      </trkpt>
      <trkpt lat="42.7927350" lon="-0.1412740">
        <ele>2117.8</ele>
        <time>2020-09-13T08:03:33Z</time>
      </trkpt>
      <trkpt lat="42.7927570" lon="-0.1412620">
        <ele>2118.4</ele>
        <time>2020-09-13T08:03:35Z</time>
      </trkpt>
      <trkpt lat="42.7927890" lon="-0.1412740">
        <ele>2118.8</ele>
        <time>2020-09-13T08:03:38Z</time>
      </trkpt>
      <trkpt lat="42.7927970" lon="-0.1412800">
        <ele>2119.2</ele>
        <time>2020-09-13T08:03:39Z</time>
      </trkpt>
      <trkpt lat="42.7928150" lon="-0.1412960">
        <ele>2119.6</ele>
        <time>2020-09-13T08:03:42Z</time>
      </trkpt>
      <trkpt lat="42.7928220" lon="-0.1413010">
        <ele>2119.6</ele>
        <time>2020-09-13T08:03:43Z</time>
      </trkpt>
      <trkpt lat="42.7927780" lon="-0.1413000">
        <ele>2120.4</ele>
        <time>2020-09-13T08:08:06Z</time>
      </trkpt>
      <trkpt lat="42.7927650" lon="-0.1412990">
        <ele>2120.4</ele>
        <time>2020-09-13T08:08:07Z</time>
      </trkpt>
      <trkpt lat="42.7927180" lon="-0.1413290">
        <ele>2120.4</ele>
        <time>2020-09-13T08:08:12Z</time>
      </trkpt>
      <trkpt lat="42.7926600" lon="-0.1413330">
        <ele>2119.2</ele>
        <time>2020-09-13T08:08:22Z</time>
      </trkpt>
      <trkpt lat="42.7926700" lon="-0.1413830">
        <ele>2118.0</ele>
        <time>2020-09-13T08:08:27Z</time>
      </trkpt>
      <trkpt lat="42.7926770" lon="-0.1414330">
        <ele>2117.0</ele>
        <time>2020-09-13T08:08:31Z</time>
      </trkpt>
      <trkpt lat="42.7926770" lon="-0.1414430">
        <ele>2116.8</ele>
        <time>2020-09-13T08:08:32Z</time>
      </trkpt>
      <trkpt lat="42.7926760" lon="-0.1414620">
        <ele>2116.6</ele>
        <time>2020-09-13T08:08:33Z</time>
      </trkpt>
      <trkpt lat="42.7926780" lon="-0.1415070">
        <ele>2115.6</ele>
        <time>2020-09-13T08:08:36Z</time>
      </trkpt>
      <trkpt lat="42.7926820" lon="-0.1415480">
        <ele>2114.4</ele>
        <time>2020-09-13T08:08:39Z</time>
      </trkpt>
      <trkpt lat="42.7926900" lon="-0.1416160">
        <ele>2113.2</ele>
        <time>2020-09-13T08:08:43Z</time>
      </trkpt>
      <trkpt lat="42.7928000" lon="-0.1418350">
        <ele>2112.8</ele>
        <time>2020-09-13T08:08:56Z</time>
      </trkpt>
      <trkpt lat="42.7929960" lon="-0.1418410">
        <ele>2112.4</ele>
        <time>2020-09-13T08:09:09Z</time>
      </trkpt>
      <trkpt lat="42.7930320" lon="-0.1418390">
        <ele>2112.2</ele>
        <time>2020-09-13T08:09:12Z</time>
      </trkpt>
      <trkpt lat="42.7930430" lon="-0.1418550">
        <ele>2112.4</ele>
        <time>2020-09-13T08:09:15Z</time>
      </trkpt>
      <trkpt lat="42.7932200" lon="-0.1419440">
        <ele>2112.6</ele>
        <time>2020-09-13T08:09:29Z</time>
      </trkpt>
      <trkpt lat="42.7933600" lon="-0.1420530">
        <ele>2112.8</ele>
        <time>2020-09-13T08:09:46Z</time>
      </trkpt>
      <trkpt lat="42.7933310" lon="-0.1422290">
        <ele>2112.2</ele>
        <time>2020-09-13T08:09:57Z</time>
      </trkpt>
      <trkpt lat="42.7932790" lon="-0.1422560">
        <ele>2111.6</ele>
        <time>2020-09-13T08:10:04Z</time>
      </trkpt>
      <trkpt lat="42.7931360" lon="-0.1423460">
        <ele>2112.4</ele>
        <time>2020-09-13T08:10:20Z</time>
      </trkpt>
      <trkpt lat="42.7931190" lon="-0.1423560">
        <ele>2112.4</ele>
        <time>2020-09-13T08:10:22Z</time>
      </trkpt>
      <trkpt lat="42.7930820" lon="-0.1424310">
        <ele>2111.2</ele>
        <time>2020-09-13T08:10:29Z</time>
      </trkpt>
      <trkpt lat="42.7930700" lon="-0.1424470">
        <ele>2111.0</ele>
        <time>2020-09-13T08:10:30Z</time>
      </trkpt>
      <trkpt lat="42.7930430" lon="-0.1424560">
        <ele>2111.0</ele>
        <time>2020-09-13T08:10:32Z</time>
      </trkpt>
      <trkpt lat="42.7930190" lon="-0.1424620">
        <ele>2112.2</ele>
        <time>2020-09-13T08:10:34Z</time>
      </trkpt>
      <trkpt lat="42.7929740" lon="-0.1424760">
        <ele>2113.2</ele>
        <time>2020-09-13T08:10:39Z</time>
      </trkpt>
      <trkpt lat="42.7928130" lon="-0.1423850">
        <ele>2112.8</ele>
        <time>2020-09-13T08:10:55Z</time>
      </trkpt>
      <trkpt lat="42.7926340" lon="-0.1423130">
        <ele>2113.4</ele>
        <time>2020-09-13T08:11:12Z</time>
      </trkpt>
      <trkpt lat="42.7925310" lon="-0.1423340">
        <ele>2114.0</ele>
        <time>2020-09-13T08:11:23Z</time>
      </trkpt>
      <trkpt lat="42.7925010" lon="-0.1423230">
        <ele>2113.8</ele>
        <time>2020-09-13T08:11:27Z</time>
      </trkpt>
      <trkpt lat="42.7924900" lon="-0.1423000">
        <ele>2113.6</ele>
        <time>2020-09-13T08:11:31Z</time>
      </trkpt>
      <trkpt lat="42.7924380" lon="-0.1423500">
        <ele>2114.6</ele>
        <time>2020-09-13T08:11:47Z</time>
      </trkpt>
      <trkpt lat="42.7924200" lon="-0.1423470">
        <ele>2113.8</ele>
        <time>2020-09-13T08:11:49Z</time>
      </trkpt>
      <trkpt lat="42.7924140" lon="-0.1423190">
        <ele>2113.4</ele>
        <time>2020-09-13T08:11:52Z</time>
      </trkpt>
      <trkpt lat="42.7924150" lon="-0.1423620">
        <ele>2114.6</ele>
        <time>2020-09-13T08:12:10Z</time>
      </trkpt>
      <trkpt lat="42.7923380" lon="-0.1424130">
        <ele>2114.8</ele>
        <time>2020-09-13T08:12:17Z</time>
      </trkpt>
      <trkpt lat="42.7922160" lon="-0.1426040">
        <ele>2114.2</ele>
        <time>2020-09-13T08:12:35Z</time>
      </trkpt>
      <trkpt lat="42.7921810" lon="-0.1426690">
        <ele>2114.8</ele>
        <time>2020-09-13T08:12:48Z</time>
      </trkpt>
      <trkpt lat="42.7920780" lon="-0.1426080">
        <ele>2114.4</ele>
        <time>2020-09-13T08:13:13Z</time>
      </trkpt>
      <trkpt lat="42.7919110" lon="-0.1427270">
        <ele>2114.4</ele>
        <time>2020-09-13T08:13:32Z</time>
      </trkpt>
      <trkpt lat="42.7918390" lon="-0.1428150">
        <ele>2115.6</ele>
        <time>2020-09-13T08:13:40Z</time>
      </trkpt>
      <trkpt lat="42.7916770" lon="-0.1428940">
        <ele>2115.4</ele>
        <time>2020-09-13T08:13:54Z</time>
      </trkpt>
      <trkpt lat="42.7915410" lon="-0.1428760">
        <ele>2116.6</ele>
        <time>2020-09-13T08:14:06Z</time>
      </trkpt>
      <trkpt lat="42.7913690" lon="-0.1429120">
        <ele>2116.4</ele>
        <time>2020-09-13T08:14:23Z</time>
      </trkpt>
      <trkpt lat="42.7913480" lon="-0.1429230">
        <ele>2116.6</ele>
        <time>2020-09-13T08:14:25Z</time>
      </trkpt>
      <trkpt lat="42.7912620" lon="-0.1429270">
        <ele>2116.6</ele>
        <time>2020-09-13T08:14:31Z</time>
      </trkpt>
      <trkpt lat="42.7911200" lon="-0.1430290">
        <ele>2116.8</ele>
        <time>2020-09-13T08:14:47Z</time>
      </trkpt>
      <trkpt lat="42.7910820" lon="-0.1430550">
        <ele>2117.2</ele>
        <time>2020-09-13T08:14:50Z</time>
      </trkpt>
      <trkpt lat="42.7910030" lon="-0.1430580">
        <ele>2117.4</ele>
        <time>2020-09-13T08:14:57Z</time>
      </trkpt>
      <trkpt lat="42.7909610" lon="-0.1430590">
        <ele>2117.6</ele>
        <time>2020-09-13T08:15:01Z</time>
      </trkpt>
      <trkpt lat="42.7908740" lon="-0.1430920">
        <ele>2117.8</ele>
        <time>2020-09-13T08:15:09Z</time>
      </trkpt>
      <trkpt lat="42.7908490" lon="-0.1431030">
        <ele>2117.8</ele>
        <time>2020-09-13T08:15:11Z</time>
      </trkpt>
      <trkpt lat="42.7908040" lon="-0.1431730">
        <ele>2117.8</ele>
        <time>2020-09-13T08:15:18Z</time>
      </trkpt>
      <trkpt lat="42.7907620" lon="-0.1431940">
        <ele>2118.2</ele>
        <time>2020-09-13T08:15:22Z</time>
      </trkpt>
      <trkpt lat="42.7907410" lon="-0.1432090">
        <ele>2118.4</ele>
        <time>2020-09-13T08:15:24Z</time>
      </trkpt>
      <trkpt lat="42.7906830" lon="-0.1432820">
        <ele>2118.6</ele>
        <time>2020-09-13T08:15:31Z</time>
      </trkpt>
      <trkpt lat="42.7906210" lon="-0.1434220">
        <ele>2119.4</ele>
        <time>2020-09-13T08:15:41Z</time>
      </trkpt>
      <trkpt lat="42.7905850" lon="-0.1434610">
        <ele>2119.4</ele>
        <time>2020-09-13T08:15:47Z</time>
      </trkpt>
      <trkpt lat="42.7904720" lon="-0.1435330">
        <ele>2119.6</ele>
        <time>2020-09-13T08:15:57Z</time>
      </trkpt>
      <trkpt lat="42.7904580" lon="-0.1435370">
        <ele>2119.6</ele>
        <time>2020-09-13T08:15:59Z</time>
      </trkpt>
      <trkpt lat="42.7904270" lon="-0.1435590">
        <ele>2119.4</ele>
        <time>2020-09-13T08:16:03Z</time>
      </trkpt>
      <trkpt lat="42.7903990" lon="-0.1435810">
        <ele>2119.4</ele>
        <time>2020-09-13T08:16:06Z</time>
      </trkpt>
      <trkpt lat="42.7903640" lon="-0.1436960">
        <ele>2119.6</ele>
        <time>2020-09-13T08:16:17Z</time>
      </trkpt>
      <trkpt lat="42.7903470" lon="-0.1437620">
        <ele>2119.6</ele>
        <time>2020-09-13T08:16:21Z</time>
      </trkpt>
      <trkpt lat="42.7903370" lon="-0.1437880">
        <ele>2119.6</ele>
        <time>2020-09-13T08:16:23Z</time>
      </trkpt>
      <trkpt lat="42.7903410" lon="-0.1438090">
        <ele>2119.4</ele>
        <time>2020-09-13T08:16:25Z</time>
      </trkpt>
      <trkpt lat="42.7903520" lon="-0.1438350">
        <ele>2119.6</ele>
        <time>2020-09-13T08:16:28Z</time>
      </trkpt>
      <trkpt lat="42.7903440" lon="-0.1439000">
        <ele>2120.8</ele>
        <time>2020-09-13T08:16:35Z</time>
      </trkpt>
      <trkpt lat="42.7903160" lon="-0.1439520">
        <ele>2122.0</ele>
        <time>2020-09-13T08:16:43Z</time>
      </trkpt>
      <trkpt lat="42.7902840" lon="-0.1439660">
        <ele>2123.0</ele>
        <time>2020-09-13T08:16:48Z</time>
      </trkpt>
      <trkpt lat="42.7902790" lon="-0.1440210">
        <ele>2124.2</ele>
        <time>2020-09-13T08:16:54Z</time>
      </trkpt>
      <trkpt lat="42.7902680" lon="-0.1440460">
        <ele>2125.2</ele>
        <time>2020-09-13T08:16:58Z</time>
      </trkpt>
      <trkpt lat="42.7902390" lon="-0.1440820">
        <ele>2126.4</ele>
        <time>2020-09-13T08:17:02Z</time>
      </trkpt>
      <trkpt lat="42.7902050" lon="-0.1442010">
        <ele>2126.6</ele>
        <time>2020-09-13T08:17:13Z</time>
      </trkpt>
      <trkpt lat="42.7901740" lon="-0.1442690">
        <ele>2127.6</ele>
        <time>2020-09-13T08:17:20Z</time>
      </trkpt>
      <trkpt lat="42.7901730" lon="-0.1442810">
        <ele>2128.0</ele>
        <time>2020-09-13T08:17:21Z</time>
      </trkpt>
      <trkpt lat="42.7901720" lon="-0.1443030">
        <ele>2128.8</ele>
        <time>2020-09-13T08:17:23Z</time>
      </trkpt>
      <trkpt lat="42.7901690" lon="-0.1443060">
        <ele>2129.2</ele>
        <time>2020-09-13T08:17:24Z</time>
      </trkpt>
      <trkpt lat="42.7901540" lon="-0.1443140">
        <ele>2129.8</ele>
        <time>2020-09-13T08:17:26Z</time>
      </trkpt>
      <trkpt lat="42.7901340" lon="-0.1443390">
        <ele>2131.0</ele>
        <time>2020-09-13T08:17:31Z</time>
      </trkpt>
      <trkpt lat="42.7901300" lon="-0.1443440">
        <ele>2131.4</ele>
        <time>2020-09-13T08:17:32Z</time>
      </trkpt>
      <trkpt lat="42.7901260" lon="-0.1443620">
        <ele>2132.2</ele>
        <time>2020-09-13T08:17:34Z</time>
      </trkpt>
      <trkpt lat="42.7901040" lon="-0.1444890">
        <ele>2133.2</ele>
        <time>2020-09-13T08:17:46Z</time>
      </trkpt>
      <trkpt lat="42.7901060" lon="-0.1445350">
        <ele>2134.4</ele>
        <time>2020-09-13T08:17:52Z</time>
      </trkpt>
      <trkpt lat="42.7901390" lon="-0.1445850">
        <ele>2135.4</ele>
        <time>2020-09-13T08:18:40Z</time>
      </trkpt>
      <trkpt lat="42.7901470" lon="-0.1446040">
        <ele>2135.8</ele>
        <time>2020-09-13T08:18:42Z</time>
      </trkpt>
      <trkpt lat="42.7901570" lon="-0.1446400">
        <ele>2136.6</ele>
        <time>2020-09-13T08:18:46Z</time>
      </trkpt>
      <trkpt lat="42.7901840" lon="-0.1446820">
        <ele>2137.6</ele>
        <time>2020-09-13T08:18:52Z</time>
      </trkpt>
      <trkpt lat="42.7902000" lon="-0.1447050">
        <ele>2138.8</ele>
        <time>2020-09-13T08:18:59Z</time>
      </trkpt>
      <trkpt lat="42.7901950" lon="-0.1447470">
        <ele>2139.8</ele>
        <time>2020-09-13T08:19:05Z</time>
      </trkpt>
      <trkpt lat="42.7901880" lon="-0.1447810">
        <ele>2140.8</ele>
        <time>2020-09-13T08:19:10Z</time>
      </trkpt>
      <trkpt lat="42.7901820" lon="-0.1448150">
        <ele>2141.8</ele>
        <time>2020-09-13T08:19:17Z</time>
      </trkpt>
      <trkpt lat="42.7901840" lon="-0.1448320">
        <ele>2143.0</ele>
        <time>2020-09-13T08:19:21Z</time>
      </trkpt>
      <trkpt lat="42.7901780" lon="-0.1448700">
        <ele>2144.0</ele>
        <time>2020-09-13T08:19:26Z</time>
      </trkpt>
      <trkpt lat="42.7901970" lon="-0.1448960">
        <ele>2145.0</ele>
        <time>2020-09-13T08:19:32Z</time>
      </trkpt>
      <trkpt lat="42.7901990" lon="-0.1449240">
        <ele>2146.0</ele>
        <time>2020-09-13T08:19:36Z</time>
      </trkpt>
      <trkpt lat="42.7902140" lon="-0.1449490">
        <ele>2147.4</ele>
        <time>2020-09-13T08:19:43Z</time>
      </trkpt>
      <trkpt lat="42.7902010" lon="-0.1449670">
        <ele>2148.4</ele>
        <time>2020-09-13T08:19:50Z</time>
      </trkpt>
      <trkpt lat="42.7902010" lon="-0.1450090">
        <ele>2149.4</ele>
        <time>2020-09-13T08:19:57Z</time>
      </trkpt>
      <trkpt lat="42.7902130" lon="-0.1450410">
        <ele>2150.6</ele>
        <time>2020-09-13T08:20:04Z</time>
      </trkpt>
      <trkpt lat="42.7902150" lon="-0.1450450">
        <ele>2150.8</ele>
        <time>2020-09-13T08:20:05Z</time>
      </trkpt>
      <trkpt lat="42.7902110" lon="-0.1450670">
        <ele>2151.6</ele>
        <time>2020-09-13T08:20:09Z</time>
      </trkpt>
      <trkpt lat="42.7902050" lon="-0.1450800">
        <ele>2152.6</ele>
        <time>2020-09-13T08:20:13Z</time>
      </trkpt>
      <trkpt lat="42.7902100" lon="-0.1450950">
        <ele>2153.8</ele>
        <time>2020-09-13T08:20:20Z</time>
      </trkpt>
      <trkpt lat="42.7901990" lon="-0.1451290">
        <ele>2155.0</ele>
        <time>2020-09-13T08:20:26Z</time>
      </trkpt>
      <trkpt lat="42.7902020" lon="-0.1451450">
        <ele>2156.0</ele>
        <time>2020-09-13T08:20:33Z</time>
      </trkpt>
      <trkpt lat="42.7901800" lon="-0.1451830">
        <ele>2157.2</ele>
        <time>2020-09-13T08:20:43Z</time>
      </trkpt>
      <trkpt lat="42.7901780" lon="-0.1452150">
        <ele>2158.4</ele>
        <time>2020-09-13T08:20:48Z</time>
      </trkpt>
      <trkpt lat="42.7901560" lon="-0.1452140">
        <ele>2159.6</ele>
        <time>2020-09-13T08:20:53Z</time>
      </trkpt>
      <trkpt lat="42.7900980" lon="-0.1451640">
        <ele>2160.6</ele>
        <time>2020-09-13T08:21:02Z</time>
      </trkpt>
      <trkpt lat="42.7900900" lon="-0.1451660">
        <ele>2160.8</ele>
        <time>2020-09-13T08:21:03Z</time>
      </trkpt>
      <trkpt lat="42.7900500" lon="-0.1451750">
        <ele>2162.0</ele>
        <time>2020-09-13T08:21:10Z</time>
      </trkpt>
      <trkpt lat="42.7900350" lon="-0.1451790">
        <ele>2162.2</ele>
        <time>2020-09-13T08:21:12Z</time>
      </trkpt>
      <trkpt lat="42.7900030" lon="-0.1451820">
        <ele>2163.0</ele>
        <time>2020-09-13T08:21:18Z</time>
      </trkpt>
      <trkpt lat="42.7899620" lon="-0.1452310">
        <ele>2164.2</ele>
        <time>2020-09-13T08:21:26Z</time>
      </trkpt>
      <trkpt lat="42.7899490" lon="-0.1452520">
        <ele>2164.6</ele>
        <time>2020-09-13T08:21:28Z</time>
      </trkpt>
      <trkpt lat="42.7899380" lon="-0.1453020">
        <ele>2165.2</ele>
        <time>2020-09-13T08:21:36Z</time>
      </trkpt>
      <trkpt lat="42.7899030" lon="-0.1452850">
        <ele>2166.4</ele>
        <time>2020-09-13T08:21:41Z</time>
      </trkpt>
      <trkpt lat="42.7898560" lon="-0.1453270">
        <ele>2167.4</ele>
        <time>2020-09-13T08:21:50Z</time>
      </trkpt>
      <trkpt lat="42.7897940" lon="-0.1453620">
        <ele>2168.4</ele>
        <time>2020-09-13T08:22:00Z</time>
      </trkpt>
      <trkpt lat="42.7897730" lon="-0.1454400">
        <ele>2169.6</ele>
        <time>2020-09-13T08:22:07Z</time>
      </trkpt>
      <trkpt lat="42.7897740" lon="-0.1455450">
        <ele>2170.6</ele>
        <time>2020-09-13T08:22:15Z</time>
      </trkpt>
      <trkpt lat="42.7897680" lon="-0.1456210">
        <ele>2171.8</ele>
        <time>2020-09-13T08:22:24Z</time>
      </trkpt>
      <trkpt lat="42.7897730" lon="-0.1456630">
        <ele>2172.8</ele>
        <time>2020-09-13T08:22:29Z</time>
      </trkpt>
      <trkpt lat="42.7897590" lon="-0.1457140">
        <ele>2174.0</ele>
        <time>2020-09-13T08:22:36Z</time>
      </trkpt>
      <trkpt lat="42.7897510" lon="-0.1457360">
        <ele>2175.2</ele>
        <time>2020-09-13T08:22:42Z</time>
      </trkpt>
      <trkpt lat="42.7897080" lon="-0.1457430">
        <ele>2176.2</ele>
        <time>2020-09-13T08:22:48Z</time>
      </trkpt>
      <trkpt lat="42.7896570" lon="-0.1457290">
        <ele>2176.6</ele>
        <time>2020-09-13T08:22:54Z</time>
      </trkpt>
      <trkpt lat="42.7896050" lon="-0.1457530">
        <ele>2177.2</ele>
        <time>2020-09-13T08:23:05Z</time>
      </trkpt>
      <trkpt lat="42.7895710" lon="-0.1457590">
        <ele>2178.4</ele>
        <time>2020-09-13T08:23:10Z</time>
      </trkpt>
      <trkpt lat="42.7895520" lon="-0.1457940">
        <ele>2179.4</ele>
        <time>2020-09-13T08:23:17Z</time>
      </trkpt>
      <trkpt lat="42.7895290" lon="-0.1458180">
        <ele>2180.4</ele>
        <time>2020-09-13T08:23:22Z</time>
      </trkpt>
      <trkpt lat="42.7894950" lon="-0.1458430">
        <ele>2181.6</ele>
        <time>2020-09-13T08:23:27Z</time>
      </trkpt>
      <trkpt lat="42.7895190" lon="-0.1459070">
        <ele>2182.8</ele>
        <time>2020-09-13T08:23:34Z</time>
      </trkpt>
      <trkpt lat="42.7895320" lon="-0.1459540">
        <ele>2183.8</ele>
        <time>2020-09-13T08:23:40Z</time>
      </trkpt>
      <trkpt lat="42.7894730" lon="-0.1460020">
        <ele>2184.8</ele>
        <time>2020-09-13T08:23:49Z</time>
      </trkpt>
      <trkpt lat="42.7895010" lon="-0.1460340">
        <ele>2186.0</ele>
        <time>2020-09-13T08:23:55Z</time>
      </trkpt>
      <trkpt lat="42.7895100" lon="-0.1460830">
        <ele>2187.0</ele>
        <time>2020-09-13T08:24:02Z</time>
      </trkpt>
      <trkpt lat="42.7894800" lon="-0.1461060">
        <ele>2188.2</ele>
        <time>2020-09-13T08:24:11Z</time>
      </trkpt>
      <trkpt lat="42.7894700" lon="-0.1461170">
        <ele>2189.2</ele>
        <time>2020-09-13T08:24:16Z</time>
      </trkpt>
      <trkpt lat="42.7895050" lon="-0.1461670">
        <ele>2190.4</ele>
        <time>2020-09-13T08:24:38Z</time>
      </trkpt>
      <trkpt lat="42.7895380" lon="-0.1462210">
        <ele>2191.4</ele>
        <time>2020-09-13T08:24:48Z</time>
      </trkpt>
      <trkpt lat="42.7895430" lon="-0.1462560">
        <ele>2192.6</ele>
        <time>2020-09-13T08:24:52Z</time>
      </trkpt>
      <trkpt lat="42.7895560" lon="-0.1462740">
        <ele>2193.8</ele>
        <time>2020-09-13T08:24:56Z</time>
      </trkpt>
      <trkpt lat="42.7895820" lon="-0.1463030">
        <ele>2194.8</ele>
        <time>2020-09-13T08:25:01Z</time>
      </trkpt>
      <trkpt lat="42.7896000" lon="-0.1463530">
        <ele>2196.2</ele>
        <time>2020-09-13T08:25:09Z</time>
      </trkpt>
      <trkpt lat="42.7896200" lon="-0.1463840">
        <ele>2197.4</ele>
        <time>2020-09-13T08:25:15Z</time>
      </trkpt>
      <trkpt lat="42.7896320" lon="-0.1464200">
        <ele>2198.4</ele>
        <time>2020-09-13T08:25:21Z</time>
      </trkpt>
      <trkpt lat="42.7896390" lon="-0.1464550">
        <ele>2199.6</ele>
        <time>2020-09-13T08:25:31Z</time>
      </trkpt>
      <trkpt lat="42.7896820" lon="-0.1464990">
        <ele>2200.6</ele>
        <time>2020-09-13T08:25:38Z</time>
      </trkpt>
      <trkpt lat="42.7897160" lon="-0.1465200">
        <ele>2201.8</ele>
        <time>2020-09-13T08:25:44Z</time>
      </trkpt>
      <trkpt lat="42.7897110" lon="-0.1465320">
        <ele>2202.8</ele>
        <time>2020-09-13T08:25:47Z</time>
      </trkpt>
      <trkpt lat="42.7896770" lon="-0.1465500">
        <ele>2204.0</ele>
        <time>2020-09-13T08:25:54Z</time>
      </trkpt>
      <trkpt lat="42.7896400" lon="-0.1465220">
        <ele>2205.0</ele>
        <time>2020-09-13T08:26:00Z</time>
      </trkpt>
      <trkpt lat="42.7896130" lon="-0.1465420">
        <ele>2206.0</ele>
        <time>2020-09-13T08:26:06Z</time>
      </trkpt>
      <trkpt lat="42.7895790" lon="-0.1465380">
        <ele>2207.2</ele>
        <time>2020-09-13T08:26:11Z</time>
      </trkpt>
      <trkpt lat="42.7895520" lon="-0.1465650">
        <ele>2208.4</ele>
        <time>2020-09-13T08:26:19Z</time>
      </trkpt>
      <trkpt lat="42.7895760" lon="-0.1466160">
        <ele>2209.6</ele>
        <time>2020-09-13T08:26:26Z</time>
      </trkpt>
      <trkpt lat="42.7895890" lon="-0.1466640">
        <ele>2210.6</ele>
        <time>2020-09-13T08:26:32Z</time>
      </trkpt>
      <trkpt lat="42.7895730" lon="-0.1466840">
        <ele>2211.8</ele>
        <time>2020-09-13T08:26:39Z</time>
      </trkpt>
      <trkpt lat="42.7895590" lon="-0.1466830">
        <ele>2213.0</ele>
        <time>2020-09-13T08:26:44Z</time>
      </trkpt>
      <trkpt lat="42.7895660" lon="-0.1467300">
        <ele>2214.0</ele>
        <time>2020-09-13T08:26:55Z</time>
      </trkpt>
      <trkpt lat="42.7895770" lon="-0.1467600">
        <ele>2215.0</ele>
        <time>2020-09-13T08:26:59Z</time>
      </trkpt>
      <trkpt lat="42.7895440" lon="-0.1467660">
        <ele>2216.4</ele>
        <time>2020-09-13T08:27:04Z</time>
      </trkpt>
      <trkpt lat="42.7895450" lon="-0.1467940">
        <ele>2217.4</ele>
        <time>2020-09-13T08:27:11Z</time>
      </trkpt>
      <trkpt lat="42.7895100" lon="-0.1467950">
        <ele>2218.6</ele>
        <time>2020-09-13T08:27:18Z</time>
      </trkpt>
      <trkpt lat="42.7894960" lon="-0.1468300">
        <ele>2219.8</ele>
        <time>2020-09-13T08:27:22Z</time>
      </trkpt>
      <trkpt lat="42.7894700" lon="-0.1468430">
        <ele>2220.8</ele>
        <time>2020-09-13T08:27:26Z</time>
      </trkpt>
      <trkpt lat="42.7894500" lon="-0.1468680">
        <ele>2221.8</ele>
        <time>2020-09-13T08:27:32Z</time>
      </trkpt>
      <trkpt lat="42.7894280" lon="-0.1468660">
        <ele>2223.0</ele>
        <time>2020-09-13T08:27:39Z</time>
      </trkpt>
      <trkpt lat="42.7894090" lon="-0.1468680">
        <ele>2224.0</ele>
        <time>2020-09-13T08:27:42Z</time>
      </trkpt>
      <trkpt lat="42.7893930" lon="-0.1468750">
        <ele>2225.2</ele>
        <time>2020-09-13T08:27:47Z</time>
      </trkpt>
      <trkpt lat="42.7893530" lon="-0.1468680">
        <ele>2226.4</ele>
        <time>2020-09-13T08:27:53Z</time>
      </trkpt>
      <trkpt lat="42.7893410" lon="-0.1468460">
        <ele>2227.6</ele>
        <time>2020-09-13T08:27:59Z</time>
      </trkpt>
      <trkpt lat="42.7893030" lon="-0.1468350">
        <ele>2228.8</ele>
        <time>2020-09-13T08:28:04Z</time>
      </trkpt>
      <trkpt lat="42.7892640" lon="-0.1468180">
        <ele>2229.8</ele>
        <time>2020-09-13T08:28:11Z</time>
      </trkpt>
      <trkpt lat="42.7892100" lon="-0.1468130">
        <ele>2231.0</ele>
        <time>2020-09-13T08:28:18Z</time>
      </trkpt>
      <trkpt lat="42.7891590" lon="-0.1468090">
        <ele>2232.0</ele>
        <time>2020-09-13T08:28:26Z</time>
      </trkpt>
      <trkpt lat="42.7891250" lon="-0.1468250">
        <ele>2233.2</ele>
        <time>2020-09-13T08:28:32Z</time>
      </trkpt>
      <trkpt lat="42.7890990" lon="-0.1468030">
        <ele>2234.2</ele>
        <time>2020-09-13T08:28:36Z</time>
      </trkpt>
      <trkpt lat="42.7890450" lon="-0.1468190">
        <ele>2235.4</ele>
        <time>2020-09-13T08:28:44Z</time>
      </trkpt>
      <trkpt lat="42.7890120" lon="-0.1468260">
        <ele>2236.4</ele>
        <time>2020-09-13T08:28:50Z</time>
      </trkpt>
      <trkpt lat="42.7889870" lon="-0.1468350">
        <ele>2237.6</ele>
        <time>2020-09-13T08:28:55Z</time>
      </trkpt>
      <trkpt lat="42.7889370" lon="-0.1468420">
        <ele>2238.6</ele>
        <time>2020-09-13T08:29:02Z</time>
      </trkpt>
      <trkpt lat="42.7889040" lon="-0.1468620">
        <ele>2239.8</ele>
        <time>2020-09-13T08:29:09Z</time>
      </trkpt>
      <trkpt lat="42.7888880" lon="-0.1468730">
        <ele>2240.8</ele>
        <time>2020-09-13T08:29:14Z</time>
      </trkpt>
      <trkpt lat="42.7888780" lon="-0.1468870">
        <ele>2242.0</ele>
        <time>2020-09-13T08:29:18Z</time>
      </trkpt>
      <trkpt lat="42.7888660" lon="-0.1469240">
        <ele>2243.0</ele>
        <time>2020-09-13T08:29:24Z</time>
      </trkpt>
      <trkpt lat="42.7888800" lon="-0.1469920">
        <ele>2244.2</ele>
        <time>2020-09-13T08:29:31Z</time>
      </trkpt>
      <trkpt lat="42.7889220" lon="-0.1470600">
        <ele>2245.2</ele>
        <time>2020-09-13T08:29:38Z</time>
      </trkpt>
      <trkpt lat="42.7889490" lon="-0.1471300">
        <ele>2246.4</ele>
        <time>2020-09-13T08:29:46Z</time>
      </trkpt>
      <trkpt lat="42.7889770" lon="-0.1471630">
        <ele>2247.4</ele>
        <time>2020-09-13T08:29:53Z</time>
      </trkpt>
      <trkpt lat="42.7889940" lon="-0.1471500">
        <ele>2248.4</ele>
        <time>2020-09-13T08:30:02Z</time>
      </trkpt>
      <trkpt lat="42.7890130" lon="-0.1471560">
        <ele>2247.2</ele>
        <time>2020-09-13T08:30:19Z</time>
      </trkpt>
      <trkpt lat="42.7890110" lon="-0.1471570">
        <ele>2248.4</ele>
        <time>2020-09-13T08:30:27Z</time>
      </trkpt>
      <trkpt lat="42.7889840" lon="-0.1471590">
        <ele>2249.4</ele>
        <time>2020-09-13T08:31:14Z</time>
      </trkpt>
      <trkpt lat="42.7889920" lon="-0.1471310">
        <ele>2248.2</ele>
        <time>2020-09-13T08:31:22Z</time>
      </trkpt>
      <trkpt lat="42.7890940" lon="-0.1472380">
        <ele>2249.4</ele>
        <time>2020-09-13T08:31:46Z</time>
      </trkpt>
      <trkpt lat="42.7890990" lon="-0.1472920">
        <ele>2250.4</ele>
        <time>2020-09-13T08:31:52Z</time>
      </trkpt>
      <trkpt lat="42.7891060" lon="-0.1473200">
        <ele>2251.6</ele>
        <time>2020-09-13T08:31:57Z</time>
      </trkpt>
      <trkpt lat="42.7891340" lon="-0.1473610">
        <ele>2252.6</ele>
        <time>2020-09-13T08:32:04Z</time>
      </trkpt>
      <trkpt lat="42.7891320" lon="-0.1474130">
        <ele>2253.6</ele>
        <time>2020-09-13T08:32:10Z</time>
      </trkpt>
      <trkpt lat="42.7891650" lon="-0.1474290">
        <ele>2254.6</ele>
        <time>2020-09-13T08:32:17Z</time>
      </trkpt>
      <trkpt lat="42.7891940" lon="-0.1474400">
        <ele>2256.0</ele>
        <time>2020-09-13T08:32:21Z</time>
      </trkpt>
      <trkpt lat="42.7891920" lon="-0.1474660">
        <ele>2257.0</ele>
        <time>2020-09-13T08:32:27Z</time>
      </trkpt>
      <trkpt lat="42.7891670" lon="-0.1474890">
        <ele>2258.0</ele>
        <time>2020-09-13T08:32:33Z</time>
      </trkpt>
      <trkpt lat="42.7891620" lon="-0.1475330">
        <ele>2259.2</ele>
        <time>2020-09-13T08:32:38Z</time>
      </trkpt>
      <trkpt lat="42.7891550" lon="-0.1475830">
        <ele>2260.4</ele>
        <time>2020-09-13T08:32:43Z</time>
      </trkpt>
      <trkpt lat="42.7892410" lon="-0.1475770">
        <ele>2261.4</ele>
        <time>2020-09-13T08:32:51Z</time>
      </trkpt>
      <trkpt lat="42.7892370" lon="-0.1476120">
        <ele>2262.4</ele>
        <time>2020-09-13T08:32:57Z</time>
      </trkpt>
      <trkpt lat="42.7892480" lon="-0.1476300">
        <ele>2263.6</ele>
        <time>2020-09-13T08:33:03Z</time>
      </trkpt>
      <trkpt lat="42.7892720" lon="-0.1476480">
        <ele>2264.6</ele>
        <time>2020-09-13T08:33:08Z</time>
      </trkpt>
      <trkpt lat="42.7893060" lon="-0.1476690">
        <ele>2265.6</ele>
        <time>2020-09-13T08:33:13Z</time>
      </trkpt>
      <trkpt lat="42.7893160" lon="-0.1477120">
        <ele>2266.8</ele>
        <time>2020-09-13T08:33:20Z</time>
      </trkpt>
      <trkpt lat="42.7893060" lon="-0.1477300">
        <ele>2267.8</ele>
        <time>2020-09-13T08:33:24Z</time>
      </trkpt>
      <trkpt lat="42.7893420" lon="-0.1477770">
        <ele>2269.0</ele>
        <time>2020-09-13T08:33:34Z</time>
      </trkpt>
      <trkpt lat="42.7893460" lon="-0.1478020">
        <ele>2270.2</ele>
        <time>2020-09-13T08:33:40Z</time>
      </trkpt>
      <trkpt lat="42.7893480" lon="-0.1478300">
        <ele>2271.2</ele>
        <time>2020-09-13T08:33:45Z</time>
      </trkpt>
      <trkpt lat="42.7893460" lon="-0.1478320">
        <ele>2271.4</ele>
        <time>2020-09-13T08:33:46Z</time>
      </trkpt>
      <trkpt lat="42.7893670" lon="-0.1478420">
        <ele>2272.6</ele>
        <time>2020-09-13T08:33:51Z</time>
      </trkpt>
      <trkpt lat="42.7893920" lon="-0.1478270">
        <ele>2273.8</ele>
        <time>2020-09-13T08:33:56Z</time>
      </trkpt>
      <trkpt lat="42.7894300" lon="-0.1478220">
        <ele>2274.8</ele>
        <time>2020-09-13T08:34:02Z</time>
      </trkpt>
      <trkpt lat="42.7894780" lon="-0.1478660">
        <ele>2275.8</ele>
        <time>2020-09-13T08:34:10Z</time>
      </trkpt>
      <trkpt lat="42.7895100" lon="-0.1479060">
        <ele>2277.0</ele>
        <time>2020-09-13T08:34:15Z</time>
      </trkpt>
      <trkpt lat="42.7895360" lon="-0.1479250">
        <ele>2278.2</ele>
        <time>2020-09-13T08:34:21Z</time>
      </trkpt>
      <trkpt lat="42.7895680" lon="-0.1479710">
        <ele>2279.4</ele>
        <time>2020-09-13T08:34:30Z</time>
      </trkpt>
      <trkpt lat="42.7895620" lon="-0.1479870">
        <ele>2280.6</ele>
        <time>2020-09-13T08:34:36Z</time>
      </trkpt>
      <trkpt lat="42.7895400" lon="-0.1479650">
        <ele>2282.0</ele>
        <time>2020-09-13T08:34:39Z</time>
      </trkpt>
      <trkpt lat="42.7894900" lon="-0.1479880">
        <ele>2283.0</ele>
        <time>2020-09-13T08:34:47Z</time>
      </trkpt>
      <trkpt lat="42.7894820" lon="-0.1479950">
        <ele>2284.0</ele>
        <time>2020-09-13T08:34:50Z</time>
      </trkpt>
      <trkpt lat="42.7894490" lon="-0.1480110">
        <ele>2285.2</ele>
        <time>2020-09-13T08:34:56Z</time>
      </trkpt>
      <trkpt lat="42.7894700" lon="-0.1480810">
        <ele>2286.4</ele>
        <time>2020-09-13T08:35:06Z</time>
      </trkpt>
      <trkpt lat="42.7894670" lon="-0.1481270">
        <ele>2287.4</ele>
        <time>2020-09-13T08:35:11Z</time>
      </trkpt>
      <trkpt lat="42.7894580" lon="-0.1482080">
        <ele>2288.6</ele>
        <time>2020-09-13T08:35:18Z</time>
      </trkpt>
      <trkpt lat="42.7894530" lon="-0.1482740">
        <ele>2289.8</ele>
        <time>2020-09-13T08:35:27Z</time>
      </trkpt>
      <trkpt lat="42.7894500" lon="-0.1482980">
        <ele>2290.8</ele>
        <time>2020-09-13T08:35:30Z</time>
      </trkpt>
      <trkpt lat="42.7894590" lon="-0.1483690">
        <ele>2291.0</ele>
        <time>2020-09-13T08:35:36Z</time>
      </trkpt>
      <trkpt lat="42.7894760" lon="-0.1484950">
        <ele>2290.2</ele>
        <time>2020-09-13T08:35:45Z</time>
      </trkpt>
      <trkpt lat="42.7894880" lon="-0.1485150">
        <ele>2290.4</ele>
        <time>2020-09-13T08:35:47Z</time>
      </trkpt>
      <trkpt lat="42.7895050" lon="-0.1485470">
        <ele>2290.4</ele>
        <time>2020-09-13T08:35:50Z</time>
      </trkpt>
      <trkpt lat="42.7895190" lon="-0.1486210">
        <ele>2289.6</ele>
        <time>2020-09-13T08:35:55Z</time>
      </trkpt>
      <trkpt lat="42.7895280" lon="-0.1486950">
        <ele>2289.8</ele>
        <time>2020-09-13T08:36:00Z</time>
      </trkpt>
      <trkpt lat="42.7895310" lon="-0.1487230">
        <ele>2289.8</ele>
        <time>2020-09-13T08:36:02Z</time>
      </trkpt>
      <trkpt lat="42.7895630" lon="-0.1488090">
        <ele>2289.2</ele>
        <time>2020-09-13T08:36:11Z</time>
      </trkpt>
      <trkpt lat="42.7896150" lon="-0.1488070">
        <ele>2289.2</ele>
        <time>2020-09-13T08:36:18Z</time>
      </trkpt>
      <trkpt lat="42.7896280" lon="-0.1488090">
        <ele>2289.6</ele>
        <time>2020-09-13T08:36:20Z</time>
      </trkpt>
      <trkpt lat="42.7896650" lon="-0.1488050">
        <ele>2290.8</ele>
        <time>2020-09-13T08:36:26Z</time>
      </trkpt>
      <trkpt lat="42.7897010" lon="-0.1488270">
        <ele>2291.8</ele>
        <time>2020-09-13T08:36:33Z</time>
      </trkpt>
      <trkpt lat="42.7897750" lon="-0.1490330">
        <ele>2292.0</ele>
        <time>2020-09-13T08:37:08Z</time>
      </trkpt>
      <trkpt lat="42.7898120" lon="-0.1491080">
        <ele>2293.0</ele>
        <time>2020-09-13T08:37:19Z</time>
      </trkpt>
      <trkpt lat="42.7898080" lon="-0.1491270">
        <ele>2294.0</ele>
        <time>2020-09-13T08:37:22Z</time>
      </trkpt>
      <trkpt lat="42.7898190" lon="-0.1491540">
        <ele>2295.2</ele>
        <time>2020-09-13T08:37:26Z</time>
      </trkpt>
      <trkpt lat="42.7898380" lon="-0.1491960">
        <ele>2296.2</ele>
        <time>2020-09-13T08:37:34Z</time>
      </trkpt>
      <trkpt lat="42.7898640" lon="-0.1492060">
        <ele>2297.2</ele>
        <time>2020-09-13T08:37:38Z</time>
      </trkpt>
      <trkpt lat="42.7898750" lon="-0.1492420">
        <ele>2298.2</ele>
        <time>2020-09-13T08:37:45Z</time>
      </trkpt>
      <trkpt lat="42.7898840" lon="-0.1492820">
        <ele>2299.2</ele>
        <time>2020-09-13T08:37:51Z</time>
      </trkpt>
      <trkpt lat="42.7898750" lon="-0.1493120">
        <ele>2300.4</ele>
        <time>2020-09-13T08:37:58Z</time>
      </trkpt>
      <trkpt lat="42.7898540" lon="-0.1493520">
        <ele>2301.4</ele>
        <time>2020-09-13T08:38:06Z</time>
      </trkpt>
      <trkpt lat="42.7898900" lon="-0.1493800">
        <ele>2302.4</ele>
        <time>2020-09-13T08:38:12Z</time>
      </trkpt>
      <trkpt lat="42.7899350" lon="-0.1493870">
        <ele>2303.6</ele>
        <time>2020-09-13T08:38:19Z</time>
      </trkpt>
      <trkpt lat="42.7899750" lon="-0.1493990">
        <ele>2304.6</ele>
        <time>2020-09-13T08:38:25Z</time>
      </trkpt>
      <trkpt lat="42.7900110" lon="-0.1493810">
        <ele>2305.6</ele>
        <time>2020-09-13T08:38:32Z</time>
      </trkpt>
      <trkpt lat="42.7900370" lon="-0.1493720">
        <ele>2306.6</ele>
        <time>2020-09-13T08:38:38Z</time>
      </trkpt>
      <trkpt lat="42.7900470" lon="-0.1493980">
        <ele>2307.8</ele>
        <time>2020-09-13T08:38:43Z</time>
      </trkpt>
      <trkpt lat="42.7900160" lon="-0.1494360">
        <ele>2309.0</ele>
        <time>2020-09-13T08:38:49Z</time>
      </trkpt>
      <trkpt lat="42.7900560" lon="-0.1494570">
        <ele>2310.0</ele>
        <time>2020-09-13T08:39:00Z</time>
      </trkpt>
      <trkpt lat="42.7900600" lon="-0.1494710">
        <ele>2311.2</ele>
        <time>2020-09-13T08:39:06Z</time>
      </trkpt>
      <trkpt lat="42.7900550" lon="-0.1494830">
        <ele>2312.2</ele>
        <time>2020-09-13T08:39:11Z</time>
      </trkpt>
      <trkpt lat="42.7900380" lon="-0.1495230">
        <ele>2313.2</ele>
        <time>2020-09-13T08:39:17Z</time>
      </trkpt>
      <trkpt lat="42.7900620" lon="-0.1495600">
        <ele>2314.4</ele>
        <time>2020-09-13T08:39:24Z</time>
      </trkpt>
      <trkpt lat="42.7900580" lon="-0.1495760">
        <ele>2315.4</ele>
        <time>2020-09-13T08:39:30Z</time>
      </trkpt>
      <trkpt lat="42.7900560" lon="-0.1496010">
        <ele>2316.4</ele>
        <time>2020-09-13T08:39:34Z</time>
      </trkpt>
      <trkpt lat="42.7901010" lon="-0.1496190">
        <ele>2317.6</ele>
        <time>2020-09-13T08:39:42Z</time>
      </trkpt>
      <trkpt lat="42.7901570" lon="-0.1496020">
        <ele>2318.6</ele>
        <time>2020-09-13T08:39:47Z</time>
      </trkpt>
      <trkpt lat="42.7902080" lon="-0.1495840">
        <ele>2319.6</ele>
        <time>2020-09-13T08:39:55Z</time>
      </trkpt>
      <trkpt lat="42.7902770" lon="-0.1495690">
        <ele>2320.4</ele>
        <time>2020-09-13T08:40:03Z</time>
      </trkpt>
      <trkpt lat="42.7902770" lon="-0.1495800">
        <ele>2320.8</ele>
        <time>2020-09-13T08:40:05Z</time>
      </trkpt>
      <trkpt lat="42.7902640" lon="-0.1496060">
        <ele>2321.8</ele>
        <time>2020-09-13T08:40:10Z</time>
      </trkpt>
      <trkpt lat="42.7903010" lon="-0.1496160">
        <ele>2322.8</ele>
        <time>2020-09-13T08:40:20Z</time>
      </trkpt>
      <trkpt lat="42.7903380" lon="-0.1496150">
        <ele>2323.8</ele>
        <time>2020-09-13T08:40:25Z</time>
      </trkpt>
      <trkpt lat="42.7903870" lon="-0.1496000">
        <ele>2325.0</ele>
        <time>2020-09-13T08:40:33Z</time>
      </trkpt>
      <trkpt lat="42.7904250" lon="-0.1495990">
        <ele>2326.0</ele>
        <time>2020-09-13T08:40:40Z</time>
      </trkpt>
      <trkpt lat="42.7904440" lon="-0.1496110">
        <ele>2327.2</ele>
        <time>2020-09-13T08:40:48Z</time>
      </trkpt>
      <trkpt lat="42.7904450" lon="-0.1496400">
        <ele>2328.2</ele>
        <time>2020-09-13T08:40:52Z</time>
      </trkpt>
      <trkpt lat="42.7904710" lon="-0.1496510">
        <ele>2329.4</ele>
        <time>2020-09-13T08:41:00Z</time>
      </trkpt>
      <trkpt lat="42.7904930" lon="-0.1496340">
        <ele>2330.6</ele>
        <time>2020-09-13T08:41:04Z</time>
      </trkpt>
      <trkpt lat="42.7905210" lon="-0.1496020">
        <ele>2331.6</ele>
        <time>2020-09-13T08:41:08Z</time>
      </trkpt>
      <trkpt lat="42.7905530" lon="-0.1495600">
        <ele>2332.8</ele>
        <time>2020-09-13T08:41:15Z</time>
      </trkpt>
      <trkpt lat="42.7905990" lon="-0.1495260">
        <ele>2333.8</ele>
        <time>2020-09-13T08:41:22Z</time>
      </trkpt>
      <trkpt lat="42.7906360" lon="-0.1495200">
        <ele>2335.0</ele>
        <time>2020-09-13T08:41:30Z</time>
      </trkpt>
      <trkpt lat="42.7906630" lon="-0.1494980">
        <ele>2336.2</ele>
        <time>2020-09-13T08:41:34Z</time>
      </trkpt>
      <trkpt lat="42.7906930" lon="-0.1494660">
        <ele>2337.4</ele>
        <time>2020-09-13T08:41:45Z</time>
      </trkpt>
      <trkpt lat="42.7907230" lon="-0.1494550">
        <ele>2338.4</ele>
        <time>2020-09-13T08:41:50Z</time>
      </trkpt>
      <trkpt lat="42.7907590" lon="-0.1494450">
        <ele>2339.6</ele>
        <time>2020-09-13T08:41:55Z</time>
      </trkpt>
      <trkpt lat="42.7907860" lon="-0.1494220">
        <ele>2340.6</ele>
        <time>2020-09-13T08:42:05Z</time>
      </trkpt>
      <trkpt lat="42.7907570" lon="-0.1494570">
        <ele>2341.6</ele>
        <time>2020-09-13T08:42:11Z</time>
      </trkpt>
      <trkpt lat="42.7907620" lon="-0.1494700">
        <ele>2342.8</ele>
        <time>2020-09-13T08:42:15Z</time>
      </trkpt>
      <trkpt lat="42.7907350" lon="-0.1494860">
        <ele>2344.2</ele>
        <time>2020-09-13T08:42:20Z</time>
      </trkpt>
      <trkpt lat="42.7907160" lon="-0.1495280">
        <ele>2345.2</ele>
        <time>2020-09-13T08:42:25Z</time>
      </trkpt>
      <trkpt lat="42.7906970" lon="-0.1495890">
        <ele>2346.4</ele>
        <time>2020-09-13T08:42:34Z</time>
      </trkpt>
      <trkpt lat="42.7906960" lon="-0.1496130">
        <ele>2347.4</ele>
        <time>2020-09-13T08:42:38Z</time>
      </trkpt>
      <trkpt lat="42.7906790" lon="-0.1496630">
        <ele>2348.8</ele>
        <time>2020-09-13T08:42:44Z</time>
      </trkpt>
      <trkpt lat="42.7906830" lon="-0.1497270">
        <ele>2349.8</ele>
        <time>2020-09-13T08:42:54Z</time>
      </trkpt>
      <trkpt lat="42.7906790" lon="-0.1497770">
        <ele>2351.0</ele>
        <time>2020-09-13T08:43:00Z</time>
      </trkpt>
      <trkpt lat="42.7906810" lon="-0.1498290">
        <ele>2352.2</ele>
        <time>2020-09-13T08:43:08Z</time>
      </trkpt>
      <trkpt lat="42.7906840" lon="-0.1498700">
        <ele>2353.4</ele>
        <time>2020-09-13T08:43:15Z</time>
      </trkpt>
      <trkpt lat="42.7906740" lon="-0.1498940">
        <ele>2354.4</ele>
        <time>2020-09-13T08:43:21Z</time>
      </trkpt>
      <trkpt lat="42.7906560" lon="-0.1499350">
        <ele>2355.4</ele>
        <time>2020-09-13T08:43:26Z</time>
      </trkpt>
      <trkpt lat="42.7906350" lon="-0.1500120">
        <ele>2356.6</ele>
        <time>2020-09-13T08:43:33Z</time>
      </trkpt>
      <trkpt lat="42.7906510" lon="-0.1500700">
        <ele>2357.6</ele>
        <time>2020-09-13T08:43:42Z</time>
      </trkpt>
      <trkpt lat="42.7906400" lon="-0.1501030">
        <ele>2358.8</ele>
        <time>2020-09-13T08:43:46Z</time>
      </trkpt>
      <trkpt lat="42.7906360" lon="-0.1501490">
        <ele>2360.0</ele>
        <time>2020-09-13T08:43:53Z</time>
      </trkpt>
      <trkpt lat="42.7906260" lon="-0.1501940">
        <ele>2361.0</ele>
        <time>2020-09-13T08:44:01Z</time>
      </trkpt>
      <trkpt lat="42.7906330" lon="-0.1502320">
        <ele>2362.0</ele>
        <time>2020-09-13T08:44:07Z</time>
      </trkpt>
      <trkpt lat="42.7906260" lon="-0.1502710">
        <ele>2363.4</ele>
        <time>2020-09-13T08:44:13Z</time>
      </trkpt>
      <trkpt lat="42.7906250" lon="-0.1503300">
        <ele>2364.4</ele>
        <time>2020-09-13T08:44:20Z</time>
      </trkpt>
      <trkpt lat="42.7906190" lon="-0.1503510">
        <ele>2365.6</ele>
        <time>2020-09-13T08:44:24Z</time>
      </trkpt>
      <trkpt lat="42.7906050" lon="-0.1504020">
        <ele>2366.6</ele>
        <time>2020-09-13T08:44:32Z</time>
      </trkpt>
      <trkpt lat="42.7906110" lon="-0.1504400">
        <ele>2367.8</ele>
        <time>2020-09-13T08:44:38Z</time>
      </trkpt>
      <trkpt lat="42.7906050" lon="-0.1504700">
        <ele>2368.8</ele>
        <time>2020-09-13T08:44:43Z</time>
      </trkpt>
      <trkpt lat="42.7906070" lon="-0.1505100">
        <ele>2370.0</ele>
        <time>2020-09-13T08:44:50Z</time>
      </trkpt>
      <trkpt lat="42.7905960" lon="-0.1505400">
        <ele>2371.2</ele>
        <time>2020-09-13T08:44:54Z</time>
      </trkpt>
      <trkpt lat="42.7905240" lon="-0.1506560">
        <ele>2372.4</ele>
        <time>2020-09-13T08:45:18Z</time>
      </trkpt>
      <trkpt lat="42.7905360" lon="-0.1506630">
        <ele>2373.6</ele>
        <time>2020-09-13T08:45:22Z</time>
      </trkpt>
      <trkpt lat="42.7905590" lon="-0.1506750">
        <ele>2374.6</ele>
        <time>2020-09-13T08:45:29Z</time>
      </trkpt>
      <trkpt lat="42.7905610" lon="-0.1507050">
        <ele>2375.8</ele>
        <time>2020-09-13T08:45:35Z</time>
      </trkpt>
      <trkpt lat="42.7905600" lon="-0.1507380">
        <ele>2377.0</ele>
        <time>2020-09-13T08:45:43Z</time>
      </trkpt>
      <trkpt lat="42.7906450" lon="-0.1507250">
        <ele>2378.0</ele>
        <time>2020-09-13T08:45:55Z</time>
      </trkpt>
      <trkpt lat="42.7906690" lon="-0.1507390">
        <ele>2379.2</ele>
        <time>2020-09-13T08:46:01Z</time>
      </trkpt>
      <trkpt lat="42.7907080" lon="-0.1507390">
        <ele>2380.4</ele>
        <time>2020-09-13T08:46:08Z</time>
      </trkpt>
      <trkpt lat="42.7907410" lon="-0.1507170">
        <ele>2381.4</ele>
        <time>2020-09-13T08:46:13Z</time>
      </trkpt>
      <trkpt lat="42.7907640" lon="-0.1507010">
        <ele>2382.6</ele>
        <time>2020-09-13T08:46:16Z</time>
      </trkpt>
      <trkpt lat="42.7907740" lon="-0.1507190">
        <ele>2383.6</ele>
        <time>2020-09-13T08:46:21Z</time>
      </trkpt>
      <trkpt lat="42.7907450" lon="-0.1507540">
        <ele>2384.6</ele>
        <time>2020-09-13T08:46:25Z</time>
      </trkpt>
      <trkpt lat="42.7907260" lon="-0.1507950">
        <ele>2385.6</ele>
        <time>2020-09-13T08:46:29Z</time>
      </trkpt>
      <trkpt lat="42.7906960" lon="-0.1508780">
        <ele>2386.8</ele>
        <time>2020-09-13T08:46:37Z</time>
      </trkpt>
      <trkpt lat="42.7906910" lon="-0.1508910">
        <ele>2387.2</ele>
        <time>2020-09-13T08:46:39Z</time>
      </trkpt>
      <trkpt lat="42.7906590" lon="-0.1509460">
        <ele>2388.0</ele>
        <time>2020-09-13T08:46:47Z</time>
      </trkpt>
      <trkpt lat="42.7906350" lon="-0.1509900">
        <ele>2389.2</ele>
        <time>2020-09-13T08:46:54Z</time>
      </trkpt>
      <trkpt lat="42.7906290" lon="-0.1510070">
        <ele>2390.2</ele>
        <time>2020-09-13T08:46:59Z</time>
      </trkpt>
      <trkpt lat="42.7905910" lon="-0.1510380">
        <ele>2391.2</ele>
        <time>2020-09-13T08:47:06Z</time>
      </trkpt>
      <trkpt lat="42.7905380" lon="-0.1510500">
        <ele>2392.6</ele>
        <time>2020-09-13T08:47:15Z</time>
      </trkpt>
      <trkpt lat="42.7905130" lon="-0.1510700">
        <ele>2393.6</ele>
        <time>2020-09-13T08:47:20Z</time>
      </trkpt>
      <trkpt lat="42.7904920" lon="-0.1511090">
        <ele>2394.6</ele>
        <time>2020-09-13T08:47:28Z</time>
      </trkpt>
      <trkpt lat="42.7905050" lon="-0.1511640">
        <ele>2395.6</ele>
        <time>2020-09-13T08:47:35Z</time>
      </trkpt>
      <trkpt lat="42.7905230" lon="-0.1511990">
        <ele>2396.8</ele>
        <time>2020-09-13T08:47:42Z</time>
      </trkpt>
      <trkpt lat="42.7905010" lon="-0.1512160">
        <ele>2398.0</ele>
        <time>2020-09-13T08:47:48Z</time>
      </trkpt>
      <trkpt lat="42.7904980" lon="-0.1512210">
        <ele>2399.2</ele>
        <time>2020-09-13T08:47:52Z</time>
      </trkpt>
      <trkpt lat="42.7905130" lon="-0.1513230">
        <ele>2400.2</ele>
        <time>2020-09-13T08:48:04Z</time>
      </trkpt>
      <trkpt lat="42.7904920" lon="-0.1513660">
        <ele>2401.4</ele>
        <time>2020-09-13T08:48:08Z</time>
      </trkpt>
      <trkpt lat="42.7904720" lon="-0.1514100">
        <ele>2402.4</ele>
        <time>2020-09-13T08:48:15Z</time>
      </trkpt>
      <trkpt lat="42.7904610" lon="-0.1514610">
        <ele>2403.6</ele>
        <time>2020-09-13T08:48:26Z</time>
      </trkpt>
      <trkpt lat="42.7904480" lon="-0.1514520">
        <ele>2404.6</ele>
        <time>2020-09-13T08:48:33Z</time>
      </trkpt>
      <trkpt lat="42.7904430" lon="-0.1515050">
        <ele>2405.8</ele>
        <time>2020-09-13T08:48:42Z</time>
      </trkpt>
      <trkpt lat="42.7904170" lon="-0.1515680">
        <ele>2407.0</ele>
        <time>2020-09-13T08:48:50Z</time>
      </trkpt>
      <trkpt lat="42.7903970" lon="-0.1516030">
        <ele>2408.2</ele>
        <time>2020-09-13T08:48:56Z</time>
      </trkpt>
      <trkpt lat="42.7903780" lon="-0.1516250">
        <ele>2409.4</ele>
        <time>2020-09-13T08:49:02Z</time>
      </trkpt>
      <trkpt lat="42.7903580" lon="-0.1516150">
        <ele>2410.4</ele>
        <time>2020-09-13T08:49:07Z</time>
      </trkpt>
      <trkpt lat="42.7903140" lon="-0.1516400">
        <ele>2411.6</ele>
        <time>2020-09-13T08:49:13Z</time>
      </trkpt>
      <trkpt lat="42.7903110" lon="-0.1516890">
        <ele>2412.6</ele>
        <time>2020-09-13T08:49:20Z</time>
      </trkpt>
      <trkpt lat="42.7903220" lon="-0.1517360">
        <ele>2413.8</ele>
        <time>2020-09-13T08:49:26Z</time>
      </trkpt>
      <trkpt lat="42.7903090" lon="-0.1517230">
        <ele>2415.0</ele>
        <time>2020-09-13T08:49:30Z</time>
      </trkpt>
      <trkpt lat="42.7902790" lon="-0.1517040">
        <ele>2416.0</ele>
        <time>2020-09-13T08:49:36Z</time>
      </trkpt>
      <trkpt lat="42.7902450" lon="-0.1517830">
        <ele>2417.0</ele>
        <time>2020-09-13T08:49:45Z</time>
      </trkpt>
      <trkpt lat="42.7902070" lon="-0.1518380">
        <ele>2417.4</ele>
        <time>2020-09-13T08:49:50Z</time>
      </trkpt>
      <trkpt lat="42.7901950" lon="-0.1518580">
        <ele>2418.0</ele>
        <time>2020-09-13T08:49:53Z</time>
      </trkpt>
      <trkpt lat="42.7901740" lon="-0.1518830">
        <ele>2419.2</ele>
        <time>2020-09-13T08:49:57Z</time>
      </trkpt>
      <trkpt lat="42.7901610" lon="-0.1519340">
        <ele>2420.4</ele>
        <time>2020-09-13T08:50:02Z</time>
      </trkpt>
      <trkpt lat="42.7901650" lon="-0.1520610">
        <ele>2421.0</ele>
        <time>2020-09-13T08:50:13Z</time>
      </trkpt>
      <trkpt lat="42.7901700" lon="-0.1521070">
        <ele>2421.2</ele>
        <time>2020-09-13T08:50:17Z</time>
      </trkpt>
      <trkpt lat="42.7901700" lon="-0.1521170">
        <ele>2421.4</ele>
        <time>2020-09-13T08:50:18Z</time>
      </trkpt>
      <trkpt lat="42.7901970" lon="-0.1521580">
        <ele>2422.4</ele>
        <time>2020-09-13T08:50:24Z</time>
      </trkpt>
      <trkpt lat="42.7902100" lon="-0.1521770">
        <ele>2423.6</ele>
        <time>2020-09-13T08:50:29Z</time>
      </trkpt>
      <trkpt lat="42.7902040" lon="-0.1522190">
        <ele>2424.6</ele>
        <time>2020-09-13T08:50:36Z</time>
      </trkpt>
      <trkpt lat="42.7902260" lon="-0.1522690">
        <ele>2425.6</ele>
        <time>2020-09-13T08:50:44Z</time>
      </trkpt>
      <trkpt lat="42.7902350" lon="-0.1522750">
        <ele>2426.8</ele>
        <time>2020-09-13T08:50:49Z</time>
      </trkpt>
      <trkpt lat="42.7902170" lon="-0.1522500">
        <ele>2427.8</ele>
        <time>2020-09-13T08:50:56Z</time>
      </trkpt>
      <trkpt lat="42.7902000" lon="-0.1523110">
        <ele>2429.0</ele>
        <time>2020-09-13T08:51:08Z</time>
      </trkpt>
      <trkpt lat="42.7901960" lon="-0.1522970">
        <ele>2430.0</ele>
        <time>2020-09-13T08:51:13Z</time>
      </trkpt>
      <trkpt lat="42.7902020" lon="-0.1522890">
        <ele>2431.0</ele>
        <time>2020-09-13T08:51:21Z</time>
      </trkpt>
      <trkpt lat="42.7902120" lon="-0.1524120">
        <ele>2432.2</ele>
        <time>2020-09-13T08:51:49Z</time>
      </trkpt>
      <trkpt lat="42.7901790" lon="-0.1523960">
        <ele>2433.2</ele>
        <time>2020-09-13T08:51:54Z</time>
      </trkpt>
      <trkpt lat="42.7901590" lon="-0.1524230">
        <ele>2434.4</ele>
        <time>2020-09-13T08:51:58Z</time>
      </trkpt>
      <trkpt lat="42.7901490" lon="-0.1524320">
        <ele>2434.6</ele>
        <time>2020-09-13T08:51:59Z</time>
      </trkpt>
      <trkpt lat="42.7901420" lon="-0.1524420">
        <ele>2435.0</ele>
        <time>2020-09-13T08:52:01Z</time>
      </trkpt>
      <trkpt lat="42.7901270" lon="-0.1524430">
        <ele>2435.4</ele>
        <time>2020-09-13T08:52:04Z</time>
      </trkpt>
      <trkpt lat="42.7901070" lon="-0.1524570">
        <ele>2436.4</ele>
        <time>2020-09-13T08:52:08Z</time>
      </trkpt>
      <trkpt lat="42.7900730" lon="-0.1524890">
        <ele>2437.6</ele>
        <time>2020-09-13T08:52:14Z</time>
      </trkpt>
      <trkpt lat="42.7900660" lon="-0.1524930">
        <ele>2437.8</ele>
        <time>2020-09-13T08:52:15Z</time>
      </trkpt>
      <trkpt lat="42.7900550" lon="-0.1525480">
        <ele>2438.6</ele>
        <time>2020-09-13T08:52:21Z</time>
      </trkpt>
      <trkpt lat="42.7900440" lon="-0.1525470">
        <ele>2440.0</ele>
        <time>2020-09-13T08:52:24Z</time>
      </trkpt>
      <trkpt lat="42.7900150" lon="-0.1525950">
        <ele>2441.0</ele>
        <time>2020-09-13T08:52:33Z</time>
      </trkpt>
      <trkpt lat="42.7899960" lon="-0.1526140">
        <ele>2442.4</ele>
        <time>2020-09-13T08:52:38Z</time>
      </trkpt>
      <trkpt lat="42.7899770" lon="-0.1526490">
        <ele>2443.4</ele>
        <time>2020-09-13T08:52:44Z</time>
      </trkpt>
      <trkpt lat="42.7899520" lon="-0.1526850">
        <ele>2444.4</ele>
        <time>2020-09-13T08:52:50Z</time>
      </trkpt>
      <trkpt lat="42.7899270" lon="-0.1526970">
        <ele>2445.6</ele>
        <time>2020-09-13T08:52:54Z</time>
      </trkpt>
      <trkpt lat="42.7899230" lon="-0.1527840">
        <ele>2446.6</ele>
        <time>2020-09-13T08:53:04Z</time>
      </trkpt>
      <trkpt lat="42.7899070" lon="-0.1528450">
        <ele>2447.8</ele>
        <time>2020-09-13T08:53:12Z</time>
      </trkpt>
      <trkpt lat="42.7899150" lon="-0.1529020">
        <ele>2448.8</ele>
        <time>2020-09-13T08:53:18Z</time>
      </trkpt>
      <trkpt lat="42.7899150" lon="-0.1529210">
        <ele>2449.8</ele>
        <time>2020-09-13T08:53:23Z</time>
      </trkpt>
      <trkpt lat="42.7898890" lon="-0.1529250">
        <ele>2451.0</ele>
        <time>2020-09-13T08:53:28Z</time>
      </trkpt>
      <trkpt lat="42.7898680" lon="-0.1529210">
        <ele>2452.2</ele>
        <time>2020-09-13T08:53:33Z</time>
      </trkpt>
      <trkpt lat="42.7898810" lon="-0.1529920">
        <ele>2453.2</ele>
        <time>2020-09-13T08:53:43Z</time>
      </trkpt>
      <trkpt lat="42.7898610" lon="-0.1530000">
        <ele>2454.4</ele>
        <time>2020-09-13T08:53:47Z</time>
      </trkpt>
      <trkpt lat="42.7898390" lon="-0.1529940">
        <ele>2455.4</ele>
        <time>2020-09-13T08:53:51Z</time>
      </trkpt>
      <trkpt lat="42.7898230" lon="-0.1530630">
        <ele>2456.6</ele>
        <time>2020-09-13T08:54:00Z</time>
      </trkpt>
      <trkpt lat="42.7898360" lon="-0.1531190">
        <ele>2457.8</ele>
        <time>2020-09-13T08:54:07Z</time>
      </trkpt>
      <trkpt lat="42.7898430" lon="-0.1531740">
        <ele>2458.8</ele>
        <time>2020-09-13T08:54:16Z</time>
      </trkpt>
      <trkpt lat="42.7898400" lon="-0.1531830">
        <ele>2460.0</ele>
        <time>2020-09-13T08:54:19Z</time>
      </trkpt>
      <trkpt lat="42.7898370" lon="-0.1531950">
        <ele>2461.0</ele>
        <time>2020-09-13T08:55:12Z</time>
      </trkpt>
      <trkpt lat="42.7898210" lon="-0.1532620">
        <ele>2462.0</ele>
        <time>2020-09-13T08:55:19Z</time>
      </trkpt>
      <trkpt lat="42.7897960" lon="-0.1533000">
        <ele>2463.2</ele>
        <time>2020-09-13T08:55:24Z</time>
      </trkpt>
      <trkpt lat="42.7897590" lon="-0.1533490">
        <ele>2464.6</ele>
        <time>2020-09-13T08:55:29Z</time>
      </trkpt>
      <trkpt lat="42.7897380" lon="-0.1533860">
        <ele>2465.6</ele>
        <time>2020-09-13T08:55:34Z</time>
      </trkpt>
      <trkpt lat="42.7897140" lon="-0.1534280">
        <ele>2466.6</ele>
        <time>2020-09-13T08:55:41Z</time>
      </trkpt>
      <trkpt lat="42.7896920" lon="-0.1534740">
        <ele>2467.8</ele>
        <time>2020-09-13T08:55:46Z</time>
      </trkpt>
      <trkpt lat="42.7896870" lon="-0.1535160">
        <ele>2469.0</ele>
        <time>2020-09-13T08:55:50Z</time>
      </trkpt>
      <trkpt lat="42.7896600" lon="-0.1535770">
        <ele>2470.0</ele>
        <time>2020-09-13T08:55:57Z</time>
      </trkpt>
      <trkpt lat="42.7896490" lon="-0.1536230">
        <ele>2471.0</ele>
        <time>2020-09-13T08:56:05Z</time>
      </trkpt>
      <trkpt lat="42.7896090" lon="-0.1536260">
        <ele>2472.2</ele>
        <time>2020-09-13T08:56:11Z</time>
      </trkpt>
      <trkpt lat="42.7895920" lon="-0.1536850">
        <ele>2473.2</ele>
        <time>2020-09-13T08:56:17Z</time>
      </trkpt>
      <trkpt lat="42.7895940" lon="-0.1537510">
        <ele>2474.4</ele>
        <time>2020-09-13T08:56:25Z</time>
      </trkpt>
      <trkpt lat="42.7895810" lon="-0.1538100">
        <ele>2475.6</ele>
        <time>2020-09-13T08:56:31Z</time>
      </trkpt>
      <trkpt lat="42.7895640" lon="-0.1538560">
        <ele>2476.6</ele>
        <time>2020-09-13T08:56:37Z</time>
      </trkpt>
      <trkpt lat="42.7895740" lon="-0.1539010">
        <ele>2477.6</ele>
        <time>2020-09-13T08:56:43Z</time>
      </trkpt>
      <trkpt lat="42.7895640" lon="-0.1539340">
        <ele>2478.8</ele>
        <time>2020-09-13T08:56:49Z</time>
      </trkpt>
      <trkpt lat="42.7895540" lon="-0.1539980">
        <ele>2480.2</ele>
        <time>2020-09-13T08:56:59Z</time>
      </trkpt>
      <trkpt lat="42.7895330" lon="-0.1540190">
        <ele>2481.2</ele>
        <time>2020-09-13T08:57:04Z</time>
      </trkpt>
      <trkpt lat="42.7895310" lon="-0.1540380">
        <ele>2482.2</ele>
        <time>2020-09-13T08:57:08Z</time>
      </trkpt>
      <trkpt lat="42.7895190" lon="-0.1540460">
        <ele>2483.4</ele>
        <time>2020-09-13T08:57:15Z</time>
      </trkpt>
      <trkpt lat="42.7895130" lon="-0.1540840">
        <ele>2484.8</ele>
        <time>2020-09-13T08:57:22Z</time>
      </trkpt>
      <trkpt lat="42.7894840" lon="-0.1541230">
        <ele>2486.0</ele>
        <time>2020-09-13T08:57:27Z</time>
      </trkpt>
      <trkpt lat="42.7894870" lon="-0.1541630">
        <ele>2487.0</ele>
        <time>2020-09-13T08:57:32Z</time>
      </trkpt>
      <trkpt lat="42.7894940" lon="-0.1542110">
        <ele>2488.2</ele>
        <time>2020-09-13T08:57:37Z</time>
      </trkpt>
      <trkpt lat="42.7894970" lon="-0.1542720">
        <ele>2489.2</ele>
        <time>2020-09-13T08:57:46Z</time>
      </trkpt>
      <trkpt lat="42.7894880" lon="-0.1543100">
        <ele>2490.4</ele>
        <time>2020-09-13T08:57:50Z</time>
      </trkpt>
      <trkpt lat="42.7894870" lon="-0.1543530">
        <ele>2491.4</ele>
        <time>2020-09-13T08:57:55Z</time>
      </trkpt>
      <trkpt lat="42.7894850" lon="-0.1544430">
        <ele>2492.6</ele>
        <time>2020-09-13T08:58:04Z</time>
      </trkpt>
      <trkpt lat="42.7894740" lon="-0.1544910">
        <ele>2493.6</ele>
        <time>2020-09-13T08:58:10Z</time>
      </trkpt>
      <trkpt lat="42.7894690" lon="-0.1545260">
        <ele>2494.6</ele>
        <time>2020-09-13T08:58:14Z</time>
      </trkpt>
      <trkpt lat="42.7894710" lon="-0.1545540">
        <ele>2495.6</ele>
        <time>2020-09-13T08:58:20Z</time>
      </trkpt>
      <trkpt lat="42.7894600" lon="-0.1545730">
        <ele>2496.8</ele>
        <time>2020-09-13T08:58:26Z</time>
      </trkpt>
      <trkpt lat="42.7894670" lon="-0.1546070">
        <ele>2498.0</ele>
        <time>2020-09-13T08:58:31Z</time>
      </trkpt>
      <trkpt lat="42.7894650" lon="-0.1546090">
        <ele>2499.2</ele>
        <time>2020-09-13T08:58:34Z</time>
      </trkpt>
      <trkpt lat="42.7894660" lon="-0.1545850">
        <ele>2500.4</ele>
        <time>2020-09-13T08:58:41Z</time>
      </trkpt>
      <trkpt lat="42.7894690" lon="-0.1546040">
        <ele>2501.4</ele>
        <time>2020-09-13T08:58:46Z</time>
      </trkpt>
      <trkpt lat="42.7894530" lon="-0.1546460">
        <ele>2502.6</ele>
        <time>2020-09-13T08:58:51Z</time>
      </trkpt>
      <trkpt lat="42.7894120" lon="-0.1546510">
        <ele>2503.8</ele>
        <time>2020-09-13T08:58:59Z</time>
      </trkpt>
      <trkpt lat="42.7894000" lon="-0.1547060">
        <ele>2505.0</ele>
        <time>2020-09-13T08:59:07Z</time>
      </trkpt>
      <trkpt lat="42.7893890" lon="-0.1547240">
        <ele>2506.0</ele>
        <time>2020-09-13T08:59:10Z</time>
      </trkpt>
      <trkpt lat="42.7893890" lon="-0.1547280">
        <ele>2506.2</ele>
        <time>2020-09-13T08:59:11Z</time>
      </trkpt>
      <trkpt lat="42.7893770" lon="-0.1547840">
        <ele>2507.0</ele>
        <time>2020-09-13T08:59:18Z</time>
      </trkpt>
      <trkpt lat="42.7893720" lon="-0.1548310">
        <ele>2508.2</ele>
        <time>2020-09-13T08:59:24Z</time>
      </trkpt>
      <trkpt lat="42.7893690" lon="-0.1548700">
        <ele>2509.4</ele>
        <time>2020-09-13T08:59:29Z</time>
      </trkpt>
      <trkpt lat="42.7893780" lon="-0.1548900">
        <ele>2510.6</ele>
        <time>2020-09-13T08:59:39Z</time>
      </trkpt>
      <trkpt lat="42.7893630" lon="-0.1548920">
        <ele>2511.8</ele>
        <time>2020-09-13T08:59:42Z</time>
      </trkpt>
      <trkpt lat="42.7893640" lon="-0.1549060">
        <ele>2513.0</ele>
        <time>2020-09-13T08:59:44Z</time>
      </trkpt>
      <trkpt lat="42.7893500" lon="-0.1549220">
        <ele>2514.2</ele>
        <time>2020-09-13T08:59:51Z</time>
      </trkpt>
      <trkpt lat="42.7893180" lon="-0.1548980">
        <ele>2515.2</ele>
        <time>2020-09-13T08:59:57Z</time>
      </trkpt>
      <trkpt lat="42.7892890" lon="-0.1548690">
        <ele>2516.4</ele>
        <time>2020-09-13T09:00:03Z</time>
      </trkpt>
      <trkpt lat="42.7892460" lon="-0.1548740">
        <ele>2517.6</ele>
        <time>2020-09-13T09:00:12Z</time>
      </trkpt>
      <trkpt lat="42.7892310" lon="-0.1549680">
        <ele>2518.6</ele>
        <time>2020-09-13T09:00:22Z</time>
      </trkpt>
      <trkpt lat="42.7892320" lon="-0.1549950">
        <ele>2520.0</ele>
        <time>2020-09-13T09:00:26Z</time>
      </trkpt>
      <trkpt lat="42.7892310" lon="-0.1550240">
        <ele>2521.0</ele>
        <time>2020-09-13T09:00:29Z</time>
      </trkpt>
      <trkpt lat="42.7892400" lon="-0.1550520">
        <ele>2522.4</ele>
        <time>2020-09-13T09:00:32Z</time>
      </trkpt>
      <trkpt lat="42.7892570" lon="-0.1550600">
        <ele>2523.6</ele>
        <time>2020-09-13T09:00:37Z</time>
      </trkpt>
      <trkpt lat="42.7892240" lon="-0.1550730">
        <ele>2524.6</ele>
        <time>2020-09-13T09:00:42Z</time>
      </trkpt>
      <trkpt lat="42.7892470" lon="-0.1551120">
        <ele>2525.8</ele>
        <time>2020-09-13T09:00:47Z</time>
      </trkpt>
      <trkpt lat="42.7892730" lon="-0.1551530">
        <ele>2526.8</ele>
        <time>2020-09-13T09:00:55Z</time>
      </trkpt>
      <trkpt lat="42.7892380" lon="-0.1551830">
        <ele>2528.0</ele>
        <time>2020-09-13T09:01:00Z</time>
      </trkpt>
      <trkpt lat="42.7892070" lon="-0.1552130">
        <ele>2529.0</ele>
        <time>2020-09-13T09:01:04Z</time>
      </trkpt>
      <trkpt lat="42.7891680" lon="-0.1552380">
        <ele>2530.4</ele>
        <time>2020-09-13T09:01:10Z</time>
      </trkpt>
      <trkpt lat="42.7891410" lon="-0.1552580">
        <ele>2531.8</ele>
        <time>2020-09-13T09:01:14Z</time>
      </trkpt>
      <trkpt lat="42.7891200" lon="-0.1552870">
        <ele>2532.8</ele>
        <time>2020-09-13T09:01:18Z</time>
      </trkpt>
      <trkpt lat="42.7890960" lon="-0.1553440">
        <ele>2534.0</ele>
        <time>2020-09-13T09:01:25Z</time>
      </trkpt>
      <trkpt lat="42.7890870" lon="-0.1554060">
        <ele>2535.0</ele>
        <time>2020-09-13T09:01:30Z</time>
      </trkpt>
      <trkpt lat="42.7890770" lon="-0.1554900">
        <ele>2536.2</ele>
        <time>2020-09-13T09:01:38Z</time>
      </trkpt>
      <trkpt lat="42.7890890" lon="-0.1555670">
        <ele>2537.6</ele>
        <time>2020-09-13T09:01:46Z</time>
      </trkpt>
      <trkpt lat="42.7890940" lon="-0.1555860">
        <ele>2538.6</ele>
        <time>2020-09-13T09:01:48Z</time>
      </trkpt>
      <trkpt lat="42.7890880" lon="-0.1556510">
        <ele>2539.6</ele>
        <time>2020-09-13T09:01:54Z</time>
      </trkpt>
      <trkpt lat="42.7890940" lon="-0.1556900">
        <ele>2540.8</ele>
        <time>2020-09-13T09:01:58Z</time>
      </trkpt>
      <trkpt lat="42.7891130" lon="-0.1557130">
        <ele>2540.0</ele>
        <time>2020-09-13T09:02:01Z</time>
      </trkpt>
      <trkpt lat="42.7890850" lon="-0.1557010">
        <ele>2538.0</ele>
        <time>2020-09-13T09:30:26Z</time>
      </trkpt>
      <trkpt lat="42.7890850" lon="-0.1557020">
        <ele>2536.6</ele>
        <time>2020-09-13T09:30:27Z</time>
      </trkpt>
      <trkpt lat="42.7890850" lon="-0.1557040">
        <ele>2535.2</ele>
        <time>2020-09-13T09:30:28Z</time>
      </trkpt>
      <trkpt lat="42.7891130" lon="-0.1557700">
        <ele>2534.2</ele>
        <time>2020-09-13T09:30:39Z</time>
      </trkpt>
      <trkpt lat="42.7891200" lon="-0.1557810">
        <ele>2534.4</ele>
        <time>2020-09-13T09:30:40Z</time>
      </trkpt>
      <trkpt lat="42.7891620" lon="-0.1558570">
        <ele>2533.0</ele>
        <time>2020-09-13T09:30:47Z</time>
      </trkpt>
      <trkpt lat="42.7891740" lon="-0.1558730">
        <ele>2532.0</ele>
        <time>2020-09-13T09:30:49Z</time>
      </trkpt>
      <trkpt lat="42.7891840" lon="-0.1558850">
        <ele>2530.6</ele>
        <time>2020-09-13T09:30:51Z</time>
      </trkpt>
      <trkpt lat="42.7891840" lon="-0.1558890">
        <ele>2529.0</ele>
        <time>2020-09-13T09:30:53Z</time>
      </trkpt>
      <trkpt lat="42.7891860" lon="-0.1559020">
        <ele>2528.2</ele>
        <time>2020-09-13T09:30:57Z</time>
      </trkpt>
      <trkpt lat="42.7892630" lon="-0.1559590">
        <ele>2529.2</ele>
        <time>2020-09-13T09:31:20Z</time>
      </trkpt>
      <trkpt lat="42.7893240" lon="-0.1559950">
        <ele>2527.8</ele>
        <time>2020-09-13T09:31:24Z</time>
      </trkpt>
      <trkpt lat="42.7893930" lon="-0.1560410">
        <ele>2527.0</ele>
        <time>2020-09-13T09:31:29Z</time>
      </trkpt>
      <trkpt lat="42.7894010" lon="-0.1560590">
        <ele>2526.8</ele>
        <time>2020-09-13T09:31:30Z</time>
      </trkpt>
      <trkpt lat="42.7894470" lon="-0.1561140">
        <ele>2525.6</ele>
        <time>2020-09-13T09:31:34Z</time>
      </trkpt>
      <trkpt lat="42.7894750" lon="-0.1561600">
        <ele>2524.6</ele>
        <time>2020-09-13T09:31:37Z</time>
      </trkpt>
      <trkpt lat="42.7895220" lon="-0.1561900">
        <ele>2523.4</ele>
        <time>2020-09-13T09:31:41Z</time>
      </trkpt>
      <trkpt lat="42.7895170" lon="-0.1562270">
        <ele>2522.4</ele>
        <time>2020-09-13T09:31:44Z</time>
      </trkpt>
      <trkpt lat="42.7895510" lon="-0.1562340">
        <ele>2521.0</ele>
        <time>2020-09-13T09:31:47Z</time>
      </trkpt>
      <trkpt lat="42.7895530" lon="-0.1562440">
        <ele>2520.6</ele>
        <time>2020-09-13T09:31:48Z</time>
      </trkpt>
      <trkpt lat="42.7895490" lon="-0.1562590">
        <ele>2520.0</ele>
        <time>2020-09-13T09:31:49Z</time>
      </trkpt>
      <trkpt lat="42.7895650" lon="-0.1562760">
        <ele>2519.0</ele>
        <time>2020-09-13T09:31:52Z</time>
      </trkpt>
      <trkpt lat="42.7895690" lon="-0.1562830">
        <ele>2518.6</ele>
        <time>2020-09-13T09:31:53Z</time>
      </trkpt>
      <trkpt lat="42.7895620" lon="-0.1563110">
        <ele>2517.8</ele>
        <time>2020-09-13T09:31:55Z</time>
      </trkpt>
      <trkpt lat="42.7895490" lon="-0.1563330">
        <ele>2516.8</ele>
        <time>2020-09-13T09:31:57Z</time>
      </trkpt>
      <trkpt lat="42.7895550" lon="-0.1563440">
        <ele>2516.6</ele>
        <time>2020-09-13T09:31:58Z</time>
      </trkpt>
      <trkpt lat="42.7895810" lon="-0.1563790">
        <ele>2515.8</ele>
        <time>2020-09-13T09:32:01Z</time>
      </trkpt>
      <trkpt lat="42.7895760" lon="-0.1563920">
        <ele>2515.4</ele>
        <time>2020-09-13T09:32:02Z</time>
      </trkpt>
      <trkpt lat="42.7895680" lon="-0.1563980">
        <ele>2515.0</ele>
        <time>2020-09-13T09:32:03Z</time>
      </trkpt>
      <trkpt lat="42.7895680" lon="-0.1564090">
        <ele>2514.0</ele>
        <time>2020-09-13T09:32:05Z</time>
      </trkpt>
      <trkpt lat="42.7895870" lon="-0.1564210">
        <ele>2512.8</ele>
        <time>2020-09-13T09:32:08Z</time>
      </trkpt>
      <trkpt lat="42.7895840" lon="-0.1564240">
        <ele>2512.4</ele>
        <time>2020-09-13T09:32:09Z</time>
      </trkpt>
      <trkpt lat="42.7895670" lon="-0.1564400">
        <ele>2511.6</ele>
        <time>2020-09-13T09:32:13Z</time>
      </trkpt>
      <trkpt lat="42.7895500" lon="-0.1564410">
        <ele>2510.4</ele>
        <time>2020-09-13T09:32:19Z</time>
      </trkpt>
      <trkpt lat="42.7895320" lon="-0.1564950">
        <ele>2509.2</ele>
        <time>2020-09-13T09:32:24Z</time>
      </trkpt>
      <trkpt lat="42.7895620" lon="-0.1565370">
        <ele>2508.2</ele>
        <time>2020-09-13T09:32:27Z</time>
      </trkpt>
      <trkpt lat="42.7895950" lon="-0.1565790">
        <ele>2507.0</ele>
        <time>2020-09-13T09:32:30Z</time>
      </trkpt>
      <trkpt lat="42.7895990" lon="-0.1565980">
        <ele>2506.8</ele>
        <time>2020-09-13T09:32:31Z</time>
      </trkpt>
      <trkpt lat="42.7896000" lon="-0.1566290">
        <ele>2506.0</ele>
        <time>2020-09-13T09:32:33Z</time>
      </trkpt>
      <trkpt lat="42.7896020" lon="-0.1566780">
        <ele>2504.6</ele>
        <time>2020-09-13T09:32:37Z</time>
      </trkpt>
      <trkpt lat="42.7896110" lon="-0.1566940">
        <ele>2504.0</ele>
        <time>2020-09-13T09:32:39Z</time>
      </trkpt>
      <trkpt lat="42.7896080" lon="-0.1567120">
        <ele>2503.6</ele>
        <time>2020-09-13T09:32:41Z</time>
      </trkpt>
      <trkpt lat="42.7896120" lon="-0.1567560">
        <ele>2502.6</ele>
        <time>2020-09-13T09:32:47Z</time>
      </trkpt>
      <trkpt lat="42.7896410" lon="-0.1567930">
        <ele>2501.2</ele>
        <time>2020-09-13T09:32:51Z</time>
      </trkpt>
      <trkpt lat="42.7896460" lon="-0.1568020">
        <ele>2500.8</ele>
        <time>2020-09-13T09:32:52Z</time>
      </trkpt>
      <trkpt lat="42.7896630" lon="-0.1568380">
        <ele>2500.0</ele>
        <time>2020-09-13T09:32:56Z</time>
      </trkpt>
      <trkpt lat="42.7896730" lon="-0.1568690">
        <ele>2499.0</ele>
        <time>2020-09-13T09:33:00Z</time>
      </trkpt>
      <trkpt lat="42.7896760" lon="-0.1568940">
        <ele>2497.6</ele>
        <time>2020-09-13T09:33:04Z</time>
      </trkpt>
      <trkpt lat="42.7896840" lon="-0.1569040">
        <ele>2496.4</ele>
        <time>2020-09-13T09:33:09Z</time>
      </trkpt>
      <trkpt lat="42.7897340" lon="-0.1569030">
        <ele>2495.2</ele>
        <time>2020-09-13T09:33:17Z</time>
      </trkpt>
      <trkpt lat="42.7897700" lon="-0.1569250">
        <ele>2494.2</ele>
        <time>2020-09-13T09:33:21Z</time>
      </trkpt>
      <trkpt lat="42.7897870" lon="-0.1569400">
        <ele>2493.2</ele>
        <time>2020-09-13T09:33:24Z</time>
      </trkpt>
      <trkpt lat="42.7898020" lon="-0.1569380">
        <ele>2492.0</ele>
        <time>2020-09-13T09:33:29Z</time>
      </trkpt>
      <trkpt lat="42.7898140" lon="-0.1569650">
        <ele>2490.8</ele>
        <time>2020-09-13T09:33:34Z</time>
      </trkpt>
      <trkpt lat="42.7898450" lon="-0.1569440">
        <ele>2489.6</ele>
        <time>2020-09-13T09:33:38Z</time>
      </trkpt>
      <trkpt lat="42.7898750" lon="-0.1568750">
        <ele>2488.4</ele>
        <time>2020-09-13T09:33:44Z</time>
      </trkpt>
      <trkpt lat="42.7898940" lon="-0.1568850">
        <ele>2487.2</ele>
        <time>2020-09-13T09:33:47Z</time>
      </trkpt>
      <trkpt lat="42.7899270" lon="-0.1568720">
        <ele>2486.0</ele>
        <time>2020-09-13T09:33:51Z</time>
      </trkpt>
      <trkpt lat="42.7899550" lon="-0.1568390">
        <ele>2485.0</ele>
        <time>2020-09-13T09:33:54Z</time>
      </trkpt>
      <trkpt lat="42.7899510" lon="-0.1568450">
        <ele>2484.8</ele>
        <time>2020-09-13T09:33:55Z</time>
      </trkpt>
      <trkpt lat="42.7899560" lon="-0.1568580">
        <ele>2484.6</ele>
        <time>2020-09-13T09:33:56Z</time>
      </trkpt>
      <trkpt lat="42.7899580" lon="-0.1568770">
        <ele>2484.0</ele>
        <time>2020-09-13T09:33:58Z</time>
      </trkpt>
      <trkpt lat="42.7899610" lon="-0.1568870">
        <ele>2483.6</ele>
        <time>2020-09-13T09:33:59Z</time>
      </trkpt>
      <trkpt lat="42.7899920" lon="-0.1568960">
        <ele>2482.2</ele>
        <time>2020-09-13T09:34:02Z</time>
      </trkpt>
      <trkpt lat="42.7900290" lon="-0.1569290">
        <ele>2481.2</ele>
        <time>2020-09-13T09:34:06Z</time>
      </trkpt>
      <trkpt lat="42.7900660" lon="-0.1569160">
        <ele>2480.0</ele>
        <time>2020-09-13T09:34:09Z</time>
      </trkpt>
      <trkpt lat="42.7900890" lon="-0.1569130">
        <ele>2478.8</ele>
        <time>2020-09-13T09:34:12Z</time>
      </trkpt>
      <trkpt lat="42.7901190" lon="-0.1569370">
        <ele>2477.8</ele>
        <time>2020-09-13T09:34:15Z</time>
      </trkpt>
      <trkpt lat="42.7901160" lon="-0.1569600">
        <ele>2476.4</ele>
        <time>2020-09-13T09:34:18Z</time>
      </trkpt>
      <trkpt lat="42.7901190" lon="-0.1569640">
        <ele>2476.0</ele>
        <time>2020-09-13T09:34:19Z</time>
      </trkpt>
      <trkpt lat="42.7901540" lon="-0.1569770">
        <ele>2475.2</ele>
        <time>2020-09-13T09:34:22Z</time>
      </trkpt>
      <trkpt lat="42.7902020" lon="-0.1569590">
        <ele>2474.0</ele>
        <time>2020-09-13T09:34:26Z</time>
      </trkpt>
      <trkpt lat="42.7902480" lon="-0.1569770">
        <ele>2472.8</ele>
        <time>2020-09-13T09:34:30Z</time>
      </trkpt>
      <trkpt lat="42.7902560" lon="-0.1569730">
        <ele>2472.6</ele>
        <time>2020-09-13T09:34:31Z</time>
      </trkpt>
      <trkpt lat="42.7902680" lon="-0.1569610">
        <ele>2471.4</ele>
        <time>2020-09-13T09:34:34Z</time>
      </trkpt>
      <trkpt lat="42.7903010" lon="-0.1569380">
        <ele>2470.4</ele>
        <time>2020-09-13T09:34:37Z</time>
      </trkpt>
      <trkpt lat="42.7903320" lon="-0.1569340">
        <ele>2469.4</ele>
        <time>2020-09-13T09:34:40Z</time>
      </trkpt>
      <trkpt lat="42.7903430" lon="-0.1569310">
        <ele>2469.0</ele>
        <time>2020-09-13T09:34:41Z</time>
      </trkpt>
      <trkpt lat="42.7903620" lon="-0.1569140">
        <ele>2468.0</ele>
        <time>2020-09-13T09:34:44Z</time>
      </trkpt>
      <trkpt lat="42.7903650" lon="-0.1569430">
        <ele>2467.0</ele>
        <time>2020-09-13T09:34:47Z</time>
      </trkpt>
      <trkpt lat="42.7903810" lon="-0.1569570">
        <ele>2466.2</ele>
        <time>2020-09-13T09:34:49Z</time>
      </trkpt>
      <trkpt lat="42.7903910" lon="-0.1569630">
        <ele>2465.8</ele>
        <time>2020-09-13T09:34:50Z</time>
      </trkpt>
      <trkpt lat="42.7904190" lon="-0.1569870">
        <ele>2464.6</ele>
        <time>2020-09-13T09:34:53Z</time>
      </trkpt>
      <trkpt lat="42.7904300" lon="-0.1570190">
        <ele>2463.8</ele>
        <time>2020-09-13T09:34:55Z</time>
      </trkpt>
      <trkpt lat="42.7904290" lon="-0.1570300">
        <ele>2463.4</ele>
        <time>2020-09-13T09:34:56Z</time>
      </trkpt>
      <trkpt lat="42.7904250" lon="-0.1570560">
        <ele>2462.8</ele>
        <time>2020-09-13T09:34:58Z</time>
      </trkpt>
      <trkpt lat="42.7904190" lon="-0.1570710">
        <ele>2462.4</ele>
        <time>2020-09-13T09:35:00Z</time>
      </trkpt>
      <trkpt lat="42.7904180" lon="-0.1570790">
        <ele>2462.0</ele>
        <time>2020-09-13T09:35:01Z</time>
      </trkpt>
      <trkpt lat="42.7904110" lon="-0.1571000">
        <ele>2461.2</ele>
        <time>2020-09-13T09:35:05Z</time>
      </trkpt>
      <trkpt lat="42.7904000" lon="-0.1570830">
        <ele>2460.0</ele>
        <time>2020-09-13T09:35:17Z</time>
      </trkpt>
      <trkpt lat="42.7903480" lon="-0.1571960">
        <ele>2459.0</ele>
        <time>2020-09-13T09:35:47Z</time>
      </trkpt>
      <trkpt lat="42.7903210" lon="-0.1572320">
        <ele>2458.4</ele>
        <time>2020-09-13T09:35:50Z</time>
      </trkpt>
      <trkpt lat="42.7903140" lon="-0.1572480">
        <ele>2458.0</ele>
        <time>2020-09-13T09:35:51Z</time>
      </trkpt>
      <trkpt lat="42.7903040" lon="-0.1572770">
        <ele>2457.0</ele>
        <time>2020-09-13T09:35:53Z</time>
      </trkpt>
      <trkpt lat="42.7902960" lon="-0.1572850">
        <ele>2456.4</ele>
        <time>2020-09-13T09:35:54Z</time>
      </trkpt>
      <trkpt lat="42.7902770" lon="-0.1572950">
        <ele>2455.8</ele>
        <time>2020-09-13T09:35:55Z</time>
      </trkpt>
      <trkpt lat="42.7902490" lon="-0.1573050">
        <ele>2455.2</ele>
        <time>2020-09-13T09:35:57Z</time>
      </trkpt>
      <trkpt lat="42.7902520" lon="-0.1573080">
        <ele>2454.8</ele>
        <time>2020-09-13T09:35:58Z</time>
      </trkpt>
      <trkpt lat="42.7902660" lon="-0.1573220">
        <ele>2453.8</ele>
        <time>2020-09-13T09:36:00Z</time>
      </trkpt>
      <trkpt lat="42.7902630" lon="-0.1573350">
        <ele>2453.4</ele>
        <time>2020-09-13T09:36:01Z</time>
      </trkpt>
      <trkpt lat="42.7902420" lon="-0.1573640">
        <ele>2452.4</ele>
        <time>2020-09-13T09:36:04Z</time>
      </trkpt>
      <trkpt lat="42.7902560" lon="-0.1573990">
        <ele>2451.4</ele>
        <time>2020-09-13T09:36:08Z</time>
      </trkpt>
      <trkpt lat="42.7902540" lon="-0.1574180">
        <ele>2450.8</ele>
        <time>2020-09-13T09:36:09Z</time>
      </trkpt>
      <trkpt lat="42.7902550" lon="-0.1574340">
        <ele>2450.2</ele>
        <time>2020-09-13T09:36:10Z</time>
      </trkpt>
      <trkpt lat="42.7902430" lon="-0.1574690">
        <ele>2449.6</ele>
        <time>2020-09-13T09:36:12Z</time>
      </trkpt>
      <trkpt lat="42.7902470" lon="-0.1574880">
        <ele>2449.2</ele>
        <time>2020-09-13T09:36:13Z</time>
      </trkpt>
      <trkpt lat="42.7902600" lon="-0.1575260">
        <ele>2448.4</ele>
        <time>2020-09-13T09:36:16Z</time>
      </trkpt>
      <trkpt lat="42.7902660" lon="-0.1575290">
        <ele>2448.0</ele>
        <time>2020-09-13T09:36:17Z</time>
      </trkpt>
      <trkpt lat="42.7902660" lon="-0.1575360">
        <ele>2447.8</ele>
        <time>2020-09-13T09:36:18Z</time>
      </trkpt>
      <trkpt lat="42.7902790" lon="-0.1575500">
        <ele>2447.2</ele>
        <time>2020-09-13T09:36:20Z</time>
      </trkpt>
      <trkpt lat="42.7902870" lon="-0.1575600">
        <ele>2447.0</ele>
        <time>2020-09-13T09:36:21Z</time>
      </trkpt>
      <trkpt lat="42.7903000" lon="-0.1575910">
        <ele>2446.4</ele>
        <time>2020-09-13T09:36:23Z</time>
      </trkpt>
      <trkpt lat="42.7903050" lon="-0.1576220">
        <ele>2445.8</ele>
        <time>2020-09-13T09:36:25Z</time>
      </trkpt>
      <trkpt lat="42.7903150" lon="-0.1576330">
        <ele>2445.4</ele>
        <time>2020-09-13T09:36:26Z</time>
      </trkpt>
      <trkpt lat="42.7903390" lon="-0.1576520">
        <ele>2444.6</ele>
        <time>2020-09-13T09:36:28Z</time>
      </trkpt>
      <trkpt lat="42.7903760" lon="-0.1576620">
        <ele>2443.4</ele>
        <time>2020-09-13T09:36:31Z</time>
      </trkpt>
      <trkpt lat="42.7904080" lon="-0.1576410">
        <ele>2442.2</ele>
        <time>2020-09-13T09:36:34Z</time>
      </trkpt>
      <trkpt lat="42.7904180" lon="-0.1576350">
        <ele>2441.8</ele>
        <time>2020-09-13T09:36:36Z</time>
      </trkpt>
      <trkpt lat="42.7904070" lon="-0.1576550">
        <ele>2440.8</ele>
        <time>2020-09-13T09:36:39Z</time>
      </trkpt>
      <trkpt lat="42.7904390" lon="-0.1576800">
        <ele>2439.4</ele>
        <time>2020-09-13T09:36:43Z</time>
      </trkpt>
      <trkpt lat="42.7904410" lon="-0.1576920">
        <ele>2439.0</ele>
        <time>2020-09-13T09:36:45Z</time>
      </trkpt>
      <trkpt lat="42.7904450" lon="-0.1577000">
        <ele>2438.4</ele>
        <time>2020-09-13T09:36:47Z</time>
      </trkpt>
      <trkpt lat="42.7904710" lon="-0.1577380">
        <ele>2437.0</ele>
        <time>2020-09-13T09:36:51Z</time>
      </trkpt>
      <trkpt lat="42.7904840" lon="-0.1577690">
        <ele>2435.6</ele>
        <time>2020-09-13T09:36:54Z</time>
      </trkpt>
      <trkpt lat="42.7904890" lon="-0.1577860">
        <ele>2434.4</ele>
        <time>2020-09-13T09:36:58Z</time>
      </trkpt>
      <trkpt lat="42.7904850" lon="-0.1578080">
        <ele>2433.4</ele>
        <time>2020-09-13T09:37:01Z</time>
      </trkpt>
      <trkpt lat="42.7904860" lon="-0.1578260">
        <ele>2432.0</ele>
        <time>2020-09-13T09:37:05Z</time>
      </trkpt>
      <trkpt lat="42.7904720" lon="-0.1578370">
        <ele>2430.8</ele>
        <time>2020-09-13T09:37:08Z</time>
      </trkpt>
      <trkpt lat="42.7904400" lon="-0.1578670">
        <ele>2429.6</ele>
        <time>2020-09-13T09:37:12Z</time>
      </trkpt>
      <trkpt lat="42.7903920" lon="-0.1579220">
        <ele>2428.4</ele>
        <time>2020-09-13T09:37:16Z</time>
      </trkpt>
      <trkpt lat="42.7903680" lon="-0.1579470">
        <ele>2427.8</ele>
        <time>2020-09-13T09:37:18Z</time>
      </trkpt>
      <trkpt lat="42.7903590" lon="-0.1579710">
        <ele>2427.0</ele>
        <time>2020-09-13T09:37:20Z</time>
      </trkpt>
      <trkpt lat="42.7903590" lon="-0.1579800">
        <ele>2426.8</ele>
        <time>2020-09-13T09:37:21Z</time>
      </trkpt>
      <trkpt lat="42.7903330" lon="-0.1580100">
        <ele>2425.8</ele>
        <time>2020-09-13T09:37:24Z</time>
      </trkpt>
      <trkpt lat="42.7903280" lon="-0.1580230">
        <ele>2425.2</ele>
        <time>2020-09-13T09:37:26Z</time>
      </trkpt>
      <trkpt lat="42.7903250" lon="-0.1580270">
        <ele>2424.8</ele>
        <time>2020-09-13T09:37:27Z</time>
      </trkpt>
      <trkpt lat="42.7902900" lon="-0.1580480">
        <ele>2423.8</ele>
        <time>2020-09-13T09:37:30Z</time>
      </trkpt>
      <trkpt lat="42.7902950" lon="-0.1580920">
        <ele>2422.6</ele>
        <time>2020-09-13T09:37:34Z</time>
      </trkpt>
      <trkpt lat="42.7903170" lon="-0.1581290">
        <ele>2421.6</ele>
        <time>2020-09-13T09:37:37Z</time>
      </trkpt>
      <trkpt lat="42.7903440" lon="-0.1581470">
        <ele>2420.4</ele>
        <time>2020-09-13T09:37:40Z</time>
      </trkpt>
      <trkpt lat="42.7903680" lon="-0.1581540">
        <ele>2419.4</ele>
        <time>2020-09-13T09:37:43Z</time>
      </trkpt>
      <trkpt lat="42.7903750" lon="-0.1581580">
        <ele>2419.0</ele>
        <time>2020-09-13T09:37:44Z</time>
      </trkpt>
      <trkpt lat="42.7903790" lon="-0.1581670">
        <ele>2418.8</ele>
        <time>2020-09-13T09:37:45Z</time>
      </trkpt>
      <trkpt lat="42.7903880" lon="-0.1581960">
        <ele>2418.0</ele>
        <time>2020-09-13T09:37:48Z</time>
      </trkpt>
      <trkpt lat="42.7903530" lon="-0.1582410">
        <ele>2416.8</ele>
        <time>2020-09-13T09:37:52Z</time>
      </trkpt>
      <trkpt lat="42.7903360" lon="-0.1582640">
        <ele>2416.0</ele>
        <time>2020-09-13T09:37:54Z</time>
      </trkpt>
      <trkpt lat="42.7903400" lon="-0.1582710">
        <ele>2415.6</ele>
        <time>2020-09-13T09:37:55Z</time>
      </trkpt>
      <trkpt lat="42.7903390" lon="-0.1582750">
        <ele>2415.4</ele>
        <time>2020-09-13T09:37:56Z</time>
      </trkpt>
      <trkpt lat="42.7903310" lon="-0.1582920">
        <ele>2414.6</ele>
        <time>2020-09-13T09:37:58Z</time>
      </trkpt>
      <trkpt lat="42.7903270" lon="-0.1583000">
        <ele>2414.2</ele>
        <time>2020-09-13T09:37:59Z</time>
      </trkpt>
      <trkpt lat="42.7903130" lon="-0.1583140">
        <ele>2413.6</ele>
        <time>2020-09-13T09:38:01Z</time>
      </trkpt>
      <trkpt lat="42.7902970" lon="-0.1583320">
        <ele>2412.8</ele>
        <time>2020-09-13T09:38:03Z</time>
      </trkpt>
      <trkpt lat="42.7902830" lon="-0.1583500">
        <ele>2412.2</ele>
        <time>2020-09-13T09:38:05Z</time>
      </trkpt>
      <trkpt lat="42.7902530" lon="-0.1583940">
        <ele>2411.0</ele>
        <time>2020-09-13T09:38:10Z</time>
      </trkpt>
      <trkpt lat="42.7902270" lon="-0.1584160">
        <ele>2409.8</ele>
        <time>2020-09-13T09:38:14Z</time>
      </trkpt>
      <trkpt lat="42.7902210" lon="-0.1584350">
        <ele>2409.4</ele>
        <time>2020-09-13T09:38:16Z</time>
      </trkpt>
      <trkpt lat="42.7902300" lon="-0.1584550">
        <ele>2408.8</ele>
        <time>2020-09-13T09:38:18Z</time>
      </trkpt>
      <trkpt lat="42.7902300" lon="-0.1584670">
        <ele>2408.4</ele>
        <time>2020-09-13T09:38:19Z</time>
      </trkpt>
      <trkpt lat="42.7902390" lon="-0.1584890">
        <ele>2408.0</ele>
        <time>2020-09-13T09:38:21Z</time>
      </trkpt>
      <trkpt lat="42.7902510" lon="-0.1585100">
        <ele>2407.4</ele>
        <time>2020-09-13T09:38:23Z</time>
      </trkpt>
      <trkpt lat="42.7902460" lon="-0.1585390">
        <ele>2406.2</ele>
        <time>2020-09-13T09:38:26Z</time>
      </trkpt>
      <trkpt lat="42.7902700" lon="-0.1585560">
        <ele>2405.2</ele>
        <time>2020-09-13T09:38:29Z</time>
      </trkpt>
      <trkpt lat="42.7903080" lon="-0.1585710">
        <ele>2404.0</ele>
        <time>2020-09-13T09:38:33Z</time>
      </trkpt>
      <trkpt lat="42.7903070" lon="-0.1585770">
        <ele>2403.8</ele>
        <time>2020-09-13T09:38:34Z</time>
      </trkpt>
      <trkpt lat="42.7903030" lon="-0.1586060">
        <ele>2402.6</ele>
        <time>2020-09-13T09:38:37Z</time>
      </trkpt>
      <trkpt lat="42.7902740" lon="-0.1586450">
        <ele>2401.4</ele>
        <time>2020-09-13T09:38:42Z</time>
      </trkpt>
      <trkpt lat="42.7902600" lon="-0.1586730">
        <ele>2400.2</ele>
        <time>2020-09-13T09:38:48Z</time>
      </trkpt>
      <trkpt lat="42.7902460" lon="-0.1587070">
        <ele>2399.0</ele>
        <time>2020-09-13T09:38:52Z</time>
      </trkpt>
      <trkpt lat="42.7902360" lon="-0.1587390">
        <ele>2398.0</ele>
        <time>2020-09-13T09:38:57Z</time>
      </trkpt>
      <trkpt lat="42.7902320" lon="-0.1587410">
        <ele>2396.8</ele>
        <time>2020-09-13T09:39:01Z</time>
      </trkpt>
      <trkpt lat="42.7901810" lon="-0.1587910">
        <ele>2395.6</ele>
        <time>2020-09-13T09:39:09Z</time>
      </trkpt>
      <trkpt lat="42.7901680" lon="-0.1588170">
        <ele>2394.4</ele>
        <time>2020-09-13T09:39:12Z</time>
      </trkpt>
      <trkpt lat="42.7901660" lon="-0.1588500">
        <ele>2393.4</ele>
        <time>2020-09-13T09:39:15Z</time>
      </trkpt>
      <trkpt lat="42.7901620" lon="-0.1588720">
        <ele>2392.2</ele>
        <time>2020-09-13T09:39:17Z</time>
      </trkpt>
      <trkpt lat="42.7901620" lon="-0.1589330">
        <ele>2390.8</ele>
        <time>2020-09-13T09:39:21Z</time>
      </trkpt>
      <trkpt lat="42.7901630" lon="-0.1589460">
        <ele>2390.4</ele>
        <time>2020-09-13T09:39:22Z</time>
      </trkpt>
      <trkpt lat="42.7901620" lon="-0.1589680">
        <ele>2389.4</ele>
        <time>2020-09-13T09:39:24Z</time>
      </trkpt>
      <trkpt lat="42.7901690" lon="-0.1589950">
        <ele>2388.2</ele>
        <time>2020-09-13T09:39:26Z</time>
      </trkpt>
      <trkpt lat="42.7901730" lon="-0.1590100">
        <ele>2387.6</ele>
        <time>2020-09-13T09:39:27Z</time>
      </trkpt>
      <trkpt lat="42.7901640" lon="-0.1590350">
        <ele>2387.0</ele>
        <time>2020-09-13T09:39:29Z</time>
      </trkpt>
      <trkpt lat="42.7901370" lon="-0.1590710">
        <ele>2385.8</ele>
        <time>2020-09-13T09:39:32Z</time>
      </trkpt>
      <trkpt lat="42.7901130" lon="-0.1591110">
        <ele>2384.6</ele>
        <time>2020-09-13T09:39:35Z</time>
      </trkpt>
      <trkpt lat="42.7900930" lon="-0.1591570">
        <ele>2383.4</ele>
        <time>2020-09-13T09:39:38Z</time>
      </trkpt>
      <trkpt lat="42.7900710" lon="-0.1591770">
        <ele>2381.8</ele>
        <time>2020-09-13T09:39:40Z</time>
      </trkpt>
      <trkpt lat="42.7900620" lon="-0.1592080">
        <ele>2380.8</ele>
        <time>2020-09-13T09:39:42Z</time>
      </trkpt>
      <trkpt lat="42.7900440" lon="-0.1592540">
        <ele>2379.8</ele>
        <time>2020-09-13T09:39:45Z</time>
      </trkpt>
      <trkpt lat="42.7900390" lon="-0.1593100">
        <ele>2378.2</ele>
        <time>2020-09-13T09:39:48Z</time>
      </trkpt>
      <trkpt lat="42.7900200" lon="-0.1593380">
        <ele>2376.8</ele>
        <time>2020-09-13T09:39:50Z</time>
      </trkpt>
      <trkpt lat="42.7900180" lon="-0.1593750">
        <ele>2375.4</ele>
        <time>2020-09-13T09:39:52Z</time>
      </trkpt>
      <trkpt lat="42.7899990" lon="-0.1594260">
        <ele>2374.0</ele>
        <time>2020-09-13T09:39:55Z</time>
      </trkpt>
      <trkpt lat="42.7899790" lon="-0.1594500">
        <ele>2372.4</ele>
        <time>2020-09-13T09:39:57Z</time>
      </trkpt>
      <trkpt lat="42.7899370" lon="-0.1594850">
        <ele>2371.2</ele>
        <time>2020-09-13T09:40:00Z</time>
      </trkpt>
      <trkpt lat="42.7898910" lon="-0.1595530">
        <ele>2369.8</ele>
        <time>2020-09-13T09:40:04Z</time>
      </trkpt>
      <trkpt lat="42.7898810" lon="-0.1595800">
        <ele>2369.2</ele>
        <time>2020-09-13T09:40:06Z</time>
      </trkpt>
      <trkpt lat="42.7898800" lon="-0.1596150">
        <ele>2368.8</ele>
        <time>2020-09-13T09:40:08Z</time>
      </trkpt>
      <trkpt lat="42.7898810" lon="-0.1596590">
        <ele>2368.6</ele>
        <time>2020-09-13T09:40:10Z</time>
      </trkpt>
      <trkpt lat="42.7898840" lon="-0.1597140">
        <ele>2367.2</ele>
        <time>2020-09-13T09:40:13Z</time>
      </trkpt>
      <trkpt lat="42.7898750" lon="-0.1597520">
        <ele>2366.0</ele>
        <time>2020-09-13T09:40:15Z</time>
      </trkpt>
      <trkpt lat="42.7898600" lon="-0.1597840">
        <ele>2364.8</ele>
        <time>2020-09-13T09:40:17Z</time>
      </trkpt>
      <trkpt lat="42.7898400" lon="-0.1598140">
        <ele>2363.6</ele>
        <time>2020-09-13T09:40:20Z</time>
      </trkpt>
      <trkpt lat="42.7898510" lon="-0.1598200">
        <ele>2362.6</ele>
        <time>2020-09-13T09:40:22Z</time>
      </trkpt>
      <trkpt lat="42.7898470" lon="-0.1598460">
        <ele>2361.2</ele>
        <time>2020-09-13T09:40:26Z</time>
      </trkpt>
      <trkpt lat="42.7898330" lon="-0.1598630">
        <ele>2360.2</ele>
        <time>2020-09-13T09:40:28Z</time>
      </trkpt>
      <trkpt lat="42.7898240" lon="-0.1598860">
        <ele>2359.2</ele>
        <time>2020-09-13T09:40:30Z</time>
      </trkpt>
      <trkpt lat="42.7898220" lon="-0.1598950">
        <ele>2359.0</ele>
        <time>2020-09-13T09:40:31Z</time>
      </trkpt>
      <trkpt lat="42.7898170" lon="-0.1599020">
        <ele>2358.8</ele>
        <time>2020-09-13T09:40:32Z</time>
      </trkpt>
      <trkpt lat="42.7898250" lon="-0.1599370">
        <ele>2357.8</ele>
        <time>2020-09-13T09:40:35Z</time>
      </trkpt>
      <trkpt lat="42.7898080" lon="-0.1599720">
        <ele>2356.8</ele>
        <time>2020-09-13T09:40:38Z</time>
      </trkpt>
      <trkpt lat="42.7898060" lon="-0.1599800">
        <ele>2356.2</ele>
        <time>2020-09-13T09:40:39Z</time>
      </trkpt>
      <trkpt lat="42.7897900" lon="-0.1599960">
        <ele>2355.6</ele>
        <time>2020-09-13T09:40:41Z</time>
      </trkpt>
      <trkpt lat="42.7897660" lon="-0.1600170">
        <ele>2354.4</ele>
        <time>2020-09-13T09:40:44Z</time>
      </trkpt>
      <trkpt lat="42.7897690" lon="-0.1600540">
        <ele>2353.6</ele>
        <time>2020-09-13T09:40:47Z</time>
      </trkpt>
      <trkpt lat="42.7897590" lon="-0.1600640">
        <ele>2353.2</ele>
        <time>2020-09-13T09:40:48Z</time>
      </trkpt>
      <trkpt lat="42.7897370" lon="-0.1600870">
        <ele>2352.2</ele>
        <time>2020-09-13T09:40:50Z</time>
      </trkpt>
      <trkpt lat="42.7897160" lon="-0.1601180">
        <ele>2350.8</ele>
        <time>2020-09-13T09:40:53Z</time>
      </trkpt>
      <trkpt lat="42.7897090" lon="-0.1601290">
        <ele>2350.4</ele>
        <time>2020-09-13T09:40:54Z</time>
      </trkpt>
      <trkpt lat="42.7896870" lon="-0.1601420">
        <ele>2349.4</ele>
        <time>2020-09-13T09:40:56Z</time>
      </trkpt>
      <trkpt lat="42.7896310" lon="-0.1601810">
        <ele>2347.8</ele>
        <time>2020-09-13T09:41:00Z</time>
      </trkpt>
      <trkpt lat="42.7896010" lon="-0.1602130">
        <ele>2346.6</ele>
        <time>2020-09-13T09:41:02Z</time>
      </trkpt>
      <trkpt lat="42.7895820" lon="-0.1602450">
        <ele>2345.8</ele>
        <time>2020-09-13T09:41:04Z</time>
      </trkpt>
      <trkpt lat="42.7895720" lon="-0.1602560">
        <ele>2345.2</ele>
        <time>2020-09-13T09:41:05Z</time>
      </trkpt>
      <trkpt lat="42.7895680" lon="-0.1602670">
        <ele>2344.6</ele>
        <time>2020-09-13T09:41:06Z</time>
      </trkpt>
      <trkpt lat="42.7895690" lon="-0.1602800">
        <ele>2344.0</ele>
        <time>2020-09-13T09:41:07Z</time>
      </trkpt>
      <trkpt lat="42.7895550" lon="-0.1603220">
        <ele>2343.0</ele>
        <time>2020-09-13T09:41:10Z</time>
      </trkpt>
      <trkpt lat="42.7895550" lon="-0.1603350">
        <ele>2342.6</ele>
        <time>2020-09-13T09:41:11Z</time>
      </trkpt>
      <trkpt lat="42.7895610" lon="-0.1603780">
        <ele>2341.4</ele>
        <time>2020-09-13T09:41:14Z</time>
      </trkpt>
      <trkpt lat="42.7895240" lon="-0.1604230">
        <ele>2341.0</ele>
        <time>2020-09-13T09:41:18Z</time>
      </trkpt>
      <trkpt lat="42.7895100" lon="-0.1604520">
        <ele>2340.4</ele>
        <time>2020-09-13T09:41:20Z</time>
      </trkpt>
      <trkpt lat="42.7894850" lon="-0.1604780">
        <ele>2339.4</ele>
        <time>2020-09-13T09:41:23Z</time>
      </trkpt>
      <trkpt lat="42.7894450" lon="-0.1605120">
        <ele>2338.0</ele>
        <time>2020-09-13T09:41:27Z</time>
      </trkpt>
      <trkpt lat="42.7894230" lon="-0.1605260">
        <ele>2337.0</ele>
        <time>2020-09-13T09:41:29Z</time>
      </trkpt>
      <trkpt lat="42.7894000" lon="-0.1605810">
        <ele>2335.8</ele>
        <time>2020-09-13T09:41:33Z</time>
      </trkpt>
      <trkpt lat="42.7893740" lon="-0.1606810">
        <ele>2334.6</ele>
        <time>2020-09-13T09:41:39Z</time>
      </trkpt>
      <trkpt lat="42.7893340" lon="-0.1607780">
        <ele>2333.0</ele>
        <time>2020-09-13T09:41:44Z</time>
      </trkpt>
      <trkpt lat="42.7893250" lon="-0.1608110">
        <ele>2332.0</ele>
        <time>2020-09-13T09:41:46Z</time>
      </trkpt>
      <trkpt lat="42.7893190" lon="-0.1608930">
        <ele>2330.8</ele>
        <time>2020-09-13T09:41:50Z</time>
      </trkpt>
      <trkpt lat="42.7892870" lon="-0.1609760">
        <ele>2329.6</ele>
        <time>2020-09-13T09:41:55Z</time>
      </trkpt>
      <trkpt lat="42.7892790" lon="-0.1610070">
        <ele>2329.2</ele>
        <time>2020-09-13T09:41:57Z</time>
      </trkpt>
      <trkpt lat="42.7892580" lon="-0.1610570">
        <ele>2328.4</ele>
        <time>2020-09-13T09:42:00Z</time>
      </trkpt>
      <trkpt lat="42.7892560" lon="-0.1611090">
        <ele>2327.2</ele>
        <time>2020-09-13T09:42:03Z</time>
      </trkpt>
      <trkpt lat="42.7892720" lon="-0.1611610">
        <ele>2326.2</ele>
        <time>2020-09-13T09:42:06Z</time>
      </trkpt>
      <trkpt lat="42.7892820" lon="-0.1612400">
        <ele>2325.0</ele>
        <time>2020-09-13T09:42:11Z</time>
      </trkpt>
      <trkpt lat="42.7892860" lon="-0.1613100">
        <ele>2323.6</ele>
        <time>2020-09-13T09:42:15Z</time>
      </trkpt>
      <trkpt lat="42.7892950" lon="-0.1613710">
        <ele>2322.4</ele>
        <time>2020-09-13T09:42:18Z</time>
      </trkpt>
      <trkpt lat="42.7892650" lon="-0.1613910">
        <ele>2321.4</ele>
        <time>2020-09-13T09:42:21Z</time>
      </trkpt>
      <trkpt lat="42.7892620" lon="-0.1614060">
        <ele>2321.2</ele>
        <time>2020-09-13T09:42:22Z</time>
      </trkpt>
      <trkpt lat="42.7892680" lon="-0.1614610">
        <ele>2320.0</ele>
        <time>2020-09-13T09:42:25Z</time>
      </trkpt>
      <trkpt lat="42.7892580" lon="-0.1615180">
        <ele>2319.0</ele>
        <time>2020-09-13T09:42:28Z</time>
      </trkpt>
      <trkpt lat="42.7892540" lon="-0.1615340">
        <ele>2318.6</ele>
        <time>2020-09-13T09:42:29Z</time>
      </trkpt>
      <trkpt lat="42.7892500" lon="-0.1615820">
        <ele>2317.8</ele>
        <time>2020-09-13T09:42:32Z</time>
      </trkpt>
      <trkpt lat="42.7892530" lon="-0.1616420">
        <ele>2316.6</ele>
        <time>2020-09-13T09:42:35Z</time>
      </trkpt>
      <trkpt lat="42.7892580" lon="-0.1617510">
        <ele>2315.8</ele>
        <time>2020-09-13T09:42:42Z</time>
      </trkpt>
      <trkpt lat="42.7892620" lon="-0.1617520">
        <ele>2315.4</ele>
        <time>2020-09-13T09:42:44Z</time>
      </trkpt>
      <trkpt lat="42.7892700" lon="-0.1617510">
        <ele>2314.8</ele>
        <time>2020-09-13T09:42:46Z</time>
      </trkpt>
      <trkpt lat="42.7892470" lon="-0.1617890">
        <ele>2314.2</ele>
        <time>2020-09-13T09:42:51Z</time>
      </trkpt>
      <trkpt lat="42.7892450" lon="-0.1618140">
        <ele>2314.2</ele>
        <time>2020-09-13T09:42:52Z</time>
      </trkpt>
      <trkpt lat="42.7892230" lon="-0.1619150">
        <ele>2313.2</ele>
        <time>2020-09-13T09:42:56Z</time>
      </trkpt>
      <trkpt lat="42.7892130" lon="-0.1619990">
        <ele>2312.0</ele>
        <time>2020-09-13T09:43:00Z</time>
      </trkpt>
      <trkpt lat="42.7891850" lon="-0.1620840">
        <ele>2310.8</ele>
        <time>2020-09-13T09:43:05Z</time>
      </trkpt>
      <trkpt lat="42.7891640" lon="-0.1621380">
        <ele>2309.8</ele>
        <time>2020-09-13T09:43:09Z</time>
      </trkpt>
      <trkpt lat="42.7891670" lon="-0.1621920">
        <ele>2308.6</ele>
        <time>2020-09-13T09:43:12Z</time>
      </trkpt>
      <trkpt lat="42.7891820" lon="-0.1622350">
        <ele>2307.8</ele>
        <time>2020-09-13T09:43:15Z</time>
      </trkpt>
      <trkpt lat="42.7891730" lon="-0.1622510">
        <ele>2307.6</ele>
        <time>2020-09-13T09:43:17Z</time>
      </trkpt>
      <trkpt lat="42.7891690" lon="-0.1622630">
        <ele>2307.4</ele>
        <time>2020-09-13T09:43:19Z</time>
      </trkpt>
      <trkpt lat="42.7891510" lon="-0.1622490">
        <ele>2308.6</ele>
        <time>2020-09-13T09:44:05Z</time>
      </trkpt>
      <trkpt lat="42.7891520" lon="-0.1622750">
        <ele>2308.2</ele>
        <time>2020-09-13T09:44:43Z</time>
      </trkpt>
      <trkpt lat="42.7891310" lon="-0.1623760">
        <ele>2308.8</ele>
        <time>2020-09-13T09:45:34Z</time>
      </trkpt>
      <trkpt lat="42.7890140" lon="-0.1625680">
        <ele>2308.8</ele>
        <time>2020-09-13T09:45:49Z</time>
      </trkpt>
      <trkpt lat="42.7890190" lon="-0.1626070">
        <ele>2308.6</ele>
        <time>2020-09-13T09:45:51Z</time>
      </trkpt>
      <trkpt lat="42.7890110" lon="-0.1626360">
        <ele>2308.4</ele>
        <time>2020-09-13T09:45:53Z</time>
      </trkpt>
      <trkpt lat="42.7890090" lon="-0.1627320">
        <ele>2308.6</ele>
        <time>2020-09-13T09:45:59Z</time>
      </trkpt>
      <trkpt lat="42.7889020" lon="-0.1629280">
        <ele>2308.4</ele>
        <time>2020-09-13T09:46:15Z</time>
      </trkpt>
      <trkpt lat="42.7888430" lon="-0.1630470">
        <ele>2308.6</ele>
        <time>2020-09-13T09:46:25Z</time>
      </trkpt>
      <trkpt lat="42.7887980" lon="-0.1631880">
        <ele>2307.4</ele>
        <time>2020-09-13T09:46:36Z</time>
      </trkpt>
      <trkpt lat="42.7887960" lon="-0.1632480">
        <ele>2306.4</ele>
        <time>2020-09-13T09:46:40Z</time>
      </trkpt>
      <trkpt lat="42.7887960" lon="-0.1632610">
        <ele>2306.0</ele>
        <time>2020-09-13T09:46:41Z</time>
      </trkpt>
      <trkpt lat="42.7888010" lon="-0.1632890">
        <ele>2305.2</ele>
        <time>2020-09-13T09:46:43Z</time>
      </trkpt>
      <trkpt lat="42.7888040" lon="-0.1633570">
        <ele>2304.0</ele>
        <time>2020-09-13T09:46:47Z</time>
      </trkpt>
      <trkpt lat="42.7887950" lon="-0.1634380">
        <ele>2302.8</ele>
        <time>2020-09-13T09:46:52Z</time>
      </trkpt>
      <trkpt lat="42.7887670" lon="-0.1635190">
        <ele>2302.6</ele>
        <time>2020-09-13T09:46:57Z</time>
      </trkpt>
      <trkpt lat="42.7887690" lon="-0.1635710">
        <ele>2303.0</ele>
        <time>2020-09-13T09:47:01Z</time>
      </trkpt>
      <trkpt lat="42.7887530" lon="-0.1636180">
        <ele>2303.4</ele>
        <time>2020-09-13T09:47:05Z</time>
      </trkpt>
      <trkpt lat="42.7887210" lon="-0.1636460">
        <ele>2303.4</ele>
        <time>2020-09-13T09:47:09Z</time>
      </trkpt>
      <trkpt lat="42.7886250" lon="-0.1637070">
        <ele>2303.4</ele>
        <time>2020-09-13T09:47:17Z</time>
      </trkpt>
      <trkpt lat="42.7885480" lon="-0.1639320">
        <ele>2302.4</ele>
        <time>2020-09-13T09:47:31Z</time>
      </trkpt>
      <trkpt lat="42.7885060" lon="-0.1639910">
        <ele>2303.2</ele>
        <time>2020-09-13T09:47:37Z</time>
      </trkpt>
      <trkpt lat="42.7884700" lon="-0.1640680">
        <ele>2303.8</ele>
        <time>2020-09-13T09:47:43Z</time>
      </trkpt>
      <trkpt lat="42.7884260" lon="-0.1641920">
        <ele>2304.4</ele>
        <time>2020-09-13T09:47:52Z</time>
      </trkpt>
      <trkpt lat="42.7884120" lon="-0.1642290">
        <ele>2305.0</ele>
        <time>2020-09-13T09:47:55Z</time>
      </trkpt>
      <trkpt lat="42.7883560" lon="-0.1643900">
        <ele>2304.2</ele>
        <time>2020-09-13T09:48:09Z</time>
      </trkpt>
      <trkpt lat="42.7883280" lon="-0.1644150">
        <ele>2304.0</ele>
        <time>2020-09-13T09:48:12Z</time>
      </trkpt>
      <trkpt lat="42.7883140" lon="-0.1644290">
        <ele>2304.0</ele>
        <time>2020-09-13T09:48:14Z</time>
      </trkpt>
      <trkpt lat="42.7882910" lon="-0.1644550">
        <ele>2304.8</ele>
        <time>2020-09-13T09:48:19Z</time>
      </trkpt>
      <trkpt lat="42.7882760" lon="-0.1644690">
        <ele>2305.0</ele>
        <time>2020-09-13T09:48:21Z</time>
      </trkpt>
      <trkpt lat="42.7882460" lon="-0.1645090">
        <ele>2306.0</ele>
        <time>2020-09-13T09:48:26Z</time>
      </trkpt>
      <trkpt lat="42.7881960" lon="-0.1645680">
        <ele>2306.6</ele>
        <time>2020-09-13T09:48:33Z</time>
      </trkpt>
      <trkpt lat="42.7881620" lon="-0.1646380">
        <ele>2307.2</ele>
        <time>2020-09-13T09:48:39Z</time>
      </trkpt>
      <trkpt lat="42.7881550" lon="-0.1646700">
        <ele>2307.6</ele>
        <time>2020-09-13T09:48:42Z</time>
      </trkpt>
      <trkpt lat="42.7881230" lon="-0.1647100">
        <ele>2307.8</ele>
        <time>2020-09-13T09:48:47Z</time>
      </trkpt>
      <trkpt lat="42.7881290" lon="-0.1647280">
        <ele>2308.2</ele>
        <time>2020-09-13T09:48:49Z</time>
      </trkpt>
      <trkpt lat="42.7881320" lon="-0.1647400">
        <ele>2308.6</ele>
        <time>2020-09-13T09:48:50Z</time>
      </trkpt>
      <trkpt lat="42.7881270" lon="-0.1647450">
        <ele>2308.8</ele>
        <time>2020-09-13T09:48:52Z</time>
      </trkpt>
      <trkpt lat="42.7879340" lon="-0.1647400">
        <ele>2308.4</ele>
        <time>2020-09-13T09:49:06Z</time>
      </trkpt>
      <trkpt lat="42.7878270" lon="-0.1647160">
        <ele>2307.0</ele>
        <time>2020-09-13T09:49:13Z</time>
      </trkpt>
      <trkpt lat="42.7878100" lon="-0.1647200">
        <ele>2306.4</ele>
        <time>2020-09-13T09:49:15Z</time>
      </trkpt>
      <trkpt lat="42.7878040" lon="-0.1647240">
        <ele>2305.8</ele>
        <time>2020-09-13T09:49:16Z</time>
      </trkpt>
      <trkpt lat="42.7877790" lon="-0.1647320">
        <ele>2304.6</ele>
        <time>2020-09-13T09:49:18Z</time>
      </trkpt>
      <trkpt lat="42.7877420" lon="-0.1647960">
        <ele>2303.4</ele>
        <time>2020-09-13T09:49:23Z</time>
      </trkpt>
      <trkpt lat="42.7877140" lon="-0.1648260">
        <ele>2302.4</ele>
        <time>2020-09-13T09:49:27Z</time>
      </trkpt>
      <trkpt lat="42.7876940" lon="-0.1648530">
        <ele>2302.4</ele>
        <time>2020-09-13T09:49:30Z</time>
      </trkpt>
      <trkpt lat="42.7876540" lon="-0.1649400">
        <ele>2302.8</ele>
        <time>2020-09-13T09:49:38Z</time>
      </trkpt>
      <trkpt lat="42.7876110" lon="-0.1650200">
        <ele>2302.4</ele>
        <time>2020-09-13T09:49:45Z</time>
      </trkpt>
      <trkpt lat="42.7876040" lon="-0.1650670">
        <ele>2302.4</ele>
        <time>2020-09-13T09:49:48Z</time>
      </trkpt>
      <trkpt lat="42.7875670" lon="-0.1651440">
        <ele>2302.4</ele>
        <time>2020-09-13T09:49:53Z</time>
      </trkpt>
      <trkpt lat="42.7875000" lon="-0.1652330">
        <ele>2303.6</ele>
        <time>2020-09-13T09:50:01Z</time>
      </trkpt>
      <trkpt lat="42.7874700" lon="-0.1652610">
        <ele>2304.4</ele>
        <time>2020-09-13T09:50:05Z</time>
      </trkpt>
      <trkpt lat="42.7874620" lon="-0.1652600">
        <ele>2304.6</ele>
        <time>2020-09-13T09:50:06Z</time>
      </trkpt>
      <trkpt lat="42.7874480" lon="-0.1652540">
        <ele>2304.2</ele>
        <time>2020-09-13T09:50:09Z</time>
      </trkpt>
      <trkpt lat="42.7874510" lon="-0.1652540">
        <ele>2303.6</ele>
        <time>2020-09-13T09:50:13Z</time>
      </trkpt>
      <trkpt lat="42.7873880" lon="-0.1652930">
        <ele>2302.6</ele>
        <time>2020-09-13T09:51:19Z</time>
      </trkpt>
      <trkpt lat="42.7873800" lon="-0.1652840">
        <ele>2302.4</ele>
        <time>2020-09-13T09:51:20Z</time>
      </trkpt>
      <trkpt lat="42.7873320" lon="-0.1652990">
        <ele>2302.8</ele>
        <time>2020-09-13T09:51:44Z</time>
      </trkpt>
      <trkpt lat="42.7872260" lon="-0.1653480">
        <ele>2302.4</ele>
        <time>2020-09-13T09:51:51Z</time>
      </trkpt>
      <trkpt lat="42.7871940" lon="-0.1653540">
        <ele>2302.0</ele>
        <time>2020-09-13T09:51:54Z</time>
      </trkpt>
      <trkpt lat="42.7871530" lon="-0.1653880">
        <ele>2301.4</ele>
        <time>2020-09-13T09:51:58Z</time>
      </trkpt>
      <trkpt lat="42.7871420" lon="-0.1653950">
        <ele>2301.2</ele>
        <time>2020-09-13T09:51:59Z</time>
      </trkpt>
      <trkpt lat="42.7871330" lon="-0.1654230">
        <ele>2300.8</ele>
        <time>2020-09-13T09:52:01Z</time>
      </trkpt>
      <trkpt lat="42.7871230" lon="-0.1654400">
        <ele>2300.4</ele>
        <time>2020-09-13T09:52:02Z</time>
      </trkpt>
      <trkpt lat="42.7870920" lon="-0.1655070">
        <ele>2299.4</ele>
        <time>2020-09-13T09:52:06Z</time>
      </trkpt>
      <trkpt lat="42.7869920" lon="-0.1655700">
        <ele>2298.2</ele>
        <time>2020-09-13T09:52:15Z</time>
      </trkpt>
      <trkpt lat="42.7869420" lon="-0.1656180">
        <ele>2297.2</ele>
        <time>2020-09-13T09:52:19Z</time>
      </trkpt>
      <trkpt lat="42.7868560" lon="-0.1657020">
        <ele>2296.0</ele>
        <time>2020-09-13T09:52:26Z</time>
      </trkpt>
      <trkpt lat="42.7868080" lon="-0.1657050">
        <ele>2295.0</ele>
        <time>2020-09-13T09:52:30Z</time>
      </trkpt>
      <trkpt lat="42.7867790" lon="-0.1657160">
        <ele>2294.0</ele>
        <time>2020-09-13T09:52:32Z</time>
      </trkpt>
      <trkpt lat="42.7867650" lon="-0.1657290">
        <ele>2293.8</ele>
        <time>2020-09-13T09:52:33Z</time>
      </trkpt>
      <trkpt lat="42.7867190" lon="-0.1657630">
        <ele>2293.0</ele>
        <time>2020-09-13T09:52:37Z</time>
      </trkpt>
      <trkpt lat="42.7867060" lon="-0.1657760">
        <ele>2292.8</ele>
        <time>2020-09-13T09:52:38Z</time>
      </trkpt>
      <trkpt lat="42.7866460" lon="-0.1658010">
        <ele>2291.8</ele>
        <time>2020-09-13T09:52:42Z</time>
      </trkpt>
      <trkpt lat="42.7865870" lon="-0.1658140">
        <ele>2290.6</ele>
        <time>2020-09-13T09:52:46Z</time>
      </trkpt>
      <trkpt lat="42.7865490" lon="-0.1658340">
        <ele>2289.2</ele>
        <time>2020-09-13T09:52:49Z</time>
      </trkpt>
      <trkpt lat="42.7864950" lon="-0.1658860">
        <ele>2287.8</ele>
        <time>2020-09-13T09:52:54Z</time>
      </trkpt>
      <trkpt lat="42.7864480" lon="-0.1659400">
        <ele>2286.8</ele>
        <time>2020-09-13T09:52:59Z</time>
      </trkpt>
      <trkpt lat="42.7864130" lon="-0.1659770">
        <ele>2285.8</ele>
        <time>2020-09-13T09:53:02Z</time>
      </trkpt>
      <trkpt lat="42.7863460" lon="-0.1660240">
        <ele>2284.4</ele>
        <time>2020-09-13T09:53:07Z</time>
      </trkpt>
      <trkpt lat="42.7863040" lon="-0.1660590">
        <ele>2283.4</ele>
        <time>2020-09-13T09:53:10Z</time>
      </trkpt>
      <trkpt lat="42.7862080" lon="-0.1661710">
        <ele>2282.0</ele>
        <time>2020-09-13T09:53:19Z</time>
      </trkpt>
      <trkpt lat="42.7861740" lon="-0.1662090">
        <ele>2280.6</ele>
        <time>2020-09-13T09:53:22Z</time>
      </trkpt>
      <trkpt lat="42.7861680" lon="-0.1662260">
        <ele>2280.2</ele>
        <time>2020-09-13T09:53:23Z</time>
      </trkpt>
      <trkpt lat="42.7861540" lon="-0.1662650">
        <ele>2279.4</ele>
        <time>2020-09-13T09:53:26Z</time>
      </trkpt>
      <trkpt lat="42.7860880" lon="-0.1663910">
        <ele>2278.0</ele>
        <time>2020-09-13T09:53:33Z</time>
      </trkpt>
      <trkpt lat="42.7859990" lon="-0.1665350">
        <ele>2277.0</ele>
        <time>2020-09-13T09:53:43Z</time>
      </trkpt>
      <trkpt lat="42.7859630" lon="-0.1665600">
        <ele>2277.0</ele>
        <time>2020-09-13T09:53:46Z</time>
      </trkpt>
      <trkpt lat="42.7859260" lon="-0.1665910">
        <ele>2275.6</ele>
        <time>2020-09-13T09:53:49Z</time>
      </trkpt>
      <trkpt lat="42.7859000" lon="-0.1666380">
        <ele>2274.6</ele>
        <time>2020-09-13T09:53:52Z</time>
      </trkpt>
      <trkpt lat="42.7858450" lon="-0.1667420">
        <ele>2273.6</ele>
        <time>2020-09-13T09:53:58Z</time>
      </trkpt>
      <trkpt lat="42.7857970" lon="-0.1667930">
        <ele>2272.4</ele>
        <time>2020-09-13T09:54:02Z</time>
      </trkpt>
      <trkpt lat="42.7856520" lon="-0.1668480">
        <ele>2271.2</ele>
        <time>2020-09-13T09:54:12Z</time>
      </trkpt>
      <trkpt lat="42.7855440" lon="-0.1668870">
        <ele>2270.0</ele>
        <time>2020-09-13T09:54:19Z</time>
      </trkpt>
      <trkpt lat="42.7854970" lon="-0.1669130">
        <ele>2269.0</ele>
        <time>2020-09-13T09:54:22Z</time>
      </trkpt>
      <trkpt lat="42.7853260" lon="-0.1670030">
        <ele>2269.4</ele>
        <time>2020-09-13T09:54:36Z</time>
      </trkpt>
      <trkpt lat="42.7852590" lon="-0.1670520">
        <ele>2270.2</ele>
        <time>2020-09-13T09:54:44Z</time>
      </trkpt>
      <trkpt lat="42.7852180" lon="-0.1670830">
        <ele>2270.6</ele>
        <time>2020-09-13T09:54:48Z</time>
      </trkpt>
      <trkpt lat="42.7851880" lon="-0.1671060">
        <ele>2271.2</ele>
        <time>2020-09-13T09:54:51Z</time>
      </trkpt>
      <trkpt lat="42.7851160" lon="-0.1672080">
        <ele>2272.2</ele>
        <time>2020-09-13T09:55:02Z</time>
      </trkpt>
      <trkpt lat="42.7851000" lon="-0.1672260">
        <ele>2272.8</ele>
        <time>2020-09-13T09:55:06Z</time>
      </trkpt>
      <trkpt lat="42.7850680" lon="-0.1672620">
        <ele>2273.0</ele>
        <time>2020-09-13T09:55:11Z</time>
      </trkpt>
      <trkpt lat="42.7850230" lon="-0.1673600">
        <ele>2273.2</ele>
        <time>2020-09-13T09:55:18Z</time>
      </trkpt>
      <trkpt lat="42.7849880" lon="-0.1674620">
        <ele>2272.4</ele>
        <time>2020-09-13T09:55:25Z</time>
      </trkpt>
      <trkpt lat="42.7849550" lon="-0.1675670">
        <ele>2271.0</ele>
        <time>2020-09-13T09:55:32Z</time>
      </trkpt>
      <trkpt lat="42.7849190" lon="-0.1676090">
        <ele>2269.8</ele>
        <time>2020-09-13T09:55:36Z</time>
      </trkpt>
      <trkpt lat="42.7848590" lon="-0.1676760">
        <ele>2268.6</ele>
        <time>2020-09-13T09:55:42Z</time>
      </trkpt>
      <trkpt lat="42.7848200" lon="-0.1677360">
        <ele>2267.6</ele>
        <time>2020-09-13T09:55:46Z</time>
      </trkpt>
      <trkpt lat="42.7846940" lon="-0.1679200">
        <ele>2266.6</ele>
        <time>2020-09-13T09:55:59Z</time>
      </trkpt>
      <trkpt lat="42.7846840" lon="-0.1679290">
        <ele>2266.2</ele>
        <time>2020-09-13T09:56:00Z</time>
      </trkpt>
      <trkpt lat="42.7846490" lon="-0.1679590">
        <ele>2265.2</ele>
        <time>2020-09-13T09:56:03Z</time>
      </trkpt>
      <trkpt lat="42.7846120" lon="-0.1679970">
        <ele>2264.0</ele>
        <time>2020-09-13T09:56:07Z</time>
      </trkpt>
      <trkpt lat="42.7844770" lon="-0.1680340">
        <ele>2265.2</ele>
        <time>2020-09-13T09:56:21Z</time>
      </trkpt>
      <trkpt lat="42.7844640" lon="-0.1680330">
        <ele>2265.4</ele>
        <time>2020-09-13T09:56:22Z</time>
      </trkpt>
      <trkpt lat="42.7844280" lon="-0.1680320">
        <ele>2266.2</ele>
        <time>2020-09-13T09:56:25Z</time>
      </trkpt>
      <trkpt lat="42.7842530" lon="-0.1681120">
        <ele>2267.2</ele>
        <time>2020-09-13T09:56:42Z</time>
      </trkpt>
      <trkpt lat="42.7840740" lon="-0.1681440">
        <ele>2266.4</ele>
        <time>2020-09-13T09:56:56Z</time>
      </trkpt>
      <trkpt lat="42.7838890" lon="-0.1681800">
        <ele>2266.4</ele>
        <time>2020-09-13T09:57:11Z</time>
      </trkpt>
      <trkpt lat="42.7837070" lon="-0.1682090">
        <ele>2266.0</ele>
        <time>2020-09-13T09:57:27Z</time>
      </trkpt>
      <trkpt lat="42.7835650" lon="-0.1681990">
        <ele>2266.0</ele>
        <time>2020-09-13T09:57:37Z</time>
      </trkpt>
      <trkpt lat="42.7835630" lon="-0.1682090">
        <ele>2266.2</ele>
        <time>2020-09-13T09:57:39Z</time>
      </trkpt>
      <trkpt lat="42.7835530" lon="-0.1682170">
        <ele>2266.6</ele>
        <time>2020-09-13T09:57:41Z</time>
      </trkpt>
      <trkpt lat="42.7835350" lon="-0.1682170">
        <ele>2266.8</ele>
        <time>2020-09-13T09:57:43Z</time>
      </trkpt>
      <trkpt lat="42.7833510" lon="-0.1681950">
        <ele>2265.6</ele>
        <time>2020-09-13T09:57:56Z</time>
      </trkpt>
      <trkpt lat="42.7832990" lon="-0.1681920">
        <ele>2265.2</ele>
        <time>2020-09-13T09:58:00Z</time>
      </trkpt>
      <trkpt lat="42.7832040" lon="-0.1681810">
        <ele>2264.0</ele>
        <time>2020-09-13T09:58:07Z</time>
      </trkpt>
      <trkpt lat="42.7831540" lon="-0.1681820">
        <ele>2262.8</ele>
        <time>2020-09-13T09:58:10Z</time>
      </trkpt>
      <trkpt lat="42.7831160" lon="-0.1682100">
        <ele>2261.6</ele>
        <time>2020-09-13T09:58:14Z</time>
      </trkpt>
      <trkpt lat="42.7830700" lon="-0.1682370">
        <ele>2260.4</ele>
        <time>2020-09-13T09:58:17Z</time>
      </trkpt>
      <trkpt lat="42.7830380" lon="-0.1682540">
        <ele>2259.4</ele>
        <time>2020-09-13T09:58:20Z</time>
      </trkpt>
      <trkpt lat="42.7828560" lon="-0.1682590">
        <ele>2258.6</ele>
        <time>2020-09-13T09:58:35Z</time>
      </trkpt>
      <trkpt lat="42.7826720" lon="-0.1682350">
        <ele>2258.2</ele>
        <time>2020-09-13T09:58:48Z</time>
      </trkpt>
      <trkpt lat="42.7826120" lon="-0.1682280">
        <ele>2257.0</ele>
        <time>2020-09-13T09:58:52Z</time>
      </trkpt>
      <trkpt lat="42.7825060" lon="-0.1682100">
        <ele>2255.8</ele>
        <time>2020-09-13T09:58:59Z</time>
      </trkpt>
      <trkpt lat="42.7824080" lon="-0.1681930">
        <ele>2254.8</ele>
        <time>2020-09-13T09:59:05Z</time>
      </trkpt>
      <trkpt lat="42.7822740" lon="-0.1681960">
        <ele>2253.6</ele>
        <time>2020-09-13T09:59:15Z</time>
      </trkpt>
      <trkpt lat="42.7820890" lon="-0.1682330">
        <ele>2254.6</ele>
        <time>2020-09-13T09:59:28Z</time>
      </trkpt>
      <trkpt lat="42.7819040" lon="-0.1682390">
        <ele>2252.6</ele>
        <time>2020-09-13T09:59:41Z</time>
      </trkpt>
      <trkpt lat="42.7818720" lon="-0.1682430">
        <ele>2251.0</ele>
        <time>2020-09-13T09:59:43Z</time>
      </trkpt>
      <trkpt lat="42.7818410" lon="-0.1682420">
        <ele>2249.6</ele>
        <time>2020-09-13T09:59:45Z</time>
      </trkpt>
      <trkpt lat="42.7817960" lon="-0.1682360">
        <ele>2248.4</ele>
        <time>2020-09-13T09:59:48Z</time>
      </trkpt>
      <trkpt lat="42.7816020" lon="-0.1682420">
        <ele>2247.2</ele>
        <time>2020-09-13T10:00:02Z</time>
      </trkpt>
      <trkpt lat="42.7814820" lon="-0.1682720">
        <ele>2245.8</ele>
        <time>2020-09-13T10:00:11Z</time>
      </trkpt>
      <trkpt lat="42.7813050" lon="-0.1682870">
        <ele>2244.8</ele>
        <time>2020-09-13T10:00:23Z</time>
      </trkpt>
      <trkpt lat="42.7812020" lon="-0.1683060">
        <ele>2243.8</ele>
        <time>2020-09-13T10:00:30Z</time>
      </trkpt>
      <trkpt lat="42.7810490" lon="-0.1682730">
        <ele>2242.6</ele>
        <time>2020-09-13T10:00:40Z</time>
      </trkpt>
      <trkpt lat="42.7809520" lon="-0.1682900">
        <ele>2241.0</ele>
        <time>2020-09-13T10:00:47Z</time>
      </trkpt>
      <trkpt lat="42.7809400" lon="-0.1682990">
        <ele>2240.6</ele>
        <time>2020-09-13T10:00:48Z</time>
      </trkpt>
      <trkpt lat="42.7809300" lon="-0.1683310">
        <ele>2239.8</ele>
        <time>2020-09-13T10:00:50Z</time>
      </trkpt>
      <trkpt lat="42.7809230" lon="-0.1683540">
        <ele>2238.6</ele>
        <time>2020-09-13T10:00:52Z</time>
      </trkpt>
      <trkpt lat="42.7809180" lon="-0.1683630">
        <ele>2238.2</ele>
        <time>2020-09-13T10:00:54Z</time>
      </trkpt>
      <trkpt lat="42.7809030" lon="-0.1683570">
        <ele>2237.6</ele>
        <time>2020-09-13T10:00:56Z</time>
      </trkpt>
      <trkpt lat="42.7808890" lon="-0.1683440">
        <ele>2237.2</ele>
        <time>2020-09-13T10:00:58Z</time>
      </trkpt>
      <trkpt lat="42.7808830" lon="-0.1683500">
        <ele>2236.4</ele>
        <time>2020-09-13T10:01:00Z</time>
      </trkpt>
      <trkpt lat="42.7808600" lon="-0.1683460">
        <ele>2235.2</ele>
        <time>2020-09-13T10:01:04Z</time>
      </trkpt>
      <trkpt lat="42.7808410" lon="-0.1683420">
        <ele>2234.2</ele>
        <time>2020-09-13T10:01:06Z</time>
      </trkpt>
      <trkpt lat="42.7808150" lon="-0.1683280">
        <ele>2233.2</ele>
        <time>2020-09-13T10:01:08Z</time>
      </trkpt>
      <trkpt lat="42.7807810" lon="-0.1683070">
        <ele>2232.0</ele>
        <time>2020-09-13T10:01:11Z</time>
      </trkpt>
      <trkpt lat="42.7807440" lon="-0.1682910">
        <ele>2231.0</ele>
        <time>2020-09-13T10:01:14Z</time>
      </trkpt>
      <trkpt lat="42.7806960" lon="-0.1682710">
        <ele>2229.6</ele>
        <time>2020-09-13T10:01:18Z</time>
      </trkpt>
      <trkpt lat="42.7806750" lon="-0.1682610">
        <ele>2228.4</ele>
        <time>2020-09-13T10:01:20Z</time>
      </trkpt>
      <trkpt lat="42.7806510" lon="-0.1682500">
        <ele>2227.4</ele>
        <time>2020-09-13T10:01:22Z</time>
      </trkpt>
      <trkpt lat="42.7806200" lon="-0.1682470">
        <ele>2226.2</ele>
        <time>2020-09-13T10:01:25Z</time>
      </trkpt>
      <trkpt lat="42.7805730" lon="-0.1682290">
        <ele>2224.6</ele>
        <time>2020-09-13T10:01:28Z</time>
      </trkpt>
      <trkpt lat="42.7805450" lon="-0.1682080">
        <ele>2223.4</ele>
        <time>2020-09-13T10:01:30Z</time>
      </trkpt>
      <trkpt lat="42.7805130" lon="-0.1681840">
        <ele>2222.4</ele>
        <time>2020-09-13T10:01:32Z</time>
      </trkpt>
      <trkpt lat="42.7804740" lon="-0.1681900">
        <ele>2221.4</ele>
        <time>2020-09-13T10:01:35Z</time>
      </trkpt>
      <trkpt lat="42.7804650" lon="-0.1682280">
        <ele>2220.8</ele>
        <time>2020-09-13T10:01:38Z</time>
      </trkpt>
      <trkpt lat="42.7804440" lon="-0.1682360">
        <ele>2220.0</ele>
        <time>2020-09-13T10:01:41Z</time>
      </trkpt>
      <trkpt lat="42.7804330" lon="-0.1682340">
        <ele>2219.6</ele>
        <time>2020-09-13T10:01:42Z</time>
      </trkpt>
      <trkpt lat="42.7803880" lon="-0.1682050">
        <ele>2218.8</ele>
        <time>2020-09-13T10:01:45Z</time>
      </trkpt>
      <trkpt lat="42.7802860" lon="-0.1680210">
        <ele>2218.8</ele>
        <time>2020-09-13T10:01:58Z</time>
      </trkpt>
      <trkpt lat="42.7802200" lon="-0.1678180">
        <ele>2219.6</ele>
        <time>2020-09-13T10:02:12Z</time>
      </trkpt>
      <trkpt lat="42.7801980" lon="-0.1678100">
        <ele>2219.8</ele>
        <time>2020-09-13T10:02:14Z</time>
      </trkpt>
      <trkpt lat="42.7801760" lon="-0.1677810">
        <ele>2220.8</ele>
        <time>2020-09-13T10:02:18Z</time>
      </trkpt>
      <trkpt lat="42.7800450" lon="-0.1676220">
        <ele>2220.0</ele>
        <time>2020-09-13T10:02:33Z</time>
      </trkpt>
      <trkpt lat="42.7800300" lon="-0.1676170">
        <ele>2219.6</ele>
        <time>2020-09-13T10:02:34Z</time>
      </trkpt>
      <trkpt lat="42.7799730" lon="-0.1675920">
        <ele>2218.6</ele>
        <time>2020-09-13T10:02:38Z</time>
      </trkpt>
      <trkpt lat="42.7798630" lon="-0.1676230">
        <ele>2217.4</ele>
        <time>2020-09-13T10:02:46Z</time>
      </trkpt>
      <trkpt lat="42.7796760" lon="-0.1676460">
        <ele>2216.6</ele>
        <time>2020-09-13T10:03:00Z</time>
      </trkpt>
      <trkpt lat="42.7796660" lon="-0.1676510">
        <ele>2216.2</ele>
        <time>2020-09-13T10:03:01Z</time>
      </trkpt>
      <trkpt lat="42.7795260" lon="-0.1676660">
        <ele>2215.2</ele>
        <time>2020-09-13T10:03:11Z</time>
      </trkpt>
      <trkpt lat="42.7793440" lon="-0.1676430">
        <ele>2214.2</ele>
        <time>2020-09-13T10:03:23Z</time>
      </trkpt>
      <trkpt lat="42.7792410" lon="-0.1676610">
        <ele>2213.0</ele>
        <time>2020-09-13T10:03:30Z</time>
      </trkpt>
      <trkpt lat="42.7791990" lon="-0.1676700">
        <ele>2212.0</ele>
        <time>2020-09-13T10:03:33Z</time>
      </trkpt>
      <trkpt lat="42.7791500" lon="-0.1676800">
        <ele>2210.8</ele>
        <time>2020-09-13T10:03:36Z</time>
      </trkpt>
      <trkpt lat="42.7791030" lon="-0.1676990">
        <ele>2209.6</ele>
        <time>2020-09-13T10:03:39Z</time>
      </trkpt>
      <trkpt lat="42.7790420" lon="-0.1676930">
        <ele>2208.6</ele>
        <time>2020-09-13T10:03:43Z</time>
      </trkpt>
      <trkpt lat="42.7789890" lon="-0.1677070">
        <ele>2207.6</ele>
        <time>2020-09-13T10:03:48Z</time>
      </trkpt>
      <trkpt lat="42.7789430" lon="-0.1677170">
        <ele>2207.4</ele>
        <time>2020-09-13T10:03:51Z</time>
      </trkpt>
      <trkpt lat="42.7788620" lon="-0.1677200">
        <ele>2206.8</ele>
        <time>2020-09-13T10:03:58Z</time>
      </trkpt>
      <trkpt lat="42.7788440" lon="-0.1677310">
        <ele>2206.4</ele>
        <time>2020-09-13T10:04:00Z</time>
      </trkpt>
      <trkpt lat="42.7788340" lon="-0.1677360">
        <ele>2206.4</ele>
        <time>2020-09-13T10:04:01Z</time>
      </trkpt>
      <trkpt lat="42.7786480" lon="-0.1677820">
        <ele>2205.4</ele>
        <time>2020-09-13T10:04:14Z</time>
      </trkpt>
      <trkpt lat="42.7785670" lon="-0.1678080">
        <ele>2204.2</ele>
        <time>2020-09-13T10:04:21Z</time>
      </trkpt>
      <trkpt lat="42.7785300" lon="-0.1678150">
        <ele>2202.8</ele>
        <time>2020-09-13T10:04:24Z</time>
      </trkpt>
      <trkpt lat="42.7783650" lon="-0.1678790">
        <ele>2201.8</ele>
        <time>2020-09-13T10:04:38Z</time>
      </trkpt>
      <trkpt lat="42.7781790" lon="-0.1679480">
        <ele>2200.8</ele>
        <time>2020-09-13T10:04:51Z</time>
      </trkpt>
      <trkpt lat="42.7781520" lon="-0.1679630">
        <ele>2200.6</ele>
        <time>2020-09-13T10:04:53Z</time>
      </trkpt>
      <trkpt lat="42.7780980" lon="-0.1679960">
        <ele>2199.6</ele>
        <time>2020-09-13T10:04:58Z</time>
      </trkpt>
      <trkpt lat="42.7780190" lon="-0.1680160">
        <ele>2198.6</ele>
        <time>2020-09-13T10:05:04Z</time>
      </trkpt>
      <trkpt lat="42.7779510" lon="-0.1680130">
        <ele>2199.0</ele>
        <time>2020-09-13T10:05:09Z</time>
      </trkpt>
      <trkpt lat="42.7779070" lon="-0.1680030">
        <ele>2199.4</ele>
        <time>2020-09-13T10:05:12Z</time>
      </trkpt>
      <trkpt lat="42.7778150" lon="-0.1680130">
        <ele>2197.4</ele>
        <time>2020-09-13T10:05:18Z</time>
      </trkpt>
      <trkpt lat="42.7778090" lon="-0.1680220">
        <ele>2197.0</ele>
        <time>2020-09-13T10:05:19Z</time>
      </trkpt>
      <trkpt lat="42.7777810" lon="-0.1680430">
        <ele>2196.4</ele>
        <time>2020-09-13T10:05:21Z</time>
      </trkpt>
      <trkpt lat="42.7777660" lon="-0.1680600">
        <ele>2195.8</ele>
        <time>2020-09-13T10:05:23Z</time>
      </trkpt>
      <trkpt lat="42.7777500" lon="-0.1680840">
        <ele>2195.4</ele>
        <time>2020-09-13T10:05:26Z</time>
      </trkpt>
      <trkpt lat="42.7777430" lon="-0.1680860">
        <ele>2195.4</ele>
        <time>2020-09-13T10:05:27Z</time>
      </trkpt>
      <trkpt lat="42.7775750" lon="-0.1681430">
        <ele>2196.6</ele>
        <time>2020-09-13T10:05:40Z</time>
      </trkpt>
      <trkpt lat="42.7774340" lon="-0.1681630">
        <ele>2195.6</ele>
        <time>2020-09-13T10:05:50Z</time>
      </trkpt>
      <trkpt lat="42.7773610" lon="-0.1682150">
        <ele>2194.6</ele>
        <time>2020-09-13T10:05:57Z</time>
      </trkpt>
      <trkpt lat="42.7772680" lon="-0.1682510">
        <ele>2193.2</ele>
        <time>2020-09-13T10:06:04Z</time>
      </trkpt>
      <trkpt lat="42.7770980" lon="-0.1683580">
        <ele>2192.4</ele>
        <time>2020-09-13T10:06:17Z</time>
      </trkpt>
      <trkpt lat="42.7770830" lon="-0.1683650">
        <ele>2192.2</ele>
        <time>2020-09-13T10:06:18Z</time>
      </trkpt>
      <trkpt lat="42.7769190" lon="-0.1684880">
        <ele>2192.6</ele>
        <time>2020-09-13T10:06:32Z</time>
      </trkpt>
      <trkpt lat="42.7768670" lon="-0.1684980">
        <ele>2193.2</ele>
        <time>2020-09-13T10:06:36Z</time>
      </trkpt>
      <trkpt lat="42.7767140" lon="-0.1685220">
        <ele>2192.8</ele>
        <time>2020-09-13T10:06:46Z</time>
      </trkpt>
      <trkpt lat="42.7766290" lon="-0.1685930">
        <ele>2191.4</ele>
        <time>2020-09-13T10:07:19Z</time>
      </trkpt>
      <trkpt lat="42.7766160" lon="-0.1686100">
        <ele>2191.2</ele>
        <time>2020-09-13T10:07:20Z</time>
      </trkpt>
      <trkpt lat="42.7766010" lon="-0.1686410">
        <ele>2191.0</ele>
        <time>2020-09-13T10:07:22Z</time>
      </trkpt>
      <trkpt lat="42.7765500" lon="-0.1686530">
        <ele>2190.6</ele>
        <time>2020-09-13T10:07:27Z</time>
      </trkpt>
      <trkpt lat="42.7765480" lon="-0.1686730">
        <ele>2190.0</ele>
        <time>2020-09-13T10:07:29Z</time>
      </trkpt>
      <trkpt lat="42.7765220" lon="-0.1686900">
        <ele>2189.4</ele>
        <time>2020-09-13T10:07:32Z</time>
      </trkpt>
      <trkpt lat="42.7763420" lon="-0.1687000">
        <ele>2189.2</ele>
        <time>2020-09-13T10:07:45Z</time>
      </trkpt>
      <trkpt lat="42.7763290" lon="-0.1687060">
        <ele>2189.0</ele>
        <time>2020-09-13T10:07:46Z</time>
      </trkpt>
      <trkpt lat="42.7761400" lon="-0.1687370">
        <ele>2187.8</ele>
        <time>2020-09-13T10:07:58Z</time>
      </trkpt>
      <trkpt lat="42.7759950" lon="-0.1687670">
        <ele>2186.8</ele>
        <time>2020-09-13T10:08:11Z</time>
      </trkpt>
      <trkpt lat="42.7758470" lon="-0.1687390">
        <ele>2185.6</ele>
        <time>2020-09-13T10:08:21Z</time>
      </trkpt>
      <trkpt lat="42.7756910" lon="-0.1687110">
        <ele>2184.6</ele>
        <time>2020-09-13T10:08:32Z</time>
      </trkpt>
      <trkpt lat="42.7755680" lon="-0.1686950">
        <ele>2183.2</ele>
        <time>2020-09-13T10:08:42Z</time>
      </trkpt>
      <trkpt lat="42.7754600" lon="-0.1686910">
        <ele>2182.0</ele>
        <time>2020-09-13T10:08:51Z</time>
      </trkpt>
      <trkpt lat="42.7754210" lon="-0.1687220">
        <ele>2180.8</ele>
        <time>2020-09-13T10:08:54Z</time>
      </trkpt>
      <trkpt lat="42.7752560" lon="-0.1687580">
        <ele>2179.6</ele>
        <time>2020-09-13T10:09:07Z</time>
      </trkpt>
      <trkpt lat="42.7750650" lon="-0.1687750">
        <ele>2179.0</ele>
        <time>2020-09-13T10:09:19Z</time>
      </trkpt>
      <trkpt lat="42.7749460" lon="-0.1687940">
        <ele>2178.4</ele>
        <time>2020-09-13T10:09:28Z</time>
      </trkpt>
      <trkpt lat="42.7748750" lon="-0.1688030">
        <ele>2177.2</ele>
        <time>2020-09-13T10:09:33Z</time>
      </trkpt>
      <trkpt lat="42.7748060" lon="-0.1688060">
        <ele>2176.2</ele>
        <time>2020-09-13T10:09:38Z</time>
      </trkpt>
      <trkpt lat="42.7747460" lon="-0.1688280">
        <ele>2175.2</ele>
        <time>2020-09-13T10:09:43Z</time>
      </trkpt>
      <trkpt lat="42.7747080" lon="-0.1688160">
        <ele>2174.2</ele>
        <time>2020-09-13T10:09:47Z</time>
      </trkpt>
      <trkpt lat="42.7746920" lon="-0.1688100">
        <ele>2173.8</ele>
        <time>2020-09-13T10:09:49Z</time>
      </trkpt>
      <trkpt lat="42.7746390" lon="-0.1687730">
        <ele>2172.6</ele>
        <time>2020-09-13T10:09:53Z</time>
      </trkpt>
      <trkpt lat="42.7745930" lon="-0.1687140">
        <ele>2171.4</ele>
        <time>2020-09-13T10:09:57Z</time>
      </trkpt>
      <trkpt lat="42.7745370" lon="-0.1686250">
        <ele>2170.4</ele>
        <time>2020-09-13T10:10:04Z</time>
      </trkpt>
      <trkpt lat="42.7745310" lon="-0.1686110">
        <ele>2170.2</ele>
        <time>2020-09-13T10:10:05Z</time>
      </trkpt>
      <trkpt lat="42.7744780" lon="-0.1685630">
        <ele>2169.0</ele>
        <time>2020-09-13T10:10:10Z</time>
      </trkpt>
      <trkpt lat="42.7744130" lon="-0.1685290">
        <ele>2168.0</ele>
        <time>2020-09-13T10:10:15Z</time>
      </trkpt>
      <trkpt lat="42.7743830" lon="-0.1685000">
        <ele>2167.4</ele>
        <time>2020-09-13T10:10:20Z</time>
      </trkpt>
      <trkpt lat="42.7743060" lon="-0.1685130">
        <ele>2166.8</ele>
        <time>2020-09-13T10:10:33Z</time>
      </trkpt>
      <trkpt lat="42.7742430" lon="-0.1685200">
        <ele>2165.8</ele>
        <time>2020-09-13T10:10:42Z</time>
      </trkpt>
      <trkpt lat="42.7742240" lon="-0.1684820">
        <ele>2165.6</ele>
        <time>2020-09-13T10:10:45Z</time>
      </trkpt>
      <trkpt lat="42.7742160" lon="-0.1684670">
        <ele>2165.0</ele>
        <time>2020-09-13T10:10:46Z</time>
      </trkpt>
      <trkpt lat="42.7742040" lon="-0.1684590">
        <ele>2164.0</ele>
        <time>2020-09-13T10:10:48Z</time>
      </trkpt>
      <trkpt lat="42.7741810" lon="-0.1684630">
        <ele>2162.8</ele>
        <time>2020-09-13T10:10:51Z</time>
      </trkpt>
      <trkpt lat="42.7741440" lon="-0.1684520">
        <ele>2161.8</ele>
        <time>2020-09-13T10:10:54Z</time>
      </trkpt>
      <trkpt lat="42.7740900" lon="-0.1683890">
        <ele>2160.6</ele>
        <time>2020-09-13T10:10:58Z</time>
      </trkpt>
      <trkpt lat="42.7740530" lon="-0.1683280">
        <ele>2159.4</ele>
        <time>2020-09-13T10:11:01Z</time>
      </trkpt>
      <trkpt lat="42.7740130" lon="-0.1682910">
        <ele>2158.0</ele>
        <time>2020-09-13T10:11:04Z</time>
      </trkpt>
      <trkpt lat="42.7739790" lon="-0.1683020">
        <ele>2156.6</ele>
        <time>2020-09-13T10:11:07Z</time>
      </trkpt>
      <trkpt lat="42.7739530" lon="-0.1683010">
        <ele>2155.4</ele>
        <time>2020-09-13T10:11:09Z</time>
      </trkpt>
      <trkpt lat="42.7738910" lon="-0.1682850">
        <ele>2154.2</ele>
        <time>2020-09-13T10:11:13Z</time>
      </trkpt>
      <trkpt lat="42.7737890" lon="-0.1682090">
        <ele>2153.2</ele>
        <time>2020-09-13T10:11:22Z</time>
      </trkpt>
      <trkpt lat="42.7737240" lon="-0.1682180">
        <ele>2152.0</ele>
        <time>2020-09-13T10:11:27Z</time>
      </trkpt>
      <trkpt lat="42.7736050" lon="-0.1682710">
        <ele>2150.8</ele>
        <time>2020-09-13T10:11:37Z</time>
      </trkpt>
      <trkpt lat="42.7735670" lon="-0.1682830">
        <ele>2150.4</ele>
        <time>2020-09-13T10:11:40Z</time>
      </trkpt>
      <trkpt lat="42.7735260" lon="-0.1682660">
        <ele>2149.8</ele>
        <time>2020-09-13T10:11:43Z</time>
      </trkpt>
      <trkpt lat="42.7734240" lon="-0.1682480">
        <ele>2148.6</ele>
        <time>2020-09-13T10:11:53Z</time>
      </trkpt>
      <trkpt lat="42.7733460" lon="-0.1682300">
        <ele>2147.8</ele>
        <time>2020-09-13T10:11:59Z</time>
      </trkpt>
      <trkpt lat="42.7733280" lon="-0.1682380">
        <ele>2147.4</ele>
        <time>2020-09-13T10:12:01Z</time>
      </trkpt>
      <trkpt lat="42.7732910" lon="-0.1682570">
        <ele>2146.6</ele>
        <time>2020-09-13T10:12:05Z</time>
      </trkpt>
      <trkpt lat="42.7732880" lon="-0.1682640">
        <ele>2146.4</ele>
        <time>2020-09-13T10:12:06Z</time>
      </trkpt>
      <trkpt lat="42.7732840" lon="-0.1682810">
        <ele>2145.8</ele>
        <time>2020-09-13T10:12:08Z</time>
      </trkpt>
      <trkpt lat="42.7732690" lon="-0.1682930">
        <ele>2145.0</ele>
        <time>2020-09-13T10:12:10Z</time>
      </trkpt>
      <trkpt lat="42.7732420" lon="-0.1683220">
        <ele>2144.0</ele>
        <time>2020-09-13T10:12:13Z</time>
      </trkpt>
      <trkpt lat="42.7732290" lon="-0.1683310">
        <ele>2143.8</ele>
        <time>2020-09-13T10:12:14Z</time>
      </trkpt>
      <trkpt lat="42.7731690" lon="-0.1683710">
        <ele>2142.8</ele>
        <time>2020-09-13T10:12:19Z</time>
      </trkpt>
      <trkpt lat="42.7731090" lon="-0.1683840">
        <ele>2141.6</ele>
        <time>2020-09-13T10:12:23Z</time>
      </trkpt>
      <trkpt lat="42.7730850" lon="-0.1683650">
        <ele>2141.0</ele>
        <time>2020-09-13T10:12:26Z</time>
      </trkpt>
      <trkpt lat="42.7730400" lon="-0.1683300">
        <ele>2140.2</ele>
        <time>2020-09-13T10:12:29Z</time>
      </trkpt>
      <trkpt lat="42.7730110" lon="-0.1683370">
        <ele>2138.8</ele>
        <time>2020-09-13T10:12:31Z</time>
      </trkpt>
      <trkpt lat="42.7729950" lon="-0.1683250">
        <ele>2138.2</ele>
        <time>2020-09-13T10:12:32Z</time>
      </trkpt>
      <trkpt lat="42.7729630" lon="-0.1682870">
        <ele>2137.8</ele>
        <time>2020-09-13T10:12:34Z</time>
      </trkpt>
      <trkpt lat="42.7728790" lon="-0.1682580">
        <ele>2136.6</ele>
        <time>2020-09-13T10:12:40Z</time>
      </trkpt>
      <trkpt lat="42.7728260" lon="-0.1683340">
        <ele>2135.6</ele>
        <time>2020-09-13T10:12:46Z</time>
      </trkpt>
      <trkpt lat="42.7727800" lon="-0.1683430">
        <ele>2135.4</ele>
        <time>2020-09-13T10:12:53Z</time>
      </trkpt>
      <trkpt lat="42.7725920" lon="-0.1683220">
        <ele>2134.4</ele>
        <time>2020-09-13T10:13:09Z</time>
      </trkpt>
      <trkpt lat="42.7725530" lon="-0.1682760">
        <ele>2132.8</ele>
        <time>2020-09-13T10:13:12Z</time>
      </trkpt>
      <trkpt lat="42.7725240" lon="-0.1682470">
        <ele>2131.8</ele>
        <time>2020-09-13T10:13:14Z</time>
      </trkpt>
      <trkpt lat="42.7724510" lon="-0.1682300">
        <ele>2130.8</ele>
        <time>2020-09-13T10:13:19Z</time>
      </trkpt>
      <trkpt lat="42.7723350" lon="-0.1681810">
        <ele>2129.6</ele>
        <time>2020-09-13T10:13:29Z</time>
      </trkpt>
      <trkpt lat="42.7722990" lon="-0.1681800">
        <ele>2128.4</ele>
        <time>2020-09-13T10:13:33Z</time>
      </trkpt>
      <trkpt lat="42.7722210" lon="-0.1681790">
        <ele>2128.0</ele>
        <time>2020-09-13T10:13:41Z</time>
      </trkpt>
      <trkpt lat="42.7722090" lon="-0.1681720">
        <ele>2127.2</ele>
        <time>2020-09-13T10:13:43Z</time>
      </trkpt>
      <trkpt lat="42.7721800" lon="-0.1681520">
        <ele>2126.0</ele>
        <time>2020-09-13T10:13:47Z</time>
      </trkpt>
      <trkpt lat="42.7721280" lon="-0.1681070">
        <ele>2125.0</ele>
        <time>2020-09-13T10:13:53Z</time>
      </trkpt>
      <trkpt lat="42.7721200" lon="-0.1680970">
        <ele>2124.8</ele>
        <time>2020-09-13T10:13:54Z</time>
      </trkpt>
      <trkpt lat="42.7720960" lon="-0.1680590">
        <ele>2124.2</ele>
        <time>2020-09-13T10:13:57Z</time>
      </trkpt>
      <trkpt lat="42.7720740" lon="-0.1680130">
        <ele>2124.0</ele>
        <time>2020-09-13T10:13:59Z</time>
      </trkpt>
      <trkpt lat="42.7719950" lon="-0.1679920">
        <ele>2123.0</ele>
        <time>2020-09-13T10:14:05Z</time>
      </trkpt>
      <trkpt lat="42.7719170" lon="-0.1679880">
        <ele>2122.2</ele>
        <time>2020-09-13T10:14:13Z</time>
      </trkpt>
      <trkpt lat="42.7719170" lon="-0.1679890">
        <ele>2121.8</ele>
        <time>2020-09-13T10:14:14Z</time>
      </trkpt>
      <trkpt lat="42.7718940" lon="-0.1679560">
        <ele>2120.8</ele>
        <time>2020-09-13T10:14:18Z</time>
      </trkpt>
      <trkpt lat="42.7718730" lon="-0.1679360">
        <ele>2119.6</ele>
        <time>2020-09-13T10:14:22Z</time>
      </trkpt>
      <trkpt lat="42.7718090" lon="-0.1679100">
        <ele>2118.2</ele>
        <time>2020-09-13T10:14:29Z</time>
      </trkpt>
      <trkpt lat="42.7718010" lon="-0.1679070">
        <ele>2117.8</ele>
        <time>2020-09-13T10:14:30Z</time>
      </trkpt>
      <trkpt lat="42.7717860" lon="-0.1678780">
        <ele>2117.0</ele>
        <time>2020-09-13T10:14:33Z</time>
      </trkpt>
      <trkpt lat="42.7717540" lon="-0.1678420">
        <ele>2115.8</ele>
        <time>2020-09-13T10:14:39Z</time>
      </trkpt>
      <trkpt lat="42.7717150" lon="-0.1678630">
        <ele>2114.6</ele>
        <time>2020-09-13T10:14:44Z</time>
      </trkpt>
      <trkpt lat="42.7717040" lon="-0.1678720">
        <ele>2114.4</ele>
        <time>2020-09-13T10:14:46Z</time>
      </trkpt>
      <trkpt lat="42.7716700" lon="-0.1678990">
        <ele>2114.4</ele>
        <time>2020-09-13T10:14:49Z</time>
      </trkpt>
      <trkpt lat="42.7715180" lon="-0.1679070">
        <ele>2113.8</ele>
        <time>2020-09-13T10:15:03Z</time>
      </trkpt>
      <trkpt lat="42.7715070" lon="-0.1679080">
        <ele>2113.6</ele>
        <time>2020-09-13T10:15:04Z</time>
      </trkpt>
      <trkpt lat="42.7714950" lon="-0.1679090">
        <ele>2113.6</ele>
        <time>2020-09-13T10:15:05Z</time>
      </trkpt>
      <trkpt lat="42.7714960" lon="-0.1679280">
        <ele>2113.6</ele>
        <time>2020-09-13T10:15:07Z</time>
      </trkpt>
      <trkpt lat="42.7714810" lon="-0.1679460">
        <ele>2113.4</ele>
        <time>2020-09-13T10:15:10Z</time>
      </trkpt>
      <trkpt lat="42.7714170" lon="-0.1679410">
        <ele>2113.0</ele>
        <time>2020-09-13T10:15:15Z</time>
      </trkpt>
      <trkpt lat="42.7713790" lon="-0.1679400">
        <ele>2112.6</ele>
        <time>2020-09-13T10:15:18Z</time>
      </trkpt>
      <trkpt lat="42.7713670" lon="-0.1679270">
        <ele>2112.0</ele>
        <time>2020-09-13T10:15:20Z</time>
      </trkpt>
      <trkpt lat="42.7713500" lon="-0.1679190">
        <ele>2111.6</ele>
        <time>2020-09-13T10:15:23Z</time>
      </trkpt>
      <trkpt lat="42.7712850" lon="-0.1678810">
        <ele>2110.6</ele>
        <time>2020-09-13T10:15:29Z</time>
      </trkpt>
      <trkpt lat="42.7712750" lon="-0.1678790">
        <ele>2110.4</ele>
        <time>2020-09-13T10:15:30Z</time>
      </trkpt>
      <trkpt lat="42.7712340" lon="-0.1678800">
        <ele>2109.8</ele>
        <time>2020-09-13T10:15:34Z</time>
      </trkpt>
      <trkpt lat="42.7712080" lon="-0.1678590">
        <ele>2109.4</ele>
        <time>2020-09-13T10:15:37Z</time>
      </trkpt>
      <trkpt lat="42.7712070" lon="-0.1678600">
        <ele>2109.4</ele>
        <time>2020-09-13T10:15:39Z</time>
      </trkpt>
      <trkpt lat="42.7712460" lon="-0.1678250">
        <ele>2108.2</ele>
        <time>2020-09-13T10:15:49Z</time>
      </trkpt>
      <trkpt lat="42.7712180" lon="-0.1677640">
        <ele>2107.0</ele>
        <time>2020-09-13T10:15:57Z</time>
      </trkpt>
      <trkpt lat="42.7711870" lon="-0.1677790">
        <ele>2106.2</ele>
        <time>2020-09-13T10:16:00Z</time>
      </trkpt>
      <trkpt lat="42.7711770" lon="-0.1677810">
        <ele>2106.0</ele>
        <time>2020-09-13T10:16:01Z</time>
      </trkpt>
      <trkpt lat="42.7710830" lon="-0.1677410">
        <ele>2104.8</ele>
        <time>2020-09-13T10:16:09Z</time>
      </trkpt>
      <trkpt lat="42.7710360" lon="-0.1677490">
        <ele>2103.8</ele>
        <time>2020-09-13T10:16:13Z</time>
      </trkpt>
      <trkpt lat="42.7710120" lon="-0.1677270">
        <ele>2103.4</ele>
        <time>2020-09-13T10:16:15Z</time>
      </trkpt>
      <trkpt lat="42.7710010" lon="-0.1677090">
        <ele>2102.8</ele>
        <time>2020-09-13T10:16:20Z</time>
      </trkpt>
      <trkpt lat="42.7709430" lon="-0.1677440">
        <ele>2101.8</ele>
        <time>2020-09-13T10:16:25Z</time>
      </trkpt>
      <trkpt lat="42.7709310" lon="-0.1677620">
        <ele>2100.8</ele>
        <time>2020-09-13T10:16:28Z</time>
      </trkpt>
      <trkpt lat="42.7709270" lon="-0.1677700">
        <ele>2100.6</ele>
        <time>2020-09-13T10:16:29Z</time>
      </trkpt>
      <trkpt lat="42.7708880" lon="-0.1678210">
        <ele>2099.4</ele>
        <time>2020-09-13T10:16:34Z</time>
      </trkpt>
      <trkpt lat="42.7708890" lon="-0.1678310">
        <ele>2099.2</ele>
        <time>2020-09-13T10:16:35Z</time>
      </trkpt>
      <trkpt lat="42.7708680" lon="-0.1678700">
        <ele>2098.4</ele>
        <time>2020-09-13T10:16:42Z</time>
      </trkpt>
      <trkpt lat="42.7708400" lon="-0.1679150">
        <ele>2097.8</ele>
        <time>2020-09-13T10:16:45Z</time>
      </trkpt>
      <trkpt lat="42.7708360" lon="-0.1679390">
        <ele>2097.2</ele>
        <time>2020-09-13T10:16:47Z</time>
      </trkpt>
      <trkpt lat="42.7708390" lon="-0.1679450">
        <ele>2097.0</ele>
        <time>2020-09-13T10:16:48Z</time>
      </trkpt>
      <trkpt lat="42.7708220" lon="-0.1679280">
        <ele>2096.4</ele>
        <time>2020-09-13T10:16:52Z</time>
      </trkpt>
      <trkpt lat="42.7708290" lon="-0.1679400">
        <ele>2096.2</ele>
        <time>2020-09-13T10:16:55Z</time>
      </trkpt>
      <trkpt lat="42.7707900" lon="-0.1679830">
        <ele>2095.6</ele>
        <time>2020-09-13T10:17:03Z</time>
      </trkpt>
      <trkpt lat="42.7707690" lon="-0.1679960">
        <ele>2095.0</ele>
        <time>2020-09-13T10:17:06Z</time>
      </trkpt>
      <trkpt lat="42.7707640" lon="-0.1680040">
        <ele>2095.0</ele>
        <time>2020-09-13T10:17:07Z</time>
      </trkpt>
      <trkpt lat="42.7707360" lon="-0.1679990">
        <ele>2093.8</ele>
        <time>2020-09-13T10:17:13Z</time>
      </trkpt>
      <trkpt lat="42.7706940" lon="-0.1680120">
        <ele>2092.6</ele>
        <time>2020-09-13T10:17:19Z</time>
      </trkpt>
      <trkpt lat="42.7706660" lon="-0.1680160">
        <ele>2091.6</ele>
        <time>2020-09-13T10:17:22Z</time>
      </trkpt>
      <trkpt lat="42.7706670" lon="-0.1680120">
        <ele>2090.4</ele>
        <time>2020-09-13T10:17:25Z</time>
      </trkpt>
      <trkpt lat="42.7706420" lon="-0.1680290">
        <ele>2089.6</ele>
        <time>2020-09-13T10:17:33Z</time>
      </trkpt>
      <trkpt lat="42.7706340" lon="-0.1680610">
        <ele>2089.6</ele>
        <time>2020-09-13T10:17:35Z</time>
      </trkpt>
      <trkpt lat="42.7706180" lon="-0.1680770">
        <ele>2089.6</ele>
        <time>2020-09-13T10:17:37Z</time>
      </trkpt>
      <trkpt lat="42.7705900" lon="-0.1680870">
        <ele>2089.2</ele>
        <time>2020-09-13T10:17:40Z</time>
      </trkpt>
      <trkpt lat="42.7705410" lon="-0.1680930">
        <ele>2088.0</ele>
        <time>2020-09-13T10:17:43Z</time>
      </trkpt>
      <trkpt lat="42.7704740" lon="-0.1681580">
        <ele>2086.8</ele>
        <time>2020-09-13T10:17:49Z</time>
      </trkpt>
      <trkpt lat="42.7702940" lon="-0.1681740">
        <ele>2086.2</ele>
        <time>2020-09-13T10:18:02Z</time>
      </trkpt>
      <trkpt lat="42.7701470" lon="-0.1682160">
        <ele>2087.0</ele>
        <time>2020-09-13T10:18:14Z</time>
      </trkpt>
      <trkpt lat="42.7701010" lon="-0.1682850">
        <ele>2086.0</ele>
        <time>2020-09-13T10:18:19Z</time>
      </trkpt>
      <trkpt lat="42.7701010" lon="-0.1683020">
        <ele>2085.4</ele>
        <time>2020-09-13T10:18:20Z</time>
      </trkpt>
      <trkpt lat="42.7700980" lon="-0.1683170">
        <ele>2085.2</ele>
        <time>2020-09-13T10:18:21Z</time>
      </trkpt>
      <trkpt lat="42.7699910" lon="-0.1683790">
        <ele>2084.2</ele>
        <time>2020-09-13T10:18:30Z</time>
      </trkpt>
      <trkpt lat="42.7699530" lon="-0.1684170">
        <ele>2082.8</ele>
        <time>2020-09-13T10:18:33Z</time>
      </trkpt>
      <trkpt lat="42.7698650" lon="-0.1684680">
        <ele>2081.8</ele>
        <time>2020-09-13T10:18:41Z</time>
      </trkpt>
      <trkpt lat="42.7698640" lon="-0.1684850">
        <ele>2081.2</ele>
        <time>2020-09-13T10:18:42Z</time>
      </trkpt>
      <trkpt lat="42.7698620" lon="-0.1685180">
        <ele>2080.0</ele>
        <time>2020-09-13T10:18:45Z</time>
      </trkpt>
      <trkpt lat="42.7698430" lon="-0.1685500">
        <ele>2079.6</ele>
        <time>2020-09-13T10:18:48Z</time>
      </trkpt>
      <trkpt lat="42.7698180" lon="-0.1685470">
        <ele>2079.2</ele>
        <time>2020-09-13T10:18:51Z</time>
      </trkpt>
      <trkpt lat="42.7698030" lon="-0.1685390">
        <ele>2078.8</ele>
        <time>2020-09-13T10:18:52Z</time>
      </trkpt>
      <trkpt lat="42.7697460" lon="-0.1685460">
        <ele>2077.6</ele>
        <time>2020-09-13T10:18:57Z</time>
      </trkpt>
      <trkpt lat="42.7697000" lon="-0.1685180">
        <ele>2076.6</ele>
        <time>2020-09-13T10:19:01Z</time>
      </trkpt>
      <trkpt lat="42.7696630" lon="-0.1684990">
        <ele>2076.0</ele>
        <time>2020-09-13T10:19:04Z</time>
      </trkpt>
      <trkpt lat="42.7696450" lon="-0.1684700">
        <ele>2075.4</ele>
        <time>2020-09-13T10:19:06Z</time>
      </trkpt>
      <trkpt lat="42.7696350" lon="-0.1684560">
        <ele>2075.2</ele>
        <time>2020-09-13T10:19:07Z</time>
      </trkpt>
      <trkpt lat="42.7695940" lon="-0.1684380">
        <ele>2074.2</ele>
        <time>2020-09-13T10:19:10Z</time>
      </trkpt>
      <trkpt lat="42.7695820" lon="-0.1684430">
        <ele>2074.0</ele>
        <time>2020-09-13T10:19:11Z</time>
      </trkpt>
      <trkpt lat="42.7695280" lon="-0.1684680">
        <ele>2073.0</ele>
        <time>2020-09-13T10:19:15Z</time>
      </trkpt>
      <trkpt lat="42.7694720" lon="-0.1684970">
        <ele>2072.2</ele>
        <time>2020-09-13T10:19:19Z</time>
      </trkpt>
      <trkpt lat="42.7694630" lon="-0.1685040">
        <ele>2071.8</ele>
        <time>2020-09-13T10:19:20Z</time>
      </trkpt>
      <trkpt lat="42.7694660" lon="-0.1685310">
        <ele>2071.4</ele>
        <time>2020-09-13T10:19:22Z</time>
      </trkpt>
      <trkpt lat="42.7694200" lon="-0.1685210">
        <ele>2071.4</ele>
        <time>2020-09-13T10:19:28Z</time>
      </trkpt>
      <trkpt lat="42.7693760" lon="-0.1685410">
        <ele>2070.8</ele>
        <time>2020-09-13T10:19:33Z</time>
      </trkpt>
      <trkpt lat="42.7693420" lon="-0.1685400">
        <ele>2070.0</ele>
        <time>2020-09-13T10:19:36Z</time>
      </trkpt>
      <trkpt lat="42.7693450" lon="-0.1685460">
        <ele>2069.8</ele>
        <time>2020-09-13T10:19:37Z</time>
      </trkpt>
      <trkpt lat="42.7693540" lon="-0.1685540">
        <ele>2069.4</ele>
        <time>2020-09-13T10:19:39Z</time>
      </trkpt>
      <trkpt lat="42.7693510" lon="-0.1685560">
        <ele>2069.4</ele>
        <time>2020-09-13T10:19:41Z</time>
      </trkpt>
      <trkpt lat="42.7693020" lon="-0.1685630">
        <ele>2068.8</ele>
        <time>2020-09-13T10:19:47Z</time>
      </trkpt>
      <trkpt lat="42.7692390" lon="-0.1685740">
        <ele>2068.6</ele>
        <time>2020-09-13T10:19:53Z</time>
      </trkpt>
      <trkpt lat="42.7691900" lon="-0.1685800">
        <ele>2067.6</ele>
        <time>2020-09-13T10:19:57Z</time>
      </trkpt>
      <trkpt lat="42.7690910" lon="-0.1686090">
        <ele>2067.0</ele>
        <time>2020-09-13T10:20:04Z</time>
      </trkpt>
      <trkpt lat="42.7690670" lon="-0.1686280">
        <ele>2066.6</ele>
        <time>2020-09-13T10:20:06Z</time>
      </trkpt>
      <trkpt lat="42.7690420" lon="-0.1686750">
        <ele>2065.4</ele>
        <time>2020-09-13T10:20:10Z</time>
      </trkpt>
      <trkpt lat="42.7690210" lon="-0.1687120">
        <ele>2064.4</ele>
        <time>2020-09-13T10:20:13Z</time>
      </trkpt>
      <trkpt lat="42.7689760" lon="-0.1687630">
        <ele>2063.8</ele>
        <time>2020-09-13T10:20:17Z</time>
      </trkpt>
      <trkpt lat="42.7689490" lon="-0.1687900">
        <ele>2063.2</ele>
        <time>2020-09-13T10:20:20Z</time>
      </trkpt>
      <trkpt lat="42.7689000" lon="-0.1688380">
        <ele>2062.2</ele>
        <time>2020-09-13T10:20:24Z</time>
      </trkpt>
      <trkpt lat="42.7687580" lon="-0.1688770">
        <ele>2062.6</ele>
        <time>2020-09-13T10:20:36Z</time>
      </trkpt>
      <trkpt lat="42.7686780" lon="-0.1688550">
        <ele>2061.0</ele>
        <time>2020-09-13T10:20:43Z</time>
      </trkpt>
      <trkpt lat="42.7686360" lon="-0.1688900">
        <ele>2059.8</ele>
        <time>2020-09-13T10:20:47Z</time>
      </trkpt>
      <trkpt lat="42.7685120" lon="-0.1689920">
        <ele>2058.6</ele>
        <time>2020-09-13T10:20:59Z</time>
      </trkpt>
      <trkpt lat="42.7684910" lon="-0.1689950">
        <ele>2057.2</ele>
        <time>2020-09-13T10:21:01Z</time>
      </trkpt>
      <trkpt lat="42.7683830" lon="-0.1689980">
        <ele>2056.0</ele>
        <time>2020-09-13T10:21:09Z</time>
      </trkpt>
      <trkpt lat="42.7683400" lon="-0.1690390">
        <ele>2054.8</ele>
        <time>2020-09-13T10:21:13Z</time>
      </trkpt>
      <trkpt lat="42.7682800" lon="-0.1691020">
        <ele>2053.6</ele>
        <time>2020-09-13T10:21:18Z</time>
      </trkpt>
      <trkpt lat="42.7682000" lon="-0.1691840">
        <ele>2053.0</ele>
        <time>2020-09-13T10:21:25Z</time>
      </trkpt>
      <trkpt lat="42.7681690" lon="-0.1691850">
        <ele>2052.6</ele>
        <time>2020-09-13T10:21:27Z</time>
      </trkpt>
      <trkpt lat="42.7681170" lon="-0.1692170">
        <ele>2051.0</ele>
        <time>2020-09-13T10:21:32Z</time>
      </trkpt>
      <trkpt lat="42.7680990" lon="-0.1692410">
        <ele>2049.2</ele>
        <time>2020-09-13T10:21:34Z</time>
      </trkpt>
      <trkpt lat="42.7680800" lon="-0.1692800">
        <ele>2048.2</ele>
        <time>2020-09-13T10:21:37Z</time>
      </trkpt>
      <trkpt lat="42.7680320" lon="-0.1693380">
        <ele>2047.0</ele>
        <time>2020-09-13T10:21:43Z</time>
      </trkpt>
      <trkpt lat="42.7679500" lon="-0.1694400">
        <ele>2045.6</ele>
        <time>2020-09-13T10:21:52Z</time>
      </trkpt>
      <trkpt lat="42.7679120" lon="-0.1694610">
        <ele>2044.4</ele>
        <time>2020-09-13T10:21:55Z</time>
      </trkpt>
      <trkpt lat="42.7678610" lon="-0.1694880">
        <ele>2043.6</ele>
        <time>2020-09-13T10:21:59Z</time>
      </trkpt>
      <trkpt lat="42.7678470" lon="-0.1695020">
        <ele>2043.4</ele>
        <time>2020-09-13T10:22:00Z</time>
      </trkpt>
      <trkpt lat="42.7678130" lon="-0.1695680">
        <ele>2042.0</ele>
        <time>2020-09-13T10:22:05Z</time>
      </trkpt>
      <trkpt lat="42.7678020" lon="-0.1695920">
        <ele>2040.8</ele>
        <time>2020-09-13T10:22:07Z</time>
      </trkpt>
      <trkpt lat="42.7677970" lon="-0.1696050">
        <ele>2040.4</ele>
        <time>2020-09-13T10:22:08Z</time>
      </trkpt>
      <trkpt lat="42.7677980" lon="-0.1696570">
        <ele>2039.6</ele>
        <time>2020-09-13T10:22:12Z</time>
      </trkpt>
      <trkpt lat="42.7678030" lon="-0.1697070">
        <ele>2038.4</ele>
        <time>2020-09-13T10:22:15Z</time>
      </trkpt>
      <trkpt lat="42.7678030" lon="-0.1697180">
        <ele>2038.2</ele>
        <time>2020-09-13T10:22:16Z</time>
      </trkpt>
      <trkpt lat="42.7677980" lon="-0.1697900">
        <ele>2037.4</ele>
        <time>2020-09-13T10:22:21Z</time>
      </trkpt>
      <trkpt lat="42.7677980" lon="-0.1698640">
        <ele>2037.6</ele>
        <time>2020-09-13T10:22:28Z</time>
      </trkpt>
      <trkpt lat="42.7677970" lon="-0.1698640">
        <ele>2037.6</ele>
        <time>2020-09-13T10:22:30Z</time>
      </trkpt>
      <trkpt lat="42.7677840" lon="-0.1698120">
        <ele>2038.2</ele>
        <time>2020-09-13T10:22:35Z</time>
      </trkpt>
      <trkpt lat="42.7677460" lon="-0.1697930">
        <ele>2038.0</ele>
        <time>2020-09-13T10:22:39Z</time>
      </trkpt>
      <trkpt lat="42.7677050" lon="-0.1697520">
        <ele>2036.4</ele>
        <time>2020-09-13T10:22:44Z</time>
      </trkpt>
      <trkpt lat="42.7676830" lon="-0.1697390">
        <ele>2035.4</ele>
        <time>2020-09-13T10:22:47Z</time>
      </trkpt>
      <trkpt lat="42.7676770" lon="-0.1697340">
        <ele>2035.2</ele>
        <time>2020-09-13T10:22:48Z</time>
      </trkpt>
      <trkpt lat="42.7676500" lon="-0.1697270">
        <ele>2034.2</ele>
        <time>2020-09-13T10:22:51Z</time>
      </trkpt>
      <trkpt lat="42.7676290" lon="-0.1697190">
        <ele>2033.0</ele>
        <time>2020-09-13T10:22:53Z</time>
      </trkpt>
      <trkpt lat="42.7676100" lon="-0.1697120">
        <ele>2031.6</ele>
        <time>2020-09-13T10:22:56Z</time>
      </trkpt>
      <trkpt lat="42.7675580" lon="-0.1696980">
        <ele>2030.6</ele>
        <time>2020-09-13T10:23:01Z</time>
      </trkpt>
      <trkpt lat="42.7675490" lon="-0.1696980">
        <ele>2030.4</ele>
        <time>2020-09-13T10:23:02Z</time>
      </trkpt>
      <trkpt lat="42.7675000" lon="-0.1697090">
        <ele>2029.2</ele>
        <time>2020-09-13T10:23:07Z</time>
      </trkpt>
      <trkpt lat="42.7674780" lon="-0.1697420">
        <ele>2028.0</ele>
        <time>2020-09-13T10:23:10Z</time>
      </trkpt>
      <trkpt lat="42.7674620" lon="-0.1697410">
        <ele>2027.0</ele>
        <time>2020-09-13T10:23:12Z</time>
      </trkpt>
      <trkpt lat="42.7674390" lon="-0.1697420">
        <ele>2025.8</ele>
        <time>2020-09-13T10:23:14Z</time>
      </trkpt>
      <trkpt lat="42.7674140" lon="-0.1697720">
        <ele>2024.6</ele>
        <time>2020-09-13T10:23:17Z</time>
      </trkpt>
      <trkpt lat="42.7674110" lon="-0.1697730">
        <ele>2024.2</ele>
        <time>2020-09-13T10:23:18Z</time>
      </trkpt>
      <trkpt lat="42.7673940" lon="-0.1697840">
        <ele>2023.8</ele>
        <time>2020-09-13T10:23:20Z</time>
      </trkpt>
      <trkpt lat="42.7673870" lon="-0.1697970">
        <ele>2023.4</ele>
        <time>2020-09-13T10:23:21Z</time>
      </trkpt>
      <trkpt lat="42.7673420" lon="-0.1698390">
        <ele>2022.0</ele>
        <time>2020-09-13T10:23:25Z</time>
      </trkpt>
      <trkpt lat="42.7673230" lon="-0.1698550">
        <ele>2020.6</ele>
        <time>2020-09-13T10:23:27Z</time>
      </trkpt>
      <trkpt lat="42.7673090" lon="-0.1698700">
        <ele>2019.4</ele>
        <time>2020-09-13T10:23:29Z</time>
      </trkpt>
      <trkpt lat="42.7672960" lon="-0.1698770">
        <ele>2018.6</ele>
        <time>2020-09-13T10:23:31Z</time>
      </trkpt>
      <trkpt lat="42.7672880" lon="-0.1698710">
        <ele>2018.2</ele>
        <time>2020-09-13T10:23:32Z</time>
      </trkpt>
      <trkpt lat="42.7672790" lon="-0.1698540">
        <ele>2017.6</ele>
        <time>2020-09-13T10:23:34Z</time>
      </trkpt>
      <trkpt lat="42.7672730" lon="-0.1698450">
        <ele>2017.0</ele>
        <time>2020-09-13T10:23:35Z</time>
      </trkpt>
      <trkpt lat="42.7672680" lon="-0.1698260">
        <ele>2016.4</ele>
        <time>2020-09-13T10:23:37Z</time>
      </trkpt>
      <trkpt lat="42.7672690" lon="-0.1698200">
        <ele>2016.0</ele>
        <time>2020-09-13T10:23:38Z</time>
      </trkpt>
      <trkpt lat="42.7672510" lon="-0.1697650">
        <ele>2014.8</ele>
        <time>2020-09-13T10:23:43Z</time>
      </trkpt>
      <trkpt lat="42.7672340" lon="-0.1697180">
        <ele>2013.8</ele>
        <time>2020-09-13T10:23:49Z</time>
      </trkpt>
      <trkpt lat="42.7672170" lon="-0.1696850">
        <ele>2012.4</ele>
        <time>2020-09-13T10:23:53Z</time>
      </trkpt>
      <trkpt lat="42.7672110" lon="-0.1696890">
        <ele>2011.4</ele>
        <time>2020-09-13T10:23:55Z</time>
      </trkpt>
      <trkpt lat="42.7671730" lon="-0.1697060">
        <ele>2010.2</ele>
        <time>2020-09-13T10:23:58Z</time>
      </trkpt>
      <trkpt lat="42.7671550" lon="-0.1697530">
        <ele>2009.6</ele>
        <time>2020-09-13T10:24:01Z</time>
      </trkpt>
      <trkpt lat="42.7671160" lon="-0.1697900">
        <ele>2008.6</ele>
        <time>2020-09-13T10:24:05Z</time>
      </trkpt>
      <trkpt lat="42.7671050" lon="-0.1698220">
        <ele>2007.8</ele>
        <time>2020-09-13T10:24:07Z</time>
      </trkpt>
      <trkpt lat="42.7671060" lon="-0.1698400">
        <ele>2007.6</ele>
        <time>2020-09-13T10:24:08Z</time>
      </trkpt>
      <trkpt lat="42.7671160" lon="-0.1698630">
        <ele>2007.4</ele>
        <time>2020-09-13T10:24:10Z</time>
      </trkpt>
      <trkpt lat="42.7671220" lon="-0.1699130">
        <ele>2006.4</ele>
        <time>2020-09-13T10:24:14Z</time>
      </trkpt>
      <trkpt lat="42.7671170" lon="-0.1699410">
        <ele>2006.0</ele>
        <time>2020-09-13T10:24:17Z</time>
      </trkpt>
      <trkpt lat="42.7671050" lon="-0.1699690">
        <ele>2005.2</ele>
        <time>2020-09-13T10:24:20Z</time>
      </trkpt>
      <trkpt lat="42.7670810" lon="-0.1700310">
        <ele>2004.2</ele>
        <time>2020-09-13T10:24:26Z</time>
      </trkpt>
      <trkpt lat="42.7670700" lon="-0.1700420">
        <ele>2003.8</ele>
        <time>2020-09-13T10:24:28Z</time>
      </trkpt>
      <trkpt lat="42.7670600" lon="-0.1700630">
        <ele>2003.0</ele>
        <time>2020-09-13T10:24:31Z</time>
      </trkpt>
      <trkpt lat="42.7670590" lon="-0.1700870">
        <ele>2002.4</ele>
        <time>2020-09-13T10:24:33Z</time>
      </trkpt>
      <trkpt lat="42.7670540" lon="-0.1701090">
        <ele>2001.8</ele>
        <time>2020-09-13T10:24:35Z</time>
      </trkpt>
      <trkpt lat="42.7670550" lon="-0.1701330">
        <ele>2001.0</ele>
        <time>2020-09-13T10:24:37Z</time>
      </trkpt>
      <trkpt lat="42.7670430" lon="-0.1701430">
        <ele>2000.6</ele>
        <time>2020-09-13T10:24:38Z</time>
      </trkpt>
      <trkpt lat="42.7670270" lon="-0.1701750">
        <ele>1999.6</ele>
        <time>2020-09-13T10:24:41Z</time>
      </trkpt>
      <trkpt lat="42.7670300" lon="-0.1701880">
        <ele>1999.0</ele>
        <time>2020-09-13T10:24:42Z</time>
      </trkpt>
      <trkpt lat="42.7670190" lon="-0.1702120">
        <ele>1998.2</ele>
        <time>2020-09-13T10:24:44Z</time>
      </trkpt>
      <trkpt lat="42.7670090" lon="-0.1702570">
        <ele>1997.2</ele>
        <time>2020-09-13T10:24:47Z</time>
      </trkpt>
      <trkpt lat="42.7670030" lon="-0.1702990">
        <ele>1996.0</ele>
        <time>2020-09-13T10:24:50Z</time>
      </trkpt>
      <trkpt lat="42.7670130" lon="-0.1703550">
        <ele>1994.8</ele>
        <time>2020-09-13T10:24:53Z</time>
      </trkpt>
      <trkpt lat="42.7670100" lon="-0.1703850">
        <ele>1993.4</ele>
        <time>2020-09-13T10:24:55Z</time>
      </trkpt>
      <trkpt lat="42.7670120" lon="-0.1704260">
        <ele>1992.0</ele>
        <time>2020-09-13T10:24:58Z</time>
      </trkpt>
      <trkpt lat="42.7669870" lon="-0.1704660">
        <ele>1990.8</ele>
        <time>2020-09-13T10:25:01Z</time>
      </trkpt>
      <trkpt lat="42.7669770" lon="-0.1705170">
        <ele>1990.6</ele>
        <time>2020-09-13T10:25:05Z</time>
      </trkpt>
      <trkpt lat="42.7670080" lon="-0.1706220">
        <ele>1990.2</ele>
        <time>2020-09-13T10:25:11Z</time>
      </trkpt>
      <trkpt lat="42.7670130" lon="-0.1706480">
        <ele>1990.2</ele>
        <time>2020-09-13T10:25:13Z</time>
      </trkpt>
      <trkpt lat="42.7670160" lon="-0.1706630">
        <ele>1990.2</ele>
        <time>2020-09-13T10:25:15Z</time>
      </trkpt>
      <trkpt lat="42.7669890" lon="-0.1706720">
        <ele>1990.0</ele>
        <time>2020-09-13T10:25:18Z</time>
      </trkpt>
      <trkpt lat="42.7669860" lon="-0.1706690">
        <ele>1989.8</ele>
        <time>2020-09-13T10:25:20Z</time>
      </trkpt>
      <trkpt lat="42.7669820" lon="-0.1706700">
        <ele>1989.8</ele>
        <time>2020-09-13T10:25:21Z</time>
      </trkpt>
      <trkpt lat="42.7669910" lon="-0.1707660">
        <ele>1990.2</ele>
        <time>2020-09-13T10:25:29Z</time>
      </trkpt>
      <trkpt lat="42.7669890" lon="-0.1707940">
        <ele>1990.4</ele>
        <time>2020-09-13T10:25:31Z</time>
      </trkpt>
      <trkpt lat="42.7669930" lon="-0.1708200">
        <ele>1990.2</ele>
        <time>2020-09-13T10:25:33Z</time>
      </trkpt>
      <trkpt lat="42.7669500" lon="-0.1708850">
        <ele>1988.6</ele>
        <time>2020-09-13T10:25:40Z</time>
      </trkpt>
      <trkpt lat="42.7669310" lon="-0.1709260">
        <ele>1988.2</ele>
        <time>2020-09-13T10:25:44Z</time>
      </trkpt>
      <trkpt lat="42.7669450" lon="-0.1709310">
        <ele>1987.4</ele>
        <time>2020-09-13T10:25:47Z</time>
      </trkpt>
      <trkpt lat="42.7669480" lon="-0.1709320">
        <ele>1987.2</ele>
        <time>2020-09-13T10:25:48Z</time>
      </trkpt>
      <trkpt lat="42.7669940" lon="-0.1710470">
        <ele>1987.8</ele>
        <time>2020-09-13T10:26:47Z</time>
      </trkpt>
      <trkpt lat="42.7669790" lon="-0.1710560">
        <ele>1987.6</ele>
        <time>2020-09-13T10:28:17Z</time>
      </trkpt>
      <trkpt lat="42.7669840" lon="-0.1711070">
        <ele>1987.6</ele>
        <time>2020-09-13T10:28:33Z</time>
      </trkpt>
      <trkpt lat="42.7669920" lon="-0.1711280">
        <ele>1987.4</ele>
        <time>2020-09-13T10:28:35Z</time>
      </trkpt>
      <trkpt lat="42.7669780" lon="-0.1711760">
        <ele>1986.6</ele>
        <time>2020-09-13T10:28:39Z</time>
      </trkpt>
      <trkpt lat="42.7669090" lon="-0.1713010">
        <ele>1986.6</ele>
        <time>2020-09-13T10:28:49Z</time>
      </trkpt>
      <trkpt lat="42.7669050" lon="-0.1713360">
        <ele>1987.4</ele>
        <time>2020-09-13T10:28:54Z</time>
      </trkpt>
      <trkpt lat="42.7669070" lon="-0.1713540">
        <ele>1987.6</ele>
        <time>2020-09-13T10:28:56Z</time>
      </trkpt>
      <trkpt lat="42.7669080" lon="-0.1713930">
        <ele>1988.4</ele>
        <time>2020-09-13T10:29:01Z</time>
      </trkpt>
      <trkpt lat="42.7668920" lon="-0.1714330">
        <ele>1989.4</ele>
        <time>2020-09-13T10:29:08Z</time>
      </trkpt>
      <trkpt lat="42.7668790" lon="-0.1714610">
        <ele>1990.6</ele>
        <time>2020-09-13T10:29:12Z</time>
      </trkpt>
      <trkpt lat="42.7668380" lon="-0.1714880">
        <ele>1991.8</ele>
        <time>2020-09-13T10:29:18Z</time>
      </trkpt>
      <trkpt lat="42.7668260" lon="-0.1715060">
        <ele>1993.0</ele>
        <time>2020-09-13T10:29:25Z</time>
      </trkpt>
      <trkpt lat="42.7667280" lon="-0.1715460">
        <ele>1994.0</ele>
        <time>2020-09-13T10:29:44Z</time>
      </trkpt>
      <trkpt lat="42.7667240" lon="-0.1715500">
        <ele>1994.2</ele>
        <time>2020-09-13T10:29:45Z</time>
      </trkpt>
      <trkpt lat="42.7667060" lon="-0.1715400">
        <ele>1995.0</ele>
        <time>2020-09-13T10:29:48Z</time>
      </trkpt>
      <trkpt lat="42.7666750" lon="-0.1715240">
        <ele>1995.8</ele>
        <time>2020-09-13T10:29:52Z</time>
      </trkpt>
      <trkpt lat="42.7666420" lon="-0.1715150">
        <ele>1996.2</ele>
        <time>2020-09-13T10:29:55Z</time>
      </trkpt>
      <trkpt lat="42.7665880" lon="-0.1715300">
        <ele>1997.4</ele>
        <time>2020-09-13T10:30:02Z</time>
      </trkpt>
      <trkpt lat="42.7665570" lon="-0.1715520">
        <ele>1998.4</ele>
        <time>2020-09-13T10:30:06Z</time>
      </trkpt>
      <trkpt lat="42.7665510" lon="-0.1715590">
        <ele>1998.8</ele>
        <time>2020-09-13T10:30:07Z</time>
      </trkpt>
      <trkpt lat="42.7665500" lon="-0.1715720">
        <ele>1999.0</ele>
        <time>2020-09-13T10:30:09Z</time>
      </trkpt>
      <trkpt lat="42.7665380" lon="-0.1716430">
        <ele>1999.2</ele>
        <time>2020-09-13T10:30:16Z</time>
      </trkpt>
      <trkpt lat="42.7665290" lon="-0.1716650">
        <ele>1999.4</ele>
        <time>2020-09-13T10:30:18Z</time>
      </trkpt>
      <trkpt lat="42.7665190" lon="-0.1716820">
        <ele>2000.0</ele>
        <time>2020-09-13T10:30:20Z</time>
      </trkpt>
      <trkpt lat="42.7665100" lon="-0.1717030">
        <ele>2000.4</ele>
        <time>2020-09-13T10:30:22Z</time>
      </trkpt>
      <trkpt lat="42.7664930" lon="-0.1717330">
        <ele>2001.0</ele>
        <time>2020-09-13T10:30:25Z</time>
      </trkpt>
      <trkpt lat="42.7664990" lon="-0.1717670">
        <ele>2001.6</ele>
        <time>2020-09-13T10:30:29Z</time>
      </trkpt>
      <trkpt lat="42.7665140" lon="-0.1718150">
        <ele>2002.8</ele>
        <time>2020-09-13T10:30:35Z</time>
      </trkpt>
      <trkpt lat="42.7665290" lon="-0.1718310">
        <ele>2003.8</ele>
        <time>2020-09-13T10:30:46Z</time>
      </trkpt>
      <trkpt lat="42.7665230" lon="-0.1718250">
        <ele>2005.0</ele>
        <time>2020-09-13T10:31:10Z</time>
      </trkpt>
      <trkpt lat="42.7665470" lon="-0.1719020">
        <ele>2006.0</ele>
        <time>2020-09-13T10:31:26Z</time>
      </trkpt>
      <trkpt lat="42.7665710" lon="-0.1719610">
        <ele>2006.8</ele>
        <time>2020-09-13T10:31:30Z</time>
      </trkpt>
      <trkpt lat="42.7665800" lon="-0.1719830">
        <ele>2007.2</ele>
        <time>2020-09-13T10:31:32Z</time>
      </trkpt>
      <trkpt lat="42.7665990" lon="-0.1719870">
        <ele>2007.4</ele>
        <time>2020-09-13T10:31:34Z</time>
      </trkpt>
      <trkpt lat="42.7665910" lon="-0.1720350">
        <ele>2008.0</ele>
        <time>2020-09-13T10:31:38Z</time>
      </trkpt>
      <trkpt lat="42.7665790" lon="-0.1720560">
        <ele>2008.0</ele>
        <time>2020-09-13T10:31:40Z</time>
      </trkpt>
      <trkpt lat="42.7665790" lon="-0.1721030">
        <ele>2008.4</ele>
        <time>2020-09-13T10:31:44Z</time>
      </trkpt>
      <trkpt lat="42.7665850" lon="-0.1721620">
        <ele>2009.4</ele>
        <time>2020-09-13T10:31:50Z</time>
      </trkpt>
      <trkpt lat="42.7665860" lon="-0.1722340">
        <ele>2010.8</ele>
        <time>2020-09-13T10:31:58Z</time>
      </trkpt>
      <trkpt lat="42.7665930" lon="-0.1722550">
        <ele>2011.2</ele>
        <time>2020-09-13T10:32:00Z</time>
      </trkpt>
      <trkpt lat="42.7666050" lon="-0.1722930">
        <ele>2011.8</ele>
        <time>2020-09-13T10:32:04Z</time>
      </trkpt>
      <trkpt lat="42.7666180" lon="-0.1723340">
        <ele>2013.0</ele>
        <time>2020-09-13T10:32:10Z</time>
      </trkpt>
      <trkpt lat="42.7666310" lon="-0.1724010">
        <ele>2014.0</ele>
        <time>2020-09-13T10:32:17Z</time>
      </trkpt>
      <trkpt lat="42.7666540" lon="-0.1724520">
        <ele>2015.2</ele>
        <time>2020-09-13T10:32:23Z</time>
      </trkpt>
      <trkpt lat="42.7666680" lon="-0.1725150">
        <ele>2016.2</ele>
        <time>2020-09-13T10:32:30Z</time>
      </trkpt>
      <trkpt lat="42.7666840" lon="-0.1725840">
        <ele>2017.4</ele>
        <time>2020-09-13T10:32:38Z</time>
      </trkpt>
      <trkpt lat="42.7666960" lon="-0.1726310">
        <ele>2018.6</ele>
        <time>2020-09-13T10:32:45Z</time>
      </trkpt>
      <trkpt lat="42.7667090" lon="-0.1726570">
        <ele>2019.8</ele>
        <time>2020-09-13T10:32:51Z</time>
      </trkpt>
      <trkpt lat="42.7667070" lon="-0.1726750">
        <ele>2020.8</ele>
        <time>2020-09-13T10:32:56Z</time>
      </trkpt>
      <trkpt lat="42.7667350" lon="-0.1727200">
        <ele>2022.0</ele>
        <time>2020-09-13T10:33:04Z</time>
      </trkpt>
      <trkpt lat="42.7667700" lon="-0.1727350">
        <ele>2023.0</ele>
        <time>2020-09-13T10:33:09Z</time>
      </trkpt>
      <trkpt lat="42.7667910" lon="-0.1727760">
        <ele>2024.2</ele>
        <time>2020-09-13T10:33:13Z</time>
      </trkpt>
      <trkpt lat="42.7668100" lon="-0.1728510">
        <ele>2025.4</ele>
        <time>2020-09-13T10:33:20Z</time>
      </trkpt>
      <trkpt lat="42.7668180" lon="-0.1728750">
        <ele>2025.6</ele>
        <time>2020-09-13T10:33:22Z</time>
      </trkpt>
      <trkpt lat="42.7668200" lon="-0.1729010">
        <ele>2025.8</ele>
        <time>2020-09-13T10:33:24Z</time>
      </trkpt>
      <trkpt lat="42.7668170" lon="-0.1729180">
        <ele>2026.0</ele>
        <time>2020-09-13T10:33:26Z</time>
      </trkpt>
      <trkpt lat="42.7668030" lon="-0.1729510">
        <ele>2026.6</ele>
        <time>2020-09-13T10:33:30Z</time>
      </trkpt>
      <trkpt lat="42.7668230" lon="-0.1729730">
        <ele>2027.6</ele>
        <time>2020-09-13T10:33:37Z</time>
      </trkpt>
      <trkpt lat="42.7668500" lon="-0.1730310">
        <ele>2028.6</ele>
        <time>2020-09-13T10:33:45Z</time>
      </trkpt>
      <trkpt lat="42.7668720" lon="-0.1730740">
        <ele>2029.6</ele>
        <time>2020-09-13T10:33:51Z</time>
      </trkpt>
      <trkpt lat="42.7668980" lon="-0.1730850">
        <ele>2030.8</ele>
        <time>2020-09-13T10:33:57Z</time>
      </trkpt>
      <trkpt lat="42.7669030" lon="-0.1730870">
        <ele>2031.0</ele>
        <time>2020-09-13T10:33:58Z</time>
      </trkpt>
      <trkpt lat="42.7669190" lon="-0.1731270">
        <ele>2032.0</ele>
        <time>2020-09-13T10:34:04Z</time>
      </trkpt>
      <trkpt lat="42.7669140" lon="-0.1731920">
        <ele>2033.2</ele>
        <time>2020-09-13T10:34:10Z</time>
      </trkpt>
      <trkpt lat="42.7669210" lon="-0.1732410">
        <ele>2034.2</ele>
        <time>2020-09-13T10:34:15Z</time>
      </trkpt>
      <trkpt lat="42.7669200" lon="-0.1732890">
        <ele>2035.2</ele>
        <time>2020-09-13T10:34:22Z</time>
      </trkpt>
      <trkpt lat="42.7669250" lon="-0.1733370">
        <ele>2036.4</ele>
        <time>2020-09-13T10:34:26Z</time>
      </trkpt>
      <trkpt lat="42.7669190" lon="-0.1733970">
        <ele>2037.4</ele>
        <time>2020-09-13T10:34:33Z</time>
      </trkpt>
      <trkpt lat="42.7668830" lon="-0.1734670">
        <ele>2038.6</ele>
        <time>2020-09-13T10:34:41Z</time>
      </trkpt>
      <trkpt lat="42.7668600" lon="-0.1735430">
        <ele>2039.8</ele>
        <time>2020-09-13T10:34:49Z</time>
      </trkpt>
      <trkpt lat="42.7668260" lon="-0.1735810">
        <ele>2040.8</ele>
        <time>2020-09-13T10:34:55Z</time>
      </trkpt>
      <trkpt lat="42.7667630" lon="-0.1736640">
        <ele>2042.0</ele>
        <time>2020-09-13T10:35:06Z</time>
      </trkpt>
      <trkpt lat="42.7667470" lon="-0.1737030">
        <ele>2043.0</ele>
        <time>2020-09-13T10:35:14Z</time>
      </trkpt>
      <trkpt lat="42.7667190" lon="-0.1737570">
        <ele>2044.2</ele>
        <time>2020-09-13T10:35:20Z</time>
      </trkpt>
      <trkpt lat="42.7667020" lon="-0.1738500">
        <ele>2045.2</ele>
        <time>2020-09-13T10:35:26Z</time>
      </trkpt>
      <trkpt lat="42.7667100" lon="-0.1739380">
        <ele>2046.2</ele>
        <time>2020-09-13T10:35:33Z</time>
      </trkpt>
      <trkpt lat="42.7667370" lon="-0.1739740">
        <ele>2047.4</ele>
        <time>2020-09-13T10:35:39Z</time>
      </trkpt>
      <trkpt lat="42.7667430" lon="-0.1740230">
        <ele>2048.4</ele>
        <time>2020-09-13T10:35:46Z</time>
      </trkpt>
      <trkpt lat="42.7667620" lon="-0.1740360">
        <ele>2049.6</ele>
        <time>2020-09-13T10:35:51Z</time>
      </trkpt>
      <trkpt lat="42.7667800" lon="-0.1740170">
        <ele>2050.6</ele>
        <time>2020-09-13T10:35:58Z</time>
      </trkpt>
      <trkpt lat="42.7667740" lon="-0.1740420">
        <ele>2051.8</ele>
        <time>2020-09-13T10:36:04Z</time>
      </trkpt>
      <trkpt lat="42.7667690" lon="-0.1741010">
        <ele>2052.8</ele>
        <time>2020-09-13T10:36:11Z</time>
      </trkpt>
      <trkpt lat="42.7668040" lon="-0.1741320">
        <ele>2054.0</ele>
        <time>2020-09-13T10:36:17Z</time>
      </trkpt>
      <trkpt lat="42.7668740" lon="-0.1742040">
        <ele>2055.2</ele>
        <time>2020-09-13T10:36:32Z</time>
      </trkpt>
      <trkpt lat="42.7668830" lon="-0.1742250">
        <ele>2056.2</ele>
        <time>2020-09-13T10:36:37Z</time>
      </trkpt>
      <trkpt lat="42.7669020" lon="-0.1742390">
        <ele>2057.2</ele>
        <time>2020-09-13T10:36:42Z</time>
      </trkpt>
      <trkpt lat="42.7669240" lon="-0.1742600">
        <ele>2058.6</ele>
        <time>2020-09-13T10:36:48Z</time>
      </trkpt>
      <trkpt lat="42.7669440" lon="-0.1742860">
        <ele>2059.8</ele>
        <time>2020-09-13T10:36:52Z</time>
      </trkpt>
      <trkpt lat="42.7669590" lon="-0.1743590">
        <ele>2061.0</ele>
        <time>2020-09-13T10:36:58Z</time>
      </trkpt>
      <trkpt lat="42.7669280" lon="-0.1744560">
        <ele>2062.2</ele>
        <time>2020-09-13T10:37:09Z</time>
      </trkpt>
      <trkpt lat="42.7669370" lon="-0.1744830">
        <ele>2063.4</ele>
        <time>2020-09-13T10:37:15Z</time>
      </trkpt>
      <trkpt lat="42.7669270" lon="-0.1745100">
        <ele>2064.4</ele>
        <time>2020-09-13T10:37:19Z</time>
      </trkpt>
      <trkpt lat="42.7669320" lon="-0.1745420">
        <ele>2065.4</ele>
        <time>2020-09-13T10:37:22Z</time>
      </trkpt>
      <trkpt lat="42.7669610" lon="-0.1745690">
        <ele>2066.6</ele>
        <time>2020-09-13T10:37:29Z</time>
      </trkpt>
      <trkpt lat="42.7669930" lon="-0.1745740">
        <ele>2067.6</ele>
        <time>2020-09-13T10:37:37Z</time>
      </trkpt>
      <trkpt lat="42.7670040" lon="-0.1745950">
        <ele>2068.8</ele>
        <time>2020-09-13T10:37:42Z</time>
      </trkpt>
      <trkpt lat="42.7670270" lon="-0.1746260">
        <ele>2069.8</ele>
        <time>2020-09-13T10:37:47Z</time>
      </trkpt>
      <trkpt lat="42.7670180" lon="-0.1748490">
        <ele>2070.6</ele>
        <time>2020-09-13T10:38:03Z</time>
      </trkpt>
      <trkpt lat="42.7670120" lon="-0.1748640">
        <ele>2070.8</ele>
        <time>2020-09-13T10:38:05Z</time>
      </trkpt>
      <trkpt lat="42.7669810" lon="-0.1749050">
        <ele>2072.0</ele>
        <time>2020-09-13T10:38:11Z</time>
      </trkpt>
      <trkpt lat="42.7669610" lon="-0.1749380">
        <ele>2072.4</ele>
        <time>2020-09-13T10:38:14Z</time>
      </trkpt>
      <trkpt lat="42.7669610" lon="-0.1749600">
        <ele>2072.6</ele>
        <time>2020-09-13T10:38:16Z</time>
      </trkpt>
      <trkpt lat="42.7669550" lon="-0.1749920">
        <ele>2073.0</ele>
        <time>2020-09-13T10:38:19Z</time>
      </trkpt>
      <trkpt lat="42.7669480" lon="-0.1750030">
        <ele>2073.2</ele>
        <time>2020-09-13T10:38:20Z</time>
      </trkpt>
      <trkpt lat="42.7669200" lon="-0.1750710">
        <ele>2074.2</ele>
        <time>2020-09-13T10:38:27Z</time>
      </trkpt>
      <trkpt lat="42.7668900" lon="-0.1751290">
        <ele>2075.2</ele>
        <time>2020-09-13T10:38:33Z</time>
      </trkpt>
      <trkpt lat="42.7668730" lon="-0.1751860">
        <ele>2076.4</ele>
        <time>2020-09-13T10:38:39Z</time>
      </trkpt>
      <trkpt lat="42.7668700" lon="-0.1752840">
        <ele>2077.6</ele>
        <time>2020-09-13T10:38:47Z</time>
      </trkpt>
      <trkpt lat="42.7668380" lon="-0.1753400">
        <ele>2078.4</ele>
        <time>2020-09-13T10:38:53Z</time>
      </trkpt>
      <trkpt lat="42.7668330" lon="-0.1753570">
        <ele>2078.6</ele>
        <time>2020-09-13T10:38:54Z</time>
      </trkpt>
      <trkpt lat="42.7668300" lon="-0.1753860">
        <ele>2079.0</ele>
        <time>2020-09-13T10:38:56Z</time>
      </trkpt>
      <trkpt lat="42.7668730" lon="-0.1755090">
        <ele>2079.2</ele>
        <time>2020-09-13T10:39:05Z</time>
      </trkpt>
      <trkpt lat="42.7668940" lon="-0.1756240">
        <ele>2079.6</ele>
        <time>2020-09-13T10:39:14Z</time>
      </trkpt>
      <trkpt lat="42.7668640" lon="-0.1757220">
        <ele>2080.4</ele>
        <time>2020-09-13T10:39:22Z</time>
      </trkpt>
      <trkpt lat="42.7668640" lon="-0.1757560">
        <ele>2080.6</ele>
        <time>2020-09-13T10:39:25Z</time>
      </trkpt>
      <trkpt lat="42.7668620" lon="-0.1757770">
        <ele>2081.0</ele>
        <time>2020-09-13T10:39:27Z</time>
      </trkpt>
      <trkpt lat="42.7668630" lon="-0.1757990">
        <ele>2081.4</ele>
        <time>2020-09-13T10:39:29Z</time>
      </trkpt>
      <trkpt lat="42.7668570" lon="-0.1758570">
        <ele>2081.8</ele>
        <time>2020-09-13T10:39:35Z</time>
      </trkpt>
      <trkpt lat="42.7668610" lon="-0.1759090">
        <ele>2082.4</ele>
        <time>2020-09-13T10:39:39Z</time>
      </trkpt>
      <trkpt lat="42.7668650" lon="-0.1759500">
        <ele>2082.8</ele>
        <time>2020-09-13T10:39:43Z</time>
      </trkpt>
      <trkpt lat="42.7668640" lon="-0.1759610">
        <ele>2083.0</ele>
        <time>2020-09-13T10:39:44Z</time>
      </trkpt>
      <trkpt lat="42.7668630" lon="-0.1760130">
        <ele>2083.6</ele>
        <time>2020-09-13T10:39:49Z</time>
      </trkpt>
      <trkpt lat="42.7668630" lon="-0.1760380">
        <ele>2084.2</ele>
        <time>2020-09-13T10:39:51Z</time>
      </trkpt>
      <trkpt lat="42.7668540" lon="-0.1760930">
        <ele>2084.6</ele>
        <time>2020-09-13T10:39:55Z</time>
      </trkpt>
      <trkpt lat="42.7668450" lon="-0.1761180">
        <ele>2084.8</ele>
        <time>2020-09-13T10:39:57Z</time>
      </trkpt>
      <trkpt lat="42.7668310" lon="-0.1761520">
        <ele>2085.2</ele>
        <time>2020-09-13T10:40:00Z</time>
      </trkpt>
      <trkpt lat="42.7667750" lon="-0.1762650">
        <ele>2085.8</ele>
        <time>2020-09-13T10:40:10Z</time>
      </trkpt>
      <trkpt lat="42.7667680" lon="-0.1763250">
        <ele>2086.4</ele>
        <time>2020-09-13T10:40:14Z</time>
      </trkpt>
      <trkpt lat="42.7667500" lon="-0.1763580">
        <ele>2086.6</ele>
        <time>2020-09-13T10:40:18Z</time>
      </trkpt>
      <trkpt lat="42.7666780" lon="-0.1764740">
        <ele>2086.8</ele>
        <time>2020-09-13T10:40:30Z</time>
      </trkpt>
      <trkpt lat="42.7666610" lon="-0.1764650">
        <ele>2086.8</ele>
        <time>2020-09-13T10:40:33Z</time>
      </trkpt>
      <trkpt lat="42.7666500" lon="-0.1764670">
        <ele>2087.0</ele>
        <time>2020-09-13T10:40:35Z</time>
      </trkpt>
      <trkpt lat="42.7665940" lon="-0.1764790">
        <ele>2086.6</ele>
        <time>2020-09-13T10:40:43Z</time>
      </trkpt>
      <trkpt lat="42.7665620" lon="-0.1764980">
        <ele>2087.4</ele>
        <time>2020-09-13T10:40:48Z</time>
      </trkpt>
      <trkpt lat="42.7665510" lon="-0.1765900">
        <ele>2088.6</ele>
        <time>2020-09-13T10:40:57Z</time>
      </trkpt>
      <trkpt lat="42.7665480" lon="-0.1766840">
        <ele>2089.2</ele>
        <time>2020-09-13T10:41:03Z</time>
      </trkpt>
      <trkpt lat="42.7665150" lon="-0.1767880">
        <ele>2089.6</ele>
        <time>2020-09-13T10:41:11Z</time>
      </trkpt>
      <trkpt lat="42.7665160" lon="-0.1768010">
        <ele>2089.6</ele>
        <time>2020-09-13T10:41:12Z</time>
      </trkpt>
      <trkpt lat="42.7665320" lon="-0.1769640">
        <ele>2090.6</ele>
        <time>2020-09-13T10:41:23Z</time>
      </trkpt>
      <trkpt lat="42.7665390" lon="-0.1769940">
        <ele>2090.8</ele>
        <time>2020-09-13T10:41:25Z</time>
      </trkpt>
      <trkpt lat="42.7665510" lon="-0.1770800">
        <ele>2091.6</ele>
        <time>2020-09-13T10:41:32Z</time>
      </trkpt>
      <trkpt lat="42.7665520" lon="-0.1770910">
        <ele>2091.8</ele>
        <time>2020-09-13T10:41:33Z</time>
      </trkpt>
      <trkpt lat="42.7665610" lon="-0.1771110">
        <ele>2092.0</ele>
        <time>2020-09-13T10:41:35Z</time>
      </trkpt>
      <trkpt lat="42.7665680" lon="-0.1771330">
        <ele>2092.2</ele>
        <time>2020-09-13T10:41:37Z</time>
      </trkpt>
      <trkpt lat="42.7665810" lon="-0.1771690">
        <ele>2092.6</ele>
        <time>2020-09-13T10:41:42Z</time>
      </trkpt>
      <trkpt lat="42.7665860" lon="-0.1771830">
        <ele>2092.6</ele>
        <time>2020-09-13T10:41:43Z</time>
      </trkpt>
      <trkpt lat="42.7665950" lon="-0.1772010">
        <ele>2092.8</ele>
        <time>2020-09-13T10:41:45Z</time>
      </trkpt>
      <trkpt lat="42.7665980" lon="-0.1772230">
        <ele>2093.0</ele>
        <time>2020-09-13T10:41:47Z</time>
      </trkpt>
      <trkpt lat="42.7665920" lon="-0.1772510">
        <ele>2093.8</ele>
        <time>2020-09-13T10:41:51Z</time>
      </trkpt>
      <trkpt lat="42.7665800" lon="-0.1773010">
        <ele>2094.8</ele>
        <time>2020-09-13T10:42:01Z</time>
      </trkpt>
      <trkpt lat="42.7665740" lon="-0.1772990">
        <ele>2096.0</ele>
        <time>2020-09-13T10:42:07Z</time>
      </trkpt>
      <trkpt lat="42.7665430" lon="-0.1773650">
        <ele>2095.8</ele>
        <time>2020-09-13T10:42:19Z</time>
      </trkpt>
      <trkpt lat="42.7665260" lon="-0.1773950">
        <ele>2096.6</ele>
        <time>2020-09-13T10:42:22Z</time>
      </trkpt>
      <trkpt lat="42.7665200" lon="-0.1774360">
        <ele>2097.0</ele>
        <time>2020-09-13T10:42:25Z</time>
      </trkpt>
      <trkpt lat="42.7665090" lon="-0.1775090">
        <ele>2098.0</ele>
        <time>2020-09-13T10:42:31Z</time>
      </trkpt>
      <trkpt lat="42.7665340" lon="-0.1775980">
        <ele>2099.0</ele>
        <time>2020-09-13T10:42:38Z</time>
      </trkpt>
      <trkpt lat="42.7665360" lon="-0.1776100">
        <ele>2099.2</ele>
        <time>2020-09-13T10:42:39Z</time>
      </trkpt>
      <trkpt lat="42.7665400" lon="-0.1776430">
        <ele>2099.8</ele>
        <time>2020-09-13T10:42:42Z</time>
      </trkpt>
      <trkpt lat="42.7665390" lon="-0.1776660">
        <ele>2100.2</ele>
        <time>2020-09-13T10:42:44Z</time>
      </trkpt>
      <trkpt lat="42.7665340" lon="-0.1776730">
        <ele>2100.4</ele>
        <time>2020-09-13T10:42:45Z</time>
      </trkpt>
      <trkpt lat="42.7665310" lon="-0.1776920">
        <ele>2100.8</ele>
        <time>2020-09-13T10:42:48Z</time>
      </trkpt>
      <trkpt lat="42.7665040" lon="-0.1777340">
        <ele>2101.4</ele>
        <time>2020-09-13T10:42:53Z</time>
      </trkpt>
      <trkpt lat="42.7664900" lon="-0.1778440">
        <ele>2102.2</ele>
        <time>2020-09-13T10:43:00Z</time>
      </trkpt>
      <trkpt lat="42.7664890" lon="-0.1778650">
        <ele>2102.4</ele>
        <time>2020-09-13T10:43:02Z</time>
      </trkpt>
      <trkpt lat="42.7664810" lon="-0.1779150">
        <ele>2103.6</ele>
        <time>2020-09-13T10:43:07Z</time>
      </trkpt>
      <trkpt lat="42.7664770" lon="-0.1779330">
        <ele>2104.0</ele>
        <time>2020-09-13T10:43:09Z</time>
      </trkpt>
      <trkpt lat="42.7664760" lon="-0.1779600">
        <ele>2104.6</ele>
        <time>2020-09-13T10:43:12Z</time>
      </trkpt>
      <trkpt lat="42.7664810" lon="-0.1779790">
        <ele>2104.8</ele>
        <time>2020-09-13T10:43:14Z</time>
      </trkpt>
      <trkpt lat="42.7664940" lon="-0.1780300">
        <ele>2105.6</ele>
        <time>2020-09-13T10:43:20Z</time>
      </trkpt>
      <trkpt lat="42.7664680" lon="-0.1780950">
        <ele>2106.8</ele>
        <time>2020-09-13T10:43:26Z</time>
      </trkpt>
      <trkpt lat="42.7664520" lon="-0.1781710">
        <ele>2107.8</ele>
        <time>2020-09-13T10:43:33Z</time>
      </trkpt>
      <trkpt lat="42.7664510" lon="-0.1782780">
        <ele>2108.8</ele>
        <time>2020-09-13T10:43:42Z</time>
      </trkpt>
      <trkpt lat="42.7664480" lon="-0.1782940">
        <ele>2109.0</ele>
        <time>2020-09-13T10:43:44Z</time>
      </trkpt>
      <trkpt lat="42.7664330" lon="-0.1783180">
        <ele>2109.8</ele>
        <time>2020-09-13T10:43:48Z</time>
      </trkpt>
      <trkpt lat="42.7663960" lon="-0.1783680">
        <ele>2111.0</ele>
        <time>2020-09-13T10:43:55Z</time>
      </trkpt>
      <trkpt lat="42.7663930" lon="-0.1784130">
        <ele>2112.0</ele>
        <time>2020-09-13T10:44:00Z</time>
      </trkpt>
      <trkpt lat="42.7664000" lon="-0.1784940">
        <ele>2113.2</ele>
        <time>2020-09-13T10:44:10Z</time>
      </trkpt>
      <trkpt lat="42.7664120" lon="-0.1785410">
        <ele>2114.2</ele>
        <time>2020-09-13T10:44:15Z</time>
      </trkpt>
      <trkpt lat="42.7664100" lon="-0.1785950">
        <ele>2115.2</ele>
        <time>2020-09-13T10:44:21Z</time>
      </trkpt>
      <trkpt lat="42.7663910" lon="-0.1786270">
        <ele>2116.4</ele>
        <time>2020-09-13T10:44:25Z</time>
      </trkpt>
      <trkpt lat="42.7663940" lon="-0.1786610">
        <ele>2117.4</ele>
        <time>2020-09-13T10:44:29Z</time>
      </trkpt>
      <trkpt lat="42.7664090" lon="-0.1787250">
        <ele>2118.4</ele>
        <time>2020-09-13T10:44:37Z</time>
      </trkpt>
      <trkpt lat="42.7664580" lon="-0.1788780">
        <ele>2119.4</ele>
        <time>2020-09-13T10:44:51Z</time>
      </trkpt>
      <trkpt lat="42.7664850" lon="-0.1789220">
        <ele>2120.2</ele>
        <time>2020-09-13T10:44:55Z</time>
      </trkpt>
      <trkpt lat="42.7664870" lon="-0.1789420">
        <ele>2120.4</ele>
        <time>2020-09-13T10:44:57Z</time>
      </trkpt>
      <trkpt lat="42.7664900" lon="-0.1789740">
        <ele>2120.8</ele>
        <time>2020-09-13T10:45:00Z</time>
      </trkpt>
      <trkpt lat="42.7665180" lon="-0.1790210">
        <ele>2121.6</ele>
        <time>2020-09-13T10:45:05Z</time>
      </trkpt>
      <trkpt lat="42.7665240" lon="-0.1790390">
        <ele>2121.6</ele>
        <time>2020-09-13T10:45:07Z</time>
      </trkpt>
      <trkpt lat="42.7665350" lon="-0.1790830">
        <ele>2122.6</ele>
        <time>2020-09-13T10:45:12Z</time>
      </trkpt>
      <trkpt lat="42.7665350" lon="-0.1791610">
        <ele>2123.6</ele>
        <time>2020-09-13T10:45:21Z</time>
      </trkpt>
      <trkpt lat="42.7665010" lon="-0.1792150">
        <ele>2124.8</ele>
        <time>2020-09-13T10:45:29Z</time>
      </trkpt>
      <trkpt lat="42.7664840" lon="-0.1792530">
        <ele>2125.8</ele>
        <time>2020-09-13T10:45:35Z</time>
      </trkpt>
      <trkpt lat="42.7664640" lon="-0.1792800">
        <ele>2127.0</ele>
        <time>2020-09-13T10:45:39Z</time>
      </trkpt>
      <trkpt lat="42.7664330" lon="-0.1793730">
        <ele>2128.2</ele>
        <time>2020-09-13T10:45:48Z</time>
      </trkpt>
      <trkpt lat="42.7663910" lon="-0.1794180">
        <ele>2129.2</ele>
        <time>2020-09-13T10:45:55Z</time>
      </trkpt>
      <trkpt lat="42.7663690" lon="-0.1794970">
        <ele>2130.4</ele>
        <time>2020-09-13T10:46:02Z</time>
      </trkpt>
      <trkpt lat="42.7663510" lon="-0.1795670">
        <ele>2131.6</ele>
        <time>2020-09-13T10:46:08Z</time>
      </trkpt>
      <trkpt lat="42.7663260" lon="-0.1796410">
        <ele>2132.2</ele>
        <time>2020-09-13T10:46:14Z</time>
      </trkpt>
      <trkpt lat="42.7663260" lon="-0.1796980">
        <ele>2132.4</ele>
        <time>2020-09-13T10:46:18Z</time>
      </trkpt>
      <trkpt lat="42.7663130" lon="-0.1797820">
        <ele>2132.6</ele>
        <time>2020-09-13T10:46:25Z</time>
      </trkpt>
      <trkpt lat="42.7663110" lon="-0.1797910">
        <ele>2132.8</ele>
        <time>2020-09-13T10:46:26Z</time>
      </trkpt>
      <trkpt lat="42.7662720" lon="-0.1798300">
        <ele>2133.6</ele>
        <time>2020-09-13T10:46:33Z</time>
      </trkpt>
      <trkpt lat="42.7662680" lon="-0.1798440">
        <ele>2133.8</ele>
        <time>2020-09-13T10:46:34Z</time>
      </trkpt>
      <trkpt lat="42.7662440" lon="-0.1798760">
        <ele>2134.6</ele>
        <time>2020-09-13T10:46:39Z</time>
      </trkpt>
      <trkpt lat="42.7662410" lon="-0.1798820">
        <ele>2134.8</ele>
        <time>2020-09-13T10:46:40Z</time>
      </trkpt>
      <trkpt lat="42.7662390" lon="-0.1798900">
        <ele>2134.8</ele>
        <time>2020-09-13T10:46:41Z</time>
      </trkpt>
      <trkpt lat="42.7662310" lon="-0.1799350">
        <ele>2135.0</ele>
        <time>2020-09-13T10:46:45Z</time>
      </trkpt>
      <trkpt lat="42.7662230" lon="-0.1799530">
        <ele>2135.4</ele>
        <time>2020-09-13T10:46:47Z</time>
      </trkpt>
      <trkpt lat="42.7662190" lon="-0.1799780">
        <ele>2135.8</ele>
        <time>2020-09-13T10:46:49Z</time>
      </trkpt>
      <trkpt lat="42.7662130" lon="-0.1799960">
        <ele>2136.2</ele>
        <time>2020-09-13T10:46:51Z</time>
      </trkpt>
      <trkpt lat="42.7662110" lon="-0.1800490">
        <ele>2136.6</ele>
        <time>2020-09-13T10:46:55Z</time>
      </trkpt>
      <trkpt lat="42.7662020" lon="-0.1800700">
        <ele>2137.0</ele>
        <time>2020-09-13T10:46:57Z</time>
      </trkpt>
      <trkpt lat="42.7661940" lon="-0.1801180">
        <ele>2137.2</ele>
        <time>2020-09-13T10:47:01Z</time>
      </trkpt>
      <trkpt lat="42.7661880" lon="-0.1801710">
        <ele>2137.8</ele>
        <time>2020-09-13T10:47:05Z</time>
      </trkpt>
      <trkpt lat="42.7661760" lon="-0.1801890">
        <ele>2138.0</ele>
        <time>2020-09-13T10:47:07Z</time>
      </trkpt>
      <trkpt lat="42.7661650" lon="-0.1802200">
        <ele>2138.4</ele>
        <time>2020-09-13T10:47:10Z</time>
      </trkpt>
      <trkpt lat="42.7661560" lon="-0.1802720">
        <ele>2139.2</ele>
        <time>2020-09-13T10:47:14Z</time>
      </trkpt>
      <trkpt lat="42.7661540" lon="-0.1802840">
        <ele>2139.4</ele>
        <time>2020-09-13T10:47:15Z</time>
      </trkpt>
      <trkpt lat="42.7661530" lon="-0.1803170">
        <ele>2140.0</ele>
        <time>2020-09-13T10:47:18Z</time>
      </trkpt>
      <trkpt lat="42.7661380" lon="-0.1803510">
        <ele>2140.2</ele>
        <time>2020-09-13T10:47:21Z</time>
      </trkpt>
      <trkpt lat="42.7661290" lon="-0.1803940">
        <ele>2140.6</ele>
        <time>2020-09-13T10:47:25Z</time>
      </trkpt>
      <trkpt lat="42.7661340" lon="-0.1804300">
        <ele>2141.2</ele>
        <time>2020-09-13T10:47:28Z</time>
      </trkpt>
      <trkpt lat="42.7661370" lon="-0.1804390">
        <ele>2141.2</ele>
        <time>2020-09-13T10:47:29Z</time>
      </trkpt>
      <trkpt lat="42.7661340" lon="-0.1804690">
        <ele>2141.6</ele>
        <time>2020-09-13T10:47:32Z</time>
      </trkpt>
      <trkpt lat="42.7661180" lon="-0.1804960">
        <ele>2142.4</ele>
        <time>2020-09-13T10:47:36Z</time>
      </trkpt>
      <trkpt lat="42.7660930" lon="-0.1805680">
        <ele>2143.4</ele>
        <time>2020-09-13T10:47:44Z</time>
      </trkpt>
      <trkpt lat="42.7661050" lon="-0.1806410">
        <ele>2144.4</ele>
        <time>2020-09-13T10:47:50Z</time>
      </trkpt>
      <trkpt lat="42.7660500" lon="-0.1806880">
        <ele>2145.4</ele>
        <time>2020-09-13T10:47:59Z</time>
      </trkpt>
      <trkpt lat="42.7659900" lon="-0.1807270">
        <ele>2146.6</ele>
        <time>2020-09-13T10:48:07Z</time>
      </trkpt>
      <trkpt lat="42.7659600" lon="-0.1807710">
        <ele>2147.8</ele>
        <time>2020-09-13T10:48:13Z</time>
      </trkpt>
      <trkpt lat="42.7659460" lon="-0.1808050">
        <ele>2148.8</ele>
        <time>2020-09-13T10:48:17Z</time>
      </trkpt>
      <trkpt lat="42.7659200" lon="-0.1808520">
        <ele>2150.0</ele>
        <time>2020-09-13T10:48:24Z</time>
      </trkpt>
      <trkpt lat="42.7659030" lon="-0.1808840">
        <ele>2151.0</ele>
        <time>2020-09-13T10:48:30Z</time>
      </trkpt>
      <trkpt lat="42.7658870" lon="-0.1809450">
        <ele>2152.0</ele>
        <time>2020-09-13T10:48:37Z</time>
      </trkpt>
      <trkpt lat="42.7658570" lon="-0.1810630">
        <ele>2153.2</ele>
        <time>2020-09-13T10:48:47Z</time>
      </trkpt>
      <trkpt lat="42.7658710" lon="-0.1811610">
        <ele>2154.2</ele>
        <time>2020-09-13T10:48:55Z</time>
      </trkpt>
      <trkpt lat="42.7658760" lon="-0.1812380">
        <ele>2154.8</ele>
        <time>2020-09-13T10:49:01Z</time>
      </trkpt>
      <trkpt lat="42.7658770" lon="-0.1812780">
        <ele>2155.2</ele>
        <time>2020-09-13T10:49:04Z</time>
      </trkpt>
      <trkpt lat="42.7658630" lon="-0.1812950">
        <ele>2155.6</ele>
        <time>2020-09-13T10:49:06Z</time>
      </trkpt>
      <trkpt lat="42.7658340" lon="-0.1813300">
        <ele>2156.2</ele>
        <time>2020-09-13T10:49:11Z</time>
      </trkpt>
      <trkpt lat="42.7658170" lon="-0.1813300">
        <ele>2156.6</ele>
        <time>2020-09-13T10:49:13Z</time>
      </trkpt>
      <trkpt lat="42.7657990" lon="-0.1813430">
        <ele>2157.0</ele>
        <time>2020-09-13T10:49:15Z</time>
      </trkpt>
      <trkpt lat="42.7657930" lon="-0.1813510">
        <ele>2157.2</ele>
        <time>2020-09-13T10:49:16Z</time>
      </trkpt>
      <trkpt lat="42.7657610" lon="-0.1813730">
        <ele>2158.2</ele>
        <time>2020-09-13T10:49:21Z</time>
      </trkpt>
      <trkpt lat="42.7657500" lon="-0.1813720">
        <ele>2158.4</ele>
        <time>2020-09-13T10:49:22Z</time>
      </trkpt>
      <trkpt lat="42.7657320" lon="-0.1813770">
        <ele>2158.8</ele>
        <time>2020-09-13T10:49:24Z</time>
      </trkpt>
      <trkpt lat="42.7657170" lon="-0.1814250">
        <ele>2159.6</ele>
        <time>2020-09-13T10:49:28Z</time>
      </trkpt>
      <trkpt lat="42.7657110" lon="-0.1814340">
        <ele>2159.8</ele>
        <time>2020-09-13T10:49:30Z</time>
      </trkpt>
      <trkpt lat="42.7656880" lon="-0.1814770">
        <ele>2160.8</ele>
        <time>2020-09-13T10:49:36Z</time>
      </trkpt>
      <trkpt lat="42.7656680" lon="-0.1815170">
        <ele>2161.4</ele>
        <time>2020-09-13T10:49:40Z</time>
      </trkpt>
      <trkpt lat="42.7656630" lon="-0.1815220">
        <ele>2161.6</ele>
        <time>2020-09-13T10:49:41Z</time>
      </trkpt>
      <trkpt lat="42.7656370" lon="-0.1815090">
        <ele>2161.8</ele>
        <time>2020-09-13T10:49:44Z</time>
      </trkpt>
      <trkpt lat="42.7656330" lon="-0.1815150">
        <ele>2161.8</ele>
        <time>2020-09-13T10:49:45Z</time>
      </trkpt>
      <trkpt lat="42.7656070" lon="-0.1815460">
        <ele>2162.4</ele>
        <time>2020-09-13T10:49:49Z</time>
      </trkpt>
      <trkpt lat="42.7655870" lon="-0.1815630">
        <ele>2162.8</ele>
        <time>2020-09-13T10:49:51Z</time>
      </trkpt>
      <trkpt lat="42.7655770" lon="-0.1815700">
        <ele>2162.8</ele>
        <time>2020-09-13T10:49:52Z</time>
      </trkpt>
      <trkpt lat="42.7655530" lon="-0.1815830">
        <ele>2163.6</ele>
        <time>2020-09-13T10:49:55Z</time>
      </trkpt>
      <trkpt lat="42.7655310" lon="-0.1815800">
        <ele>2164.0</ele>
        <time>2020-09-13T10:49:59Z</time>
      </trkpt>
      <trkpt lat="42.7655280" lon="-0.1815870">
        <ele>2164.2</ele>
        <time>2020-09-13T10:50:00Z</time>
      </trkpt>
      <trkpt lat="42.7655030" lon="-0.1816070">
        <ele>2164.8</ele>
        <time>2020-09-13T10:50:04Z</time>
      </trkpt>
      <trkpt lat="42.7654840" lon="-0.1816090">
        <ele>2164.8</ele>
        <time>2020-09-13T10:50:06Z</time>
      </trkpt>
      <trkpt lat="42.7654590" lon="-0.1816080">
        <ele>2164.8</ele>
        <time>2020-09-13T10:50:08Z</time>
      </trkpt>
      <trkpt lat="42.7654470" lon="-0.1816120">
        <ele>2165.0</ele>
        <time>2020-09-13T10:50:09Z</time>
      </trkpt>
      <trkpt lat="42.7654360" lon="-0.1816180">
        <ele>2165.2</ele>
        <time>2020-09-13T10:50:10Z</time>
      </trkpt>
      <trkpt lat="42.7654000" lon="-0.1816470">
        <ele>2166.0</ele>
        <time>2020-09-13T10:50:14Z</time>
      </trkpt>
      <trkpt lat="42.7653930" lon="-0.1816860">
        <ele>2166.4</ele>
        <time>2020-09-13T10:50:18Z</time>
      </trkpt>
      <trkpt lat="42.7653970" lon="-0.1817030">
        <ele>2166.6</ele>
        <time>2020-09-13T10:50:20Z</time>
      </trkpt>
      <trkpt lat="42.7653980" lon="-0.1817250">
        <ele>2166.8</ele>
        <time>2020-09-13T10:50:23Z</time>
      </trkpt>
      <trkpt lat="42.7653670" lon="-0.1817590">
        <ele>2167.0</ele>
        <time>2020-09-13T10:50:29Z</time>
      </trkpt>
      <trkpt lat="42.7653840" lon="-0.1818890">
        <ele>2167.4</ele>
        <time>2020-09-13T10:50:40Z</time>
      </trkpt>
      <trkpt lat="42.7653900" lon="-0.1819340">
        <ele>2168.0</ele>
        <time>2020-09-13T10:50:43Z</time>
      </trkpt>
      <trkpt lat="42.7654080" lon="-0.1819670">
        <ele>2168.2</ele>
        <time>2020-09-13T10:50:45Z</time>
      </trkpt>
      <trkpt lat="42.7654120" lon="-0.1820200">
        <ele>2168.2</ele>
        <time>2020-09-13T10:50:49Z</time>
      </trkpt>
      <trkpt lat="42.7654160" lon="-0.1820440">
        <ele>2168.2</ele>
        <time>2020-09-13T10:50:51Z</time>
      </trkpt>
      <trkpt lat="42.7654260" lon="-0.1822070">
        <ele>2169.2</ele>
        <time>2020-09-13T10:51:04Z</time>
      </trkpt>
      <trkpt lat="42.7654460" lon="-0.1822830">
        <ele>2169.4</ele>
        <time>2020-09-13T10:51:12Z</time>
      </trkpt>
      <trkpt lat="42.7654780" lon="-0.1823040">
        <ele>2169.6</ele>
        <time>2020-09-13T10:51:14Z</time>
      </trkpt>
      <trkpt lat="42.7654940" lon="-0.1823190">
        <ele>2169.8</ele>
        <time>2020-09-13T10:51:16Z</time>
      </trkpt>
      <trkpt lat="42.7655050" lon="-0.1823410">
        <ele>2169.8</ele>
        <time>2020-09-13T10:51:19Z</time>
      </trkpt>
      <trkpt lat="42.7654990" lon="-0.1823250">
        <ele>2170.2</ele>
        <time>2020-09-13T10:51:22Z</time>
      </trkpt>
      <trkpt lat="42.7654880" lon="-0.1823220">
        <ele>2170.6</ele>
        <time>2020-09-13T10:51:27Z</time>
      </trkpt>
      <trkpt lat="42.7654910" lon="-0.1823930">
        <ele>2170.6</ele>
        <time>2020-09-13T10:51:31Z</time>
      </trkpt>
      <trkpt lat="42.7655570" lon="-0.1825310">
        <ele>2169.4</ele>
        <time>2020-09-13T10:51:42Z</time>
      </trkpt>
      <trkpt lat="42.7655700" lon="-0.1825710">
        <ele>2169.4</ele>
        <time>2020-09-13T10:51:45Z</time>
      </trkpt>
      <trkpt lat="42.7655780" lon="-0.1826380">
        <ele>2169.4</ele>
        <time>2020-09-13T10:51:51Z</time>
      </trkpt>
      <trkpt lat="42.7656230" lon="-0.1826700">
        <ele>2169.8</ele>
        <time>2020-09-13T10:51:58Z</time>
      </trkpt>
      <trkpt lat="42.7656350" lon="-0.1826720">
        <ele>2170.0</ele>
        <time>2020-09-13T10:52:01Z</time>
      </trkpt>
      <trkpt lat="42.7656610" lon="-0.1827300">
        <ele>2170.6</ele>
        <time>2020-09-13T10:52:05Z</time>
      </trkpt>
      <trkpt lat="42.7656860" lon="-0.1828380">
        <ele>2171.2</ele>
        <time>2020-09-13T10:52:15Z</time>
      </trkpt>
      <trkpt lat="42.7656900" lon="-0.1828460">
        <ele>2171.4</ele>
        <time>2020-09-13T10:52:16Z</time>
      </trkpt>
      <trkpt lat="42.7657160" lon="-0.1829030">
        <ele>2171.8</ele>
        <time>2020-09-13T10:52:20Z</time>
      </trkpt>
      <trkpt lat="42.7657460" lon="-0.1829820">
        <ele>2172.4</ele>
        <time>2020-09-13T10:52:26Z</time>
      </trkpt>
      <trkpt lat="42.7657540" lon="-0.1829950">
        <ele>2172.4</ele>
        <time>2020-09-13T10:52:27Z</time>
      </trkpt>
      <trkpt lat="42.7657710" lon="-0.1830400">
        <ele>2172.8</ele>
        <time>2020-09-13T10:52:31Z</time>
      </trkpt>
      <trkpt lat="42.7657910" lon="-0.1831130">
        <ele>2173.4</ele>
        <time>2020-09-13T10:52:38Z</time>
      </trkpt>
      <trkpt lat="42.7657930" lon="-0.1831830">
        <ele>2174.0</ele>
        <time>2020-09-13T10:52:44Z</time>
      </trkpt>
      <trkpt lat="42.7657890" lon="-0.1832190">
        <ele>2174.4</ele>
        <time>2020-09-13T10:52:47Z</time>
      </trkpt>
      <trkpt lat="42.7657790" lon="-0.1832740">
        <ele>2174.6</ele>
        <time>2020-09-13T10:52:52Z</time>
      </trkpt>
      <trkpt lat="42.7657730" lon="-0.1832890">
        <ele>2174.6</ele>
        <time>2020-09-13T10:52:54Z</time>
      </trkpt>
      <trkpt lat="42.7657480" lon="-0.1833280">
        <ele>2174.6</ele>
        <time>2020-09-13T10:52:57Z</time>
      </trkpt>
      <trkpt lat="42.7657230" lon="-0.1834180">
        <ele>2175.4</ele>
        <time>2020-09-13T10:53:04Z</time>
      </trkpt>
      <trkpt lat="42.7656960" lon="-0.1834840">
        <ele>2176.4</ele>
        <time>2020-09-13T10:53:10Z</time>
      </trkpt>
      <trkpt lat="42.7656770" lon="-0.1835170">
        <ele>2177.2</ele>
        <time>2020-09-13T10:53:14Z</time>
      </trkpt>
      <trkpt lat="42.7656860" lon="-0.1835430">
        <ele>2177.6</ele>
        <time>2020-09-13T10:53:16Z</time>
      </trkpt>
      <trkpt lat="42.7656910" lon="-0.1835540">
        <ele>2177.8</ele>
        <time>2020-09-13T10:53:17Z</time>
      </trkpt>
      <trkpt lat="42.7657090" lon="-0.1836110">
        <ele>2178.8</ele>
        <time>2020-09-13T10:53:21Z</time>
      </trkpt>
      <trkpt lat="42.7657250" lon="-0.1837010">
        <ele>2179.8</ele>
        <time>2020-09-13T10:53:27Z</time>
      </trkpt>
      <trkpt lat="42.7657340" lon="-0.1837410">
        <ele>2181.0</ele>
        <time>2020-09-13T10:53:30Z</time>
      </trkpt>
      <trkpt lat="42.7657430" lon="-0.1837830">
        <ele>2181.4</ele>
        <time>2020-09-13T10:53:35Z</time>
      </trkpt>
      <trkpt lat="42.7656880" lon="-0.1838540">
        <ele>2182.2</ele>
        <time>2020-09-13T10:53:43Z</time>
      </trkpt>
      <trkpt lat="42.7656830" lon="-0.1838670">
        <ele>2182.6</ele>
        <time>2020-09-13T10:53:44Z</time>
      </trkpt>
      <trkpt lat="42.7656740" lon="-0.1839080">
        <ele>2183.4</ele>
        <time>2020-09-13T10:53:47Z</time>
      </trkpt>
      <trkpt lat="42.7656960" lon="-0.1840460">
        <ele>2183.4</ele>
        <time>2020-09-13T10:53:57Z</time>
      </trkpt>
      <trkpt lat="42.7657080" lon="-0.1840830">
        <ele>2182.6</ele>
        <time>2020-09-13T10:54:01Z</time>
      </trkpt>
      <trkpt lat="42.7657060" lon="-0.1840780">
        <ele>2182.4</ele>
        <time>2020-09-13T10:54:02Z</time>
      </trkpt>
      <trkpt lat="42.7657080" lon="-0.1841050">
        <ele>2181.4</ele>
        <time>2020-09-13T10:54:28Z</time>
      </trkpt>
      <trkpt lat="42.7657260" lon="-0.1841870">
        <ele>2181.2</ele>
        <time>2020-09-13T10:54:35Z</time>
      </trkpt>
      <trkpt lat="42.7657420" lon="-0.1842160">
        <ele>2181.8</ele>
        <time>2020-09-13T10:54:38Z</time>
      </trkpt>
      <trkpt lat="42.7657350" lon="-0.1842450">
        <ele>2182.0</ele>
        <time>2020-09-13T10:54:41Z</time>
      </trkpt>
      <trkpt lat="42.7657320" lon="-0.1842820">
        <ele>2182.6</ele>
        <time>2020-09-13T10:54:45Z</time>
      </trkpt>
      <trkpt lat="42.7656770" lon="-0.1843350">
        <ele>2183.2</ele>
        <time>2020-09-13T10:54:58Z</time>
      </trkpt>
      <trkpt lat="42.7656610" lon="-0.1843820">
        <ele>2184.0</ele>
        <time>2020-09-13T10:55:05Z</time>
      </trkpt>
      <trkpt lat="42.7656650" lon="-0.1844120">
        <ele>2185.0</ele>
        <time>2020-09-13T10:55:08Z</time>
      </trkpt>
      <trkpt lat="42.7656710" lon="-0.1844400">
        <ele>2186.2</ele>
        <time>2020-09-13T10:55:12Z</time>
      </trkpt>
      <trkpt lat="42.7656670" lon="-0.1844970">
        <ele>2187.4</ele>
        <time>2020-09-13T10:55:19Z</time>
      </trkpt>
      <trkpt lat="42.7656710" lon="-0.1845530">
        <ele>2188.4</ele>
        <time>2020-09-13T10:55:25Z</time>
      </trkpt>
      <trkpt lat="42.7656560" lon="-0.1845850">
        <ele>2189.4</ele>
        <time>2020-09-13T10:55:30Z</time>
      </trkpt>
      <trkpt lat="42.7656450" lon="-0.1846290">
        <ele>2190.4</ele>
        <time>2020-09-13T10:55:36Z</time>
      </trkpt>
      <trkpt lat="42.7656320" lon="-0.1846630">
        <ele>2191.6</ele>
        <time>2020-09-13T10:55:44Z</time>
      </trkpt>
      <trkpt lat="42.7656430" lon="-0.1847330">
        <ele>2192.8</ele>
        <time>2020-09-13T10:55:54Z</time>
      </trkpt>
      <trkpt lat="42.7656240" lon="-0.1847570">
        <ele>2193.8</ele>
        <time>2020-09-13T10:56:00Z</time>
      </trkpt>
      <trkpt lat="42.7656080" lon="-0.1847950">
        <ele>2194.8</ele>
        <time>2020-09-13T10:56:05Z</time>
      </trkpt>
      <trkpt lat="42.7655920" lon="-0.1848340">
        <ele>2196.0</ele>
        <time>2020-09-13T10:56:13Z</time>
      </trkpt>
      <trkpt lat="42.7655780" lon="-0.1849160">
        <ele>2197.0</ele>
        <time>2020-09-13T10:56:22Z</time>
      </trkpt>
      <trkpt lat="42.7655800" lon="-0.1849440">
        <ele>2198.0</ele>
        <time>2020-09-13T10:56:27Z</time>
      </trkpt>
      <trkpt lat="42.7655780" lon="-0.1849790">
        <ele>2199.2</ele>
        <time>2020-09-13T10:56:32Z</time>
      </trkpt>
      <trkpt lat="42.7655710" lon="-0.1850160">
        <ele>2200.2</ele>
        <time>2020-09-13T10:56:39Z</time>
      </trkpt>
      <trkpt lat="42.7655700" lon="-0.1850770">
        <ele>2201.4</ele>
        <time>2020-09-13T10:56:45Z</time>
      </trkpt>
      <trkpt lat="42.7655570" lon="-0.1851340">
        <ele>2202.4</ele>
        <time>2020-09-13T10:56:51Z</time>
      </trkpt>
      <trkpt lat="42.7655630" lon="-0.1851820">
        <ele>2203.6</ele>
        <time>2020-09-13T10:57:00Z</time>
      </trkpt>
      <trkpt lat="42.7655760" lon="-0.1852130">
        <ele>2204.6</ele>
        <time>2020-09-13T10:57:04Z</time>
      </trkpt>
      <trkpt lat="42.7655780" lon="-0.1852470">
        <ele>2205.8</ele>
        <time>2020-09-13T10:57:09Z</time>
      </trkpt>
      <trkpt lat="42.7655700" lon="-0.1852840">
        <ele>2207.0</ele>
        <time>2020-09-13T10:57:15Z</time>
      </trkpt>
      <trkpt lat="42.7655670" lon="-0.1853150">
        <ele>2208.0</ele>
        <time>2020-09-13T10:57:20Z</time>
      </trkpt>
      <trkpt lat="42.7655610" lon="-0.1853930">
        <ele>2209.2</ele>
        <time>2020-09-13T10:57:30Z</time>
      </trkpt>
      <trkpt lat="42.7655270" lon="-0.1854140">
        <ele>2210.4</ele>
        <time>2020-09-13T10:57:38Z</time>
      </trkpt>
      <trkpt lat="42.7655160" lon="-0.1854470">
        <ele>2211.4</ele>
        <time>2020-09-13T10:57:46Z</time>
      </trkpt>
      <trkpt lat="42.7655190" lon="-0.1855140">
        <ele>2212.4</ele>
        <time>2020-09-13T10:57:54Z</time>
      </trkpt>
      <trkpt lat="42.7655030" lon="-0.1855610">
        <ele>2213.4</ele>
        <time>2020-09-13T10:58:01Z</time>
      </trkpt>
      <trkpt lat="42.7654800" lon="-0.1856220">
        <ele>2214.6</ele>
        <time>2020-09-13T10:58:09Z</time>
      </trkpt>
      <trkpt lat="42.7654510" lon="-0.1857010">
        <ele>2215.8</ele>
        <time>2020-09-13T10:58:18Z</time>
      </trkpt>
      <trkpt lat="42.7654410" lon="-0.1858230">
        <ele>2216.8</ele>
        <time>2020-09-13T10:58:31Z</time>
      </trkpt>
      <trkpt lat="42.7654350" lon="-0.1858470">
        <ele>2218.0</ele>
        <time>2020-09-13T10:58:35Z</time>
      </trkpt>
      <trkpt lat="42.7654540" lon="-0.1858820">
        <ele>2219.0</ele>
        <time>2020-09-13T10:58:40Z</time>
      </trkpt>
      <trkpt lat="42.7654860" lon="-0.1859580">
        <ele>2220.2</ele>
        <time>2020-09-13T10:58:49Z</time>
      </trkpt>
      <trkpt lat="42.7655020" lon="-0.1860550">
        <ele>2221.2</ele>
        <time>2020-09-13T10:59:01Z</time>
      </trkpt>
      <trkpt lat="42.7655070" lon="-0.1861160">
        <ele>2222.2</ele>
        <time>2020-09-13T10:59:09Z</time>
      </trkpt>
      <trkpt lat="42.7655210" lon="-0.1861850">
        <ele>2223.4</ele>
        <time>2020-09-13T10:59:17Z</time>
      </trkpt>
      <trkpt lat="42.7655080" lon="-0.1862310">
        <ele>2224.4</ele>
        <time>2020-09-13T10:59:23Z</time>
      </trkpt>
      <trkpt lat="42.7655100" lon="-0.1862900">
        <ele>2225.4</ele>
        <time>2020-09-13T10:59:29Z</time>
      </trkpt>
      <trkpt lat="42.7654890" lon="-0.1863170">
        <ele>2226.6</ele>
        <time>2020-09-13T10:59:36Z</time>
      </trkpt>
      <trkpt lat="42.7654630" lon="-0.1863530">
        <ele>2227.6</ele>
        <time>2020-09-13T10:59:41Z</time>
      </trkpt>
      <trkpt lat="42.7654490" lon="-0.1863740">
        <ele>2228.6</ele>
        <time>2020-09-13T10:59:46Z</time>
      </trkpt>
      <trkpt lat="42.7654330" lon="-0.1863890">
        <ele>2229.6</ele>
        <time>2020-09-13T10:59:51Z</time>
      </trkpt>
      <trkpt lat="42.7654130" lon="-0.1864060">
        <ele>2230.8</ele>
        <time>2020-09-13T10:59:57Z</time>
      </trkpt>
      <trkpt lat="42.7654250" lon="-0.1864520">
        <ele>2231.8</ele>
        <time>2020-09-13T11:00:03Z</time>
      </trkpt>
      <trkpt lat="42.7654330" lon="-0.1864830">
        <ele>2233.0</ele>
        <time>2020-09-13T11:00:07Z</time>
      </trkpt>
      <trkpt lat="42.7654270" lon="-0.1865110">
        <ele>2234.0</ele>
        <time>2020-09-13T11:00:14Z</time>
      </trkpt>
      <trkpt lat="42.7654000" lon="-0.1865240">
        <ele>2235.0</ele>
        <time>2020-09-13T11:00:21Z</time>
      </trkpt>
      <trkpt lat="42.7654020" lon="-0.1864720">
        <ele>2235.2</ele>
        <time>2020-09-13T11:00:44Z</time>
      </trkpt>
      <trkpt lat="42.7653900" lon="-0.1865760">
        <ele>2235.0</ele>
        <time>2020-09-13T11:01:47Z</time>
      </trkpt>
      <trkpt lat="42.7653560" lon="-0.1865270">
        <ele>2236.0</ele>
        <time>2020-09-13T11:02:02Z</time>
      </trkpt>
      <trkpt lat="42.7653300" lon="-0.1865710">
        <ele>2237.2</ele>
        <time>2020-09-13T11:02:09Z</time>
      </trkpt>
      <trkpt lat="42.7653150" lon="-0.1865910">
        <ele>2238.6</ele>
        <time>2020-09-13T11:02:13Z</time>
      </trkpt>
      <trkpt lat="42.7653140" lon="-0.1866220">
        <ele>2239.6</ele>
        <time>2020-09-13T11:02:18Z</time>
      </trkpt>
      <trkpt lat="42.7653260" lon="-0.1866620">
        <ele>2240.8</ele>
        <time>2020-09-13T11:02:24Z</time>
      </trkpt>
      <trkpt lat="42.7653270" lon="-0.1867040">
        <ele>2242.0</ele>
        <time>2020-09-13T11:02:29Z</time>
      </trkpt>
      <trkpt lat="42.7653300" lon="-0.1867290">
        <ele>2243.2</ele>
        <time>2020-09-13T11:02:33Z</time>
      </trkpt>
      <trkpt lat="42.7653360" lon="-0.1867850">
        <ele>2244.2</ele>
        <time>2020-09-13T11:02:39Z</time>
      </trkpt>
      <trkpt lat="42.7653460" lon="-0.1868320">
        <ele>2245.4</ele>
        <time>2020-09-13T11:02:45Z</time>
      </trkpt>
      <trkpt lat="42.7653510" lon="-0.1870020">
        <ele>2246.4</ele>
        <time>2020-09-13T11:03:01Z</time>
      </trkpt>
      <trkpt lat="42.7653640" lon="-0.1871510">
        <ele>2247.4</ele>
        <time>2020-09-13T11:03:10Z</time>
      </trkpt>
      <trkpt lat="42.7653680" lon="-0.1871870">
        <ele>2247.6</ele>
        <time>2020-09-13T11:03:13Z</time>
      </trkpt>
      <trkpt lat="42.7653650" lon="-0.1872890">
        <ele>2248.4</ele>
        <time>2020-09-13T11:03:21Z</time>
      </trkpt>
      <trkpt lat="42.7653560" lon="-0.1873560">
        <ele>2249.6</ele>
        <time>2020-09-13T11:03:28Z</time>
      </trkpt>
      <trkpt lat="42.7653520" lon="-0.1873590">
        <ele>2249.6</ele>
        <time>2020-09-13T11:03:29Z</time>
      </trkpt>
      <trkpt lat="42.7653480" lon="-0.1873980">
        <ele>2250.6</ele>
        <time>2020-09-13T11:03:34Z</time>
      </trkpt>
      <trkpt lat="42.7653430" lon="-0.1874550">
        <ele>2251.8</ele>
        <time>2020-09-13T11:03:40Z</time>
      </trkpt>
      <trkpt lat="42.7653350" lon="-0.1875110">
        <ele>2252.8</ele>
        <time>2020-09-13T11:03:45Z</time>
      </trkpt>
      <trkpt lat="42.7653390" lon="-0.1875790">
        <ele>2253.8</ele>
        <time>2020-09-13T11:03:51Z</time>
      </trkpt>
      <trkpt lat="42.7653200" lon="-0.1876380">
        <ele>2255.0</ele>
        <time>2020-09-13T11:03:57Z</time>
      </trkpt>
      <trkpt lat="42.7653310" lon="-0.1876680">
        <ele>2255.8</ele>
        <time>2020-09-13T11:04:00Z</time>
      </trkpt>
      <trkpt lat="42.7653320" lon="-0.1876870">
        <ele>2256.2</ele>
        <time>2020-09-13T11:04:01Z</time>
      </trkpt>
      <trkpt lat="42.7653390" lon="-0.1877120">
        <ele>2256.4</ele>
        <time>2020-09-13T11:04:03Z</time>
      </trkpt>
      <trkpt lat="42.7653560" lon="-0.1877520">
        <ele>2256.8</ele>
        <time>2020-09-13T11:04:07Z</time>
      </trkpt>
      <trkpt lat="42.7653570" lon="-0.1877790">
        <ele>2257.2</ele>
        <time>2020-09-13T11:04:10Z</time>
      </trkpt>
      <trkpt lat="42.7653590" lon="-0.1877880">
        <ele>2257.2</ele>
        <time>2020-09-13T11:04:11Z</time>
      </trkpt>
      <trkpt lat="42.7653660" lon="-0.1878170">
        <ele>2258.2</ele>
        <time>2020-09-13T11:04:17Z</time>
      </trkpt>
      <trkpt lat="42.7653670" lon="-0.1878550">
        <ele>2259.4</ele>
        <time>2020-09-13T11:04:23Z</time>
      </trkpt>
      <trkpt lat="42.7653690" lon="-0.1878920">
        <ele>2260.6</ele>
        <time>2020-09-13T11:04:29Z</time>
      </trkpt>
      <trkpt lat="42.7653750" lon="-0.1879130">
        <ele>2261.6</ele>
        <time>2020-09-13T11:04:35Z</time>
      </trkpt>
      <trkpt lat="42.7654050" lon="-0.1879470">
        <ele>2262.8</ele>
        <time>2020-09-13T11:04:42Z</time>
      </trkpt>
      <trkpt lat="42.7654350" lon="-0.1879820">
        <ele>2263.8</ele>
        <time>2020-09-13T11:04:48Z</time>
      </trkpt>
      <trkpt lat="42.7654420" lon="-0.1880270">
        <ele>2264.8</ele>
        <time>2020-09-13T11:04:54Z</time>
      </trkpt>
      <trkpt lat="42.7654400" lon="-0.1880640">
        <ele>2265.8</ele>
        <time>2020-09-13T11:05:00Z</time>
      </trkpt>
      <trkpt lat="42.7654370" lon="-0.1880890">
        <ele>2267.0</ele>
        <time>2020-09-13T11:05:07Z</time>
      </trkpt>
      <trkpt lat="42.7654270" lon="-0.1881130">
        <ele>2268.2</ele>
        <time>2020-09-13T11:05:12Z</time>
      </trkpt>
      <trkpt lat="42.7654420" lon="-0.1881580">
        <ele>2269.2</ele>
        <time>2020-09-13T11:05:19Z</time>
      </trkpt>
      <trkpt lat="42.7654610" lon="-0.1881870">
        <ele>2270.4</ele>
        <time>2020-09-13T11:05:24Z</time>
      </trkpt>
      <trkpt lat="42.7654730" lon="-0.1882510">
        <ele>2271.4</ele>
        <time>2020-09-13T11:05:32Z</time>
      </trkpt>
      <trkpt lat="42.7654690" lon="-0.1882740">
        <ele>2272.4</ele>
        <time>2020-09-13T11:05:36Z</time>
      </trkpt>
      <trkpt lat="42.7654720" lon="-0.1883010">
        <ele>2273.6</ele>
        <time>2020-09-13T11:05:43Z</time>
      </trkpt>
      <trkpt lat="42.7654610" lon="-0.1883300">
        <ele>2274.6</ele>
        <time>2020-09-13T11:05:49Z</time>
      </trkpt>
      <trkpt lat="42.7654380" lon="-0.1883470">
        <ele>2275.8</ele>
        <time>2020-09-13T11:05:55Z</time>
      </trkpt>
      <trkpt lat="42.7654410" lon="-0.1883640">
        <ele>2276.8</ele>
        <time>2020-09-13T11:05:59Z</time>
      </trkpt>
      <trkpt lat="42.7654530" lon="-0.1883960">
        <ele>2277.8</ele>
        <time>2020-09-13T11:06:04Z</time>
      </trkpt>
      <trkpt lat="42.7654930" lon="-0.1884940">
        <ele>2279.0</ele>
        <time>2020-09-13T11:06:16Z</time>
      </trkpt>
      <trkpt lat="42.7654850" lon="-0.1885250">
        <ele>2280.2</ele>
        <time>2020-09-13T11:06:21Z</time>
      </trkpt>
      <trkpt lat="42.7654730" lon="-0.1885590">
        <ele>2281.2</ele>
        <time>2020-09-13T11:06:26Z</time>
      </trkpt>
      <trkpt lat="42.7654800" lon="-0.1886110">
        <ele>2282.4</ele>
        <time>2020-09-13T11:06:35Z</time>
      </trkpt>
      <trkpt lat="42.7654770" lon="-0.1886370">
        <ele>2283.4</ele>
        <time>2020-09-13T11:06:41Z</time>
      </trkpt>
      <trkpt lat="42.7654650" lon="-0.1886720">
        <ele>2284.6</ele>
        <time>2020-09-13T11:06:47Z</time>
      </trkpt>
      <trkpt lat="42.7654650" lon="-0.1887310">
        <ele>2285.6</ele>
        <time>2020-09-13T11:06:54Z</time>
      </trkpt>
      <trkpt lat="42.7654490" lon="-0.1887690">
        <ele>2286.6</ele>
        <time>2020-09-13T11:06:59Z</time>
      </trkpt>
      <trkpt lat="42.7654360" lon="-0.1887850">
        <ele>2287.2</ele>
        <time>2020-09-13T11:07:01Z</time>
      </trkpt>
      <trkpt lat="42.7654300" lon="-0.1888030">
        <ele>2287.6</ele>
        <time>2020-09-13T11:07:03Z</time>
      </trkpt>
      <trkpt lat="42.7654230" lon="-0.1888630">
        <ele>2288.8</ele>
        <time>2020-09-13T11:07:09Z</time>
      </trkpt>
      <trkpt lat="42.7654200" lon="-0.1888660">
        <ele>2289.0</ele>
        <time>2020-09-13T11:07:10Z</time>
      </trkpt>
      <trkpt lat="42.7653840" lon="-0.1888830">
        <ele>2289.8</ele>
        <time>2020-09-13T11:07:17Z</time>
      </trkpt>
      <trkpt lat="42.7653540" lon="-0.1888770">
        <ele>2290.8</ele>
        <time>2020-09-13T11:07:22Z</time>
      </trkpt>
      <trkpt lat="42.7653330" lon="-0.1888750">
        <ele>2292.0</ele>
        <time>2020-09-13T11:07:27Z</time>
      </trkpt>
      <trkpt lat="42.7653050" lon="-0.1889030">
        <ele>2293.0</ele>
        <time>2020-09-13T11:07:33Z</time>
      </trkpt>
      <trkpt lat="42.7652980" lon="-0.1889220">
        <ele>2294.4</ele>
        <time>2020-09-13T11:07:37Z</time>
      </trkpt>
      <trkpt lat="42.7652660" lon="-0.1889710">
        <ele>2295.4</ele>
        <time>2020-09-13T11:07:45Z</time>
      </trkpt>
      <trkpt lat="42.7652420" lon="-0.1889830">
        <ele>2296.6</ele>
        <time>2020-09-13T11:07:50Z</time>
      </trkpt>
      <trkpt lat="42.7652130" lon="-0.1890400">
        <ele>2297.6</ele>
        <time>2020-09-13T11:07:58Z</time>
      </trkpt>
      <trkpt lat="42.7651990" lon="-0.1891250">
        <ele>2298.6</ele>
        <time>2020-09-13T11:08:06Z</time>
      </trkpt>
      <trkpt lat="42.7651880" lon="-0.1891820">
        <ele>2299.8</ele>
        <time>2020-09-13T11:08:12Z</time>
      </trkpt>
      <trkpt lat="42.7650920" lon="-0.1892860">
        <ele>2300.8</ele>
        <time>2020-09-13T11:08:27Z</time>
      </trkpt>
      <trkpt lat="42.7650410" lon="-0.1895050">
        <ele>2301.6</ele>
        <time>2020-09-13T11:08:44Z</time>
      </trkpt>
      <trkpt lat="42.7650000" lon="-0.1896810">
        <ele>2301.8</ele>
        <time>2020-09-13T11:08:56Z</time>
      </trkpt>
      <trkpt lat="42.7649540" lon="-0.1897870">
        <ele>2302.2</ele>
        <time>2020-09-13T11:09:06Z</time>
      </trkpt>
      <trkpt lat="42.7649050" lon="-0.1899610">
        <ele>2302.8</ele>
        <time>2020-09-13T11:09:18Z</time>
      </trkpt>
      <trkpt lat="42.7649030" lon="-0.1900420">
        <ele>2303.4</ele>
        <time>2020-09-13T11:09:23Z</time>
      </trkpt>
      <trkpt lat="42.7648920" lon="-0.1901150">
        <ele>2304.0</ele>
        <time>2020-09-13T11:09:29Z</time>
      </trkpt>
      <trkpt lat="42.7648780" lon="-0.1901700">
        <ele>2304.2</ele>
        <time>2020-09-13T11:09:33Z</time>
      </trkpt>
      <trkpt lat="42.7648180" lon="-0.1902650">
        <ele>2305.2</ele>
        <time>2020-09-13T11:09:43Z</time>
      </trkpt>
      <trkpt lat="42.7647920" lon="-0.1903350">
        <ele>2305.8</ele>
        <time>2020-09-13T11:09:48Z</time>
      </trkpt>
      <trkpt lat="42.7647820" lon="-0.1903730">
        <ele>2305.6</ele>
        <time>2020-09-13T11:09:51Z</time>
      </trkpt>
      <trkpt lat="42.7647700" lon="-0.1904180">
        <ele>2306.0</ele>
        <time>2020-09-13T11:09:54Z</time>
      </trkpt>
      <trkpt lat="42.7647690" lon="-0.1904500">
        <ele>2306.4</ele>
        <time>2020-09-13T11:09:56Z</time>
      </trkpt>
      <trkpt lat="42.7647240" lon="-0.1906040">
        <ele>2306.8</ele>
        <time>2020-09-13T11:10:06Z</time>
      </trkpt>
      <trkpt lat="42.7647120" lon="-0.1906300">
        <ele>2307.0</ele>
        <time>2020-09-13T11:10:08Z</time>
      </trkpt>
      <trkpt lat="42.7647190" lon="-0.1906590">
        <ele>2307.4</ele>
        <time>2020-09-13T11:10:10Z</time>
      </trkpt>
      <trkpt lat="42.7647190" lon="-0.1907820">
        <ele>2308.0</ele>
        <time>2020-09-13T11:10:19Z</time>
      </trkpt>
      <trkpt lat="42.7646990" lon="-0.1907880">
        <ele>2308.4</ele>
        <time>2020-09-13T11:10:21Z</time>
      </trkpt>
      <trkpt lat="42.7646790" lon="-0.1908280">
        <ele>2309.6</ele>
        <time>2020-09-13T11:10:25Z</time>
      </trkpt>
      <trkpt lat="42.7646680" lon="-0.1908460">
        <ele>2309.8</ele>
        <time>2020-09-13T11:10:27Z</time>
      </trkpt>
      <trkpt lat="42.7646550" lon="-0.1908820">
        <ele>2309.8</ele>
        <time>2020-09-13T11:10:29Z</time>
      </trkpt>
      <trkpt lat="42.7646460" lon="-0.1909150">
        <ele>2310.4</ele>
        <time>2020-09-13T11:10:32Z</time>
      </trkpt>
      <trkpt lat="42.7646370" lon="-0.1909400">
        <ele>2310.6</ele>
        <time>2020-09-13T11:10:34Z</time>
      </trkpt>
      <trkpt lat="42.7646330" lon="-0.1909670">
        <ele>2311.0</ele>
        <time>2020-09-13T11:10:36Z</time>
      </trkpt>
      <trkpt lat="42.7646340" lon="-0.1909920">
        <ele>2311.2</ele>
        <time>2020-09-13T11:10:38Z</time>
      </trkpt>
      <trkpt lat="42.7646300" lon="-0.1910430">
        <ele>2311.6</ele>
        <time>2020-09-13T11:10:42Z</time>
      </trkpt>
      <trkpt lat="42.7646300" lon="-0.1910590">
        <ele>2311.8</ele>
        <time>2020-09-13T11:10:43Z</time>
      </trkpt>
      <trkpt lat="42.7646400" lon="-0.1910930">
        <ele>2311.8</ele>
        <time>2020-09-13T11:10:46Z</time>
      </trkpt>
      <trkpt lat="42.7646230" lon="-0.1911370">
        <ele>2312.2</ele>
        <time>2020-09-13T11:10:51Z</time>
      </trkpt>
      <trkpt lat="42.7646100" lon="-0.1911480">
        <ele>2312.6</ele>
        <time>2020-09-13T11:10:53Z</time>
      </trkpt>
      <trkpt lat="42.7646060" lon="-0.1911570">
        <ele>2312.8</ele>
        <time>2020-09-13T11:10:54Z</time>
      </trkpt>
      <trkpt lat="42.7646020" lon="-0.1911660">
        <ele>2313.2</ele>
        <time>2020-09-13T11:10:55Z</time>
      </trkpt>
      <trkpt lat="42.7646120" lon="-0.1912210">
        <ele>2313.2</ele>
        <time>2020-09-13T11:10:59Z</time>
      </trkpt>
      <trkpt lat="42.7646010" lon="-0.1912760">
        <ele>2313.4</ele>
        <time>2020-09-13T11:11:04Z</time>
      </trkpt>
      <trkpt lat="42.7645880" lon="-0.1913130">
        <ele>2314.2</ele>
        <time>2020-09-13T11:11:09Z</time>
      </trkpt>
      <trkpt lat="42.7645820" lon="-0.1913900">
        <ele>2315.2</ele>
        <time>2020-09-13T11:11:17Z</time>
      </trkpt>
      <trkpt lat="42.7645780" lon="-0.1914000">
        <ele>2315.2</ele>
        <time>2020-09-13T11:11:18Z</time>
      </trkpt>
      <trkpt lat="42.7645490" lon="-0.1914890">
        <ele>2315.2</ele>
        <time>2020-09-13T11:11:27Z</time>
      </trkpt>
      <trkpt lat="42.7645030" lon="-0.1916600">
        <ele>2316.2</ele>
        <time>2020-09-13T11:11:51Z</time>
      </trkpt>
      <trkpt lat="42.7644220" lon="-0.1917780">
        <ele>2316.4</ele>
        <time>2020-09-13T11:12:30Z</time>
      </trkpt>
      <trkpt lat="42.7644220" lon="-0.1918520">
        <ele>2315.6</ele>
        <time>2020-09-13T11:12:45Z</time>
      </trkpt>
      <trkpt lat="42.7644030" lon="-0.1918780">
        <ele>2315.4</ele>
        <time>2020-09-13T11:12:48Z</time>
      </trkpt>
      <trkpt lat="42.7643150" lon="-0.1919960">
        <ele>2316.0</ele>
        <time>2020-09-13T11:13:01Z</time>
      </trkpt>
      <trkpt lat="42.7643070" lon="-0.1920360">
        <ele>2315.2</ele>
        <time>2020-09-13T11:13:04Z</time>
      </trkpt>
      <trkpt lat="42.7642980" lon="-0.1920430">
        <ele>2315.0</ele>
        <time>2020-09-13T11:13:05Z</time>
      </trkpt>
      <trkpt lat="42.7642600" lon="-0.1920680">
        <ele>2315.0</ele>
        <time>2020-09-13T11:13:09Z</time>
      </trkpt>
      <trkpt lat="42.7642260" lon="-0.1921100">
        <ele>2315.2</ele>
        <time>2020-09-13T11:13:14Z</time>
      </trkpt>
      <trkpt lat="42.7641970" lon="-0.1922060">
        <ele>2316.0</ele>
        <time>2020-09-13T11:13:23Z</time>
      </trkpt>
      <trkpt lat="42.7641890" lon="-0.1922250">
        <ele>2316.2</ele>
        <time>2020-09-13T11:13:25Z</time>
      </trkpt>
      <trkpt lat="42.7641760" lon="-0.1922260">
        <ele>2316.2</ele>
        <time>2020-09-13T11:13:27Z</time>
      </trkpt>
      <trkpt lat="42.7641520" lon="-0.1921980">
        <ele>2316.6</ele>
        <time>2020-09-13T11:13:30Z</time>
      </trkpt>
      <trkpt lat="42.7641450" lon="-0.1921840">
        <ele>2316.8</ele>
        <time>2020-09-13T11:13:32Z</time>
      </trkpt>
      <trkpt lat="42.7640140" lon="-0.1923240">
        <ele>2316.6</ele>
        <time>2020-09-13T11:13:58Z</time>
      </trkpt>
      <trkpt lat="42.7639510" lon="-0.1924030">
        <ele>2316.2</ele>
        <time>2020-09-13T11:14:10Z</time>
      </trkpt>
      <trkpt lat="42.7638710" lon="-0.1924750">
        <ele>2317.2</ele>
        <time>2020-09-13T11:14:26Z</time>
      </trkpt>
      <trkpt lat="42.7637730" lon="-0.1925900">
        <ele>2318.2</ele>
        <time>2020-09-13T11:14:44Z</time>
      </trkpt>
      <trkpt lat="42.7636810" lon="-0.1927970">
        <ele>2317.4</ele>
        <time>2020-09-13T11:15:10Z</time>
      </trkpt>
      <trkpt lat="42.7636760" lon="-0.1928360">
        <ele>2317.2</ele>
        <time>2020-09-13T11:15:21Z</time>
      </trkpt>
      <trkpt lat="42.7636840" lon="-0.1928030">
        <ele>2317.0</ele>
        <time>2020-09-13T11:15:59Z</time>
      </trkpt>
      <trkpt lat="42.7636810" lon="-0.1928250">
        <ele>2318.2</ele>
        <time>2020-09-13T11:16:09Z</time>
      </trkpt>
      <trkpt lat="42.7636880" lon="-0.1928670">
        <ele>2319.4</ele>
        <time>2020-09-13T11:16:17Z</time>
      </trkpt>
      <trkpt lat="42.7636580" lon="-0.1929210">
        <ele>2320.4</ele>
        <time>2020-09-13T11:16:22Z</time>
      </trkpt>
      <trkpt lat="42.7636790" lon="-0.1929190">
        <ele>2321.4</ele>
        <time>2020-09-13T11:16:42Z</time>
      </trkpt>
      <trkpt lat="42.7636750" lon="-0.1928870">
        <ele>2320.6</ele>
        <time>2020-09-13T11:17:34Z</time>
      </trkpt>
      <trkpt lat="42.7636750" lon="-0.1929350">
        <ele>2320.6</ele>
        <time>2020-09-13T11:17:37Z</time>
      </trkpt>
      <trkpt lat="42.7636650" lon="-0.1929840">
        <ele>2321.4</ele>
        <time>2020-09-13T11:17:41Z</time>
      </trkpt>
      <trkpt lat="42.7636290" lon="-0.1930460">
        <ele>2322.2</ele>
        <time>2020-09-13T11:17:49Z</time>
      </trkpt>
      <trkpt lat="42.7636150" lon="-0.1930820">
        <ele>2322.0</ele>
        <time>2020-09-13T11:17:53Z</time>
      </trkpt>
      <trkpt lat="42.7636080" lon="-0.1931050">
        <ele>2322.2</ele>
        <time>2020-09-13T11:17:55Z</time>
      </trkpt>
      <trkpt lat="42.7636130" lon="-0.1931280">
        <ele>2322.6</ele>
        <time>2020-09-13T11:17:57Z</time>
      </trkpt>
      <trkpt lat="42.7636080" lon="-0.1931640">
        <ele>2323.0</ele>
        <time>2020-09-13T11:18:00Z</time>
      </trkpt>
      <trkpt lat="42.7635850" lon="-0.1931790">
        <ele>2323.2</ele>
        <time>2020-09-13T11:18:03Z</time>
      </trkpt>
      <trkpt lat="42.7635680" lon="-0.1931960">
        <ele>2323.4</ele>
        <time>2020-09-13T11:18:06Z</time>
      </trkpt>
      <trkpt lat="42.7635660" lon="-0.1932240">
        <ele>2323.4</ele>
        <time>2020-09-13T11:18:09Z</time>
      </trkpt>
      <trkpt lat="42.7635660" lon="-0.1932360">
        <ele>2323.4</ele>
        <time>2020-09-13T11:18:11Z</time>
      </trkpt>
      <trkpt lat="42.7635680" lon="-0.1932430">
        <ele>2323.6</ele>
        <time>2020-09-13T11:18:12Z</time>
      </trkpt>
      <trkpt lat="42.7635700" lon="-0.1932610">
        <ele>2324.2</ele>
        <time>2020-09-13T11:18:15Z</time>
      </trkpt>
      <trkpt lat="42.7635690" lon="-0.1932700">
        <ele>2324.6</ele>
        <time>2020-09-13T11:18:16Z</time>
      </trkpt>
      <trkpt lat="42.7635550" lon="-0.1932720">
        <ele>2325.4</ele>
        <time>2020-09-13T11:18:19Z</time>
      </trkpt>
      <trkpt lat="42.7635440" lon="-0.1932720">
        <ele>2325.6</ele>
        <time>2020-09-13T11:18:21Z</time>
      </trkpt>
      <trkpt lat="42.7635320" lon="-0.1933460">
        <ele>2326.8</ele>
        <time>2020-09-13T11:18:28Z</time>
      </trkpt>
      <trkpt lat="42.7635100" lon="-0.1934030">
        <ele>2327.8</ele>
        <time>2020-09-13T11:18:33Z</time>
      </trkpt>
      <trkpt lat="42.7635010" lon="-0.1934160">
        <ele>2328.0</ele>
        <time>2020-09-13T11:18:35Z</time>
      </trkpt>
      <trkpt lat="42.7634800" lon="-0.1934580">
        <ele>2328.8</ele>
        <time>2020-09-13T11:18:40Z</time>
      </trkpt>
      <trkpt lat="42.7634740" lon="-0.1934710">
        <ele>2329.0</ele>
        <time>2020-09-13T11:18:42Z</time>
      </trkpt>
      <trkpt lat="42.7634770" lon="-0.1935190">
        <ele>2330.2</ele>
        <time>2020-09-13T11:18:49Z</time>
      </trkpt>
      <trkpt lat="42.7634820" lon="-0.1935640">
        <ele>2331.4</ele>
        <time>2020-09-13T11:18:55Z</time>
      </trkpt>
      <trkpt lat="42.7634780" lon="-0.1936080">
        <ele>2332.6</ele>
        <time>2020-09-13T11:19:01Z</time>
      </trkpt>
      <trkpt lat="42.7634480" lon="-0.1936110">
        <ele>2333.6</ele>
        <time>2020-09-13T11:19:06Z</time>
      </trkpt>
      <trkpt lat="42.7634170" lon="-0.1937010">
        <ele>2334.8</ele>
        <time>2020-09-13T11:19:16Z</time>
      </trkpt>
      <trkpt lat="42.7634230" lon="-0.1937450">
        <ele>2335.8</ele>
        <time>2020-09-13T11:19:24Z</time>
      </trkpt>
      <trkpt lat="42.7634280" lon="-0.1937820">
        <ele>2337.0</ele>
        <time>2020-09-13T11:19:29Z</time>
      </trkpt>
      <trkpt lat="42.7634120" lon="-0.1937690">
        <ele>2338.2</ele>
        <time>2020-09-13T11:19:33Z</time>
      </trkpt>
      <trkpt lat="42.7634160" lon="-0.1937920">
        <ele>2338.2</ele>
        <time>2020-09-13T11:20:35Z</time>
      </trkpt>
      <trkpt lat="42.7634710" lon="-0.1938320">
        <ele>2339.2</ele>
        <time>2020-09-13T11:21:01Z</time>
      </trkpt>
      <trkpt lat="42.7634260" lon="-0.1939510">
        <ele>2339.8</ele>
        <time>2020-09-13T11:21:34Z</time>
      </trkpt>
      <trkpt lat="42.7634170" lon="-0.1939720">
        <ele>2340.2</ele>
        <time>2020-09-13T11:21:37Z</time>
      </trkpt>
      <trkpt lat="42.7634140" lon="-0.1939830">
        <ele>2340.6</ele>
        <time>2020-09-13T11:21:39Z</time>
      </trkpt>
      <trkpt lat="42.7633730" lon="-0.1940460">
        <ele>2341.2</ele>
        <time>2020-09-13T11:21:48Z</time>
      </trkpt>
      <trkpt lat="42.7633730" lon="-0.1940570">
        <ele>2341.4</ele>
        <time>2020-09-13T11:21:49Z</time>
      </trkpt>
      <trkpt lat="42.7633760" lon="-0.1940660">
        <ele>2341.6</ele>
        <time>2020-09-13T11:21:50Z</time>
      </trkpt>
      <trkpt lat="42.7633820" lon="-0.1941410">
        <ele>2342.4</ele>
        <time>2020-09-13T11:21:55Z</time>
      </trkpt>
      <trkpt lat="42.7633810" lon="-0.1941700">
        <ele>2342.8</ele>
        <time>2020-09-13T11:21:57Z</time>
      </trkpt>
      <trkpt lat="42.7633800" lon="-0.1942030">
        <ele>2343.2</ele>
        <time>2020-09-13T11:21:59Z</time>
      </trkpt>
      <trkpt lat="42.7633830" lon="-0.1942390">
        <ele>2343.4</ele>
        <time>2020-09-13T11:22:02Z</time>
      </trkpt>
      <trkpt lat="42.7633870" lon="-0.1942410">
        <ele>2343.4</ele>
        <time>2020-09-13T11:22:03Z</time>
      </trkpt>
      <trkpt lat="42.7633900" lon="-0.1942630">
        <ele>2343.8</ele>
        <time>2020-09-13T11:22:05Z</time>
      </trkpt>
      <trkpt lat="42.7633910" lon="-0.1942780">
        <ele>2344.0</ele>
        <time>2020-09-13T11:22:07Z</time>
      </trkpt>
      <trkpt lat="42.7633860" lon="-0.1943190">
        <ele>2344.6</ele>
        <time>2020-09-13T11:22:10Z</time>
      </trkpt>
      <trkpt lat="42.7633810" lon="-0.1943340">
        <ele>2344.8</ele>
        <time>2020-09-13T11:22:12Z</time>
      </trkpt>
      <trkpt lat="42.7633750" lon="-0.1943380">
        <ele>2344.8</ele>
        <time>2020-09-13T11:22:14Z</time>
      </trkpt>
      <trkpt lat="42.7633770" lon="-0.1943490">
        <ele>2344.8</ele>
        <time>2020-09-13T11:22:16Z</time>
      </trkpt>
      <trkpt lat="42.7633570" lon="-0.1943870">
        <ele>2345.6</ele>
        <time>2020-09-13T11:22:29Z</time>
      </trkpt>
      <trkpt lat="42.7633600" lon="-0.1944140">
        <ele>2346.8</ele>
        <time>2020-09-13T11:22:34Z</time>
      </trkpt>
      <trkpt lat="42.7633440" lon="-0.1944300">
        <ele>2348.0</ele>
        <time>2020-09-13T11:22:39Z</time>
      </trkpt>
      <trkpt lat="42.7633430" lon="-0.1944610">
        <ele>2349.0</ele>
        <time>2020-09-13T11:22:44Z</time>
      </trkpt>
      <trkpt lat="42.7633390" lon="-0.1944940">
        <ele>2350.0</ele>
        <time>2020-09-13T11:22:48Z</time>
      </trkpt>
      <trkpt lat="42.7633450" lon="-0.1945030">
        <ele>2350.2</ele>
        <time>2020-09-13T11:22:49Z</time>
      </trkpt>
      <trkpt lat="42.7633150" lon="-0.1945220">
        <ele>2351.2</ele>
        <time>2020-09-13T11:22:57Z</time>
      </trkpt>
      <trkpt lat="42.7633100" lon="-0.1945730">
        <ele>2352.2</ele>
        <time>2020-09-13T11:23:03Z</time>
      </trkpt>
      <trkpt lat="42.7632930" lon="-0.1945830">
        <ele>2353.6</ele>
        <time>2020-09-13T11:23:07Z</time>
      </trkpt>
      <trkpt lat="42.7632680" lon="-0.1946010">
        <ele>2354.8</ele>
        <time>2020-09-13T11:23:11Z</time>
      </trkpt>
      <trkpt lat="42.7632580" lon="-0.1946530">
        <ele>2356.0</ele>
        <time>2020-09-13T11:23:17Z</time>
      </trkpt>
      <trkpt lat="42.7632530" lon="-0.1946750">
        <ele>2357.0</ele>
        <time>2020-09-13T11:23:24Z</time>
      </trkpt>
      <trkpt lat="42.7632370" lon="-0.1947390">
        <ele>2358.0</ele>
        <time>2020-09-13T11:23:30Z</time>
      </trkpt>
      <trkpt lat="42.7632060" lon="-0.1947750">
        <ele>2359.2</ele>
        <time>2020-09-13T11:23:36Z</time>
      </trkpt>
      <trkpt lat="42.7631940" lon="-0.1948160">
        <ele>2360.2</ele>
        <time>2020-09-13T11:23:41Z</time>
      </trkpt>
      <trkpt lat="42.7631650" lon="-0.1948520">
        <ele>2361.4</ele>
        <time>2020-09-13T11:23:47Z</time>
      </trkpt>
      <trkpt lat="42.7631530" lon="-0.1949510">
        <ele>2362.4</ele>
        <time>2020-09-13T11:23:55Z</time>
      </trkpt>
      <trkpt lat="42.7631470" lon="-0.1949940">
        <ele>2363.6</ele>
        <time>2020-09-13T11:23:59Z</time>
      </trkpt>
      <trkpt lat="42.7630890" lon="-0.1951280">
        <ele>2364.6</ele>
        <time>2020-09-13T11:24:12Z</time>
      </trkpt>
      <trkpt lat="42.7630870" lon="-0.1951460">
        <ele>2364.8</ele>
        <time>2020-09-13T11:24:13Z</time>
      </trkpt>
      <trkpt lat="42.7630820" lon="-0.1951660">
        <ele>2365.2</ele>
        <time>2020-09-13T11:24:15Z</time>
      </trkpt>
      <trkpt lat="42.7630530" lon="-0.1952200">
        <ele>2365.4</ele>
        <time>2020-09-13T11:24:21Z</time>
      </trkpt>
      <trkpt lat="42.7630300" lon="-0.1952150">
        <ele>2365.6</ele>
        <time>2020-09-13T11:24:23Z</time>
      </trkpt>
      <trkpt lat="42.7630250" lon="-0.1952340">
        <ele>2366.0</ele>
        <time>2020-09-13T11:24:26Z</time>
      </trkpt>
      <trkpt lat="42.7630300" lon="-0.1952630">
        <ele>2367.2</ele>
        <time>2020-09-13T11:24:30Z</time>
      </trkpt>
      <trkpt lat="42.7630050" lon="-0.1952820">
        <ele>2368.4</ele>
        <time>2020-09-13T11:24:33Z</time>
      </trkpt>
      <trkpt lat="42.7629470" lon="-0.1953880">
        <ele>2368.8</ele>
        <time>2020-09-13T11:24:43Z</time>
      </trkpt>
      <trkpt lat="42.7629270" lon="-0.1954570">
        <ele>2368.6</ele>
        <time>2020-09-13T11:24:48Z</time>
      </trkpt>
      <trkpt lat="42.7629300" lon="-0.1955230">
        <ele>2368.0</ele>
        <time>2020-09-13T11:24:53Z</time>
      </trkpt>
      <trkpt lat="42.7629240" lon="-0.1955680">
        <ele>2367.0</ele>
        <time>2020-09-13T11:24:56Z</time>
      </trkpt>
      <trkpt lat="42.7629230" lon="-0.1955780">
        <ele>2366.8</ele>
        <time>2020-09-13T11:24:57Z</time>
      </trkpt>
      <trkpt lat="42.7629240" lon="-0.1956040">
        <ele>2366.4</ele>
        <time>2020-09-13T11:24:59Z</time>
      </trkpt>
      <trkpt lat="42.7629210" lon="-0.1956380">
        <ele>2366.0</ele>
        <time>2020-09-13T11:25:01Z</time>
      </trkpt>
      <trkpt lat="42.7629180" lon="-0.1956510">
        <ele>2365.8</ele>
        <time>2020-09-13T11:25:02Z</time>
      </trkpt>
      <trkpt lat="42.7629710" lon="-0.1957300">
        <ele>2365.0</ele>
        <time>2020-09-13T11:25:08Z</time>
      </trkpt>
      <trkpt lat="42.7629820" lon="-0.1957350">
        <ele>2364.8</ele>
        <time>2020-09-13T11:25:09Z</time>
      </trkpt>
      <trkpt lat="42.7630130" lon="-0.1957830">
        <ele>2365.0</ele>
        <time>2020-09-13T11:25:14Z</time>
      </trkpt>
      <trkpt lat="42.7629930" lon="-0.1958100">
        <ele>2365.4</ele>
        <time>2020-09-13T11:25:16Z</time>
      </trkpt>
      <trkpt lat="42.7629490" lon="-0.1958160">
        <ele>2366.0</ele>
        <time>2020-09-13T11:25:20Z</time>
      </trkpt>
      <trkpt lat="42.7628920" lon="-0.1958040">
        <ele>2367.0</ele>
        <time>2020-09-13T11:25:29Z</time>
      </trkpt>
      <trkpt lat="42.7628540" lon="-0.1958380">
        <ele>2368.2</ele>
        <time>2020-09-13T11:25:34Z</time>
      </trkpt>
      <trkpt lat="42.7628450" lon="-0.1958510">
        <ele>2368.4</ele>
        <time>2020-09-13T11:25:35Z</time>
      </trkpt>
      <trkpt lat="42.7627990" lon="-0.1959010">
        <ele>2368.6</ele>
        <time>2020-09-13T11:25:41Z</time>
      </trkpt>
      <trkpt lat="42.7627900" lon="-0.1959070">
        <ele>2368.8</ele>
        <time>2020-09-13T11:25:43Z</time>
      </trkpt>
      <trkpt lat="42.7627700" lon="-0.1959260">
        <ele>2369.4</ele>
        <time>2020-09-13T11:25:46Z</time>
      </trkpt>
      <trkpt lat="42.7627490" lon="-0.1959340">
        <ele>2369.8</ele>
        <time>2020-09-13T11:25:49Z</time>
      </trkpt>
      <trkpt lat="42.7627220" lon="-0.1959650">
        <ele>2370.4</ele>
        <time>2020-09-13T11:25:53Z</time>
      </trkpt>
      <trkpt lat="42.7626950" lon="-0.1960140">
        <ele>2371.0</ele>
        <time>2020-09-13T11:25:58Z</time>
      </trkpt>
      <trkpt lat="42.7626810" lon="-0.1960140">
        <ele>2371.4</ele>
        <time>2020-09-13T11:26:01Z</time>
      </trkpt>
      <trkpt lat="42.7626750" lon="-0.1960200">
        <ele>2371.6</ele>
        <time>2020-09-13T11:26:02Z</time>
      </trkpt>
      <trkpt lat="42.7626580" lon="-0.1960490">
        <ele>2372.6</ele>
        <time>2020-09-13T11:26:07Z</time>
      </trkpt>
      <trkpt lat="42.7626110" lon="-0.1960840">
        <ele>2373.8</ele>
        <time>2020-09-13T11:26:13Z</time>
      </trkpt>
      <trkpt lat="42.7625560" lon="-0.1961160">
        <ele>2374.4</ele>
        <time>2020-09-13T11:26:19Z</time>
      </trkpt>
      <trkpt lat="42.7625120" lon="-0.1962370">
        <ele>2374.8</ele>
        <time>2020-09-13T11:26:25Z</time>
      </trkpt>
      <trkpt lat="42.7625060" lon="-0.1962860">
        <ele>2375.4</ele>
        <time>2020-09-13T11:26:28Z</time>
      </trkpt>
      <trkpt lat="42.7625020" lon="-0.1963050">
        <ele>2375.8</ele>
        <time>2020-09-13T11:26:30Z</time>
      </trkpt>
      <trkpt lat="42.7624910" lon="-0.1963110">
        <ele>2375.8</ele>
        <time>2020-09-13T11:26:31Z</time>
      </trkpt>
      <trkpt lat="42.7624800" lon="-0.1963150">
        <ele>2376.0</ele>
        <time>2020-09-13T11:26:32Z</time>
      </trkpt>
      <trkpt lat="42.7624550" lon="-0.1963220">
        <ele>2376.8</ele>
        <time>2020-09-13T11:26:35Z</time>
      </trkpt>
      <trkpt lat="42.7624370" lon="-0.1963310">
        <ele>2377.0</ele>
        <time>2020-09-13T11:26:37Z</time>
      </trkpt>
      <trkpt lat="42.7624100" lon="-0.1963390">
        <ele>2377.0</ele>
        <time>2020-09-13T11:26:40Z</time>
      </trkpt>
      <trkpt lat="42.7623290" lon="-0.1963640">
        <ele>2376.6</ele>
        <time>2020-09-13T11:26:47Z</time>
      </trkpt>
      <trkpt lat="42.7622000" lon="-0.1965010">
        <ele>2376.6</ele>
        <time>2020-09-13T11:27:02Z</time>
      </trkpt>
      <trkpt lat="42.7620780" lon="-0.1964730">
        <ele>2377.0</ele>
        <time>2020-09-13T11:27:15Z</time>
      </trkpt>
      <trkpt lat="42.7620580" lon="-0.1964830">
        <ele>2377.6</ele>
        <time>2020-09-13T11:27:18Z</time>
      </trkpt>
      <trkpt lat="42.7620430" lon="-0.1964830">
        <ele>2378.2</ele>
        <time>2020-09-13T11:27:20Z</time>
      </trkpt>
      <trkpt lat="42.7620200" lon="-0.1965040">
        <ele>2379.2</ele>
        <time>2020-09-13T11:27:23Z</time>
      </trkpt>
      <trkpt lat="42.7620070" lon="-0.1965290">
        <ele>2379.6</ele>
        <time>2020-09-13T11:27:25Z</time>
      </trkpt>
      <trkpt lat="42.7619710" lon="-0.1966120">
        <ele>2380.4</ele>
        <time>2020-09-13T11:27:32Z</time>
      </trkpt>
      <trkpt lat="42.7619360" lon="-0.1966430">
        <ele>2381.4</ele>
        <time>2020-09-13T11:27:36Z</time>
      </trkpt>
      <trkpt lat="42.7618440" lon="-0.1967320">
        <ele>2382.2</ele>
        <time>2020-09-13T11:27:47Z</time>
      </trkpt>
      <trkpt lat="42.7618300" lon="-0.1967460">
        <ele>2382.6</ele>
        <time>2020-09-13T11:27:49Z</time>
      </trkpt>
      <trkpt lat="42.7617600" lon="-0.1967560">
        <ele>2382.0</ele>
        <time>2020-09-13T11:27:57Z</time>
      </trkpt>
      <trkpt lat="42.7616900" lon="-0.1967650">
        <ele>2381.6</ele>
        <time>2020-09-13T11:28:05Z</time>
      </trkpt>
      <trkpt lat="42.7616790" lon="-0.1967880">
        <ele>2381.4</ele>
        <time>2020-09-13T11:28:07Z</time>
      </trkpt>
      <trkpt lat="42.7616670" lon="-0.1968180">
        <ele>2381.0</ele>
        <time>2020-09-13T11:28:10Z</time>
      </trkpt>
      <trkpt lat="42.7616290" lon="-0.1968160">
        <ele>2380.2</ele>
        <time>2020-09-13T11:28:14Z</time>
      </trkpt>
      <trkpt lat="42.7616190" lon="-0.1968160">
        <ele>2380.0</ele>
        <time>2020-09-13T11:28:15Z</time>
      </trkpt>
      <trkpt lat="42.7615840" lon="-0.1968140">
        <ele>2379.0</ele>
        <time>2020-09-13T11:28:19Z</time>
      </trkpt>
      <trkpt lat="42.7615620" lon="-0.1968060">
        <ele>2378.2</ele>
        <time>2020-09-13T11:28:21Z</time>
      </trkpt>
      <trkpt lat="42.7615490" lon="-0.1968000">
        <ele>2377.8</ele>
        <time>2020-09-13T11:28:22Z</time>
      </trkpt>
      <trkpt lat="42.7614790" lon="-0.1967890">
        <ele>2376.4</ele>
        <time>2020-09-13T11:28:28Z</time>
      </trkpt>
      <trkpt lat="42.7614670" lon="-0.1967950">
        <ele>2376.2</ele>
        <time>2020-09-13T11:28:29Z</time>
      </trkpt>
      <trkpt lat="42.7613980" lon="-0.1969180">
        <ele>2375.4</ele>
        <time>2020-09-13T11:28:39Z</time>
      </trkpt>
      <trkpt lat="42.7613180" lon="-0.1969680">
        <ele>2375.0</ele>
        <time>2020-09-13T11:28:47Z</time>
      </trkpt>
      <trkpt lat="42.7612680" lon="-0.1969880">
        <ele>2374.4</ele>
        <time>2020-09-13T11:28:51Z</time>
      </trkpt>
      <trkpt lat="42.7612590" lon="-0.1970000">
        <ele>2374.2</ele>
        <time>2020-09-13T11:28:52Z</time>
      </trkpt>
      <trkpt lat="42.7612180" lon="-0.1970880">
        <ele>2373.4</ele>
        <time>2020-09-13T11:28:58Z</time>
      </trkpt>
      <trkpt lat="42.7611530" lon="-0.1973240">
        <ele>2372.6</ele>
        <time>2020-09-13T11:29:10Z</time>
      </trkpt>
      <trkpt lat="42.7611560" lon="-0.1973610">
        <ele>2372.6</ele>
        <time>2020-09-13T11:29:12Z</time>
      </trkpt>
      <trkpt lat="42.7611640" lon="-0.1973840">
        <ele>2372.6</ele>
        <time>2020-09-13T11:29:14Z</time>
      </trkpt>
      <trkpt lat="42.7610800" lon="-0.1975120">
        <ele>2372.8</ele>
        <time>2020-09-13T11:29:26Z</time>
      </trkpt>
      <trkpt lat="42.7609320" lon="-0.1976340">
        <ele>2372.6</ele>
        <time>2020-09-13T11:29:43Z</time>
      </trkpt>
      <trkpt lat="42.7609250" lon="-0.1976360">
        <ele>2372.6</ele>
        <time>2020-09-13T11:29:44Z</time>
      </trkpt>
      <trkpt lat="42.7609170" lon="-0.1976580">
        <ele>2372.6</ele>
        <time>2020-09-13T11:29:46Z</time>
      </trkpt>
      <trkpt lat="42.7609270" lon="-0.1977210">
        <ele>2373.6</ele>
        <time>2020-09-13T11:29:51Z</time>
      </trkpt>
      <trkpt lat="42.7609140" lon="-0.1977290">
        <ele>2374.6</ele>
        <time>2020-09-13T11:29:55Z</time>
      </trkpt>
      <trkpt lat="42.7608940" lon="-0.1977380">
        <ele>2375.0</ele>
        <time>2020-09-13T11:29:57Z</time>
      </trkpt>
      <trkpt lat="42.7608740" lon="-0.1977560">
        <ele>2375.6</ele>
        <time>2020-09-13T11:29:59Z</time>
      </trkpt>
      <trkpt lat="42.7608370" lon="-0.1977920">
        <ele>2376.2</ele>
        <time>2020-09-13T11:30:04Z</time>
      </trkpt>
      <trkpt lat="42.7608100" lon="-0.1978050">
        <ele>2376.6</ele>
        <time>2020-09-13T11:30:07Z</time>
      </trkpt>
      <trkpt lat="42.7608010" lon="-0.1978080">
        <ele>2376.8</ele>
        <time>2020-09-13T11:30:08Z</time>
      </trkpt>
      <trkpt lat="42.7607840" lon="-0.1978250">
        <ele>2377.6</ele>
        <time>2020-09-13T11:30:12Z</time>
      </trkpt>
      <trkpt lat="42.7607900" lon="-0.1978380">
        <ele>2377.8</ele>
        <time>2020-09-13T11:30:13Z</time>
      </trkpt>
      <trkpt lat="42.7609480" lon="-0.1978460">
        <ele>2378.0</ele>
        <time>2020-09-13T11:30:39Z</time>
      </trkpt>
      <trkpt lat="42.7609230" lon="-0.1978310">
        <ele>2378.4</ele>
        <time>2020-09-13T11:30:47Z</time>
      </trkpt>
      <trkpt lat="42.7608250" lon="-0.1978690">
        <ele>2378.8</ele>
        <time>2020-09-13T11:30:51Z</time>
      </trkpt>
      <trkpt lat="42.7608030" lon="-0.1978700">
        <ele>2378.8</ele>
        <time>2020-09-13T11:30:52Z</time>
      </trkpt>
      <trkpt lat="42.7607330" lon="-0.1979130">
        <ele>2379.0</ele>
        <time>2020-09-13T11:30:56Z</time>
      </trkpt>
      <trkpt lat="42.7606890" lon="-0.1979960">
        <ele>2379.2</ele>
        <time>2020-09-13T11:31:01Z</time>
      </trkpt>
      <trkpt lat="42.7606780" lon="-0.1980060">
        <ele>2379.4</ele>
        <time>2020-09-13T11:31:03Z</time>
      </trkpt>
      <trkpt lat="42.7606340" lon="-0.1980320">
        <ele>2379.8</ele>
        <time>2020-09-13T11:31:08Z</time>
      </trkpt>
      <trkpt lat="42.7605970" lon="-0.1980650">
        <ele>2380.2</ele>
        <time>2020-09-13T11:31:13Z</time>
      </trkpt>
      <trkpt lat="42.7605490" lon="-0.1981170">
        <ele>2380.4</ele>
        <time>2020-09-13T11:31:19Z</time>
      </trkpt>
      <trkpt lat="42.7605450" lon="-0.1981080">
        <ele>2380.8</ele>
        <time>2020-09-13T11:31:22Z</time>
      </trkpt>
      <trkpt lat="42.7605360" lon="-0.1981140">
        <ele>2380.8</ele>
        <time>2020-09-13T11:31:24Z</time>
      </trkpt>
      <trkpt lat="42.7605180" lon="-0.1981140">
        <ele>2381.0</ele>
        <time>2020-09-13T11:31:26Z</time>
      </trkpt>
      <trkpt lat="42.7604970" lon="-0.1981340">
        <ele>2381.2</ele>
        <time>2020-09-13T11:31:29Z</time>
      </trkpt>
      <trkpt lat="42.7604600" lon="-0.1981340">
        <ele>2381.4</ele>
        <time>2020-09-13T11:31:33Z</time>
      </trkpt>
      <trkpt lat="42.7604540" lon="-0.1981360">
        <ele>2381.8</ele>
        <time>2020-09-13T11:31:36Z</time>
      </trkpt>
      <trkpt lat="42.7604510" lon="-0.1981420">
        <ele>2381.8</ele>
        <time>2020-09-13T11:31:37Z</time>
      </trkpt>
      <trkpt lat="42.7604150" lon="-0.1982420">
        <ele>2383.0</ele>
        <time>2020-09-13T11:31:44Z</time>
      </trkpt>
      <trkpt lat="42.7604410" lon="-0.1983620">
        <ele>2383.8</ele>
        <time>2020-09-13T11:31:51Z</time>
      </trkpt>
      <trkpt lat="42.7604340" lon="-0.1983620">
        <ele>2384.0</ele>
        <time>2020-09-13T11:31:53Z</time>
      </trkpt>
      <trkpt lat="42.7604120" lon="-0.1983910">
        <ele>2385.0</ele>
        <time>2020-09-13T11:32:01Z</time>
      </trkpt>
      <trkpt lat="42.7603870" lon="-0.1984190">
        <ele>2386.2</ele>
        <time>2020-09-13T11:32:06Z</time>
      </trkpt>
      <trkpt lat="42.7603610" lon="-0.1984340">
        <ele>2387.0</ele>
        <time>2020-09-13T11:32:09Z</time>
      </trkpt>
      <trkpt lat="42.7603360" lon="-0.1984540">
        <ele>2387.4</ele>
        <time>2020-09-13T11:32:12Z</time>
      </trkpt>
      <trkpt lat="42.7603250" lon="-0.1984870">
        <ele>2388.0</ele>
        <time>2020-09-13T11:32:15Z</time>
      </trkpt>
      <trkpt lat="42.7603230" lon="-0.1985030">
        <ele>2388.4</ele>
        <time>2020-09-13T11:32:17Z</time>
      </trkpt>
      <trkpt lat="42.7603080" lon="-0.1985300">
        <ele>2389.4</ele>
        <time>2020-09-13T11:32:22Z</time>
      </trkpt>
      <trkpt lat="42.7602830" lon="-0.1985580">
        <ele>2390.6</ele>
        <time>2020-09-13T11:32:28Z</time>
      </trkpt>
      <trkpt lat="42.7602520" lon="-0.1986070">
        <ele>2391.8</ele>
        <time>2020-09-13T11:32:35Z</time>
      </trkpt>
      <trkpt lat="42.7602290" lon="-0.1986190">
        <ele>2392.8</ele>
        <time>2020-09-13T11:32:39Z</time>
      </trkpt>
      <trkpt lat="42.7602090" lon="-0.1986580">
        <ele>2394.2</ele>
        <time>2020-09-13T11:32:45Z</time>
      </trkpt>
      <trkpt lat="42.7601920" lon="-0.1986750">
        <ele>2395.2</ele>
        <time>2020-09-13T11:32:50Z</time>
      </trkpt>
      <trkpt lat="42.7601250" lon="-0.1986990">
        <ele>2396.4</ele>
        <time>2020-09-13T11:33:00Z</time>
      </trkpt>
      <trkpt lat="42.7601010" lon="-0.1987320">
        <ele>2397.4</ele>
        <time>2020-09-13T11:33:05Z</time>
      </trkpt>
      <trkpt lat="42.7600780" lon="-0.1987630">
        <ele>2398.6</ele>
        <time>2020-09-13T11:33:10Z</time>
      </trkpt>
      <trkpt lat="42.7600610" lon="-0.1987800">
        <ele>2399.8</ele>
        <time>2020-09-13T11:33:14Z</time>
      </trkpt>
      <trkpt lat="42.7600020" lon="-0.1987800">
        <ele>2400.8</ele>
        <time>2020-09-13T11:33:22Z</time>
      </trkpt>
      <trkpt lat="42.7599750" lon="-0.1988110">
        <ele>2402.0</ele>
        <time>2020-09-13T11:33:26Z</time>
      </trkpt>
      <trkpt lat="42.7599440" lon="-0.1988310">
        <ele>2403.2</ele>
        <time>2020-09-13T11:33:31Z</time>
      </trkpt>
      <trkpt lat="42.7599210" lon="-0.1988750">
        <ele>2404.2</ele>
        <time>2020-09-13T11:33:38Z</time>
      </trkpt>
      <trkpt lat="42.7598830" lon="-0.1988950">
        <ele>2405.4</ele>
        <time>2020-09-13T11:33:44Z</time>
      </trkpt>
      <trkpt lat="42.7598480" lon="-0.1989170">
        <ele>2406.6</ele>
        <time>2020-09-13T11:33:49Z</time>
      </trkpt>
      <trkpt lat="42.7598080" lon="-0.1989550">
        <ele>2407.6</ele>
        <time>2020-09-13T11:33:55Z</time>
      </trkpt>
      <trkpt lat="42.7597830" lon="-0.1989760">
        <ele>2408.6</ele>
        <time>2020-09-13T11:33:59Z</time>
      </trkpt>
      <trkpt lat="42.7597960" lon="-0.1990600">
        <ele>2409.6</ele>
        <time>2020-09-13T11:34:05Z</time>
      </trkpt>
      <trkpt lat="42.7598040" lon="-0.1990720">
        <ele>2410.0</ele>
        <time>2020-09-13T11:34:06Z</time>
      </trkpt>
      <trkpt lat="42.7598150" lon="-0.1990830">
        <ele>2410.4</ele>
        <time>2020-09-13T11:34:08Z</time>
      </trkpt>
      <trkpt lat="42.7598200" lon="-0.1991030">
        <ele>2410.8</ele>
        <time>2020-09-13T11:34:10Z</time>
      </trkpt>
      <trkpt lat="42.7598260" lon="-0.1991350">
        <ele>2412.0</ele>
        <time>2020-09-13T11:34:14Z</time>
      </trkpt>
      <trkpt lat="42.7597970" lon="-0.1991620">
        <ele>2413.0</ele>
        <time>2020-09-13T11:34:22Z</time>
      </trkpt>
      <trkpt lat="42.7597870" lon="-0.1992030">
        <ele>2414.0</ele>
        <time>2020-09-13T11:34:28Z</time>
      </trkpt>
      <trkpt lat="42.7597580" lon="-0.1992140">
        <ele>2415.2</ele>
        <time>2020-09-13T11:34:44Z</time>
      </trkpt>
      <trkpt lat="42.7597360" lon="-0.1992580">
        <ele>2416.2</ele>
        <time>2020-09-13T11:34:49Z</time>
      </trkpt>
      <trkpt lat="42.7597130" lon="-0.1992560">
        <ele>2416.8</ele>
        <time>2020-09-13T11:34:51Z</time>
      </trkpt>
      <trkpt lat="42.7596880" lon="-0.1992740">
        <ele>2417.4</ele>
        <time>2020-09-13T11:34:54Z</time>
      </trkpt>
      <trkpt lat="42.7596790" lon="-0.1992860">
        <ele>2417.6</ele>
        <time>2020-09-13T11:34:55Z</time>
      </trkpt>
      <trkpt lat="42.7596730" lon="-0.1993150">
        <ele>2418.2</ele>
        <time>2020-09-13T11:34:58Z</time>
      </trkpt>
      <trkpt lat="42.7596700" lon="-0.1993340">
        <ele>2418.6</ele>
        <time>2020-09-13T11:35:00Z</time>
      </trkpt>
      <trkpt lat="42.7596650" lon="-0.1993770">
        <ele>2420.0</ele>
        <time>2020-09-13T11:35:04Z</time>
      </trkpt>
      <trkpt lat="42.7596560" lon="-0.1994340">
        <ele>2420.8</ele>
        <time>2020-09-13T11:35:08Z</time>
      </trkpt>
      <trkpt lat="42.7596520" lon="-0.1994480">
        <ele>2421.0</ele>
        <time>2020-09-13T11:35:09Z</time>
      </trkpt>
      <trkpt lat="42.7596440" lon="-0.1994860">
        <ele>2422.0</ele>
        <time>2020-09-13T11:35:12Z</time>
      </trkpt>
      <trkpt lat="42.7596440" lon="-0.1995010">
        <ele>2422.2</ele>
        <time>2020-09-13T11:35:13Z</time>
      </trkpt>
      <trkpt lat="42.7596550" lon="-0.1995480">
        <ele>2422.8</ele>
        <time>2020-09-13T11:35:16Z</time>
      </trkpt>
      <trkpt lat="42.7596640" lon="-0.1995590">
        <ele>2423.2</ele>
        <time>2020-09-13T11:35:18Z</time>
      </trkpt>
      <trkpt lat="42.7596660" lon="-0.1995660">
        <ele>2423.4</ele>
        <time>2020-09-13T11:35:19Z</time>
      </trkpt>
      <trkpt lat="42.7596740" lon="-0.1996180">
        <ele>2424.4</ele>
        <time>2020-09-13T11:35:24Z</time>
      </trkpt>
      <trkpt lat="42.7596820" lon="-0.1996650">
        <ele>2425.4</ele>
        <time>2020-09-13T11:35:29Z</time>
      </trkpt>
      <trkpt lat="42.7596860" lon="-0.1996690">
        <ele>2425.6</ele>
        <time>2020-09-13T11:35:30Z</time>
      </trkpt>
      <trkpt lat="42.7597050" lon="-0.1996830">
        <ele>2426.6</ele>
        <time>2020-09-13T11:35:34Z</time>
      </trkpt>
      <trkpt lat="42.7597210" lon="-0.1996970">
        <ele>2427.6</ele>
        <time>2020-09-13T11:35:39Z</time>
      </trkpt>
      <trkpt lat="42.7596970" lon="-0.1997260">
        <ele>2428.8</ele>
        <time>2020-09-13T11:35:46Z</time>
      </trkpt>
      <trkpt lat="42.7596900" lon="-0.1997560">
        <ele>2429.8</ele>
        <time>2020-09-13T11:35:50Z</time>
      </trkpt>
      <trkpt lat="42.7597090" lon="-0.1997880">
        <ele>2430.8</ele>
        <time>2020-09-13T11:35:55Z</time>
      </trkpt>
      <trkpt lat="42.7597320" lon="-0.1998330">
        <ele>2432.0</ele>
        <time>2020-09-13T11:36:00Z</time>
      </trkpt>
      <trkpt lat="42.7597360" lon="-0.1998650">
        <ele>2433.0</ele>
        <time>2020-09-13T11:36:07Z</time>
      </trkpt>
      <trkpt lat="42.7597740" lon="-0.1999010">
        <ele>2434.2</ele>
        <time>2020-09-13T11:36:13Z</time>
      </trkpt>
      <trkpt lat="42.7597490" lon="-0.1999110">
        <ele>2435.2</ele>
        <time>2020-09-13T11:36:19Z</time>
      </trkpt>
      <trkpt lat="42.7597070" lon="-0.1999300">
        <ele>2436.8</ele>
        <time>2020-09-13T11:36:24Z</time>
      </trkpt>
      <trkpt lat="42.7596790" lon="-0.1999450">
        <ele>2438.0</ele>
        <time>2020-09-13T11:36:28Z</time>
      </trkpt>
      <trkpt lat="42.7596570" lon="-0.1999630">
        <ele>2439.2</ele>
        <time>2020-09-13T11:36:33Z</time>
      </trkpt>
      <trkpt lat="42.7596310" lon="-0.1999790">
        <ele>2440.2</ele>
        <time>2020-09-13T11:36:37Z</time>
      </trkpt>
      <trkpt lat="42.7596130" lon="-0.2000080">
        <ele>2441.2</ele>
        <time>2020-09-13T11:36:41Z</time>
      </trkpt>
      <trkpt lat="42.7595820" lon="-0.2000240">
        <ele>2442.4</ele>
        <time>2020-09-13T11:36:48Z</time>
      </trkpt>
      <trkpt lat="42.7595910" lon="-0.2000780">
        <ele>2443.4</ele>
        <time>2020-09-13T11:36:55Z</time>
      </trkpt>
      <trkpt lat="42.7595790" lon="-0.2001080">
        <ele>2444.6</ele>
        <time>2020-09-13T11:37:00Z</time>
      </trkpt>
      <trkpt lat="42.7595450" lon="-0.2001490">
        <ele>2445.8</ele>
        <time>2020-09-13T11:37:07Z</time>
      </trkpt>
      <trkpt lat="42.7595220" lon="-0.2001810">
        <ele>2447.0</ele>
        <time>2020-09-13T11:37:12Z</time>
      </trkpt>
      <trkpt lat="42.7595030" lon="-0.2002160">
        <ele>2448.2</ele>
        <time>2020-09-13T11:37:17Z</time>
      </trkpt>
      <trkpt lat="42.7594820" lon="-0.2002320">
        <ele>2449.2</ele>
        <time>2020-09-13T11:37:21Z</time>
      </trkpt>
      <trkpt lat="42.7594620" lon="-0.2002480">
        <ele>2450.4</ele>
        <time>2020-09-13T11:37:24Z</time>
      </trkpt>
      <trkpt lat="42.7594410" lon="-0.2002750">
        <ele>2451.4</ele>
        <time>2020-09-13T11:37:29Z</time>
      </trkpt>
      <trkpt lat="42.7594200" lon="-0.2003120">
        <ele>2452.4</ele>
        <time>2020-09-13T11:37:34Z</time>
      </trkpt>
      <trkpt lat="42.7594160" lon="-0.2003350">
        <ele>2453.6</ele>
        <time>2020-09-13T11:37:37Z</time>
      </trkpt>
      <trkpt lat="42.7593740" lon="-0.2003470">
        <ele>2454.8</ele>
        <time>2020-09-13T11:37:43Z</time>
      </trkpt>
      <trkpt lat="42.7593580" lon="-0.2003920">
        <ele>2456.0</ele>
        <time>2020-09-13T11:37:48Z</time>
      </trkpt>
      <trkpt lat="42.7593650" lon="-0.2004310">
        <ele>2457.2</ele>
        <time>2020-09-13T11:37:52Z</time>
      </trkpt>
      <trkpt lat="42.7593530" lon="-0.2004730">
        <ele>2458.4</ele>
        <time>2020-09-13T11:37:57Z</time>
      </trkpt>
      <trkpt lat="42.7593130" lon="-0.2005010">
        <ele>2459.4</ele>
        <time>2020-09-13T11:38:02Z</time>
      </trkpt>
      <trkpt lat="42.7592870" lon="-0.2005330">
        <ele>2460.4</ele>
        <time>2020-09-13T11:38:07Z</time>
      </trkpt>
      <trkpt lat="42.7592860" lon="-0.2005730">
        <ele>2461.8</ele>
        <time>2020-09-13T11:38:11Z</time>
      </trkpt>
      <trkpt lat="42.7592950" lon="-0.2006040">
        <ele>2462.8</ele>
        <time>2020-09-13T11:38:14Z</time>
      </trkpt>
      <trkpt lat="42.7592980" lon="-0.2006770">
        <ele>2464.0</ele>
        <time>2020-09-13T11:38:22Z</time>
      </trkpt>
      <trkpt lat="42.7592960" lon="-0.2007200">
        <ele>2465.2</ele>
        <time>2020-09-13T11:38:30Z</time>
      </trkpt>
      <trkpt lat="42.7593120" lon="-0.2007800">
        <ele>2466.2</ele>
        <time>2020-09-13T11:38:36Z</time>
      </trkpt>
      <trkpt lat="42.7593260" lon="-0.2008420">
        <ele>2467.4</ele>
        <time>2020-09-13T11:38:42Z</time>
      </trkpt>
      <trkpt lat="42.7593340" lon="-0.2008890">
        <ele>2468.4</ele>
        <time>2020-09-13T11:38:47Z</time>
      </trkpt>
      <trkpt lat="42.7593150" lon="-0.2009040">
        <ele>2469.8</ele>
        <time>2020-09-13T11:38:52Z</time>
      </trkpt>
      <trkpt lat="42.7593090" lon="-0.2009380">
        <ele>2470.8</ele>
        <time>2020-09-13T11:38:59Z</time>
      </trkpt>
      <trkpt lat="42.7592920" lon="-0.2009470">
        <ele>2472.2</ele>
        <time>2020-09-13T11:39:02Z</time>
      </trkpt>
      <trkpt lat="42.7592710" lon="-0.2009820">
        <ele>2473.6</ele>
        <time>2020-09-13T11:39:07Z</time>
      </trkpt>
      <trkpt lat="42.7592470" lon="-0.2010030">
        <ele>2474.6</ele>
        <time>2020-09-13T11:39:12Z</time>
      </trkpt>
      <trkpt lat="42.7592020" lon="-0.2010460">
        <ele>2475.8</ele>
        <time>2020-09-13T11:39:20Z</time>
      </trkpt>
      <trkpt lat="42.7591790" lon="-0.2010600">
        <ele>2476.8</ele>
        <time>2020-09-13T11:39:24Z</time>
      </trkpt>
      <trkpt lat="42.7591420" lon="-0.2010630">
        <ele>2477.8</ele>
        <time>2020-09-13T11:39:28Z</time>
      </trkpt>
      <trkpt lat="42.7591070" lon="-0.2010690">
        <ele>2479.0</ele>
        <time>2020-09-13T11:39:33Z</time>
      </trkpt>
      <trkpt lat="42.7590910" lon="-0.2010890">
        <ele>2480.0</ele>
        <time>2020-09-13T11:39:38Z</time>
      </trkpt>
      <trkpt lat="42.7590270" lon="-0.2010890">
        <ele>2481.2</ele>
        <time>2020-09-13T11:39:48Z</time>
      </trkpt>
      <trkpt lat="42.7590070" lon="-0.2011220">
        <ele>2482.4</ele>
        <time>2020-09-13T11:39:53Z</time>
      </trkpt>
      <trkpt lat="42.7590050" lon="-0.2011530">
        <ele>2483.6</ele>
        <time>2020-09-13T11:39:58Z</time>
      </trkpt>
      <trkpt lat="42.7589920" lon="-0.2011630">
        <ele>2484.6</ele>
        <time>2020-09-13T11:40:03Z</time>
      </trkpt>
      <trkpt lat="42.7589690" lon="-0.2012030">
        <ele>2485.8</ele>
        <time>2020-09-13T11:40:09Z</time>
      </trkpt>
      <trkpt lat="42.7589600" lon="-0.2012210">
        <ele>2486.8</ele>
        <time>2020-09-13T11:40:12Z</time>
      </trkpt>
      <trkpt lat="42.7589250" lon="-0.2012350">
        <ele>2488.0</ele>
        <time>2020-09-13T11:40:18Z</time>
      </trkpt>
      <trkpt lat="42.7589010" lon="-0.2012420">
        <ele>2489.0</ele>
        <time>2020-09-13T11:40:22Z</time>
      </trkpt>
      <trkpt lat="42.7588690" lon="-0.2012610">
        <ele>2490.0</ele>
        <time>2020-09-13T11:40:27Z</time>
      </trkpt>
      <trkpt lat="42.7588310" lon="-0.2012780">
        <ele>2491.2</ele>
        <time>2020-09-13T11:40:32Z</time>
      </trkpt>
      <trkpt lat="42.7587940" lon="-0.2012840">
        <ele>2492.2</ele>
        <time>2020-09-13T11:40:37Z</time>
      </trkpt>
      <trkpt lat="42.7587590" lon="-0.2013150">
        <ele>2493.4</ele>
        <time>2020-09-13T11:40:43Z</time>
      </trkpt>
      <trkpt lat="42.7587440" lon="-0.2013290">
        <ele>2494.4</ele>
        <time>2020-09-13T11:40:47Z</time>
      </trkpt>
      <trkpt lat="42.7587020" lon="-0.2013620">
        <ele>2495.6</ele>
        <time>2020-09-13T11:40:54Z</time>
      </trkpt>
      <trkpt lat="42.7586480" lon="-0.2014080">
        <ele>2497.0</ele>
        <time>2020-09-13T11:41:04Z</time>
      </trkpt>
      <trkpt lat="42.7586420" lon="-0.2014140">
        <ele>2498.0</ele>
        <time>2020-09-13T11:41:11Z</time>
      </trkpt>
      <trkpt lat="42.7586440" lon="-0.2014340">
        <ele>2497.6</ele>
        <time>2020-09-13T11:41:39Z</time>
      </trkpt>
      <trkpt lat="42.7586240" lon="-0.2014400">
        <ele>2498.0</ele>
        <time>2020-09-13T11:41:41Z</time>
      </trkpt>
      <trkpt lat="42.7585480" lon="-0.2014920">
        <ele>2499.0</ele>
        <time>2020-09-13T11:41:51Z</time>
      </trkpt>
      <trkpt lat="42.7585010" lon="-0.2015030">
        <ele>2500.0</ele>
        <time>2020-09-13T11:41:56Z</time>
      </trkpt>
      <trkpt lat="42.7584500" lon="-0.2015090">
        <ele>2501.0</ele>
        <time>2020-09-13T11:42:01Z</time>
      </trkpt>
      <trkpt lat="42.7584250" lon="-0.2015140">
        <ele>2501.6</ele>
        <time>2020-09-13T11:42:04Z</time>
      </trkpt>
      <trkpt lat="42.7584040" lon="-0.2015160">
        <ele>2502.2</ele>
        <time>2020-09-13T11:42:06Z</time>
      </trkpt>
      <trkpt lat="42.7583920" lon="-0.2015130">
        <ele>2502.4</ele>
        <time>2020-09-13T11:42:07Z</time>
      </trkpt>
      <trkpt lat="42.7583510" lon="-0.2015190">
        <ele>2503.2</ele>
        <time>2020-09-13T11:42:11Z</time>
      </trkpt>
      <trkpt lat="42.7583420" lon="-0.2015180">
        <ele>2503.4</ele>
        <time>2020-09-13T11:42:12Z</time>
      </trkpt>
      <trkpt lat="42.7582950" lon="-0.2015060">
        <ele>2503.8</ele>
        <time>2020-09-13T11:42:17Z</time>
      </trkpt>
      <trkpt lat="42.7582730" lon="-0.2015090">
        <ele>2504.2</ele>
        <time>2020-09-13T11:42:20Z</time>
      </trkpt>
      <trkpt lat="42.7582660" lon="-0.2015110">
        <ele>2504.4</ele>
        <time>2020-09-13T11:42:21Z</time>
      </trkpt>
      <trkpt lat="42.7582570" lon="-0.2015120">
        <ele>2504.6</ele>
        <time>2020-09-13T11:42:22Z</time>
      </trkpt>
      <trkpt lat="42.7582360" lon="-0.2015300">
        <ele>2505.4</ele>
        <time>2020-09-13T11:42:25Z</time>
      </trkpt>
      <trkpt lat="42.7582370" lon="-0.2015470">
        <ele>2505.6</ele>
        <time>2020-09-13T11:42:26Z</time>
      </trkpt>
      <trkpt lat="42.7582350" lon="-0.2015730">
        <ele>2505.8</ele>
        <time>2020-09-13T11:42:28Z</time>
      </trkpt>
      <trkpt lat="42.7582180" lon="-0.2015790">
        <ele>2506.8</ele>
        <time>2020-09-13T11:42:35Z</time>
      </trkpt>
      <trkpt lat="42.7581870" lon="-0.2016240">
        <ele>2508.0</ele>
        <time>2020-09-13T11:42:42Z</time>
      </trkpt>
      <trkpt lat="42.7581720" lon="-0.2016670">
        <ele>2509.0</ele>
        <time>2020-09-13T11:42:47Z</time>
      </trkpt>
      <trkpt lat="42.7581560" lon="-0.2017240">
        <ele>2510.2</ele>
        <time>2020-09-13T11:42:53Z</time>
      </trkpt>
      <trkpt lat="42.7581430" lon="-0.2017780">
        <ele>2511.2</ele>
        <time>2020-09-13T11:42:58Z</time>
      </trkpt>
      <trkpt lat="42.7581390" lon="-0.2017890">
        <ele>2511.6</ele>
        <time>2020-09-13T11:42:59Z</time>
      </trkpt>
      <trkpt lat="42.7581330" lon="-0.2018220">
        <ele>2512.0</ele>
        <time>2020-09-13T11:43:03Z</time>
      </trkpt>
      <trkpt lat="42.7581510" lon="-0.2017820">
        <ele>2510.4</ele>
        <time>2020-09-13T11:52:52Z</time>
      </trkpt>
      <trkpt lat="42.7581190" lon="-0.2018920">
        <ele>2512.2</ele>
        <time>2020-09-13T11:53:29Z</time>
      </trkpt>
      <trkpt lat="42.7581180" lon="-0.2019080">
        <ele>2512.2</ele>
        <time>2020-09-13T11:53:30Z</time>
      </trkpt>
      <trkpt lat="42.7581260" lon="-0.2020480">
        <ele>2513.2</ele>
        <time>2020-09-13T11:54:03Z</time>
      </trkpt>
      <trkpt lat="42.7580950" lon="-0.2020930">
        <ele>2513.2</ele>
        <time>2020-09-13T11:54:18Z</time>
      </trkpt>
      <trkpt lat="42.7580620" lon="-0.2021920">
        <ele>2512.2</ele>
        <time>2020-09-13T11:54:26Z</time>
      </trkpt>
      <trkpt lat="42.7580100" lon="-0.2022910">
        <ele>2511.0</ele>
        <time>2020-09-13T11:54:35Z</time>
      </trkpt>
      <trkpt lat="42.7579860" lon="-0.2023100">
        <ele>2510.0</ele>
        <time>2020-09-13T11:54:38Z</time>
      </trkpt>
      <trkpt lat="42.7579710" lon="-0.2023380">
        <ele>2508.8</ele>
        <time>2020-09-13T11:54:41Z</time>
      </trkpt>
      <trkpt lat="42.7579610" lon="-0.2023590">
        <ele>2508.0</ele>
        <time>2020-09-13T11:54:43Z</time>
      </trkpt>
      <trkpt lat="42.7579510" lon="-0.2023660">
        <ele>2507.6</ele>
        <time>2020-09-13T11:54:44Z</time>
      </trkpt>
      <trkpt lat="42.7579390" lon="-0.2023750">
        <ele>2507.4</ele>
        <time>2020-09-13T11:54:45Z</time>
      </trkpt>
      <trkpt lat="42.7579290" lon="-0.2024000">
        <ele>2506.4</ele>
        <time>2020-09-13T11:54:47Z</time>
      </trkpt>
      <trkpt lat="42.7579150" lon="-0.2024390">
        <ele>2505.2</ele>
        <time>2020-09-13T11:54:50Z</time>
      </trkpt>
      <trkpt lat="42.7578880" lon="-0.2024840">
        <ele>2504.0</ele>
        <time>2020-09-13T11:54:53Z</time>
      </trkpt>
      <trkpt lat="42.7578700" lon="-0.2025140">
        <ele>2503.0</ele>
        <time>2020-09-13T11:54:55Z</time>
      </trkpt>
      <trkpt lat="42.7578430" lon="-0.2025490">
        <ele>2501.8</ele>
        <time>2020-09-13T11:54:58Z</time>
      </trkpt>
      <trkpt lat="42.7577160" lon="-0.2026730">
        <ele>2500.6</ele>
        <time>2020-09-13T11:55:12Z</time>
      </trkpt>
      <trkpt lat="42.7576280" lon="-0.2028270">
        <ele>2500.2</ele>
        <time>2020-09-13T11:55:24Z</time>
      </trkpt>
      <trkpt lat="42.7576110" lon="-0.2028430">
        <ele>2500.6</ele>
        <time>2020-09-13T11:55:27Z</time>
      </trkpt>
      <trkpt lat="42.7575670" lon="-0.2028540">
        <ele>2501.6</ele>
        <time>2020-09-13T11:55:33Z</time>
      </trkpt>
      <trkpt lat="42.7575600" lon="-0.2028570">
        <ele>2501.8</ele>
        <time>2020-09-13T11:55:34Z</time>
      </trkpt>
      <trkpt lat="42.7575550" lon="-0.2028620">
        <ele>2501.8</ele>
        <time>2020-09-13T11:55:35Z</time>
      </trkpt>
      <trkpt lat="42.7576190" lon="-0.2029530">
        <ele>2500.4</ele>
        <time>2020-09-13T11:55:47Z</time>
      </trkpt>
      <trkpt lat="42.7576260" lon="-0.2029630">
        <ele>2499.6</ele>
        <time>2020-09-13T11:55:49Z</time>
      </trkpt>
      <trkpt lat="42.7576220" lon="-0.2029640">
        <ele>2499.2</ele>
        <time>2020-09-13T11:55:51Z</time>
      </trkpt>
      <trkpt lat="42.7576130" lon="-0.2029690">
        <ele>2498.6</ele>
        <time>2020-09-13T11:55:54Z</time>
      </trkpt>
      <trkpt lat="42.7576050" lon="-0.2030110">
        <ele>2498.0</ele>
        <time>2020-09-13T11:56:01Z</time>
      </trkpt>
      <trkpt lat="42.7575850" lon="-0.2030340">
        <ele>2497.0</ele>
        <time>2020-09-13T11:56:05Z</time>
      </trkpt>
      <trkpt lat="42.7575390" lon="-0.2030520">
        <ele>2495.8</ele>
        <time>2020-09-13T11:56:14Z</time>
      </trkpt>
      <trkpt lat="42.7575350" lon="-0.2030600">
        <ele>2494.4</ele>
        <time>2020-09-13T11:56:17Z</time>
      </trkpt>
      <trkpt lat="42.7574690" lon="-0.2031360">
        <ele>2493.4</ele>
        <time>2020-09-13T11:56:38Z</time>
      </trkpt>
      <trkpt lat="42.7572960" lon="-0.2032090">
        <ele>2493.8</ele>
        <time>2020-09-13T11:57:04Z</time>
      </trkpt>
      <trkpt lat="42.7572640" lon="-0.2032760">
        <ele>2492.2</ele>
        <time>2020-09-13T11:57:13Z</time>
      </trkpt>
      <trkpt lat="42.7572520" lon="-0.2033220">
        <ele>2493.2</ele>
        <time>2020-09-13T11:57:39Z</time>
      </trkpt>
      <trkpt lat="42.7572470" lon="-0.2033240">
        <ele>2493.4</ele>
        <time>2020-09-13T11:57:40Z</time>
      </trkpt>
      <trkpt lat="42.7572220" lon="-0.2033300">
        <ele>2494.2</ele>
        <time>2020-09-13T11:57:47Z</time>
      </trkpt>
      <trkpt lat="42.7571870" lon="-0.2033800">
        <ele>2495.4</ele>
        <time>2020-09-13T11:57:54Z</time>
      </trkpt>
      <trkpt lat="42.7570680" lon="-0.2034780">
        <ele>2494.2</ele>
        <time>2020-09-13T11:58:21Z</time>
      </trkpt>
      <trkpt lat="42.7570370" lon="-0.2035250">
        <ele>2493.0</ele>
        <time>2020-09-13T11:58:26Z</time>
      </trkpt>
      <trkpt lat="42.7570420" lon="-0.2035600">
        <ele>2491.8</ele>
        <time>2020-09-13T11:58:35Z</time>
      </trkpt>
      <trkpt lat="42.7570640" lon="-0.2035930">
        <ele>2490.8</ele>
        <time>2020-09-13T11:58:40Z</time>
      </trkpt>
      <trkpt lat="42.7570150" lon="-0.2036750">
        <ele>2490.4</ele>
        <time>2020-09-13T11:58:51Z</time>
      </trkpt>
      <trkpt lat="42.7570100" lon="-0.2036880">
        <ele>2489.6</ele>
        <time>2020-09-13T11:58:53Z</time>
      </trkpt>
      <trkpt lat="42.7570030" lon="-0.2037000">
        <ele>2489.2</ele>
        <time>2020-09-13T11:58:55Z</time>
      </trkpt>
      <trkpt lat="42.7569960" lon="-0.2037320">
        <ele>2488.4</ele>
        <time>2020-09-13T11:58:59Z</time>
      </trkpt>
      <trkpt lat="42.7569810" lon="-0.2037930">
        <ele>2487.4</ele>
        <time>2020-09-13T11:59:10Z</time>
      </trkpt>
      <trkpt lat="42.7569710" lon="-0.2038170">
        <ele>2486.2</ele>
        <time>2020-09-13T11:59:14Z</time>
      </trkpt>
      <trkpt lat="42.7568980" lon="-0.2038980">
        <ele>2485.0</ele>
        <time>2020-09-13T11:59:25Z</time>
      </trkpt>
      <trkpt lat="42.7568850" lon="-0.2039070">
        <ele>2484.6</ele>
        <time>2020-09-13T11:59:27Z</time>
      </trkpt>
      <trkpt lat="42.7568710" lon="-0.2039060">
        <ele>2484.6</ele>
        <time>2020-09-13T11:59:29Z</time>
      </trkpt>
      <trkpt lat="42.7568410" lon="-0.2039350">
        <ele>2484.8</ele>
        <time>2020-09-13T11:59:33Z</time>
      </trkpt>
      <trkpt lat="42.7568160" lon="-0.2039670">
        <ele>2485.2</ele>
        <time>2020-09-13T11:59:37Z</time>
      </trkpt>
      <trkpt lat="42.7568010" lon="-0.2039980">
        <ele>2485.4</ele>
        <time>2020-09-13T11:59:40Z</time>
      </trkpt>
      <trkpt lat="42.7567890" lon="-0.2040210">
        <ele>2485.4</ele>
        <time>2020-09-13T11:59:42Z</time>
      </trkpt>
      <trkpt lat="42.7567610" lon="-0.2040670">
        <ele>2485.0</ele>
        <time>2020-09-13T11:59:46Z</time>
      </trkpt>
      <trkpt lat="42.7567550" lon="-0.2040910">
        <ele>2484.6</ele>
        <time>2020-09-13T11:59:48Z</time>
      </trkpt>
      <trkpt lat="42.7567030" lon="-0.2041400">
        <ele>2484.6</ele>
        <time>2020-09-13T11:59:57Z</time>
      </trkpt>
      <trkpt lat="42.7566830" lon="-0.2041910">
        <ele>2483.8</ele>
        <time>2020-09-13T12:00:01Z</time>
      </trkpt>
      <trkpt lat="42.7566700" lon="-0.2042200">
        <ele>2483.4</ele>
        <time>2020-09-13T12:00:03Z</time>
      </trkpt>
      <trkpt lat="42.7566460" lon="-0.2042730">
        <ele>2483.4</ele>
        <time>2020-09-13T12:00:07Z</time>
      </trkpt>
      <trkpt lat="42.7566320" lon="-0.2043140">
        <ele>2482.6</ele>
        <time>2020-09-13T12:00:11Z</time>
      </trkpt>
      <trkpt lat="42.7566280" lon="-0.2043190">
        <ele>2482.4</ele>
        <time>2020-09-13T12:00:12Z</time>
      </trkpt>
      <trkpt lat="42.7566190" lon="-0.2043390">
        <ele>2482.0</ele>
        <time>2020-09-13T12:00:14Z</time>
      </trkpt>
      <trkpt lat="42.7565970" lon="-0.2043720">
        <ele>2481.8</ele>
        <time>2020-09-13T12:00:17Z</time>
      </trkpt>
      <trkpt lat="42.7565970" lon="-0.2043780">
        <ele>2481.8</ele>
        <time>2020-09-13T12:00:20Z</time>
      </trkpt>
      <trkpt lat="42.7565890" lon="-0.2043990">
        <ele>2481.4</ele>
        <time>2020-09-13T12:00:23Z</time>
      </trkpt>
      <trkpt lat="42.7565330" lon="-0.2045690">
        <ele>2482.0</ele>
        <time>2020-09-13T12:00:39Z</time>
      </trkpt>
      <trkpt lat="42.7564990" lon="-0.2046200">
        <ele>2482.0</ele>
        <time>2020-09-13T12:00:43Z</time>
      </trkpt>
      <trkpt lat="42.7564860" lon="-0.2046280">
        <ele>2482.0</ele>
        <time>2020-09-13T12:00:45Z</time>
      </trkpt>
      <trkpt lat="42.7564640" lon="-0.2046600">
        <ele>2482.6</ele>
        <time>2020-09-13T12:00:49Z</time>
      </trkpt>
      <trkpt lat="42.7564280" lon="-0.2046980">
        <ele>2482.6</ele>
        <time>2020-09-13T12:00:54Z</time>
      </trkpt>
      <trkpt lat="42.7564170" lon="-0.2047080">
        <ele>2482.2</ele>
        <time>2020-09-13T12:00:56Z</time>
      </trkpt>
      <trkpt lat="42.7563760" lon="-0.2047640">
        <ele>2481.4</ele>
        <time>2020-09-13T12:01:06Z</time>
      </trkpt>
      <trkpt lat="42.7563480" lon="-0.2048090">
        <ele>2480.4</ele>
        <time>2020-09-13T12:01:10Z</time>
      </trkpt>
      <trkpt lat="42.7563050" lon="-0.2048680">
        <ele>2478.8</ele>
        <time>2020-09-13T12:01:16Z</time>
      </trkpt>
      <trkpt lat="42.7562990" lon="-0.2048730">
        <ele>2477.8</ele>
        <time>2020-09-13T12:01:18Z</time>
      </trkpt>
      <trkpt lat="42.7562950" lon="-0.2048690">
        <ele>2477.4</ele>
        <time>2020-09-13T12:01:19Z</time>
      </trkpt>
      <trkpt lat="42.7563090" lon="-0.2048620">
        <ele>2476.2</ele>
        <time>2020-09-13T12:01:23Z</time>
      </trkpt>
      <trkpt lat="42.7563070" lon="-0.2049010">
        <ele>2475.0</ele>
        <time>2020-09-13T12:01:26Z</time>
      </trkpt>
      <trkpt lat="42.7562600" lon="-0.2049290">
        <ele>2473.8</ele>
        <time>2020-09-13T12:01:32Z</time>
      </trkpt>
      <trkpt lat="42.7562090" lon="-0.2049930">
        <ele>2472.6</ele>
        <time>2020-09-13T12:01:37Z</time>
      </trkpt>
      <trkpt lat="42.7561830" lon="-0.2050510">
        <ele>2471.4</ele>
        <time>2020-09-13T12:01:40Z</time>
      </trkpt>
      <trkpt lat="42.7560920" lon="-0.2052130">
        <ele>2471.4</ele>
        <time>2020-09-13T12:01:51Z</time>
      </trkpt>
      <trkpt lat="42.7560690" lon="-0.2052520">
        <ele>2471.6</ele>
        <time>2020-09-13T12:01:54Z</time>
      </trkpt>
      <trkpt lat="42.7560380" lon="-0.2052920">
        <ele>2471.8</ele>
        <time>2020-09-13T12:01:58Z</time>
      </trkpt>
      <trkpt lat="42.7560120" lon="-0.2053380">
        <ele>2471.4</ele>
        <time>2020-09-13T12:02:01Z</time>
      </trkpt>
      <trkpt lat="42.7559610" lon="-0.2053960">
        <ele>2470.4</ele>
        <time>2020-09-13T12:02:07Z</time>
      </trkpt>
      <trkpt lat="42.7559540" lon="-0.2053960">
        <ele>2470.2</ele>
        <time>2020-09-13T12:02:08Z</time>
      </trkpt>
      <trkpt lat="42.7558860" lon="-0.2054690">
        <ele>2469.6</ele>
        <time>2020-09-13T12:02:16Z</time>
      </trkpt>
      <trkpt lat="42.7558380" lon="-0.2055200">
        <ele>2469.8</ele>
        <time>2020-09-13T12:02:25Z</time>
      </trkpt>
      <trkpt lat="42.7558170" lon="-0.2055750">
        <ele>2469.4</ele>
        <time>2020-09-13T12:02:29Z</time>
      </trkpt>
      <trkpt lat="42.7558070" lon="-0.2055880">
        <ele>2468.8</ele>
        <time>2020-09-13T12:02:31Z</time>
      </trkpt>
      <trkpt lat="42.7558030" lon="-0.2056080">
        <ele>2468.6</ele>
        <time>2020-09-13T12:02:33Z</time>
      </trkpt>
      <trkpt lat="42.7557920" lon="-0.2056250">
        <ele>2468.4</ele>
        <time>2020-09-13T12:02:35Z</time>
      </trkpt>
      <trkpt lat="42.7557850" lon="-0.2056350">
        <ele>2468.2</ele>
        <time>2020-09-13T12:02:36Z</time>
      </trkpt>
      <trkpt lat="42.7557680" lon="-0.2056490">
        <ele>2467.8</ele>
        <time>2020-09-13T12:02:38Z</time>
      </trkpt>
      <trkpt lat="42.7557270" lon="-0.2056750">
        <ele>2467.6</ele>
        <time>2020-09-13T12:02:44Z</time>
      </trkpt>
      <trkpt lat="42.7557040" lon="-0.2056850">
        <ele>2467.2</ele>
        <time>2020-09-13T12:02:47Z</time>
      </trkpt>
      <trkpt lat="42.7556970" lon="-0.2056850">
        <ele>2467.0</ele>
        <time>2020-09-13T12:02:48Z</time>
      </trkpt>
      <trkpt lat="42.7556550" lon="-0.2057470">
        <ele>2466.0</ele>
        <time>2020-09-13T12:02:57Z</time>
      </trkpt>
      <trkpt lat="42.7556480" lon="-0.2057610">
        <ele>2464.8</ele>
        <time>2020-09-13T12:03:00Z</time>
      </trkpt>
      <trkpt lat="42.7556080" lon="-0.2058200">
        <ele>2463.8</ele>
        <time>2020-09-13T12:03:15Z</time>
      </trkpt>
      <trkpt lat="42.7555780" lon="-0.2058660">
        <ele>2462.4</ele>
        <time>2020-09-13T12:03:21Z</time>
      </trkpt>
      <trkpt lat="42.7555680" lon="-0.2058800">
        <ele>2461.4</ele>
        <time>2020-09-13T12:03:24Z</time>
      </trkpt>
      <trkpt lat="42.7555590" lon="-0.2058960">
        <ele>2460.2</ele>
        <time>2020-09-13T12:03:27Z</time>
      </trkpt>
      <trkpt lat="42.7555310" lon="-0.2059430">
        <ele>2459.2</ele>
        <time>2020-09-13T12:03:41Z</time>
      </trkpt>
      <trkpt lat="42.7554860" lon="-0.2060070">
        <ele>2458.0</ele>
        <time>2020-09-13T12:03:51Z</time>
      </trkpt>
      <trkpt lat="42.7554700" lon="-0.2060200">
        <ele>2456.8</ele>
        <time>2020-09-13T12:03:55Z</time>
      </trkpt>
      <trkpt lat="42.7553960" lon="-0.2061920">
        <ele>2457.6</ele>
        <time>2020-09-13T12:04:11Z</time>
      </trkpt>
      <trkpt lat="42.7553790" lon="-0.2062090">
        <ele>2458.0</ele>
        <time>2020-09-13T12:04:14Z</time>
      </trkpt>
      <trkpt lat="42.7553610" lon="-0.2062340">
        <ele>2459.0</ele>
        <time>2020-09-13T12:04:18Z</time>
      </trkpt>
      <trkpt lat="42.7553150" lon="-0.2063410">
        <ele>2458.0</ele>
        <time>2020-09-13T12:04:34Z</time>
      </trkpt>
      <trkpt lat="42.7552630" lon="-0.2064500">
        <ele>2457.4</ele>
        <time>2020-09-13T12:04:45Z</time>
      </trkpt>
      <trkpt lat="42.7552530" lon="-0.2064870">
        <ele>2457.0</ele>
        <time>2020-09-13T12:04:48Z</time>
      </trkpt>
      <trkpt lat="42.7552470" lon="-0.2065000">
        <ele>2457.0</ele>
        <time>2020-09-13T12:04:49Z</time>
      </trkpt>
      <trkpt lat="42.7552240" lon="-0.2065450">
        <ele>2456.6</ele>
        <time>2020-09-13T12:04:53Z</time>
      </trkpt>
      <trkpt lat="42.7552130" lon="-0.2066260">
        <ele>2456.0</ele>
        <time>2020-09-13T12:05:02Z</time>
      </trkpt>
      <trkpt lat="42.7552050" lon="-0.2067070">
        <ele>2454.8</ele>
        <time>2020-09-13T12:05:07Z</time>
      </trkpt>
      <trkpt lat="42.7551600" lon="-0.2068610">
        <ele>2455.0</ele>
        <time>2020-09-13T12:05:17Z</time>
      </trkpt>
      <trkpt lat="42.7551360" lon="-0.2069220">
        <ele>2454.8</ele>
        <time>2020-09-13T12:05:22Z</time>
      </trkpt>
      <trkpt lat="42.7551350" lon="-0.2069610">
        <ele>2454.4</ele>
        <time>2020-09-13T12:05:26Z</time>
      </trkpt>
      <trkpt lat="42.7551300" lon="-0.2069720">
        <ele>2454.0</ele>
        <time>2020-09-13T12:05:28Z</time>
      </trkpt>
      <trkpt lat="42.7551300" lon="-0.2071840">
        <ele>2453.8</ele>
        <time>2020-09-13T12:05:43Z</time>
      </trkpt>
      <trkpt lat="42.7551310" lon="-0.2072070">
        <ele>2453.4</ele>
        <time>2020-09-13T12:05:45Z</time>
      </trkpt>
      <trkpt lat="42.7551140" lon="-0.2074000">
        <ele>2454.2</ele>
        <time>2020-09-13T12:05:58Z</time>
      </trkpt>
      <trkpt lat="42.7551080" lon="-0.2074250">
        <ele>2454.8</ele>
        <time>2020-09-13T12:06:00Z</time>
      </trkpt>
      <trkpt lat="42.7550700" lon="-0.2074610">
        <ele>2456.0</ele>
        <time>2020-09-13T12:06:03Z</time>
      </trkpt>
      <trkpt lat="42.7549520" lon="-0.2076470">
        <ele>2455.4</ele>
        <time>2020-09-13T12:06:18Z</time>
      </trkpt>
      <trkpt lat="42.7549240" lon="-0.2077490">
        <ele>2455.0</ele>
        <time>2020-09-13T12:06:24Z</time>
      </trkpt>
      <trkpt lat="42.7549060" lon="-0.2079150">
        <ele>2454.0</ele>
        <time>2020-09-13T12:06:34Z</time>
      </trkpt>
      <trkpt lat="42.7548980" lon="-0.2079370">
        <ele>2453.4</ele>
        <time>2020-09-13T12:06:36Z</time>
      </trkpt>
      <trkpt lat="42.7548870" lon="-0.2079640">
        <ele>2453.0</ele>
        <time>2020-09-13T12:06:38Z</time>
      </trkpt>
      <trkpt lat="42.7548840" lon="-0.2079830">
        <ele>2452.8</ele>
        <time>2020-09-13T12:06:39Z</time>
      </trkpt>
      <trkpt lat="42.7548780" lon="-0.2080700">
        <ele>2451.8</ele>
        <time>2020-09-13T12:06:44Z</time>
      </trkpt>
      <trkpt lat="42.7548580" lon="-0.2081340">
        <ele>2451.2</ele>
        <time>2020-09-13T12:06:49Z</time>
      </trkpt>
      <trkpt lat="42.7548230" lon="-0.2082040">
        <ele>2450.6</ele>
        <time>2020-09-13T12:06:54Z</time>
      </trkpt>
      <trkpt lat="42.7548190" lon="-0.2082500">
        <ele>2449.6</ele>
        <time>2020-09-13T12:06:57Z</time>
      </trkpt>
      <trkpt lat="42.7548130" lon="-0.2082800">
        <ele>2448.8</ele>
        <time>2020-09-13T12:06:59Z</time>
      </trkpt>
      <trkpt lat="42.7548010" lon="-0.2082950">
        <ele>2448.4</ele>
        <time>2020-09-13T12:07:01Z</time>
      </trkpt>
      <trkpt lat="42.7547860" lon="-0.2083020">
        <ele>2447.6</ele>
        <time>2020-09-13T12:07:03Z</time>
      </trkpt>
      <trkpt lat="42.7547760" lon="-0.2083040">
        <ele>2447.4</ele>
        <time>2020-09-13T12:07:04Z</time>
      </trkpt>
      <trkpt lat="42.7547650" lon="-0.2083030">
        <ele>2447.2</ele>
        <time>2020-09-13T12:07:05Z</time>
      </trkpt>
      <trkpt lat="42.7547310" lon="-0.2082930">
        <ele>2446.8</ele>
        <time>2020-09-13T12:07:08Z</time>
      </trkpt>
      <trkpt lat="42.7547020" lon="-0.2082990">
        <ele>2446.2</ele>
        <time>2020-09-13T12:07:11Z</time>
      </trkpt>
      <trkpt lat="42.7546940" lon="-0.2082940">
        <ele>2446.0</ele>
        <time>2020-09-13T12:07:12Z</time>
      </trkpt>
      <trkpt lat="42.7546470" lon="-0.2082830">
        <ele>2445.2</ele>
        <time>2020-09-13T12:07:16Z</time>
      </trkpt>
      <trkpt lat="42.7546360" lon="-0.2082880">
        <ele>2445.0</ele>
        <time>2020-09-13T12:07:17Z</time>
      </trkpt>
      <trkpt lat="42.7546360" lon="-0.2083220">
        <ele>2444.2</ele>
        <time>2020-09-13T12:07:19Z</time>
      </trkpt>
      <trkpt lat="42.7546240" lon="-0.2083290">
        <ele>2443.2</ele>
        <time>2020-09-13T12:07:21Z</time>
      </trkpt>
      <trkpt lat="42.7546200" lon="-0.2083200">
        <ele>2443.0</ele>
        <time>2020-09-13T12:07:22Z</time>
      </trkpt>
      <trkpt lat="42.7545930" lon="-0.2083230">
        <ele>2442.4</ele>
        <time>2020-09-13T12:07:25Z</time>
      </trkpt>
      <trkpt lat="42.7545710" lon="-0.2083300">
        <ele>2441.6</ele>
        <time>2020-09-13T12:07:27Z</time>
      </trkpt>
      <trkpt lat="42.7545600" lon="-0.2083370">
        <ele>2441.2</ele>
        <time>2020-09-13T12:07:28Z</time>
      </trkpt>
      <trkpt lat="42.7545450" lon="-0.2083570">
        <ele>2440.6</ele>
        <time>2020-09-13T12:07:30Z</time>
      </trkpt>
      <trkpt lat="42.7545400" lon="-0.2083630">
        <ele>2440.4</ele>
        <time>2020-09-13T12:07:31Z</time>
      </trkpt>
      <trkpt lat="42.7545090" lon="-0.2083470">
        <ele>2439.6</ele>
        <time>2020-09-13T12:07:37Z</time>
      </trkpt>
      <trkpt lat="42.7545000" lon="-0.2083220">
        <ele>2438.4</ele>
        <time>2020-09-13T12:07:42Z</time>
      </trkpt>
      <trkpt lat="42.7544880" lon="-0.2082760">
        <ele>2437.2</ele>
        <time>2020-09-13T12:07:48Z</time>
      </trkpt>
      <trkpt lat="42.7544970" lon="-0.2082140">
        <ele>2436.0</ele>
        <time>2020-09-13T12:07:52Z</time>
      </trkpt>
      <trkpt lat="42.7545040" lon="-0.2081350">
        <ele>2435.0</ele>
        <time>2020-09-13T12:07:56Z</time>
      </trkpt>
      <trkpt lat="42.7545000" lon="-0.2080330">
        <ele>2433.6</ele>
        <time>2020-09-13T12:08:01Z</time>
      </trkpt>
      <trkpt lat="42.7544390" lon="-0.2080200">
        <ele>2432.4</ele>
        <time>2020-09-13T12:08:05Z</time>
      </trkpt>
      <trkpt lat="42.7543270" lon="-0.2079960">
        <ele>2431.4</ele>
        <time>2020-09-13T12:08:12Z</time>
      </trkpt>
      <trkpt lat="42.7542690" lon="-0.2079300">
        <ele>2430.2</ele>
        <time>2020-09-13T12:08:20Z</time>
      </trkpt>
      <trkpt lat="42.7542660" lon="-0.2078900">
        <ele>2429.2</ele>
        <time>2020-09-13T12:08:23Z</time>
      </trkpt>
      <trkpt lat="42.7542740" lon="-0.2078230">
        <ele>2428.0</ele>
        <time>2020-09-13T12:08:27Z</time>
      </trkpt>
      <trkpt lat="42.7542660" lon="-0.2078180">
        <ele>2427.8</ele>
        <time>2020-09-13T12:08:28Z</time>
      </trkpt>
      <trkpt lat="42.7542470" lon="-0.2077960">
        <ele>2426.8</ele>
        <time>2020-09-13T12:08:31Z</time>
      </trkpt>
      <trkpt lat="42.7542470" lon="-0.2077690">
        <ele>2426.4</ele>
        <time>2020-09-13T12:08:33Z</time>
      </trkpt>
      <trkpt lat="42.7542280" lon="-0.2077540">
        <ele>2425.8</ele>
        <time>2020-09-13T12:08:35Z</time>
      </trkpt>
      <trkpt lat="42.7542230" lon="-0.2077440">
        <ele>2425.6</ele>
        <time>2020-09-13T12:08:36Z</time>
      </trkpt>
      <trkpt lat="42.7542210" lon="-0.2077300">
        <ele>2425.2</ele>
        <time>2020-09-13T12:08:37Z</time>
      </trkpt>
      <trkpt lat="42.7542290" lon="-0.2076820">
        <ele>2424.4</ele>
        <time>2020-09-13T12:08:40Z</time>
      </trkpt>
      <trkpt lat="42.7542170" lon="-0.2076730">
        <ele>2424.4</ele>
        <time>2020-09-13T12:08:41Z</time>
      </trkpt>
      <trkpt lat="42.7541820" lon="-0.2076750">
        <ele>2424.0</ele>
        <time>2020-09-13T12:08:43Z</time>
      </trkpt>
      <trkpt lat="42.7541470" lon="-0.2077090">
        <ele>2423.4</ele>
        <time>2020-09-13T12:08:46Z</time>
      </trkpt>
      <trkpt lat="42.7541420" lon="-0.2077240">
        <ele>2423.0</ele>
        <time>2020-09-13T12:08:47Z</time>
      </trkpt>
      <trkpt lat="42.7541370" lon="-0.2077280">
        <ele>2422.4</ele>
        <time>2020-09-13T12:08:49Z</time>
      </trkpt>
      <trkpt lat="42.7541260" lon="-0.2077300">
        <ele>2421.6</ele>
        <time>2020-09-13T12:08:52Z</time>
      </trkpt>
      <trkpt lat="42.7541180" lon="-0.2077050">
        <ele>2421.4</ele>
        <time>2020-09-13T12:08:54Z</time>
      </trkpt>
      <trkpt lat="42.7541110" lon="-0.2076980">
        <ele>2421.2</ele>
        <time>2020-09-13T12:08:55Z</time>
      </trkpt>
      <trkpt lat="42.7540900" lon="-0.2076990">
        <ele>2420.8</ele>
        <time>2020-09-13T12:08:57Z</time>
      </trkpt>
      <trkpt lat="42.7540670" lon="-0.2077040">
        <ele>2420.2</ele>
        <time>2020-09-13T12:08:59Z</time>
      </trkpt>
      <trkpt lat="42.7540450" lon="-0.2077140">
        <ele>2419.4</ele>
        <time>2020-09-13T12:09:02Z</time>
      </trkpt>
      <trkpt lat="42.7540380" lon="-0.2077120">
        <ele>2419.0</ele>
        <time>2020-09-13T12:09:03Z</time>
      </trkpt>
      <trkpt lat="42.7540320" lon="-0.2077460">
        <ele>2418.0</ele>
        <time>2020-09-13T12:09:06Z</time>
      </trkpt>
      <trkpt lat="42.7540240" lon="-0.2077600">
        <ele>2417.0</ele>
        <time>2020-09-13T12:09:10Z</time>
      </trkpt>
      <trkpt lat="42.7540050" lon="-0.2077590">
        <ele>2415.8</ele>
        <time>2020-09-13T12:09:14Z</time>
      </trkpt>
      <trkpt lat="42.7540130" lon="-0.2077070">
        <ele>2414.8</ele>
        <time>2020-09-13T12:09:20Z</time>
      </trkpt>
      <trkpt lat="42.7539960" lon="-0.2076750">
        <ele>2413.6</ele>
        <time>2020-09-13T12:09:23Z</time>
      </trkpt>
      <trkpt lat="42.7539830" lon="-0.2076830">
        <ele>2412.6</ele>
        <time>2020-09-13T12:09:25Z</time>
      </trkpt>
      <trkpt lat="42.7539550" lon="-0.2077250">
        <ele>2411.8</ele>
        <time>2020-09-13T12:09:29Z</time>
      </trkpt>
      <trkpt lat="42.7539390" lon="-0.2077360">
        <ele>2411.6</ele>
        <time>2020-09-13T12:09:31Z</time>
      </trkpt>
      <trkpt lat="42.7539440" lon="-0.2077500">
        <ele>2410.4</ele>
        <time>2020-09-13T12:09:39Z</time>
      </trkpt>
      <trkpt lat="42.7539660" lon="-0.2077010">
        <ele>2409.4</ele>
        <time>2020-09-13T12:09:45Z</time>
      </trkpt>
      <trkpt lat="42.7538720" lon="-0.2077130">
        <ele>2408.2</ele>
        <time>2020-09-13T12:09:55Z</time>
      </trkpt>
      <trkpt lat="42.7538630" lon="-0.2077190">
        <ele>2407.6</ele>
        <time>2020-09-13T12:09:57Z</time>
      </trkpt>
      <trkpt lat="42.7538590" lon="-0.2077230">
        <ele>2407.2</ele>
        <time>2020-09-13T12:09:59Z</time>
      </trkpt>
      <trkpt lat="42.7538330" lon="-0.2077080">
        <ele>2406.2</ele>
        <time>2020-09-13T12:10:08Z</time>
      </trkpt>
      <trkpt lat="42.7538250" lon="-0.2077180">
        <ele>2405.2</ele>
        <time>2020-09-13T12:10:13Z</time>
      </trkpt>
      <trkpt lat="42.7538220" lon="-0.2077210">
        <ele>2404.0</ele>
        <time>2020-09-13T12:10:16Z</time>
      </trkpt>
      <trkpt lat="42.7538030" lon="-0.2076940">
        <ele>2402.8</ele>
        <time>2020-09-13T12:10:21Z</time>
      </trkpt>
      <trkpt lat="42.7537740" lon="-0.2076920">
        <ele>2401.6</ele>
        <time>2020-09-13T12:10:26Z</time>
      </trkpt>
      <trkpt lat="42.7537540" lon="-0.2076740">
        <ele>2400.4</ele>
        <time>2020-09-13T12:10:30Z</time>
      </trkpt>
      <trkpt lat="42.7537510" lon="-0.2076720">
        <ele>2399.4</ele>
        <time>2020-09-13T12:10:32Z</time>
      </trkpt>
      <trkpt lat="42.7537660" lon="-0.2077910">
        <ele>2398.2</ele>
        <time>2020-09-13T12:10:46Z</time>
      </trkpt>
      <trkpt lat="42.7537530" lon="-0.2078400">
        <ele>2397.0</ele>
        <time>2020-09-13T12:10:51Z</time>
      </trkpt>
      <trkpt lat="42.7537580" lon="-0.2078890">
        <ele>2395.8</ele>
        <time>2020-09-13T12:10:56Z</time>
      </trkpt>
      <trkpt lat="42.7537650" lon="-0.2079440">
        <ele>2395.2</ele>
        <time>2020-09-13T12:11:00Z</time>
      </trkpt>
      <trkpt lat="42.7537760" lon="-0.2079820">
        <ele>2394.6</ele>
        <time>2020-09-13T12:11:04Z</time>
      </trkpt>
      <trkpt lat="42.7537740" lon="-0.2079880">
        <ele>2394.4</ele>
        <time>2020-09-13T12:11:05Z</time>
      </trkpt>
      <trkpt lat="42.7537770" lon="-0.2080330">
        <ele>2393.4</ele>
        <time>2020-09-13T12:11:11Z</time>
      </trkpt>
      <trkpt lat="42.7537850" lon="-0.2081240">
        <ele>2392.4</ele>
        <time>2020-09-13T12:11:25Z</time>
      </trkpt>
      <trkpt lat="42.7537740" lon="-0.2081650">
        <ele>2391.0</ele>
        <time>2020-09-13T12:11:29Z</time>
      </trkpt>
      <trkpt lat="42.7537740" lon="-0.2082070">
        <ele>2389.8</ele>
        <time>2020-09-13T12:11:32Z</time>
      </trkpt>
      <trkpt lat="42.7537620" lon="-0.2082710">
        <ele>2388.8</ele>
        <time>2020-09-13T12:11:38Z</time>
      </trkpt>
      <trkpt lat="42.7537560" lon="-0.2081300">
        <ele>2387.6</ele>
        <time>2020-09-13T12:11:49Z</time>
      </trkpt>
      <trkpt lat="42.7537520" lon="-0.2080950">
        <ele>2387.6</ele>
        <time>2020-09-13T12:11:51Z</time>
      </trkpt>
      <trkpt lat="42.7537460" lon="-0.2080690">
        <ele>2387.4</ele>
        <time>2020-09-13T12:11:53Z</time>
      </trkpt>
      <trkpt lat="42.7537320" lon="-0.2080250">
        <ele>2387.4</ele>
        <time>2020-09-13T12:11:57Z</time>
      </trkpt>
      <trkpt lat="42.7537120" lon="-0.2080250">
        <ele>2387.4</ele>
        <time>2020-09-13T12:11:59Z</time>
      </trkpt>
      <trkpt lat="42.7536950" lon="-0.2080240">
        <ele>2387.2</ele>
        <time>2020-09-13T12:12:01Z</time>
      </trkpt>
      <trkpt lat="42.7536880" lon="-0.2080070">
        <ele>2386.4</ele>
        <time>2020-09-13T12:12:03Z</time>
      </trkpt>
      <trkpt lat="42.7536740" lon="-0.2079470">
        <ele>2385.8</ele>
        <time>2020-09-13T12:12:08Z</time>
      </trkpt>
      <trkpt lat="42.7536760" lon="-0.2079370">
        <ele>2385.8</ele>
        <time>2020-09-13T12:12:09Z</time>
      </trkpt>
      <trkpt lat="42.7536620" lon="-0.2079050">
        <ele>2385.4</ele>
        <time>2020-09-13T12:12:16Z</time>
      </trkpt>
      <trkpt lat="42.7536560" lon="-0.2078950">
        <ele>2385.2</ele>
        <time>2020-09-13T12:12:18Z</time>
      </trkpt>
      <trkpt lat="42.7536380" lon="-0.2078720">
        <ele>2384.2</ele>
        <time>2020-09-13T12:12:22Z</time>
      </trkpt>
      <trkpt lat="42.7536160" lon="-0.2078370">
        <ele>2383.2</ele>
        <time>2020-09-13T12:12:28Z</time>
      </trkpt>
      <trkpt lat="42.7536200" lon="-0.2077650">
        <ele>2382.0</ele>
        <time>2020-09-13T12:12:33Z</time>
      </trkpt>
      <trkpt lat="42.7536040" lon="-0.2077430">
        <ele>2381.0</ele>
        <time>2020-09-13T12:12:37Z</time>
      </trkpt>
      <trkpt lat="42.7535840" lon="-0.2077860">
        <ele>2380.0</ele>
        <time>2020-09-13T12:12:42Z</time>
      </trkpt>
      <trkpt lat="42.7535810" lon="-0.2078730">
        <ele>2378.8</ele>
        <time>2020-09-13T12:12:50Z</time>
      </trkpt>
      <trkpt lat="42.7535790" lon="-0.2079010">
        <ele>2377.8</ele>
        <time>2020-09-13T12:12:53Z</time>
      </trkpt>
      <trkpt lat="42.7535810" lon="-0.2079690">
        <ele>2376.4</ele>
        <time>2020-09-13T12:12:59Z</time>
      </trkpt>
      <trkpt lat="42.7535750" lon="-0.2079820">
        <ele>2375.8</ele>
        <time>2020-09-13T12:13:00Z</time>
      </trkpt>
      <trkpt lat="42.7535680" lon="-0.2079920">
        <ele>2375.4</ele>
        <time>2020-09-13T12:13:01Z</time>
      </trkpt>
      <trkpt lat="42.7535610" lon="-0.2080400">
        <ele>2374.2</ele>
        <time>2020-09-13T12:13:06Z</time>
      </trkpt>
      <trkpt lat="42.7535270" lon="-0.2081190">
        <ele>2372.8</ele>
        <time>2020-09-13T12:13:14Z</time>
      </trkpt>
      <trkpt lat="42.7535300" lon="-0.2081460">
        <ele>2371.8</ele>
        <time>2020-09-13T12:13:17Z</time>
      </trkpt>
      <trkpt lat="42.7535200" lon="-0.2082070">
        <ele>2370.6</ele>
        <time>2020-09-13T12:13:24Z</time>
      </trkpt>
      <trkpt lat="42.7535250" lon="-0.2082410">
        <ele>2369.6</ele>
        <time>2020-09-13T12:13:28Z</time>
      </trkpt>
      <trkpt lat="42.7535170" lon="-0.2082800">
        <ele>2368.4</ele>
        <time>2020-09-13T12:13:32Z</time>
      </trkpt>
      <trkpt lat="42.7535030" lon="-0.2083280">
        <ele>2367.4</ele>
        <time>2020-09-13T12:13:37Z</time>
      </trkpt>
      <trkpt lat="42.7534910" lon="-0.2083800">
        <ele>2366.2</ele>
        <time>2020-09-13T12:13:40Z</time>
      </trkpt>
      <trkpt lat="42.7534970" lon="-0.2084240">
        <ele>2365.2</ele>
        <time>2020-09-13T12:13:43Z</time>
      </trkpt>
      <trkpt lat="42.7535020" lon="-0.2084380">
        <ele>2364.6</ele>
        <time>2020-09-13T12:13:45Z</time>
      </trkpt>
      <trkpt lat="42.7534950" lon="-0.2084660">
        <ele>2364.0</ele>
        <time>2020-09-13T12:13:47Z</time>
      </trkpt>
      <trkpt lat="42.7534920" lon="-0.2085470">
        <ele>2362.8</ele>
        <time>2020-09-13T12:13:53Z</time>
      </trkpt>
      <trkpt lat="42.7534880" lon="-0.2085950">
        <ele>2361.8</ele>
        <time>2020-09-13T12:13:56Z</time>
      </trkpt>
      <trkpt lat="42.7534880" lon="-0.2086740">
        <ele>2361.0</ele>
        <time>2020-09-13T12:14:03Z</time>
      </trkpt>
      <trkpt lat="42.7534900" lon="-0.2086950">
        <ele>2360.6</ele>
        <time>2020-09-13T12:14:06Z</time>
      </trkpt>
      <trkpt lat="42.7534890" lon="-0.2087520">
        <ele>2359.4</ele>
        <time>2020-09-13T12:14:10Z</time>
      </trkpt>
      <trkpt lat="42.7534970" lon="-0.2087890">
        <ele>2358.2</ele>
        <time>2020-09-13T12:14:13Z</time>
      </trkpt>
      <trkpt lat="42.7535050" lon="-0.2088070">
        <ele>2356.8</ele>
        <time>2020-09-13T12:14:15Z</time>
      </trkpt>
      <trkpt lat="42.7535220" lon="-0.2088310">
        <ele>2355.8</ele>
        <time>2020-09-13T12:14:18Z</time>
      </trkpt>
      <trkpt lat="42.7535210" lon="-0.2088470">
        <ele>2355.6</ele>
        <time>2020-09-13T12:14:19Z</time>
      </trkpt>
      <trkpt lat="42.7535220" lon="-0.2088580">
        <ele>2355.6</ele>
        <time>2020-09-13T12:14:20Z</time>
      </trkpt>
      <trkpt lat="42.7535380" lon="-0.2089190">
        <ele>2355.4</ele>
        <time>2020-09-13T12:14:24Z</time>
      </trkpt>
      <trkpt lat="42.7535470" lon="-0.2089420">
        <ele>2355.0</ele>
        <time>2020-09-13T12:14:26Z</time>
      </trkpt>
      <trkpt lat="42.7535460" lon="-0.2089700">
        <ele>2354.6</ele>
        <time>2020-09-13T12:14:28Z</time>
      </trkpt>
      <trkpt lat="42.7535410" lon="-0.2090260">
        <ele>2354.0</ele>
        <time>2020-09-13T12:14:31Z</time>
      </trkpt>
      <trkpt lat="42.7535330" lon="-0.2090610">
        <ele>2353.8</ele>
        <time>2020-09-13T12:14:33Z</time>
      </trkpt>
      <trkpt lat="42.7535410" lon="-0.2090970">
        <ele>2353.4</ele>
        <time>2020-09-13T12:14:35Z</time>
      </trkpt>
      <trkpt lat="42.7535500" lon="-0.2091600">
        <ele>2352.2</ele>
        <time>2020-09-13T12:14:39Z</time>
      </trkpt>
      <trkpt lat="42.7535590" lon="-0.2093260">
        <ele>2351.4</ele>
        <time>2020-09-13T12:14:51Z</time>
      </trkpt>
      <trkpt lat="42.7535880" lon="-0.2093800">
        <ele>2351.2</ele>
        <time>2020-09-13T12:14:57Z</time>
      </trkpt>
      <trkpt lat="42.7535930" lon="-0.2095020">
        <ele>2350.2</ele>
        <time>2020-09-13T12:15:05Z</time>
      </trkpt>
      <trkpt lat="42.7535970" lon="-0.2095120">
        <ele>2350.0</ele>
        <time>2020-09-13T12:15:06Z</time>
      </trkpt>
      <trkpt lat="42.7536120" lon="-0.2095500">
        <ele>2349.4</ele>
        <time>2020-09-13T12:15:10Z</time>
      </trkpt>
      <trkpt lat="42.7536210" lon="-0.2095700">
        <ele>2349.0</ele>
        <time>2020-09-13T12:15:12Z</time>
      </trkpt>
      <trkpt lat="42.7536310" lon="-0.2095760">
        <ele>2348.8</ele>
        <time>2020-09-13T12:15:13Z</time>
      </trkpt>
      <trkpt lat="42.7536560" lon="-0.2096050">
        <ele>2347.8</ele>
        <time>2020-09-13T12:15:16Z</time>
      </trkpt>
      <trkpt lat="42.7536800" lon="-0.2096590">
        <ele>2347.4</ele>
        <time>2020-09-13T12:15:20Z</time>
      </trkpt>
      <trkpt lat="42.7536940" lon="-0.2097670">
        <ele>2347.6</ele>
        <time>2020-09-13T12:15:27Z</time>
      </trkpt>
      <trkpt lat="42.7537060" lon="-0.2097810">
        <ele>2347.6</ele>
        <time>2020-09-13T12:15:29Z</time>
      </trkpt>
      <trkpt lat="42.7537220" lon="-0.2098250">
        <ele>2347.8</ele>
        <time>2020-09-13T12:15:34Z</time>
      </trkpt>
      <trkpt lat="42.7538040" lon="-0.2100410">
        <ele>2347.0</ele>
        <time>2020-09-13T12:15:53Z</time>
      </trkpt>
      <trkpt lat="42.7537720" lon="-0.2100910">
        <ele>2346.8</ele>
        <time>2020-09-13T12:15:57Z</time>
      </trkpt>
      <trkpt lat="42.7537630" lon="-0.2101300">
        <ele>2346.8</ele>
        <time>2020-09-13T12:16:00Z</time>
      </trkpt>
      <trkpt lat="42.7537810" lon="-0.2103260">
        <ele>2345.8</ele>
        <time>2020-09-13T12:16:12Z</time>
      </trkpt>
      <trkpt lat="42.7538620" lon="-0.2105180">
        <ele>2344.8</ele>
        <time>2020-09-13T12:16:26Z</time>
      </trkpt>
      <trkpt lat="42.7538710" lon="-0.2105240">
        <ele>2344.6</ele>
        <time>2020-09-13T12:16:27Z</time>
      </trkpt>
      <trkpt lat="42.7539030" lon="-0.2105360">
        <ele>2344.4</ele>
        <time>2020-09-13T12:16:30Z</time>
      </trkpt>
      <trkpt lat="42.7539240" lon="-0.2106000">
        <ele>2344.0</ele>
        <time>2020-09-13T12:16:34Z</time>
      </trkpt>
      <trkpt lat="42.7539250" lon="-0.2106300">
        <ele>2343.8</ele>
        <time>2020-09-13T12:16:36Z</time>
      </trkpt>
      <trkpt lat="42.7539170" lon="-0.2106820">
        <ele>2343.6</ele>
        <time>2020-09-13T12:16:40Z</time>
      </trkpt>
      <trkpt lat="42.7539160" lon="-0.2107350">
        <ele>2343.6</ele>
        <time>2020-09-13T12:16:44Z</time>
      </trkpt>
      <trkpt lat="42.7539170" lon="-0.2107520">
        <ele>2343.4</ele>
        <time>2020-09-13T12:16:46Z</time>
      </trkpt>
      <trkpt lat="42.7539170" lon="-0.2107860">
        <ele>2343.0</ele>
        <time>2020-09-13T12:16:49Z</time>
      </trkpt>
      <trkpt lat="42.7539140" lon="-0.2108110">
        <ele>2342.6</ele>
        <time>2020-09-13T12:16:52Z</time>
      </trkpt>
      <trkpt lat="42.7539280" lon="-0.2108960">
        <ele>2341.8</ele>
        <time>2020-09-13T12:16:58Z</time>
      </trkpt>
      <trkpt lat="42.7539400" lon="-0.2109250">
        <ele>2341.6</ele>
        <time>2020-09-13T12:17:01Z</time>
      </trkpt>
      <trkpt lat="42.7539390" lon="-0.2109360">
        <ele>2341.4</ele>
        <time>2020-09-13T12:17:02Z</time>
      </trkpt>
      <trkpt lat="42.7539370" lon="-0.2109740">
        <ele>2341.8</ele>
        <time>2020-09-13T12:17:05Z</time>
      </trkpt>
      <trkpt lat="42.7539200" lon="-0.2110200">
        <ele>2341.4</ele>
        <time>2020-09-13T12:17:08Z</time>
      </trkpt>
      <trkpt lat="42.7538860" lon="-0.2111100">
        <ele>2341.2</ele>
        <time>2020-09-13T12:17:16Z</time>
      </trkpt>
      <trkpt lat="42.7538280" lon="-0.2112110">
        <ele>2340.6</ele>
        <time>2020-09-13T12:17:26Z</time>
      </trkpt>
      <trkpt lat="42.7538220" lon="-0.2112540">
        <ele>2340.6</ele>
        <time>2020-09-13T12:17:29Z</time>
      </trkpt>
      <trkpt lat="42.7537930" lon="-0.2112950">
        <ele>2340.8</ele>
        <time>2020-09-13T12:17:33Z</time>
      </trkpt>
      <trkpt lat="42.7536560" lon="-0.2114550">
        <ele>2340.6</ele>
        <time>2020-09-13T12:17:47Z</time>
      </trkpt>
      <trkpt lat="42.7536450" lon="-0.2114580">
        <ele>2340.6</ele>
        <time>2020-09-13T12:17:48Z</time>
      </trkpt>
      <trkpt lat="42.7535920" lon="-0.2114730">
        <ele>2340.6</ele>
        <time>2020-09-13T12:17:54Z</time>
      </trkpt>
      <trkpt lat="42.7535150" lon="-0.2115270">
        <ele>2341.4</ele>
        <time>2020-09-13T12:18:02Z</time>
      </trkpt>
      <trkpt lat="42.7534140" lon="-0.2117540">
        <ele>2340.8</ele>
        <time>2020-09-13T12:18:19Z</time>
      </trkpt>
      <trkpt lat="42.7533570" lon="-0.2118420">
        <ele>2340.4</ele>
        <time>2020-09-13T12:18:27Z</time>
      </trkpt>
      <trkpt lat="42.7533490" lon="-0.2118560">
        <ele>2340.2</ele>
        <time>2020-09-13T12:18:29Z</time>
      </trkpt>
      <trkpt lat="42.7532580" lon="-0.2119040">
        <ele>2339.8</ele>
        <time>2020-09-13T12:18:41Z</time>
      </trkpt>
      <trkpt lat="42.7531140" lon="-0.2119770">
        <ele>2340.2</ele>
        <time>2020-09-13T12:19:01Z</time>
      </trkpt>
      <trkpt lat="42.7531120" lon="-0.2119950">
        <ele>2339.4</ele>
        <time>2020-09-13T12:19:10Z</time>
      </trkpt>
      <trkpt lat="42.7530950" lon="-0.2119870">
        <ele>2339.4</ele>
        <time>2020-09-13T12:19:23Z</time>
      </trkpt>
      <trkpt lat="42.7531090" lon="-0.2119670">
        <ele>2339.4</ele>
        <time>2020-09-13T12:19:55Z</time>
      </trkpt>
      <trkpt lat="42.7530920" lon="-0.2118680">
        <ele>2339.6</ele>
        <time>2020-09-13T12:21:02Z</time>
      </trkpt>
      <trkpt lat="42.7530490" lon="-0.2119230">
        <ele>2337.8</ele>
        <time>2020-09-13T13:04:48Z</time>
      </trkpt>
      <trkpt lat="42.7529570" lon="-0.2119370">
        <ele>2337.8</ele>
        <time>2020-09-13T13:05:25Z</time>
      </trkpt>
      <trkpt lat="42.7529470" lon="-0.2119280">
        <ele>2338.0</ele>
        <time>2020-09-13T13:05:27Z</time>
      </trkpt>
      <trkpt lat="42.7529080" lon="-0.2119120">
        <ele>2337.8</ele>
        <time>2020-09-13T13:05:32Z</time>
      </trkpt>
      <trkpt lat="42.7528770" lon="-0.2119230">
        <ele>2337.8</ele>
        <time>2020-09-13T13:05:36Z</time>
      </trkpt>
      <trkpt lat="42.7527530" lon="-0.2120710">
        <ele>2337.6</ele>
        <time>2020-09-13T13:06:02Z</time>
      </trkpt>
      <trkpt lat="42.7526650" lon="-0.2121640">
        <ele>2337.6</ele>
        <time>2020-09-13T13:06:16Z</time>
      </trkpt>
      <trkpt lat="42.7526460" lon="-0.2122560">
        <ele>2338.2</ele>
        <time>2020-09-13T13:06:26Z</time>
      </trkpt>
      <trkpt lat="42.7526510" lon="-0.2123250">
        <ele>2338.4</ele>
        <time>2020-09-13T13:06:31Z</time>
      </trkpt>
      <trkpt lat="42.7526630" lon="-0.2123680">
        <ele>2338.8</ele>
        <time>2020-09-13T13:06:35Z</time>
      </trkpt>
      <trkpt lat="42.7526670" lon="-0.2123770">
        <ele>2339.0</ele>
        <time>2020-09-13T13:06:36Z</time>
      </trkpt>
      <trkpt lat="42.7526820" lon="-0.2124340">
        <ele>2339.6</ele>
        <time>2020-09-13T13:06:41Z</time>
      </trkpt>
      <trkpt lat="42.7526820" lon="-0.2124630">
        <ele>2340.0</ele>
        <time>2020-09-13T13:06:44Z</time>
      </trkpt>
      <trkpt lat="42.7526860" lon="-0.2124790">
        <ele>2340.2</ele>
        <time>2020-09-13T13:06:46Z</time>
      </trkpt>
      <trkpt lat="42.7526920" lon="-0.2124970">
        <ele>2340.2</ele>
        <time>2020-09-13T13:06:48Z</time>
      </trkpt>
      <trkpt lat="42.7527920" lon="-0.2125760">
        <ele>2339.0</ele>
        <time>2020-09-13T13:07:01Z</time>
      </trkpt>
      <trkpt lat="42.7528410" lon="-0.2126150">
        <ele>2340.0</ele>
        <time>2020-09-13T13:07:08Z</time>
      </trkpt>
      <trkpt lat="42.7528520" lon="-0.2127540">
        <ele>2338.8</ele>
        <time>2020-09-13T13:07:21Z</time>
      </trkpt>
      <trkpt lat="42.7528780" lon="-0.2127600">
        <ele>2337.6</ele>
        <time>2020-09-13T13:07:24Z</time>
      </trkpt>
      <trkpt lat="42.7528940" lon="-0.2127690">
        <ele>2337.4</ele>
        <time>2020-09-13T13:07:26Z</time>
      </trkpt>
      <trkpt lat="42.7529070" lon="-0.2127820">
        <ele>2337.2</ele>
        <time>2020-09-13T13:07:28Z</time>
      </trkpt>
      <trkpt lat="42.7530730" lon="-0.2128910">
        <ele>2336.8</ele>
        <time>2020-09-13T13:07:46Z</time>
      </trkpt>
      <trkpt lat="42.7530840" lon="-0.2128980">
        <ele>2336.8</ele>
        <time>2020-09-13T13:07:47Z</time>
      </trkpt>
      <trkpt lat="42.7531040" lon="-0.2129030">
        <ele>2336.4</ele>
        <time>2020-09-13T13:07:49Z</time>
      </trkpt>
      <trkpt lat="42.7531430" lon="-0.2129560">
        <ele>2335.8</ele>
        <time>2020-09-13T13:07:54Z</time>
      </trkpt>
      <trkpt lat="42.7531540" lon="-0.2129630">
        <ele>2335.4</ele>
        <time>2020-09-13T13:07:56Z</time>
      </trkpt>
      <trkpt lat="42.7531860" lon="-0.2130080">
        <ele>2334.2</ele>
        <time>2020-09-13T13:08:00Z</time>
      </trkpt>
      <trkpt lat="42.7532140" lon="-0.2130270">
        <ele>2333.6</ele>
        <time>2020-09-13T13:08:03Z</time>
      </trkpt>
      <trkpt lat="42.7532360" lon="-0.2130410">
        <ele>2333.0</ele>
        <time>2020-09-13T13:08:06Z</time>
      </trkpt>
      <trkpt lat="42.7532510" lon="-0.2130740">
        <ele>2331.8</ele>
        <time>2020-09-13T13:08:10Z</time>
      </trkpt>
      <trkpt lat="42.7532740" lon="-0.2131470">
        <ele>2331.0</ele>
        <time>2020-09-13T13:08:17Z</time>
      </trkpt>
      <trkpt lat="42.7532730" lon="-0.2131510">
        <ele>2330.8</ele>
        <time>2020-09-13T13:08:19Z</time>
      </trkpt>
      <trkpt lat="42.7532990" lon="-0.2132190">
        <ele>2329.6</ele>
        <time>2020-09-13T13:08:28Z</time>
      </trkpt>
      <trkpt lat="42.7533130" lon="-0.2132590">
        <ele>2328.6</ele>
        <time>2020-09-13T13:08:33Z</time>
      </trkpt>
      <trkpt lat="42.7532910" lon="-0.2133060">
        <ele>2327.4</ele>
        <time>2020-09-13T13:08:39Z</time>
      </trkpt>
      <trkpt lat="42.7533030" lon="-0.2133530">
        <ele>2326.2</ele>
        <time>2020-09-13T13:08:45Z</time>
      </trkpt>
      <trkpt lat="42.7533370" lon="-0.2133820">
        <ele>2325.2</ele>
        <time>2020-09-13T13:08:50Z</time>
      </trkpt>
      <trkpt lat="42.7533430" lon="-0.2133850">
        <ele>2325.0</ele>
        <time>2020-09-13T13:08:51Z</time>
      </trkpt>
      <trkpt lat="42.7533870" lon="-0.2133990">
        <ele>2324.0</ele>
        <time>2020-09-13T13:08:56Z</time>
      </trkpt>
      <trkpt lat="42.7534220" lon="-0.2134020">
        <ele>2323.2</ele>
        <time>2020-09-13T13:09:00Z</time>
      </trkpt>
      <trkpt lat="42.7534380" lon="-0.2133900">
        <ele>2322.8</ele>
        <time>2020-09-13T13:09:02Z</time>
      </trkpt>
      <trkpt lat="42.7534570" lon="-0.2133800">
        <ele>2322.2</ele>
        <time>2020-09-13T13:09:05Z</time>
      </trkpt>
      <trkpt lat="42.7534680" lon="-0.2133960">
        <ele>2321.6</ele>
        <time>2020-09-13T13:09:08Z</time>
      </trkpt>
      <trkpt lat="42.7535040" lon="-0.2134430">
        <ele>2320.6</ele>
        <time>2020-09-13T13:09:15Z</time>
      </trkpt>
      <trkpt lat="42.7535460" lon="-0.2134740">
        <ele>2319.4</ele>
        <time>2020-09-13T13:09:21Z</time>
      </trkpt>
      <trkpt lat="42.7535810" lon="-0.2135160">
        <ele>2318.4</ele>
        <time>2020-09-13T13:09:26Z</time>
      </trkpt>
      <trkpt lat="42.7536350" lon="-0.2135770">
        <ele>2317.2</ele>
        <time>2020-09-13T13:09:32Z</time>
      </trkpt>
      <trkpt lat="42.7536460" lon="-0.2135830">
        <ele>2317.2</ele>
        <time>2020-09-13T13:09:34Z</time>
      </trkpt>
      <trkpt lat="42.7536910" lon="-0.2136280">
        <ele>2318.0</ele>
        <time>2020-09-13T13:09:41Z</time>
      </trkpt>
      <trkpt lat="42.7537140" lon="-0.2136600">
        <ele>2317.8</ele>
        <time>2020-09-13T13:09:45Z</time>
      </trkpt>
      <trkpt lat="42.7537550" lon="-0.2136840">
        <ele>2317.4</ele>
        <time>2020-09-13T13:09:51Z</time>
      </trkpt>
      <trkpt lat="42.7537930" lon="-0.2137200">
        <ele>2316.6</ele>
        <time>2020-09-13T13:09:56Z</time>
      </trkpt>
      <trkpt lat="42.7538000" lon="-0.2137340">
        <ele>2316.2</ele>
        <time>2020-09-13T13:09:58Z</time>
      </trkpt>
      <trkpt lat="42.7538130" lon="-0.2137950">
        <ele>2315.0</ele>
        <time>2020-09-13T13:10:07Z</time>
      </trkpt>
      <trkpt lat="42.7538400" lon="-0.2138390">
        <ele>2314.0</ele>
        <time>2020-09-13T13:10:12Z</time>
      </trkpt>
      <trkpt lat="42.7538740" lon="-0.2138640">
        <ele>2312.8</ele>
        <time>2020-09-13T13:10:17Z</time>
      </trkpt>
      <trkpt lat="42.7539070" lon="-0.2138830">
        <ele>2311.8</ele>
        <time>2020-09-13T13:10:22Z</time>
      </trkpt>
      <trkpt lat="42.7539560" lon="-0.2139040">
        <ele>2311.0</ele>
        <time>2020-09-13T13:10:27Z</time>
      </trkpt>
      <trkpt lat="42.7539820" lon="-0.2139260">
        <ele>2310.6</ele>
        <time>2020-09-13T13:10:30Z</time>
      </trkpt>
      <trkpt lat="42.7540620" lon="-0.2139910">
        <ele>2309.6</ele>
        <time>2020-09-13T13:10:40Z</time>
      </trkpt>
      <trkpt lat="42.7540940" lon="-0.2140260">
        <ele>2308.6</ele>
        <time>2020-09-13T13:10:44Z</time>
      </trkpt>
      <trkpt lat="42.7541030" lon="-0.2140260">
        <ele>2308.4</ele>
        <time>2020-09-13T13:10:45Z</time>
      </trkpt>
      <trkpt lat="42.7541130" lon="-0.2140290">
        <ele>2308.2</ele>
        <time>2020-09-13T13:10:46Z</time>
      </trkpt>
      <trkpt lat="42.7541580" lon="-0.2140580">
        <ele>2307.2</ele>
        <time>2020-09-13T13:10:51Z</time>
      </trkpt>
      <trkpt lat="42.7541650" lon="-0.2140690">
        <ele>2307.0</ele>
        <time>2020-09-13T13:10:52Z</time>
      </trkpt>
      <trkpt lat="42.7541750" lon="-0.2140840">
        <ele>2307.0</ele>
        <time>2020-09-13T13:10:54Z</time>
      </trkpt>
      <trkpt lat="42.7542170" lon="-0.2141050">
        <ele>2306.2</ele>
        <time>2020-09-13T13:11:00Z</time>
      </trkpt>
      <trkpt lat="42.7542470" lon="-0.2141340">
        <ele>2305.8</ele>
        <time>2020-09-13T13:11:05Z</time>
      </trkpt>
      <trkpt lat="42.7542660" lon="-0.2141570">
        <ele>2305.2</ele>
        <time>2020-09-13T13:11:09Z</time>
      </trkpt>
      <trkpt lat="42.7542970" lon="-0.2141850">
        <ele>2304.0</ele>
        <time>2020-09-13T13:11:15Z</time>
      </trkpt>
      <trkpt lat="42.7543580" lon="-0.2142400">
        <ele>2302.8</ele>
        <time>2020-09-13T13:11:23Z</time>
      </trkpt>
      <trkpt lat="42.7544120" lon="-0.2142760">
        <ele>2301.8</ele>
        <time>2020-09-13T13:11:30Z</time>
      </trkpt>
      <trkpt lat="42.7544750" lon="-0.2143210">
        <ele>2300.6</ele>
        <time>2020-09-13T13:11:37Z</time>
      </trkpt>
      <trkpt lat="42.7545410" lon="-0.2143720">
        <ele>2299.8</ele>
        <time>2020-09-13T13:11:47Z</time>
      </trkpt>
      <trkpt lat="42.7545430" lon="-0.2143710">
        <ele>2299.6</ele>
        <time>2020-09-13T13:11:48Z</time>
      </trkpt>
      <trkpt lat="42.7546260" lon="-0.2144080">
        <ele>2298.4</ele>
        <time>2020-09-13T13:11:59Z</time>
      </trkpt>
      <trkpt lat="42.7546650" lon="-0.2144340">
        <ele>2297.4</ele>
        <time>2020-09-13T13:12:04Z</time>
      </trkpt>
      <trkpt lat="42.7547070" lon="-0.2144500">
        <ele>2296.4</ele>
        <time>2020-09-13T13:12:10Z</time>
      </trkpt>
      <trkpt lat="42.7547130" lon="-0.2144580">
        <ele>2296.4</ele>
        <time>2020-09-13T13:12:11Z</time>
      </trkpt>
      <trkpt lat="42.7547430" lon="-0.2144860">
        <ele>2295.4</ele>
        <time>2020-09-13T13:12:15Z</time>
      </trkpt>
      <trkpt lat="42.7547980" lon="-0.2145180">
        <ele>2294.4</ele>
        <time>2020-09-13T13:12:22Z</time>
      </trkpt>
      <trkpt lat="42.7548050" lon="-0.2145220">
        <ele>2294.2</ele>
        <time>2020-09-13T13:12:23Z</time>
      </trkpt>
      <trkpt lat="42.7548150" lon="-0.2145230">
        <ele>2294.0</ele>
        <time>2020-09-13T13:12:24Z</time>
      </trkpt>
      <trkpt lat="42.7548410" lon="-0.2145270">
        <ele>2293.6</ele>
        <time>2020-09-13T13:12:28Z</time>
      </trkpt>
      <trkpt lat="42.7548500" lon="-0.2145280">
        <ele>2293.4</ele>
        <time>2020-09-13T13:12:30Z</time>
      </trkpt>
      <trkpt lat="42.7548540" lon="-0.2145310">
        <ele>2293.0</ele>
        <time>2020-09-13T13:12:31Z</time>
      </trkpt>
      <trkpt lat="42.7548920" lon="-0.2145540">
        <ele>2292.0</ele>
        <time>2020-09-13T13:12:36Z</time>
      </trkpt>
      <trkpt lat="42.7549010" lon="-0.2145570">
        <ele>2291.8</ele>
        <time>2020-09-13T13:12:37Z</time>
      </trkpt>
      <trkpt lat="42.7549300" lon="-0.2145750">
        <ele>2291.2</ele>
        <time>2020-09-13T13:12:41Z</time>
      </trkpt>
      <trkpt lat="42.7549340" lon="-0.2145840">
        <ele>2291.0</ele>
        <time>2020-09-13T13:12:42Z</time>
      </trkpt>
      <trkpt lat="42.7549500" lon="-0.2145960">
        <ele>2290.4</ele>
        <time>2020-09-13T13:12:44Z</time>
      </trkpt>
      <trkpt lat="42.7549740" lon="-0.2146100">
        <ele>2290.0</ele>
        <time>2020-09-13T13:12:47Z</time>
      </trkpt>
      <trkpt lat="42.7550190" lon="-0.2146530">
        <ele>2288.8</ele>
        <time>2020-09-13T13:12:53Z</time>
      </trkpt>
      <trkpt lat="42.7550750" lon="-0.2147050">
        <ele>2288.2</ele>
        <time>2020-09-13T13:13:01Z</time>
      </trkpt>
      <trkpt lat="42.7550950" lon="-0.2147220">
        <ele>2287.8</ele>
        <time>2020-09-13T13:13:04Z</time>
      </trkpt>
      <trkpt lat="42.7551220" lon="-0.2147310">
        <ele>2287.0</ele>
        <time>2020-09-13T13:13:07Z</time>
      </trkpt>
      <trkpt lat="42.7551310" lon="-0.2147290">
        <ele>2286.8</ele>
        <time>2020-09-13T13:13:08Z</time>
      </trkpt>
      <trkpt lat="42.7551380" lon="-0.2147340">
        <ele>2286.6</ele>
        <time>2020-09-13T13:13:09Z</time>
      </trkpt>
      <trkpt lat="42.7551910" lon="-0.2147500">
        <ele>2285.6</ele>
        <time>2020-09-13T13:13:15Z</time>
      </trkpt>
      <trkpt lat="42.7552350" lon="-0.2147630">
        <ele>2284.4</ele>
        <time>2020-09-13T13:13:20Z</time>
      </trkpt>
      <trkpt lat="42.7553000" lon="-0.2147800">
        <ele>2283.4</ele>
        <time>2020-09-13T13:13:26Z</time>
      </trkpt>
      <trkpt lat="42.7553800" lon="-0.2148120">
        <ele>2282.4</ele>
        <time>2020-09-13T13:13:34Z</time>
      </trkpt>
      <trkpt lat="42.7554380" lon="-0.2148340">
        <ele>2281.2</ele>
        <time>2020-09-13T13:13:42Z</time>
      </trkpt>
      <trkpt lat="42.7555010" lon="-0.2148570">
        <ele>2280.2</ele>
        <time>2020-09-13T13:13:49Z</time>
      </trkpt>
      <trkpt lat="42.7555700" lon="-0.2148910">
        <ele>2279.0</ele>
        <time>2020-09-13T13:13:57Z</time>
      </trkpt>
      <trkpt lat="42.7555990" lon="-0.2148930">
        <ele>2278.4</ele>
        <time>2020-09-13T13:14:01Z</time>
      </trkpt>
      <trkpt lat="42.7556000" lon="-0.2148900">
        <ele>2278.0</ele>
        <time>2020-09-13T13:14:05Z</time>
      </trkpt>
      <trkpt lat="42.7555870" lon="-0.2149080">
        <ele>2279.0</ele>
        <time>2020-09-13T13:14:12Z</time>
      </trkpt>
      <trkpt lat="42.7555270" lon="-0.2149450">
        <ele>2278.0</ele>
        <time>2020-09-13T13:14:20Z</time>
      </trkpt>
      <trkpt lat="42.7554970" lon="-0.2149600">
        <ele>2278.0</ele>
        <time>2020-09-13T13:14:24Z</time>
      </trkpt>
      <trkpt lat="42.7554250" lon="-0.2149690">
        <ele>2277.0</ele>
        <time>2020-09-13T13:14:32Z</time>
      </trkpt>
      <trkpt lat="42.7554210" lon="-0.2149760">
        <ele>2276.8</ele>
        <time>2020-09-13T13:14:33Z</time>
      </trkpt>
      <trkpt lat="42.7554200" lon="-0.2149860">
        <ele>2276.6</ele>
        <time>2020-09-13T13:14:34Z</time>
      </trkpt>
      <trkpt lat="42.7554390" lon="-0.2150120">
        <ele>2276.0</ele>
        <time>2020-09-13T13:14:37Z</time>
      </trkpt>
      <trkpt lat="42.7554470" lon="-0.2150180">
        <ele>2275.8</ele>
        <time>2020-09-13T13:14:38Z</time>
      </trkpt>
      <trkpt lat="42.7554600" lon="-0.2150320">
        <ele>2275.4</ele>
        <time>2020-09-13T13:14:40Z</time>
      </trkpt>
      <trkpt lat="42.7554820" lon="-0.2150720">
        <ele>2274.6</ele>
        <time>2020-09-13T13:14:44Z</time>
      </trkpt>
      <trkpt lat="42.7555250" lon="-0.2151170">
        <ele>2273.6</ele>
        <time>2020-09-13T13:14:50Z</time>
      </trkpt>
      <trkpt lat="42.7555390" lon="-0.2151300">
        <ele>2273.4</ele>
        <time>2020-09-13T13:14:52Z</time>
      </trkpt>
      <trkpt lat="42.7555530" lon="-0.2151390">
        <ele>2273.0</ele>
        <time>2020-09-13T13:14:54Z</time>
      </trkpt>
      <trkpt lat="42.7555640" lon="-0.2151490">
        <ele>2272.6</ele>
        <time>2020-09-13T13:14:56Z</time>
      </trkpt>
      <trkpt lat="42.7555700" lon="-0.2151570">
        <ele>2272.4</ele>
        <time>2020-09-13T13:14:57Z</time>
      </trkpt>
      <trkpt lat="42.7555930" lon="-0.2151610">
        <ele>2272.0</ele>
        <time>2020-09-13T13:15:00Z</time>
      </trkpt>
      <trkpt lat="42.7556240" lon="-0.2151720">
        <ele>2271.6</ele>
        <time>2020-09-13T13:15:04Z</time>
      </trkpt>
      <trkpt lat="42.7556500" lon="-0.2151750">
        <ele>2271.4</ele>
        <time>2020-09-13T13:15:06Z</time>
      </trkpt>
      <trkpt lat="42.7557100" lon="-0.2151780">
        <ele>2270.4</ele>
        <time>2020-09-13T13:15:12Z</time>
      </trkpt>
      <trkpt lat="42.7558070" lon="-0.2151250">
        <ele>2269.4</ele>
        <time>2020-09-13T13:15:22Z</time>
      </trkpt>
      <trkpt lat="42.7558180" lon="-0.2151250">
        <ele>2269.4</ele>
        <time>2020-09-13T13:15:23Z</time>
      </trkpt>
      <trkpt lat="42.7558430" lon="-0.2151210">
        <ele>2269.0</ele>
        <time>2020-09-13T13:15:25Z</time>
      </trkpt>
      <trkpt lat="42.7559150" lon="-0.2151050">
        <ele>2268.2</ele>
        <time>2020-09-13T13:15:31Z</time>
      </trkpt>
      <trkpt lat="42.7560200" lon="-0.2151070">
        <ele>2267.2</ele>
        <time>2020-09-13T13:15:42Z</time>
      </trkpt>
      <trkpt lat="42.7561330" lon="-0.2151650">
        <ele>2266.0</ele>
        <time>2020-09-13T13:15:55Z</time>
      </trkpt>
      <trkpt lat="42.7561560" lon="-0.2151860">
        <ele>2266.0</ele>
        <time>2020-09-13T13:15:58Z</time>
      </trkpt>
      <trkpt lat="42.7562580" lon="-0.2153430">
        <ele>2266.2</ele>
        <time>2020-09-13T13:16:14Z</time>
      </trkpt>
      <trkpt lat="42.7562680" lon="-0.2153450">
        <ele>2266.2</ele>
        <time>2020-09-13T13:16:16Z</time>
      </trkpt>
      <trkpt lat="42.7562540" lon="-0.2153410">
        <ele>2267.2</ele>
        <time>2020-09-13T13:16:24Z</time>
      </trkpt>
      <trkpt lat="42.7562710" lon="-0.2153530">
        <ele>2266.0</ele>
        <time>2020-09-13T13:16:56Z</time>
      </trkpt>
      <trkpt lat="42.7561770" lon="-0.2153470">
        <ele>2266.0</ele>
        <time>2020-09-13T13:17:09Z</time>
      </trkpt>
      <trkpt lat="42.7562000" lon="-0.2153940">
        <ele>2265.8</ele>
        <time>2020-09-13T13:17:11Z</time>
      </trkpt>
      <trkpt lat="42.7562230" lon="-0.2154340">
        <ele>2264.8</ele>
        <time>2020-09-13T13:17:13Z</time>
      </trkpt>
      <trkpt lat="42.7563010" lon="-0.2155470">
        <ele>2263.8</ele>
        <time>2020-09-13T13:17:20Z</time>
      </trkpt>
      <trkpt lat="42.7563750" lon="-0.2155980">
        <ele>2262.8</ele>
        <time>2020-09-13T13:17:27Z</time>
      </trkpt>
      <trkpt lat="42.7563820" lon="-0.2156030">
        <ele>2262.4</ele>
        <time>2020-09-13T13:17:28Z</time>
      </trkpt>
      <trkpt lat="42.7564020" lon="-0.2156260">
        <ele>2262.0</ele>
        <time>2020-09-13T13:17:31Z</time>
      </trkpt>
      <trkpt lat="42.7564170" lon="-0.2156450">
        <ele>2261.6</ele>
        <time>2020-09-13T13:17:33Z</time>
      </trkpt>
      <trkpt lat="42.7564180" lon="-0.2156560">
        <ele>2261.4</ele>
        <time>2020-09-13T13:17:34Z</time>
      </trkpt>
      <trkpt lat="42.7564220" lon="-0.2156790">
        <ele>2261.2</ele>
        <time>2020-09-13T13:17:36Z</time>
      </trkpt>
      <trkpt lat="42.7564340" lon="-0.2157010">
        <ele>2261.0</ele>
        <time>2020-09-13T13:17:39Z</time>
      </trkpt>
      <trkpt lat="42.7564410" lon="-0.2157270">
        <ele>2261.0</ele>
        <time>2020-09-13T13:17:41Z</time>
      </trkpt>
      <trkpt lat="42.7564570" lon="-0.2157500">
        <ele>2260.4</ele>
        <time>2020-09-13T13:17:43Z</time>
      </trkpt>
      <trkpt lat="42.7564880" lon="-0.2158270">
        <ele>2259.4</ele>
        <time>2020-09-13T13:17:48Z</time>
      </trkpt>
      <trkpt lat="42.7565230" lon="-0.2158980">
        <ele>2258.2</ele>
        <time>2020-09-13T13:17:54Z</time>
      </trkpt>
      <trkpt lat="42.7565600" lon="-0.2159550">
        <ele>2257.2</ele>
        <time>2020-09-13T13:18:02Z</time>
      </trkpt>
      <trkpt lat="42.7565630" lon="-0.2159290">
        <ele>2257.2</ele>
        <time>2020-09-13T13:18:05Z</time>
      </trkpt>
      <trkpt lat="42.7565560" lon="-0.2159770">
        <ele>2256.0</ele>
        <time>2020-09-13T13:18:12Z</time>
      </trkpt>
      <trkpt lat="42.7565550" lon="-0.2160190">
        <ele>2255.0</ele>
        <time>2020-09-13T13:18:16Z</time>
      </trkpt>
      <trkpt lat="42.7565610" lon="-0.2160480">
        <ele>2254.4</ele>
        <time>2020-09-13T13:18:18Z</time>
      </trkpt>
      <trkpt lat="42.7565710" lon="-0.2160780">
        <ele>2254.0</ele>
        <time>2020-09-13T13:18:20Z</time>
      </trkpt>
      <trkpt lat="42.7565750" lon="-0.2161290">
        <ele>2253.0</ele>
        <time>2020-09-13T13:18:25Z</time>
      </trkpt>
      <trkpt lat="42.7565750" lon="-0.2161360">
        <ele>2252.8</ele>
        <time>2020-09-13T13:18:26Z</time>
      </trkpt>
      <trkpt lat="42.7566020" lon="-0.2161710">
        <ele>2251.8</ele>
        <time>2020-09-13T13:18:32Z</time>
      </trkpt>
      <trkpt lat="42.7566240" lon="-0.2162660">
        <ele>2250.6</ele>
        <time>2020-09-13T13:18:41Z</time>
      </trkpt>
      <trkpt lat="42.7566250" lon="-0.2162750">
        <ele>2250.4</ele>
        <time>2020-09-13T13:18:42Z</time>
      </trkpt>
      <trkpt lat="42.7566280" lon="-0.2162980">
        <ele>2250.0</ele>
        <time>2020-09-13T13:18:44Z</time>
      </trkpt>
      <trkpt lat="42.7566390" lon="-0.2163460">
        <ele>2249.6</ele>
        <time>2020-09-13T13:18:47Z</time>
      </trkpt>
      <trkpt lat="42.7566820" lon="-0.2164420">
        <ele>2248.4</ele>
        <time>2020-09-13T13:18:55Z</time>
      </trkpt>
      <trkpt lat="42.7566820" lon="-0.2164550">
        <ele>2248.2</ele>
        <time>2020-09-13T13:18:57Z</time>
      </trkpt>
      <trkpt lat="42.7566790" lon="-0.2164260">
        <ele>2247.6</ele>
        <time>2020-09-13T13:19:01Z</time>
      </trkpt>
      <trkpt lat="42.7566690" lon="-0.2164120">
        <ele>2247.4</ele>
        <time>2020-09-13T13:19:02Z</time>
      </trkpt>
      <trkpt lat="42.7566620" lon="-0.2163960">
        <ele>2247.2</ele>
        <time>2020-09-13T13:19:03Z</time>
      </trkpt>
      <trkpt lat="42.7566360" lon="-0.2163530">
        <ele>2246.8</ele>
        <time>2020-09-13T13:19:06Z</time>
      </trkpt>
      <trkpt lat="42.7566180" lon="-0.2163270">
        <ele>2246.4</ele>
        <time>2020-09-13T13:19:08Z</time>
      </trkpt>
      <trkpt lat="42.7565880" lon="-0.2162890">
        <ele>2245.8</ele>
        <time>2020-09-13T13:19:12Z</time>
      </trkpt>
      <trkpt lat="42.7565800" lon="-0.2162700">
        <ele>2245.4</ele>
        <time>2020-09-13T13:19:14Z</time>
      </trkpt>
      <trkpt lat="42.7565750" lon="-0.2162670">
        <ele>2245.2</ele>
        <time>2020-09-13T13:19:15Z</time>
      </trkpt>
      <trkpt lat="42.7565620" lon="-0.2162860">
        <ele>2244.6</ele>
        <time>2020-09-13T13:19:18Z</time>
      </trkpt>
      <trkpt lat="42.7565570" lon="-0.2162980">
        <ele>2244.4</ele>
        <time>2020-09-13T13:19:20Z</time>
      </trkpt>
      <trkpt lat="42.7565580" lon="-0.2163030">
        <ele>2244.2</ele>
        <time>2020-09-13T13:19:21Z</time>
      </trkpt>
      <trkpt lat="42.7565700" lon="-0.2163560">
        <ele>2243.6</ele>
        <time>2020-09-13T13:19:25Z</time>
      </trkpt>
      <trkpt lat="42.7565720" lon="-0.2163860">
        <ele>2243.0</ele>
        <time>2020-09-13T13:19:27Z</time>
      </trkpt>
      <trkpt lat="42.7565810" lon="-0.2164600">
        <ele>2241.8</ele>
        <time>2020-09-13T13:19:32Z</time>
      </trkpt>
      <trkpt lat="42.7565920" lon="-0.2165330">
        <ele>2240.6</ele>
        <time>2020-09-13T13:19:37Z</time>
      </trkpt>
      <trkpt lat="42.7565920" lon="-0.2165750">
        <ele>2240.0</ele>
        <time>2020-09-13T13:19:40Z</time>
      </trkpt>
      <trkpt lat="42.7566120" lon="-0.2166050">
        <ele>2239.4</ele>
        <time>2020-09-13T13:19:43Z</time>
      </trkpt>
      <trkpt lat="42.7566320" lon="-0.2167020">
        <ele>2238.4</ele>
        <time>2020-09-13T13:19:50Z</time>
      </trkpt>
      <trkpt lat="42.7566340" lon="-0.2167110">
        <ele>2238.4</ele>
        <time>2020-09-13T13:19:51Z</time>
      </trkpt>
      <trkpt lat="42.7566370" lon="-0.2168430">
        <ele>2237.4</ele>
        <time>2020-09-13T13:20:03Z</time>
      </trkpt>
      <trkpt lat="42.7566390" lon="-0.2168850">
        <ele>2236.8</ele>
        <time>2020-09-13T13:20:08Z</time>
      </trkpt>
      <trkpt lat="42.7566340" lon="-0.2169280">
        <ele>2236.6</ele>
        <time>2020-09-13T13:20:11Z</time>
      </trkpt>
      <trkpt lat="42.7566460" lon="-0.2169690">
        <ele>2236.0</ele>
        <time>2020-09-13T13:20:15Z</time>
      </trkpt>
      <trkpt lat="42.7566470" lon="-0.2169810">
        <ele>2235.0</ele>
        <time>2020-09-13T13:20:19Z</time>
      </trkpt>
      <trkpt lat="42.7566040" lon="-0.2169430">
        <ele>2233.8</ele>
        <time>2020-09-13T13:20:27Z</time>
      </trkpt>
      <trkpt lat="42.7565740" lon="-0.2169200">
        <ele>2232.8</ele>
        <time>2020-09-13T13:20:33Z</time>
      </trkpt>
      <trkpt lat="42.7565460" lon="-0.2169080">
        <ele>2231.4</ele>
        <time>2020-09-13T13:20:39Z</time>
      </trkpt>
      <trkpt lat="42.7565410" lon="-0.2169510">
        <ele>2230.4</ele>
        <time>2020-09-13T13:20:44Z</time>
      </trkpt>
      <trkpt lat="42.7565020" lon="-0.2169230">
        <ele>2229.0</ele>
        <time>2020-09-13T13:20:49Z</time>
      </trkpt>
      <trkpt lat="42.7564690" lon="-0.2168400">
        <ele>2228.0</ele>
        <time>2020-09-13T13:20:55Z</time>
      </trkpt>
      <trkpt lat="42.7564610" lon="-0.2168230">
        <ele>2227.8</ele>
        <time>2020-09-13T13:20:57Z</time>
      </trkpt>
      <trkpt lat="42.7564630" lon="-0.2167850">
        <ele>2227.0</ele>
        <time>2020-09-13T13:21:02Z</time>
      </trkpt>
      <trkpt lat="42.7564530" lon="-0.2167410">
        <ele>2225.8</ele>
        <time>2020-09-13T13:21:09Z</time>
      </trkpt>
      <trkpt lat="42.7564370" lon="-0.2167840">
        <ele>2224.8</ele>
        <time>2020-09-13T13:21:14Z</time>
      </trkpt>
      <trkpt lat="42.7564360" lon="-0.2168140">
        <ele>2224.2</ele>
        <time>2020-09-13T13:21:16Z</time>
      </trkpt>
      <trkpt lat="42.7564040" lon="-0.2169180">
        <ele>2223.6</ele>
        <time>2020-09-13T13:21:25Z</time>
      </trkpt>
      <trkpt lat="42.7564000" lon="-0.2169730">
        <ele>2222.6</ele>
        <time>2020-09-13T13:21:31Z</time>
      </trkpt>
      <trkpt lat="42.7563930" lon="-0.2169930">
        <ele>2221.8</ele>
        <time>2020-09-13T13:21:34Z</time>
      </trkpt>
      <trkpt lat="42.7563900" lon="-0.2169950">
        <ele>2221.6</ele>
        <time>2020-09-13T13:21:35Z</time>
      </trkpt>
      <trkpt lat="42.7563550" lon="-0.2169740">
        <ele>2220.4</ele>
        <time>2020-09-13T13:21:40Z</time>
      </trkpt>
      <trkpt lat="42.7563450" lon="-0.2170010">
        <ele>2219.4</ele>
        <time>2020-09-13T13:21:45Z</time>
      </trkpt>
      <trkpt lat="42.7563400" lon="-0.2170460">
        <ele>2218.4</ele>
        <time>2020-09-13T13:21:51Z</time>
      </trkpt>
      <trkpt lat="42.7563400" lon="-0.2171150">
        <ele>2217.0</ele>
        <time>2020-09-13T13:21:56Z</time>
      </trkpt>
      <trkpt lat="42.7563300" lon="-0.2171260">
        <ele>2216.0</ele>
        <time>2020-09-13T13:22:01Z</time>
      </trkpt>
      <trkpt lat="42.7563020" lon="-0.2171200">
        <ele>2214.8</ele>
        <time>2020-09-13T13:22:09Z</time>
      </trkpt>
      <trkpt lat="42.7562930" lon="-0.2171600">
        <ele>2213.6</ele>
        <time>2020-09-13T13:22:14Z</time>
      </trkpt>
      <trkpt lat="42.7562820" lon="-0.2172030">
        <ele>2212.4</ele>
        <time>2020-09-13T13:22:19Z</time>
      </trkpt>
      <trkpt lat="42.7562500" lon="-0.2172160">
        <ele>2211.2</ele>
        <time>2020-09-13T13:22:23Z</time>
      </trkpt>
      <trkpt lat="42.7562600" lon="-0.2172580">
        <ele>2210.0</ele>
        <time>2020-09-13T13:22:27Z</time>
      </trkpt>
      <trkpt lat="42.7562870" lon="-0.2172890">
        <ele>2208.8</ele>
        <time>2020-09-13T13:22:31Z</time>
      </trkpt>
      <trkpt lat="42.7562570" lon="-0.2173070">
        <ele>2207.6</ele>
        <time>2020-09-13T13:22:38Z</time>
      </trkpt>
      <trkpt lat="42.7562460" lon="-0.2173360">
        <ele>2206.4</ele>
        <time>2020-09-13T13:22:42Z</time>
      </trkpt>
      <trkpt lat="42.7562490" lon="-0.2173670">
        <ele>2205.4</ele>
        <time>2020-09-13T13:22:46Z</time>
      </trkpt>
      <trkpt lat="42.7562500" lon="-0.2174010">
        <ele>2204.4</ele>
        <time>2020-09-13T13:22:51Z</time>
      </trkpt>
      <trkpt lat="42.7562310" lon="-0.2173900">
        <ele>2203.0</ele>
        <time>2020-09-13T13:22:56Z</time>
      </trkpt>
      <trkpt lat="42.7561820" lon="-0.2174060">
        <ele>2201.8</ele>
        <time>2020-09-13T13:23:05Z</time>
      </trkpt>
      <trkpt lat="42.7561660" lon="-0.2174290">
        <ele>2200.6</ele>
        <time>2020-09-13T13:23:12Z</time>
      </trkpt>
      <trkpt lat="42.7561410" lon="-0.2174320">
        <ele>2199.4</ele>
        <time>2020-09-13T13:23:16Z</time>
      </trkpt>
      <trkpt lat="42.7561210" lon="-0.2174320">
        <ele>2198.4</ele>
        <time>2020-09-13T13:23:21Z</time>
      </trkpt>
      <trkpt lat="42.7560930" lon="-0.2174430">
        <ele>2197.2</ele>
        <time>2020-09-13T13:23:26Z</time>
      </trkpt>
      <trkpt lat="42.7560650" lon="-0.2174700">
        <ele>2196.0</ele>
        <time>2020-09-13T13:23:31Z</time>
      </trkpt>
      <trkpt lat="42.7560590" lon="-0.2174830">
        <ele>2195.2</ele>
        <time>2020-09-13T13:23:34Z</time>
      </trkpt>
      <trkpt lat="42.7560600" lon="-0.2174900">
        <ele>2195.0</ele>
        <time>2020-09-13T13:23:35Z</time>
      </trkpt>
      <trkpt lat="42.7560390" lon="-0.2175270">
        <ele>2193.8</ele>
        <time>2020-09-13T13:23:42Z</time>
      </trkpt>
      <trkpt lat="42.7560080" lon="-0.2175170">
        <ele>2192.8</ele>
        <time>2020-09-13T13:23:48Z</time>
      </trkpt>
      <trkpt lat="42.7559590" lon="-0.2175530">
        <ele>2191.6</ele>
        <time>2020-09-13T13:24:02Z</time>
      </trkpt>
      <trkpt lat="42.7559350" lon="-0.2175670">
        <ele>2190.6</ele>
        <time>2020-09-13T13:24:07Z</time>
      </trkpt>
      <trkpt lat="42.7558900" lon="-0.2175960">
        <ele>2189.6</ele>
        <time>2020-09-13T13:24:15Z</time>
      </trkpt>
      <trkpt lat="42.7558750" lon="-0.2176400">
        <ele>2188.4</ele>
        <time>2020-09-13T13:24:29Z</time>
      </trkpt>
      <trkpt lat="42.7558580" lon="-0.2176870">
        <ele>2187.4</ele>
        <time>2020-09-13T13:24:46Z</time>
      </trkpt>
      <trkpt lat="42.7558500" lon="-0.2177390">
        <ele>2186.4</ele>
        <time>2020-09-13T13:24:53Z</time>
      </trkpt>
      <trkpt lat="42.7558390" lon="-0.2178210">
        <ele>2185.2</ele>
        <time>2020-09-13T13:25:02Z</time>
      </trkpt>
      <trkpt lat="42.7558310" lon="-0.2178800">
        <ele>2184.2</ele>
        <time>2020-09-13T13:25:09Z</time>
      </trkpt>
      <trkpt lat="42.7558490" lon="-0.2179150">
        <ele>2183.6</ele>
        <time>2020-09-13T13:25:12Z</time>
      </trkpt>
      <trkpt lat="42.7558560" lon="-0.2179430">
        <ele>2183.2</ele>
        <time>2020-09-13T13:25:17Z</time>
      </trkpt>
      <trkpt lat="42.7558970" lon="-0.2180240">
        <ele>2182.0</ele>
        <time>2020-09-13T13:25:33Z</time>
      </trkpt>
      <trkpt lat="42.7559170" lon="-0.2180480">
        <ele>2181.4</ele>
        <time>2020-09-13T13:25:36Z</time>
      </trkpt>
      <trkpt lat="42.7559250" lon="-0.2180590">
        <ele>2181.2</ele>
        <time>2020-09-13T13:25:38Z</time>
      </trkpt>
      <trkpt lat="42.7559350" lon="-0.2180830">
        <ele>2181.0</ele>
        <time>2020-09-13T13:25:41Z</time>
      </trkpt>
      <trkpt lat="42.7559600" lon="-0.2181230">
        <ele>2180.8</ele>
        <time>2020-09-13T13:25:45Z</time>
      </trkpt>
      <trkpt lat="42.7559920" lon="-0.2181800">
        <ele>2180.0</ele>
        <time>2020-09-13T13:25:51Z</time>
      </trkpt>
      <trkpt lat="42.7560090" lon="-0.2182100">
        <ele>2179.8</ele>
        <time>2020-09-13T13:25:55Z</time>
      </trkpt>
      <trkpt lat="42.7560220" lon="-0.2182140">
        <ele>2179.4</ele>
        <time>2020-09-13T13:25:57Z</time>
      </trkpt>
      <trkpt lat="42.7560430" lon="-0.2182390">
        <ele>2178.8</ele>
        <time>2020-09-13T13:26:00Z</time>
      </trkpt>
      <trkpt lat="42.7560470" lon="-0.2182540">
        <ele>2178.8</ele>
        <time>2020-09-13T13:26:01Z</time>
      </trkpt>
      <trkpt lat="42.7560590" lon="-0.2182780">
        <ele>2178.8</ele>
        <time>2020-09-13T13:26:03Z</time>
      </trkpt>
      <trkpt lat="42.7561180" lon="-0.2183350">
        <ele>2177.8</ele>
        <time>2020-09-13T13:26:09Z</time>
      </trkpt>
      <trkpt lat="42.7561390" lon="-0.2183670">
        <ele>2176.6</ele>
        <time>2020-09-13T13:26:12Z</time>
      </trkpt>
      <trkpt lat="42.7561330" lon="-0.2183960">
        <ele>2176.0</ele>
        <time>2020-09-13T13:26:15Z</time>
      </trkpt>
      <trkpt lat="42.7561370" lon="-0.2184230">
        <ele>2175.8</ele>
        <time>2020-09-13T13:26:17Z</time>
      </trkpt>
      <trkpt lat="42.7561380" lon="-0.2184310">
        <ele>2175.6</ele>
        <time>2020-09-13T13:26:18Z</time>
      </trkpt>
      <trkpt lat="42.7561530" lon="-0.2184670">
        <ele>2174.6</ele>
        <time>2020-09-13T13:26:25Z</time>
      </trkpt>
      <trkpt lat="42.7561410" lon="-0.2186640">
        <ele>2174.2</ele>
        <time>2020-09-13T13:26:45Z</time>
      </trkpt>
      <trkpt lat="42.7561350" lon="-0.2187380">
        <ele>2174.4</ele>
        <time>2020-09-13T13:26:51Z</time>
      </trkpt>
      <trkpt lat="42.7561230" lon="-0.2187570">
        <ele>2174.0</ele>
        <time>2020-09-13T13:26:53Z</time>
      </trkpt>
      <trkpt lat="42.7560550" lon="-0.2188840">
        <ele>2173.2</ele>
        <time>2020-09-13T13:27:04Z</time>
      </trkpt>
      <trkpt lat="42.7560460" lon="-0.2189120">
        <ele>2172.6</ele>
        <time>2020-09-13T13:27:06Z</time>
      </trkpt>
      <trkpt lat="42.7560380" lon="-0.2189340">
        <ele>2172.4</ele>
        <time>2020-09-13T13:27:08Z</time>
      </trkpt>
      <trkpt lat="42.7560190" lon="-0.2190060">
        <ele>2172.2</ele>
        <time>2020-09-13T13:27:13Z</time>
      </trkpt>
      <trkpt lat="42.7560140" lon="-0.2190150">
        <ele>2172.0</ele>
        <time>2020-09-13T13:27:14Z</time>
      </trkpt>
      <trkpt lat="42.7560020" lon="-0.2190420">
        <ele>2172.0</ele>
        <time>2020-09-13T13:27:16Z</time>
      </trkpt>
      <trkpt lat="42.7559950" lon="-0.2191210">
        <ele>2172.4</ele>
        <time>2020-09-13T13:27:22Z</time>
      </trkpt>
      <trkpt lat="42.7559840" lon="-0.2191540">
        <ele>2172.4</ele>
        <time>2020-09-13T13:27:25Z</time>
      </trkpt>
      <trkpt lat="42.7559770" lon="-0.2191810">
        <ele>2172.2</ele>
        <time>2020-09-13T13:27:28Z</time>
      </trkpt>
      <trkpt lat="42.7559650" lon="-0.2192910">
        <ele>2171.0</ele>
        <time>2020-09-13T13:27:39Z</time>
      </trkpt>
      <trkpt lat="42.7559670" lon="-0.2193170">
        <ele>2170.0</ele>
        <time>2020-09-13T13:27:41Z</time>
      </trkpt>
      <trkpt lat="42.7559610" lon="-0.2193280">
        <ele>2169.8</ele>
        <time>2020-09-13T13:27:42Z</time>
      </trkpt>
      <trkpt lat="42.7559670" lon="-0.2193510">
        <ele>2169.4</ele>
        <time>2020-09-13T13:27:44Z</time>
      </trkpt>
      <trkpt lat="42.7559810" lon="-0.2193770">
        <ele>2169.2</ele>
        <time>2020-09-13T13:27:46Z</time>
      </trkpt>
      <trkpt lat="42.7559820" lon="-0.2194060">
        <ele>2169.2</ele>
        <time>2020-09-13T13:27:48Z</time>
      </trkpt>
      <trkpt lat="42.7560040" lon="-0.2194360">
        <ele>2169.0</ele>
        <time>2020-09-13T13:27:51Z</time>
      </trkpt>
      <trkpt lat="42.7560140" lon="-0.2194530">
        <ele>2168.4</ele>
        <time>2020-09-13T13:27:53Z</time>
      </trkpt>
      <trkpt lat="42.7560330" lon="-0.2195030">
        <ele>2168.0</ele>
        <time>2020-09-13T13:27:58Z</time>
      </trkpt>
      <trkpt lat="42.7560450" lon="-0.2195320">
        <ele>2167.8</ele>
        <time>2020-09-13T13:28:00Z</time>
      </trkpt>
      <trkpt lat="42.7560610" lon="-0.2195490">
        <ele>2167.6</ele>
        <time>2020-09-13T13:28:02Z</time>
      </trkpt>
      <trkpt lat="42.7560650" lon="-0.2195570">
        <ele>2167.4</ele>
        <time>2020-09-13T13:28:03Z</time>
      </trkpt>
      <trkpt lat="42.7560880" lon="-0.2195880">
        <ele>2166.8</ele>
        <time>2020-09-13T13:28:06Z</time>
      </trkpt>
      <trkpt lat="42.7560980" lon="-0.2196220">
        <ele>2166.6</ele>
        <time>2020-09-13T13:28:09Z</time>
      </trkpt>
      <trkpt lat="42.7561030" lon="-0.2196260">
        <ele>2166.4</ele>
        <time>2020-09-13T13:28:10Z</time>
      </trkpt>
      <trkpt lat="42.7561240" lon="-0.2196590">
        <ele>2165.4</ele>
        <time>2020-09-13T13:28:14Z</time>
      </trkpt>
      <trkpt lat="42.7561280" lon="-0.2196710">
        <ele>2165.0</ele>
        <time>2020-09-13T13:28:16Z</time>
      </trkpt>
      <trkpt lat="42.7561230" lon="-0.2196530">
        <ele>2164.2</ele>
        <time>2020-09-13T13:28:27Z</time>
      </trkpt>
      <trkpt lat="42.7561670" lon="-0.2197300">
        <ele>2163.4</ele>
        <time>2020-09-13T13:28:55Z</time>
      </trkpt>
      <trkpt lat="42.7562160" lon="-0.2198110">
        <ele>2163.2</ele>
        <time>2020-09-13T13:29:01Z</time>
      </trkpt>
      <trkpt lat="42.7563200" lon="-0.2200200">
        <ele>2162.2</ele>
        <time>2020-09-13T13:29:14Z</time>
      </trkpt>
      <trkpt lat="42.7563320" lon="-0.2200320">
        <ele>2162.2</ele>
        <time>2020-09-13T13:29:15Z</time>
      </trkpt>
      <trkpt lat="42.7564050" lon="-0.2200860">
        <ele>2161.4</ele>
        <time>2020-09-13T13:29:23Z</time>
      </trkpt>
      <trkpt lat="42.7564140" lon="-0.2200810">
        <ele>2161.0</ele>
        <time>2020-09-13T13:29:25Z</time>
      </trkpt>
      <trkpt lat="42.7564150" lon="-0.2200800">
        <ele>2159.8</ele>
        <time>2020-09-13T13:29:29Z</time>
      </trkpt>
      <trkpt lat="42.7564490" lon="-0.2201090">
        <ele>2159.8</ele>
        <time>2020-09-13T13:29:33Z</time>
      </trkpt>
      <trkpt lat="42.7565470" lon="-0.2201330">
        <ele>2159.2</ele>
        <time>2020-09-13T13:29:41Z</time>
      </trkpt>
      <trkpt lat="42.7565550" lon="-0.2201400">
        <ele>2158.8</ele>
        <time>2020-09-13T13:29:42Z</time>
      </trkpt>
      <trkpt lat="42.7565790" lon="-0.2201510">
        <ele>2157.6</ele>
        <time>2020-09-13T13:29:45Z</time>
      </trkpt>
      <trkpt lat="42.7566430" lon="-0.2201680">
        <ele>2157.2</ele>
        <time>2020-09-13T13:29:51Z</time>
      </trkpt>
      <trkpt lat="42.7566710" lon="-0.2201890">
        <ele>2157.0</ele>
        <time>2020-09-13T13:29:54Z</time>
      </trkpt>
      <trkpt lat="42.7566840" lon="-0.2201990">
        <ele>2156.6</ele>
        <time>2020-09-13T13:29:56Z</time>
      </trkpt>
      <trkpt lat="42.7567050" lon="-0.2202140">
        <ele>2155.8</ele>
        <time>2020-09-13T13:29:58Z</time>
      </trkpt>
      <trkpt lat="42.7567260" lon="-0.2202290">
        <ele>2155.2</ele>
        <time>2020-09-13T13:30:00Z</time>
      </trkpt>
      <trkpt lat="42.7567340" lon="-0.2202310">
        <ele>2155.0</ele>
        <time>2020-09-13T13:30:01Z</time>
      </trkpt>
      <trkpt lat="42.7568620" lon="-0.2203190">
        <ele>2154.2</ele>
        <time>2020-09-13T13:30:11Z</time>
      </trkpt>
      <trkpt lat="42.7569010" lon="-0.2203490">
        <ele>2154.0</ele>
        <time>2020-09-13T13:30:15Z</time>
      </trkpt>
      <trkpt lat="42.7569130" lon="-0.2203490">
        <ele>2154.0</ele>
        <time>2020-09-13T13:30:17Z</time>
      </trkpt>
      <trkpt lat="42.7569290" lon="-0.2203670">
        <ele>2154.0</ele>
        <time>2020-09-13T13:30:20Z</time>
      </trkpt>
      <trkpt lat="42.7569580" lon="-0.2203810">
        <ele>2154.4</ele>
        <time>2020-09-13T13:30:23Z</time>
      </trkpt>
      <trkpt lat="42.7569870" lon="-0.2204190">
        <ele>2154.4</ele>
        <time>2020-09-13T13:30:27Z</time>
      </trkpt>
      <trkpt lat="42.7570350" lon="-0.2204670">
        <ele>2153.6</ele>
        <time>2020-09-13T13:30:34Z</time>
      </trkpt>
      <trkpt lat="42.7570580" lon="-0.2204900">
        <ele>2153.2</ele>
        <time>2020-09-13T13:30:38Z</time>
      </trkpt>
      <trkpt lat="42.7571100" lon="-0.2205150">
        <ele>2153.4</ele>
        <time>2020-09-13T13:30:43Z</time>
      </trkpt>
      <trkpt lat="42.7571460" lon="-0.2205360">
        <ele>2153.6</ele>
        <time>2020-09-13T13:30:46Z</time>
      </trkpt>
      <trkpt lat="42.7571640" lon="-0.2205430">
        <ele>2153.6</ele>
        <time>2020-09-13T13:30:48Z</time>
      </trkpt>
      <trkpt lat="42.7571860" lon="-0.2205540">
        <ele>2153.6</ele>
        <time>2020-09-13T13:30:50Z</time>
      </trkpt>
      <trkpt lat="42.7572110" lon="-0.2205850">
        <ele>2153.0</ele>
        <time>2020-09-13T13:30:54Z</time>
      </trkpt>
      <trkpt lat="42.7572160" lon="-0.2205880">
        <ele>2152.6</ele>
        <time>2020-09-13T13:30:55Z</time>
      </trkpt>
      <trkpt lat="42.7572400" lon="-0.2206110">
        <ele>2151.8</ele>
        <time>2020-09-13T13:30:58Z</time>
      </trkpt>
      <trkpt lat="42.7572740" lon="-0.2206370">
        <ele>2150.8</ele>
        <time>2020-09-13T13:31:02Z</time>
      </trkpt>
      <trkpt lat="42.7572910" lon="-0.2206500">
        <ele>2150.8</ele>
        <time>2020-09-13T13:31:04Z</time>
      </trkpt>
      <trkpt lat="42.7573020" lon="-0.2206580">
        <ele>2150.6</ele>
        <time>2020-09-13T13:31:05Z</time>
      </trkpt>
      <trkpt lat="42.7573560" lon="-0.2206950">
        <ele>2149.4</ele>
        <time>2020-09-13T13:31:09Z</time>
      </trkpt>
      <trkpt lat="42.7574510" lon="-0.2207780">
        <ele>2148.4</ele>
        <time>2020-09-13T13:31:16Z</time>
      </trkpt>
      <trkpt lat="42.7574820" lon="-0.2208150">
        <ele>2147.8</ele>
        <time>2020-09-13T13:31:19Z</time>
      </trkpt>
      <trkpt lat="42.7575060" lon="-0.2208340">
        <ele>2147.0</ele>
        <time>2020-09-13T13:31:21Z</time>
      </trkpt>
      <trkpt lat="42.7575340" lon="-0.2208590">
        <ele>2146.0</ele>
        <time>2020-09-13T13:31:25Z</time>
      </trkpt>
      <trkpt lat="42.7575430" lon="-0.2208490">
        <ele>2145.8</ele>
        <time>2020-09-13T13:31:26Z</time>
      </trkpt>
      <trkpt lat="42.7575530" lon="-0.2208510">
        <ele>2145.8</ele>
        <time>2020-09-13T13:31:28Z</time>
      </trkpt>
      <trkpt lat="42.7575710" lon="-0.2208540">
        <ele>2146.2</ele>
        <time>2020-09-13T13:31:31Z</time>
      </trkpt>
      <trkpt lat="42.7576010" lon="-0.2208840">
        <ele>2145.8</ele>
        <time>2020-09-13T13:31:35Z</time>
      </trkpt>
      <trkpt lat="42.7576270" lon="-0.2208980">
        <ele>2145.4</ele>
        <time>2020-09-13T13:31:37Z</time>
      </trkpt>
      <trkpt lat="42.7576740" lon="-0.2209570">
        <ele>2145.2</ele>
        <time>2020-09-13T13:31:41Z</time>
      </trkpt>
      <trkpt lat="42.7577150" lon="-0.2209840">
        <ele>2144.8</ele>
        <time>2020-09-13T13:31:44Z</time>
      </trkpt>
      <trkpt lat="42.7577360" lon="-0.2210130">
        <ele>2143.6</ele>
        <time>2020-09-13T13:31:47Z</time>
      </trkpt>
      <trkpt lat="42.7577500" lon="-0.2210280">
        <ele>2143.2</ele>
        <time>2020-09-13T13:31:49Z</time>
      </trkpt>
      <trkpt lat="42.7577840" lon="-0.2210410">
        <ele>2143.2</ele>
        <time>2020-09-13T13:31:52Z</time>
      </trkpt>
      <trkpt lat="42.7578460" lon="-0.2210590">
        <ele>2142.4</ele>
        <time>2020-09-13T13:31:57Z</time>
      </trkpt>
      <trkpt lat="42.7578590" lon="-0.2210620">
        <ele>2142.0</ele>
        <time>2020-09-13T13:31:59Z</time>
      </trkpt>
      <trkpt lat="42.7578550" lon="-0.2210540">
        <ele>2141.2</ele>
        <time>2020-09-13T13:32:01Z</time>
      </trkpt>
      <trkpt lat="42.7578540" lon="-0.2210550">
        <ele>2141.0</ele>
        <time>2020-09-13T13:32:02Z</time>
      </trkpt>
      <trkpt lat="42.7578620" lon="-0.2210460">
        <ele>2140.6</ele>
        <time>2020-09-13T13:32:05Z</time>
      </trkpt>
      <trkpt lat="42.7578390" lon="-0.2210510">
        <ele>2140.2</ele>
        <time>2020-09-13T13:32:24Z</time>
      </trkpt>
      <trkpt lat="42.7578130" lon="-0.2210680">
        <ele>2139.0</ele>
        <time>2020-09-13T13:32:29Z</time>
      </trkpt>
      <trkpt lat="42.7577810" lon="-0.2210890">
        <ele>2138.0</ele>
        <time>2020-09-13T13:32:34Z</time>
      </trkpt>
      <trkpt lat="42.7577640" lon="-0.2211050">
        <ele>2137.4</ele>
        <time>2020-09-13T13:32:37Z</time>
      </trkpt>
      <trkpt lat="42.7577500" lon="-0.2211070">
        <ele>2136.6</ele>
        <time>2020-09-13T13:32:39Z</time>
      </trkpt>
      <trkpt lat="42.7577410" lon="-0.2211330">
        <ele>2135.4</ele>
        <time>2020-09-13T13:32:42Z</time>
      </trkpt>
      <trkpt lat="42.7577420" lon="-0.2211400">
        <ele>2135.2</ele>
        <time>2020-09-13T13:32:43Z</time>
      </trkpt>
      <trkpt lat="42.7577310" lon="-0.2211500">
        <ele>2134.2</ele>
        <time>2020-09-13T13:32:47Z</time>
      </trkpt>
      <trkpt lat="42.7577170" lon="-0.2211650">
        <ele>2133.0</ele>
        <time>2020-09-13T13:32:51Z</time>
      </trkpt>
      <trkpt lat="42.7576830" lon="-0.2211780">
        <ele>2132.0</ele>
        <time>2020-09-13T13:32:55Z</time>
      </trkpt>
      <trkpt lat="42.7576940" lon="-0.2212120">
        <ele>2130.8</ele>
        <time>2020-09-13T13:32:59Z</time>
      </trkpt>
      <trkpt lat="42.7577590" lon="-0.2212470">
        <ele>2129.8</ele>
        <time>2020-09-13T13:33:05Z</time>
      </trkpt>
      <trkpt lat="42.7578540" lon="-0.2212960">
        <ele>2128.6</ele>
        <time>2020-09-13T13:33:13Z</time>
      </trkpt>
      <trkpt lat="42.7578930" lon="-0.2213180">
        <ele>2127.6</ele>
        <time>2020-09-13T13:33:18Z</time>
      </trkpt>
      <trkpt lat="42.7579030" lon="-0.2213240">
        <ele>2127.2</ele>
        <time>2020-09-13T13:33:20Z</time>
      </trkpt>
      <trkpt lat="42.7579040" lon="-0.2213390">
        <ele>2126.6</ele>
        <time>2020-09-13T13:33:26Z</time>
      </trkpt>
      <trkpt lat="42.7578690" lon="-0.2213400">
        <ele>2125.2</ele>
        <time>2020-09-13T13:33:31Z</time>
      </trkpt>
      <trkpt lat="42.7578630" lon="-0.2213610">
        <ele>2124.0</ele>
        <time>2020-09-13T13:33:35Z</time>
      </trkpt>
      <trkpt lat="42.7578750" lon="-0.2213950">
        <ele>2122.8</ele>
        <time>2020-09-13T13:33:40Z</time>
      </trkpt>
      <trkpt lat="42.7578890" lon="-0.2214350">
        <ele>2121.6</ele>
        <time>2020-09-13T13:33:45Z</time>
      </trkpt>
      <trkpt lat="42.7579030" lon="-0.2214550">
        <ele>2121.2</ele>
        <time>2020-09-13T13:33:47Z</time>
      </trkpt>
      <trkpt lat="42.7579170" lon="-0.2214640">
        <ele>2120.8</ele>
        <time>2020-09-13T13:33:49Z</time>
      </trkpt>
      <trkpt lat="42.7579230" lon="-0.2214720">
        <ele>2120.4</ele>
        <time>2020-09-13T13:33:50Z</time>
      </trkpt>
      <trkpt lat="42.7579360" lon="-0.2214890">
        <ele>2120.0</ele>
        <time>2020-09-13T13:33:52Z</time>
      </trkpt>
      <trkpt lat="42.7579490" lon="-0.2215020">
        <ele>2119.4</ele>
        <time>2020-09-13T13:33:54Z</time>
      </trkpt>
      <trkpt lat="42.7579560" lon="-0.2215090">
        <ele>2118.4</ele>
        <time>2020-09-13T13:33:57Z</time>
      </trkpt>
      <trkpt lat="42.7579390" lon="-0.2215120">
        <ele>2117.2</ele>
        <time>2020-09-13T13:34:02Z</time>
      </trkpt>
      <trkpt lat="42.7579050" lon="-0.2214970">
        <ele>2116.0</ele>
        <time>2020-09-13T13:34:06Z</time>
      </trkpt>
      <trkpt lat="42.7578830" lon="-0.2215150">
        <ele>2114.8</ele>
        <time>2020-09-13T13:34:11Z</time>
      </trkpt>
      <trkpt lat="42.7578880" lon="-0.2215570">
        <ele>2113.6</ele>
        <time>2020-09-13T13:34:15Z</time>
      </trkpt>
      <trkpt lat="42.7579290" lon="-0.2215820">
        <ele>2112.6</ele>
        <time>2020-09-13T13:34:20Z</time>
      </trkpt>
      <trkpt lat="42.7579260" lon="-0.2216020">
        <ele>2111.4</ele>
        <time>2020-09-13T13:34:26Z</time>
      </trkpt>
      <trkpt lat="42.7579080" lon="-0.2216380">
        <ele>2110.4</ele>
        <time>2020-09-13T13:34:33Z</time>
      </trkpt>
      <trkpt lat="42.7578790" lon="-0.2216700">
        <ele>2109.2</ele>
        <time>2020-09-13T13:34:38Z</time>
      </trkpt>
      <trkpt lat="42.7578750" lon="-0.2216760">
        <ele>2109.0</ele>
        <time>2020-09-13T13:34:39Z</time>
      </trkpt>
      <trkpt lat="42.7578750" lon="-0.2217000">
        <ele>2108.2</ele>
        <time>2020-09-13T13:34:42Z</time>
      </trkpt>
      <trkpt lat="42.7578930" lon="-0.2217290">
        <ele>2107.0</ele>
        <time>2020-09-13T13:34:47Z</time>
      </trkpt>
      <trkpt lat="42.7578640" lon="-0.2217520">
        <ele>2106.0</ele>
        <time>2020-09-13T13:34:52Z</time>
      </trkpt>
      <trkpt lat="42.7578760" lon="-0.2217790">
        <ele>2105.0</ele>
        <time>2020-09-13T13:34:56Z</time>
      </trkpt>
      <trkpt lat="42.7579030" lon="-0.2218430">
        <ele>2103.8</ele>
        <time>2020-09-13T13:35:03Z</time>
      </trkpt>
      <trkpt lat="42.7579210" lon="-0.2218690">
        <ele>2103.0</ele>
        <time>2020-09-13T13:35:06Z</time>
      </trkpt>
      <trkpt lat="42.7579240" lon="-0.2218780">
        <ele>2102.6</ele>
        <time>2020-09-13T13:35:07Z</time>
      </trkpt>
      <trkpt lat="42.7579310" lon="-0.2219190">
        <ele>2101.6</ele>
        <time>2020-09-13T13:35:11Z</time>
      </trkpt>
      <trkpt lat="42.7579390" lon="-0.2219280">
        <ele>2101.2</ele>
        <time>2020-09-13T13:35:12Z</time>
      </trkpt>
      <trkpt lat="42.7579590" lon="-0.2219520">
        <ele>2100.4</ele>
        <time>2020-09-13T13:35:15Z</time>
      </trkpt>
      <trkpt lat="42.7580020" lon="-0.2220020">
        <ele>2099.2</ele>
        <time>2020-09-13T13:35:21Z</time>
      </trkpt>
      <trkpt lat="42.7580080" lon="-0.2220120">
        <ele>2098.8</ele>
        <time>2020-09-13T13:35:22Z</time>
      </trkpt>
      <trkpt lat="42.7580120" lon="-0.2220360">
        <ele>2098.2</ele>
        <time>2020-09-13T13:35:24Z</time>
      </trkpt>
      <trkpt lat="42.7580160" lon="-0.2220440">
        <ele>2097.8</ele>
        <time>2020-09-13T13:35:25Z</time>
      </trkpt>
      <trkpt lat="42.7580380" lon="-0.2220580">
        <ele>2096.8</ele>
        <time>2020-09-13T13:35:28Z</time>
      </trkpt>
      <trkpt lat="42.7580650" lon="-0.2220700">
        <ele>2095.8</ele>
        <time>2020-09-13T13:35:31Z</time>
      </trkpt>
      <trkpt lat="42.7580790" lon="-0.2220830">
        <ele>2095.2</ele>
        <time>2020-09-13T13:35:33Z</time>
      </trkpt>
      <trkpt lat="42.7580930" lon="-0.2221090">
        <ele>2094.8</ele>
        <time>2020-09-13T13:35:36Z</time>
      </trkpt>
      <trkpt lat="42.7580910" lon="-0.2221180">
        <ele>2094.8</ele>
        <time>2020-09-13T13:35:37Z</time>
      </trkpt>
      <trkpt lat="42.7580860" lon="-0.2221370">
        <ele>2094.2</ele>
        <time>2020-09-13T13:35:39Z</time>
      </trkpt>
      <trkpt lat="42.7580780" lon="-0.2221560">
        <ele>2093.6</ele>
        <time>2020-09-13T13:35:41Z</time>
      </trkpt>
      <trkpt lat="42.7580860" lon="-0.2221680">
        <ele>2093.0</ele>
        <time>2020-09-13T13:35:43Z</time>
      </trkpt>
      <trkpt lat="42.7581020" lon="-0.2221790">
        <ele>2092.4</ele>
        <time>2020-09-13T13:35:45Z</time>
      </trkpt>
      <trkpt lat="42.7581090" lon="-0.2222140">
        <ele>2091.0</ele>
        <time>2020-09-13T13:35:50Z</time>
      </trkpt>
      <trkpt lat="42.7581000" lon="-0.2222330">
        <ele>2090.0</ele>
        <time>2020-09-13T13:35:54Z</time>
      </trkpt>
      <trkpt lat="42.7580680" lon="-0.2222560">
        <ele>2088.8</ele>
        <time>2020-09-13T13:36:01Z</time>
      </trkpt>
      <trkpt lat="42.7580850" lon="-0.2223270">
        <ele>2087.8</ele>
        <time>2020-09-13T13:36:08Z</time>
      </trkpt>
      <trkpt lat="42.7580990" lon="-0.2223740">
        <ele>2086.6</ele>
        <time>2020-09-13T13:36:12Z</time>
      </trkpt>
      <trkpt lat="42.7580960" lon="-0.2223930">
        <ele>2085.4</ele>
        <time>2020-09-13T13:36:16Z</time>
      </trkpt>
      <trkpt lat="42.7581090" lon="-0.2224190">
        <ele>2084.2</ele>
        <time>2020-09-13T13:36:19Z</time>
      </trkpt>
      <trkpt lat="42.7581360" lon="-0.2224710">
        <ele>2083.0</ele>
        <time>2020-09-13T13:36:24Z</time>
      </trkpt>
      <trkpt lat="42.7581360" lon="-0.2224680">
        <ele>2081.8</ele>
        <time>2020-09-13T13:36:29Z</time>
      </trkpt>
      <trkpt lat="42.7581190" lon="-0.2224770">
        <ele>2080.6</ele>
        <time>2020-09-13T13:36:34Z</time>
      </trkpt>
      <trkpt lat="42.7581030" lon="-0.2224850">
        <ele>2079.6</ele>
        <time>2020-09-13T13:36:37Z</time>
      </trkpt>
      <trkpt lat="42.7581680" lon="-0.2225380">
        <ele>2078.4</ele>
        <time>2020-09-13T13:37:17Z</time>
      </trkpt>
      <trkpt lat="42.7581910" lon="-0.2225800">
        <ele>2077.8</ele>
        <time>2020-09-13T13:37:21Z</time>
      </trkpt>
      <trkpt lat="42.7582100" lon="-0.2225860">
        <ele>2077.4</ele>
        <time>2020-09-13T13:37:23Z</time>
      </trkpt>
      <trkpt lat="42.7582250" lon="-0.2225880">
        <ele>2076.8</ele>
        <time>2020-09-13T13:37:25Z</time>
      </trkpt>
      <trkpt lat="42.7582320" lon="-0.2225970">
        <ele>2076.4</ele>
        <time>2020-09-13T13:37:26Z</time>
      </trkpt>
      <trkpt lat="42.7582420" lon="-0.2226070">
        <ele>2076.0</ele>
        <time>2020-09-13T13:37:27Z</time>
      </trkpt>
      <trkpt lat="42.7582830" lon="-0.2226060">
        <ele>2075.2</ele>
        <time>2020-09-13T13:37:31Z</time>
      </trkpt>
      <trkpt lat="42.7583020" lon="-0.2226130">
        <ele>2074.6</ele>
        <time>2020-09-13T13:37:33Z</time>
      </trkpt>
      <trkpt lat="42.7583050" lon="-0.2226090">
        <ele>2074.2</ele>
        <time>2020-09-13T13:37:36Z</time>
      </trkpt>
      <trkpt lat="42.7583050" lon="-0.2226080">
        <ele>2074.0</ele>
        <time>2020-09-13T13:37:37Z</time>
      </trkpt>
      <trkpt lat="42.7583020" lon="-0.2226370">
        <ele>2073.2</ele>
        <time>2020-09-13T13:37:41Z</time>
      </trkpt>
      <trkpt lat="42.7583300" lon="-0.2226590">
        <ele>2072.0</ele>
        <time>2020-09-13T13:37:46Z</time>
      </trkpt>
      <trkpt lat="42.7583550" lon="-0.2226960">
        <ele>2070.6</ele>
        <time>2020-09-13T13:37:52Z</time>
      </trkpt>
      <trkpt lat="42.7583500" lon="-0.2227240">
        <ele>2069.6</ele>
        <time>2020-09-13T13:37:56Z</time>
      </trkpt>
      <trkpt lat="42.7583550" lon="-0.2227700">
        <ele>2068.4</ele>
        <time>2020-09-13T13:38:02Z</time>
      </trkpt>
      <trkpt lat="42.7583760" lon="-0.2227930">
        <ele>2067.2</ele>
        <time>2020-09-13T13:38:07Z</time>
      </trkpt>
      <trkpt lat="42.7584030" lon="-0.2228290">
        <ele>2066.2</ele>
        <time>2020-09-13T13:38:11Z</time>
      </trkpt>
      <trkpt lat="42.7584230" lon="-0.2228560">
        <ele>2065.2</ele>
        <time>2020-09-13T13:38:14Z</time>
      </trkpt>
      <trkpt lat="42.7584530" lon="-0.2228750">
        <ele>2063.8</ele>
        <time>2020-09-13T13:38:18Z</time>
      </trkpt>
      <trkpt lat="42.7584730" lon="-0.2229030">
        <ele>2062.8</ele>
        <time>2020-09-13T13:38:21Z</time>
      </trkpt>
      <trkpt lat="42.7584890" lon="-0.2229140">
        <ele>2061.8</ele>
        <time>2020-09-13T13:38:24Z</time>
      </trkpt>
      <trkpt lat="42.7584950" lon="-0.2229490">
        <ele>2060.4</ele>
        <time>2020-09-13T13:38:27Z</time>
      </trkpt>
      <trkpt lat="42.7584890" lon="-0.2229780">
        <ele>2059.4</ele>
        <time>2020-09-13T13:38:31Z</time>
      </trkpt>
      <trkpt lat="42.7584780" lon="-0.2230180">
        <ele>2058.2</ele>
        <time>2020-09-13T13:38:35Z</time>
      </trkpt>
      <trkpt lat="42.7584800" lon="-0.2230670">
        <ele>2057.0</ele>
        <time>2020-09-13T13:38:40Z</time>
      </trkpt>
      <trkpt lat="42.7584980" lon="-0.2231000">
        <ele>2056.0</ele>
        <time>2020-09-13T13:38:44Z</time>
      </trkpt>
      <trkpt lat="42.7584910" lon="-0.2231440">
        <ele>2054.8</ele>
        <time>2020-09-13T13:38:48Z</time>
      </trkpt>
      <trkpt lat="42.7584860" lon="-0.2231710">
        <ele>2053.6</ele>
        <time>2020-09-13T13:38:52Z</time>
      </trkpt>
      <trkpt lat="42.7585380" lon="-0.2231780">
        <ele>2052.6</ele>
        <time>2020-09-13T13:39:09Z</time>
      </trkpt>
      <trkpt lat="42.7585250" lon="-0.2232090">
        <ele>2052.0</ele>
        <time>2020-09-13T13:39:11Z</time>
      </trkpt>
      <trkpt lat="42.7585170" lon="-0.2232260">
        <ele>2051.6</ele>
        <time>2020-09-13T13:39:12Z</time>
      </trkpt>
      <trkpt lat="42.7585160" lon="-0.2232380">
        <ele>2051.4</ele>
        <time>2020-09-13T13:39:13Z</time>
      </trkpt>
      <trkpt lat="42.7585390" lon="-0.2232850">
        <ele>2050.4</ele>
        <time>2020-09-13T13:39:17Z</time>
      </trkpt>
      <trkpt lat="42.7585480" lon="-0.2233080">
        <ele>2050.0</ele>
        <time>2020-09-13T13:39:19Z</time>
      </trkpt>
      <trkpt lat="42.7585630" lon="-0.2233350">
        <ele>2049.4</ele>
        <time>2020-09-13T13:39:22Z</time>
      </trkpt>
      <trkpt lat="42.7585620" lon="-0.2233490">
        <ele>2049.4</ele>
        <time>2020-09-13T13:39:23Z</time>
      </trkpt>
      <trkpt lat="42.7585680" lon="-0.2234090">
        <ele>2048.0</ele>
        <time>2020-09-13T13:39:27Z</time>
      </trkpt>
      <trkpt lat="42.7585690" lon="-0.2234250">
        <ele>2047.6</ele>
        <time>2020-09-13T13:39:28Z</time>
      </trkpt>
      <trkpt lat="42.7585720" lon="-0.2234590">
        <ele>2046.8</ele>
        <time>2020-09-13T13:39:30Z</time>
      </trkpt>
      <trkpt lat="42.7585830" lon="-0.2235010">
        <ele>2045.4</ele>
        <time>2020-09-13T13:39:33Z</time>
      </trkpt>
      <trkpt lat="42.7585860" lon="-0.2235380">
        <ele>2044.4</ele>
        <time>2020-09-13T13:39:36Z</time>
      </trkpt>
      <trkpt lat="42.7586170" lon="-0.2236200">
        <ele>2043.2</ele>
        <time>2020-09-13T13:39:42Z</time>
      </trkpt>
      <trkpt lat="42.7586250" lon="-0.2236320">
        <ele>2043.0</ele>
        <time>2020-09-13T13:39:43Z</time>
      </trkpt>
      <trkpt lat="42.7586500" lon="-0.2236520">
        <ele>2042.0</ele>
        <time>2020-09-13T13:39:46Z</time>
      </trkpt>
      <trkpt lat="42.7586730" lon="-0.2236950">
        <ele>2040.8</ele>
        <time>2020-09-13T13:39:51Z</time>
      </trkpt>
      <trkpt lat="42.7586890" lon="-0.2237790">
        <ele>2039.6</ele>
        <time>2020-09-13T13:39:57Z</time>
      </trkpt>
      <trkpt lat="42.7587290" lon="-0.2238280">
        <ele>2038.6</ele>
        <time>2020-09-13T13:40:02Z</time>
      </trkpt>
      <trkpt lat="42.7587540" lon="-0.2238630">
        <ele>2037.4</ele>
        <time>2020-09-13T13:40:06Z</time>
      </trkpt>
      <trkpt lat="42.7587920" lon="-0.2239350">
        <ele>2036.2</ele>
        <time>2020-09-13T13:40:14Z</time>
      </trkpt>
      <trkpt lat="42.7588080" lon="-0.2239750">
        <ele>2035.2</ele>
        <time>2020-09-13T13:40:17Z</time>
      </trkpt>
      <trkpt lat="42.7588300" lon="-0.2240050">
        <ele>2034.0</ele>
        <time>2020-09-13T13:40:20Z</time>
      </trkpt>
      <trkpt lat="42.7588720" lon="-0.2240330">
        <ele>2032.8</ele>
        <time>2020-09-13T13:40:25Z</time>
      </trkpt>
      <trkpt lat="42.7588860" lon="-0.2240890">
        <ele>2031.6</ele>
        <time>2020-09-13T13:40:28Z</time>
      </trkpt>
      <trkpt lat="42.7589240" lon="-0.2241350">
        <ele>2030.4</ele>
        <time>2020-09-13T13:40:32Z</time>
      </trkpt>
      <trkpt lat="42.7589730" lon="-0.2242610">
        <ele>2029.8</ele>
        <time>2020-09-13T13:40:43Z</time>
      </trkpt>
      <trkpt lat="42.7589640" lon="-0.2243150">
        <ele>2029.4</ele>
        <time>2020-09-13T13:40:47Z</time>
      </trkpt>
      <trkpt lat="42.7589610" lon="-0.2243400">
        <ele>2028.8</ele>
        <time>2020-09-13T13:40:49Z</time>
      </trkpt>
      <trkpt lat="42.7589730" lon="-0.2243620">
        <ele>2028.4</ele>
        <time>2020-09-13T13:40:51Z</time>
      </trkpt>
      <trkpt lat="42.7589830" lon="-0.2244120">
        <ele>2027.2</ele>
        <time>2020-09-13T13:40:57Z</time>
      </trkpt>
      <trkpt lat="42.7589970" lon="-0.2244510">
        <ele>2026.0</ele>
        <time>2020-09-13T13:41:02Z</time>
      </trkpt>
      <trkpt lat="42.7590240" lon="-0.2244970">
        <ele>2024.6</ele>
        <time>2020-09-13T13:41:08Z</time>
      </trkpt>
      <trkpt lat="42.7590370" lon="-0.2245470">
        <ele>2023.6</ele>
        <time>2020-09-13T13:41:12Z</time>
      </trkpt>
      <trkpt lat="42.7590450" lon="-0.2246150">
        <ele>2022.4</ele>
        <time>2020-09-13T13:41:16Z</time>
      </trkpt>
      <trkpt lat="42.7590540" lon="-0.2246680">
        <ele>2021.4</ele>
        <time>2020-09-13T13:41:20Z</time>
      </trkpt>
      <trkpt lat="42.7590590" lon="-0.2246760">
        <ele>2021.2</ele>
        <time>2020-09-13T13:41:21Z</time>
      </trkpt>
      <trkpt lat="42.7590620" lon="-0.2246760">
        <ele>2021.2</ele>
        <time>2020-09-13T13:41:22Z</time>
      </trkpt>
      <trkpt lat="42.7591270" lon="-0.2246030">
        <ele>2020.2</ele>
        <time>2020-09-13T13:41:34Z</time>
      </trkpt>
      <trkpt lat="42.7591710" lon="-0.2245370">
        <ele>2019.4</ele>
        <time>2020-09-13T13:41:41Z</time>
      </trkpt>
      <trkpt lat="42.7591840" lon="-0.2245250">
        <ele>2019.0</ele>
        <time>2020-09-13T13:41:43Z</time>
      </trkpt>
      <trkpt lat="42.7592210" lon="-0.2244820">
        <ele>2017.8</ele>
        <time>2020-09-13T13:41:49Z</time>
      </trkpt>
      <trkpt lat="42.7592530" lon="-0.2244390">
        <ele>2016.8</ele>
        <time>2020-09-13T13:41:55Z</time>
      </trkpt>
      <trkpt lat="42.7592880" lon="-0.2244240">
        <ele>2015.6</ele>
        <time>2020-09-13T13:42:00Z</time>
      </trkpt>
      <trkpt lat="42.7593000" lon="-0.2244900">
        <ele>2014.6</ele>
        <time>2020-09-13T13:42:07Z</time>
      </trkpt>
      <trkpt lat="42.7593030" lon="-0.2245840">
        <ele>2013.4</ele>
        <time>2020-09-13T13:42:13Z</time>
      </trkpt>
      <trkpt lat="42.7593050" lon="-0.2246860">
        <ele>2012.8</ele>
        <time>2020-09-13T13:42:21Z</time>
      </trkpt>
      <trkpt lat="42.7592770" lon="-0.2247340">
        <ele>2012.4</ele>
        <time>2020-09-13T13:42:25Z</time>
      </trkpt>
      <trkpt lat="42.7592510" lon="-0.2247810">
        <ele>2011.4</ele>
        <time>2020-09-13T13:42:30Z</time>
      </trkpt>
      <trkpt lat="42.7592200" lon="-0.2248000">
        <ele>2011.2</ele>
        <time>2020-09-13T13:42:34Z</time>
      </trkpt>
      <trkpt lat="42.7592070" lon="-0.2248030">
        <ele>2011.0</ele>
        <time>2020-09-13T13:42:36Z</time>
      </trkpt>
      <trkpt lat="42.7592100" lon="-0.2248200">
        <ele>2010.4</ele>
        <time>2020-09-13T13:42:38Z</time>
      </trkpt>
      <trkpt lat="42.7592140" lon="-0.2248230">
        <ele>2010.0</ele>
        <time>2020-09-13T13:42:39Z</time>
      </trkpt>
      <trkpt lat="42.7592090" lon="-0.2248280">
        <ele>2009.0</ele>
        <time>2020-09-13T13:42:48Z</time>
      </trkpt>
      <trkpt lat="42.7592860" lon="-0.2248380">
        <ele>2007.8</ele>
        <time>2020-09-13T13:43:20Z</time>
      </trkpt>
      <trkpt lat="42.7592980" lon="-0.2248380">
        <ele>2007.4</ele>
        <time>2020-09-13T13:43:21Z</time>
      </trkpt>
      <trkpt lat="42.7593260" lon="-0.2248090">
        <ele>2006.8</ele>
        <time>2020-09-13T13:43:24Z</time>
      </trkpt>
      <trkpt lat="42.7593720" lon="-0.2247800">
        <ele>2005.6</ele>
        <time>2020-09-13T13:43:29Z</time>
      </trkpt>
      <trkpt lat="42.7593810" lon="-0.2247750">
        <ele>2005.6</ele>
        <time>2020-09-13T13:43:30Z</time>
      </trkpt>
      <trkpt lat="42.7594820" lon="-0.2247030">
        <ele>2004.4</ele>
        <time>2020-09-13T13:43:40Z</time>
      </trkpt>
      <trkpt lat="42.7594980" lon="-0.2246800">
        <ele>2003.8</ele>
        <time>2020-09-13T13:43:42Z</time>
      </trkpt>
      <trkpt lat="42.7595190" lon="-0.2246460">
        <ele>2003.4</ele>
        <time>2020-09-13T13:43:45Z</time>
      </trkpt>
      <trkpt lat="42.7595180" lon="-0.2246320">
        <ele>2003.2</ele>
        <time>2020-09-13T13:43:46Z</time>
      </trkpt>
      <trkpt lat="42.7595280" lon="-0.2246190">
        <ele>2003.0</ele>
        <time>2020-09-13T13:43:47Z</time>
      </trkpt>
      <trkpt lat="42.7595420" lon="-0.2245960">
        <ele>2002.6</ele>
        <time>2020-09-13T13:43:49Z</time>
      </trkpt>
      <trkpt lat="42.7595580" lon="-0.2245780">
        <ele>2002.2</ele>
        <time>2020-09-13T13:43:51Z</time>
      </trkpt>
      <trkpt lat="42.7595720" lon="-0.2245540">
        <ele>2001.6</ele>
        <time>2020-09-13T13:43:54Z</time>
      </trkpt>
      <trkpt lat="42.7595910" lon="-0.2245340">
        <ele>2001.0</ele>
        <time>2020-09-13T13:43:56Z</time>
      </trkpt>
      <trkpt lat="42.7596330" lon="-0.2244910">
        <ele>1999.8</ele>
        <time>2020-09-13T13:44:01Z</time>
      </trkpt>
      <trkpt lat="42.7596380" lon="-0.2244770">
        <ele>1999.6</ele>
        <time>2020-09-13T13:44:02Z</time>
      </trkpt>
      <trkpt lat="42.7596680" lon="-0.2244100">
        <ele>1998.8</ele>
        <time>2020-09-13T13:44:07Z</time>
      </trkpt>
      <trkpt lat="42.7597010" lon="-0.2243170">
        <ele>1997.8</ele>
        <time>2020-09-13T13:44:14Z</time>
      </trkpt>
      <trkpt lat="42.7597300" lon="-0.2242500">
        <ele>1996.6</ele>
        <time>2020-09-13T13:44:20Z</time>
      </trkpt>
      <trkpt lat="42.7597480" lon="-0.2242070">
        <ele>1995.6</ele>
        <time>2020-09-13T13:44:24Z</time>
      </trkpt>
      <trkpt lat="42.7597990" lon="-0.2241000">
        <ele>1994.4</ele>
        <time>2020-09-13T13:44:32Z</time>
      </trkpt>
      <trkpt lat="42.7598260" lon="-0.2240140">
        <ele>1993.4</ele>
        <time>2020-09-13T13:44:38Z</time>
      </trkpt>
      <trkpt lat="42.7598570" lon="-0.2239590">
        <ele>1992.4</ele>
        <time>2020-09-13T13:44:42Z</time>
      </trkpt>
      <trkpt lat="42.7598870" lon="-0.2238940">
        <ele>1991.4</ele>
        <time>2020-09-13T13:44:47Z</time>
      </trkpt>
      <trkpt lat="42.7599410" lon="-0.2238230">
        <ele>1990.2</ele>
        <time>2020-09-13T13:44:54Z</time>
      </trkpt>
      <trkpt lat="42.7599950" lon="-0.2237640">
        <ele>1989.2</ele>
        <time>2020-09-13T13:45:01Z</time>
      </trkpt>
      <trkpt lat="42.7600010" lon="-0.2237590">
        <ele>1989.0</ele>
        <time>2020-09-13T13:45:02Z</time>
      </trkpt>
      <trkpt lat="42.7600370" lon="-0.2237250">
        <ele>1988.0</ele>
        <time>2020-09-13T13:45:07Z</time>
      </trkpt>
      <trkpt lat="42.7600430" lon="-0.2237190">
        <ele>1987.8</ele>
        <time>2020-09-13T13:45:08Z</time>
      </trkpt>
      <trkpt lat="42.7600640" lon="-0.2237030">
        <ele>1986.8</ele>
        <time>2020-09-13T13:45:12Z</time>
      </trkpt>
      <trkpt lat="42.7600980" lon="-0.2236890">
        <ele>1986.0</ele>
        <time>2020-09-13T13:45:16Z</time>
      </trkpt>
      <trkpt lat="42.7601140" lon="-0.2236860">
        <ele>1985.8</ele>
        <time>2020-09-13T13:45:18Z</time>
      </trkpt>
      <trkpt lat="42.7601430" lon="-0.2236790">
        <ele>1984.8</ele>
        <time>2020-09-13T13:45:22Z</time>
      </trkpt>
      <trkpt lat="42.7601480" lon="-0.2236800">
        <ele>1984.6</ele>
        <time>2020-09-13T13:45:23Z</time>
      </trkpt>
      <trkpt lat="42.7601600" lon="-0.2236830">
        <ele>1984.2</ele>
        <time>2020-09-13T13:45:25Z</time>
      </trkpt>
      <trkpt lat="42.7601840" lon="-0.2236820">
        <ele>1983.4</ele>
        <time>2020-09-13T13:45:28Z</time>
      </trkpt>
      <trkpt lat="42.7602330" lon="-0.2236650">
        <ele>1982.6</ele>
        <time>2020-09-13T13:45:33Z</time>
      </trkpt>
      <trkpt lat="42.7602540" lon="-0.2236630">
        <ele>1982.2</ele>
        <time>2020-09-13T13:45:35Z</time>
      </trkpt>
      <trkpt lat="42.7602980" lon="-0.2236530">
        <ele>1981.4</ele>
        <time>2020-09-13T13:45:40Z</time>
      </trkpt>
      <trkpt lat="42.7603080" lon="-0.2236530">
        <ele>1981.0</ele>
        <time>2020-09-13T13:45:41Z</time>
      </trkpt>
      <trkpt lat="42.7603620" lon="-0.2236600">
        <ele>1980.0</ele>
        <time>2020-09-13T13:45:46Z</time>
      </trkpt>
      <trkpt lat="42.7603740" lon="-0.2236590">
        <ele>1979.8</ele>
        <time>2020-09-13T13:45:47Z</time>
      </trkpt>
      <trkpt lat="42.7603940" lon="-0.2236460">
        <ele>1979.6</ele>
        <time>2020-09-13T13:45:49Z</time>
      </trkpt>
      <trkpt lat="42.7604410" lon="-0.2236510">
        <ele>1979.0</ele>
        <time>2020-09-13T13:45:54Z</time>
      </trkpt>
      <trkpt lat="42.7605090" lon="-0.2236190">
        <ele>1977.8</ele>
        <time>2020-09-13T13:46:01Z</time>
      </trkpt>
      <trkpt lat="42.7605800" lon="-0.2235940">
        <ele>1976.8</ele>
        <time>2020-09-13T13:46:09Z</time>
      </trkpt>
      <trkpt lat="42.7605910" lon="-0.2235870">
        <ele>1976.2</ele>
        <time>2020-09-13T13:46:11Z</time>
      </trkpt>
      <trkpt lat="42.7606170" lon="-0.2235780">
        <ele>1975.8</ele>
        <time>2020-09-13T13:46:14Z</time>
      </trkpt>
      <trkpt lat="42.7606270" lon="-0.2235750">
        <ele>1975.6</ele>
        <time>2020-09-13T13:46:15Z</time>
      </trkpt>
      <trkpt lat="42.7606570" lon="-0.2235710">
        <ele>1975.2</ele>
        <time>2020-09-13T13:46:18Z</time>
      </trkpt>
      <trkpt lat="42.7606810" lon="-0.2235860">
        <ele>1974.8</ele>
        <time>2020-09-13T13:46:21Z</time>
      </trkpt>
      <trkpt lat="42.7606870" lon="-0.2235860">
        <ele>1974.6</ele>
        <time>2020-09-13T13:46:22Z</time>
      </trkpt>
      <trkpt lat="42.7607180" lon="-0.2235770">
        <ele>1973.8</ele>
        <time>2020-09-13T13:46:26Z</time>
      </trkpt>
      <trkpt lat="42.7607460" lon="-0.2235660">
        <ele>1972.6</ele>
        <time>2020-09-13T13:46:30Z</time>
      </trkpt>
      <trkpt lat="42.7607870" lon="-0.2235620">
        <ele>1971.8</ele>
        <time>2020-09-13T13:46:34Z</time>
      </trkpt>
      <trkpt lat="42.7607960" lon="-0.2235650">
        <ele>1971.6</ele>
        <time>2020-09-13T13:46:35Z</time>
      </trkpt>
      <trkpt lat="42.7608330" lon="-0.2235960">
        <ele>1970.4</ele>
        <time>2020-09-13T13:46:40Z</time>
      </trkpt>
      <trkpt lat="42.7608410" lon="-0.2235990">
        <ele>1970.0</ele>
        <time>2020-09-13T13:46:41Z</time>
      </trkpt>
      <trkpt lat="42.7608590" lon="-0.2235950">
        <ele>1969.6</ele>
        <time>2020-09-13T13:46:43Z</time>
      </trkpt>
      <trkpt lat="42.7608690" lon="-0.2235930">
        <ele>1969.4</ele>
        <time>2020-09-13T13:46:44Z</time>
      </trkpt>
      <trkpt lat="42.7609360" lon="-0.2235810">
        <ele>1968.0</ele>
        <time>2020-09-13T13:46:52Z</time>
      </trkpt>
      <trkpt lat="42.7609500" lon="-0.2235850">
        <ele>1967.4</ele>
        <time>2020-09-13T13:46:54Z</time>
      </trkpt>
      <trkpt lat="42.7609620" lon="-0.2235890">
        <ele>1967.0</ele>
        <time>2020-09-13T13:46:55Z</time>
      </trkpt>
      <trkpt lat="42.7609820" lon="-0.2235940">
        <ele>1966.8</ele>
        <time>2020-09-13T13:46:57Z</time>
      </trkpt>
      <trkpt lat="42.7610330" lon="-0.2236140">
        <ele>1966.0</ele>
        <time>2020-09-13T13:47:02Z</time>
      </trkpt>
      <trkpt lat="42.7610700" lon="-0.2236300">
        <ele>1966.0</ele>
        <time>2020-09-13T13:47:06Z</time>
      </trkpt>
      <trkpt lat="42.7611220" lon="-0.2236450">
        <ele>1966.0</ele>
        <time>2020-09-13T13:47:11Z</time>
      </trkpt>
      <trkpt lat="42.7611470" lon="-0.2236460">
        <ele>1966.0</ele>
        <time>2020-09-13T13:47:14Z</time>
      </trkpt>
      <trkpt lat="42.7611840" lon="-0.2236540">
        <ele>1965.0</ele>
        <time>2020-09-13T13:47:19Z</time>
      </trkpt>
      <trkpt lat="42.7612040" lon="-0.2236560">
        <ele>1964.6</ele>
        <time>2020-09-13T13:47:22Z</time>
      </trkpt>
      <trkpt lat="42.7612190" lon="-0.2236650">
        <ele>1964.4</ele>
        <time>2020-09-13T13:47:24Z</time>
      </trkpt>
      <trkpt lat="42.7612620" lon="-0.2236750">
        <ele>1964.0</ele>
        <time>2020-09-13T13:47:30Z</time>
      </trkpt>
      <trkpt lat="42.7612680" lon="-0.2236790">
        <ele>1963.8</ele>
        <time>2020-09-13T13:47:31Z</time>
      </trkpt>
      <trkpt lat="42.7613380" lon="-0.2237190">
        <ele>1962.8</ele>
        <time>2020-09-13T13:47:41Z</time>
      </trkpt>
      <trkpt lat="42.7614040" lon="-0.2237510">
        <ele>1961.8</ele>
        <time>2020-09-13T13:47:49Z</time>
      </trkpt>
      <trkpt lat="42.7614320" lon="-0.2237690">
        <ele>1961.6</ele>
        <time>2020-09-13T13:47:53Z</time>
      </trkpt>
      <trkpt lat="42.7614580" lon="-0.2237770">
        <ele>1961.4</ele>
        <time>2020-09-13T13:47:56Z</time>
      </trkpt>
      <trkpt lat="42.7614820" lon="-0.2237750">
        <ele>1961.2</ele>
        <time>2020-09-13T13:47:59Z</time>
      </trkpt>
      <trkpt lat="42.7615290" lon="-0.2237840">
        <ele>1960.6</ele>
        <time>2020-09-13T13:48:04Z</time>
      </trkpt>
      <trkpt lat="42.7615350" lon="-0.2237890">
        <ele>1960.4</ele>
        <time>2020-09-13T13:48:05Z</time>
      </trkpt>
      <trkpt lat="42.7615770" lon="-0.2237940">
        <ele>1959.4</ele>
        <time>2020-09-13T13:48:11Z</time>
      </trkpt>
      <trkpt lat="42.7616320" lon="-0.2238490">
        <ele>1958.4</ele>
        <time>2020-09-13T13:48:24Z</time>
      </trkpt>
      <trkpt lat="42.7616000" lon="-0.2238730">
        <ele>1957.2</ele>
        <time>2020-09-13T13:48:59Z</time>
      </trkpt>
      <trkpt lat="42.7615620" lon="-0.2238900">
        <ele>1956.6</ele>
        <time>2020-09-13T13:49:02Z</time>
      </trkpt>
      <trkpt lat="42.7615020" lon="-0.2239110">
        <ele>1956.2</ele>
        <time>2020-09-13T13:49:08Z</time>
      </trkpt>
      <trkpt lat="42.7614800" lon="-0.2239180">
        <ele>1956.2</ele>
        <time>2020-09-13T13:49:10Z</time>
      </trkpt>
      <trkpt lat="42.7614680" lon="-0.2239270">
        <ele>1956.2</ele>
        <time>2020-09-13T13:49:12Z</time>
      </trkpt>
      <trkpt lat="42.7613960" lon="-0.2240130">
        <ele>1955.4</ele>
        <time>2020-09-13T13:49:29Z</time>
      </trkpt>
      <trkpt lat="42.7613570" lon="-0.2240260">
        <ele>1955.0</ele>
        <time>2020-09-13T13:49:32Z</time>
      </trkpt>
      <trkpt lat="42.7613170" lon="-0.2240570">
        <ele>1954.0</ele>
        <time>2020-09-13T13:49:36Z</time>
      </trkpt>
      <trkpt lat="42.7612830" lon="-0.2241070">
        <ele>1953.0</ele>
        <time>2020-09-13T13:49:42Z</time>
      </trkpt>
      <trkpt lat="42.7612020" lon="-0.2241820">
        <ele>1951.8</ele>
        <time>2020-09-13T13:49:51Z</time>
      </trkpt>
      <trkpt lat="42.7611900" lon="-0.2242420">
        <ele>1950.8</ele>
        <time>2020-09-13T13:49:56Z</time>
      </trkpt>
      <trkpt lat="42.7611860" lon="-0.2242530">
        <ele>1950.4</ele>
        <time>2020-09-13T13:49:57Z</time>
      </trkpt>
      <trkpt lat="42.7611560" lon="-0.2243020">
        <ele>1949.6</ele>
        <time>2020-09-13T13:50:01Z</time>
      </trkpt>
      <trkpt lat="42.7611000" lon="-0.2243960">
        <ele>1948.6</ele>
        <time>2020-09-13T13:50:08Z</time>
      </trkpt>
      <trkpt lat="42.7610490" lon="-0.2244610">
        <ele>1947.4</ele>
        <time>2020-09-13T13:50:14Z</time>
      </trkpt>
      <trkpt lat="42.7609880" lon="-0.2245410">
        <ele>1946.8</ele>
        <time>2020-09-13T13:50:22Z</time>
      </trkpt>
      <trkpt lat="42.7609670" lon="-0.2245590">
        <ele>1946.6</ele>
        <time>2020-09-13T13:50:24Z</time>
      </trkpt>
      <trkpt lat="42.7609570" lon="-0.2246060">
        <ele>1946.2</ele>
        <time>2020-09-13T13:50:27Z</time>
      </trkpt>
      <trkpt lat="42.7609520" lon="-0.2246340">
        <ele>1946.0</ele>
        <time>2020-09-13T13:50:29Z</time>
      </trkpt>
      <trkpt lat="42.7609510" lon="-0.2246780">
        <ele>1945.2</ele>
        <time>2020-09-13T13:50:33Z</time>
      </trkpt>
      <trkpt lat="42.7608880" lon="-0.2247420">
        <ele>1944.0</ele>
        <time>2020-09-13T13:50:40Z</time>
      </trkpt>
      <trkpt lat="42.7608480" lon="-0.2247780">
        <ele>1944.0</ele>
        <time>2020-09-13T13:50:44Z</time>
      </trkpt>
      <trkpt lat="42.7607760" lon="-0.2248060">
        <ele>1943.4</ele>
        <time>2020-09-13T13:50:49Z</time>
      </trkpt>
      <trkpt lat="42.7607620" lon="-0.2248330">
        <ele>1943.0</ele>
        <time>2020-09-13T13:50:51Z</time>
      </trkpt>
      <trkpt lat="42.7607290" lon="-0.2249070">
        <ele>1942.6</ele>
        <time>2020-09-13T13:50:57Z</time>
      </trkpt>
      <trkpt lat="42.7607040" lon="-0.2249480">
        <ele>1942.2</ele>
        <time>2020-09-13T13:51:02Z</time>
      </trkpt>
      <trkpt lat="42.7607080" lon="-0.2249590">
        <ele>1942.0</ele>
        <time>2020-09-13T13:51:03Z</time>
      </trkpt>
      <trkpt lat="42.7607110" lon="-0.2249630">
        <ele>1941.6</ele>
        <time>2020-09-13T13:51:04Z</time>
      </trkpt>
      <trkpt lat="42.7607130" lon="-0.2249550">
        <ele>1940.8</ele>
        <time>2020-09-13T13:51:08Z</time>
      </trkpt>
      <trkpt lat="42.7607400" lon="-0.2250320">
        <ele>1939.6</ele>
        <time>2020-09-13T13:51:58Z</time>
      </trkpt>
      <trkpt lat="42.7607650" lon="-0.2250310">
        <ele>1939.2</ele>
        <time>2020-09-13T13:52:01Z</time>
      </trkpt>
      <trkpt lat="42.7607990" lon="-0.2250270">
        <ele>1938.6</ele>
        <time>2020-09-13T13:52:05Z</time>
      </trkpt>
      <trkpt lat="42.7608270" lon="-0.2250110">
        <ele>1938.0</ele>
        <time>2020-09-13T13:52:08Z</time>
      </trkpt>
      <trkpt lat="42.7608520" lon="-0.2250030">
        <ele>1937.6</ele>
        <time>2020-09-13T13:52:11Z</time>
      </trkpt>
      <trkpt lat="42.7608610" lon="-0.2250130">
        <ele>1937.0</ele>
        <time>2020-09-13T13:52:13Z</time>
      </trkpt>
      <trkpt lat="42.7608440" lon="-0.2250260">
        <ele>1936.6</ele>
        <time>2020-09-13T13:52:16Z</time>
      </trkpt>
      <trkpt lat="42.7608350" lon="-0.2250310">
        <ele>1936.4</ele>
        <time>2020-09-13T13:52:17Z</time>
      </trkpt>
      <trkpt lat="42.7607790" lon="-0.2250830">
        <ele>1935.2</ele>
        <time>2020-09-13T13:52:23Z</time>
      </trkpt>
      <trkpt lat="42.7607680" lon="-0.2251000">
        <ele>1934.6</ele>
        <time>2020-09-13T13:52:25Z</time>
      </trkpt>
      <trkpt lat="42.7607730" lon="-0.2251150">
        <ele>1934.2</ele>
        <time>2020-09-13T13:52:26Z</time>
      </trkpt>
      <trkpt lat="42.7608190" lon="-0.2251090">
        <ele>1933.2</ele>
        <time>2020-09-13T13:52:31Z</time>
      </trkpt>
      <trkpt lat="42.7608650" lon="-0.2251140">
        <ele>1932.2</ele>
        <time>2020-09-13T13:52:35Z</time>
      </trkpt>
      <trkpt lat="42.7608910" lon="-0.2251120">
        <ele>1931.2</ele>
        <time>2020-09-13T13:52:38Z</time>
      </trkpt>
      <trkpt lat="42.7608930" lon="-0.2251180">
        <ele>1931.0</ele>
        <time>2020-09-13T13:52:39Z</time>
      </trkpt>
      <trkpt lat="42.7608910" lon="-0.2251250">
        <ele>1930.8</ele>
        <time>2020-09-13T13:52:40Z</time>
      </trkpt>
      <trkpt lat="42.7608810" lon="-0.2251430">
        <ele>1930.6</ele>
        <time>2020-09-13T13:52:42Z</time>
      </trkpt>
      <trkpt lat="42.7608520" lon="-0.2251640">
        <ele>1929.8</ele>
        <time>2020-09-13T13:52:45Z</time>
      </trkpt>
      <trkpt lat="42.7608440" lon="-0.2251800">
        <ele>1929.4</ele>
        <time>2020-09-13T13:52:47Z</time>
      </trkpt>
      <trkpt lat="42.7608300" lon="-0.2251880">
        <ele>1928.8</ele>
        <time>2020-09-13T13:52:49Z</time>
      </trkpt>
      <trkpt lat="42.7608290" lon="-0.2252160">
        <ele>1928.2</ele>
        <time>2020-09-13T13:52:51Z</time>
      </trkpt>
      <trkpt lat="42.7608480" lon="-0.2252330">
        <ele>1927.8</ele>
        <time>2020-09-13T13:52:54Z</time>
      </trkpt>
      <trkpt lat="42.7609010" lon="-0.2252240">
        <ele>1926.6</ele>
        <time>2020-09-13T13:52:59Z</time>
      </trkpt>
      <trkpt lat="42.7609310" lon="-0.2252130">
        <ele>1925.6</ele>
        <time>2020-09-13T13:53:02Z</time>
      </trkpt>
      <trkpt lat="42.7610160" lon="-0.2251800">
        <ele>1924.6</ele>
        <time>2020-09-13T13:53:09Z</time>
      </trkpt>
      <trkpt lat="42.7610750" lon="-0.2251750">
        <ele>1923.6</ele>
        <time>2020-09-13T13:53:14Z</time>
      </trkpt>
      <trkpt lat="42.7612640" lon="-0.2251570">
        <ele>1922.4</ele>
        <time>2020-09-13T13:53:28Z</time>
      </trkpt>
      <trkpt lat="42.7613880" lon="-0.2250950">
        <ele>1921.4</ele>
        <time>2020-09-13T13:53:39Z</time>
      </trkpt>
      <trkpt lat="42.7614210" lon="-0.2250440">
        <ele>1920.2</ele>
        <time>2020-09-13T13:53:44Z</time>
      </trkpt>
      <trkpt lat="42.7614290" lon="-0.2250380">
        <ele>1920.0</ele>
        <time>2020-09-13T13:53:45Z</time>
      </trkpt>
      <trkpt lat="42.7614450" lon="-0.2250410">
        <ele>1919.2</ele>
        <time>2020-09-13T13:53:48Z</time>
      </trkpt>
      <trkpt lat="42.7614370" lon="-0.2250640">
        <ele>1918.8</ele>
        <time>2020-09-13T13:53:50Z</time>
      </trkpt>
      <trkpt lat="42.7614200" lon="-0.2250860">
        <ele>1918.4</ele>
        <time>2020-09-13T13:53:52Z</time>
      </trkpt>
      <trkpt lat="42.7614120" lon="-0.2250980">
        <ele>1918.2</ele>
        <time>2020-09-13T13:53:53Z</time>
      </trkpt>
      <trkpt lat="42.7613870" lon="-0.2251270">
        <ele>1917.6</ele>
        <time>2020-09-13T13:53:56Z</time>
      </trkpt>
      <trkpt lat="42.7613730" lon="-0.2251650">
        <ele>1917.0</ele>
        <time>2020-09-13T13:53:59Z</time>
      </trkpt>
      <trkpt lat="42.7613460" lon="-0.2252010">
        <ele>1916.2</ele>
        <time>2020-09-13T13:54:04Z</time>
      </trkpt>
      <trkpt lat="42.7613380" lon="-0.2252020">
        <ele>1916.0</ele>
        <time>2020-09-13T13:54:05Z</time>
      </trkpt>
      <trkpt lat="42.7613190" lon="-0.2252170">
        <ele>1915.6</ele>
        <time>2020-09-13T13:54:09Z</time>
      </trkpt>
      <trkpt lat="42.7613110" lon="-0.2252360">
        <ele>1915.4</ele>
        <time>2020-09-13T13:54:11Z</time>
      </trkpt>
      <trkpt lat="42.7613060" lon="-0.2252480">
        <ele>1915.0</ele>
        <time>2020-09-13T13:54:12Z</time>
      </trkpt>
      <trkpt lat="42.7612920" lon="-0.2252530">
        <ele>1914.8</ele>
        <time>2020-09-13T13:54:13Z</time>
      </trkpt>
      <trkpt lat="42.7612990" lon="-0.2252690">
        <ele>1914.0</ele>
        <time>2020-09-13T13:54:16Z</time>
      </trkpt>
      <trkpt lat="42.7613480" lon="-0.2252550">
        <ele>1913.0</ele>
        <time>2020-09-13T13:54:20Z</time>
      </trkpt>
      <trkpt lat="42.7614190" lon="-0.2252360">
        <ele>1911.8</ele>
        <time>2020-09-13T13:54:26Z</time>
      </trkpt>
      <trkpt lat="42.7614440" lon="-0.2252120">
        <ele>1911.4</ele>
        <time>2020-09-13T13:54:29Z</time>
      </trkpt>
      <trkpt lat="42.7614450" lon="-0.2252480">
        <ele>1910.8</ele>
        <time>2020-09-13T13:54:33Z</time>
      </trkpt>
      <trkpt lat="42.7614410" lon="-0.2252610">
        <ele>1910.6</ele>
        <time>2020-09-13T13:54:34Z</time>
      </trkpt>
      <trkpt lat="42.7614310" lon="-0.2252880">
        <ele>1910.2</ele>
        <time>2020-09-13T13:54:36Z</time>
      </trkpt>
      <trkpt lat="42.7614230" lon="-0.2253170">
        <ele>1909.6</ele>
        <time>2020-09-13T13:54:38Z</time>
      </trkpt>
      <trkpt lat="42.7614100" lon="-0.2253750">
        <ele>1908.6</ele>
        <time>2020-09-13T13:54:43Z</time>
      </trkpt>
      <trkpt lat="42.7614030" lon="-0.2253810">
        <ele>1908.4</ele>
        <time>2020-09-13T13:54:44Z</time>
      </trkpt>
      <trkpt lat="42.7613700" lon="-0.2253980">
        <ele>1907.4</ele>
        <time>2020-09-13T13:54:48Z</time>
      </trkpt>
      <trkpt lat="42.7613330" lon="-0.2254050">
        <ele>1906.8</ele>
        <time>2020-09-13T13:54:51Z</time>
      </trkpt>
      <trkpt lat="42.7612970" lon="-0.2254170">
        <ele>1906.4</ele>
        <time>2020-09-13T13:54:54Z</time>
      </trkpt>
      <trkpt lat="42.7612890" lon="-0.2254250">
        <ele>1906.2</ele>
        <time>2020-09-13T13:54:55Z</time>
      </trkpt>
      <trkpt lat="42.7612920" lon="-0.2254370">
        <ele>1906.2</ele>
        <time>2020-09-13T13:54:56Z</time>
      </trkpt>
      <trkpt lat="42.7613030" lon="-0.2254520">
        <ele>1905.8</ele>
        <time>2020-09-13T13:54:58Z</time>
      </trkpt>
      <trkpt lat="42.7613360" lon="-0.2254550">
        <ele>1905.0</ele>
        <time>2020-09-13T13:55:01Z</time>
      </trkpt>
      <trkpt lat="42.7613850" lon="-0.2254570">
        <ele>1904.0</ele>
        <time>2020-09-13T13:55:05Z</time>
      </trkpt>
      <trkpt lat="42.7614750" lon="-0.2254020">
        <ele>1903.0</ele>
        <time>2020-09-13T13:55:13Z</time>
      </trkpt>
      <trkpt lat="42.7615000" lon="-0.2253780">
        <ele>1902.2</ele>
        <time>2020-09-13T13:55:16Z</time>
      </trkpt>
      <trkpt lat="42.7615050" lon="-0.2253690">
        <ele>1902.0</ele>
        <time>2020-09-13T13:55:17Z</time>
      </trkpt>
      <trkpt lat="42.7615110" lon="-0.2253660">
        <ele>1901.6</ele>
        <time>2020-09-13T13:55:18Z</time>
      </trkpt>
      <trkpt lat="42.7615210" lon="-0.2253840">
        <ele>1901.0</ele>
        <time>2020-09-13T13:55:21Z</time>
      </trkpt>
      <trkpt lat="42.7615000" lon="-0.2254350">
        <ele>1900.0</ele>
        <time>2020-09-13T13:55:25Z</time>
      </trkpt>
      <trkpt lat="42.7614920" lon="-0.2254480">
        <ele>1899.8</ele>
        <time>2020-09-13T13:55:26Z</time>
      </trkpt>
      <trkpt lat="42.7614320" lon="-0.2254940">
        <ele>1898.8</ele>
        <time>2020-09-13T13:55:32Z</time>
      </trkpt>
      <trkpt lat="42.7614040" lon="-0.2255110">
        <ele>1898.2</ele>
        <time>2020-09-13T13:55:35Z</time>
      </trkpt>
      <trkpt lat="42.7613850" lon="-0.2255560">
        <ele>1897.6</ele>
        <time>2020-09-13T13:55:39Z</time>
      </trkpt>
      <trkpt lat="42.7613480" lon="-0.2256050">
        <ele>1896.4</ele>
        <time>2020-09-13T13:55:44Z</time>
      </trkpt>
      <trkpt lat="42.7613220" lon="-0.2256240">
        <ele>1895.4</ele>
        <time>2020-09-13T13:55:47Z</time>
      </trkpt>
      <trkpt lat="42.7613270" lon="-0.2256290">
        <ele>1895.2</ele>
        <time>2020-09-13T13:55:48Z</time>
      </trkpt>
      <trkpt lat="42.7613700" lon="-0.2256310">
        <ele>1894.2</ele>
        <time>2020-09-13T13:55:52Z</time>
      </trkpt>
      <trkpt lat="42.7615060" lon="-0.2255640">
        <ele>1892.8</ele>
        <time>2020-09-13T13:56:04Z</time>
      </trkpt>
      <trkpt lat="42.7615610" lon="-0.2255320">
        <ele>1891.8</ele>
        <time>2020-09-13T13:56:09Z</time>
      </trkpt>
      <trkpt lat="42.7616140" lon="-0.2254750">
        <ele>1890.8</ele>
        <time>2020-09-13T13:56:15Z</time>
      </trkpt>
      <trkpt lat="42.7616190" lon="-0.2254740">
        <ele>1890.6</ele>
        <time>2020-09-13T13:56:16Z</time>
      </trkpt>
      <trkpt lat="42.7616280" lon="-0.2254850">
        <ele>1890.0</ele>
        <time>2020-09-13T13:56:18Z</time>
      </trkpt>
      <trkpt lat="42.7616180" lon="-0.2255130">
        <ele>1889.6</ele>
        <time>2020-09-13T13:56:21Z</time>
      </trkpt>
      <trkpt lat="42.7616150" lon="-0.2255200">
        <ele>1889.6</ele>
        <time>2020-09-13T13:56:22Z</time>
      </trkpt>
      <trkpt lat="42.7615830" lon="-0.2255930">
        <ele>1888.6</ele>
        <time>2020-09-13T13:56:35Z</time>
      </trkpt>
      <trkpt lat="42.7614990" lon="-0.2256560">
        <ele>1887.2</ele>
        <time>2020-09-13T13:56:43Z</time>
      </trkpt>
      <trkpt lat="42.7614710" lon="-0.2256850">
        <ele>1886.4</ele>
        <time>2020-09-13T13:56:46Z</time>
      </trkpt>
      <trkpt lat="42.7614590" lon="-0.2256910">
        <ele>1886.2</ele>
        <time>2020-09-13T13:56:47Z</time>
      </trkpt>
      <trkpt lat="42.7614180" lon="-0.2257780">
        <ele>1885.2</ele>
        <time>2020-09-13T13:56:54Z</time>
      </trkpt>
      <trkpt lat="42.7613910" lon="-0.2257970">
        <ele>1884.2</ele>
        <time>2020-09-13T13:56:57Z</time>
      </trkpt>
      <trkpt lat="42.7613780" lon="-0.2258020">
        <ele>1884.0</ele>
        <time>2020-09-13T13:56:58Z</time>
      </trkpt>
      <trkpt lat="42.7613590" lon="-0.2258120">
        <ele>1883.6</ele>
        <time>2020-09-13T13:57:00Z</time>
      </trkpt>
      <trkpt lat="42.7613520" lon="-0.2258410">
        <ele>1882.8</ele>
        <time>2020-09-13T13:57:02Z</time>
      </trkpt>
      <trkpt lat="42.7613850" lon="-0.2258290">
        <ele>1881.8</ele>
        <time>2020-09-13T13:57:07Z</time>
      </trkpt>
      <trkpt lat="42.7614500" lon="-0.2258090">
        <ele>1880.6</ele>
        <time>2020-09-13T13:57:12Z</time>
      </trkpt>
      <trkpt lat="42.7615320" lon="-0.2257890">
        <ele>1879.6</ele>
        <time>2020-09-13T13:57:18Z</time>
      </trkpt>
      <trkpt lat="42.7616100" lon="-0.2257740">
        <ele>1878.6</ele>
        <time>2020-09-13T13:57:25Z</time>
      </trkpt>
      <trkpt lat="42.7617150" lon="-0.2257120">
        <ele>1877.4</ele>
        <time>2020-09-13T13:57:34Z</time>
      </trkpt>
      <trkpt lat="42.7617850" lon="-0.2256480">
        <ele>1877.0</ele>
        <time>2020-09-13T13:57:41Z</time>
      </trkpt>
      <trkpt lat="42.7617930" lon="-0.2256570">
        <ele>1876.2</ele>
        <time>2020-09-13T13:57:44Z</time>
      </trkpt>
      <trkpt lat="42.7617730" lon="-0.2257000">
        <ele>1875.4</ele>
        <time>2020-09-13T13:57:48Z</time>
      </trkpt>
      <trkpt lat="42.7617640" lon="-0.2257100">
        <ele>1875.2</ele>
        <time>2020-09-13T13:57:49Z</time>
      </trkpt>
      <trkpt lat="42.7617210" lon="-0.2257690">
        <ele>1874.0</ele>
        <time>2020-09-13T13:57:54Z</time>
      </trkpt>
      <trkpt lat="42.7616600" lon="-0.2258590">
        <ele>1873.0</ele>
        <time>2020-09-13T13:58:01Z</time>
      </trkpt>
      <trkpt lat="42.7616540" lon="-0.2258650">
        <ele>1872.6</ele>
        <time>2020-09-13T13:58:02Z</time>
      </trkpt>
      <trkpt lat="42.7616210" lon="-0.2259170">
        <ele>1871.8</ele>
        <time>2020-09-13T13:58:08Z</time>
      </trkpt>
      <trkpt lat="42.7615730" lon="-0.2259760">
        <ele>1870.8</ele>
        <time>2020-09-13T13:58:15Z</time>
      </trkpt>
      <trkpt lat="42.7615680" lon="-0.2259880">
        <ele>1870.8</ele>
        <time>2020-09-13T13:58:16Z</time>
      </trkpt>
      <trkpt lat="42.7615180" lon="-0.2260320">
        <ele>1869.8</ele>
        <time>2020-09-13T13:58:21Z</time>
      </trkpt>
      <trkpt lat="42.7614780" lon="-0.2260830">
        <ele>1868.8</ele>
        <time>2020-09-13T13:58:26Z</time>
      </trkpt>
      <trkpt lat="42.7614770" lon="-0.2260960">
        <ele>1868.6</ele>
        <time>2020-09-13T13:58:27Z</time>
      </trkpt>
      <trkpt lat="42.7614520" lon="-0.2261300">
        <ele>1867.4</ele>
        <time>2020-09-13T13:58:31Z</time>
      </trkpt>
      <trkpt lat="42.7614020" lon="-0.2261540">
        <ele>1866.4</ele>
        <time>2020-09-13T13:58:37Z</time>
      </trkpt>
      <trkpt lat="42.7613720" lon="-0.2261570">
        <ele>1866.0</ele>
        <time>2020-09-13T13:58:40Z</time>
      </trkpt>
      <trkpt lat="42.7613570" lon="-0.2261760">
        <ele>1865.4</ele>
        <time>2020-09-13T13:58:43Z</time>
      </trkpt>
      <trkpt lat="42.7613530" lon="-0.2261810">
        <ele>1865.2</ele>
        <time>2020-09-13T13:58:44Z</time>
      </trkpt>
      <trkpt lat="42.7613850" lon="-0.2261830">
        <ele>1864.0</ele>
        <time>2020-09-13T13:58:48Z</time>
      </trkpt>
      <trkpt lat="42.7614270" lon="-0.2261720">
        <ele>1863.0</ele>
        <time>2020-09-13T13:58:52Z</time>
      </trkpt>
      <trkpt lat="42.7615180" lon="-0.2261810">
        <ele>1861.8</ele>
        <time>2020-09-13T13:58:59Z</time>
      </trkpt>
      <trkpt lat="42.7616370" lon="-0.2261610">
        <ele>1860.6</ele>
        <time>2020-09-13T13:59:10Z</time>
      </trkpt>
      <trkpt lat="42.7616810" lon="-0.2261460">
        <ele>1860.2</ele>
        <time>2020-09-13T13:59:14Z</time>
      </trkpt>
      <trkpt lat="42.7616860" lon="-0.2261530">
        <ele>1859.8</ele>
        <time>2020-09-13T13:59:17Z</time>
      </trkpt>
      <trkpt lat="42.7616750" lon="-0.2261690">
        <ele>1859.6</ele>
        <time>2020-09-13T13:59:20Z</time>
      </trkpt>
      <trkpt lat="42.7616350" lon="-0.2261690">
        <ele>1859.2</ele>
        <time>2020-09-13T13:59:23Z</time>
      </trkpt>
      <trkpt lat="42.7616310" lon="-0.2261750">
        <ele>1858.8</ele>
        <time>2020-09-13T13:59:25Z</time>
      </trkpt>
      <trkpt lat="42.7616420" lon="-0.2261880">
        <ele>1858.4</ele>
        <time>2020-09-13T13:59:27Z</time>
      </trkpt>
      <trkpt lat="42.7616700" lon="-0.2262030">
        <ele>1857.4</ele>
        <time>2020-09-13T13:59:31Z</time>
      </trkpt>
      <trkpt lat="42.7616850" lon="-0.2262280">
        <ele>1856.4</ele>
        <time>2020-09-13T13:59:35Z</time>
      </trkpt>
      <trkpt lat="42.7616650" lon="-0.2262580">
        <ele>1855.2</ele>
        <time>2020-09-13T13:59:40Z</time>
      </trkpt>
      <trkpt lat="42.7616450" lon="-0.2262860">
        <ele>1854.0</ele>
        <time>2020-09-13T13:59:45Z</time>
      </trkpt>
      <trkpt lat="42.7616610" lon="-0.2263090">
        <ele>1852.8</ele>
        <time>2020-09-13T13:59:49Z</time>
      </trkpt>
      <trkpt lat="42.7616390" lon="-0.2263520">
        <ele>1851.6</ele>
        <time>2020-09-13T13:59:54Z</time>
      </trkpt>
      <trkpt lat="42.7616170" lon="-0.2263830">
        <ele>1850.6</ele>
        <time>2020-09-13T13:59:59Z</time>
      </trkpt>
      <trkpt lat="42.7615820" lon="-0.2264460">
        <ele>1849.6</ele>
        <time>2020-09-13T14:00:09Z</time>
      </trkpt>
      <trkpt lat="42.7615450" lon="-0.2264380">
        <ele>1849.0</ele>
        <time>2020-09-13T14:00:11Z</time>
      </trkpt>
      <trkpt lat="42.7615120" lon="-0.2264480">
        <ele>1848.4</ele>
        <time>2020-09-13T14:00:13Z</time>
      </trkpt>
      <trkpt lat="42.7614880" lon="-0.2264880">
        <ele>1848.0</ele>
        <time>2020-09-13T14:00:15Z</time>
      </trkpt>
      <trkpt lat="42.7614250" lon="-0.2265280">
        <ele>1847.4</ele>
        <time>2020-09-13T14:00:19Z</time>
      </trkpt>
      <trkpt lat="42.7613520" lon="-0.2265810">
        <ele>1846.2</ele>
        <time>2020-09-13T14:00:25Z</time>
      </trkpt>
      <trkpt lat="42.7613120" lon="-0.2266360">
        <ele>1845.2</ele>
        <time>2020-09-13T14:00:29Z</time>
      </trkpt>
      <trkpt lat="42.7613050" lon="-0.2266520">
        <ele>1845.0</ele>
        <time>2020-09-13T14:00:30Z</time>
      </trkpt>
      <trkpt lat="42.7612970" lon="-0.2266730">
        <ele>1844.6</ele>
        <time>2020-09-13T14:00:32Z</time>
      </trkpt>
      <trkpt lat="42.7612790" lon="-0.2266730">
        <ele>1844.2</ele>
        <time>2020-09-13T14:00:34Z</time>
      </trkpt>
      <trkpt lat="42.7612710" lon="-0.2266760">
        <ele>1844.0</ele>
        <time>2020-09-13T14:00:35Z</time>
      </trkpt>
      <trkpt lat="42.7612520" lon="-0.2267030">
        <ele>1843.6</ele>
        <time>2020-09-13T14:00:37Z</time>
      </trkpt>
      <trkpt lat="42.7612440" lon="-0.2267420">
        <ele>1843.2</ele>
        <time>2020-09-13T14:00:39Z</time>
      </trkpt>
      <trkpt lat="42.7612390" lon="-0.2267540">
        <ele>1843.0</ele>
        <time>2020-09-13T14:00:40Z</time>
      </trkpt>
      <trkpt lat="42.7612330" lon="-0.2267680">
        <ele>1842.8</ele>
        <time>2020-09-13T14:00:41Z</time>
      </trkpt>
      <trkpt lat="42.7612340" lon="-0.2267950">
        <ele>1842.6</ele>
        <time>2020-09-13T14:00:43Z</time>
      </trkpt>
      <trkpt lat="42.7612570" lon="-0.2268030">
        <ele>1842.0</ele>
        <time>2020-09-13T14:00:45Z</time>
      </trkpt>
      <trkpt lat="42.7612660" lon="-0.2268010">
        <ele>1841.6</ele>
        <time>2020-09-13T14:00:46Z</time>
      </trkpt>
      <trkpt lat="42.7613120" lon="-0.2268090">
        <ele>1840.8</ele>
        <time>2020-09-13T14:00:50Z</time>
      </trkpt>
      <trkpt lat="42.7614790" lon="-0.2267670">
        <ele>1839.8</ele>
        <time>2020-09-13T14:01:03Z</time>
      </trkpt>
      <trkpt lat="42.7616350" lon="-0.2267280">
        <ele>1838.8</ele>
        <time>2020-09-13T14:01:14Z</time>
      </trkpt>
      <trkpt lat="42.7617160" lon="-0.2267210">
        <ele>1837.8</ele>
        <time>2020-09-13T14:01:20Z</time>
      </trkpt>
      <trkpt lat="42.7617650" lon="-0.2267290">
        <ele>1837.0</ele>
        <time>2020-09-13T14:01:25Z</time>
      </trkpt>
      <trkpt lat="42.7617920" lon="-0.2267170">
        <ele>1836.6</ele>
        <time>2020-09-13T14:01:27Z</time>
      </trkpt>
      <trkpt lat="42.7618160" lon="-0.2267110">
        <ele>1836.4</ele>
        <time>2020-09-13T14:01:29Z</time>
      </trkpt>
      <trkpt lat="42.7618850" lon="-0.2266930">
        <ele>1835.6</ele>
        <time>2020-09-13T14:01:35Z</time>
      </trkpt>
      <trkpt lat="42.7618940" lon="-0.2267160">
        <ele>1835.0</ele>
        <time>2020-09-13T14:01:37Z</time>
      </trkpt>
      <trkpt lat="42.7618890" lon="-0.2267340">
        <ele>1834.8</ele>
        <time>2020-09-13T14:01:39Z</time>
      </trkpt>
      <trkpt lat="42.7618820" lon="-0.2267520">
        <ele>1834.4</ele>
        <time>2020-09-13T14:01:41Z</time>
      </trkpt>
      <trkpt lat="42.7618530" lon="-0.2267690">
        <ele>1833.6</ele>
        <time>2020-09-13T14:01:44Z</time>
      </trkpt>
      <trkpt lat="42.7618430" lon="-0.2267850">
        <ele>1833.2</ele>
        <time>2020-09-13T14:01:46Z</time>
      </trkpt>
      <trkpt lat="42.7618290" lon="-0.2267870">
        <ele>1833.0</ele>
        <time>2020-09-13T14:01:47Z</time>
      </trkpt>
      <trkpt lat="42.7617870" lon="-0.2268170">
        <ele>1832.0</ele>
        <time>2020-09-13T14:01:53Z</time>
      </trkpt>
      <trkpt lat="42.7617750" lon="-0.2268220">
        <ele>1831.8</ele>
        <time>2020-09-13T14:01:54Z</time>
      </trkpt>
      <trkpt lat="42.7617450" lon="-0.2268480">
        <ele>1830.8</ele>
        <time>2020-09-13T14:01:58Z</time>
      </trkpt>
      <trkpt lat="42.7617270" lon="-0.2268530">
        <ele>1830.2</ele>
        <time>2020-09-13T14:02:00Z</time>
      </trkpt>
      <trkpt lat="42.7616930" lon="-0.2268880">
        <ele>1829.6</ele>
        <time>2020-09-13T14:02:03Z</time>
      </trkpt>
      <trkpt lat="42.7616810" lon="-0.2269010">
        <ele>1829.4</ele>
        <time>2020-09-13T14:02:04Z</time>
      </trkpt>
      <trkpt lat="42.7616620" lon="-0.2269290">
        <ele>1828.8</ele>
        <time>2020-09-13T14:02:06Z</time>
      </trkpt>
      <trkpt lat="42.7616580" lon="-0.2269470">
        <ele>1828.6</ele>
        <time>2020-09-13T14:02:07Z</time>
      </trkpt>
      <trkpt lat="42.7616220" lon="-0.2269860">
        <ele>1827.2</ele>
        <time>2020-09-13T14:02:11Z</time>
      </trkpt>
      <trkpt lat="42.7616120" lon="-0.2269960">
        <ele>1827.0</ele>
        <time>2020-09-13T14:02:12Z</time>
      </trkpt>
      <trkpt lat="42.7616030" lon="-0.2270150">
        <ele>1826.4</ele>
        <time>2020-09-13T14:02:14Z</time>
      </trkpt>
      <trkpt lat="42.7615980" lon="-0.2270240">
        <ele>1826.2</ele>
        <time>2020-09-13T14:02:15Z</time>
      </trkpt>
      <trkpt lat="42.7615500" lon="-0.2270670">
        <ele>1825.0</ele>
        <time>2020-09-13T14:02:20Z</time>
      </trkpt>
      <trkpt lat="42.7615180" lon="-0.2270870">
        <ele>1823.8</ele>
        <time>2020-09-13T14:02:24Z</time>
      </trkpt>
      <trkpt lat="42.7615060" lon="-0.2271020">
        <ele>1823.4</ele>
        <time>2020-09-13T14:02:26Z</time>
      </trkpt>
      <trkpt lat="42.7614830" lon="-0.2271140">
        <ele>1822.6</ele>
        <time>2020-09-13T14:02:29Z</time>
      </trkpt>
      <trkpt lat="42.7614570" lon="-0.2271510">
        <ele>1821.6</ele>
        <time>2020-09-13T14:02:33Z</time>
      </trkpt>
      <trkpt lat="42.7614050" lon="-0.2271690">
        <ele>1820.8</ele>
        <time>2020-09-13T14:02:38Z</time>
      </trkpt>
      <trkpt lat="42.7613870" lon="-0.2271880">
        <ele>1820.6</ele>
        <time>2020-09-13T14:02:40Z</time>
      </trkpt>
      <trkpt lat="42.7613110" lon="-0.2272190">
        <ele>1819.6</ele>
        <time>2020-09-13T14:02:45Z</time>
      </trkpt>
      <trkpt lat="42.7612710" lon="-0.2272330">
        <ele>1819.0</ele>
        <time>2020-09-13T14:02:48Z</time>
      </trkpt>
      <trkpt lat="42.7612420" lon="-0.2272480">
        <ele>1818.4</ele>
        <time>2020-09-13T14:02:50Z</time>
      </trkpt>
      <trkpt lat="42.7612010" lon="-0.2272670">
        <ele>1817.4</ele>
        <time>2020-09-13T14:02:53Z</time>
      </trkpt>
      <trkpt lat="42.7611670" lon="-0.2272930">
        <ele>1816.4</ele>
        <time>2020-09-13T14:02:57Z</time>
      </trkpt>
      <trkpt lat="42.7611560" lon="-0.2272990">
        <ele>1815.6</ele>
        <time>2020-09-13T14:02:59Z</time>
      </trkpt>
      <trkpt lat="42.7611420" lon="-0.2273120">
        <ele>1815.2</ele>
        <time>2020-09-13T14:03:01Z</time>
      </trkpt>
      <trkpt lat="42.7611350" lon="-0.2273230">
        <ele>1815.0</ele>
        <time>2020-09-13T14:03:02Z</time>
      </trkpt>
      <trkpt lat="42.7611070" lon="-0.2273700">
        <ele>1814.2</ele>
        <time>2020-09-13T14:03:06Z</time>
      </trkpt>
      <trkpt lat="42.7611060" lon="-0.2273750">
        <ele>1814.0</ele>
        <time>2020-09-13T14:03:07Z</time>
      </trkpt>
      <trkpt lat="42.7610630" lon="-0.2274190">
        <ele>1813.0</ele>
        <time>2020-09-13T14:03:11Z</time>
      </trkpt>
      <trkpt lat="42.7610430" lon="-0.2274520">
        <ele>1812.6</ele>
        <time>2020-09-13T14:03:13Z</time>
      </trkpt>
      <trkpt lat="42.7610180" lon="-0.2275150">
        <ele>1812.0</ele>
        <time>2020-09-13T14:03:16Z</time>
      </trkpt>
      <trkpt lat="42.7609680" lon="-0.2275580">
        <ele>1810.8</ele>
        <time>2020-09-13T14:03:21Z</time>
      </trkpt>
      <trkpt lat="42.7609540" lon="-0.2276060">
        <ele>1810.6</ele>
        <time>2020-09-13T14:03:23Z</time>
      </trkpt>
      <trkpt lat="42.7609300" lon="-0.2276570">
        <ele>1810.2</ele>
        <time>2020-09-13T14:03:26Z</time>
      </trkpt>
      <trkpt lat="42.7609160" lon="-0.2276770">
        <ele>1809.8</ele>
        <time>2020-09-13T14:03:28Z</time>
      </trkpt>
      <trkpt lat="42.7608720" lon="-0.2277300">
        <ele>1808.8</ele>
        <time>2020-09-13T14:03:33Z</time>
      </trkpt>
      <trkpt lat="42.7608650" lon="-0.2277470">
        <ele>1808.6</ele>
        <time>2020-09-13T14:03:34Z</time>
      </trkpt>
      <trkpt lat="42.7608250" lon="-0.2278050">
        <ele>1807.6</ele>
        <time>2020-09-13T14:03:38Z</time>
      </trkpt>
      <trkpt lat="42.7608030" lon="-0.2278330">
        <ele>1807.2</ele>
        <time>2020-09-13T14:03:40Z</time>
      </trkpt>
      <trkpt lat="42.7607690" lon="-0.2278790">
        <ele>1806.6</ele>
        <time>2020-09-13T14:03:43Z</time>
      </trkpt>
      <trkpt lat="42.7607570" lon="-0.2278910">
        <ele>1806.4</ele>
        <time>2020-09-13T14:03:44Z</time>
      </trkpt>
      <trkpt lat="42.7607900" lon="-0.2279140">
        <ele>1805.4</ele>
        <time>2020-09-13T14:03:49Z</time>
      </trkpt>
      <trkpt lat="42.7608300" lon="-0.2279200">
        <ele>1804.2</ele>
        <time>2020-09-13T14:03:53Z</time>
      </trkpt>
      <trkpt lat="42.7608830" lon="-0.2279200">
        <ele>1803.0</ele>
        <time>2020-09-13T14:03:58Z</time>
      </trkpt>
      <trkpt lat="42.7608890" lon="-0.2279170">
        <ele>1802.8</ele>
        <time>2020-09-13T14:03:59Z</time>
      </trkpt>
      <trkpt lat="42.7609350" lon="-0.2279060">
        <ele>1802.0</ele>
        <time>2020-09-13T14:04:04Z</time>
      </trkpt>
      <trkpt lat="42.7609480" lon="-0.2279000">
        <ele>1801.6</ele>
        <time>2020-09-13T14:04:06Z</time>
      </trkpt>
      <trkpt lat="42.7609580" lon="-0.2278930">
        <ele>1801.2</ele>
        <time>2020-09-13T14:04:08Z</time>
      </trkpt>
      <trkpt lat="42.7609740" lon="-0.2278810">
        <ele>1800.8</ele>
        <time>2020-09-13T14:04:10Z</time>
      </trkpt>
      <trkpt lat="42.7609810" lon="-0.2278860">
        <ele>1800.2</ele>
        <time>2020-09-13T14:04:13Z</time>
      </trkpt>
      <trkpt lat="42.7609800" lon="-0.2279190">
        <ele>1800.2</ele>
        <time>2020-09-13T14:04:15Z</time>
      </trkpt>
      <trkpt lat="42.7609890" lon="-0.2279850">
        <ele>1799.6</ele>
        <time>2020-09-13T14:04:24Z</time>
      </trkpt>
      <trkpt lat="42.7609770" lon="-0.2279940">
        <ele>1798.6</ele>
        <time>2020-09-13T14:04:28Z</time>
      </trkpt>
      <trkpt lat="42.7609660" lon="-0.2280060">
        <ele>1797.4</ele>
        <time>2020-09-13T14:04:32Z</time>
      </trkpt>
      <trkpt lat="42.7609700" lon="-0.2280250">
        <ele>1796.2</ele>
        <time>2020-09-13T14:04:37Z</time>
      </trkpt>
      <trkpt lat="42.7609950" lon="-0.2280310">
        <ele>1795.2</ele>
        <time>2020-09-13T14:04:41Z</time>
      </trkpt>
      <trkpt lat="42.7610250" lon="-0.2280150">
        <ele>1794.2</ele>
        <time>2020-09-13T14:04:48Z</time>
      </trkpt>
      <trkpt lat="42.7610370" lon="-0.2280260">
        <ele>1793.0</ele>
        <time>2020-09-13T14:04:52Z</time>
      </trkpt>
      <trkpt lat="42.7610470" lon="-0.2280340">
        <ele>1791.8</ele>
        <time>2020-09-13T14:04:56Z</time>
      </trkpt>
      <trkpt lat="42.7610470" lon="-0.2280530">
        <ele>1790.8</ele>
        <time>2020-09-13T14:04:59Z</time>
      </trkpt>
      <trkpt lat="42.7610570" lon="-0.2280800">
        <ele>1789.8</ele>
        <time>2020-09-13T14:05:03Z</time>
      </trkpt>
      <trkpt lat="42.7610570" lon="-0.2281120">
        <ele>1788.4</ele>
        <time>2020-09-13T14:05:07Z</time>
      </trkpt>
      <trkpt lat="42.7610480" lon="-0.2281340">
        <ele>1787.4</ele>
        <time>2020-09-13T14:05:10Z</time>
      </trkpt>
      <trkpt lat="42.7610090" lon="-0.2282120">
        <ele>1786.2</ele>
        <time>2020-09-13T14:05:20Z</time>
      </trkpt>
      <trkpt lat="42.7609880" lon="-0.2282490">
        <ele>1785.2</ele>
        <time>2020-09-13T14:05:26Z</time>
      </trkpt>
      <trkpt lat="42.7609810" lon="-0.2282920">
        <ele>1784.2</ele>
        <time>2020-09-13T14:05:33Z</time>
      </trkpt>
      <trkpt lat="42.7609820" lon="-0.2283850">
        <ele>1783.2</ele>
        <time>2020-09-13T14:05:41Z</time>
      </trkpt>
      <trkpt lat="42.7609150" lon="-0.2284310">
        <ele>1782.4</ele>
        <time>2020-09-13T14:05:47Z</time>
      </trkpt>
      <trkpt lat="42.7609000" lon="-0.2284390">
        <ele>1782.0</ele>
        <time>2020-09-13T14:05:49Z</time>
      </trkpt>
      <trkpt lat="42.7608680" lon="-0.2284920">
        <ele>1781.4</ele>
        <time>2020-09-13T14:05:56Z</time>
      </trkpt>
      <trkpt lat="42.7608790" lon="-0.2285240">
        <ele>1781.0</ele>
        <time>2020-09-13T14:06:00Z</time>
      </trkpt>
      <trkpt lat="42.7609020" lon="-0.2285530">
        <ele>1779.8</ele>
        <time>2020-09-13T14:06:03Z</time>
      </trkpt>
      <trkpt lat="42.7609040" lon="-0.2285560">
        <ele>1778.8</ele>
        <time>2020-09-13T14:06:05Z</time>
      </trkpt>
      <trkpt lat="42.7609230" lon="-0.2285650">
        <ele>1777.8</ele>
        <time>2020-09-13T14:06:11Z</time>
      </trkpt>
      <trkpt lat="42.7611160" lon="-0.2286170">
        <ele>1777.0</ele>
        <time>2020-09-13T14:06:56Z</time>
      </trkpt>
      <trkpt lat="42.7611400" lon="-0.2286240">
        <ele>1776.8</ele>
        <time>2020-09-13T14:06:58Z</time>
      </trkpt>
      <trkpt lat="42.7611600" lon="-0.2286210">
        <ele>1776.0</ele>
        <time>2020-09-13T14:07:01Z</time>
      </trkpt>
      <trkpt lat="42.7611770" lon="-0.2286160">
        <ele>1775.8</ele>
        <time>2020-09-13T14:07:03Z</time>
      </trkpt>
      <trkpt lat="42.7612020" lon="-0.2286120">
        <ele>1775.0</ele>
        <time>2020-09-13T14:07:06Z</time>
      </trkpt>
      <trkpt lat="42.7612080" lon="-0.2286120">
        <ele>1774.6</ele>
        <time>2020-09-13T14:07:07Z</time>
      </trkpt>
      <trkpt lat="42.7612120" lon="-0.2286190">
        <ele>1774.2</ele>
        <time>2020-09-13T14:07:09Z</time>
      </trkpt>
      <trkpt lat="42.7611950" lon="-0.2286250">
        <ele>1773.4</ele>
        <time>2020-09-13T14:07:13Z</time>
      </trkpt>
      <trkpt lat="42.7612140" lon="-0.2286170">
        <ele>1772.4</ele>
        <time>2020-09-13T14:07:22Z</time>
      </trkpt>
      <trkpt lat="42.7612160" lon="-0.2286630">
        <ele>1771.2</ele>
        <time>2020-09-13T14:07:29Z</time>
      </trkpt>
      <trkpt lat="42.7612200" lon="-0.2287030">
        <ele>1770.0</ele>
        <time>2020-09-13T14:07:32Z</time>
      </trkpt>
      <trkpt lat="42.7612450" lon="-0.2287270">
        <ele>1769.2</ele>
        <time>2020-09-13T14:07:34Z</time>
      </trkpt>
      <trkpt lat="42.7612530" lon="-0.2287270">
        <ele>1768.8</ele>
        <time>2020-09-13T14:07:35Z</time>
      </trkpt>
      <trkpt lat="42.7612630" lon="-0.2287210">
        <ele>1768.4</ele>
        <time>2020-09-13T14:07:37Z</time>
      </trkpt>
      <trkpt lat="42.7612830" lon="-0.2287130">
        <ele>1767.8</ele>
        <time>2020-09-13T14:07:39Z</time>
      </trkpt>
      <trkpt lat="42.7612930" lon="-0.2287020">
        <ele>1767.6</ele>
        <time>2020-09-13T14:07:41Z</time>
      </trkpt>
      <trkpt lat="42.7612990" lon="-0.2286980">
        <ele>1767.4</ele>
        <time>2020-09-13T14:07:42Z</time>
      </trkpt>
      <trkpt lat="42.7613350" lon="-0.2286880">
        <ele>1766.8</ele>
        <time>2020-09-13T14:07:46Z</time>
      </trkpt>
      <trkpt lat="42.7613800" lon="-0.2286660">
        <ele>1765.6</ele>
        <time>2020-09-13T14:07:52Z</time>
      </trkpt>
      <trkpt lat="42.7614070" lon="-0.2286940">
        <ele>1764.6</ele>
        <time>2020-09-13T14:07:56Z</time>
      </trkpt>
      <trkpt lat="42.7614180" lon="-0.2287170">
        <ele>1763.6</ele>
        <time>2020-09-13T14:08:01Z</time>
      </trkpt>
      <trkpt lat="42.7614180" lon="-0.2287150">
        <ele>1763.4</ele>
        <time>2020-09-13T14:08:02Z</time>
      </trkpt>
      <trkpt lat="42.7614420" lon="-0.2285950">
        <ele>1762.6</ele>
        <time>2020-09-13T14:08:20Z</time>
      </trkpt>
      <trkpt lat="42.7614860" lon="-0.2285630">
        <ele>1761.6</ele>
        <time>2020-09-13T14:08:25Z</time>
      </trkpt>
      <trkpt lat="42.7615060" lon="-0.2285680">
        <ele>1761.2</ele>
        <time>2020-09-13T14:08:27Z</time>
      </trkpt>
      <trkpt lat="42.7615170" lon="-0.2285680">
        <ele>1760.2</ele>
        <time>2020-09-13T14:08:29Z</time>
      </trkpt>
      <trkpt lat="42.7615300" lon="-0.2285710">
        <ele>1760.0</ele>
        <time>2020-09-13T14:08:30Z</time>
      </trkpt>
      <trkpt lat="42.7615410" lon="-0.2285610">
        <ele>1758.8</ele>
        <time>2020-09-13T14:08:34Z</time>
      </trkpt>
      <trkpt lat="42.7615690" lon="-0.2285540">
        <ele>1757.6</ele>
        <time>2020-09-13T14:08:38Z</time>
      </trkpt>
      <trkpt lat="42.7615870" lon="-0.2285290">
        <ele>1756.6</ele>
        <time>2020-09-13T14:08:43Z</time>
      </trkpt>
      <trkpt lat="42.7616210" lon="-0.2285200">
        <ele>1756.0</ele>
        <time>2020-09-13T14:08:45Z</time>
      </trkpt>
      <trkpt lat="42.7616390" lon="-0.2285220">
        <ele>1755.4</ele>
        <time>2020-09-13T14:08:47Z</time>
      </trkpt>
      <trkpt lat="42.7616850" lon="-0.2285050">
        <ele>1754.6</ele>
        <time>2020-09-13T14:08:51Z</time>
      </trkpt>
      <trkpt lat="42.7617020" lon="-0.2285020">
        <ele>1754.2</ele>
        <time>2020-09-13T14:08:52Z</time>
      </trkpt>
      <trkpt lat="42.7617520" lon="-0.2285270">
        <ele>1753.2</ele>
        <time>2020-09-13T14:08:57Z</time>
      </trkpt>
      <trkpt lat="42.7617220" lon="-0.2285980">
        <ele>1751.8</ele>
        <time>2020-09-13T14:09:04Z</time>
      </trkpt>
      <trkpt lat="42.7616990" lon="-0.2286070">
        <ele>1750.8</ele>
        <time>2020-09-13T14:09:08Z</time>
      </trkpt>
      <trkpt lat="42.7616680" lon="-0.2286350">
        <ele>1749.4</ele>
        <time>2020-09-13T14:09:12Z</time>
      </trkpt>
      <trkpt lat="42.7616510" lon="-0.2286650">
        <ele>1748.8</ele>
        <time>2020-09-13T14:09:15Z</time>
      </trkpt>
      <trkpt lat="42.7616570" lon="-0.2286760">
        <ele>1748.4</ele>
        <time>2020-09-13T14:09:18Z</time>
      </trkpt>
      <trkpt lat="42.7616610" lon="-0.2286870">
        <ele>1748.2</ele>
        <time>2020-09-13T14:09:19Z</time>
      </trkpt>
      <trkpt lat="42.7616710" lon="-0.2287260">
        <ele>1747.8</ele>
        <time>2020-09-13T14:09:22Z</time>
      </trkpt>
      <trkpt lat="42.7616860" lon="-0.2287590">
        <ele>1747.0</ele>
        <time>2020-09-13T14:09:24Z</time>
      </trkpt>
      <trkpt lat="42.7617040" lon="-0.2287830">
        <ele>1746.0</ele>
        <time>2020-09-13T14:09:26Z</time>
      </trkpt>
      <trkpt lat="42.7617310" lon="-0.2288230">
        <ele>1745.0</ele>
        <time>2020-09-13T14:09:29Z</time>
      </trkpt>
      <trkpt lat="42.7617310" lon="-0.2288320">
        <ele>1744.6</ele>
        <time>2020-09-13T14:09:30Z</time>
      </trkpt>
      <trkpt lat="42.7617200" lon="-0.2288600">
        <ele>1744.0</ele>
        <time>2020-09-13T14:09:32Z</time>
      </trkpt>
      <trkpt lat="42.7617210" lon="-0.2288990">
        <ele>1743.0</ele>
        <time>2020-09-13T14:09:35Z</time>
      </trkpt>
      <trkpt lat="42.7617250" lon="-0.2289090">
        <ele>1742.8</ele>
        <time>2020-09-13T14:09:36Z</time>
      </trkpt>
      <trkpt lat="42.7617440" lon="-0.2289350">
        <ele>1741.4</ele>
        <time>2020-09-13T14:09:39Z</time>
      </trkpt>
      <trkpt lat="42.7617540" lon="-0.2289740">
        <ele>1740.6</ele>
        <time>2020-09-13T14:09:42Z</time>
      </trkpt>
      <trkpt lat="42.7617540" lon="-0.2289910">
        <ele>1740.2</ele>
        <time>2020-09-13T14:09:43Z</time>
      </trkpt>
      <trkpt lat="42.7617560" lon="-0.2290410">
        <ele>1739.0</ele>
        <time>2020-09-13T14:09:48Z</time>
      </trkpt>
      <trkpt lat="42.7617600" lon="-0.2290590">
        <ele>1738.4</ele>
        <time>2020-09-13T14:09:50Z</time>
      </trkpt>
      <trkpt lat="42.7617540" lon="-0.2290710">
        <ele>1738.0</ele>
        <time>2020-09-13T14:09:51Z</time>
      </trkpt>
      <trkpt lat="42.7617290" lon="-0.2291010">
        <ele>1736.8</ele>
        <time>2020-09-13T14:09:54Z</time>
      </trkpt>
      <trkpt lat="42.7617020" lon="-0.2291640">
        <ele>1735.2</ele>
        <time>2020-09-13T14:09:59Z</time>
      </trkpt>
      <trkpt lat="42.7616790" lon="-0.2292070">
        <ele>1733.8</ele>
        <time>2020-09-13T14:10:02Z</time>
      </trkpt>
      <trkpt lat="42.7616750" lon="-0.2292390">
        <ele>1733.0</ele>
        <time>2020-09-13T14:10:04Z</time>
      </trkpt>
      <trkpt lat="42.7616610" lon="-0.2292460">
        <ele>1732.6</ele>
        <time>2020-09-13T14:10:05Z</time>
      </trkpt>
      <trkpt lat="42.7616200" lon="-0.2292670">
        <ele>1731.4</ele>
        <time>2020-09-13T14:10:08Z</time>
      </trkpt>
      <trkpt lat="42.7616130" lon="-0.2292790">
        <ele>1731.0</ele>
        <time>2020-09-13T14:10:09Z</time>
      </trkpt>
      <trkpt lat="42.7616110" lon="-0.2293060">
        <ele>1730.4</ele>
        <time>2020-09-13T14:10:11Z</time>
      </trkpt>
      <trkpt lat="42.7616000" lon="-0.2293500">
        <ele>1729.2</ele>
        <time>2020-09-13T14:10:14Z</time>
      </trkpt>
      <trkpt lat="42.7615950" lon="-0.2293620">
        <ele>1728.8</ele>
        <time>2020-09-13T14:10:15Z</time>
      </trkpt>
      <trkpt lat="42.7615950" lon="-0.2294260">
        <ele>1728.0</ele>
        <time>2020-09-13T14:10:19Z</time>
      </trkpt>
      <trkpt lat="42.7615990" lon="-0.2294660">
        <ele>1727.0</ele>
        <time>2020-09-13T14:10:22Z</time>
      </trkpt>
      <trkpt lat="42.7615860" lon="-0.2294920">
        <ele>1726.2</ele>
        <time>2020-09-13T14:10:24Z</time>
      </trkpt>
      <trkpt lat="42.7615670" lon="-0.2295130">
        <ele>1725.8</ele>
        <time>2020-09-13T14:10:26Z</time>
      </trkpt>
      <trkpt lat="42.7615540" lon="-0.2295370">
        <ele>1725.4</ele>
        <time>2020-09-13T14:10:28Z</time>
      </trkpt>
      <trkpt lat="42.7615850" lon="-0.2295270">
        <ele>1724.4</ele>
        <time>2020-09-13T14:10:32Z</time>
      </trkpt>
      <trkpt lat="42.7616610" lon="-0.2295110">
        <ele>1723.4</ele>
        <time>2020-09-13T14:10:38Z</time>
      </trkpt>
      <trkpt lat="42.7617100" lon="-0.2295100">
        <ele>1722.2</ele>
        <time>2020-09-13T14:10:42Z</time>
      </trkpt>
      <trkpt lat="42.7617390" lon="-0.2295040">
        <ele>1721.8</ele>
        <time>2020-09-13T14:10:45Z</time>
      </trkpt>
      <trkpt lat="42.7617600" lon="-0.2295140">
        <ele>1721.2</ele>
        <time>2020-09-13T14:10:47Z</time>
      </trkpt>
      <trkpt lat="42.7617680" lon="-0.2295180">
        <ele>1720.8</ele>
        <time>2020-09-13T14:10:48Z</time>
      </trkpt>
      <trkpt lat="42.7617950" lon="-0.2295180">
        <ele>1719.8</ele>
        <time>2020-09-13T14:10:51Z</time>
      </trkpt>
      <trkpt lat="42.7617990" lon="-0.2295150">
        <ele>1719.6</ele>
        <time>2020-09-13T14:10:52Z</time>
      </trkpt>
      <trkpt lat="42.7618160" lon="-0.2295140">
        <ele>1718.8</ele>
        <time>2020-09-13T14:10:55Z</time>
      </trkpt>
      <trkpt lat="42.7618220" lon="-0.2295150">
        <ele>1718.4</ele>
        <time>2020-09-13T14:10:56Z</time>
      </trkpt>
      <trkpt lat="42.7618480" lon="-0.2294890">
        <ele>1717.4</ele>
        <time>2020-09-13T14:11:02Z</time>
      </trkpt>
      <trkpt lat="42.7618990" lon="-0.2294580">
        <ele>1716.8</ele>
        <time>2020-09-13T14:11:06Z</time>
      </trkpt>
      <trkpt lat="42.7619510" lon="-0.2294780">
        <ele>1716.4</ele>
        <time>2020-09-13T14:11:09Z</time>
      </trkpt>
      <trkpt lat="42.7619850" lon="-0.2294920">
        <ele>1716.2</ele>
        <time>2020-09-13T14:11:11Z</time>
      </trkpt>
      <trkpt lat="42.7620290" lon="-0.2294970">
        <ele>1716.0</ele>
        <time>2020-09-13T14:11:14Z</time>
      </trkpt>
      <trkpt lat="42.7620650" lon="-0.2295150">
        <ele>1716.0</ele>
        <time>2020-09-13T14:11:16Z</time>
      </trkpt>
      <trkpt lat="42.7620950" lon="-0.2295260">
        <ele>1716.0</ele>
        <time>2020-09-13T14:11:18Z</time>
      </trkpt>
      <trkpt lat="42.7621130" lon="-0.2295170">
        <ele>1716.0</ele>
        <time>2020-09-13T14:11:21Z</time>
      </trkpt>
      <trkpt lat="42.7621530" lon="-0.2295160">
        <ele>1715.6</ele>
        <time>2020-09-13T14:11:25Z</time>
      </trkpt>
      <trkpt lat="42.7621660" lon="-0.2295170">
        <ele>1715.2</ele>
        <time>2020-09-13T14:11:27Z</time>
      </trkpt>
      <trkpt lat="42.7621920" lon="-0.2295280">
        <ele>1714.8</ele>
        <time>2020-09-13T14:11:30Z</time>
      </trkpt>
      <trkpt lat="42.7622170" lon="-0.2295480">
        <ele>1714.2</ele>
        <time>2020-09-13T14:11:33Z</time>
      </trkpt>
      <trkpt lat="42.7622110" lon="-0.2295540">
        <ele>1713.8</ele>
        <time>2020-09-13T14:11:35Z</time>
      </trkpt>
      <trkpt lat="42.7621910" lon="-0.2295750">
        <ele>1713.0</ele>
        <time>2020-09-13T14:11:39Z</time>
      </trkpt>
      <trkpt lat="42.7621410" lon="-0.2295840">
        <ele>1712.4</ele>
        <time>2020-09-13T14:11:42Z</time>
      </trkpt>
      <trkpt lat="42.7621230" lon="-0.2296240">
        <ele>1712.0</ele>
        <time>2020-09-13T14:11:45Z</time>
      </trkpt>
      <trkpt lat="42.7621510" lon="-0.2296640">
        <ele>1711.2</ele>
        <time>2020-09-13T14:11:48Z</time>
      </trkpt>
      <trkpt lat="42.7621540" lon="-0.2296660">
        <ele>1710.8</ele>
        <time>2020-09-13T14:11:49Z</time>
      </trkpt>
      <trkpt lat="42.7621610" lon="-0.2296890">
        <ele>1710.2</ele>
        <time>2020-09-13T14:11:52Z</time>
      </trkpt>
      <trkpt lat="42.7621600" lon="-0.2296990">
        <ele>1710.2</ele>
        <time>2020-09-13T14:11:53Z</time>
      </trkpt>
      <trkpt lat="42.7621570" lon="-0.2297150">
        <ele>1709.6</ele>
        <time>2020-09-13T14:11:55Z</time>
      </trkpt>
      <trkpt lat="42.7621620" lon="-0.2297290">
        <ele>1709.2</ele>
        <time>2020-09-13T14:11:56Z</time>
      </trkpt>
      <trkpt lat="42.7621940" lon="-0.2297580">
        <ele>1708.4</ele>
        <time>2020-09-13T14:11:59Z</time>
      </trkpt>
      <trkpt lat="42.7622410" lon="-0.2297510">
        <ele>1707.6</ele>
        <time>2020-09-13T14:12:02Z</time>
      </trkpt>
      <trkpt lat="42.7622520" lon="-0.2297410">
        <ele>1707.4</ele>
        <time>2020-09-13T14:12:03Z</time>
      </trkpt>
      <trkpt lat="42.7623330" lon="-0.2297330">
        <ele>1706.2</ele>
        <time>2020-09-13T14:12:09Z</time>
      </trkpt>
      <trkpt lat="42.7623590" lon="-0.2297680">
        <ele>1705.2</ele>
        <time>2020-09-13T14:12:13Z</time>
      </trkpt>
      <trkpt lat="42.7623560" lon="-0.2297770">
        <ele>1705.0</ele>
        <time>2020-09-13T14:12:14Z</time>
      </trkpt>
      <trkpt lat="42.7623480" lon="-0.2297850">
        <ele>1705.0</ele>
        <time>2020-09-13T14:12:15Z</time>
      </trkpt>
      <trkpt lat="42.7623050" lon="-0.2297760">
        <ele>1704.6</ele>
        <time>2020-09-13T14:12:20Z</time>
      </trkpt>
      <trkpt lat="42.7622890" lon="-0.2297830">
        <ele>1704.0</ele>
        <time>2020-09-13T14:12:22Z</time>
      </trkpt>
      <trkpt lat="42.7622800" lon="-0.2297900">
        <ele>1703.8</ele>
        <time>2020-09-13T14:12:23Z</time>
      </trkpt>
      <trkpt lat="42.7622550" lon="-0.2298240">
        <ele>1703.8</ele>
        <time>2020-09-13T14:12:26Z</time>
      </trkpt>
      <trkpt lat="42.7621830" lon="-0.2298760">
        <ele>1702.8</ele>
        <time>2020-09-13T14:12:32Z</time>
      </trkpt>
      <trkpt lat="42.7621690" lon="-0.2299210">
        <ele>1701.8</ele>
        <time>2020-09-13T14:12:35Z</time>
      </trkpt>
      <trkpt lat="42.7621590" lon="-0.2299230">
        <ele>1701.6</ele>
        <time>2020-09-13T14:12:36Z</time>
      </trkpt>
      <trkpt lat="42.7621580" lon="-0.2299320">
        <ele>1701.2</ele>
        <time>2020-09-13T14:12:37Z</time>
      </trkpt>
      <trkpt lat="42.7621340" lon="-0.2299540">
        <ele>1700.4</ele>
        <time>2020-09-13T14:12:40Z</time>
      </trkpt>
      <trkpt lat="42.7621140" lon="-0.2299680">
        <ele>1699.4</ele>
        <time>2020-09-13T14:12:43Z</time>
      </trkpt>
      <trkpt lat="42.7621060" lon="-0.2299700">
        <ele>1699.2</ele>
        <time>2020-09-13T14:12:44Z</time>
      </trkpt>
      <trkpt lat="42.7620770" lon="-0.2299890">
        <ele>1698.8</ele>
        <time>2020-09-13T14:12:48Z</time>
      </trkpt>
      <trkpt lat="42.7620550" lon="-0.2300080">
        <ele>1698.6</ele>
        <time>2020-09-13T14:12:51Z</time>
      </trkpt>
      <trkpt lat="42.7620410" lon="-0.2300090">
        <ele>1698.4</ele>
        <time>2020-09-13T14:12:53Z</time>
      </trkpt>
      <trkpt lat="42.7620320" lon="-0.2300340">
        <ele>1698.2</ele>
        <time>2020-09-13T14:12:55Z</time>
      </trkpt>
      <trkpt lat="42.7620110" lon="-0.2300390">
        <ele>1697.6</ele>
        <time>2020-09-13T14:12:57Z</time>
      </trkpt>
      <trkpt lat="42.7619920" lon="-0.2300510">
        <ele>1697.0</ele>
        <time>2020-09-13T14:13:00Z</time>
      </trkpt>
      <trkpt lat="42.7619640" lon="-0.2301040">
        <ele>1696.4</ele>
        <time>2020-09-13T14:13:05Z</time>
      </trkpt>
      <trkpt lat="42.7619400" lon="-0.2301310">
        <ele>1696.0</ele>
        <time>2020-09-13T14:13:08Z</time>
      </trkpt>
      <trkpt lat="42.7618780" lon="-0.2301680">
        <ele>1695.2</ele>
        <time>2020-09-13T14:13:12Z</time>
      </trkpt>
      <trkpt lat="42.7618640" lon="-0.2301870">
        <ele>1695.0</ele>
        <time>2020-09-13T14:13:14Z</time>
      </trkpt>
      <trkpt lat="42.7618600" lon="-0.2302000">
        <ele>1694.8</ele>
        <time>2020-09-13T14:13:15Z</time>
      </trkpt>
      <trkpt lat="42.7618610" lon="-0.2302150">
        <ele>1694.4</ele>
        <time>2020-09-13T14:13:16Z</time>
      </trkpt>
      <trkpt lat="42.7618690" lon="-0.2302710">
        <ele>1693.6</ele>
        <time>2020-09-13T14:13:19Z</time>
      </trkpt>
      <trkpt lat="42.7618690" lon="-0.2302970">
        <ele>1693.2</ele>
        <time>2020-09-13T14:13:21Z</time>
      </trkpt>
      <trkpt lat="42.7618500" lon="-0.2303120">
        <ele>1693.0</ele>
        <time>2020-09-13T14:13:23Z</time>
      </trkpt>
      <trkpt lat="42.7618370" lon="-0.2303420">
        <ele>1692.6</ele>
        <time>2020-09-13T14:13:26Z</time>
      </trkpt>
      <trkpt lat="42.7618060" lon="-0.2304060">
        <ele>1691.4</ele>
        <time>2020-09-13T14:13:34Z</time>
      </trkpt>
      <trkpt lat="42.7618040" lon="-0.2304780">
        <ele>1690.4</ele>
        <time>2020-09-13T14:13:38Z</time>
      </trkpt>
      <trkpt lat="42.7618020" lon="-0.2304920">
        <ele>1690.2</ele>
        <time>2020-09-13T14:13:39Z</time>
      </trkpt>
      <trkpt lat="42.7618030" lon="-0.2305020">
        <ele>1690.0</ele>
        <time>2020-09-13T14:13:40Z</time>
      </trkpt>
      <trkpt lat="42.7618090" lon="-0.2305300">
        <ele>1689.6</ele>
        <time>2020-09-13T14:13:42Z</time>
      </trkpt>
      <trkpt lat="42.7617550" lon="-0.2305430">
        <ele>1690.0</ele>
        <time>2020-09-13T14:13:49Z</time>
      </trkpt>
      <trkpt lat="42.7617460" lon="-0.2305530">
        <ele>1690.0</ele>
        <time>2020-09-13T14:13:50Z</time>
      </trkpt>
      <trkpt lat="42.7616490" lon="-0.2305990">
        <ele>1689.6</ele>
        <time>2020-09-13T14:13:58Z</time>
      </trkpt>
      <trkpt lat="42.7616170" lon="-0.2306170">
        <ele>1689.6</ele>
        <time>2020-09-13T14:14:00Z</time>
      </trkpt>
      <trkpt lat="42.7615700" lon="-0.2306630">
        <ele>1689.6</ele>
        <time>2020-09-13T14:14:03Z</time>
      </trkpt>
      <trkpt lat="42.7615500" lon="-0.2306800">
        <ele>1689.4</ele>
        <time>2020-09-13T14:14:05Z</time>
      </trkpt>
      <trkpt lat="42.7615350" lon="-0.2306970">
        <ele>1689.2</ele>
        <time>2020-09-13T14:14:07Z</time>
      </trkpt>
      <trkpt lat="42.7615040" lon="-0.2307450">
        <ele>1688.8</ele>
        <time>2020-09-13T14:14:11Z</time>
      </trkpt>
      <trkpt lat="42.7614900" lon="-0.2307650">
        <ele>1688.2</ele>
        <time>2020-09-13T14:14:13Z</time>
      </trkpt>
      <trkpt lat="42.7614830" lon="-0.2307750">
        <ele>1688.0</ele>
        <time>2020-09-13T14:14:14Z</time>
      </trkpt>
      <trkpt lat="42.7614470" lon="-0.2308120">
        <ele>1686.8</ele>
        <time>2020-09-13T14:14:18Z</time>
      </trkpt>
      <trkpt lat="42.7614300" lon="-0.2308300">
        <ele>1686.4</ele>
        <time>2020-09-13T14:14:20Z</time>
      </trkpt>
      <trkpt lat="42.7614090" lon="-0.2308790">
        <ele>1686.4</ele>
        <time>2020-09-13T14:14:22Z</time>
      </trkpt>
      <trkpt lat="42.7613850" lon="-0.2308910">
        <ele>1686.4</ele>
        <time>2020-09-13T14:14:24Z</time>
      </trkpt>
      <trkpt lat="42.7613140" lon="-0.2309690">
        <ele>1686.0</ele>
        <time>2020-09-13T14:14:29Z</time>
      </trkpt>
      <trkpt lat="42.7612850" lon="-0.2309970">
        <ele>1685.6</ele>
        <time>2020-09-13T14:14:31Z</time>
      </trkpt>
      <trkpt lat="42.7612120" lon="-0.2310840">
        <ele>1685.0</ele>
        <time>2020-09-13T14:14:36Z</time>
      </trkpt>
      <trkpt lat="42.7611680" lon="-0.2311630">
        <ele>1684.4</ele>
        <time>2020-09-13T14:14:41Z</time>
      </trkpt>
      <trkpt lat="42.7611360" lon="-0.2312230">
        <ele>1683.4</ele>
        <time>2020-09-13T14:14:45Z</time>
      </trkpt>
      <trkpt lat="42.7611270" lon="-0.2312600">
        <ele>1683.0</ele>
        <time>2020-09-13T14:14:48Z</time>
      </trkpt>
      <trkpt lat="42.7611110" lon="-0.2312980">
        <ele>1683.0</ele>
        <time>2020-09-13T14:14:51Z</time>
      </trkpt>
      <trkpt lat="42.7610780" lon="-0.2313530">
        <ele>1682.6</ele>
        <time>2020-09-13T14:14:56Z</time>
      </trkpt>
      <trkpt lat="42.7610650" lon="-0.2313740">
        <ele>1682.4</ele>
        <time>2020-09-13T14:14:58Z</time>
      </trkpt>
      <trkpt lat="42.7610540" lon="-0.2313830">
        <ele>1682.4</ele>
        <time>2020-09-13T14:15:00Z</time>
      </trkpt>
      <trkpt lat="42.7610520" lon="-0.2313850">
        <ele>1682.2</ele>
        <time>2020-09-13T14:15:01Z</time>
      </trkpt>
      <trkpt lat="42.7610350" lon="-0.2313680">
        <ele>1682.0</ele>
        <time>2020-09-13T14:15:03Z</time>
      </trkpt>
      <trkpt lat="42.7609730" lon="-0.2313410">
        <ele>1681.2</ele>
        <time>2020-09-13T14:15:07Z</time>
      </trkpt>
      <trkpt lat="42.7609580" lon="-0.2313400">
        <ele>1680.6</ele>
        <time>2020-09-13T14:15:09Z</time>
      </trkpt>
      <trkpt lat="42.7609490" lon="-0.2313410">
        <ele>1680.2</ele>
        <time>2020-09-13T14:15:11Z</time>
      </trkpt>
      <trkpt lat="42.7609420" lon="-0.2313450">
        <ele>1680.2</ele>
        <time>2020-09-13T14:15:12Z</time>
      </trkpt>
      <trkpt lat="42.7609090" lon="-0.2313670">
        <ele>1679.8</ele>
        <time>2020-09-13T14:15:15Z</time>
      </trkpt>
      <trkpt lat="42.7609060" lon="-0.2313940">
        <ele>1679.0</ele>
        <time>2020-09-13T14:15:17Z</time>
      </trkpt>
      <trkpt lat="42.7608850" lon="-0.2314120">
        <ele>1678.4</ele>
        <time>2020-09-13T14:15:20Z</time>
      </trkpt>
      <trkpt lat="42.7608620" lon="-0.2314140">
        <ele>1678.0</ele>
        <time>2020-09-13T14:15:22Z</time>
      </trkpt>
      <trkpt lat="42.7608210" lon="-0.2314170">
        <ele>1677.6</ele>
        <time>2020-09-13T14:15:26Z</time>
      </trkpt>
      <trkpt lat="42.7607490" lon="-0.2314690">
        <ele>1677.4</ele>
        <time>2020-09-13T14:15:32Z</time>
      </trkpt>
      <trkpt lat="42.7607290" lon="-0.2314860">
        <ele>1677.2</ele>
        <time>2020-09-13T14:15:34Z</time>
      </trkpt>
      <trkpt lat="42.7607240" lon="-0.2314930">
        <ele>1677.0</ele>
        <time>2020-09-13T14:15:35Z</time>
      </trkpt>
      <trkpt lat="42.7607130" lon="-0.2315080">
        <ele>1676.6</ele>
        <time>2020-09-13T14:15:37Z</time>
      </trkpt>
      <trkpt lat="42.7606770" lon="-0.2315270">
        <ele>1676.4</ele>
        <time>2020-09-13T14:15:40Z</time>
      </trkpt>
      <trkpt lat="42.7606590" lon="-0.2315500">
        <ele>1675.8</ele>
        <time>2020-09-13T14:15:42Z</time>
      </trkpt>
      <trkpt lat="42.7605510" lon="-0.2315600">
        <ele>1674.8</ele>
        <time>2020-09-13T14:15:48Z</time>
      </trkpt>
      <trkpt lat="42.7605260" lon="-0.2315650">
        <ele>1674.6</ele>
        <time>2020-09-13T14:15:49Z</time>
      </trkpt>
      <trkpt lat="42.7605210" lon="-0.2315750">
        <ele>1674.6</ele>
        <time>2020-09-13T14:15:51Z</time>
      </trkpt>
      <trkpt lat="42.7604640" lon="-0.2316160">
        <ele>1674.4</ele>
        <time>2020-09-13T14:16:00Z</time>
      </trkpt>
      <trkpt lat="42.7604170" lon="-0.2316190">
        <ele>1673.6</ele>
        <time>2020-09-13T14:16:03Z</time>
      </trkpt>
      <trkpt lat="42.7603880" lon="-0.2316160">
        <ele>1673.2</ele>
        <time>2020-09-13T14:16:04Z</time>
      </trkpt>
      <trkpt lat="42.7603580" lon="-0.2316320">
        <ele>1672.8</ele>
        <time>2020-09-13T14:16:06Z</time>
      </trkpt>
      <trkpt lat="42.7603220" lon="-0.2316460">
        <ele>1672.8</ele>
        <time>2020-09-13T14:16:08Z</time>
      </trkpt>
      <trkpt lat="42.7601970" lon="-0.2317130">
        <ele>1672.6</ele>
        <time>2020-09-13T14:16:15Z</time>
      </trkpt>
      <trkpt lat="42.7601620" lon="-0.2317240">
        <ele>1671.6</ele>
        <time>2020-09-13T14:16:18Z</time>
      </trkpt>
      <trkpt lat="42.7601480" lon="-0.2317300">
        <ele>1671.2</ele>
        <time>2020-09-13T14:16:19Z</time>
      </trkpt>
      <trkpt lat="42.7601360" lon="-0.2317860">
        <ele>1670.6</ele>
        <time>2020-09-13T14:16:22Z</time>
      </trkpt>
      <trkpt lat="42.7601120" lon="-0.2317990">
        <ele>1670.2</ele>
        <time>2020-09-13T14:16:24Z</time>
      </trkpt>
      <trkpt lat="42.7600850" lon="-0.2318070">
        <ele>1669.8</ele>
        <time>2020-09-13T14:16:26Z</time>
      </trkpt>
      <trkpt lat="42.7600730" lon="-0.2318980">
        <ele>1669.6</ele>
        <time>2020-09-13T14:16:28Z</time>
      </trkpt>
      <trkpt lat="42.7600760" lon="-0.2319130">
        <ele>1669.4</ele>
        <time>2020-09-13T14:16:30Z</time>
      </trkpt>
      <trkpt lat="42.7600740" lon="-0.2319160">
        <ele>1669.2</ele>
        <time>2020-09-13T14:16:31Z</time>
      </trkpt>
      <trkpt lat="42.7600760" lon="-0.2319200">
        <ele>1669.0</ele>
        <time>2020-09-13T14:16:32Z</time>
      </trkpt>
      <trkpt lat="42.7600720" lon="-0.2319520">
        <ele>1668.4</ele>
        <time>2020-09-13T14:16:36Z</time>
      </trkpt>
      <trkpt lat="42.7600780" lon="-0.2319650">
        <ele>1668.2</ele>
        <time>2020-09-13T14:16:37Z</time>
      </trkpt>
      <trkpt lat="42.7600830" lon="-0.2319730">
        <ele>1668.0</ele>
        <time>2020-09-13T14:16:38Z</time>
      </trkpt>
      <trkpt lat="42.7601170" lon="-0.2319700">
        <ele>1667.2</ele>
        <time>2020-09-13T14:16:43Z</time>
      </trkpt>
      <trkpt lat="42.7601450" lon="-0.2319870">
        <ele>1667.0</ele>
        <time>2020-09-13T14:16:45Z</time>
      </trkpt>
      <trkpt lat="42.7602140" lon="-0.2320100">
        <ele>1666.4</ele>
        <time>2020-09-13T14:16:50Z</time>
      </trkpt>
      <trkpt lat="42.7602340" lon="-0.2320050">
        <ele>1666.0</ele>
        <time>2020-09-13T14:16:52Z</time>
      </trkpt>
      <trkpt lat="42.7602730" lon="-0.2319850">
        <ele>1665.0</ele>
        <time>2020-09-13T14:16:56Z</time>
      </trkpt>
      <trkpt lat="42.7602730" lon="-0.2319800">
        <ele>1664.8</ele>
        <time>2020-09-13T14:16:57Z</time>
      </trkpt>
      <trkpt lat="42.7602970" lon="-0.2319840">
        <ele>1664.8</ele>
        <time>2020-09-13T14:17:00Z</time>
      </trkpt>
      <trkpt lat="42.7603110" lon="-0.2319750">
        <ele>1664.8</ele>
        <time>2020-09-13T14:17:02Z</time>
      </trkpt>
      <trkpt lat="42.7603720" lon="-0.2319560">
        <ele>1664.4</ele>
        <time>2020-09-13T14:17:07Z</time>
      </trkpt>
      <trkpt lat="42.7604120" lon="-0.2319520">
        <ele>1664.0</ele>
        <time>2020-09-13T14:17:10Z</time>
      </trkpt>
      <trkpt lat="42.7605350" lon="-0.2319540">
        <ele>1662.8</ele>
        <time>2020-09-13T14:17:18Z</time>
      </trkpt>
      <trkpt lat="42.7605520" lon="-0.2319530">
        <ele>1662.8</ele>
        <time>2020-09-13T14:17:19Z</time>
      </trkpt>
      <trkpt lat="42.7606890" lon="-0.2319720">
        <ele>1661.8</ele>
        <time>2020-09-13T14:17:31Z</time>
      </trkpt>
      <trkpt lat="42.7606960" lon="-0.2319700">
        <ele>1661.6</ele>
        <time>2020-09-13T14:17:32Z</time>
      </trkpt>
      <trkpt lat="42.7607160" lon="-0.2319670">
        <ele>1661.4</ele>
        <time>2020-09-13T14:17:34Z</time>
      </trkpt>
      <trkpt lat="42.7607270" lon="-0.2319740">
        <ele>1661.0</ele>
        <time>2020-09-13T14:17:36Z</time>
      </trkpt>
      <trkpt lat="42.7607330" lon="-0.2319710">
        <ele>1660.6</ele>
        <time>2020-09-13T14:17:39Z</time>
      </trkpt>
      <trkpt lat="42.7607550" lon="-0.2319880">
        <ele>1659.6</ele>
        <time>2020-09-13T14:17:43Z</time>
      </trkpt>
      <trkpt lat="42.7607520" lon="-0.2319840">
        <ele>1659.4</ele>
        <time>2020-09-13T14:17:44Z</time>
      </trkpt>
      <trkpt lat="42.7607230" lon="-0.2319750">
        <ele>1659.0</ele>
        <time>2020-09-13T14:17:47Z</time>
      </trkpt>
      <trkpt lat="42.7607210" lon="-0.2319830">
        <ele>1658.6</ele>
        <time>2020-09-13T14:17:49Z</time>
      </trkpt>
      <trkpt lat="42.7607080" lon="-0.2319880">
        <ele>1658.2</ele>
        <time>2020-09-13T14:17:50Z</time>
      </trkpt>
      <trkpt lat="42.7606840" lon="-0.2319920">
        <ele>1657.8</ele>
        <time>2020-09-13T14:17:52Z</time>
      </trkpt>
      <trkpt lat="42.7606580" lon="-0.2320030">
        <ele>1657.6</ele>
        <time>2020-09-13T14:17:55Z</time>
      </trkpt>
      <trkpt lat="42.7606280" lon="-0.2320080">
        <ele>1657.4</ele>
        <time>2020-09-13T14:17:57Z</time>
      </trkpt>
      <trkpt lat="42.7606010" lon="-0.2320110">
        <ele>1657.2</ele>
        <time>2020-09-13T14:17:59Z</time>
      </trkpt>
      <trkpt lat="42.7605860" lon="-0.2320140">
        <ele>1657.0</ele>
        <time>2020-09-13T14:18:00Z</time>
      </trkpt>
      <trkpt lat="42.7605550" lon="-0.2320350">
        <ele>1656.8</ele>
        <time>2020-09-13T14:18:02Z</time>
      </trkpt>
      <trkpt lat="42.7605140" lon="-0.2321050">
        <ele>1656.6</ele>
        <time>2020-09-13T14:18:08Z</time>
      </trkpt>
      <trkpt lat="42.7604990" lon="-0.2321350">
        <ele>1656.4</ele>
        <time>2020-09-13T14:18:10Z</time>
      </trkpt>
      <trkpt lat="42.7604930" lon="-0.2321560">
        <ele>1656.0</ele>
        <time>2020-09-13T14:18:12Z</time>
      </trkpt>
      <trkpt lat="42.7604960" lon="-0.2321740">
        <ele>1655.6</ele>
        <time>2020-09-13T14:18:13Z</time>
      </trkpt>
      <trkpt lat="42.7604760" lon="-0.2322210">
        <ele>1655.0</ele>
        <time>2020-09-13T14:18:17Z</time>
      </trkpt>
      <trkpt lat="42.7604870" lon="-0.2322610">
        <ele>1654.6</ele>
        <time>2020-09-13T14:18:20Z</time>
      </trkpt>
      <trkpt lat="42.7604860" lon="-0.2322840">
        <ele>1653.6</ele>
        <time>2020-09-13T14:18:22Z</time>
      </trkpt>
      <trkpt lat="42.7604870" lon="-0.2323050">
        <ele>1653.4</ele>
        <time>2020-09-13T14:18:23Z</time>
      </trkpt>
      <trkpt lat="42.7604720" lon="-0.2323440">
        <ele>1653.4</ele>
        <time>2020-09-13T14:18:26Z</time>
      </trkpt>
      <trkpt lat="42.7604450" lon="-0.2323650">
        <ele>1653.6</ele>
        <time>2020-09-13T14:18:28Z</time>
      </trkpt>
      <trkpt lat="42.7604040" lon="-0.2323980">
        <ele>1653.6</ele>
        <time>2020-09-13T14:18:32Z</time>
      </trkpt>
      <trkpt lat="42.7603390" lon="-0.2324240">
        <ele>1652.6</ele>
        <time>2020-09-13T14:18:38Z</time>
      </trkpt>
      <trkpt lat="42.7603290" lon="-0.2324250">
        <ele>1652.2</ele>
        <time>2020-09-13T14:18:40Z</time>
      </trkpt>
      <trkpt lat="42.7603090" lon="-0.2324200">
        <ele>1652.0</ele>
        <time>2020-09-13T14:18:42Z</time>
      </trkpt>
      <trkpt lat="42.7602670" lon="-0.2324070">
        <ele>1651.8</ele>
        <time>2020-09-13T14:18:46Z</time>
      </trkpt>
      <trkpt lat="42.7602520" lon="-0.2324010">
        <ele>1651.4</ele>
        <time>2020-09-13T14:18:47Z</time>
      </trkpt>
      <trkpt lat="42.7602460" lon="-0.2323930">
        <ele>1651.2</ele>
        <time>2020-09-13T14:18:48Z</time>
      </trkpt>
      <trkpt lat="42.7602340" lon="-0.2323800">
        <ele>1650.8</ele>
        <time>2020-09-13T14:18:50Z</time>
      </trkpt>
      <trkpt lat="42.7601870" lon="-0.2323720">
        <ele>1650.2</ele>
        <time>2020-09-13T14:18:53Z</time>
      </trkpt>
      <trkpt lat="42.7601770" lon="-0.2323740">
        <ele>1650.0</ele>
        <time>2020-09-13T14:18:54Z</time>
      </trkpt>
      <trkpt lat="42.7601610" lon="-0.2323770">
        <ele>1649.6</ele>
        <time>2020-09-13T14:18:56Z</time>
      </trkpt>
      <trkpt lat="42.7601390" lon="-0.2323740">
        <ele>1649.6</ele>
        <time>2020-09-13T14:18:58Z</time>
      </trkpt>
      <trkpt lat="42.7600780" lon="-0.2323850">
        <ele>1649.8</ele>
        <time>2020-09-13T14:19:01Z</time>
      </trkpt>
      <trkpt lat="42.7599990" lon="-0.2323920">
        <ele>1649.2</ele>
        <time>2020-09-13T14:19:05Z</time>
      </trkpt>
      <trkpt lat="42.7599760" lon="-0.2323950">
        <ele>1648.8</ele>
        <time>2020-09-13T14:19:07Z</time>
      </trkpt>
      <trkpt lat="42.7599420" lon="-0.2323990">
        <ele>1648.6</ele>
        <time>2020-09-13T14:19:09Z</time>
      </trkpt>
      <trkpt lat="42.7599260" lon="-0.2323960">
        <ele>1648.4</ele>
        <time>2020-09-13T14:19:10Z</time>
      </trkpt>
      <trkpt lat="42.7598800" lon="-0.2323940">
        <ele>1647.8</ele>
        <time>2020-09-13T14:19:14Z</time>
      </trkpt>
      <trkpt lat="42.7598490" lon="-0.2324320">
        <ele>1647.6</ele>
        <time>2020-09-13T14:19:18Z</time>
      </trkpt>
      <trkpt lat="42.7598310" lon="-0.2324480">
        <ele>1647.8</ele>
        <time>2020-09-13T14:19:20Z</time>
      </trkpt>
      <trkpt lat="42.7598070" lon="-0.2324780">
        <ele>1647.8</ele>
        <time>2020-09-13T14:19:22Z</time>
      </trkpt>
      <trkpt lat="42.7597800" lon="-0.2325040">
        <ele>1647.2</ele>
        <time>2020-09-13T14:19:25Z</time>
      </trkpt>
      <trkpt lat="42.7597700" lon="-0.2325150">
        <ele>1646.6</ele>
        <time>2020-09-13T14:19:27Z</time>
      </trkpt>
      <trkpt lat="42.7597470" lon="-0.2325340">
        <ele>1646.2</ele>
        <time>2020-09-13T14:19:29Z</time>
      </trkpt>
      <trkpt lat="42.7597320" lon="-0.2325600">
        <ele>1646.0</ele>
        <time>2020-09-13T14:19:31Z</time>
      </trkpt>
      <trkpt lat="42.7597110" lon="-0.2326810">
        <ele>1645.6</ele>
        <time>2020-09-13T14:19:36Z</time>
      </trkpt>
      <trkpt lat="42.7597100" lon="-0.2327230">
        <ele>1645.4</ele>
        <time>2020-09-13T14:19:38Z</time>
      </trkpt>
      <trkpt lat="42.7596580" lon="-0.2327310">
        <ele>1644.8</ele>
        <time>2020-09-13T14:19:42Z</time>
      </trkpt>
      <trkpt lat="42.7596420" lon="-0.2327500">
        <ele>1645.0</ele>
        <time>2020-09-13T14:19:44Z</time>
      </trkpt>
      <trkpt lat="42.7596380" lon="-0.2328040">
        <ele>1645.2</ele>
        <time>2020-09-13T14:19:47Z</time>
      </trkpt>
      <trkpt lat="42.7596440" lon="-0.2328360">
        <ele>1645.2</ele>
        <time>2020-09-13T14:19:49Z</time>
      </trkpt>
      <trkpt lat="42.7596940" lon="-0.2328850">
        <ele>1644.4</ele>
        <time>2020-09-13T14:19:54Z</time>
      </trkpt>
      <trkpt lat="42.7597130" lon="-0.2329020">
        <ele>1643.6</ele>
        <time>2020-09-13T14:19:56Z</time>
      </trkpt>
      <trkpt lat="42.7597220" lon="-0.2329140">
        <ele>1643.2</ele>
        <time>2020-09-13T14:19:57Z</time>
      </trkpt>
      <trkpt lat="42.7597310" lon="-0.2329180">
        <ele>1642.8</ele>
        <time>2020-09-13T14:19:58Z</time>
      </trkpt>
      <trkpt lat="42.7597640" lon="-0.2329350">
        <ele>1641.6</ele>
        <time>2020-09-13T14:20:01Z</time>
      </trkpt>
      <trkpt lat="42.7598130" lon="-0.2330040">
        <ele>1640.4</ele>
        <time>2020-09-13T14:20:07Z</time>
      </trkpt>
      <trkpt lat="42.7598220" lon="-0.2330230">
        <ele>1639.8</ele>
        <time>2020-09-13T14:20:08Z</time>
      </trkpt>
      <trkpt lat="42.7598360" lon="-0.2330370">
        <ele>1639.4</ele>
        <time>2020-09-13T14:20:09Z</time>
      </trkpt>
      <trkpt lat="42.7599070" lon="-0.2330940">
        <ele>1638.4</ele>
        <time>2020-09-13T14:20:18Z</time>
      </trkpt>
      <trkpt lat="42.7599230" lon="-0.2331080">
        <ele>1637.2</ele>
        <time>2020-09-13T14:20:20Z</time>
      </trkpt>
      <trkpt lat="42.7599430" lon="-0.2331210">
        <ele>1636.0</ele>
        <time>2020-09-13T14:20:22Z</time>
      </trkpt>
      <trkpt lat="42.7600300" lon="-0.2332250">
        <ele>1635.0</ele>
        <time>2020-09-13T14:20:33Z</time>
      </trkpt>
      <trkpt lat="42.7600400" lon="-0.2332600">
        <ele>1634.8</ele>
        <time>2020-09-13T14:20:36Z</time>
      </trkpt>
      <trkpt lat="42.7600860" lon="-0.2333390">
        <ele>1634.0</ele>
        <time>2020-09-13T14:20:45Z</time>
      </trkpt>
      <trkpt lat="42.7601000" lon="-0.2333540">
        <ele>1633.8</ele>
        <time>2020-09-13T14:20:48Z</time>
      </trkpt>
      <trkpt lat="42.7603490" lon="-0.2334310">
        <ele>1633.6</ele>
        <time>2020-09-11T06:31:33Z</time>
      </trkpt>
      <trkpt lat="42.7603760" lon="-0.2334430">
        <ele>1633.6</ele>
        <time>2020-09-11T06:31:36Z</time>
      </trkpt>
      <trkpt lat="42.7604670" lon="-0.2334980">
        <ele>1633.2</ele>
        <time>2020-09-11T06:31:47Z</time>
      </trkpt>
      <trkpt lat="42.7605310" lon="-0.2335400">
        <ele>1633.0</ele>
        <time>2020-09-11T06:31:51Z</time>
      </trkpt>
      <trkpt lat="42.7605780" lon="-0.2335830">
        <ele>1633.0</ele>
        <time>2020-09-11T06:31:56Z</time>
      </trkpt>
      <trkpt lat="42.7605930" lon="-0.2335960">
        <ele>1633.0</ele>
        <time>2020-09-11T06:31:58Z</time>
      </trkpt>
      <trkpt lat="42.7606280" lon="-0.2336090">
        <ele>1632.6</ele>
        <time>2020-09-11T06:32:02Z</time>
      </trkpt>
      <trkpt lat="42.7607750" lon="-0.2337410">
        <ele>1632.4</ele>
        <time>2020-09-11T06:32:15Z</time>
      </trkpt>
      <trkpt lat="42.7608090" lon="-0.2337700">
        <ele>1632.6</ele>
        <time>2020-09-11T06:32:18Z</time>
      </trkpt>
      <trkpt lat="42.7609810" lon="-0.2338930">
        <ele>1632.2</ele>
        <time>2020-09-11T06:32:33Z</time>
      </trkpt>
      <trkpt lat="42.7611410" lon="-0.2340310">
        <ele>1632.2</ele>
        <time>2020-09-11T06:32:47Z</time>
      </trkpt>
      <trkpt lat="42.7611500" lon="-0.2340410">
        <ele>1632.2</ele>
        <time>2020-09-11T06:32:48Z</time>
      </trkpt>
      <trkpt lat="42.7611710" lon="-0.2340540">
        <ele>1632.2</ele>
        <time>2020-09-11T06:32:50Z</time>
      </trkpt>
      <trkpt lat="42.7613560" lon="-0.2341130">
        <ele>1632.0</ele>
        <time>2020-09-11T06:33:02Z</time>
      </trkpt>
      <trkpt lat="42.7615180" lon="-0.2341730">
        <ele>1632.0</ele>
        <time>2020-09-11T06:33:16Z</time>
      </trkpt>
      <trkpt lat="42.7615360" lon="-0.2341690">
        <ele>1632.0</ele>
        <time>2020-09-11T06:33:18Z</time>
      </trkpt>
      <trkpt lat="42.7615780" lon="-0.2341370">
        <ele>1631.8</ele>
        <time>2020-09-11T06:33:21Z</time>
      </trkpt>
      <trkpt lat="42.7616220" lon="-0.2341070">
        <ele>1631.6</ele>
        <time>2020-09-11T06:33:25Z</time>
      </trkpt>
      <trkpt lat="42.7617650" lon="-0.2339490">
        <ele>1631.6</ele>
        <time>2020-09-11T06:33:39Z</time>
      </trkpt>
      <trkpt lat="42.7619030" lon="-0.2337840">
        <ele>1631.8</ele>
        <time>2020-09-11T06:33:53Z</time>
      </trkpt>
      <trkpt lat="42.7620020" lon="-0.2337150">
        <ele>1632.0</ele>
        <time>2020-09-11T06:34:01Z</time>
      </trkpt>
      <trkpt lat="42.7621230" lon="-0.2335420">
        <ele>1632.8</ele>
        <time>2020-09-11T06:34:14Z</time>
      </trkpt>
      <trkpt lat="42.7622250" lon="-0.2334730">
        <ele>1633.6</ele>
        <time>2020-09-11T06:34:23Z</time>
      </trkpt>
      <trkpt lat="42.7622480" lon="-0.2334540">
        <ele>1633.6</ele>
        <time>2020-09-11T06:34:25Z</time>
      </trkpt>
      <trkpt lat="42.7622910" lon="-0.2334010">
        <ele>1633.6</ele>
        <time>2020-09-11T06:34:29Z</time>
      </trkpt>
      <trkpt lat="42.7623580" lon="-0.2333500">
        <ele>1633.8</ele>
        <time>2020-09-11T06:34:34Z</time>
      </trkpt>
      <trkpt lat="42.7624470" lon="-0.2332770">
        <ele>1634.4</ele>
        <time>2020-09-11T06:34:41Z</time>
      </trkpt>
      <trkpt lat="42.7624810" lon="-0.2332370">
        <ele>1634.8</ele>
        <time>2020-09-11T06:34:44Z</time>
      </trkpt>
      <trkpt lat="42.7625160" lon="-0.2330950">
        <ele>1635.8</ele>
        <time>2020-09-11T06:34:50Z</time>
      </trkpt>
      <trkpt lat="42.7625650" lon="-0.2329430">
        <ele>1637.0</ele>
        <time>2020-09-11T06:34:58Z</time>
      </trkpt>
      <trkpt lat="42.7626730" lon="-0.2328130">
        <ele>1636.6</ele>
        <time>2020-09-11T06:35:11Z</time>
      </trkpt>
      <trkpt lat="42.7627010" lon="-0.2328720">
        <ele>1636.6</ele>
        <time>2020-09-11T06:35:19Z</time>
      </trkpt>
      <trkpt lat="42.7627160" lon="-0.2329040">
        <ele>1637.0</ele>
        <time>2020-09-11T06:35:22Z</time>
      </trkpt>
      <trkpt lat="42.7627310" lon="-0.2329140">
        <ele>1637.4</ele>
        <time>2020-09-11T06:35:24Z</time>
      </trkpt>
      <trkpt lat="42.7627480" lon="-0.2329240">
        <ele>1637.6</ele>
        <time>2020-09-11T06:35:26Z</time>
      </trkpt>
      <trkpt lat="42.7627650" lon="-0.2329320">
        <ele>1638.0</ele>
        <time>2020-09-11T06:35:28Z</time>
      </trkpt>
      <trkpt lat="42.7627960" lon="-0.2329220">
        <ele>1639.2</ele>
        <time>2020-09-11T06:35:33Z</time>
      </trkpt>
      <trkpt lat="42.7628030" lon="-0.2328880">
        <ele>1640.2</ele>
        <time>2020-09-11T06:35:36Z</time>
      </trkpt>
      <trkpt lat="42.7628080" lon="-0.2328690">
        <ele>1640.4</ele>
        <time>2020-09-11T06:35:37Z</time>
      </trkpt>
      <trkpt lat="42.7628130" lon="-0.2328320">
        <ele>1640.6</ele>
        <time>2020-09-11T06:35:39Z</time>
      </trkpt>
      <trkpt lat="42.7628070" lon="-0.2328070">
        <ele>1641.2</ele>
        <time>2020-09-11T06:35:41Z</time>
      </trkpt>
      <trkpt lat="42.7628010" lon="-0.2327820">
        <ele>1641.6</ele>
        <time>2020-09-11T06:35:43Z</time>
      </trkpt>
      <trkpt lat="42.7627910" lon="-0.2327510">
        <ele>1642.2</ele>
        <time>2020-09-11T06:35:46Z</time>
      </trkpt>
      <trkpt lat="42.7627890" lon="-0.2327420">
        <ele>1642.4</ele>
        <time>2020-09-11T06:35:47Z</time>
      </trkpt>
      <trkpt lat="42.7627750" lon="-0.2327160">
        <ele>1643.2</ele>
        <time>2020-09-11T06:35:50Z</time>
      </trkpt>
      <trkpt lat="42.7627660" lon="-0.2326930">
        <ele>1643.6</ele>
        <time>2020-09-11T06:35:52Z</time>
      </trkpt>
      <trkpt lat="42.7627570" lon="-0.2326720">
        <ele>1644.0</ele>
        <time>2020-09-11T06:35:54Z</time>
      </trkpt>
      <trkpt lat="42.7627490" lon="-0.2326460">
        <ele>1644.6</ele>
        <time>2020-09-11T06:35:57Z</time>
      </trkpt>
      <trkpt lat="42.7627440" lon="-0.2326410">
        <ele>1645.0</ele>
        <time>2020-09-11T06:35:58Z</time>
      </trkpt>
      <trkpt lat="42.7627430" lon="-0.2326260">
        <ele>1645.6</ele>
        <time>2020-09-11T06:36:00Z</time>
      </trkpt>
      <trkpt lat="42.7627340" lon="-0.2326210">
        <ele>1645.8</ele>
        <time>2020-09-11T06:36:01Z</time>
      </trkpt>
      <trkpt lat="42.7627270" lon="-0.2326100">
        <ele>1645.8</ele>
        <time>2020-09-11T06:36:02Z</time>
      </trkpt>
      <trkpt lat="42.7627210" lon="-0.2325640">
        <ele>1647.0</ele>
        <time>2020-09-11T06:36:06Z</time>
      </trkpt>
      <trkpt lat="42.7627200" lon="-0.2325610">
        <ele>1647.2</ele>
        <time>2020-09-11T06:36:07Z</time>
      </trkpt>
      <trkpt lat="42.7627060" lon="-0.2325300">
        <ele>1648.0</ele>
        <time>2020-09-11T06:36:11Z</time>
      </trkpt>
      <trkpt lat="42.7626970" lon="-0.2324780">
        <ele>1648.8</ele>
        <time>2020-09-11T06:36:16Z</time>
      </trkpt>
      <trkpt lat="42.7626780" lon="-0.2324570">
        <ele>1649.0</ele>
        <time>2020-09-11T06:36:18Z</time>
      </trkpt>
      <trkpt lat="42.7626710" lon="-0.2324470">
        <ele>1649.2</ele>
        <time>2020-09-11T06:36:19Z</time>
      </trkpt>
      <trkpt lat="42.7626540" lon="-0.2324000">
        <ele>1650.2</ele>
        <time>2020-09-11T06:36:23Z</time>
      </trkpt>
      <trkpt lat="42.7626540" lon="-0.2323810">
        <ele>1650.8</ele>
        <time>2020-09-11T06:36:25Z</time>
      </trkpt>
      <trkpt lat="42.7626570" lon="-0.2323650">
        <ele>1651.2</ele>
        <time>2020-09-11T06:36:27Z</time>
      </trkpt>
      <trkpt lat="42.7626390" lon="-0.2323270">
        <ele>1651.6</ele>
        <time>2020-09-11T06:36:30Z</time>
      </trkpt>
      <trkpt lat="42.7626330" lon="-0.2322920">
        <ele>1652.2</ele>
        <time>2020-09-11T06:36:33Z</time>
      </trkpt>
      <trkpt lat="42.7626290" lon="-0.2322830">
        <ele>1652.4</ele>
        <time>2020-09-11T06:36:34Z</time>
      </trkpt>
      <trkpt lat="42.7626170" lon="-0.2322540">
        <ele>1653.0</ele>
        <time>2020-09-11T06:36:37Z</time>
      </trkpt>
      <trkpt lat="42.7626050" lon="-0.2322230">
        <ele>1653.6</ele>
        <time>2020-09-11T06:36:40Z</time>
      </trkpt>
      <trkpt lat="42.7626090" lon="-0.2322280">
        <ele>1653.8</ele>
        <time>2020-09-11T06:36:42Z</time>
      </trkpt>
      <trkpt lat="42.7626330" lon="-0.2322700">
        <ele>1654.8</ele>
        <time>2020-09-11T06:36:48Z</time>
      </trkpt>
      <trkpt lat="42.7626530" lon="-0.2323120">
        <ele>1656.0</ele>
        <time>2020-09-11T06:36:53Z</time>
      </trkpt>
      <trkpt lat="42.7626700" lon="-0.2323300">
        <ele>1656.6</ele>
        <time>2020-09-11T06:36:56Z</time>
      </trkpt>
      <trkpt lat="42.7627120" lon="-0.2323530">
        <ele>1657.0</ele>
        <time>2020-09-11T06:37:02Z</time>
      </trkpt>
      <trkpt lat="42.7627470" lon="-0.2323790">
        <ele>1658.2</ele>
        <time>2020-09-11T06:37:07Z</time>
      </trkpt>
      <trkpt lat="42.7627830" lon="-0.2324020">
        <ele>1659.2</ele>
        <time>2020-09-11T06:37:12Z</time>
      </trkpt>
      <trkpt lat="42.7628020" lon="-0.2324300">
        <ele>1660.4</ele>
        <time>2020-09-11T06:37:17Z</time>
      </trkpt>
      <trkpt lat="42.7628450" lon="-0.2324430">
        <ele>1661.4</ele>
        <time>2020-09-11T06:37:23Z</time>
      </trkpt>
      <trkpt lat="42.7628700" lon="-0.2324480">
        <ele>1662.6</ele>
        <time>2020-09-11T06:37:27Z</time>
      </trkpt>
      <trkpt lat="42.7628820" lon="-0.2324780">
        <ele>1663.6</ele>
        <time>2020-09-11T06:37:32Z</time>
      </trkpt>
      <trkpt lat="42.7629040" lon="-0.2325020">
        <ele>1664.8</ele>
        <time>2020-09-11T06:37:37Z</time>
      </trkpt>
      <trkpt lat="42.7629590" lon="-0.2325210">
        <ele>1666.0</ele>
        <time>2020-09-11T06:37:45Z</time>
      </trkpt>
      <trkpt lat="42.7629860" lon="-0.2325160">
        <ele>1667.2</ele>
        <time>2020-09-11T06:37:49Z</time>
      </trkpt>
      <trkpt lat="42.7630100" lon="-0.2325010">
        <ele>1668.4</ele>
        <time>2020-09-11T06:37:54Z</time>
      </trkpt>
      <trkpt lat="42.7630310" lon="-0.2325140">
        <ele>1669.4</ele>
        <time>2020-09-11T06:38:00Z</time>
      </trkpt>
      <trkpt lat="42.7630600" lon="-0.2325120">
        <ele>1670.6</ele>
        <time>2020-09-11T06:38:04Z</time>
      </trkpt>
      <trkpt lat="42.7631080" lon="-0.2324930">
        <ele>1671.6</ele>
        <time>2020-09-11T06:38:11Z</time>
      </trkpt>
      <trkpt lat="42.7631340" lon="-0.2324560">
        <ele>1672.6</ele>
        <time>2020-09-11T06:38:16Z</time>
      </trkpt>
      <trkpt lat="42.7631310" lon="-0.2324160">
        <ele>1673.8</ele>
        <time>2020-09-11T06:38:22Z</time>
      </trkpt>
      <trkpt lat="42.7631030" lon="-0.2323740">
        <ele>1675.0</ele>
        <time>2020-09-11T06:38:27Z</time>
      </trkpt>
      <trkpt lat="42.7630750" lon="-0.2323110">
        <ele>1676.2</ele>
        <time>2020-09-11T06:38:33Z</time>
      </trkpt>
      <trkpt lat="42.7630510" lon="-0.2322990">
        <ele>1677.2</ele>
        <time>2020-09-11T06:38:38Z</time>
      </trkpt>
      <trkpt lat="42.7630380" lon="-0.2322670">
        <ele>1678.2</ele>
        <time>2020-09-11T06:38:43Z</time>
      </trkpt>
      <trkpt lat="42.7630410" lon="-0.2322410">
        <ele>1679.4</ele>
        <time>2020-09-11T06:38:48Z</time>
      </trkpt>
      <trkpt lat="42.7630980" lon="-0.2322560">
        <ele>1680.6</ele>
        <time>2020-09-11T06:38:57Z</time>
      </trkpt>
      <trkpt lat="42.7631250" lon="-0.2322760">
        <ele>1681.6</ele>
        <time>2020-09-11T06:39:02Z</time>
      </trkpt>
      <trkpt lat="42.7631640" lon="-0.2323070">
        <ele>1682.8</ele>
        <time>2020-09-11T06:39:07Z</time>
      </trkpt>
      <trkpt lat="42.7631990" lon="-0.2323620">
        <ele>1684.0</ele>
        <time>2020-09-11T06:39:14Z</time>
      </trkpt>
      <trkpt lat="42.7632200" lon="-0.2323800">
        <ele>1685.0</ele>
        <time>2020-09-11T06:39:19Z</time>
      </trkpt>
      <trkpt lat="42.7632540" lon="-0.2324020">
        <ele>1686.2</ele>
        <time>2020-09-11T06:39:25Z</time>
      </trkpt>
      <trkpt lat="42.7633010" lon="-0.2324430">
        <ele>1687.2</ele>
        <time>2020-09-11T06:39:31Z</time>
      </trkpt>
      <trkpt lat="42.7633180" lon="-0.2324810">
        <ele>1688.4</ele>
        <time>2020-09-11T06:39:35Z</time>
      </trkpt>
      <trkpt lat="42.7633390" lon="-0.2325160">
        <ele>1689.4</ele>
        <time>2020-09-11T06:39:40Z</time>
      </trkpt>
      <trkpt lat="42.7633850" lon="-0.2324710">
        <ele>1690.4</ele>
        <time>2020-09-11T06:39:46Z</time>
      </trkpt>
      <trkpt lat="42.7633880" lon="-0.2323810">
        <ele>1691.4</ele>
        <time>2020-09-11T06:39:53Z</time>
      </trkpt>
      <trkpt lat="42.7633670" lon="-0.2323160">
        <ele>1692.4</ele>
        <time>2020-09-11T06:39:58Z</time>
      </trkpt>
      <trkpt lat="42.7633620" lon="-0.2323060">
        <ele>1692.6</ele>
        <time>2020-09-11T06:39:59Z</time>
      </trkpt>
      <trkpt lat="42.7633500" lon="-0.2322860">
        <ele>1693.2</ele>
        <time>2020-09-11T06:40:01Z</time>
      </trkpt>
      <trkpt lat="42.7633390" lon="-0.2322630">
        <ele>1693.8</ele>
        <time>2020-09-11T06:40:03Z</time>
      </trkpt>
      <trkpt lat="42.7633340" lon="-0.2322330">
        <ele>1694.4</ele>
        <time>2020-09-11T06:40:06Z</time>
      </trkpt>
      <trkpt lat="42.7633290" lon="-0.2322150">
        <ele>1694.8</ele>
        <time>2020-09-11T06:40:09Z</time>
      </trkpt>
      <trkpt lat="42.7633120" lon="-0.2321770">
        <ele>1696.0</ele>
        <time>2020-09-11T06:40:14Z</time>
      </trkpt>
      <trkpt lat="42.7632750" lon="-0.2321540">
        <ele>1697.0</ele>
        <time>2020-09-11T06:40:19Z</time>
      </trkpt>
      <trkpt lat="42.7632570" lon="-0.2321010">
        <ele>1698.0</ele>
        <time>2020-09-11T06:40:25Z</time>
      </trkpt>
      <trkpt lat="42.7632680" lon="-0.2320610">
        <ele>1699.2</ele>
        <time>2020-09-11T06:40:33Z</time>
      </trkpt>
      <trkpt lat="42.7633040" lon="-0.2320670">
        <ele>1700.2</ele>
        <time>2020-09-11T06:40:40Z</time>
      </trkpt>
      <trkpt lat="42.7633120" lon="-0.2321260">
        <ele>1701.4</ele>
        <time>2020-09-11T06:40:46Z</time>
      </trkpt>
      <trkpt lat="42.7633350" lon="-0.2321910">
        <ele>1702.6</ele>
        <time>2020-09-11T06:40:55Z</time>
      </trkpt>
      <trkpt lat="42.7633580" lon="-0.2322090">
        <ele>1703.6</ele>
        <time>2020-09-11T06:40:59Z</time>
      </trkpt>
      <trkpt lat="42.7633810" lon="-0.2322580">
        <ele>1704.0</ele>
        <time>2020-09-11T06:41:05Z</time>
      </trkpt>
      <trkpt lat="42.7633900" lon="-0.2322790">
        <ele>1704.4</ele>
        <time>2020-09-11T06:41:07Z</time>
      </trkpt>
      <trkpt lat="42.7634210" lon="-0.2322930">
        <ele>1704.8</ele>
        <time>2020-09-11T06:41:12Z</time>
      </trkpt>
      <trkpt lat="42.7634670" lon="-0.2322730">
        <ele>1705.8</ele>
        <time>2020-09-11T06:41:16Z</time>
      </trkpt>
      <trkpt lat="42.7634810" lon="-0.2322240">
        <ele>1706.2</ele>
        <time>2020-09-11T06:41:19Z</time>
      </trkpt>
      <trkpt lat="42.7634840" lon="-0.2322050">
        <ele>1706.6</ele>
        <time>2020-09-11T06:41:21Z</time>
      </trkpt>
      <trkpt lat="42.7634890" lon="-0.2321880">
        <ele>1707.0</ele>
        <time>2020-09-11T06:41:23Z</time>
      </trkpt>
      <trkpt lat="42.7634910" lon="-0.2321780">
        <ele>1707.2</ele>
        <time>2020-09-11T06:41:24Z</time>
      </trkpt>
      <trkpt lat="42.7634880" lon="-0.2321410">
        <ele>1708.0</ele>
        <time>2020-09-11T06:41:28Z</time>
      </trkpt>
      <trkpt lat="42.7634890" lon="-0.2321090">
        <ele>1709.0</ele>
        <time>2020-09-11T06:41:32Z</time>
      </trkpt>
      <trkpt lat="42.7634850" lon="-0.2320640">
        <ele>1710.2</ele>
        <time>2020-09-11T06:41:36Z</time>
      </trkpt>
      <trkpt lat="42.7634840" lon="-0.2320410">
        <ele>1711.4</ele>
        <time>2020-09-11T06:41:40Z</time>
      </trkpt>
      <trkpt lat="42.7635020" lon="-0.2320520">
        <ele>1712.6</ele>
        <time>2020-09-11T06:41:45Z</time>
      </trkpt>
      <trkpt lat="42.7635060" lon="-0.2320780">
        <ele>1712.8</ele>
        <time>2020-09-11T06:41:47Z</time>
      </trkpt>
      <trkpt lat="42.7635320" lon="-0.2321240">
        <ele>1713.2</ele>
        <time>2020-09-11T06:41:52Z</time>
      </trkpt>
      <trkpt lat="42.7635420" lon="-0.2321290">
        <ele>1713.6</ele>
        <time>2020-09-11T06:41:54Z</time>
      </trkpt>
      <trkpt lat="42.7635720" lon="-0.2320780">
        <ele>1714.6</ele>
        <time>2020-09-11T06:41:59Z</time>
      </trkpt>
      <trkpt lat="42.7635750" lon="-0.2320700">
        <ele>1714.8</ele>
        <time>2020-09-11T06:42:00Z</time>
      </trkpt>
      <trkpt lat="42.7635880" lon="-0.2320400">
        <ele>1715.4</ele>
        <time>2020-09-11T06:42:03Z</time>
      </trkpt>
      <trkpt lat="42.7635910" lon="-0.2320250">
        <ele>1716.0</ele>
        <time>2020-09-11T06:42:05Z</time>
      </trkpt>
      <trkpt lat="42.7636350" lon="-0.2320350">
        <ele>1717.0</ele>
        <time>2020-09-11T06:42:10Z</time>
      </trkpt>
      <trkpt lat="42.7636660" lon="-0.2320710">
        <ele>1718.2</ele>
        <time>2020-09-11T06:42:16Z</time>
      </trkpt>
      <trkpt lat="42.7636930" lon="-0.2320800">
        <ele>1719.4</ele>
        <time>2020-09-11T06:42:21Z</time>
      </trkpt>
      <trkpt lat="42.7637240" lon="-0.2321110">
        <ele>1720.6</ele>
        <time>2020-09-11T06:42:26Z</time>
      </trkpt>
      <trkpt lat="42.7637670" lon="-0.2321540">
        <ele>1721.6</ele>
        <time>2020-09-11T06:42:31Z</time>
      </trkpt>
      <trkpt lat="42.7637740" lon="-0.2321640">
        <ele>1721.6</ele>
        <time>2020-09-11T06:42:32Z</time>
      </trkpt>
      <trkpt lat="42.7638020" lon="-0.2322120">
        <ele>1722.2</ele>
        <time>2020-09-11T06:42:37Z</time>
      </trkpt>
      <trkpt lat="42.7638120" lon="-0.2322510">
        <ele>1722.6</ele>
        <time>2020-09-11T06:42:40Z</time>
      </trkpt>
      <trkpt lat="42.7638210" lon="-0.2322710">
        <ele>1722.8</ele>
        <time>2020-09-11T06:42:42Z</time>
      </trkpt>
      <trkpt lat="42.7638580" lon="-0.2322960">
        <ele>1723.4</ele>
        <time>2020-09-11T06:42:46Z</time>
      </trkpt>
      <trkpt lat="42.7638640" lon="-0.2323080">
        <ele>1723.6</ele>
        <time>2020-09-11T06:42:47Z</time>
      </trkpt>
      <trkpt lat="42.7639090" lon="-0.2323840">
        <ele>1724.6</ele>
        <time>2020-09-11T06:42:53Z</time>
      </trkpt>
      <trkpt lat="42.7640420" lon="-0.2325470">
        <ele>1725.2</ele>
        <time>2020-09-11T06:43:07Z</time>
      </trkpt>
      <trkpt lat="42.7641220" lon="-0.2325650">
        <ele>1725.2</ele>
        <time>2020-09-11T06:43:14Z</time>
      </trkpt>
      <trkpt lat="42.7641440" lon="-0.2325100">
        <ele>1725.4</ele>
        <time>2020-09-11T06:43:17Z</time>
      </trkpt>
      <trkpt lat="42.7641570" lon="-0.2324510">
        <ele>1725.8</ele>
        <time>2020-09-11T06:43:20Z</time>
      </trkpt>
      <trkpt lat="42.7641690" lon="-0.2323470">
        <ele>1726.8</ele>
        <time>2020-09-11T06:43:27Z</time>
      </trkpt>
      <trkpt lat="42.7641650" lon="-0.2323070">
        <ele>1727.4</ele>
        <time>2020-09-11T06:43:30Z</time>
      </trkpt>
      <trkpt lat="42.7641650" lon="-0.2322970">
        <ele>1727.8</ele>
        <time>2020-09-11T06:43:32Z</time>
      </trkpt>
      <trkpt lat="42.7641650" lon="-0.2322910">
        <ele>1728.0</ele>
        <time>2020-09-11T06:43:33Z</time>
      </trkpt>
      <trkpt lat="42.7642000" lon="-0.2322930">
        <ele>1729.0</ele>
        <time>2020-09-11T06:43:37Z</time>
      </trkpt>
      <trkpt lat="42.7642080" lon="-0.2322950">
        <ele>1729.2</ele>
        <time>2020-09-11T06:43:38Z</time>
      </trkpt>
      <trkpt lat="42.7642550" lon="-0.2323120">
        <ele>1730.0</ele>
        <time>2020-09-11T06:43:43Z</time>
      </trkpt>
      <trkpt lat="42.7642670" lon="-0.2323030">
        <ele>1730.2</ele>
        <time>2020-09-11T06:43:44Z</time>
      </trkpt>
      <trkpt lat="42.7643160" lon="-0.2322650">
        <ele>1731.2</ele>
        <time>2020-09-11T06:43:49Z</time>
      </trkpt>
      <trkpt lat="42.7643320" lon="-0.2322590">
        <ele>1731.6</ele>
        <time>2020-09-11T06:43:51Z</time>
      </trkpt>
      <trkpt lat="42.7643910" lon="-0.2322700">
        <ele>1732.4</ele>
        <time>2020-09-11T06:43:56Z</time>
      </trkpt>
      <trkpt lat="42.7644400" lon="-0.2322900">
        <ele>1733.0</ele>
        <time>2020-09-11T06:44:02Z</time>
      </trkpt>
      <trkpt lat="42.7644450" lon="-0.2323080">
        <ele>1733.2</ele>
        <time>2020-09-11T06:44:04Z</time>
      </trkpt>
      <trkpt lat="42.7644500" lon="-0.2323260">
        <ele>1733.4</ele>
        <time>2020-09-11T06:44:06Z</time>
      </trkpt>
      <trkpt lat="42.7644750" lon="-0.2323510">
        <ele>1734.6</ele>
        <time>2020-09-11T06:44:11Z</time>
      </trkpt>
      <trkpt lat="42.7644970" lon="-0.2323610">
        <ele>1735.8</ele>
        <time>2020-09-11T06:44:18Z</time>
      </trkpt>
      <trkpt lat="42.7645340" lon="-0.2323840">
        <ele>1736.8</ele>
        <time>2020-09-11T06:44:23Z</time>
      </trkpt>
      <trkpt lat="42.7645560" lon="-0.2323820">
        <ele>1738.0</ele>
        <time>2020-09-11T06:44:29Z</time>
      </trkpt>
      <trkpt lat="42.7645620" lon="-0.2323460">
        <ele>1739.2</ele>
        <time>2020-09-11T06:44:33Z</time>
      </trkpt>
      <trkpt lat="42.7645850" lon="-0.2322680">
        <ele>1740.2</ele>
        <time>2020-09-11T06:44:40Z</time>
      </trkpt>
      <trkpt lat="42.7645860" lon="-0.2322080">
        <ele>1741.4</ele>
        <time>2020-09-11T06:44:44Z</time>
      </trkpt>
      <trkpt lat="42.7645910" lon="-0.2321160">
        <ele>1742.4</ele>
        <time>2020-09-11T06:44:53Z</time>
      </trkpt>
      <trkpt lat="42.7646680" lon="-0.2319160">
        <ele>1743.0</ele>
        <time>2020-09-11T06:45:09Z</time>
      </trkpt>
      <trkpt lat="42.7646910" lon="-0.2318900">
        <ele>1743.2</ele>
        <time>2020-09-11T06:45:12Z</time>
      </trkpt>
      <trkpt lat="42.7647000" lon="-0.2318820">
        <ele>1743.4</ele>
        <time>2020-09-11T06:45:14Z</time>
      </trkpt>
      <trkpt lat="42.7647050" lon="-0.2318780">
        <ele>1743.4</ele>
        <time>2020-09-11T06:45:15Z</time>
      </trkpt>
      <trkpt lat="42.7647520" lon="-0.2318740">
        <ele>1744.6</ele>
        <time>2020-09-11T06:45:22Z</time>
      </trkpt>
      <trkpt lat="42.7648070" lon="-0.2318720">
        <ele>1745.6</ele>
        <time>2020-09-11T06:45:28Z</time>
      </trkpt>
      <trkpt lat="42.7648660" lon="-0.2318410">
        <ele>1746.0</ele>
        <time>2020-09-11T06:45:35Z</time>
      </trkpt>
      <trkpt lat="42.7649320" lon="-0.2318150">
        <ele>1745.8</ele>
        <time>2020-09-11T06:45:41Z</time>
      </trkpt>
      <trkpt lat="42.7649960" lon="-0.2318200">
        <ele>1745.8</ele>
        <time>2020-09-11T06:45:45Z</time>
      </trkpt>
      <trkpt lat="42.7650280" lon="-0.2318150">
        <ele>1746.0</ele>
        <time>2020-09-11T06:45:48Z</time>
      </trkpt>
      <trkpt lat="42.7650500" lon="-0.2318080">
        <ele>1746.2</ele>
        <time>2020-09-11T06:45:50Z</time>
      </trkpt>
      <trkpt lat="42.7650720" lon="-0.2317790">
        <ele>1746.6</ele>
        <time>2020-09-11T06:45:53Z</time>
      </trkpt>
      <trkpt lat="42.7650880" lon="-0.2317640">
        <ele>1746.8</ele>
        <time>2020-09-11T06:45:55Z</time>
      </trkpt>
      <trkpt lat="42.7651370" lon="-0.2317610">
        <ele>1747.0</ele>
        <time>2020-09-11T06:45:59Z</time>
      </trkpt>
      <trkpt lat="42.7651540" lon="-0.2317500">
        <ele>1747.2</ele>
        <time>2020-09-11T06:46:01Z</time>
      </trkpt>
      <trkpt lat="42.7651790" lon="-0.2317360">
        <ele>1747.0</ele>
        <time>2020-09-11T06:46:05Z</time>
      </trkpt>
      <trkpt lat="42.7652920" lon="-0.2317120">
        <ele>1747.8</ele>
        <time>2020-09-11T06:46:14Z</time>
      </trkpt>
      <trkpt lat="42.7653360" lon="-0.2316860">
        <ele>1749.2</ele>
        <time>2020-09-11T06:46:18Z</time>
      </trkpt>
      <trkpt lat="42.7653490" lon="-0.2315500">
        <ele>1750.0</ele>
        <time>2020-09-11T06:46:22Z</time>
      </trkpt>
      <trkpt lat="42.7653520" lon="-0.2315130">
        <ele>1750.2</ele>
        <time>2020-09-11T06:46:23Z</time>
      </trkpt>
      <trkpt lat="42.7653570" lon="-0.2314810">
        <ele>1750.4</ele>
        <time>2020-09-11T06:46:24Z</time>
      </trkpt>
      <trkpt lat="42.7653860" lon="-0.2314420">
        <ele>1750.6</ele>
        <time>2020-09-11T06:46:28Z</time>
      </trkpt>
      <trkpt lat="42.7654270" lon="-0.2314970">
        <ele>1751.0</ele>
        <time>2020-09-11T06:46:32Z</time>
      </trkpt>
      <trkpt lat="42.7654400" lon="-0.2315210">
        <ele>1751.4</ele>
        <time>2020-09-11T06:46:34Z</time>
      </trkpt>
      <trkpt lat="42.7654620" lon="-0.2315410">
        <ele>1751.6</ele>
        <time>2020-09-11T06:46:37Z</time>
      </trkpt>
      <trkpt lat="42.7654910" lon="-0.2315960">
        <ele>1750.6</ele>
        <time>2020-09-11T06:46:43Z</time>
      </trkpt>
      <trkpt lat="42.7654950" lon="-0.2316160">
        <ele>1750.4</ele>
        <time>2020-09-11T06:46:44Z</time>
      </trkpt>
      <trkpt lat="42.7655000" lon="-0.2316340">
        <ele>1750.2</ele>
        <time>2020-09-11T06:46:45Z</time>
      </trkpt>
      <trkpt lat="42.7655200" lon="-0.2316450">
        <ele>1749.6</ele>
        <time>2020-09-11T06:46:48Z</time>
      </trkpt>
      <trkpt lat="42.7655320" lon="-0.2316320">
        <ele>1749.4</ele>
        <time>2020-09-11T06:46:50Z</time>
      </trkpt>
      <trkpt lat="42.7655530" lon="-0.2316070">
        <ele>1749.2</ele>
        <time>2020-09-11T06:46:52Z</time>
      </trkpt>
      <trkpt lat="42.7655740" lon="-0.2315860">
        <ele>1749.6</ele>
        <time>2020-09-11T06:46:55Z</time>
      </trkpt>
      <trkpt lat="42.7655750" lon="-0.2315670">
        <ele>1750.0</ele>
        <time>2020-09-11T06:46:57Z</time>
      </trkpt>
      <trkpt lat="42.7655980" lon="-0.2314970">
        <ele>1750.0</ele>
        <time>2020-09-11T06:47:02Z</time>
      </trkpt>
      <trkpt lat="42.7655820" lon="-0.2314470">
        <ele>1750.4</ele>
        <time>2020-09-11T06:47:04Z</time>
      </trkpt>
      <trkpt lat="42.7655810" lon="-0.2314290">
        <ele>1750.6</ele>
        <time>2020-09-11T06:47:05Z</time>
      </trkpt>
      <trkpt lat="42.7655880" lon="-0.2314280">
        <ele>1750.8</ele>
        <time>2020-09-11T06:47:06Z</time>
      </trkpt>
      <trkpt lat="42.7655840" lon="-0.2313970">
        <ele>1751.0</ele>
        <time>2020-09-11T06:47:09Z</time>
      </trkpt>
      <trkpt lat="42.7655630" lon="-0.2313690">
        <ele>1751.4</ele>
        <time>2020-09-11T06:47:12Z</time>
      </trkpt>
      <trkpt lat="42.7655760" lon="-0.2314170">
        <ele>1751.6</ele>
        <time>2020-09-11T06:47:15Z</time>
      </trkpt>
      <trkpt lat="42.7655770" lon="-0.2314360">
        <ele>1751.8</ele>
        <time>2020-09-11T06:47:16Z</time>
      </trkpt>
      <trkpt lat="42.7656070" lon="-0.2314660">
        <ele>1752.8</ele>
        <time>2020-09-11T06:47:19Z</time>
      </trkpt>
      <trkpt lat="42.7656320" lon="-0.2314730">
        <ele>1754.0</ele>
        <time>2020-09-11T06:47:25Z</time>
      </trkpt>
      <trkpt lat="42.7656540" lon="-0.2314670">
        <ele>1755.0</ele>
        <time>2020-09-11T06:47:30Z</time>
      </trkpt>
      <trkpt lat="42.7656930" lon="-0.2314640">
        <ele>1756.2</ele>
        <time>2020-09-11T06:47:36Z</time>
      </trkpt>
      <trkpt lat="42.7657120" lon="-0.2314300">
        <ele>1757.2</ele>
        <time>2020-09-11T06:47:41Z</time>
      </trkpt>
      <trkpt lat="42.7657350" lon="-0.2314280">
        <ele>1758.2</ele>
        <time>2020-09-11T06:47:47Z</time>
      </trkpt>
      <trkpt lat="42.7657280" lon="-0.2313850">
        <ele>1759.4</ele>
        <time>2020-09-11T06:47:53Z</time>
      </trkpt>
      <trkpt lat="42.7657100" lon="-0.2313840">
        <ele>1759.6</ele>
        <time>2020-09-11T06:47:55Z</time>
      </trkpt>
      <trkpt lat="42.7656920" lon="-0.2313680">
        <ele>1760.2</ele>
        <time>2020-09-11T06:47:58Z</time>
      </trkpt>
      <trkpt lat="42.7656910" lon="-0.2313420">
        <ele>1760.4</ele>
        <time>2020-09-11T06:48:00Z</time>
      </trkpt>
      <trkpt lat="42.7656930" lon="-0.2313320">
        <ele>1760.4</ele>
        <time>2020-09-11T06:48:01Z</time>
      </trkpt>
      <trkpt lat="42.7656920" lon="-0.2313170">
        <ele>1760.6</ele>
        <time>2020-09-11T06:48:03Z</time>
      </trkpt>
      <trkpt lat="42.7657110" lon="-0.2313160">
        <ele>1761.6</ele>
        <time>2020-09-11T06:48:09Z</time>
      </trkpt>
      <trkpt lat="42.7657160" lon="-0.2313440">
        <ele>1762.8</ele>
        <time>2020-09-11T06:48:13Z</time>
      </trkpt>
      <trkpt lat="42.7656910" lon="-0.2313400">
        <ele>1763.8</ele>
        <time>2020-09-11T06:48:18Z</time>
      </trkpt>
      <trkpt lat="42.7656540" lon="-0.2313290">
        <ele>1764.8</ele>
        <time>2020-09-11T06:48:27Z</time>
      </trkpt>
      <trkpt lat="42.7656380" lon="-0.2313660">
        <ele>1765.8</ele>
        <time>2020-09-11T06:48:31Z</time>
      </trkpt>
      <trkpt lat="42.7656370" lon="-0.2313660">
        <ele>1765.8</ele>
        <time>2020-09-11T06:48:33Z</time>
      </trkpt>
      <trkpt lat="42.7656210" lon="-0.2315800">
        <ele>1765.8</ele>
        <time>2020-09-11T06:49:34Z</time>
      </trkpt>
      <trkpt lat="42.7655850" lon="-0.2314990">
        <ele>1766.0</ele>
        <time>2020-09-11T06:50:17Z</time>
      </trkpt>
      <trkpt lat="42.7656310" lon="-0.2315340">
        <ele>1767.2</ele>
        <time>2020-09-11T06:50:24Z</time>
      </trkpt>
      <trkpt lat="42.7656710" lon="-0.2315360">
        <ele>1767.2</ele>
        <time>2020-09-11T06:50:27Z</time>
      </trkpt>
      <trkpt lat="42.7657310" lon="-0.2315160">
        <ele>1767.8</ele>
        <time>2020-09-11T06:50:32Z</time>
      </trkpt>
      <trkpt lat="42.7657590" lon="-0.2315080">
        <ele>1768.2</ele>
        <time>2020-09-11T06:50:34Z</time>
      </trkpt>
      <trkpt lat="42.7657720" lon="-0.2315070">
        <ele>1768.2</ele>
        <time>2020-09-11T06:50:35Z</time>
      </trkpt>
      <trkpt lat="42.7657870" lon="-0.2315050">
        <ele>1768.4</ele>
        <time>2020-09-11T06:50:36Z</time>
      </trkpt>
      <trkpt lat="42.7658540" lon="-0.2315100">
        <ele>1769.4</ele>
        <time>2020-09-11T06:50:44Z</time>
      </trkpt>
      <trkpt lat="42.7658630" lon="-0.2315130">
        <ele>1769.8</ele>
        <time>2020-09-11T06:50:46Z</time>
      </trkpt>
      <trkpt lat="42.7658900" lon="-0.2315090">
        <ele>1770.4</ele>
        <time>2020-09-11T06:50:49Z</time>
      </trkpt>
      <trkpt lat="42.7659140" lon="-0.2315120">
        <ele>1771.0</ele>
        <time>2020-09-11T06:50:51Z</time>
      </trkpt>
      <trkpt lat="42.7659420" lon="-0.2315220">
        <ele>1771.6</ele>
        <time>2020-09-11T06:50:54Z</time>
      </trkpt>
      <trkpt lat="42.7659730" lon="-0.2315230">
        <ele>1772.0</ele>
        <time>2020-09-11T06:50:57Z</time>
      </trkpt>
      <trkpt lat="42.7659980" lon="-0.2315210">
        <ele>1772.6</ele>
        <time>2020-09-11T06:51:00Z</time>
      </trkpt>
      <trkpt lat="42.7660050" lon="-0.2315260">
        <ele>1772.6</ele>
        <time>2020-09-11T06:51:01Z</time>
      </trkpt>
      <trkpt lat="42.7660270" lon="-0.2315360">
        <ele>1773.2</ele>
        <time>2020-09-11T06:51:04Z</time>
      </trkpt>
      <trkpt lat="42.7660450" lon="-0.2315380">
        <ele>1773.6</ele>
        <time>2020-09-11T06:51:06Z</time>
      </trkpt>
      <trkpt lat="42.7660750" lon="-0.2315300">
        <ele>1774.4</ele>
        <time>2020-09-11T06:51:11Z</time>
      </trkpt>
      <trkpt lat="42.7660970" lon="-0.2315100">
        <ele>1774.6</ele>
        <time>2020-09-11T06:51:12Z</time>
      </trkpt>
      <trkpt lat="42.7661170" lon="-0.2314680">
        <ele>1775.2</ele>
        <time>2020-09-11T06:51:14Z</time>
      </trkpt>
      <trkpt lat="42.7661300" lon="-0.2314510">
        <ele>1775.8</ele>
        <time>2020-09-11T06:51:17Z</time>
      </trkpt>
      <trkpt lat="42.7661100" lon="-0.2313740">
        <ele>1776.8</ele>
        <time>2020-09-11T06:51:24Z</time>
      </trkpt>
      <trkpt lat="42.7661050" lon="-0.2313670">
        <ele>1777.0</ele>
        <time>2020-09-11T06:51:25Z</time>
      </trkpt>
      <trkpt lat="42.7660940" lon="-0.2313510">
        <ele>1777.4</ele>
        <time>2020-09-11T06:51:27Z</time>
      </trkpt>
      <trkpt lat="42.7660830" lon="-0.2313430">
        <ele>1778.0</ele>
        <time>2020-09-11T06:51:30Z</time>
      </trkpt>
      <trkpt lat="42.7660830" lon="-0.2312440">
        <ele>1779.0</ele>
        <time>2020-09-11T06:51:39Z</time>
      </trkpt>
      <trkpt lat="42.7660670" lon="-0.2311950">
        <ele>1780.0</ele>
        <time>2020-09-11T06:51:43Z</time>
      </trkpt>
      <trkpt lat="42.7660220" lon="-0.2312010">
        <ele>1781.2</ele>
        <time>2020-09-11T06:51:49Z</time>
      </trkpt>
      <trkpt lat="42.7660050" lon="-0.2311950">
        <ele>1781.6</ele>
        <time>2020-09-11T06:51:51Z</time>
      </trkpt>
      <trkpt lat="42.7659810" lon="-0.2311800">
        <ele>1782.0</ele>
        <time>2020-09-11T06:51:55Z</time>
      </trkpt>
      <trkpt lat="42.7659750" lon="-0.2311740">
        <ele>1782.4</ele>
        <time>2020-09-11T06:51:57Z</time>
      </trkpt>
      <trkpt lat="42.7659410" lon="-0.2311570">
        <ele>1783.0</ele>
        <time>2020-09-11T06:52:00Z</time>
      </trkpt>
      <trkpt lat="42.7659180" lon="-0.2311290">
        <ele>1783.4</ele>
        <time>2020-09-11T06:52:03Z</time>
      </trkpt>
      <trkpt lat="42.7659030" lon="-0.2311090">
        <ele>1784.0</ele>
        <time>2020-09-11T06:52:05Z</time>
      </trkpt>
      <trkpt lat="42.7659000" lon="-0.2310940">
        <ele>1784.6</ele>
        <time>2020-09-11T06:52:07Z</time>
      </trkpt>
      <trkpt lat="42.7659440" lon="-0.2310520">
        <ele>1785.8</ele>
        <time>2020-09-11T06:52:14Z</time>
      </trkpt>
      <trkpt lat="42.7660100" lon="-0.2310880">
        <ele>1786.8</ele>
        <time>2020-09-11T06:52:21Z</time>
      </trkpt>
      <trkpt lat="42.7660310" lon="-0.2310480">
        <ele>1787.6</ele>
        <time>2020-09-11T06:52:25Z</time>
      </trkpt>
      <trkpt lat="42.7660280" lon="-0.2310390">
        <ele>1788.0</ele>
        <time>2020-09-11T06:52:27Z</time>
      </trkpt>
      <trkpt lat="42.7660690" lon="-0.2310340">
        <ele>1789.0</ele>
        <time>2020-09-11T06:52:43Z</time>
      </trkpt>
      <trkpt lat="42.7660730" lon="-0.2310710">
        <ele>1789.4</ele>
        <time>2020-09-11T06:52:45Z</time>
      </trkpt>
      <trkpt lat="42.7660910" lon="-0.2311020">
        <ele>1790.0</ele>
        <time>2020-09-11T06:52:48Z</time>
      </trkpt>
      <trkpt lat="42.7660990" lon="-0.2311180">
        <ele>1790.2</ele>
        <time>2020-09-11T06:52:49Z</time>
      </trkpt>
      <trkpt lat="42.7661360" lon="-0.2311550">
        <ele>1791.0</ele>
        <time>2020-09-11T06:52:55Z</time>
      </trkpt>
      <trkpt lat="42.7661400" lon="-0.2311660">
        <ele>1791.2</ele>
        <time>2020-09-11T06:52:56Z</time>
      </trkpt>
      <trkpt lat="42.7661430" lon="-0.2311760">
        <ele>1791.4</ele>
        <time>2020-09-11T06:52:57Z</time>
      </trkpt>
      <trkpt lat="42.7661600" lon="-0.2312250">
        <ele>1792.2</ele>
        <time>2020-09-11T06:53:01Z</time>
      </trkpt>
      <trkpt lat="42.7661590" lon="-0.2312460">
        <ele>1792.6</ele>
        <time>2020-09-11T06:53:03Z</time>
      </trkpt>
      <trkpt lat="42.7662100" lon="-0.2312360">
        <ele>1793.2</ele>
        <time>2020-09-11T06:53:06Z</time>
      </trkpt>
      <trkpt lat="42.7662170" lon="-0.2312420">
        <ele>1793.4</ele>
        <time>2020-09-11T06:53:07Z</time>
      </trkpt>
      <trkpt lat="42.7662200" lon="-0.2312380">
        <ele>1794.0</ele>
        <time>2020-09-11T06:53:09Z</time>
      </trkpt>
      <trkpt lat="42.7662230" lon="-0.2312460">
        <ele>1794.4</ele>
        <time>2020-09-11T06:53:11Z</time>
      </trkpt>
      <trkpt lat="42.7662380" lon="-0.2312600">
        <ele>1795.0</ele>
        <time>2020-09-11T06:53:14Z</time>
      </trkpt>
      <trkpt lat="42.7662650" lon="-0.2313030">
        <ele>1795.4</ele>
        <time>2020-09-11T06:53:16Z</time>
      </trkpt>
      <trkpt lat="42.7662640" lon="-0.2313290">
        <ele>1796.0</ele>
        <time>2020-09-11T06:53:18Z</time>
      </trkpt>
      <trkpt lat="42.7662740" lon="-0.2313230">
        <ele>1796.4</ele>
        <time>2020-09-11T06:53:20Z</time>
      </trkpt>
      <trkpt lat="42.7662730" lon="-0.2313100">
        <ele>1796.4</ele>
        <time>2020-09-11T06:53:21Z</time>
      </trkpt>
      <trkpt lat="42.7662750" lon="-0.2312790">
        <ele>1796.6</ele>
        <time>2020-09-11T06:53:22Z</time>
      </trkpt>
      <trkpt lat="42.7663270" lon="-0.2311620">
        <ele>1797.0</ele>
        <time>2020-09-11T06:53:25Z</time>
      </trkpt>
      <trkpt lat="42.7663360" lon="-0.2311230">
        <ele>1797.2</ele>
        <time>2020-09-11T06:53:27Z</time>
      </trkpt>
      <trkpt lat="42.7663200" lon="-0.2310910">
        <ele>1797.4</ele>
        <time>2020-09-11T06:53:29Z</time>
      </trkpt>
      <trkpt lat="42.7663020" lon="-0.2310710">
        <ele>1797.6</ele>
        <time>2020-09-11T06:53:31Z</time>
      </trkpt>
      <trkpt lat="42.7662990" lon="-0.2310490">
        <ele>1798.2</ele>
        <time>2020-09-11T06:53:33Z</time>
      </trkpt>
      <trkpt lat="42.7662960" lon="-0.2310280">
        <ele>1798.6</ele>
        <time>2020-09-11T06:53:35Z</time>
      </trkpt>
      <trkpt lat="42.7662970" lon="-0.2310150">
        <ele>1799.0</ele>
        <time>2020-09-11T06:53:37Z</time>
      </trkpt>
      <trkpt lat="42.7663230" lon="-0.2309850">
        <ele>1799.4</ele>
        <time>2020-09-11T06:53:41Z</time>
      </trkpt>
      <trkpt lat="42.7663240" lon="-0.2309710">
        <ele>1799.8</ele>
        <time>2020-09-11T06:53:43Z</time>
      </trkpt>
      <trkpt lat="42.7663080" lon="-0.2309630">
        <ele>1800.4</ele>
        <time>2020-09-11T06:53:45Z</time>
      </trkpt>
      <trkpt lat="42.7662970" lon="-0.2309580">
        <ele>1800.8</ele>
        <time>2020-09-11T06:53:46Z</time>
      </trkpt>
      <trkpt lat="42.7662870" lon="-0.2309540">
        <ele>1801.2</ele>
        <time>2020-09-11T06:53:47Z</time>
      </trkpt>
      <trkpt lat="42.7662700" lon="-0.2309280">
        <ele>1801.6</ele>
        <time>2020-09-11T06:53:50Z</time>
      </trkpt>
      <trkpt lat="42.7662670" lon="-0.2309170">
        <ele>1801.8</ele>
        <time>2020-09-11T06:53:51Z</time>
      </trkpt>
      <trkpt lat="42.7662670" lon="-0.2309070">
        <ele>1802.0</ele>
        <time>2020-09-11T06:53:52Z</time>
      </trkpt>
      <trkpt lat="42.7662650" lon="-0.2308900">
        <ele>1802.4</ele>
        <time>2020-09-11T06:53:54Z</time>
      </trkpt>
      <trkpt lat="42.7662640" lon="-0.2308700">
        <ele>1803.0</ele>
        <time>2020-09-11T06:53:58Z</time>
      </trkpt>
      <trkpt lat="42.7662680" lon="-0.2308260">
        <ele>1804.0</ele>
        <time>2020-09-11T06:54:04Z</time>
      </trkpt>
      <trkpt lat="42.7663020" lon="-0.2307650">
        <ele>1805.0</ele>
        <time>2020-09-11T06:54:09Z</time>
      </trkpt>
      <trkpt lat="42.7663200" lon="-0.2307530">
        <ele>1805.4</ele>
        <time>2020-09-11T06:54:11Z</time>
      </trkpt>
      <trkpt lat="42.7663020" lon="-0.2307180">
        <ele>1805.8</ele>
        <time>2020-09-11T06:54:15Z</time>
      </trkpt>
      <trkpt lat="42.7662810" lon="-0.2307010">
        <ele>1806.2</ele>
        <time>2020-09-11T06:54:17Z</time>
      </trkpt>
      <trkpt lat="42.7662700" lon="-0.2306860">
        <ele>1806.6</ele>
        <time>2020-09-11T06:54:20Z</time>
      </trkpt>
      <trkpt lat="42.7662680" lon="-0.2306880">
        <ele>1807.2</ele>
        <time>2020-09-11T06:54:22Z</time>
      </trkpt>
      <trkpt lat="42.7662940" lon="-0.2307060">
        <ele>1808.0</ele>
        <time>2020-09-11T06:54:26Z</time>
      </trkpt>
      <trkpt lat="42.7663010" lon="-0.2307050">
        <ele>1808.2</ele>
        <time>2020-09-11T06:54:28Z</time>
      </trkpt>
      <trkpt lat="42.7663240" lon="-0.2307440">
        <ele>1809.2</ele>
        <time>2020-09-11T06:54:33Z</time>
      </trkpt>
      <trkpt lat="42.7663310" lon="-0.2307900">
        <ele>1809.8</ele>
        <time>2020-09-11T06:54:37Z</time>
      </trkpt>
      <trkpt lat="42.7663460" lon="-0.2308120">
        <ele>1810.4</ele>
        <time>2020-09-11T06:54:40Z</time>
      </trkpt>
      <trkpt lat="42.7663720" lon="-0.2308550">
        <ele>1811.6</ele>
        <time>2020-09-11T06:54:48Z</time>
      </trkpt>
      <trkpt lat="42.7664000" lon="-0.2307630">
        <ele>1812.6</ele>
        <time>2020-09-11T06:54:52Z</time>
      </trkpt>
      <trkpt lat="42.7663990" lon="-0.2307510">
        <ele>1812.8</ele>
        <time>2020-09-11T06:54:53Z</time>
      </trkpt>
      <trkpt lat="42.7663730" lon="-0.2307170">
        <ele>1813.2</ele>
        <time>2020-09-11T06:54:57Z</time>
      </trkpt>
      <trkpt lat="42.7663700" lon="-0.2307030">
        <ele>1813.6</ele>
        <time>2020-09-11T06:54:59Z</time>
      </trkpt>
      <trkpt lat="42.7663600" lon="-0.2306850">
        <ele>1814.2</ele>
        <time>2020-09-11T06:55:02Z</time>
      </trkpt>
      <trkpt lat="42.7663650" lon="-0.2306960">
        <ele>1814.6</ele>
        <time>2020-09-11T06:55:05Z</time>
      </trkpt>
      <trkpt lat="42.7664170" lon="-0.2307650">
        <ele>1815.4</ele>
        <time>2020-09-11T06:55:09Z</time>
      </trkpt>
      <trkpt lat="42.7664360" lon="-0.2307610">
        <ele>1815.6</ele>
        <time>2020-09-11T06:55:11Z</time>
      </trkpt>
      <trkpt lat="42.7664410" lon="-0.2307620">
        <ele>1815.8</ele>
        <time>2020-09-11T06:55:12Z</time>
      </trkpt>
      <trkpt lat="42.7664580" lon="-0.2307730">
        <ele>1816.0</ele>
        <time>2020-09-11T06:55:14Z</time>
      </trkpt>
      <trkpt lat="42.7664700" lon="-0.2307910">
        <ele>1816.4</ele>
        <time>2020-09-11T06:55:16Z</time>
      </trkpt>
      <trkpt lat="42.7664820" lon="-0.2308050">
        <ele>1817.0</ele>
        <time>2020-09-11T06:55:18Z</time>
      </trkpt>
      <trkpt lat="42.7664930" lon="-0.2308190">
        <ele>1817.2</ele>
        <time>2020-09-11T06:55:20Z</time>
      </trkpt>
      <trkpt lat="42.7665120" lon="-0.2308310">
        <ele>1817.8</ele>
        <time>2020-09-11T06:55:23Z</time>
      </trkpt>
      <trkpt lat="42.7665200" lon="-0.2308300">
        <ele>1818.0</ele>
        <time>2020-09-11T06:55:24Z</time>
      </trkpt>
      <trkpt lat="42.7665580" lon="-0.2308260">
        <ele>1818.8</ele>
        <time>2020-09-11T06:55:28Z</time>
      </trkpt>
      <trkpt lat="42.7665740" lon="-0.2308150">
        <ele>1819.0</ele>
        <time>2020-09-11T06:55:30Z</time>
      </trkpt>
      <trkpt lat="42.7665850" lon="-0.2308050">
        <ele>1819.2</ele>
        <time>2020-09-11T06:55:31Z</time>
      </trkpt>
      <trkpt lat="42.7666220" lon="-0.2307780">
        <ele>1819.6</ele>
        <time>2020-09-11T06:55:34Z</time>
      </trkpt>
      <trkpt lat="42.7666860" lon="-0.2307850">
        <ele>1819.8</ele>
        <time>2020-09-11T06:55:41Z</time>
      </trkpt>
      <trkpt lat="42.7666980" lon="-0.2307910">
        <ele>1820.4</ele>
        <time>2020-09-11T06:55:43Z</time>
      </trkpt>
      <trkpt lat="42.7667290" lon="-0.2307800">
        <ele>1820.8</ele>
        <time>2020-09-11T06:55:45Z</time>
      </trkpt>
      <trkpt lat="42.7667490" lon="-0.2307460">
        <ele>1821.4</ele>
        <time>2020-09-11T06:55:48Z</time>
      </trkpt>
      <trkpt lat="42.7667730" lon="-0.2306730">
        <ele>1822.6</ele>
        <time>2020-09-11T06:55:55Z</time>
      </trkpt>
      <trkpt lat="42.7667560" lon="-0.2306540">
        <ele>1822.8</ele>
        <time>2020-09-11T06:55:57Z</time>
      </trkpt>
      <trkpt lat="42.7667510" lon="-0.2306050">
        <ele>1823.6</ele>
        <time>2020-09-11T06:56:00Z</time>
      </trkpt>
      <trkpt lat="42.7667370" lon="-0.2305560">
        <ele>1824.2</ele>
        <time>2020-09-11T06:56:03Z</time>
      </trkpt>
      <trkpt lat="42.7667320" lon="-0.2305310">
        <ele>1824.6</ele>
        <time>2020-09-11T06:56:05Z</time>
      </trkpt>
      <trkpt lat="42.7667270" lon="-0.2305220">
        <ele>1824.6</ele>
        <time>2020-09-11T06:56:06Z</time>
      </trkpt>
      <trkpt lat="42.7667360" lon="-0.2305190">
        <ele>1825.8</ele>
        <time>2020-09-11T06:56:11Z</time>
      </trkpt>
      <trkpt lat="42.7667810" lon="-0.2305660">
        <ele>1826.8</ele>
        <time>2020-09-11T06:56:20Z</time>
      </trkpt>
      <trkpt lat="42.7668270" lon="-0.2305930">
        <ele>1827.4</ele>
        <time>2020-09-11T06:56:25Z</time>
      </trkpt>
      <trkpt lat="42.7668450" lon="-0.2305970">
        <ele>1827.8</ele>
        <time>2020-09-11T06:56:30Z</time>
      </trkpt>
      <trkpt lat="42.7669060" lon="-0.2306100">
        <ele>1829.0</ele>
        <time>2020-09-11T06:56:35Z</time>
      </trkpt>
      <trkpt lat="42.7669620" lon="-0.2306210">
        <ele>1828.0</ele>
        <time>2020-09-11T06:56:42Z</time>
      </trkpt>
      <trkpt lat="42.7669640" lon="-0.2306240">
        <ele>1828.0</ele>
        <time>2020-09-11T06:56:43Z</time>
      </trkpt>
      <trkpt lat="42.7669880" lon="-0.2306220">
        <ele>1827.8</ele>
        <time>2020-09-11T06:56:47Z</time>
      </trkpt>
      <trkpt lat="42.7670070" lon="-0.2306210">
        <ele>1827.8</ele>
        <time>2020-09-11T06:56:49Z</time>
      </trkpt>
      <trkpt lat="42.7670550" lon="-0.2306100">
        <ele>1827.6</ele>
        <time>2020-09-11T06:56:54Z</time>
      </trkpt>
      <trkpt lat="42.7671130" lon="-0.2306360">
        <ele>1829.0</ele>
        <time>2020-09-11T06:57:01Z</time>
      </trkpt>
      <trkpt lat="42.7671470" lon="-0.2306460">
        <ele>1829.8</ele>
        <time>2020-09-11T06:57:05Z</time>
      </trkpt>
      <trkpt lat="42.7671720" lon="-0.2306450">
        <ele>1830.2</ele>
        <time>2020-09-11T06:57:07Z</time>
      </trkpt>
      <trkpt lat="42.7671920" lon="-0.2306090">
        <ele>1831.0</ele>
        <time>2020-09-11T06:57:10Z</time>
      </trkpt>
      <trkpt lat="42.7672010" lon="-0.2306020">
        <ele>1831.2</ele>
        <time>2020-09-11T06:57:11Z</time>
      </trkpt>
      <trkpt lat="42.7672410" lon="-0.2305910">
        <ele>1832.0</ele>
        <time>2020-09-11T06:57:15Z</time>
      </trkpt>
      <trkpt lat="42.7672600" lon="-0.2306000">
        <ele>1832.4</ele>
        <time>2020-09-11T06:57:17Z</time>
      </trkpt>
      <trkpt lat="42.7672760" lon="-0.2306550">
        <ele>1833.2</ele>
        <time>2020-09-11T06:57:21Z</time>
      </trkpt>
      <trkpt lat="42.7672770" lon="-0.2306710">
        <ele>1833.4</ele>
        <time>2020-09-11T06:57:22Z</time>
      </trkpt>
      <trkpt lat="42.7672780" lon="-0.2306830">
        <ele>1833.8</ele>
        <time>2020-09-11T06:57:23Z</time>
      </trkpt>
      <trkpt lat="42.7673050" lon="-0.2307050">
        <ele>1834.2</ele>
        <time>2020-09-11T06:57:27Z</time>
      </trkpt>
      <trkpt lat="42.7673210" lon="-0.2306950">
        <ele>1834.6</ele>
        <time>2020-09-11T06:57:30Z</time>
      </trkpt>
      <trkpt lat="42.7673460" lon="-0.2306920">
        <ele>1835.8</ele>
        <time>2020-09-11T06:57:35Z</time>
      </trkpt>
      <trkpt lat="42.7673660" lon="-0.2306680">
        <ele>1836.8</ele>
        <time>2020-09-11T06:57:41Z</time>
      </trkpt>
      <trkpt lat="42.7674320" lon="-0.2306430">
        <ele>1837.8</ele>
        <time>2020-09-11T06:57:50Z</time>
      </trkpt>
      <trkpt lat="42.7675660" lon="-0.2306800">
        <ele>1839.0</ele>
        <time>2020-09-11T06:58:02Z</time>
      </trkpt>
      <trkpt lat="42.7675740" lon="-0.2306740">
        <ele>1839.0</ele>
        <time>2020-09-11T06:58:03Z</time>
      </trkpt>
      <trkpt lat="42.7675920" lon="-0.2306620">
        <ele>1839.2</ele>
        <time>2020-09-11T06:58:05Z</time>
      </trkpt>
      <trkpt lat="42.7676690" lon="-0.2306060">
        <ele>1840.0</ele>
        <time>2020-09-11T06:58:13Z</time>
      </trkpt>
      <trkpt lat="42.7676910" lon="-0.2305950">
        <ele>1840.6</ele>
        <time>2020-09-11T06:58:16Z</time>
      </trkpt>
      <trkpt lat="42.7677100" lon="-0.2305860">
        <ele>1841.2</ele>
        <time>2020-09-11T06:58:18Z</time>
      </trkpt>
      <trkpt lat="42.7677550" lon="-0.2305600">
        <ele>1842.0</ele>
        <time>2020-09-11T06:58:23Z</time>
      </trkpt>
      <trkpt lat="42.7677720" lon="-0.2305760">
        <ele>1842.6</ele>
        <time>2020-09-11T06:58:25Z</time>
      </trkpt>
      <trkpt lat="42.7677810" lon="-0.2305820">
        <ele>1842.8</ele>
        <time>2020-09-11T06:58:26Z</time>
      </trkpt>
      <trkpt lat="42.7678160" lon="-0.2305900">
        <ele>1843.8</ele>
        <time>2020-09-11T06:58:29Z</time>
      </trkpt>
      <trkpt lat="42.7679960" lon="-0.2305610">
        <ele>1843.4</ele>
        <time>2020-09-11T06:58:42Z</time>
      </trkpt>
      <trkpt lat="42.7681570" lon="-0.2304510">
        <ele>1843.6</ele>
        <time>2020-09-11T06:58:55Z</time>
      </trkpt>
      <trkpt lat="42.7682800" lon="-0.2302750">
        <ele>1844.6</ele>
        <time>2020-09-11T06:59:07Z</time>
      </trkpt>
      <trkpt lat="42.7682880" lon="-0.2302650">
        <ele>1844.6</ele>
        <time>2020-09-11T06:59:08Z</time>
      </trkpt>
      <trkpt lat="42.7683160" lon="-0.2302290">
        <ele>1844.6</ele>
        <time>2020-09-11T06:59:11Z</time>
      </trkpt>
      <trkpt lat="42.7683350" lon="-0.2301780">
        <ele>1844.8</ele>
        <time>2020-09-11T06:59:14Z</time>
      </trkpt>
      <trkpt lat="42.7684220" lon="-0.2300380">
        <ele>1845.8</ele>
        <time>2020-09-11T06:59:24Z</time>
      </trkpt>
      <trkpt lat="42.7684540" lon="-0.2300070">
        <ele>1846.8</ele>
        <time>2020-09-11T06:59:29Z</time>
      </trkpt>
      <trkpt lat="42.7684810" lon="-0.2300130">
        <ele>1847.6</ele>
        <time>2020-09-11T06:59:33Z</time>
      </trkpt>
      <trkpt lat="42.7684920" lon="-0.2300270">
        <ele>1848.0</ele>
        <time>2020-09-11T06:59:35Z</time>
      </trkpt>
      <trkpt lat="42.7684970" lon="-0.2300250">
        <ele>1848.2</ele>
        <time>2020-09-11T06:59:36Z</time>
      </trkpt>
      <trkpt lat="42.7685100" lon="-0.2300240">
        <ele>1849.2</ele>
        <time>2020-09-11T06:59:39Z</time>
      </trkpt>
      <trkpt lat="42.7685430" lon="-0.2300340">
        <ele>1850.4</ele>
        <time>2020-09-11T06:59:45Z</time>
      </trkpt>
      <trkpt lat="42.7685530" lon="-0.2301000">
        <ele>1851.2</ele>
        <time>2020-09-11T06:59:49Z</time>
      </trkpt>
      <trkpt lat="42.7685670" lon="-0.2301350">
        <ele>1851.4</ele>
        <time>2020-09-11T06:59:52Z</time>
      </trkpt>
      <trkpt lat="42.7686150" lon="-0.2302530">
        <ele>1852.4</ele>
        <time>2020-09-11T06:59:59Z</time>
      </trkpt>
      <trkpt lat="42.7686260" lon="-0.2302530">
        <ele>1852.6</ele>
        <time>2020-09-11T07:00:00Z</time>
      </trkpt>
      <trkpt lat="42.7686540" lon="-0.2302330">
        <ele>1853.4</ele>
        <time>2020-09-11T07:00:04Z</time>
      </trkpt>
      <trkpt lat="42.7686680" lon="-0.2302030">
        <ele>1853.8</ele>
        <time>2020-09-11T07:00:06Z</time>
      </trkpt>
      <trkpt lat="42.7687400" lon="-0.2301030">
        <ele>1854.8</ele>
        <time>2020-09-11T07:00:14Z</time>
      </trkpt>
      <trkpt lat="42.7687480" lon="-0.2300980">
        <ele>1855.0</ele>
        <time>2020-09-11T07:00:15Z</time>
      </trkpt>
      <trkpt lat="42.7687550" lon="-0.2300970">
        <ele>1855.2</ele>
        <time>2020-09-11T07:00:16Z</time>
      </trkpt>
      <trkpt lat="42.7687820" lon="-0.2300940">
        <ele>1856.0</ele>
        <time>2020-09-11T07:00:19Z</time>
      </trkpt>
      <trkpt lat="42.7687860" lon="-0.2300920">
        <ele>1856.4</ele>
        <time>2020-09-11T07:00:20Z</time>
      </trkpt>
      <trkpt lat="42.7688030" lon="-0.2301030">
        <ele>1856.6</ele>
        <time>2020-09-11T07:00:22Z</time>
      </trkpt>
      <trkpt lat="42.7688140" lon="-0.2301230">
        <ele>1856.8</ele>
        <time>2020-09-11T07:00:24Z</time>
      </trkpt>
      <trkpt lat="42.7688240" lon="-0.2301380">
        <ele>1857.0</ele>
        <time>2020-09-11T07:00:26Z</time>
      </trkpt>
      <trkpt lat="42.7688900" lon="-0.2302170">
        <ele>1858.2</ele>
        <time>2020-09-11T07:00:33Z</time>
      </trkpt>
      <trkpt lat="42.7689020" lon="-0.2302310">
        <ele>1858.4</ele>
        <time>2020-09-11T07:00:35Z</time>
      </trkpt>
      <trkpt lat="42.7689390" lon="-0.2302460">
        <ele>1858.6</ele>
        <time>2020-09-11T07:00:38Z</time>
      </trkpt>
      <trkpt lat="42.7689930" lon="-0.2302800">
        <ele>1859.0</ele>
        <time>2020-09-11T07:00:43Z</time>
      </trkpt>
      <trkpt lat="42.7690220" lon="-0.2303160">
        <ele>1859.2</ele>
        <time>2020-09-11T07:00:46Z</time>
      </trkpt>
      <trkpt lat="42.7690520" lon="-0.2303710">
        <ele>1859.4</ele>
        <time>2020-09-11T07:00:51Z</time>
      </trkpt>
      <trkpt lat="42.7690880" lon="-0.2304130">
        <ele>1860.2</ele>
        <time>2020-09-11T07:00:56Z</time>
      </trkpt>
      <trkpt lat="42.7691190" lon="-0.2304190">
        <ele>1860.8</ele>
        <time>2020-09-11T07:00:59Z</time>
      </trkpt>
      <trkpt lat="42.7691380" lon="-0.2303910">
        <ele>1861.2</ele>
        <time>2020-09-11T07:01:02Z</time>
      </trkpt>
      <trkpt lat="42.7691620" lon="-0.2303870">
        <ele>1862.4</ele>
        <time>2020-09-11T07:01:08Z</time>
      </trkpt>
      <trkpt lat="42.7691820" lon="-0.2303550">
        <ele>1863.4</ele>
        <time>2020-09-11T07:01:14Z</time>
      </trkpt>
      <trkpt lat="42.7691680" lon="-0.2302950">
        <ele>1864.6</ele>
        <time>2020-09-11T07:01:19Z</time>
      </trkpt>
      <trkpt lat="42.7691170" lon="-0.2301280">
        <ele>1865.6</ele>
        <time>2020-09-11T07:01:33Z</time>
      </trkpt>
      <trkpt lat="42.7691130" lon="-0.2301170">
        <ele>1865.6</ele>
        <time>2020-09-11T07:01:34Z</time>
      </trkpt>
      <trkpt lat="42.7690890" lon="-0.2300760">
        <ele>1866.6</ele>
        <time>2020-09-11T07:01:39Z</time>
      </trkpt>
      <trkpt lat="42.7690760" lon="-0.2300590">
        <ele>1867.0</ele>
        <time>2020-09-11T07:01:41Z</time>
      </trkpt>
      <trkpt lat="42.7690700" lon="-0.2300210">
        <ele>1867.8</ele>
        <time>2020-09-11T07:01:45Z</time>
      </trkpt>
      <trkpt lat="42.7690670" lon="-0.2299970">
        <ele>1868.2</ele>
        <time>2020-09-11T07:01:47Z</time>
      </trkpt>
      <trkpt lat="42.7690720" lon="-0.2299670">
        <ele>1868.4</ele>
        <time>2020-09-11T07:01:50Z</time>
      </trkpt>
      <trkpt lat="42.7690750" lon="-0.2299550">
        <ele>1868.8</ele>
        <time>2020-09-11T07:01:52Z</time>
      </trkpt>
      <trkpt lat="42.7691020" lon="-0.2299330">
        <ele>1870.0</ele>
        <time>2020-09-11T07:01:58Z</time>
      </trkpt>
      <trkpt lat="42.7691300" lon="-0.2299450">
        <ele>1871.0</ele>
        <time>2020-09-11T07:02:02Z</time>
      </trkpt>
      <trkpt lat="42.7692930" lon="-0.2299560">
        <ele>1871.6</ele>
        <time>2020-09-11T07:02:20Z</time>
      </trkpt>
      <trkpt lat="42.7693200" lon="-0.2299460">
        <ele>1871.6</ele>
        <time>2020-09-11T07:02:22Z</time>
      </trkpt>
      <trkpt lat="42.7693710" lon="-0.2299460">
        <ele>1871.6</ele>
        <time>2020-09-11T07:02:25Z</time>
      </trkpt>
      <trkpt lat="42.7694020" lon="-0.2299470">
        <ele>1872.0</ele>
        <time>2020-09-11T07:02:28Z</time>
      </trkpt>
      <trkpt lat="42.7694150" lon="-0.2299440">
        <ele>1872.2</ele>
        <time>2020-09-11T07:02:29Z</time>
      </trkpt>
      <trkpt lat="42.7694300" lon="-0.2299360">
        <ele>1872.6</ele>
        <time>2020-09-11T07:02:31Z</time>
      </trkpt>
      <trkpt lat="42.7694500" lon="-0.2299180">
        <ele>1873.4</ele>
        <time>2020-09-11T07:02:33Z</time>
      </trkpt>
      <trkpt lat="42.7694590" lon="-0.2299120">
        <ele>1874.0</ele>
        <time>2020-09-11T07:02:35Z</time>
      </trkpt>
      <trkpt lat="42.7694780" lon="-0.2299030">
        <ele>1874.2</ele>
        <time>2020-09-11T07:02:37Z</time>
      </trkpt>
      <trkpt lat="42.7694890" lon="-0.2298930">
        <ele>1874.4</ele>
        <time>2020-09-11T07:02:38Z</time>
      </trkpt>
      <trkpt lat="42.7694970" lon="-0.2298880">
        <ele>1874.4</ele>
        <time>2020-09-11T07:02:39Z</time>
      </trkpt>
      <trkpt lat="42.7695290" lon="-0.2298770">
        <ele>1874.8</ele>
        <time>2020-09-11T07:02:42Z</time>
      </trkpt>
      <trkpt lat="42.7696190" lon="-0.2298390">
        <ele>1875.2</ele>
        <time>2020-09-11T07:02:48Z</time>
      </trkpt>
      <trkpt lat="42.7696590" lon="-0.2298390">
        <ele>1875.6</ele>
        <time>2020-09-11T07:02:52Z</time>
      </trkpt>
      <trkpt lat="42.7697660" lon="-0.2298750">
        <ele>1876.6</ele>
        <time>2020-09-11T07:03:01Z</time>
      </trkpt>
      <trkpt lat="42.7698500" lon="-0.2299510">
        <ele>1876.2</ele>
        <time>2020-09-11T07:03:10Z</time>
      </trkpt>
      <trkpt lat="42.7698710" lon="-0.2299720">
        <ele>1876.4</ele>
        <time>2020-09-11T07:03:12Z</time>
      </trkpt>
      <trkpt lat="42.7699880" lon="-0.2300550">
        <ele>1875.6</ele>
        <time>2020-09-11T07:03:22Z</time>
      </trkpt>
      <trkpt lat="42.7700450" lon="-0.2300980">
        <ele>1875.4</ele>
        <time>2020-09-11T07:03:28Z</time>
      </trkpt>
      <trkpt lat="42.7700670" lon="-0.2301230">
        <ele>1875.4</ele>
        <time>2020-09-11T07:03:30Z</time>
      </trkpt>
      <trkpt lat="42.7700930" lon="-0.2301830">
        <ele>1875.0</ele>
        <time>2020-09-11T07:03:34Z</time>
      </trkpt>
      <trkpt lat="42.7701090" lon="-0.2302090">
        <ele>1874.8</ele>
        <time>2020-09-11T07:03:37Z</time>
      </trkpt>
      <trkpt lat="42.7701230" lon="-0.2302440">
        <ele>1875.0</ele>
        <time>2020-09-11T07:03:40Z</time>
      </trkpt>
      <trkpt lat="42.7701350" lon="-0.2302640">
        <ele>1875.4</ele>
        <time>2020-09-11T07:03:42Z</time>
      </trkpt>
      <trkpt lat="42.7701400" lon="-0.2302850">
        <ele>1876.0</ele>
        <time>2020-09-11T07:03:44Z</time>
      </trkpt>
      <trkpt lat="42.7701680" lon="-0.2303060">
        <ele>1876.4</ele>
        <time>2020-09-11T07:03:47Z</time>
      </trkpt>
      <trkpt lat="42.7701720" lon="-0.2303140">
        <ele>1876.6</ele>
        <time>2020-09-11T07:03:48Z</time>
      </trkpt>
      <trkpt lat="42.7701790" lon="-0.2303220">
        <ele>1876.6</ele>
        <time>2020-09-11T07:03:49Z</time>
      </trkpt>
      <trkpt lat="42.7701870" lon="-0.2303480">
        <ele>1876.8</ele>
        <time>2020-09-11T07:03:51Z</time>
      </trkpt>
      <trkpt lat="42.7702180" lon="-0.2304110">
        <ele>1877.2</ele>
        <time>2020-09-11T07:03:56Z</time>
      </trkpt>
      <trkpt lat="42.7702330" lon="-0.2304490">
        <ele>1877.2</ele>
        <time>2020-09-11T07:03:59Z</time>
      </trkpt>
      <trkpt lat="42.7702710" lon="-0.2304950">
        <ele>1877.4</ele>
        <time>2020-09-11T07:04:05Z</time>
      </trkpt>
      <trkpt lat="42.7702780" lon="-0.2305320">
        <ele>1877.4</ele>
        <time>2020-09-11T07:04:07Z</time>
      </trkpt>
      <trkpt lat="42.7702890" lon="-0.2305540">
        <ele>1877.6</ele>
        <time>2020-09-11T07:04:09Z</time>
      </trkpt>
      <trkpt lat="42.7703190" lon="-0.2305980">
        <ele>1878.2</ele>
        <time>2020-09-11T07:04:13Z</time>
      </trkpt>
      <trkpt lat="42.7703350" lon="-0.2306070">
        <ele>1878.8</ele>
        <time>2020-09-11T07:04:15Z</time>
      </trkpt>
      <trkpt lat="42.7703630" lon="-0.2306170">
        <ele>1879.6</ele>
        <time>2020-09-11T07:04:18Z</time>
      </trkpt>
      <trkpt lat="42.7703720" lon="-0.2306300">
        <ele>1879.8</ele>
        <time>2020-09-11T07:04:20Z</time>
      </trkpt>
      <trkpt lat="42.7703940" lon="-0.2306470">
        <ele>1880.2</ele>
        <time>2020-09-11T07:04:23Z</time>
      </trkpt>
      <trkpt lat="42.7704050" lon="-0.2306790">
        <ele>1880.4</ele>
        <time>2020-09-11T07:04:27Z</time>
      </trkpt>
      <trkpt lat="42.7704230" lon="-0.2307120">
        <ele>1880.8</ele>
        <time>2020-09-11T07:04:31Z</time>
      </trkpt>
      <trkpt lat="42.7704250" lon="-0.2307250">
        <ele>1881.0</ele>
        <time>2020-09-11T07:04:32Z</time>
      </trkpt>
      <trkpt lat="42.7704290" lon="-0.2307370">
        <ele>1881.4</ele>
        <time>2020-09-11T07:04:33Z</time>
      </trkpt>
      <trkpt lat="42.7704410" lon="-0.2307620">
        <ele>1881.8</ele>
        <time>2020-09-11T07:04:35Z</time>
      </trkpt>
      <trkpt lat="42.7704490" lon="-0.2307750">
        <ele>1882.2</ele>
        <time>2020-09-11T07:04:36Z</time>
      </trkpt>
      <trkpt lat="42.7704540" lon="-0.2307920">
        <ele>1882.4</ele>
        <time>2020-09-11T07:04:37Z</time>
      </trkpt>
      <trkpt lat="42.7704560" lon="-0.2308260">
        <ele>1883.2</ele>
        <time>2020-09-11T07:04:40Z</time>
      </trkpt>
      <trkpt lat="42.7704580" lon="-0.2308320">
        <ele>1883.4</ele>
        <time>2020-09-11T07:04:41Z</time>
      </trkpt>
      <trkpt lat="42.7704530" lon="-0.2308580">
        <ele>1884.4</ele>
        <time>2020-09-11T07:04:45Z</time>
      </trkpt>
      <trkpt lat="42.7704510" lon="-0.2308880">
        <ele>1885.4</ele>
        <time>2020-09-11T07:04:50Z</time>
      </trkpt>
      <trkpt lat="42.7704520" lon="-0.2309470">
        <ele>1886.6</ele>
        <time>2020-09-11T07:04:56Z</time>
      </trkpt>
      <trkpt lat="42.7704510" lon="-0.2309640">
        <ele>1887.8</ele>
        <time>2020-09-11T07:04:59Z</time>
      </trkpt>
      <trkpt lat="42.7704680" lon="-0.2309950">
        <ele>1889.0</ele>
        <time>2020-09-11T07:05:05Z</time>
      </trkpt>
      <trkpt lat="42.7704820" lon="-0.2310190">
        <ele>1890.0</ele>
        <time>2020-09-11T07:05:10Z</time>
      </trkpt>
      <trkpt lat="42.7705090" lon="-0.2310420">
        <ele>1891.0</ele>
        <time>2020-09-11T07:05:15Z</time>
      </trkpt>
      <trkpt lat="42.7705610" lon="-0.2310660">
        <ele>1892.2</ele>
        <time>2020-09-11T07:05:21Z</time>
      </trkpt>
      <trkpt lat="42.7706130" lon="-0.2310810">
        <ele>1893.2</ele>
        <time>2020-09-11T07:05:26Z</time>
      </trkpt>
      <trkpt lat="42.7707010" lon="-0.2310710">
        <ele>1893.6</ele>
        <time>2020-09-11T07:05:35Z</time>
      </trkpt>
      <trkpt lat="42.7707510" lon="-0.2310340">
        <ele>1894.4</ele>
        <time>2020-09-11T07:05:39Z</time>
      </trkpt>
      <trkpt lat="42.7708640" lon="-0.2309970">
        <ele>1895.4</ele>
        <time>2020-09-11T07:05:48Z</time>
      </trkpt>
      <trkpt lat="42.7709410" lon="-0.2309670">
        <ele>1896.0</ele>
        <time>2020-09-11T07:05:54Z</time>
      </trkpt>
      <trkpt lat="42.7709950" lon="-0.2309660">
        <ele>1896.4</ele>
        <time>2020-09-11T07:05:59Z</time>
      </trkpt>
      <trkpt lat="42.7710040" lon="-0.2309660">
        <ele>1896.6</ele>
        <time>2020-09-11T07:06:00Z</time>
      </trkpt>
      <trkpt lat="42.7710340" lon="-0.2309680">
        <ele>1896.6</ele>
        <time>2020-09-11T07:06:04Z</time>
      </trkpt>
      <trkpt lat="42.7711450" lon="-0.2309540">
        <ele>1896.6</ele>
        <time>2020-09-11T07:06:11Z</time>
      </trkpt>
      <trkpt lat="42.7711690" lon="-0.2309550">
        <ele>1896.8</ele>
        <time>2020-09-11T07:06:14Z</time>
      </trkpt>
      <trkpt lat="42.7712400" lon="-0.2309870">
        <ele>1897.4</ele>
        <time>2020-09-11T07:06:22Z</time>
      </trkpt>
      <trkpt lat="42.7712570" lon="-0.2310040">
        <ele>1897.6</ele>
        <time>2020-09-11T07:06:24Z</time>
      </trkpt>
      <trkpt lat="42.7712740" lon="-0.2310110">
        <ele>1897.8</ele>
        <time>2020-09-11T07:06:25Z</time>
      </trkpt>
      <trkpt lat="42.7713430" lon="-0.2310290">
        <ele>1898.8</ele>
        <time>2020-09-11T07:06:30Z</time>
      </trkpt>
      <trkpt lat="42.7714200" lon="-0.2310480">
        <ele>1899.6</ele>
        <time>2020-09-11T07:06:36Z</time>
      </trkpt>
      <trkpt lat="42.7714340" lon="-0.2310490">
        <ele>1899.8</ele>
        <time>2020-09-11T07:06:37Z</time>
      </trkpt>
      <trkpt lat="42.7715130" lon="-0.2310160">
        <ele>1900.8</ele>
        <time>2020-09-11T07:06:45Z</time>
      </trkpt>
      <trkpt lat="42.7715380" lon="-0.2309960">
        <ele>1901.2</ele>
        <time>2020-09-11T07:06:48Z</time>
      </trkpt>
      <trkpt lat="42.7715820" lon="-0.2310040">
        <ele>1901.8</ele>
        <time>2020-09-11T07:06:53Z</time>
      </trkpt>
      <trkpt lat="42.7715980" lon="-0.2310140">
        <ele>1901.8</ele>
        <time>2020-09-11T07:06:55Z</time>
      </trkpt>
      <trkpt lat="42.7716050" lon="-0.2310200">
        <ele>1902.0</ele>
        <time>2020-09-11T07:06:56Z</time>
      </trkpt>
      <trkpt lat="42.7716070" lon="-0.2310240">
        <ele>1902.2</ele>
        <time>2020-09-11T07:06:57Z</time>
      </trkpt>
      <trkpt lat="42.7716230" lon="-0.2310370">
        <ele>1903.0</ele>
        <time>2020-09-11T07:07:00Z</time>
      </trkpt>
      <trkpt lat="42.7716260" lon="-0.2310470">
        <ele>1903.2</ele>
        <time>2020-09-11T07:07:01Z</time>
      </trkpt>
      <trkpt lat="42.7716320" lon="-0.2310510">
        <ele>1903.4</ele>
        <time>2020-09-11T07:07:02Z</time>
      </trkpt>
      <trkpt lat="42.7716810" lon="-0.2310700">
        <ele>1904.2</ele>
        <time>2020-09-11T07:07:07Z</time>
      </trkpt>
      <trkpt lat="42.7717100" lon="-0.2310620">
        <ele>1904.2</ele>
        <time>2020-09-11T07:07:10Z</time>
      </trkpt>
      <trkpt lat="42.7717620" lon="-0.2310470">
        <ele>1904.6</ele>
        <time>2020-09-11T07:07:15Z</time>
      </trkpt>
      <trkpt lat="42.7718170" lon="-0.2310320">
        <ele>1905.4</ele>
        <time>2020-09-11T07:07:20Z</time>
      </trkpt>
      <trkpt lat="42.7718550" lon="-0.2310360">
        <ele>1905.8</ele>
        <time>2020-09-11T07:07:23Z</time>
      </trkpt>
      <trkpt lat="42.7718700" lon="-0.2310270">
        <ele>1906.2</ele>
        <time>2020-09-11T07:07:25Z</time>
      </trkpt>
      <trkpt lat="42.7718740" lon="-0.2310270">
        <ele>1906.6</ele>
        <time>2020-09-11T07:07:26Z</time>
      </trkpt>
      <trkpt lat="42.7718930" lon="-0.2309990">
        <ele>1907.4</ele>
        <time>2020-09-11T07:07:29Z</time>
      </trkpt>
      <trkpt lat="42.7718990" lon="-0.2309940">
        <ele>1907.6</ele>
        <time>2020-09-11T07:07:30Z</time>
      </trkpt>
      <trkpt lat="42.7719370" lon="-0.2309920">
        <ele>1908.6</ele>
        <time>2020-09-11T07:07:34Z</time>
      </trkpt>
      <trkpt lat="42.7719590" lon="-0.2309990">
        <ele>1909.4</ele>
        <time>2020-09-11T07:07:37Z</time>
      </trkpt>
      <trkpt lat="42.7719820" lon="-0.2309880">
        <ele>1909.8</ele>
        <time>2020-09-11T07:07:40Z</time>
      </trkpt>
      <trkpt lat="42.7720160" lon="-0.2309830">
        <ele>1910.8</ele>
        <time>2020-09-11T07:07:45Z</time>
      </trkpt>
      <trkpt lat="42.7720230" lon="-0.2309860">
        <ele>1911.2</ele>
        <time>2020-09-11T07:07:46Z</time>
      </trkpt>
      <trkpt lat="42.7720450" lon="-0.2309990">
        <ele>1912.0</ele>
        <time>2020-09-11T07:07:50Z</time>
      </trkpt>
      <trkpt lat="42.7720290" lon="-0.2310310">
        <ele>1913.0</ele>
        <time>2020-09-11T07:08:01Z</time>
      </trkpt>
      <trkpt lat="42.7720350" lon="-0.2311120">
        <ele>1914.0</ele>
        <time>2020-09-11T07:08:09Z</time>
      </trkpt>
      <trkpt lat="42.7720380" lon="-0.2311660">
        <ele>1914.6</ele>
        <time>2020-09-11T07:08:13Z</time>
      </trkpt>
      <trkpt lat="42.7720560" lon="-0.2311930">
        <ele>1915.0</ele>
        <time>2020-09-11T07:08:17Z</time>
      </trkpt>
      <trkpt lat="42.7720400" lon="-0.2312540">
        <ele>1916.2</ele>
        <time>2020-09-11T07:08:25Z</time>
      </trkpt>
      <trkpt lat="42.7720390" lon="-0.2312570">
        <ele>1917.4</ele>
        <time>2020-09-11T07:08:34Z</time>
      </trkpt>
      <trkpt lat="42.7721330" lon="-0.2311500">
        <ele>1918.4</ele>
        <time>2020-09-11T07:08:42Z</time>
      </trkpt>
      <trkpt lat="42.7721450" lon="-0.2311350">
        <ele>1918.6</ele>
        <time>2020-09-11T07:08:43Z</time>
      </trkpt>
      <trkpt lat="42.7721820" lon="-0.2310800">
        <ele>1919.6</ele>
        <time>2020-09-11T07:08:49Z</time>
      </trkpt>
      <trkpt lat="42.7722070" lon="-0.2310540">
        <ele>1920.4</ele>
        <time>2020-09-11T07:08:53Z</time>
      </trkpt>
      <trkpt lat="42.7722080" lon="-0.2310440">
        <ele>1920.8</ele>
        <time>2020-09-11T07:08:55Z</time>
      </trkpt>
      <trkpt lat="42.7722300" lon="-0.2310300">
        <ele>1922.0</ele>
        <time>2020-09-11T07:09:01Z</time>
      </trkpt>
      <trkpt lat="42.7722370" lon="-0.2310640">
        <ele>1923.0</ele>
        <time>2020-09-11T07:09:06Z</time>
      </trkpt>
      <trkpt lat="42.7722250" lon="-0.2311280">
        <ele>1924.0</ele>
        <time>2020-09-11T07:09:11Z</time>
      </trkpt>
      <trkpt lat="42.7722220" lon="-0.2311740">
        <ele>1924.6</ele>
        <time>2020-09-11T07:09:14Z</time>
      </trkpt>
      <trkpt lat="42.7722340" lon="-0.2311890">
        <ele>1925.0</ele>
        <time>2020-09-11T07:09:16Z</time>
      </trkpt>
      <trkpt lat="42.7722410" lon="-0.2311890">
        <ele>1925.2</ele>
        <time>2020-09-11T07:09:17Z</time>
      </trkpt>
      <trkpt lat="42.7722620" lon="-0.2311630">
        <ele>1925.8</ele>
        <time>2020-09-11T07:09:20Z</time>
      </trkpt>
      <trkpt lat="42.7722690" lon="-0.2311540">
        <ele>1926.2</ele>
        <time>2020-09-11T07:09:22Z</time>
      </trkpt>
      <trkpt lat="42.7722900" lon="-0.2311230">
        <ele>1927.2</ele>
        <time>2020-09-11T07:09:26Z</time>
      </trkpt>
      <trkpt lat="42.7723250" lon="-0.2310980">
        <ele>1928.2</ele>
        <time>2020-09-11T07:09:30Z</time>
      </trkpt>
      <trkpt lat="42.7723360" lon="-0.2310540">
        <ele>1928.4</ele>
        <time>2020-09-11T07:09:32Z</time>
      </trkpt>
      <trkpt lat="42.7724050" lon="-0.2309790">
        <ele>1929.2</ele>
        <time>2020-09-11T07:09:41Z</time>
      </trkpt>
      <trkpt lat="42.7724200" lon="-0.2309770">
        <ele>1929.6</ele>
        <time>2020-09-11T07:09:43Z</time>
      </trkpt>
      <trkpt lat="42.7724510" lon="-0.2309820">
        <ele>1930.4</ele>
        <time>2020-09-11T07:09:47Z</time>
      </trkpt>
      <trkpt lat="42.7724690" lon="-0.2309780">
        <ele>1930.6</ele>
        <time>2020-09-11T07:09:49Z</time>
      </trkpt>
      <trkpt lat="42.7724970" lon="-0.2309750">
        <ele>1931.2</ele>
        <time>2020-09-11T07:09:53Z</time>
      </trkpt>
      <trkpt lat="42.7725240" lon="-0.2309930">
        <ele>1931.6</ele>
        <time>2020-09-11T07:09:56Z</time>
      </trkpt>
      <trkpt lat="42.7725630" lon="-0.2310190">
        <ele>1932.2</ele>
        <time>2020-09-11T07:10:00Z</time>
      </trkpt>
      <trkpt lat="42.7725850" lon="-0.2310170">
        <ele>1932.6</ele>
        <time>2020-09-11T07:10:03Z</time>
      </trkpt>
      <trkpt lat="42.7726260" lon="-0.2310350">
        <ele>1933.2</ele>
        <time>2020-09-11T07:10:09Z</time>
      </trkpt>
      <trkpt lat="42.7726340" lon="-0.2310470">
        <ele>1933.8</ele>
        <time>2020-09-11T07:10:11Z</time>
      </trkpt>
      <trkpt lat="42.7726800" lon="-0.2310990">
        <ele>1934.6</ele>
        <time>2020-09-11T07:10:17Z</time>
      </trkpt>
      <trkpt lat="42.7726990" lon="-0.2311100">
        <ele>1934.8</ele>
        <time>2020-09-11T07:10:19Z</time>
      </trkpt>
      <trkpt lat="42.7727210" lon="-0.2311290">
        <ele>1935.0</ele>
        <time>2020-09-11T07:10:22Z</time>
      </trkpt>
      <trkpt lat="42.7727780" lon="-0.2311390">
        <ele>1934.8</ele>
        <time>2020-09-11T07:10:29Z</time>
      </trkpt>
      <trkpt lat="42.7728110" lon="-0.2311650">
        <ele>1934.6</ele>
        <time>2020-09-11T07:10:32Z</time>
      </trkpt>
      <trkpt lat="42.7728760" lon="-0.2311720">
        <ele>1934.6</ele>
        <time>2020-09-11T07:10:37Z</time>
      </trkpt>
      <trkpt lat="42.7729140" lon="-0.2311600">
        <ele>1934.8</ele>
        <time>2020-09-11T07:10:42Z</time>
      </trkpt>
      <trkpt lat="42.7729360" lon="-0.2311710">
        <ele>1935.0</ele>
        <time>2020-09-11T07:10:44Z</time>
      </trkpt>
      <trkpt lat="42.7729520" lon="-0.2311760">
        <ele>1935.0</ele>
        <time>2020-09-11T07:10:46Z</time>
      </trkpt>
      <trkpt lat="42.7729980" lon="-0.2311340">
        <ele>1934.8</ele>
        <time>2020-09-11T07:10:53Z</time>
      </trkpt>
      <trkpt lat="42.7730070" lon="-0.2310680">
        <ele>1934.0</ele>
        <time>2020-09-11T07:10:57Z</time>
      </trkpt>
      <trkpt lat="42.7730120" lon="-0.2310510">
        <ele>1934.0</ele>
        <time>2020-09-11T07:10:59Z</time>
      </trkpt>
      <trkpt lat="42.7730180" lon="-0.2310270">
        <ele>1933.8</ele>
        <time>2020-09-11T07:11:01Z</time>
      </trkpt>
      <trkpt lat="42.7730240" lon="-0.2309880">
        <ele>1933.8</ele>
        <time>2020-09-11T07:11:03Z</time>
      </trkpt>
      <trkpt lat="42.7730230" lon="-0.2309650">
        <ele>1933.6</ele>
        <time>2020-09-11T07:11:04Z</time>
      </trkpt>
      <trkpt lat="42.7730280" lon="-0.2309310">
        <ele>1933.0</ele>
        <time>2020-09-11T07:11:07Z</time>
      </trkpt>
      <trkpt lat="42.7730380" lon="-0.2309010">
        <ele>1932.6</ele>
        <time>2020-09-11T07:11:09Z</time>
      </trkpt>
      <trkpt lat="42.7730520" lon="-0.2308780">
        <ele>1932.0</ele>
        <time>2020-09-11T07:11:11Z</time>
      </trkpt>
      <trkpt lat="42.7730610" lon="-0.2308570">
        <ele>1931.6</ele>
        <time>2020-09-11T07:11:13Z</time>
      </trkpt>
      <trkpt lat="42.7730670" lon="-0.2308450">
        <ele>1931.2</ele>
        <time>2020-09-11T07:11:14Z</time>
      </trkpt>
      <trkpt lat="42.7730880" lon="-0.2308090">
        <ele>1930.4</ele>
        <time>2020-09-11T07:11:18Z</time>
      </trkpt>
      <trkpt lat="42.7730950" lon="-0.2308060">
        <ele>1930.0</ele>
        <time>2020-09-11T07:11:19Z</time>
      </trkpt>
      <trkpt lat="42.7731290" lon="-0.2307980">
        <ele>1929.2</ele>
        <time>2020-09-11T07:11:23Z</time>
      </trkpt>
      <trkpt lat="42.7731400" lon="-0.2307820">
        <ele>1928.8</ele>
        <time>2020-09-11T07:11:25Z</time>
      </trkpt>
      <trkpt lat="42.7731390" lon="-0.2307640">
        <ele>1928.4</ele>
        <time>2020-09-11T07:11:27Z</time>
      </trkpt>
      <trkpt lat="42.7731270" lon="-0.2307660">
        <ele>1928.0</ele>
        <time>2020-09-11T07:11:29Z</time>
      </trkpt>
      <trkpt lat="42.7731230" lon="-0.2307620">
        <ele>1927.6</ele>
        <time>2020-09-11T07:11:30Z</time>
      </trkpt>
      <trkpt lat="42.7731230" lon="-0.2307390">
        <ele>1926.6</ele>
        <time>2020-09-11T07:11:34Z</time>
      </trkpt>
      <trkpt lat="42.7731790" lon="-0.2307280">
        <ele>1925.2</ele>
        <time>2020-09-11T07:11:44Z</time>
      </trkpt>
      <trkpt lat="42.7732100" lon="-0.2307160">
        <ele>1924.6</ele>
        <time>2020-09-11T07:11:47Z</time>
      </trkpt>
      <trkpt lat="42.7732280" lon="-0.2306860">
        <ele>1924.2</ele>
        <time>2020-09-11T07:11:51Z</time>
      </trkpt>
      <trkpt lat="42.7732270" lon="-0.2306830">
        <ele>1924.2</ele>
        <time>2020-09-11T07:11:52Z</time>
      </trkpt>
      <trkpt lat="42.7732000" lon="-0.2306660">
        <ele>1923.0</ele>
        <time>2020-09-11T07:11:56Z</time>
      </trkpt>
      <trkpt lat="42.7731830" lon="-0.2306270">
        <ele>1921.8</ele>
        <time>2020-09-11T07:11:59Z</time>
      </trkpt>
      <trkpt lat="42.7731970" lon="-0.2306190">
        <ele>1920.8</ele>
        <time>2020-09-11T07:12:03Z</time>
      </trkpt>
      <trkpt lat="42.7732070" lon="-0.2305920">
        <ele>1919.8</ele>
        <time>2020-09-11T07:12:07Z</time>
      </trkpt>
      <trkpt lat="42.7731700" lon="-0.2305420">
        <ele>1918.6</ele>
        <time>2020-09-11T07:12:11Z</time>
      </trkpt>
      <trkpt lat="42.7731680" lon="-0.2305290">
        <ele>1918.4</ele>
        <time>2020-09-11T07:12:12Z</time>
      </trkpt>
      <trkpt lat="42.7731730" lon="-0.2305200">
        <ele>1918.0</ele>
        <time>2020-09-11T07:12:14Z</time>
      </trkpt>
      <trkpt lat="42.7731900" lon="-0.2305200">
        <ele>1917.4</ele>
        <time>2020-09-11T07:12:16Z</time>
      </trkpt>
      <trkpt lat="42.7732050" lon="-0.2305200">
        <ele>1917.0</ele>
        <time>2020-09-11T07:12:17Z</time>
      </trkpt>
      <trkpt lat="42.7732350" lon="-0.2305100">
        <ele>1916.4</ele>
        <time>2020-09-11T07:12:19Z</time>
      </trkpt>
      <trkpt lat="42.7733590" lon="-0.2305070">
        <ele>1915.4</ele>
        <time>2020-09-11T07:12:29Z</time>
      </trkpt>
      <trkpt lat="42.7733760" lon="-0.2305080">
        <ele>1915.4</ele>
        <time>2020-09-11T07:12:30Z</time>
      </trkpt>
      <trkpt lat="42.7734210" lon="-0.2305010">
        <ele>1914.6</ele>
        <time>2020-09-11T07:12:34Z</time>
      </trkpt>
      <trkpt lat="42.7734670" lon="-0.2304990">
        <ele>1915.0</ele>
        <time>2020-09-11T07:12:38Z</time>
      </trkpt>
      <trkpt lat="42.7735260" lon="-0.2305000">
        <ele>1915.8</ele>
        <time>2020-09-11T07:12:43Z</time>
      </trkpt>
      <trkpt lat="42.7735260" lon="-0.2305010">
        <ele>1915.8</ele>
        <time>2020-09-11T07:12:45Z</time>
      </trkpt>
      <trkpt lat="42.7735640" lon="-0.2304840">
        <ele>1916.6</ele>
        <time>2020-09-11T07:12:52Z</time>
      </trkpt>
      <trkpt lat="42.7736160" lon="-0.2304900">
        <ele>1917.2</ele>
        <time>2020-09-11T07:12:56Z</time>
      </trkpt>
      <trkpt lat="42.7737440" lon="-0.2305270">
        <ele>1917.0</ele>
        <time>2020-09-11T07:13:09Z</time>
      </trkpt>
      <trkpt lat="42.7738190" lon="-0.2305570">
        <ele>1917.6</ele>
        <time>2020-09-11T07:13:15Z</time>
      </trkpt>
      <trkpt lat="42.7738460" lon="-0.2305810">
        <ele>1918.2</ele>
        <time>2020-09-11T07:13:17Z</time>
      </trkpt>
      <trkpt lat="42.7738520" lon="-0.2306050">
        <ele>1918.8</ele>
        <time>2020-09-11T07:13:19Z</time>
      </trkpt>
      <trkpt lat="42.7738140" lon="-0.2306380">
        <ele>1920.0</ele>
        <time>2020-09-11T07:13:26Z</time>
      </trkpt>
      <trkpt lat="42.7738480" lon="-0.2306660">
        <ele>1921.0</ele>
        <time>2020-09-11T07:13:31Z</time>
      </trkpt>
      <trkpt lat="42.7739000" lon="-0.2306820">
        <ele>1922.2</ele>
        <time>2020-09-11T07:13:37Z</time>
      </trkpt>
      <trkpt lat="42.7739420" lon="-0.2306840">
        <ele>1922.6</ele>
        <time>2020-09-11T07:13:41Z</time>
      </trkpt>
      <trkpt lat="42.7739640" lon="-0.2307170">
        <ele>1923.0</ele>
        <time>2020-09-11T07:13:44Z</time>
      </trkpt>
      <trkpt lat="42.7739760" lon="-0.2307440">
        <ele>1923.4</ele>
        <time>2020-09-11T07:13:46Z</time>
      </trkpt>
      <trkpt lat="42.7740000" lon="-0.2307690">
        <ele>1924.0</ele>
        <time>2020-09-11T07:13:50Z</time>
      </trkpt>
      <trkpt lat="42.7740170" lon="-0.2307750">
        <ele>1924.4</ele>
        <time>2020-09-11T07:13:53Z</time>
      </trkpt>
      <trkpt lat="42.7740220" lon="-0.2307770">
        <ele>1924.4</ele>
        <time>2020-09-11T07:13:54Z</time>
      </trkpt>
      <trkpt lat="42.7740600" lon="-0.2307740">
        <ele>1925.6</ele>
        <time>2020-09-11T07:14:00Z</time>
      </trkpt>
      <trkpt lat="42.7740670" lon="-0.2307670">
        <ele>1925.8</ele>
        <time>2020-09-11T07:14:01Z</time>
      </trkpt>
      <trkpt lat="42.7741320" lon="-0.2307440">
        <ele>1926.6</ele>
        <time>2020-09-11T07:14:07Z</time>
      </trkpt>
      <trkpt lat="42.7741380" lon="-0.2307430">
        <ele>1926.6</ele>
        <time>2020-09-11T07:14:08Z</time>
      </trkpt>
      <trkpt lat="42.7741450" lon="-0.2307430">
        <ele>1926.6</ele>
        <time>2020-09-11T07:14:09Z</time>
      </trkpt>
      <trkpt lat="42.7741600" lon="-0.2307370">
        <ele>1927.2</ele>
        <time>2020-09-11T07:14:12Z</time>
      </trkpt>
      <trkpt lat="42.7741880" lon="-0.2307440">
        <ele>1927.8</ele>
        <time>2020-09-11T07:14:15Z</time>
      </trkpt>
      <trkpt lat="42.7742090" lon="-0.2307370">
        <ele>1928.8</ele>
        <time>2020-09-11T07:14:20Z</time>
      </trkpt>
      <trkpt lat="42.7742390" lon="-0.2307000">
        <ele>1930.0</ele>
        <time>2020-09-11T07:14:24Z</time>
      </trkpt>
      <trkpt lat="42.7742500" lon="-0.2307010">
        <ele>1930.0</ele>
        <time>2020-09-11T07:14:25Z</time>
      </trkpt>
      <trkpt lat="42.7743170" lon="-0.2307290">
        <ele>1930.0</ele>
        <time>2020-09-11T07:14:31Z</time>
      </trkpt>
      <trkpt lat="42.7743360" lon="-0.2307380">
        <ele>1930.4</ele>
        <time>2020-09-11T07:14:33Z</time>
      </trkpt>
      <trkpt lat="42.7743690" lon="-0.2307500">
        <ele>1931.0</ele>
        <time>2020-09-11T07:14:36Z</time>
      </trkpt>
      <trkpt lat="42.7744570" lon="-0.2307770">
        <ele>1932.0</ele>
        <time>2020-09-11T07:14:44Z</time>
      </trkpt>
      <trkpt lat="42.7744680" lon="-0.2307830">
        <ele>1932.2</ele>
        <time>2020-09-11T07:14:45Z</time>
      </trkpt>
      <trkpt lat="42.7744860" lon="-0.2307910">
        <ele>1932.4</ele>
        <time>2020-09-11T07:14:47Z</time>
      </trkpt>
      <trkpt lat="42.7745100" lon="-0.2307860">
        <ele>1932.6</ele>
        <time>2020-09-11T07:14:49Z</time>
      </trkpt>
      <trkpt lat="42.7745450" lon="-0.2307780">
        <ele>1933.0</ele>
        <time>2020-09-11T07:14:52Z</time>
      </trkpt>
      <trkpt lat="42.7745600" lon="-0.2307830">
        <ele>1933.2</ele>
        <time>2020-09-11T07:14:54Z</time>
      </trkpt>
      <trkpt lat="42.7745940" lon="-0.2307830">
        <ele>1934.2</ele>
        <time>2020-09-11T07:15:00Z</time>
      </trkpt>
      <trkpt lat="42.7745930" lon="-0.2307980">
        <ele>1934.4</ele>
        <time>2020-09-11T07:15:02Z</time>
      </trkpt>
      <trkpt lat="42.7746150" lon="-0.2307860">
        <ele>1935.4</ele>
        <time>2020-09-11T07:15:06Z</time>
      </trkpt>
      <trkpt lat="42.7746290" lon="-0.2307390">
        <ele>1936.4</ele>
        <time>2020-09-11T07:15:10Z</time>
      </trkpt>
      <trkpt lat="42.7746520" lon="-0.2307200">
        <ele>1936.8</ele>
        <time>2020-09-11T07:15:13Z</time>
      </trkpt>
      <trkpt lat="42.7746660" lon="-0.2307490">
        <ele>1937.4</ele>
        <time>2020-09-11T07:15:16Z</time>
      </trkpt>
      <trkpt lat="42.7746670" lon="-0.2307550">
        <ele>1937.6</ele>
        <time>2020-09-11T07:15:17Z</time>
      </trkpt>
      <trkpt lat="42.7746580" lon="-0.2307860">
        <ele>1938.6</ele>
        <time>2020-09-11T07:15:22Z</time>
      </trkpt>
      <trkpt lat="42.7746640" lon="-0.2308050">
        <ele>1939.8</ele>
        <time>2020-09-11T07:15:28Z</time>
      </trkpt>
      <trkpt lat="42.7747000" lon="-0.2307940">
        <ele>1941.0</ele>
        <time>2020-09-11T07:15:33Z</time>
      </trkpt>
      <trkpt lat="42.7747430" lon="-0.2308070">
        <ele>1942.0</ele>
        <time>2020-09-11T07:15:38Z</time>
      </trkpt>
      <trkpt lat="42.7748170" lon="-0.2308470">
        <ele>1943.2</ele>
        <time>2020-09-11T07:15:47Z</time>
      </trkpt>
      <trkpt lat="42.7748250" lon="-0.2308490">
        <ele>1943.4</ele>
        <time>2020-09-11T07:15:48Z</time>
      </trkpt>
      <trkpt lat="42.7748740" lon="-0.2308570">
        <ele>1944.2</ele>
        <time>2020-09-11T07:15:53Z</time>
      </trkpt>
      <trkpt lat="42.7748830" lon="-0.2308580">
        <ele>1944.2</ele>
        <time>2020-09-11T07:15:54Z</time>
      </trkpt>
      <trkpt lat="42.7748930" lon="-0.2308650">
        <ele>1944.6</ele>
        <time>2020-09-11T07:15:56Z</time>
      </trkpt>
      <trkpt lat="42.7749300" lon="-0.2308520">
        <ele>1945.4</ele>
        <time>2020-09-11T07:16:02Z</time>
      </trkpt>
      <trkpt lat="42.7749680" lon="-0.2308720">
        <ele>1946.6</ele>
        <time>2020-09-11T07:16:07Z</time>
      </trkpt>
      <trkpt lat="42.7750020" lon="-0.2308840">
        <ele>1947.2</ele>
        <time>2020-09-11T07:16:10Z</time>
      </trkpt>
      <trkpt lat="42.7750170" lon="-0.2308920">
        <ele>1947.4</ele>
        <time>2020-09-11T07:16:12Z</time>
      </trkpt>
      <trkpt lat="42.7750600" lon="-0.2309120">
        <ele>1947.6</ele>
        <time>2020-09-11T07:16:17Z</time>
      </trkpt>
      <trkpt lat="42.7750680" lon="-0.2309150">
        <ele>1947.8</ele>
        <time>2020-09-11T07:16:18Z</time>
      </trkpt>
      <trkpt lat="42.7750770" lon="-0.2309140">
        <ele>1948.2</ele>
        <time>2020-09-11T07:16:19Z</time>
      </trkpt>
      <trkpt lat="42.7751140" lon="-0.2309020">
        <ele>1949.0</ele>
        <time>2020-09-11T07:16:25Z</time>
      </trkpt>
      <trkpt lat="42.7751820" lon="-0.2309030">
        <ele>1950.0</ele>
        <time>2020-09-11T07:16:32Z</time>
      </trkpt>
      <trkpt lat="42.7752170" lon="-0.2309020">
        <ele>1950.6</ele>
        <time>2020-09-11T07:16:36Z</time>
      </trkpt>
      <trkpt lat="42.7752360" lon="-0.2309000">
        <ele>1950.6</ele>
        <time>2020-09-11T07:16:38Z</time>
      </trkpt>
      <trkpt lat="42.7753140" lon="-0.2308690">
        <ele>1949.8</ele>
        <time>2020-09-11T07:16:45Z</time>
      </trkpt>
      <trkpt lat="42.7753520" lon="-0.2309140">
        <ele>1950.4</ele>
        <time>2020-09-11T07:16:50Z</time>
      </trkpt>
      <trkpt lat="42.7754200" lon="-0.2309620">
        <ele>1948.8</ele>
        <time>2020-09-11T07:16:57Z</time>
      </trkpt>
      <trkpt lat="42.7755050" lon="-0.2309620">
        <ele>1947.8</ele>
        <time>2020-09-11T07:17:02Z</time>
      </trkpt>
      <trkpt lat="42.7755780" lon="-0.2309420">
        <ele>1947.4</ele>
        <time>2020-09-11T07:17:09Z</time>
      </trkpt>
      <trkpt lat="42.7756060" lon="-0.2309440">
        <ele>1947.4</ele>
        <time>2020-09-11T07:17:12Z</time>
      </trkpt>
      <trkpt lat="42.7756500" lon="-0.2309720">
        <ele>1947.0</ele>
        <time>2020-09-11T07:17:18Z</time>
      </trkpt>
      <trkpt lat="42.7756630" lon="-0.2309740">
        <ele>1946.8</ele>
        <time>2020-09-11T07:17:19Z</time>
      </trkpt>
      <trkpt lat="42.7757160" lon="-0.2309820">
        <ele>1946.0</ele>
        <time>2020-09-11T07:17:24Z</time>
      </trkpt>
      <trkpt lat="42.7757290" lon="-0.2309690">
        <ele>1946.0</ele>
        <time>2020-09-11T07:17:26Z</time>
      </trkpt>
      <trkpt lat="42.7757480" lon="-0.2309590">
        <ele>1946.0</ele>
        <time>2020-09-11T07:17:28Z</time>
      </trkpt>
      <trkpt lat="42.7757820" lon="-0.2309270">
        <ele>1945.8</ele>
        <time>2020-09-11T07:17:31Z</time>
      </trkpt>
      <trkpt lat="42.7758100" lon="-0.2309120">
        <ele>1945.6</ele>
        <time>2020-09-11T07:17:35Z</time>
      </trkpt>
      <trkpt lat="42.7758280" lon="-0.2308950">
        <ele>1945.6</ele>
        <time>2020-09-11T07:17:37Z</time>
      </trkpt>
      <trkpt lat="42.7758550" lon="-0.2308850">
        <ele>1945.4</ele>
        <time>2020-09-11T07:17:39Z</time>
      </trkpt>
      <trkpt lat="42.7758810" lon="-0.2308910">
        <ele>1945.0</ele>
        <time>2020-09-11T07:17:42Z</time>
      </trkpt>
      <trkpt lat="42.7759350" lon="-0.2309320">
        <ele>1944.8</ele>
        <time>2020-09-11T07:17:47Z</time>
      </trkpt>
      <trkpt lat="42.7759570" lon="-0.2309480">
        <ele>1944.6</ele>
        <time>2020-09-11T07:17:49Z</time>
      </trkpt>
      <trkpt lat="42.7759910" lon="-0.2309610">
        <ele>1943.4</ele>
        <time>2020-09-11T07:17:52Z</time>
      </trkpt>
      <trkpt lat="42.7760030" lon="-0.2309580">
        <ele>1943.2</ele>
        <time>2020-09-11T07:17:53Z</time>
      </trkpt>
      <trkpt lat="42.7760440" lon="-0.2309440">
        <ele>1942.4</ele>
        <time>2020-09-11T07:17:57Z</time>
      </trkpt>
      <trkpt lat="42.7761280" lon="-0.2308810">
        <ele>1941.2</ele>
        <time>2020-09-11T07:18:05Z</time>
      </trkpt>
      <trkpt lat="42.7761740" lon="-0.2308790">
        <ele>1940.2</ele>
        <time>2020-09-11T07:18:12Z</time>
      </trkpt>
      <trkpt lat="42.7761800" lon="-0.2308780">
        <ele>1940.0</ele>
        <time>2020-09-11T07:18:13Z</time>
      </trkpt>
      <trkpt lat="42.7762070" lon="-0.2308760">
        <ele>1939.6</ele>
        <time>2020-09-11T07:18:16Z</time>
      </trkpt>
      <trkpt lat="42.7762400" lon="-0.2308830">
        <ele>1939.0</ele>
        <time>2020-09-11T07:18:19Z</time>
      </trkpt>
      <trkpt lat="42.7763110" lon="-0.2308530">
        <ele>1938.2</ele>
        <time>2020-09-11T07:18:26Z</time>
      </trkpt>
      <trkpt lat="42.7763370" lon="-0.2308460">
        <ele>1938.2</ele>
        <time>2020-09-11T07:18:29Z</time>
      </trkpt>
      <trkpt lat="42.7763840" lon="-0.2308260">
        <ele>1938.6</ele>
        <time>2020-09-11T07:18:34Z</time>
      </trkpt>
      <trkpt lat="42.7764280" lon="-0.2308230">
        <ele>1939.0</ele>
        <time>2020-09-11T07:18:38Z</time>
      </trkpt>
      <trkpt lat="42.7764410" lon="-0.2308170">
        <ele>1939.2</ele>
        <time>2020-09-11T07:18:40Z</time>
      </trkpt>
      <trkpt lat="42.7764680" lon="-0.2308140">
        <ele>1939.6</ele>
        <time>2020-09-11T07:18:43Z</time>
      </trkpt>
      <trkpt lat="42.7764810" lon="-0.2308010">
        <ele>1939.8</ele>
        <time>2020-09-11T07:18:45Z</time>
      </trkpt>
      <trkpt lat="42.7765060" lon="-0.2307990">
        <ele>1940.2</ele>
        <time>2020-09-11T07:18:47Z</time>
      </trkpt>
      <trkpt lat="42.7765270" lon="-0.2308060">
        <ele>1940.8</ele>
        <time>2020-09-11T07:18:49Z</time>
      </trkpt>
      <trkpt lat="42.7765460" lon="-0.2308170">
        <ele>1941.6</ele>
        <time>2020-09-11T07:18:51Z</time>
      </trkpt>
      <trkpt lat="42.7765590" lon="-0.2308280">
        <ele>1942.0</ele>
        <time>2020-09-11T07:18:53Z</time>
      </trkpt>
      <trkpt lat="42.7765720" lon="-0.2308510">
        <ele>1942.2</ele>
        <time>2020-09-11T07:18:55Z</time>
      </trkpt>
      <trkpt lat="42.7765840" lon="-0.2308640">
        <ele>1942.6</ele>
        <time>2020-09-11T07:18:57Z</time>
      </trkpt>
      <trkpt lat="42.7765960" lon="-0.2308560">
        <ele>1942.8</ele>
        <time>2020-09-11T07:18:59Z</time>
      </trkpt>
      <trkpt lat="42.7766140" lon="-0.2308450">
        <ele>1943.8</ele>
        <time>2020-09-11T07:19:03Z</time>
      </trkpt>
      <trkpt lat="42.7766560" lon="-0.2308520">
        <ele>1944.6</ele>
        <time>2020-09-11T07:19:08Z</time>
      </trkpt>
      <trkpt lat="42.7766670" lon="-0.2308560">
        <ele>1944.8</ele>
        <time>2020-09-11T07:19:10Z</time>
      </trkpt>
      <trkpt lat="42.7767190" lon="-0.2308450">
        <ele>1946.0</ele>
        <time>2020-09-11T07:19:17Z</time>
      </trkpt>
      <trkpt lat="42.7767710" lon="-0.2308050">
        <ele>1947.0</ele>
        <time>2020-09-11T07:19:23Z</time>
      </trkpt>
      <trkpt lat="42.7767900" lon="-0.2307980">
        <ele>1947.8</ele>
        <time>2020-09-11T07:19:26Z</time>
      </trkpt>
      <trkpt lat="42.7768030" lon="-0.2307890">
        <ele>1948.2</ele>
        <time>2020-09-11T07:19:28Z</time>
      </trkpt>
      <trkpt lat="42.7768350" lon="-0.2307920">
        <ele>1949.0</ele>
        <time>2020-09-11T07:19:32Z</time>
      </trkpt>
      <trkpt lat="42.7768510" lon="-0.2307800">
        <ele>1949.4</ele>
        <time>2020-09-11T07:19:34Z</time>
      </trkpt>
      <trkpt lat="42.7768770" lon="-0.2307540">
        <ele>1950.0</ele>
        <time>2020-09-11T07:19:37Z</time>
      </trkpt>
      <trkpt lat="42.7768900" lon="-0.2307150">
        <ele>1950.6</ele>
        <time>2020-09-11T07:19:40Z</time>
      </trkpt>
      <trkpt lat="42.7769020" lon="-0.2306920">
        <ele>1951.0</ele>
        <time>2020-09-11T07:19:42Z</time>
      </trkpt>
      <trkpt lat="42.7769210" lon="-0.2306720">
        <ele>1951.4</ele>
        <time>2020-09-11T07:19:45Z</time>
      </trkpt>
      <trkpt lat="42.7769270" lon="-0.2306730">
        <ele>1951.6</ele>
        <time>2020-09-11T07:19:46Z</time>
      </trkpt>
      <trkpt lat="42.7769410" lon="-0.2306940">
        <ele>1952.2</ele>
        <time>2020-09-11T07:19:49Z</time>
      </trkpt>
      <trkpt lat="42.7769470" lon="-0.2307340">
        <ele>1952.6</ele>
        <time>2020-09-11T07:19:53Z</time>
      </trkpt>
      <trkpt lat="42.7769520" lon="-0.2307570">
        <ele>1953.2</ele>
        <time>2020-09-11T07:19:55Z</time>
      </trkpt>
      <trkpt lat="42.7769650" lon="-0.2307500">
        <ele>1953.6</ele>
        <time>2020-09-11T07:19:58Z</time>
      </trkpt>
      <trkpt lat="42.7770030" lon="-0.2307420">
        <ele>1954.8</ele>
        <time>2020-09-11T07:20:05Z</time>
      </trkpt>
      <trkpt lat="42.7770420" lon="-0.2307340">
        <ele>1955.8</ele>
        <time>2020-09-11T07:20:11Z</time>
      </trkpt>
      <trkpt lat="42.7770820" lon="-0.2307090">
        <ele>1957.0</ele>
        <time>2020-09-11T07:20:16Z</time>
      </trkpt>
      <trkpt lat="42.7771350" lon="-0.2306490">
        <ele>1958.0</ele>
        <time>2020-09-11T07:20:22Z</time>
      </trkpt>
      <trkpt lat="42.7771590" lon="-0.2306250">
        <ele>1958.6</ele>
        <time>2020-09-11T07:20:25Z</time>
      </trkpt>
      <trkpt lat="42.7771780" lon="-0.2306200">
        <ele>1959.0</ele>
        <time>2020-09-11T07:20:27Z</time>
      </trkpt>
      <trkpt lat="42.7771880" lon="-0.2306190">
        <ele>1959.0</ele>
        <time>2020-09-11T07:20:28Z</time>
      </trkpt>
      <trkpt lat="42.7771960" lon="-0.2306220">
        <ele>1959.4</ele>
        <time>2020-09-11T07:20:29Z</time>
      </trkpt>
      <trkpt lat="42.7772160" lon="-0.2306320">
        <ele>1959.8</ele>
        <time>2020-09-11T07:20:32Z</time>
      </trkpt>
      <trkpt lat="42.7772260" lon="-0.2306410">
        <ele>1960.2</ele>
        <time>2020-09-11T07:20:34Z</time>
      </trkpt>
      <trkpt lat="42.7772530" lon="-0.2306390">
        <ele>1961.2</ele>
        <time>2020-09-11T07:20:39Z</time>
      </trkpt>
      <trkpt lat="42.7772680" lon="-0.2306400">
        <ele>1962.2</ele>
        <time>2020-09-11T07:20:44Z</time>
      </trkpt>
      <trkpt lat="42.7773050" lon="-0.2306470">
        <ele>1963.2</ele>
        <time>2020-09-11T07:20:49Z</time>
      </trkpt>
      <trkpt lat="42.7773350" lon="-0.2306560">
        <ele>1964.2</ele>
        <time>2020-09-11T07:20:55Z</time>
      </trkpt>
      <trkpt lat="42.7773570" lon="-0.2306440">
        <ele>1965.4</ele>
        <time>2020-09-11T07:20:59Z</time>
      </trkpt>
      <trkpt lat="42.7774090" lon="-0.2306470">
        <ele>1966.6</ele>
        <time>2020-09-11T07:21:06Z</time>
      </trkpt>
      <trkpt lat="42.7774300" lon="-0.2306580">
        <ele>1967.8</ele>
        <time>2020-09-11T07:21:11Z</time>
      </trkpt>
      <trkpt lat="42.7774980" lon="-0.2306090">
        <ele>1969.0</ele>
        <time>2020-09-11T07:21:19Z</time>
      </trkpt>
      <trkpt lat="42.7775420" lon="-0.2305650">
        <ele>1970.0</ele>
        <time>2020-09-11T07:21:25Z</time>
      </trkpt>
      <trkpt lat="42.7775870" lon="-0.2305910">
        <ele>1971.0</ele>
        <time>2020-09-11T07:21:30Z</time>
      </trkpt>
      <trkpt lat="42.7776030" lon="-0.2306080">
        <ele>1971.8</ele>
        <time>2020-09-11T07:21:35Z</time>
      </trkpt>
      <trkpt lat="42.7776160" lon="-0.2306120">
        <ele>1972.4</ele>
        <time>2020-09-11T07:21:37Z</time>
      </trkpt>
      <trkpt lat="42.7776520" lon="-0.2305960">
        <ele>1973.4</ele>
        <time>2020-09-11T07:21:46Z</time>
      </trkpt>
      <trkpt lat="42.7777070" lon="-0.2305840">
        <ele>1974.6</ele>
        <time>2020-09-11T07:21:53Z</time>
      </trkpt>
      <trkpt lat="42.7777590" lon="-0.2305850">
        <ele>1975.6</ele>
        <time>2020-09-11T07:21:59Z</time>
      </trkpt>
      <trkpt lat="42.7777530" lon="-0.2306230">
        <ele>1976.8</ele>
        <time>2020-09-11T07:22:03Z</time>
      </trkpt>
      <trkpt lat="42.7777590" lon="-0.2307050">
        <ele>1977.8</ele>
        <time>2020-09-11T07:22:10Z</time>
      </trkpt>
      <trkpt lat="42.7777770" lon="-0.2307470">
        <ele>1978.6</ele>
        <time>2020-09-11T07:22:14Z</time>
      </trkpt>
      <trkpt lat="42.7777970" lon="-0.2307620">
        <ele>1979.0</ele>
        <time>2020-09-11T07:22:17Z</time>
      </trkpt>
      <trkpt lat="42.7778260" lon="-0.2307940">
        <ele>1980.2</ele>
        <time>2020-09-11T07:22:23Z</time>
      </trkpt>
      <trkpt lat="42.7778300" lon="-0.2308060">
        <ele>1980.6</ele>
        <time>2020-09-11T07:22:25Z</time>
      </trkpt>
      <trkpt lat="42.7778270" lon="-0.2308390">
        <ele>1981.4</ele>
        <time>2020-09-11T07:22:29Z</time>
      </trkpt>
      <trkpt lat="42.7778140" lon="-0.2308680">
        <ele>1982.4</ele>
        <time>2020-09-11T07:22:33Z</time>
      </trkpt>
      <trkpt lat="42.7777950" lon="-0.2309120">
        <ele>1983.6</ele>
        <time>2020-09-11T07:22:38Z</time>
      </trkpt>
      <trkpt lat="42.7778030" lon="-0.2309630">
        <ele>1984.8</ele>
        <time>2020-09-11T07:22:43Z</time>
      </trkpt>
      <trkpt lat="42.7777980" lon="-0.2310240">
        <ele>1986.0</ele>
        <time>2020-09-11T07:22:49Z</time>
      </trkpt>
      <trkpt lat="42.7777970" lon="-0.2310660">
        <ele>1987.2</ele>
        <time>2020-09-11T07:22:55Z</time>
      </trkpt>
      <trkpt lat="42.7777780" lon="-0.2311390">
        <ele>1988.4</ele>
        <time>2020-09-11T07:23:00Z</time>
      </trkpt>
      <trkpt lat="42.7777550" lon="-0.2311930">
        <ele>1989.0</ele>
        <time>2020-09-11T07:23:05Z</time>
      </trkpt>
      <trkpt lat="42.7777530" lon="-0.2312150">
        <ele>1989.6</ele>
        <time>2020-09-11T07:23:07Z</time>
      </trkpt>
      <trkpt lat="42.7777800" lon="-0.2312410">
        <ele>1990.6</ele>
        <time>2020-09-11T07:23:13Z</time>
      </trkpt>
      <trkpt lat="42.7778010" lon="-0.2312460">
        <ele>1991.6</ele>
        <time>2020-09-11T07:23:17Z</time>
      </trkpt>
      <trkpt lat="42.7778530" lon="-0.2312400">
        <ele>1992.8</ele>
        <time>2020-09-11T07:23:25Z</time>
      </trkpt>
      <trkpt lat="42.7778630" lon="-0.2312370">
        <ele>1993.2</ele>
        <time>2020-09-11T07:23:26Z</time>
      </trkpt>
      <trkpt lat="42.7778850" lon="-0.2312250">
        <ele>1994.0</ele>
        <time>2020-09-11T07:23:29Z</time>
      </trkpt>
      <trkpt lat="42.7779260" lon="-0.2311980">
        <ele>1995.0</ele>
        <time>2020-09-11T07:23:35Z</time>
      </trkpt>
      <trkpt lat="42.7779730" lon="-0.2311840">
        <ele>1996.2</ele>
        <time>2020-09-11T07:23:40Z</time>
      </trkpt>
      <trkpt lat="42.7780250" lon="-0.2311520">
        <ele>1997.2</ele>
        <time>2020-09-11T07:23:47Z</time>
      </trkpt>
      <trkpt lat="42.7780330" lon="-0.2311540">
        <ele>1997.4</ele>
        <time>2020-09-11T07:23:48Z</time>
      </trkpt>
      <trkpt lat="42.7780590" lon="-0.2311480">
        <ele>1998.4</ele>
        <time>2020-09-11T07:23:52Z</time>
      </trkpt>
      <trkpt lat="42.7780860" lon="-0.2311300">
        <ele>1999.4</ele>
        <time>2020-09-11T07:23:56Z</time>
      </trkpt>
      <trkpt lat="42.7781230" lon="-0.2311240">
        <ele>2000.0</ele>
        <time>2020-09-11T07:24:00Z</time>
      </trkpt>
      <trkpt lat="42.7781430" lon="-0.2311180">
        <ele>2000.6</ele>
        <time>2020-09-11T07:24:02Z</time>
      </trkpt>
      <trkpt lat="42.7781880" lon="-0.2311100">
        <ele>2001.8</ele>
        <time>2020-09-11T07:24:09Z</time>
      </trkpt>
      <trkpt lat="42.7781970" lon="-0.2311240">
        <ele>2003.0</ele>
        <time>2020-09-11T07:24:14Z</time>
      </trkpt>
      <trkpt lat="42.7781820" lon="-0.2311710">
        <ele>2004.2</ele>
        <time>2020-09-11T07:24:23Z</time>
      </trkpt>
      <trkpt lat="42.7781520" lon="-0.2311910">
        <ele>2005.2</ele>
        <time>2020-09-11T07:24:28Z</time>
      </trkpt>
      <trkpt lat="42.7781360" lon="-0.2312480">
        <ele>2006.2</ele>
        <time>2020-09-11T07:24:33Z</time>
      </trkpt>
      <trkpt lat="42.7781160" lon="-0.2313020">
        <ele>2007.2</ele>
        <time>2020-09-11T07:24:38Z</time>
      </trkpt>
      <trkpt lat="42.7780970" lon="-0.2313960">
        <ele>2008.4</ele>
        <time>2020-09-11T07:24:46Z</time>
      </trkpt>
      <trkpt lat="42.7780900" lon="-0.2314470">
        <ele>2009.6</ele>
        <time>2020-09-11T07:24:51Z</time>
      </trkpt>
      <trkpt lat="42.7780820" lon="-0.2314970">
        <ele>2010.8</ele>
        <time>2020-09-11T07:24:56Z</time>
      </trkpt>
      <trkpt lat="42.7780750" lon="-0.2315600">
        <ele>2012.0</ele>
        <time>2020-09-11T07:25:03Z</time>
      </trkpt>
      <trkpt lat="42.7780700" lon="-0.2316280">
        <ele>2013.0</ele>
        <time>2020-09-11T07:25:09Z</time>
      </trkpt>
      <trkpt lat="42.7780740" lon="-0.2316860">
        <ele>2014.2</ele>
        <time>2020-09-11T07:25:15Z</time>
      </trkpt>
      <trkpt lat="42.7781090" lon="-0.2316600">
        <ele>2015.2</ele>
        <time>2020-09-11T07:25:21Z</time>
      </trkpt>
      <trkpt lat="42.7781330" lon="-0.2316290">
        <ele>2016.4</ele>
        <time>2020-09-11T07:25:25Z</time>
      </trkpt>
      <trkpt lat="42.7781630" lon="-0.2316280">
        <ele>2017.6</ele>
        <time>2020-09-11T07:25:32Z</time>
      </trkpt>
      <trkpt lat="42.7781810" lon="-0.2316480">
        <ele>2018.6</ele>
        <time>2020-09-11T07:25:36Z</time>
      </trkpt>
      <trkpt lat="42.7782230" lon="-0.2316220">
        <ele>2020.0</ele>
        <time>2020-09-11T07:25:43Z</time>
      </trkpt>
      <trkpt lat="42.7782340" lon="-0.2316260">
        <ele>2021.0</ele>
        <time>2020-09-11T07:25:48Z</time>
      </trkpt>
      <trkpt lat="42.7782440" lon="-0.2316490">
        <ele>2022.0</ele>
        <time>2020-09-11T07:25:51Z</time>
      </trkpt>
      <trkpt lat="42.7782620" lon="-0.2316310">
        <ele>2023.2</ele>
        <time>2020-09-11T07:25:55Z</time>
      </trkpt>
      <trkpt lat="42.7782970" lon="-0.2315960">
        <ele>2024.2</ele>
        <time>2020-09-11T07:26:02Z</time>
      </trkpt>
      <trkpt lat="42.7783240" lon="-0.2316020">
        <ele>2025.4</ele>
        <time>2020-09-11T07:26:08Z</time>
      </trkpt>
      <trkpt lat="42.7783220" lon="-0.2316430">
        <ele>2026.4</ele>
        <time>2020-09-11T07:26:13Z</time>
      </trkpt>
      <trkpt lat="42.7783050" lon="-0.2317010">
        <ele>2027.4</ele>
        <time>2020-09-11T07:26:19Z</time>
      </trkpt>
      <trkpt lat="42.7782910" lon="-0.2317410">
        <ele>2028.6</ele>
        <time>2020-09-11T07:26:24Z</time>
      </trkpt>
      <trkpt lat="42.7782770" lon="-0.2318110">
        <ele>2029.6</ele>
        <time>2020-09-11T07:26:31Z</time>
      </trkpt>
      <trkpt lat="42.7782680" lon="-0.2318450">
        <ele>2030.8</ele>
        <time>2020-09-11T07:26:36Z</time>
      </trkpt>
      <trkpt lat="42.7782610" lon="-0.2318960">
        <ele>2032.0</ele>
        <time>2020-09-11T07:26:42Z</time>
      </trkpt>
      <trkpt lat="42.7782580" lon="-0.2319590">
        <ele>2033.0</ele>
        <time>2020-09-11T07:26:48Z</time>
      </trkpt>
      <trkpt lat="42.7782650" lon="-0.2320040">
        <ele>2034.2</ele>
        <time>2020-09-11T07:26:55Z</time>
      </trkpt>
      <trkpt lat="42.7782740" lon="-0.2320450">
        <ele>2035.2</ele>
        <time>2020-09-11T07:27:01Z</time>
      </trkpt>
      <trkpt lat="42.7782990" lon="-0.2320770">
        <ele>2036.4</ele>
        <time>2020-09-11T07:27:08Z</time>
      </trkpt>
      <trkpt lat="42.7783050" lon="-0.2321070">
        <ele>2037.8</ele>
        <time>2020-09-11T07:27:14Z</time>
      </trkpt>
      <trkpt lat="42.7783040" lon="-0.2321550">
        <ele>2038.8</ele>
        <time>2020-09-11T07:27:21Z</time>
      </trkpt>
      <trkpt lat="42.7783060" lon="-0.2321950">
        <ele>2039.8</ele>
        <time>2020-09-11T07:27:28Z</time>
      </trkpt>
      <trkpt lat="42.7783250" lon="-0.2322240">
        <ele>2041.0</ele>
        <time>2020-09-11T07:27:34Z</time>
      </trkpt>
      <trkpt lat="42.7783380" lon="-0.2322330">
        <ele>2042.0</ele>
        <time>2020-09-11T07:27:38Z</time>
      </trkpt>
      <trkpt lat="42.7783400" lon="-0.2322520">
        <ele>2043.0</ele>
        <time>2020-09-11T07:27:42Z</time>
      </trkpt>
      <trkpt lat="42.7783430" lon="-0.2322770">
        <ele>2044.2</ele>
        <time>2020-09-11T07:27:47Z</time>
      </trkpt>
      <trkpt lat="42.7783570" lon="-0.2322990">
        <ele>2045.4</ele>
        <time>2020-09-11T07:27:52Z</time>
      </trkpt>
      <trkpt lat="42.7783890" lon="-0.2322810">
        <ele>2046.6</ele>
        <time>2020-09-11T07:28:01Z</time>
      </trkpt>
      <trkpt lat="42.7784010" lon="-0.2322700">
        <ele>2047.8</ele>
        <time>2020-09-11T07:28:05Z</time>
      </trkpt>
      <trkpt lat="42.7784130" lon="-0.2322830">
        <ele>2048.8</ele>
        <time>2020-09-11T07:28:12Z</time>
      </trkpt>
      <trkpt lat="42.7784170" lon="-0.2323140">
        <ele>2050.0</ele>
        <time>2020-09-11T07:28:19Z</time>
      </trkpt>
      <trkpt lat="42.7784060" lon="-0.2323380">
        <ele>2051.0</ele>
        <time>2020-09-11T07:28:23Z</time>
      </trkpt>
      <trkpt lat="42.7784040" lon="-0.2323720">
        <ele>2052.2</ele>
        <time>2020-09-11T07:28:28Z</time>
      </trkpt>
      <trkpt lat="42.7784250" lon="-0.2323850">
        <ele>2053.4</ele>
        <time>2020-09-11T07:28:35Z</time>
      </trkpt>
      <trkpt lat="42.7784480" lon="-0.2323940">
        <ele>2054.4</ele>
        <time>2020-09-11T07:28:40Z</time>
      </trkpt>
      <trkpt lat="42.7784640" lon="-0.2324020">
        <ele>2055.6</ele>
        <time>2020-09-11T07:28:45Z</time>
      </trkpt>
      <trkpt lat="42.7784200" lon="-0.2324690">
        <ele>2056.6</ele>
        <time>2020-09-11T07:28:55Z</time>
      </trkpt>
      <trkpt lat="42.7784070" lon="-0.2325120">
        <ele>2057.4</ele>
        <time>2020-09-11T07:28:59Z</time>
      </trkpt>
      <trkpt lat="42.7784060" lon="-0.2325130">
        <ele>2057.6</ele>
        <time>2020-09-11T07:29:00Z</time>
      </trkpt>
      <trkpt lat="42.7783880" lon="-0.2325460">
        <ele>2058.6</ele>
        <time>2020-09-11T07:29:06Z</time>
      </trkpt>
      <trkpt lat="42.7784130" lon="-0.2325610">
        <ele>2059.8</ele>
        <time>2020-09-11T07:29:10Z</time>
      </trkpt>
      <trkpt lat="42.7784350" lon="-0.2325670">
        <ele>2060.2</ele>
        <time>2020-09-11T07:29:13Z</time>
      </trkpt>
      <trkpt lat="42.7784530" lon="-0.2325630">
        <ele>2060.4</ele>
        <time>2020-09-11T07:29:15Z</time>
      </trkpt>
      <trkpt lat="42.7784720" lon="-0.2325380">
        <ele>2060.8</ele>
        <time>2020-09-11T07:29:18Z</time>
      </trkpt>
      <trkpt lat="42.7784800" lon="-0.2325310">
        <ele>2061.4</ele>
        <time>2020-09-11T07:29:20Z</time>
      </trkpt>
      <trkpt lat="42.7784930" lon="-0.2325180">
        <ele>2062.0</ele>
        <time>2020-09-11T07:29:23Z</time>
      </trkpt>
      <trkpt lat="42.7785100" lon="-0.2325370">
        <ele>2063.2</ele>
        <time>2020-09-11T07:29:29Z</time>
      </trkpt>
      <trkpt lat="42.7784980" lon="-0.2325740">
        <ele>2064.4</ele>
        <time>2020-09-11T07:29:35Z</time>
      </trkpt>
      <trkpt lat="42.7784800" lon="-0.2326350">
        <ele>2065.6</ele>
        <time>2020-09-11T07:29:43Z</time>
      </trkpt>
      <trkpt lat="42.7784560" lon="-0.2326390">
        <ele>2066.6</ele>
        <time>2020-09-11T07:29:48Z</time>
      </trkpt>
      <trkpt lat="42.7784150" lon="-0.2326670">
        <ele>2067.8</ele>
        <time>2020-09-11T07:29:55Z</time>
      </trkpt>
      <trkpt lat="42.7784140" lon="-0.2326990">
        <ele>2069.0</ele>
        <time>2020-09-11T07:30:01Z</time>
      </trkpt>
      <trkpt lat="42.7784610" lon="-0.2326970">
        <ele>2070.0</ele>
        <time>2020-09-11T07:30:07Z</time>
      </trkpt>
      <trkpt lat="42.7784770" lon="-0.2327010">
        <ele>2070.4</ele>
        <time>2020-09-11T07:30:09Z</time>
      </trkpt>
      <trkpt lat="42.7784950" lon="-0.2327070">
        <ele>2070.8</ele>
        <time>2020-09-11T07:30:11Z</time>
      </trkpt>
      <trkpt lat="42.7785070" lon="-0.2327100">
        <ele>2071.2</ele>
        <time>2020-09-11T07:30:13Z</time>
      </trkpt>
      <trkpt lat="42.7785400" lon="-0.2327100">
        <ele>2072.2</ele>
        <time>2020-09-11T07:30:19Z</time>
      </trkpt>
      <trkpt lat="42.7785840" lon="-0.2327250">
        <ele>2073.4</ele>
        <time>2020-09-11T07:30:24Z</time>
      </trkpt>
      <trkpt lat="42.7786170" lon="-0.2327290">
        <ele>2074.4</ele>
        <time>2020-09-11T07:30:29Z</time>
      </trkpt>
      <trkpt lat="42.7786260" lon="-0.2327180">
        <ele>2075.0</ele>
        <time>2020-09-11T07:30:31Z</time>
      </trkpt>
      <trkpt lat="42.7786380" lon="-0.2326950">
        <ele>2075.6</ele>
        <time>2020-09-11T07:30:34Z</time>
      </trkpt>
      <trkpt lat="42.7786740" lon="-0.2326840">
        <ele>2076.6</ele>
        <time>2020-09-11T07:30:39Z</time>
      </trkpt>
      <trkpt lat="42.7787250" lon="-0.2326700">
        <ele>2077.6</ele>
        <time>2020-09-11T07:30:46Z</time>
      </trkpt>
      <trkpt lat="42.7787560" lon="-0.2326580">
        <ele>2078.8</ele>
        <time>2020-09-11T07:30:55Z</time>
      </trkpt>
      <trkpt lat="42.7787940" lon="-0.2326180">
        <ele>2079.8</ele>
        <time>2020-09-11T07:31:01Z</time>
      </trkpt>
      <trkpt lat="42.7787990" lon="-0.2326080">
        <ele>2080.0</ele>
        <time>2020-09-11T07:31:02Z</time>
      </trkpt>
      <trkpt lat="42.7788110" lon="-0.2325860">
        <ele>2080.4</ele>
        <time>2020-09-11T07:31:04Z</time>
      </trkpt>
      <trkpt lat="42.7788170" lon="-0.2325810">
        <ele>2080.6</ele>
        <time>2020-09-11T07:31:06Z</time>
      </trkpt>
      <trkpt lat="42.7788320" lon="-0.2324710">
        <ele>2081.0</ele>
        <time>2020-09-11T07:31:15Z</time>
      </trkpt>
      <trkpt lat="42.7788470" lon="-0.2323810">
        <ele>2082.0</ele>
        <time>2020-09-11T07:31:20Z</time>
      </trkpt>
      <trkpt lat="42.7788550" lon="-0.2323610">
        <ele>2082.4</ele>
        <time>2020-09-11T07:31:22Z</time>
      </trkpt>
      <trkpt lat="42.7788840" lon="-0.2323510">
        <ele>2083.2</ele>
        <time>2020-09-11T07:31:25Z</time>
      </trkpt>
      <trkpt lat="42.7788930" lon="-0.2323400">
        <ele>2083.8</ele>
        <time>2020-09-11T07:31:27Z</time>
      </trkpt>
      <trkpt lat="42.7789000" lon="-0.2323250">
        <ele>2084.2</ele>
        <time>2020-09-11T07:31:29Z</time>
      </trkpt>
      <trkpt lat="42.7789040" lon="-0.2323150">
        <ele>2084.4</ele>
        <time>2020-09-11T07:31:30Z</time>
      </trkpt>
      <trkpt lat="42.7789170" lon="-0.2322770">
        <ele>2085.2</ele>
        <time>2020-09-11T07:31:33Z</time>
      </trkpt>
      <trkpt lat="42.7789180" lon="-0.2322640">
        <ele>2085.4</ele>
        <time>2020-09-11T07:31:34Z</time>
      </trkpt>
      <trkpt lat="42.7789330" lon="-0.2322380">
        <ele>2085.6</ele>
        <time>2020-09-11T07:31:37Z</time>
      </trkpt>
      <trkpt lat="42.7789460" lon="-0.2322230">
        <ele>2085.6</ele>
        <time>2020-09-11T07:31:39Z</time>
      </trkpt>
      <trkpt lat="42.7789570" lon="-0.2321980">
        <ele>2086.4</ele>
        <time>2020-09-11T07:31:42Z</time>
      </trkpt>
      <trkpt lat="42.7789590" lon="-0.2321870">
        <ele>2086.6</ele>
        <time>2020-09-11T07:31:43Z</time>
      </trkpt>
      <trkpt lat="42.7789610" lon="-0.2321770">
        <ele>2087.0</ele>
        <time>2020-09-11T07:31:44Z</time>
      </trkpt>
      <trkpt lat="42.7789710" lon="-0.2321600">
        <ele>2087.4</ele>
        <time>2020-09-11T07:31:46Z</time>
      </trkpt>
      <trkpt lat="42.7789850" lon="-0.2321300">
        <ele>2087.8</ele>
        <time>2020-09-11T07:31:49Z</time>
      </trkpt>
      <trkpt lat="42.7789980" lon="-0.2321080">
        <ele>2088.0</ele>
        <time>2020-09-11T07:31:51Z</time>
      </trkpt>
      <trkpt lat="42.7790240" lon="-0.2320730">
        <ele>2089.0</ele>
        <time>2020-09-11T07:31:54Z</time>
      </trkpt>
      <trkpt lat="42.7790380" lon="-0.2320670">
        <ele>2089.0</ele>
        <time>2020-09-11T07:31:55Z</time>
      </trkpt>
      <trkpt lat="42.7790480" lon="-0.2320680">
        <ele>2089.4</ele>
        <time>2020-09-11T07:31:57Z</time>
      </trkpt>
      <trkpt lat="42.7790590" lon="-0.2320530">
        <ele>2089.6</ele>
        <time>2020-09-11T07:31:59Z</time>
      </trkpt>
      <trkpt lat="42.7790720" lon="-0.2320390">
        <ele>2090.2</ele>
        <time>2020-09-11T07:32:01Z</time>
      </trkpt>
      <trkpt lat="42.7791030" lon="-0.2320080">
        <ele>2091.2</ele>
        <time>2020-09-11T07:32:06Z</time>
      </trkpt>
      <trkpt lat="42.7791260" lon="-0.2319600">
        <ele>2092.2</ele>
        <time>2020-09-11T07:32:12Z</time>
      </trkpt>
      <trkpt lat="42.7791370" lon="-0.2319270">
        <ele>2093.4</ele>
        <time>2020-09-11T07:32:16Z</time>
      </trkpt>
      <trkpt lat="42.7791550" lon="-0.2318430">
        <ele>2094.4</ele>
        <time>2020-09-11T07:32:25Z</time>
      </trkpt>
      <trkpt lat="42.7791750" lon="-0.2318390">
        <ele>2095.4</ele>
        <time>2020-09-11T07:32:30Z</time>
      </trkpt>
      <trkpt lat="42.7792060" lon="-0.2317800">
        <ele>2096.8</ele>
        <time>2020-09-11T07:32:39Z</time>
      </trkpt>
      <trkpt lat="42.7792110" lon="-0.2317380">
        <ele>2098.0</ele>
        <time>2020-09-11T07:32:43Z</time>
      </trkpt>
      <trkpt lat="42.7792080" lon="-0.2316770">
        <ele>2099.0</ele>
        <time>2020-09-11T07:32:48Z</time>
      </trkpt>
      <trkpt lat="42.7792280" lon="-0.2316570">
        <ele>2100.2</ele>
        <time>2020-09-11T07:32:54Z</time>
      </trkpt>
      <trkpt lat="42.7792640" lon="-0.2316360">
        <ele>2101.4</ele>
        <time>2020-09-11T07:32:59Z</time>
      </trkpt>
      <trkpt lat="42.7793300" lon="-0.2314900">
        <ele>2102.4</ele>
        <time>2020-09-11T07:33:18Z</time>
      </trkpt>
      <trkpt lat="42.7793530" lon="-0.2313870">
        <ele>2103.6</ele>
        <time>2020-09-11T07:33:25Z</time>
      </trkpt>
      <trkpt lat="42.7793610" lon="-0.2313460">
        <ele>2104.6</ele>
        <time>2020-09-11T07:33:28Z</time>
      </trkpt>
      <trkpt lat="42.7793640" lon="-0.2313390">
        <ele>2104.8</ele>
        <time>2020-09-11T07:33:29Z</time>
      </trkpt>
      <trkpt lat="42.7793690" lon="-0.2313330">
        <ele>2105.0</ele>
        <time>2020-09-11T07:33:30Z</time>
      </trkpt>
      <trkpt lat="42.7794030" lon="-0.2313050">
        <ele>2105.8</ele>
        <time>2020-09-11T07:33:38Z</time>
      </trkpt>
      <trkpt lat="42.7794540" lon="-0.2312370">
        <ele>2107.0</ele>
        <time>2020-09-11T07:33:48Z</time>
      </trkpt>
      <trkpt lat="42.7794830" lon="-0.2311980">
        <ele>2108.2</ele>
        <time>2020-09-11T07:33:52Z</time>
      </trkpt>
      <trkpt lat="42.7795290" lon="-0.2311470">
        <ele>2109.4</ele>
        <time>2020-09-11T07:33:59Z</time>
      </trkpt>
      <trkpt lat="42.7795700" lon="-0.2310850">
        <ele>2110.4</ele>
        <time>2020-09-11T07:34:05Z</time>
      </trkpt>
      <trkpt lat="42.7795990" lon="-0.2310360">
        <ele>2111.6</ele>
        <time>2020-09-11T07:34:11Z</time>
      </trkpt>
      <trkpt lat="42.7796280" lon="-0.2310150">
        <ele>2112.6</ele>
        <time>2020-09-11T07:34:17Z</time>
      </trkpt>
      <trkpt lat="42.7796680" lon="-0.2309840">
        <ele>2113.8</ele>
        <time>2020-09-11T07:34:23Z</time>
      </trkpt>
      <trkpt lat="42.7796900" lon="-0.2309490">
        <ele>2114.8</ele>
        <time>2020-09-11T07:34:27Z</time>
      </trkpt>
      <trkpt lat="42.7797250" lon="-0.2309390">
        <ele>2115.4</ele>
        <time>2020-09-11T07:34:33Z</time>
      </trkpt>
      <trkpt lat="42.7797430" lon="-0.2309280">
        <ele>2115.8</ele>
        <time>2020-09-11T07:34:36Z</time>
      </trkpt>
      <trkpt lat="42.7797730" lon="-0.2309200">
        <ele>2116.8</ele>
        <time>2020-09-11T07:34:41Z</time>
      </trkpt>
      <trkpt lat="42.7798510" lon="-0.2309120">
        <ele>2118.0</ele>
        <time>2020-09-11T07:34:48Z</time>
      </trkpt>
      <trkpt lat="42.7798670" lon="-0.2309040">
        <ele>2118.2</ele>
        <time>2020-09-11T07:34:49Z</time>
      </trkpt>
      <trkpt lat="42.7798920" lon="-0.2308770">
        <ele>2119.0</ele>
        <time>2020-09-11T07:34:52Z</time>
      </trkpt>
      <trkpt lat="42.7799290" lon="-0.2308540">
        <ele>2120.0</ele>
        <time>2020-09-11T07:34:59Z</time>
      </trkpt>
      <trkpt lat="42.7799700" lon="-0.2308580">
        <ele>2120.4</ele>
        <time>2020-09-11T07:35:02Z</time>
      </trkpt>
      <trkpt lat="42.7799940" lon="-0.2308510">
        <ele>2120.8</ele>
        <time>2020-09-11T07:35:04Z</time>
      </trkpt>
      <trkpt lat="42.7800320" lon="-0.2308130">
        <ele>2121.2</ele>
        <time>2020-09-11T07:35:08Z</time>
      </trkpt>
      <trkpt lat="42.7800470" lon="-0.2308110">
        <ele>2121.4</ele>
        <time>2020-09-11T07:35:09Z</time>
      </trkpt>
      <trkpt lat="42.7800680" lon="-0.2308020">
        <ele>2121.6</ele>
        <time>2020-09-11T07:35:11Z</time>
      </trkpt>
      <trkpt lat="42.7801540" lon="-0.2306940">
        <ele>2122.2</ele>
        <time>2020-09-11T07:35:20Z</time>
      </trkpt>
      <trkpt lat="42.7801780" lon="-0.2306360">
        <ele>2122.8</ele>
        <time>2020-09-11T07:35:25Z</time>
      </trkpt>
      <trkpt lat="42.7801980" lon="-0.2306450">
        <ele>2123.4</ele>
        <time>2020-09-11T07:35:28Z</time>
      </trkpt>
      <trkpt lat="42.7802080" lon="-0.2306410">
        <ele>2123.4</ele>
        <time>2020-09-11T07:35:29Z</time>
      </trkpt>
      <trkpt lat="42.7802260" lon="-0.2306170">
        <ele>2124.0</ele>
        <time>2020-09-11T07:35:32Z</time>
      </trkpt>
      <trkpt lat="42.7802300" lon="-0.2306130">
        <ele>2124.4</ele>
        <time>2020-09-11T07:35:33Z</time>
      </trkpt>
      <trkpt lat="42.7802480" lon="-0.2305880">
        <ele>2124.8</ele>
        <time>2020-09-11T07:35:35Z</time>
      </trkpt>
      <trkpt lat="42.7802600" lon="-0.2305570">
        <ele>2125.4</ele>
        <time>2020-09-11T07:35:37Z</time>
      </trkpt>
      <trkpt lat="42.7802650" lon="-0.2305450">
        <ele>2125.6</ele>
        <time>2020-09-11T07:35:38Z</time>
      </trkpt>
      <trkpt lat="42.7802700" lon="-0.2305370">
        <ele>2125.8</ele>
        <time>2020-09-11T07:35:39Z</time>
      </trkpt>
      <trkpt lat="42.7802790" lon="-0.2305160">
        <ele>2126.2</ele>
        <time>2020-09-11T07:35:41Z</time>
      </trkpt>
      <trkpt lat="42.7803010" lon="-0.2304450">
        <ele>2126.6</ele>
        <time>2020-09-11T07:35:45Z</time>
      </trkpt>
      <trkpt lat="42.7803500" lon="-0.2303500">
        <ele>2127.6</ele>
        <time>2020-09-11T07:35:52Z</time>
      </trkpt>
      <trkpt lat="42.7803630" lon="-0.2302890">
        <ele>2127.8</ele>
        <time>2020-09-11T07:35:56Z</time>
      </trkpt>
      <trkpt lat="42.7803620" lon="-0.2302500">
        <ele>2128.2</ele>
        <time>2020-09-11T07:35:59Z</time>
      </trkpt>
      <trkpt lat="42.7803640" lon="-0.2302030">
        <ele>2128.8</ele>
        <time>2020-09-11T07:36:02Z</time>
      </trkpt>
      <trkpt lat="42.7803680" lon="-0.2301530">
        <ele>2129.2</ele>
        <time>2020-09-11T07:36:06Z</time>
      </trkpt>
      <trkpt lat="42.7803870" lon="-0.2301080">
        <ele>2129.8</ele>
        <time>2020-09-11T07:36:10Z</time>
      </trkpt>
      <trkpt lat="42.7803930" lon="-0.2300980">
        <ele>2130.2</ele>
        <time>2020-09-11T07:36:11Z</time>
      </trkpt>
      <trkpt lat="42.7804050" lon="-0.2300740">
        <ele>2130.6</ele>
        <time>2020-09-11T07:36:13Z</time>
      </trkpt>
      <trkpt lat="42.7804110" lon="-0.2300620">
        <ele>2131.0</ele>
        <time>2020-09-11T07:36:14Z</time>
      </trkpt>
      <trkpt lat="42.7804620" lon="-0.2299790">
        <ele>2132.2</ele>
        <time>2020-09-11T07:36:21Z</time>
      </trkpt>
      <trkpt lat="42.7804960" lon="-0.2299260">
        <ele>2133.2</ele>
        <time>2020-09-11T07:36:27Z</time>
      </trkpt>
      <trkpt lat="42.7804780" lon="-0.2298340">
        <ele>2134.0</ele>
        <time>2020-09-11T07:36:34Z</time>
      </trkpt>
      <trkpt lat="42.7804860" lon="-0.2297940">
        <ele>2134.4</ele>
        <time>2020-09-11T07:36:37Z</time>
      </trkpt>
      <trkpt lat="42.7804920" lon="-0.2297240">
        <ele>2135.4</ele>
        <time>2020-09-11T07:36:42Z</time>
      </trkpt>
      <trkpt lat="42.7805050" lon="-0.2296620">
        <ele>2136.6</ele>
        <time>2020-09-11T07:36:47Z</time>
      </trkpt>
      <trkpt lat="42.7805420" lon="-0.2296490">
        <ele>2137.4</ele>
        <time>2020-09-11T07:36:51Z</time>
      </trkpt>
      <trkpt lat="42.7805640" lon="-0.2296490">
        <ele>2137.6</ele>
        <time>2020-09-11T07:36:52Z</time>
      </trkpt>
      <trkpt lat="42.7805760" lon="-0.2296840">
        <ele>2138.2</ele>
        <time>2020-09-11T07:36:54Z</time>
      </trkpt>
      <trkpt lat="42.7805860" lon="-0.2297420">
        <ele>2138.8</ele>
        <time>2020-09-11T07:36:57Z</time>
      </trkpt>
      <trkpt lat="42.7805680" lon="-0.2298260">
        <ele>2139.2</ele>
        <time>2020-09-11T07:37:01Z</time>
      </trkpt>
      <trkpt lat="42.7805730" lon="-0.2298730">
        <ele>2139.8</ele>
        <time>2020-09-11T07:37:05Z</time>
      </trkpt>
      <trkpt lat="42.7805800" lon="-0.2298730">
        <ele>2140.0</ele>
        <time>2020-09-11T07:37:06Z</time>
      </trkpt>
      <trkpt lat="42.7805870" lon="-0.2298640">
        <ele>2140.4</ele>
        <time>2020-09-11T07:37:07Z</time>
      </trkpt>
      <trkpt lat="42.7806000" lon="-0.2298430">
        <ele>2140.8</ele>
        <time>2020-09-11T07:37:10Z</time>
      </trkpt>
      <trkpt lat="42.7806100" lon="-0.2298100">
        <ele>2141.2</ele>
        <time>2020-09-11T07:37:13Z</time>
      </trkpt>
      <trkpt lat="42.7806240" lon="-0.2297750">
        <ele>2141.8</ele>
        <time>2020-09-11T07:37:16Z</time>
      </trkpt>
      <trkpt lat="42.7806280" lon="-0.2297660">
        <ele>2142.0</ele>
        <time>2020-09-11T07:37:17Z</time>
      </trkpt>
      <trkpt lat="42.7806280" lon="-0.2297380">
        <ele>2142.6</ele>
        <time>2020-09-11T07:37:19Z</time>
      </trkpt>
      <trkpt lat="42.7805950" lon="-0.2295740">
        <ele>2142.8</ele>
        <time>2020-09-11T07:37:33Z</time>
      </trkpt>
      <trkpt lat="42.7806200" lon="-0.2294520">
        <ele>2143.6</ele>
        <time>2020-09-11T07:37:41Z</time>
      </trkpt>
      <trkpt lat="42.7806260" lon="-0.2294340">
        <ele>2143.8</ele>
        <time>2020-09-11T07:37:43Z</time>
      </trkpt>
      <trkpt lat="42.7806510" lon="-0.2293850">
        <ele>2144.8</ele>
        <time>2020-09-11T07:37:48Z</time>
      </trkpt>
      <trkpt lat="42.7806660" lon="-0.2293420">
        <ele>2145.4</ele>
        <time>2020-09-11T07:37:52Z</time>
      </trkpt>
      <trkpt lat="42.7807080" lon="-0.2293020">
        <ele>2146.0</ele>
        <time>2020-09-11T07:37:56Z</time>
      </trkpt>
      <trkpt lat="42.7807270" lon="-0.2292900">
        <ele>2146.4</ele>
        <time>2020-09-11T07:37:58Z</time>
      </trkpt>
      <trkpt lat="42.7807420" lon="-0.2292810">
        <ele>2147.0</ele>
        <time>2020-09-11T07:38:00Z</time>
      </trkpt>
      <trkpt lat="42.7807590" lon="-0.2292710">
        <ele>2147.6</ele>
        <time>2020-09-11T07:38:03Z</time>
      </trkpt>
      <trkpt lat="42.7807770" lon="-0.2292690">
        <ele>2148.2</ele>
        <time>2020-09-11T07:38:06Z</time>
      </trkpt>
      <trkpt lat="42.7807800" lon="-0.2292670">
        <ele>2148.6</ele>
        <time>2020-09-11T07:38:07Z</time>
      </trkpt>
      <trkpt lat="42.7807950" lon="-0.2292620">
        <ele>2149.4</ele>
        <time>2020-09-11T07:38:10Z</time>
      </trkpt>
      <trkpt lat="42.7808130" lon="-0.2292580">
        <ele>2150.4</ele>
        <time>2020-09-11T07:38:15Z</time>
      </trkpt>
      <trkpt lat="42.7808640" lon="-0.2292920">
        <ele>2151.6</ele>
        <time>2020-09-11T07:38:37Z</time>
      </trkpt>
      <trkpt lat="42.7808490" lon="-0.2294080">
        <ele>2152.4</ele>
        <time>2020-09-11T07:38:45Z</time>
      </trkpt>
      <trkpt lat="42.7808450" lon="-0.2294170">
        <ele>2152.6</ele>
        <time>2020-09-11T07:38:46Z</time>
      </trkpt>
      <trkpt lat="42.7808440" lon="-0.2294260">
        <ele>2152.8</ele>
        <time>2020-09-11T07:38:47Z</time>
      </trkpt>
      <trkpt lat="42.7808530" lon="-0.2294860">
        <ele>2153.6</ele>
        <time>2020-09-11T07:38:54Z</time>
      </trkpt>
      <trkpt lat="42.7808670" lon="-0.2295340">
        <ele>2155.0</ele>
        <time>2020-09-11T07:38:59Z</time>
      </trkpt>
      <trkpt lat="42.7808750" lon="-0.2295470">
        <ele>2156.0</ele>
        <time>2020-09-11T07:39:02Z</time>
      </trkpt>
      <trkpt lat="42.7808830" lon="-0.2295770">
        <ele>2157.0</ele>
        <time>2020-09-11T07:39:06Z</time>
      </trkpt>
      <trkpt lat="42.7808830" lon="-0.2296370">
        <ele>2158.2</ele>
        <time>2020-09-11T07:39:12Z</time>
      </trkpt>
      <trkpt lat="42.7809060" lon="-0.2296530">
        <ele>2159.2</ele>
        <time>2020-09-11T07:39:16Z</time>
      </trkpt>
      <trkpt lat="42.7809450" lon="-0.2295590">
        <ele>2160.4</ele>
        <time>2020-09-11T07:39:24Z</time>
      </trkpt>
      <trkpt lat="42.7809570" lon="-0.2295090">
        <ele>2161.0</ele>
        <time>2020-09-11T07:39:27Z</time>
      </trkpt>
      <trkpt lat="42.7809730" lon="-0.2294610">
        <ele>2161.6</ele>
        <time>2020-09-11T07:39:31Z</time>
      </trkpt>
      <trkpt lat="42.7809800" lon="-0.2292940">
        <ele>2162.8</ele>
        <time>2020-09-11T07:39:42Z</time>
      </trkpt>
      <trkpt lat="42.7809840" lon="-0.2292730">
        <ele>2163.4</ele>
        <time>2020-09-11T07:39:44Z</time>
      </trkpt>
      <trkpt lat="42.7809910" lon="-0.2292590">
        <ele>2164.0</ele>
        <time>2020-09-11T07:39:46Z</time>
      </trkpt>
      <trkpt lat="42.7810020" lon="-0.2292480">
        <ele>2164.8</ele>
        <time>2020-09-11T07:39:49Z</time>
      </trkpt>
      <trkpt lat="42.7810200" lon="-0.2292500">
        <ele>2165.2</ele>
        <time>2020-09-11T07:39:51Z</time>
      </trkpt>
      <trkpt lat="42.7810350" lon="-0.2291880">
        <ele>2166.2</ele>
        <time>2020-09-11T07:39:58Z</time>
      </trkpt>
      <trkpt lat="42.7810280" lon="-0.2291640">
        <ele>2166.2</ele>
        <time>2020-09-11T07:40:00Z</time>
      </trkpt>
      <trkpt lat="42.7810160" lon="-0.2291170">
        <ele>2165.0</ele>
        <time>2020-09-11T07:40:04Z</time>
      </trkpt>
      <trkpt lat="42.7810180" lon="-0.2291040">
        <ele>2164.4</ele>
        <time>2020-09-11T07:40:05Z</time>
      </trkpt>
      <trkpt lat="42.7810280" lon="-0.2290740">
        <ele>2163.8</ele>
        <time>2020-09-11T07:40:07Z</time>
      </trkpt>
      <trkpt lat="42.7810310" lon="-0.2290480">
        <ele>2163.8</ele>
        <time>2020-09-11T07:40:09Z</time>
      </trkpt>
      <trkpt lat="42.7810650" lon="-0.2289830">
        <ele>2162.8</ele>
        <time>2020-09-11T07:40:14Z</time>
      </trkpt>
      <trkpt lat="42.7811000" lon="-0.2289160">
        <ele>2161.6</ele>
        <time>2020-09-11T07:40:20Z</time>
      </trkpt>
      <trkpt lat="42.7811470" lon="-0.2288260">
        <ele>2160.6</ele>
        <time>2020-09-11T07:40:26Z</time>
      </trkpt>
      <trkpt lat="42.7811720" lon="-0.2287660">
        <ele>2159.4</ele>
        <time>2020-09-11T07:40:30Z</time>
      </trkpt>
      <trkpt lat="42.7812050" lon="-0.2287060">
        <ele>2159.0</ele>
        <time>2020-09-11T07:40:35Z</time>
      </trkpt>
      <trkpt lat="42.7812210" lon="-0.2287080">
        <ele>2159.0</ele>
        <time>2020-09-11T07:40:37Z</time>
      </trkpt>
      <trkpt lat="42.7812550" lon="-0.2287200">
        <ele>2159.2</ele>
        <time>2020-09-11T07:40:40Z</time>
      </trkpt>
      <trkpt lat="42.7813710" lon="-0.2287920">
        <ele>2160.4</ele>
        <time>2020-09-11T07:40:51Z</time>
      </trkpt>
      <trkpt lat="42.7813840" lon="-0.2287910">
        <ele>2160.8</ele>
        <time>2020-09-11T07:40:53Z</time>
      </trkpt>
      <trkpt lat="42.7813950" lon="-0.2287860">
        <ele>2161.4</ele>
        <time>2020-09-11T07:40:55Z</time>
      </trkpt>
      <trkpt lat="42.7814030" lon="-0.2287820">
        <ele>2161.6</ele>
        <time>2020-09-11T07:40:56Z</time>
      </trkpt>
      <trkpt lat="42.7814440" lon="-0.2287710">
        <ele>2162.6</ele>
        <time>2020-09-11T07:41:02Z</time>
      </trkpt>
      <trkpt lat="42.7814850" lon="-0.2287700">
        <ele>2162.8</ele>
        <time>2020-09-11T07:41:05Z</time>
      </trkpt>
      <trkpt lat="42.7815270" lon="-0.2287630">
        <ele>2163.0</ele>
        <time>2020-09-11T07:41:08Z</time>
      </trkpt>
      <trkpt lat="42.7815720" lon="-0.2287340">
        <ele>2163.2</ele>
        <time>2020-09-11T07:41:12Z</time>
      </trkpt>
      <trkpt lat="42.7815860" lon="-0.2287270">
        <ele>2163.6</ele>
        <time>2020-09-11T07:41:14Z</time>
      </trkpt>
      <trkpt lat="42.7815930" lon="-0.2287150">
        <ele>2163.6</ele>
        <time>2020-09-11T07:41:15Z</time>
      </trkpt>
      <trkpt lat="42.7816300" lon="-0.2286740">
        <ele>2164.2</ele>
        <time>2020-09-11T07:41:20Z</time>
      </trkpt>
      <trkpt lat="42.7816740" lon="-0.2286390">
        <ele>2164.8</ele>
        <time>2020-09-11T07:41:25Z</time>
      </trkpt>
      <trkpt lat="42.7816840" lon="-0.2286340">
        <ele>2165.0</ele>
        <time>2020-09-11T07:41:26Z</time>
      </trkpt>
      <trkpt lat="42.7817010" lon="-0.2286230">
        <ele>2165.4</ele>
        <time>2020-09-11T07:41:28Z</time>
      </trkpt>
      <trkpt lat="42.7817240" lon="-0.2286100">
        <ele>2165.6</ele>
        <time>2020-09-11T07:41:30Z</time>
      </trkpt>
      <trkpt lat="42.7817490" lon="-0.2285800">
        <ele>2165.8</ele>
        <time>2020-09-11T07:41:33Z</time>
      </trkpt>
      <trkpt lat="42.7818070" lon="-0.2285250">
        <ele>2166.8</ele>
        <time>2020-09-11T07:41:39Z</time>
      </trkpt>
      <trkpt lat="42.7818310" lon="-0.2285000">
        <ele>2167.2</ele>
        <time>2020-09-11T07:41:42Z</time>
      </trkpt>
      <trkpt lat="42.7818670" lon="-0.2284390">
        <ele>2167.6</ele>
        <time>2020-09-11T07:41:48Z</time>
      </trkpt>
      <trkpt lat="42.7819330" lon="-0.2282960">
        <ele>2167.8</ele>
        <time>2020-09-11T07:42:01Z</time>
      </trkpt>
      <trkpt lat="42.7819380" lon="-0.2282860">
        <ele>2168.0</ele>
        <time>2020-09-11T07:42:02Z</time>
      </trkpt>
      <trkpt lat="42.7819780" lon="-0.2281550">
        <ele>2167.8</ele>
        <time>2020-09-11T07:42:10Z</time>
      </trkpt>
      <trkpt lat="42.7819980" lon="-0.2280740">
        <ele>2168.2</ele>
        <time>2020-09-11T07:42:14Z</time>
      </trkpt>
      <trkpt lat="42.7820640" lon="-0.2278430">
        <ele>2168.4</ele>
        <time>2020-09-11T07:42:28Z</time>
      </trkpt>
      <trkpt lat="42.7820790" lon="-0.2277900">
        <ele>2169.0</ele>
        <time>2020-09-11T07:42:33Z</time>
      </trkpt>
      <trkpt lat="42.7821070" lon="-0.2277240">
        <ele>2170.0</ele>
        <time>2020-09-11T07:42:40Z</time>
      </trkpt>
      <trkpt lat="42.7821180" lon="-0.2277090">
        <ele>2170.4</ele>
        <time>2020-09-11T07:42:42Z</time>
      </trkpt>
      <trkpt lat="42.7821370" lon="-0.2276670">
        <ele>2171.2</ele>
        <time>2020-09-11T07:42:46Z</time>
      </trkpt>
      <trkpt lat="42.7821450" lon="-0.2276440">
        <ele>2171.4</ele>
        <time>2020-09-11T07:42:48Z</time>
      </trkpt>
      <trkpt lat="42.7821700" lon="-0.2276180">
        <ele>2172.2</ele>
        <time>2020-09-11T07:42:52Z</time>
      </trkpt>
      <trkpt lat="42.7821730" lon="-0.2276080">
        <ele>2172.2</ele>
        <time>2020-09-11T07:42:53Z</time>
      </trkpt>
      <trkpt lat="42.7821760" lon="-0.2276010">
        <ele>2172.4</ele>
        <time>2020-09-11T07:42:54Z</time>
      </trkpt>
      <trkpt lat="42.7821840" lon="-0.2275600">
        <ele>2173.4</ele>
        <time>2020-09-11T07:43:00Z</time>
      </trkpt>
      <trkpt lat="42.7822620" lon="-0.2273400">
        <ele>2173.6</ele>
        <time>2020-09-11T07:43:27Z</time>
      </trkpt>
      <trkpt lat="42.7823050" lon="-0.2272700">
        <ele>2174.2</ele>
        <time>2020-09-11T07:43:35Z</time>
      </trkpt>
      <trkpt lat="42.7823120" lon="-0.2272680">
        <ele>2174.6</ele>
        <time>2020-09-11T07:43:36Z</time>
      </trkpt>
      <trkpt lat="42.7823330" lon="-0.2272570">
        <ele>2175.6</ele>
        <time>2020-09-11T07:43:42Z</time>
      </trkpt>
      <trkpt lat="42.7823430" lon="-0.2272170">
        <ele>2176.8</ele>
        <time>2020-09-11T07:43:46Z</time>
      </trkpt>
      <trkpt lat="42.7823910" lon="-0.2271730">
        <ele>2178.0</ele>
        <time>2020-09-11T07:43:54Z</time>
      </trkpt>
      <trkpt lat="42.7823870" lon="-0.2271220">
        <ele>2179.2</ele>
        <time>2020-09-11T07:43:59Z</time>
      </trkpt>
      <trkpt lat="42.7824020" lon="-0.2271110">
        <ele>2180.4</ele>
        <time>2020-09-11T07:44:04Z</time>
      </trkpt>
      <trkpt lat="42.7823920" lon="-0.2271010">
        <ele>2181.6</ele>
        <time>2020-09-11T07:44:09Z</time>
      </trkpt>
      <trkpt lat="42.7823900" lon="-0.2270670">
        <ele>2182.6</ele>
        <time>2020-09-11T07:44:13Z</time>
      </trkpt>
      <trkpt lat="42.7823830" lon="-0.2270310">
        <ele>2183.6</ele>
        <time>2020-09-11T07:44:17Z</time>
      </trkpt>
      <trkpt lat="42.7824080" lon="-0.2269120">
        <ele>2184.6</ele>
        <time>2020-09-11T07:44:24Z</time>
      </trkpt>
      <trkpt lat="42.7824160" lon="-0.2269100">
        <ele>2184.8</ele>
        <time>2020-09-11T07:44:25Z</time>
      </trkpt>
      <trkpt lat="42.7824420" lon="-0.2268940">
        <ele>2185.0</ele>
        <time>2020-09-11T07:44:28Z</time>
      </trkpt>
      <trkpt lat="42.7824530" lon="-0.2268510">
        <ele>2185.4</ele>
        <time>2020-09-11T07:44:32Z</time>
      </trkpt>
      <trkpt lat="42.7824530" lon="-0.2268250">
        <ele>2185.6</ele>
        <time>2020-09-11T07:44:34Z</time>
      </trkpt>
      <trkpt lat="42.7824530" lon="-0.2266950">
        <ele>2186.6</ele>
        <time>2020-09-11T07:44:43Z</time>
      </trkpt>
      <trkpt lat="42.7824520" lon="-0.2266810">
        <ele>2186.8</ele>
        <time>2020-09-11T07:44:44Z</time>
      </trkpt>
      <trkpt lat="42.7824270" lon="-0.2265610">
        <ele>2188.0</ele>
        <time>2020-09-11T07:44:52Z</time>
      </trkpt>
      <trkpt lat="42.7824260" lon="-0.2264420">
        <ele>2189.0</ele>
        <time>2020-09-11T07:45:00Z</time>
      </trkpt>
      <trkpt lat="42.7824780" lon="-0.2262920">
        <ele>2189.6</ele>
        <time>2020-09-11T07:45:11Z</time>
      </trkpt>
      <trkpt lat="42.7824910" lon="-0.2262510">
        <ele>2190.0</ele>
        <time>2020-09-11T07:45:14Z</time>
      </trkpt>
      <trkpt lat="42.7824990" lon="-0.2260270">
        <ele>2191.0</ele>
        <time>2020-09-11T07:45:30Z</time>
      </trkpt>
      <trkpt lat="42.7825060" lon="-0.2260100">
        <ele>2191.4</ele>
        <time>2020-09-11T07:45:32Z</time>
      </trkpt>
      <trkpt lat="42.7825140" lon="-0.2259760">
        <ele>2192.0</ele>
        <time>2020-09-11T07:45:35Z</time>
      </trkpt>
      <trkpt lat="42.7825260" lon="-0.2259550">
        <ele>2192.0</ele>
        <time>2020-09-11T07:45:37Z</time>
      </trkpt>
      <trkpt lat="42.7825310" lon="-0.2259270">
        <ele>2192.2</ele>
        <time>2020-09-11T07:45:39Z</time>
      </trkpt>
      <trkpt lat="42.7825910" lon="-0.2257870">
        <ele>2191.0</ele>
        <time>2020-09-11T07:45:49Z</time>
      </trkpt>
      <trkpt lat="42.7826200" lon="-0.2256090">
        <ele>2191.0</ele>
        <time>2020-09-11T07:46:01Z</time>
      </trkpt>
      <trkpt lat="42.7826370" lon="-0.2255780">
        <ele>2191.2</ele>
        <time>2020-09-11T07:46:05Z</time>
      </trkpt>
      <trkpt lat="42.7826430" lon="-0.2255380">
        <ele>2191.6</ele>
        <time>2020-09-11T07:46:09Z</time>
      </trkpt>
      <trkpt lat="42.7826810" lon="-0.2253610">
        <ele>2192.0</ele>
        <time>2020-09-11T07:46:22Z</time>
      </trkpt>
      <trkpt lat="42.7827600" lon="-0.2252160">
        <ele>2193.0</ele>
        <time>2020-09-11T07:46:34Z</time>
      </trkpt>
      <trkpt lat="42.7828130" lon="-0.2250560">
        <ele>2194.0</ele>
        <time>2020-09-11T07:46:45Z</time>
      </trkpt>
      <trkpt lat="42.7828640" lon="-0.2248670">
        <ele>2193.6</ele>
        <time>2020-09-11T07:46:57Z</time>
      </trkpt>
      <trkpt lat="42.7828820" lon="-0.2248210">
        <ele>2193.6</ele>
        <time>2020-09-11T07:47:01Z</time>
      </trkpt>
      <trkpt lat="42.7829300" lon="-0.2246960">
        <ele>2194.2</ele>
        <time>2020-09-11T07:47:11Z</time>
      </trkpt>
      <trkpt lat="42.7829850" lon="-0.2246130">
        <ele>2194.4</ele>
        <time>2020-09-11T07:47:18Z</time>
      </trkpt>
      <trkpt lat="42.7830570" lon="-0.2243880">
        <ele>2194.6</ele>
        <time>2020-09-11T07:47:34Z</time>
      </trkpt>
      <trkpt lat="42.7831150" lon="-0.2243130">
        <ele>2195.2</ele>
        <time>2020-09-11T07:47:44Z</time>
      </trkpt>
      <trkpt lat="42.7831620" lon="-0.2242540">
        <ele>2195.8</ele>
        <time>2020-09-11T07:47:50Z</time>
      </trkpt>
      <trkpt lat="42.7831760" lon="-0.2242330">
        <ele>2196.4</ele>
        <time>2020-09-11T07:47:52Z</time>
      </trkpt>
      <trkpt lat="42.7832020" lon="-0.2242020">
        <ele>2197.8</ele>
        <time>2020-09-11T07:47:55Z</time>
      </trkpt>
      <trkpt lat="42.7832280" lon="-0.2241550">
        <ele>2198.8</ele>
        <time>2020-09-11T07:47:59Z</time>
      </trkpt>
      <trkpt lat="42.7832650" lon="-0.2241160">
        <ele>2200.0</ele>
        <time>2020-09-11T07:48:05Z</time>
      </trkpt>
      <trkpt lat="42.7832850" lon="-0.2240970">
        <ele>2201.0</ele>
        <time>2020-09-11T07:48:09Z</time>
      </trkpt>
      <trkpt lat="42.7833440" lon="-0.2241060">
        <ele>2201.4</ele>
        <time>2020-09-11T07:48:16Z</time>
      </trkpt>
      <trkpt lat="42.7833680" lon="-0.2241210">
        <ele>2200.8</ele>
        <time>2020-09-11T07:48:19Z</time>
      </trkpt>
      <trkpt lat="42.7833840" lon="-0.2241780">
        <ele>2200.0</ele>
        <time>2020-09-11T07:48:24Z</time>
      </trkpt>
      <trkpt lat="42.7833870" lon="-0.2241830">
        <ele>2200.0</ele>
        <time>2020-09-11T07:48:25Z</time>
      </trkpt>
      <trkpt lat="42.7834230" lon="-0.2242460">
        <ele>2201.0</ele>
        <time>2020-09-11T07:48:31Z</time>
      </trkpt>
      <trkpt lat="42.7834340" lon="-0.2242540">
        <ele>2201.2</ele>
        <time>2020-09-11T07:48:32Z</time>
      </trkpt>
      <trkpt lat="42.7835910" lon="-0.2244010">
        <ele>2202.0</ele>
        <time>2020-09-11T07:48:49Z</time>
      </trkpt>
      <trkpt lat="42.7836350" lon="-0.2244330">
        <ele>2202.2</ele>
        <time>2020-09-11T07:48:53Z</time>
      </trkpt>
      <trkpt lat="42.7836890" lon="-0.2244740">
        <ele>2203.4</ele>
        <time>2020-09-11T07:48:58Z</time>
      </trkpt>
      <trkpt lat="42.7838190" lon="-0.2245250">
        <ele>2203.6</ele>
        <time>2020-09-11T07:49:10Z</time>
      </trkpt>
      <trkpt lat="42.7838510" lon="-0.2245490">
        <ele>2203.8</ele>
        <time>2020-09-11T07:49:13Z</time>
      </trkpt>
      <trkpt lat="42.7838690" lon="-0.2245650">
        <ele>2204.4</ele>
        <time>2020-09-11T07:49:15Z</time>
      </trkpt>
      <trkpt lat="42.7839010" lon="-0.2246090">
        <ele>2205.2</ele>
        <time>2020-09-11T07:49:19Z</time>
      </trkpt>
      <trkpt lat="42.7839120" lon="-0.2246190">
        <ele>2205.4</ele>
        <time>2020-09-11T07:49:20Z</time>
      </trkpt>
      <trkpt lat="42.7839200" lon="-0.2246270">
        <ele>2205.6</ele>
        <time>2020-09-11T07:49:21Z</time>
      </trkpt>
      <trkpt lat="42.7839660" lon="-0.2246690">
        <ele>2205.6</ele>
        <time>2020-09-11T07:49:26Z</time>
      </trkpt>
      <trkpt lat="42.7839950" lon="-0.2247060">
        <ele>2205.6</ele>
        <time>2020-09-11T07:49:30Z</time>
      </trkpt>
      <trkpt lat="42.7840850" lon="-0.2247330">
        <ele>2205.6</ele>
        <time>2020-09-11T07:49:38Z</time>
      </trkpt>
      <trkpt lat="42.7842290" lon="-0.2247100">
        <ele>2206.4</ele>
        <time>2020-09-11T07:49:51Z</time>
      </trkpt>
      <trkpt lat="42.7842390" lon="-0.2247150">
        <ele>2206.4</ele>
        <time>2020-09-11T07:49:52Z</time>
      </trkpt>
      <trkpt lat="42.7842500" lon="-0.2247140">
        <ele>2206.6</ele>
        <time>2020-09-11T07:49:53Z</time>
      </trkpt>
      <trkpt lat="42.7843820" lon="-0.2246390">
        <ele>2207.6</ele>
        <time>2020-09-11T07:50:07Z</time>
      </trkpt>
      <trkpt lat="42.7843900" lon="-0.2246320">
        <ele>2207.6</ele>
        <time>2020-09-11T07:50:08Z</time>
      </trkpt>
      <trkpt lat="42.7844450" lon="-0.2245950">
        <ele>2208.2</ele>
        <time>2020-09-11T07:50:13Z</time>
      </trkpt>
      <trkpt lat="42.7845520" lon="-0.2245360">
        <ele>2208.6</ele>
        <time>2020-09-11T07:50:22Z</time>
      </trkpt>
      <trkpt lat="42.7845750" lon="-0.2245240">
        <ele>2209.2</ele>
        <time>2020-09-11T07:50:24Z</time>
      </trkpt>
      <trkpt lat="42.7846220" lon="-0.2245300">
        <ele>2209.6</ele>
        <time>2020-09-11T07:50:28Z</time>
      </trkpt>
      <trkpt lat="42.7846420" lon="-0.2245400">
        <ele>2210.0</ele>
        <time>2020-09-11T07:50:30Z</time>
      </trkpt>
      <trkpt lat="42.7846760" lon="-0.2245620">
        <ele>2210.4</ele>
        <time>2020-09-11T07:50:33Z</time>
      </trkpt>
      <trkpt lat="42.7847140" lon="-0.2245700">
        <ele>2210.8</ele>
        <time>2020-09-11T07:50:36Z</time>
      </trkpt>
      <trkpt lat="42.7847310" lon="-0.2245930">
        <ele>2210.8</ele>
        <time>2020-09-11T07:50:38Z</time>
      </trkpt>
      <trkpt lat="42.7847760" lon="-0.2246770">
        <ele>2209.8</ele>
        <time>2020-09-11T07:50:44Z</time>
      </trkpt>
      <trkpt lat="42.7847930" lon="-0.2246900">
        <ele>2209.4</ele>
        <time>2020-09-11T07:50:46Z</time>
      </trkpt>
      <trkpt lat="42.7848430" lon="-0.2247070">
        <ele>2209.0</ele>
        <time>2020-09-11T07:50:53Z</time>
      </trkpt>
      <trkpt lat="42.7848680" lon="-0.2247430">
        <ele>2209.8</ele>
        <time>2020-09-11T07:50:56Z</time>
      </trkpt>
      <trkpt lat="42.7849850" lon="-0.2249240">
        <ele>2210.8</ele>
        <time>2020-09-11T07:51:13Z</time>
      </trkpt>
      <trkpt lat="42.7850320" lon="-0.2249660">
        <ele>2211.0</ele>
        <time>2020-09-11T07:51:19Z</time>
      </trkpt>
      <trkpt lat="42.7850390" lon="-0.2249940">
        <ele>2211.2</ele>
        <time>2020-09-11T07:51:22Z</time>
      </trkpt>
      <trkpt lat="42.7850450" lon="-0.2250320">
        <ele>2211.6</ele>
        <time>2020-09-11T07:51:25Z</time>
      </trkpt>
      <trkpt lat="42.7850590" lon="-0.2250520">
        <ele>2211.8</ele>
        <time>2020-09-11T07:51:27Z</time>
      </trkpt>
      <trkpt lat="42.7850910" lon="-0.2250930">
        <ele>2211.8</ele>
        <time>2020-09-11T07:51:30Z</time>
      </trkpt>
      <trkpt lat="42.7851500" lon="-0.2251760">
        <ele>2211.6</ele>
        <time>2020-09-11T07:51:38Z</time>
      </trkpt>
      <trkpt lat="42.7851500" lon="-0.2251860">
        <ele>2211.4</ele>
        <time>2020-09-11T07:51:40Z</time>
      </trkpt>
      <trkpt lat="42.7851720" lon="-0.2251930">
        <ele>2211.2</ele>
        <time>2020-09-11T07:51:43Z</time>
      </trkpt>
      <trkpt lat="42.7851970" lon="-0.2252040">
        <ele>2211.0</ele>
        <time>2020-09-11T07:51:45Z</time>
      </trkpt>
      <trkpt lat="42.7852200" lon="-0.2252300">
        <ele>2210.6</ele>
        <time>2020-09-11T07:51:48Z</time>
      </trkpt>
      <trkpt lat="42.7852320" lon="-0.2252260">
        <ele>2210.2</ele>
        <time>2020-09-11T07:51:50Z</time>
      </trkpt>
      <trkpt lat="42.7852380" lon="-0.2252160">
        <ele>2209.6</ele>
        <time>2020-09-11T07:51:52Z</time>
      </trkpt>
      <trkpt lat="42.7852410" lon="-0.2252190">
        <ele>2209.4</ele>
        <time>2020-09-11T07:51:53Z</time>
      </trkpt>
      <trkpt lat="42.7852500" lon="-0.2252300">
        <ele>2208.8</ele>
        <time>2020-09-11T07:51:55Z</time>
      </trkpt>
      <trkpt lat="42.7852520" lon="-0.2252390">
        <ele>2208.4</ele>
        <time>2020-09-11T07:51:56Z</time>
      </trkpt>
      <trkpt lat="42.7852570" lon="-0.2252370">
        <ele>2208.0</ele>
        <time>2020-09-11T07:51:57Z</time>
      </trkpt>
      <trkpt lat="42.7852660" lon="-0.2252270">
        <ele>2207.8</ele>
        <time>2020-09-11T07:51:59Z</time>
      </trkpt>
      <trkpt lat="42.7852710" lon="-0.2252120">
        <ele>2207.4</ele>
        <time>2020-09-11T07:52:01Z</time>
      </trkpt>
      <trkpt lat="42.7853410" lon="-0.2252420">
        <ele>2206.4</ele>
        <time>2020-09-11T07:52:08Z</time>
      </trkpt>
      <trkpt lat="42.7853510" lon="-0.2252460">
        <ele>2206.2</ele>
        <time>2020-09-11T07:52:09Z</time>
      </trkpt>
      <trkpt lat="42.7853780" lon="-0.2252690">
        <ele>2205.4</ele>
        <time>2020-09-11T07:52:13Z</time>
      </trkpt>
      <trkpt lat="42.7853800" lon="-0.2252660">
        <ele>2205.2</ele>
        <time>2020-09-11T07:52:14Z</time>
      </trkpt>
      <trkpt lat="42.7853890" lon="-0.2252390">
        <ele>2203.8</ele>
        <time>2020-09-11T07:52:18Z</time>
      </trkpt>
      <trkpt lat="42.7854330" lon="-0.2252530">
        <ele>2202.6</ele>
        <time>2020-09-11T07:52:21Z</time>
      </trkpt>
      <trkpt lat="42.7855040" lon="-0.2253070">
        <ele>2202.2</ele>
        <time>2020-09-11T07:52:30Z</time>
      </trkpt>
      <trkpt lat="42.7855380" lon="-0.2253380">
        <ele>2201.6</ele>
        <time>2020-09-11T07:52:33Z</time>
      </trkpt>
      <trkpt lat="42.7855540" lon="-0.2253550">
        <ele>2201.0</ele>
        <time>2020-09-11T07:52:36Z</time>
      </trkpt>
      <trkpt lat="42.7855690" lon="-0.2253640">
        <ele>2200.8</ele>
        <time>2020-09-11T07:52:38Z</time>
      </trkpt>
      <trkpt lat="42.7855960" lon="-0.2254080">
        <ele>2200.6</ele>
        <time>2020-09-11T07:52:41Z</time>
      </trkpt>
      <trkpt lat="42.7856190" lon="-0.2254380">
        <ele>2200.8</ele>
        <time>2020-09-11T07:52:44Z</time>
      </trkpt>
      <trkpt lat="42.7856340" lon="-0.2254470">
        <ele>2201.0</ele>
        <time>2020-09-11T07:52:46Z</time>
      </trkpt>
      <trkpt lat="42.7856810" lon="-0.2254890">
        <ele>2202.6</ele>
        <time>2020-09-11T07:52:52Z</time>
      </trkpt>
      <trkpt lat="42.7857030" lon="-0.2255250">
        <ele>2203.4</ele>
        <time>2020-09-11T07:52:56Z</time>
      </trkpt>
      <trkpt lat="42.7857190" lon="-0.2255500">
        <ele>2203.4</ele>
        <time>2020-09-11T07:52:59Z</time>
      </trkpt>
      <trkpt lat="42.7857370" lon="-0.2256110">
        <ele>2203.4</ele>
        <time>2020-09-11T07:53:04Z</time>
      </trkpt>
      <trkpt lat="42.7857400" lon="-0.2256420">
        <ele>2203.6</ele>
        <time>2020-09-11T07:53:07Z</time>
      </trkpt>
      <trkpt lat="42.7857380" lon="-0.2256540">
        <ele>2203.8</ele>
        <time>2020-09-11T07:53:08Z</time>
      </trkpt>
      <trkpt lat="42.7857520" lon="-0.2257540">
        <ele>2204.6</ele>
        <time>2020-09-11T07:53:14Z</time>
      </trkpt>
      <trkpt lat="42.7857590" lon="-0.2257780">
        <ele>2204.8</ele>
        <time>2020-09-11T07:53:16Z</time>
      </trkpt>
      <trkpt lat="42.7857650" lon="-0.2257860">
        <ele>2205.0</ele>
        <time>2020-09-11T07:53:17Z</time>
      </trkpt>
      <trkpt lat="42.7858040" lon="-0.2258250">
        <ele>2205.0</ele>
        <time>2020-09-11T07:53:22Z</time>
      </trkpt>
      <trkpt lat="42.7858240" lon="-0.2258500">
        <ele>2205.0</ele>
        <time>2020-09-11T07:53:25Z</time>
      </trkpt>
      <trkpt lat="42.7858350" lon="-0.2258760">
        <ele>2205.0</ele>
        <time>2020-09-11T07:53:27Z</time>
      </trkpt>
      <trkpt lat="42.7859110" lon="-0.2259870">
        <ele>2204.6</ele>
        <time>2020-09-11T07:53:37Z</time>
      </trkpt>
      <trkpt lat="42.7859460" lon="-0.2260480">
        <ele>2204.8</ele>
        <time>2020-09-11T07:53:43Z</time>
      </trkpt>
      <trkpt lat="42.7859640" lon="-0.2260700">
        <ele>2204.6</ele>
        <time>2020-09-11T07:53:47Z</time>
      </trkpt>
      <trkpt lat="42.7859760" lon="-0.2260870">
        <ele>2204.0</ele>
        <time>2020-09-11T07:53:50Z</time>
      </trkpt>
      <trkpt lat="42.7859730" lon="-0.2260930">
        <ele>2203.8</ele>
        <time>2020-09-11T07:53:51Z</time>
      </trkpt>
      <trkpt lat="42.7859660" lon="-0.2260980">
        <ele>2203.6</ele>
        <time>2020-09-11T07:53:52Z</time>
      </trkpt>
      <trkpt lat="42.7859680" lon="-0.2261080">
        <ele>2203.2</ele>
        <time>2020-09-11T07:53:54Z</time>
      </trkpt>
      <trkpt lat="42.7859800" lon="-0.2261250">
        <ele>2203.0</ele>
        <time>2020-09-11T07:53:56Z</time>
      </trkpt>
      <trkpt lat="42.7859940" lon="-0.2261380">
        <ele>2202.8</ele>
        <time>2020-09-11T07:53:58Z</time>
      </trkpt>
      <trkpt lat="42.7860050" lon="-0.2261560">
        <ele>2202.8</ele>
        <time>2020-09-11T07:54:00Z</time>
      </trkpt>
      <trkpt lat="42.7860340" lon="-0.2261690">
        <ele>2202.6</ele>
        <time>2020-09-11T07:54:02Z</time>
      </trkpt>
      <trkpt lat="42.7860720" lon="-0.2261940">
        <ele>2202.2</ele>
        <time>2020-09-11T07:54:05Z</time>
      </trkpt>
      <trkpt lat="42.7860990" lon="-0.2262320">
        <ele>2202.0</ele>
        <time>2020-09-11T07:54:09Z</time>
      </trkpt>
      <trkpt lat="42.7861250" lon="-0.2262620">
        <ele>2202.4</ele>
        <time>2020-09-11T07:54:12Z</time>
      </trkpt>
      <trkpt lat="42.7861350" lon="-0.2262810">
        <ele>2202.8</ele>
        <time>2020-09-11T07:54:14Z</time>
      </trkpt>
      <trkpt lat="42.7861450" lon="-0.2263000">
        <ele>2203.2</ele>
        <time>2020-09-11T07:54:16Z</time>
      </trkpt>
      <trkpt lat="42.7861590" lon="-0.2263250">
        <ele>2203.8</ele>
        <time>2020-09-11T07:54:19Z</time>
      </trkpt>
      <trkpt lat="42.7861760" lon="-0.2263460">
        <ele>2204.2</ele>
        <time>2020-09-11T07:54:22Z</time>
      </trkpt>
      <trkpt lat="42.7861810" lon="-0.2263700">
        <ele>2204.8</ele>
        <time>2020-09-11T07:54:25Z</time>
      </trkpt>
      <trkpt lat="42.7861780" lon="-0.2264380">
        <ele>2206.0</ele>
        <time>2020-09-11T07:54:31Z</time>
      </trkpt>
      <trkpt lat="42.7861290" lon="-0.2264520">
        <ele>2207.2</ele>
        <time>2020-09-11T07:54:39Z</time>
      </trkpt>
      <trkpt lat="42.7860940" lon="-0.2264460">
        <ele>2208.2</ele>
        <time>2020-09-11T07:54:44Z</time>
      </trkpt>
      <trkpt lat="42.7860810" lon="-0.2264840">
        <ele>2209.2</ele>
        <time>2020-09-11T07:54:49Z</time>
      </trkpt>
      <trkpt lat="42.7860990" lon="-0.2265490">
        <ele>2210.4</ele>
        <time>2020-09-11T07:54:55Z</time>
      </trkpt>
      <trkpt lat="42.7861170" lon="-0.2266030">
        <ele>2211.4</ele>
        <time>2020-09-11T07:55:03Z</time>
      </trkpt>
      <trkpt lat="42.7861100" lon="-0.2266650">
        <ele>2212.6</ele>
        <time>2020-09-11T07:55:09Z</time>
      </trkpt>
      <trkpt lat="42.7861160" lon="-0.2267070">
        <ele>2213.6</ele>
        <time>2020-09-11T07:55:15Z</time>
      </trkpt>
      <trkpt lat="42.7861450" lon="-0.2267730">
        <ele>2214.8</ele>
        <time>2020-09-11T07:55:23Z</time>
      </trkpt>
      <trkpt lat="42.7861550" lon="-0.2268480">
        <ele>2215.8</ele>
        <time>2020-09-11T07:55:30Z</time>
      </trkpt>
      <trkpt lat="42.7861660" lon="-0.2269150">
        <ele>2217.0</ele>
        <time>2020-09-11T07:55:36Z</time>
      </trkpt>
      <trkpt lat="42.7861730" lon="-0.2269460">
        <ele>2217.6</ele>
        <time>2020-09-11T07:55:39Z</time>
      </trkpt>
      <trkpt lat="42.7861730" lon="-0.2269640">
        <ele>2218.0</ele>
        <time>2020-09-11T07:55:41Z</time>
      </trkpt>
      <trkpt lat="42.7861790" lon="-0.2269920">
        <ele>2219.2</ele>
        <time>2020-09-11T07:55:47Z</time>
      </trkpt>
      <trkpt lat="42.7862160" lon="-0.2270730">
        <ele>2220.2</ele>
        <time>2020-09-11T07:55:56Z</time>
      </trkpt>
      <trkpt lat="42.7862240" lon="-0.2271250">
        <ele>2220.6</ele>
        <time>2020-09-11T07:56:00Z</time>
      </trkpt>
      <trkpt lat="42.7862280" lon="-0.2271560">
        <ele>2220.8</ele>
        <time>2020-09-11T07:56:02Z</time>
      </trkpt>
      <trkpt lat="42.7862400" lon="-0.2271780">
        <ele>2221.0</ele>
        <time>2020-09-11T07:56:04Z</time>
      </trkpt>
      <trkpt lat="42.7862490" lon="-0.2272220">
        <ele>2221.4</ele>
        <time>2020-09-11T07:56:07Z</time>
      </trkpt>
      <trkpt lat="42.7862590" lon="-0.2272720">
        <ele>2221.4</ele>
        <time>2020-09-11T07:56:10Z</time>
      </trkpt>
      <trkpt lat="42.7862770" lon="-0.2272930">
        <ele>2221.4</ele>
        <time>2020-09-11T07:56:12Z</time>
      </trkpt>
      <trkpt lat="42.7863370" lon="-0.2273250">
        <ele>2220.0</ele>
        <time>2020-09-11T07:56:17Z</time>
      </trkpt>
      <trkpt lat="42.7863930" lon="-0.2273550">
        <ele>2218.8</ele>
        <time>2020-09-11T07:56:21Z</time>
      </trkpt>
      <trkpt lat="42.7864000" lon="-0.2273630">
        <ele>2218.6</ele>
        <time>2020-09-11T07:56:22Z</time>
      </trkpt>
      <trkpt lat="42.7864170" lon="-0.2274140">
        <ele>2218.2</ele>
        <time>2020-09-11T07:56:26Z</time>
      </trkpt>
      <trkpt lat="42.7864630" lon="-0.2274620">
        <ele>2218.0</ele>
        <time>2020-09-11T07:56:30Z</time>
      </trkpt>
      <trkpt lat="42.7865230" lon="-0.2275300">
        <ele>2217.8</ele>
        <time>2020-09-11T07:56:35Z</time>
      </trkpt>
      <trkpt lat="42.7865330" lon="-0.2275430">
        <ele>2217.6</ele>
        <time>2020-09-11T07:56:36Z</time>
      </trkpt>
      <trkpt lat="42.7865950" lon="-0.2276130">
        <ele>2216.6</ele>
        <time>2020-09-11T07:56:42Z</time>
      </trkpt>
      <trkpt lat="42.7866130" lon="-0.2276290">
        <ele>2216.4</ele>
        <time>2020-09-11T07:56:44Z</time>
      </trkpt>
      <trkpt lat="42.7866530" lon="-0.2276370">
        <ele>2216.2</ele>
        <time>2020-09-11T07:56:47Z</time>
      </trkpt>
      <trkpt lat="42.7867170" lon="-0.2276630">
        <ele>2215.4</ele>
        <time>2020-09-11T07:56:52Z</time>
      </trkpt>
      <trkpt lat="42.7867370" lon="-0.2276870">
        <ele>2214.4</ele>
        <time>2020-09-11T07:56:54Z</time>
      </trkpt>
      <trkpt lat="42.7868660" lon="-0.2278240">
        <ele>2214.2</ele>
        <time>2020-09-11T07:57:08Z</time>
      </trkpt>
      <trkpt lat="42.7869400" lon="-0.2279330">
        <ele>2214.2</ele>
        <time>2020-09-11T07:57:19Z</time>
      </trkpt>
      <trkpt lat="42.7869980" lon="-0.2279980">
        <ele>2215.2</ele>
        <time>2020-09-11T07:57:26Z</time>
      </trkpt>
      <trkpt lat="42.7870020" lon="-0.2280220">
        <ele>2215.4</ele>
        <time>2020-09-11T07:57:29Z</time>
      </trkpt>
      <trkpt lat="42.7870050" lon="-0.2280360">
        <ele>2215.4</ele>
        <time>2020-09-11T07:57:30Z</time>
      </trkpt>
      <trkpt lat="42.7870120" lon="-0.2280430">
        <ele>2215.6</ele>
        <time>2020-09-11T07:57:31Z</time>
      </trkpt>
      <trkpt lat="42.7870410" lon="-0.2280710">
        <ele>2216.6</ele>
        <time>2020-09-11T07:57:35Z</time>
      </trkpt>
      <trkpt lat="42.7870460" lon="-0.2280790">
        <ele>2216.8</ele>
        <time>2020-09-11T07:57:36Z</time>
      </trkpt>
      <trkpt lat="42.7870490" lon="-0.2281040">
        <ele>2217.0</ele>
        <time>2020-09-11T07:57:38Z</time>
      </trkpt>
      <trkpt lat="42.7870540" lon="-0.2281360">
        <ele>2217.8</ele>
        <time>2020-09-11T07:57:41Z</time>
      </trkpt>
      <trkpt lat="42.7870680" lon="-0.2281720">
        <ele>2218.4</ele>
        <time>2020-09-11T07:57:44Z</time>
      </trkpt>
      <trkpt lat="42.7870830" lon="-0.2281890">
        <ele>2219.0</ele>
        <time>2020-09-11T07:57:46Z</time>
      </trkpt>
      <trkpt lat="42.7871030" lon="-0.2281980">
        <ele>2219.4</ele>
        <time>2020-09-11T07:57:48Z</time>
      </trkpt>
      <trkpt lat="42.7871500" lon="-0.2282330">
        <ele>2220.0</ele>
        <time>2020-09-11T07:57:53Z</time>
      </trkpt>
      <trkpt lat="42.7871690" lon="-0.2282640">
        <ele>2220.4</ele>
        <time>2020-09-11T07:57:56Z</time>
      </trkpt>
      <trkpt lat="42.7871740" lon="-0.2282840">
        <ele>2220.6</ele>
        <time>2020-09-11T07:57:58Z</time>
      </trkpt>
      <trkpt lat="42.7871840" lon="-0.2283180">
        <ele>2221.0</ele>
        <time>2020-09-11T07:58:01Z</time>
      </trkpt>
      <trkpt lat="42.7871950" lon="-0.2283420">
        <ele>2221.4</ele>
        <time>2020-09-11T07:58:03Z</time>
      </trkpt>
      <trkpt lat="42.7872080" lon="-0.2283920">
        <ele>2221.4</ele>
        <time>2020-09-11T07:58:07Z</time>
      </trkpt>
      <trkpt lat="42.7872490" lon="-0.2284490">
        <ele>2221.0</ele>
        <time>2020-09-11T07:58:12Z</time>
      </trkpt>
      <trkpt lat="42.7872990" lon="-0.2286170">
        <ele>2221.2</ele>
        <time>2020-09-11T07:58:23Z</time>
      </trkpt>
      <trkpt lat="42.7873110" lon="-0.2286790">
        <ele>2221.4</ele>
        <time>2020-09-11T07:58:27Z</time>
      </trkpt>
      <trkpt lat="42.7873330" lon="-0.2287970">
        <ele>2220.4</ele>
        <time>2020-09-11T07:58:36Z</time>
      </trkpt>
      <trkpt lat="42.7873440" lon="-0.2288240">
        <ele>2219.8</ele>
        <time>2020-09-11T07:58:38Z</time>
      </trkpt>
      <trkpt lat="42.7873500" lon="-0.2288470">
        <ele>2219.2</ele>
        <time>2020-09-11T07:58:41Z</time>
      </trkpt>
      <trkpt lat="42.7873570" lon="-0.2288530">
        <ele>2218.8</ele>
        <time>2020-09-11T07:58:43Z</time>
      </trkpt>
      <trkpt lat="42.7873630" lon="-0.2288610">
        <ele>2218.6</ele>
        <time>2020-09-11T07:58:44Z</time>
      </trkpt>
      <trkpt lat="42.7873690" lon="-0.2288910">
        <ele>2218.2</ele>
        <time>2020-09-11T07:58:46Z</time>
      </trkpt>
      <trkpt lat="42.7873860" lon="-0.2289240">
        <ele>2217.4</ele>
        <time>2020-09-11T07:58:49Z</time>
      </trkpt>
      <trkpt lat="42.7874110" lon="-0.2290050">
        <ele>2216.2</ele>
        <time>2020-09-11T07:58:55Z</time>
      </trkpt>
      <trkpt lat="42.7874460" lon="-0.2290940">
        <ele>2215.0</ele>
        <time>2020-09-11T07:59:01Z</time>
      </trkpt>
      <trkpt lat="42.7874520" lon="-0.2291320">
        <ele>2214.8</ele>
        <time>2020-09-11T07:59:03Z</time>
      </trkpt>
      <trkpt lat="42.7874760" lon="-0.2292440">
        <ele>2214.2</ele>
        <time>2020-09-11T07:59:11Z</time>
      </trkpt>
      <trkpt lat="42.7874590" lon="-0.2293090">
        <ele>2214.0</ele>
        <time>2020-09-11T07:59:15Z</time>
      </trkpt>
      <trkpt lat="42.7874620" lon="-0.2293220">
        <ele>2214.0</ele>
        <time>2020-09-11T07:59:16Z</time>
      </trkpt>
      <trkpt lat="42.7874610" lon="-0.2293400">
        <ele>2214.0</ele>
        <time>2020-09-11T07:59:17Z</time>
      </trkpt>
      <trkpt lat="42.7874520" lon="-0.2294000">
        <ele>2213.6</ele>
        <time>2020-09-11T07:59:22Z</time>
      </trkpt>
      <trkpt lat="42.7874380" lon="-0.2295100">
        <ele>2213.2</ele>
        <time>2020-09-11T07:59:29Z</time>
      </trkpt>
      <trkpt lat="42.7874380" lon="-0.2295480">
        <ele>2213.0</ele>
        <time>2020-09-11T07:59:31Z</time>
      </trkpt>
      <trkpt lat="42.7874330" lon="-0.2296460">
        <ele>2212.6</ele>
        <time>2020-09-11T07:59:38Z</time>
      </trkpt>
      <trkpt lat="42.7874420" lon="-0.2297610">
        <ele>2212.4</ele>
        <time>2020-09-11T07:59:45Z</time>
      </trkpt>
      <trkpt lat="42.7874410" lon="-0.2297890">
        <ele>2212.6</ele>
        <time>2020-09-11T07:59:47Z</time>
      </trkpt>
      <trkpt lat="42.7874700" lon="-0.2298730">
        <ele>2213.0</ele>
        <time>2020-09-11T07:59:53Z</time>
      </trkpt>
      <trkpt lat="42.7874820" lon="-0.2299750">
        <ele>2212.0</ele>
        <time>2020-09-11T08:00:00Z</time>
      </trkpt>
      <trkpt lat="42.7874900" lon="-0.2299820">
        <ele>2212.0</ele>
        <time>2020-09-11T08:00:01Z</time>
      </trkpt>
      <trkpt lat="42.7875220" lon="-0.2300310">
        <ele>2210.8</ele>
        <time>2020-09-11T08:00:06Z</time>
      </trkpt>
      <trkpt lat="42.7875420" lon="-0.2300920">
        <ele>2210.0</ele>
        <time>2020-09-11T08:00:11Z</time>
      </trkpt>
      <trkpt lat="42.7875550" lon="-0.2301210">
        <ele>2209.8</ele>
        <time>2020-09-11T08:00:13Z</time>
      </trkpt>
      <trkpt lat="42.7875580" lon="-0.2301990">
        <ele>2208.6</ele>
        <time>2020-09-11T08:00:17Z</time>
      </trkpt>
      <trkpt lat="42.7875510" lon="-0.2302340">
        <ele>2208.4</ele>
        <time>2020-09-11T08:00:19Z</time>
      </trkpt>
      <trkpt lat="42.7875530" lon="-0.2302720">
        <ele>2208.2</ele>
        <time>2020-09-11T08:00:21Z</time>
      </trkpt>
      <trkpt lat="42.7875580" lon="-0.2304030">
        <ele>2208.0</ele>
        <time>2020-09-11T08:00:30Z</time>
      </trkpt>
      <trkpt lat="42.7875660" lon="-0.2304300">
        <ele>2207.6</ele>
        <time>2020-09-11T08:00:35Z</time>
      </trkpt>
      <trkpt lat="42.7875980" lon="-0.2304900">
        <ele>2206.6</ele>
        <time>2020-09-11T08:00:41Z</time>
      </trkpt>
      <trkpt lat="42.7876010" lon="-0.2305050">
        <ele>2206.4</ele>
        <time>2020-09-11T08:00:42Z</time>
      </trkpt>
      <trkpt lat="42.7876110" lon="-0.2305480">
        <ele>2205.2</ele>
        <time>2020-09-11T08:00:45Z</time>
      </trkpt>
      <trkpt lat="42.7876260" lon="-0.2305880">
        <ele>2204.8</ele>
        <time>2020-09-11T08:00:48Z</time>
      </trkpt>
      <trkpt lat="42.7876290" lon="-0.2306200">
        <ele>2204.6</ele>
        <time>2020-09-11T08:00:50Z</time>
      </trkpt>
      <trkpt lat="42.7876450" lon="-0.2306610">
        <ele>2204.0</ele>
        <time>2020-09-11T08:00:52Z</time>
      </trkpt>
      <trkpt lat="42.7876570" lon="-0.2307300">
        <ele>2203.2</ele>
        <time>2020-09-11T08:00:56Z</time>
      </trkpt>
      <trkpt lat="42.7876620" lon="-0.2307420">
        <ele>2202.8</ele>
        <time>2020-09-11T08:00:57Z</time>
      </trkpt>
      <trkpt lat="42.7876870" lon="-0.2308170">
        <ele>2201.8</ele>
        <time>2020-09-11T08:01:01Z</time>
      </trkpt>
      <trkpt lat="42.7877040" lon="-0.2308500">
        <ele>2201.6</ele>
        <time>2020-09-11T08:01:03Z</time>
      </trkpt>
      <trkpt lat="42.7877180" lon="-0.2308830">
        <ele>2201.4</ele>
        <time>2020-09-11T08:01:05Z</time>
      </trkpt>
      <trkpt lat="42.7877360" lon="-0.2309200">
        <ele>2200.6</ele>
        <time>2020-09-11T08:01:08Z</time>
      </trkpt>
      <trkpt lat="42.7877680" lon="-0.2309540">
        <ele>2199.8</ele>
        <time>2020-09-11T08:01:11Z</time>
      </trkpt>
      <trkpt lat="42.7877740" lon="-0.2309710">
        <ele>2199.4</ele>
        <time>2020-09-11T08:01:12Z</time>
      </trkpt>
      <trkpt lat="42.7877840" lon="-0.2310270">
        <ele>2198.4</ele>
        <time>2020-09-11T08:01:15Z</time>
      </trkpt>
      <trkpt lat="42.7878170" lon="-0.2310780">
        <ele>2197.0</ele>
        <time>2020-09-11T08:01:19Z</time>
      </trkpt>
      <trkpt lat="42.7878560" lon="-0.2311070">
        <ele>2196.0</ele>
        <time>2020-09-11T08:01:22Z</time>
      </trkpt>
      <trkpt lat="42.7879080" lon="-0.2311650">
        <ele>2195.6</ele>
        <time>2020-09-11T08:01:27Z</time>
      </trkpt>
      <trkpt lat="42.7879290" lon="-0.2312340">
        <ele>2195.0</ele>
        <time>2020-09-11T08:01:32Z</time>
      </trkpt>
      <trkpt lat="42.7879610" lon="-0.2312800">
        <ele>2194.6</ele>
        <time>2020-09-11T08:01:36Z</time>
      </trkpt>
      <trkpt lat="42.7880070" lon="-0.2312960">
        <ele>2194.4</ele>
        <time>2020-09-11T08:01:40Z</time>
      </trkpt>
      <trkpt lat="42.7880520" lon="-0.2313800">
        <ele>2194.6</ele>
        <time>2020-09-11T08:01:47Z</time>
      </trkpt>
      <trkpt lat="42.7880670" lon="-0.2313980">
        <ele>2194.8</ele>
        <time>2020-09-11T08:01:49Z</time>
      </trkpt>
      <trkpt lat="42.7881890" lon="-0.2315980">
        <ele>2194.2</ele>
        <time>2020-09-11T08:02:03Z</time>
      </trkpt>
      <trkpt lat="42.7881990" lon="-0.2316340">
        <ele>2194.0</ele>
        <time>2020-09-11T08:02:05Z</time>
      </trkpt>
      <trkpt lat="42.7882490" lon="-0.2317300">
        <ele>2194.2</ele>
        <time>2020-09-11T08:02:12Z</time>
      </trkpt>
      <trkpt lat="42.7882870" lon="-0.2317900">
        <ele>2194.2</ele>
        <time>2020-09-11T08:02:17Z</time>
      </trkpt>
      <trkpt lat="42.7884270" lon="-0.2319580">
        <ele>2194.6</ele>
        <time>2020-09-11T08:02:34Z</time>
      </trkpt>
      <trkpt lat="42.7884340" lon="-0.2319650">
        <ele>2194.8</ele>
        <time>2020-09-11T08:02:35Z</time>
      </trkpt>
      <trkpt lat="42.7884560" lon="-0.2319760">
        <ele>2195.0</ele>
        <time>2020-09-11T08:02:37Z</time>
      </trkpt>
      <trkpt lat="42.7886330" lon="-0.2320500">
        <ele>2194.6</ele>
        <time>2020-09-11T08:02:56Z</time>
      </trkpt>
      <trkpt lat="42.7886700" lon="-0.2320590">
        <ele>2193.8</ele>
        <time>2020-09-11T08:02:59Z</time>
      </trkpt>
      <trkpt lat="42.7886750" lon="-0.2320640">
        <ele>2193.6</ele>
        <time>2020-09-11T08:03:00Z</time>
      </trkpt>
      <trkpt lat="42.7887030" lon="-0.2320670">
        <ele>2193.2</ele>
        <time>2020-09-11T08:03:02Z</time>
      </trkpt>
      <trkpt lat="42.7887620" lon="-0.2321150">
        <ele>2192.8</ele>
        <time>2020-09-11T08:03:08Z</time>
      </trkpt>
      <trkpt lat="42.7887750" lon="-0.2321360">
        <ele>2192.6</ele>
        <time>2020-09-11T08:03:10Z</time>
      </trkpt>
      <trkpt lat="42.7887970" lon="-0.2321680">
        <ele>2192.6</ele>
        <time>2020-09-11T08:03:13Z</time>
      </trkpt>
      <trkpt lat="42.7888290" lon="-0.2322010">
        <ele>2192.4</ele>
        <time>2020-09-11T08:03:16Z</time>
      </trkpt>
      <trkpt lat="42.7888420" lon="-0.2322170">
        <ele>2192.4</ele>
        <time>2020-09-11T08:03:18Z</time>
      </trkpt>
      <trkpt lat="42.7888450" lon="-0.2322240">
        <ele>2192.4</ele>
        <time>2020-09-11T08:03:19Z</time>
      </trkpt>
      <trkpt lat="42.7888840" lon="-0.2322670">
        <ele>2192.0</ele>
        <time>2020-09-11T08:03:24Z</time>
      </trkpt>
      <trkpt lat="42.7889640" lon="-0.2323410">
        <ele>2192.8</ele>
        <time>2020-09-11T08:03:34Z</time>
      </trkpt>
      <trkpt lat="42.7889870" lon="-0.2324250">
        <ele>2193.8</ele>
        <time>2020-09-11T08:03:41Z</time>
      </trkpt>
      <trkpt lat="42.7889990" lon="-0.2324730">
        <ele>2193.6</ele>
        <time>2020-09-11T08:03:44Z</time>
      </trkpt>
      <trkpt lat="42.7890150" lon="-0.2325680">
        <ele>2193.0</ele>
        <time>2020-09-11T08:03:52Z</time>
      </trkpt>
      <trkpt lat="42.7890180" lon="-0.2325750">
        <ele>2193.2</ele>
        <time>2020-09-11T08:03:54Z</time>
      </trkpt>
      <trkpt lat="42.7890370" lon="-0.2326010">
        <ele>2193.2</ele>
        <time>2020-09-11T08:03:57Z</time>
      </trkpt>
      <trkpt lat="42.7891500" lon="-0.2326340">
        <ele>2193.2</ele>
        <time>2020-09-11T08:04:16Z</time>
      </trkpt>
      <trkpt lat="42.7893020" lon="-0.2327680">
        <ele>2193.0</ele>
        <time>2020-09-11T08:04:31Z</time>
      </trkpt>
      <trkpt lat="42.7894460" lon="-0.2328550">
        <ele>2194.0</ele>
        <time>2020-09-11T08:04:46Z</time>
      </trkpt>
      <trkpt lat="42.7895070" lon="-0.2328530">
        <ele>2194.0</ele>
        <time>2020-09-11T08:04:50Z</time>
      </trkpt>
      <trkpt lat="42.7896440" lon="-0.2329230">
        <ele>2194.2</ele>
        <time>2020-09-11T08:05:05Z</time>
      </trkpt>
      <trkpt lat="42.7897420" lon="-0.2330310">
        <ele>2194.8</ele>
        <time>2020-09-11T08:05:15Z</time>
      </trkpt>
      <trkpt lat="42.7897510" lon="-0.2330360">
        <ele>2194.8</ele>
        <time>2020-09-11T08:05:16Z</time>
      </trkpt>
      <trkpt lat="42.7898810" lon="-0.2331030">
        <ele>2196.0</ele>
        <time>2020-09-11T08:05:27Z</time>
      </trkpt>
      <trkpt lat="42.7899110" lon="-0.2331520">
        <ele>2196.2</ele>
        <time>2020-09-11T08:05:31Z</time>
      </trkpt>
      <trkpt lat="42.7899450" lon="-0.2332390">
        <ele>2197.0</ele>
        <time>2020-09-11T08:05:37Z</time>
      </trkpt>
      <trkpt lat="42.7899720" lon="-0.2332990">
        <ele>2197.2</ele>
        <time>2020-09-11T08:05:42Z</time>
      </trkpt>
      <trkpt lat="42.7899940" lon="-0.2333150">
        <ele>2197.6</ele>
        <time>2020-09-11T08:05:45Z</time>
      </trkpt>
      <trkpt lat="42.7899990" lon="-0.2333290">
        <ele>2197.8</ele>
        <time>2020-09-11T08:05:47Z</time>
      </trkpt>
      <trkpt lat="42.7900080" lon="-0.2333740">
        <ele>2198.0</ele>
        <time>2020-09-11T08:05:51Z</time>
      </trkpt>
      <trkpt lat="42.7900170" lon="-0.2333790">
        <ele>2198.0</ele>
        <time>2020-09-11T08:05:52Z</time>
      </trkpt>
      <trkpt lat="42.7900300" lon="-0.2333960">
        <ele>2198.0</ele>
        <time>2020-09-11T08:05:54Z</time>
      </trkpt>
      <trkpt lat="42.7900400" lon="-0.2334470">
        <ele>2198.2</ele>
        <time>2020-09-11T08:05:58Z</time>
      </trkpt>
      <trkpt lat="42.7900520" lon="-0.2334550">
        <ele>2198.8</ele>
        <time>2020-09-11T08:06:01Z</time>
      </trkpt>
      <trkpt lat="42.7900610" lon="-0.2334800">
        <ele>2199.2</ele>
        <time>2020-09-11T08:06:05Z</time>
      </trkpt>
      <trkpt lat="42.7901190" lon="-0.2335150">
        <ele>2200.2</ele>
        <time>2020-09-11T08:06:16Z</time>
      </trkpt>
      <trkpt lat="42.7901290" lon="-0.2335750">
        <ele>2201.2</ele>
        <time>2020-09-11T08:06:21Z</time>
      </trkpt>
      <trkpt lat="42.7901610" lon="-0.2336310">
        <ele>2202.4</ele>
        <time>2020-09-11T08:06:27Z</time>
      </trkpt>
      <trkpt lat="42.7901720" lon="-0.2336900">
        <ele>2203.6</ele>
        <time>2020-09-11T08:06:33Z</time>
      </trkpt>
      <trkpt lat="42.7901410" lon="-0.2337900">
        <ele>2204.6</ele>
        <time>2020-09-11T08:06:40Z</time>
      </trkpt>
      <trkpt lat="42.7901290" lon="-0.2338850">
        <ele>2205.0</ele>
        <time>2020-09-11T08:06:47Z</time>
      </trkpt>
      <trkpt lat="42.7901160" lon="-0.2339240">
        <ele>2205.4</ele>
        <time>2020-09-11T08:06:50Z</time>
      </trkpt>
      <trkpt lat="42.7901100" lon="-0.2339380">
        <ele>2205.6</ele>
        <time>2020-09-11T08:06:51Z</time>
      </trkpt>
      <trkpt lat="42.7901020" lon="-0.2339620">
        <ele>2206.0</ele>
        <time>2020-09-11T08:06:53Z</time>
      </trkpt>
      <trkpt lat="42.7900980" lon="-0.2339850">
        <ele>2206.6</ele>
        <time>2020-09-11T08:06:55Z</time>
      </trkpt>
      <trkpt lat="42.7900350" lon="-0.2341430">
        <ele>2207.6</ele>
        <time>2020-09-11T08:07:07Z</time>
      </trkpt>
      <trkpt lat="42.7900320" lon="-0.2341570">
        <ele>2207.8</ele>
        <time>2020-09-11T08:07:08Z</time>
      </trkpt>
      <trkpt lat="42.7900250" lon="-0.2341950">
        <ele>2208.8</ele>
        <time>2020-09-11T08:07:12Z</time>
      </trkpt>
      <trkpt lat="42.7900150" lon="-0.2342030">
        <ele>2209.0</ele>
        <time>2020-09-11T08:07:14Z</time>
      </trkpt>
      <trkpt lat="42.7899930" lon="-0.2342390">
        <ele>2210.0</ele>
        <time>2020-09-11T08:07:19Z</time>
      </trkpt>
      <trkpt lat="42.7899870" lon="-0.2342460">
        <ele>2210.2</ele>
        <time>2020-09-11T08:07:20Z</time>
      </trkpt>
      <trkpt lat="42.7899560" lon="-0.2342490">
        <ele>2211.0</ele>
        <time>2020-09-11T08:07:23Z</time>
      </trkpt>
      <trkpt lat="42.7898650" lon="-0.2342890">
        <ele>2212.0</ele>
        <time>2020-09-11T08:07:32Z</time>
      </trkpt>
      <trkpt lat="42.7897980" lon="-0.2343320">
        <ele>2213.0</ele>
        <time>2020-09-11T08:07:38Z</time>
      </trkpt>
      <trkpt lat="42.7897530" lon="-0.2343940">
        <ele>2214.2</ele>
        <time>2020-09-11T08:07:45Z</time>
      </trkpt>
      <trkpt lat="42.7897440" lon="-0.2343970">
        <ele>2214.4</ele>
        <time>2020-09-11T08:07:46Z</time>
      </trkpt>
      <trkpt lat="42.7897270" lon="-0.2344060">
        <ele>2214.8</ele>
        <time>2020-09-11T08:07:48Z</time>
      </trkpt>
      <trkpt lat="42.7897070" lon="-0.2344180">
        <ele>2215.2</ele>
        <time>2020-09-11T08:07:51Z</time>
      </trkpt>
      <trkpt lat="42.7896960" lon="-0.2344370">
        <ele>2215.8</ele>
        <time>2020-09-11T08:07:53Z</time>
      </trkpt>
      <trkpt lat="42.7896820" lon="-0.2344410">
        <ele>2216.4</ele>
        <time>2020-09-11T08:07:55Z</time>
      </trkpt>
      <trkpt lat="42.7896460" lon="-0.2344620">
        <ele>2217.6</ele>
        <time>2020-09-11T08:08:00Z</time>
      </trkpt>
      <trkpt lat="42.7896210" lon="-0.2344890">
        <ele>2218.6</ele>
        <time>2020-09-11T08:08:04Z</time>
      </trkpt>
      <trkpt lat="42.7896290" lon="-0.2345010">
        <ele>2218.8</ele>
        <time>2020-09-11T08:08:07Z</time>
      </trkpt>
      <trkpt lat="42.7896730" lon="-0.2345700">
        <ele>2219.8</ele>
        <time>2020-09-11T08:08:17Z</time>
      </trkpt>
      <trkpt lat="42.7896980" lon="-0.2345840">
        <ele>2221.0</ele>
        <time>2020-09-11T08:08:21Z</time>
      </trkpt>
      <trkpt lat="42.7897410" lon="-0.2345800">
        <ele>2222.0</ele>
        <time>2020-09-11T08:08:27Z</time>
      </trkpt>
      <trkpt lat="42.7897750" lon="-0.2346110">
        <ele>2223.0</ele>
        <time>2020-09-11T08:08:32Z</time>
      </trkpt>
      <trkpt lat="42.7898140" lon="-0.2346220">
        <ele>2224.0</ele>
        <time>2020-09-11T08:08:37Z</time>
      </trkpt>
      <trkpt lat="42.7898660" lon="-0.2346520">
        <ele>2225.2</ele>
        <time>2020-09-11T08:08:44Z</time>
      </trkpt>
      <trkpt lat="42.7898760" lon="-0.2346550">
        <ele>2226.2</ele>
        <time>2020-09-11T08:08:48Z</time>
      </trkpt>
      <trkpt lat="42.7898390" lon="-0.2346780">
        <ele>2227.0</ele>
        <time>2020-09-11T08:08:52Z</time>
      </trkpt>
      <trkpt lat="42.7898280" lon="-0.2346730">
        <ele>2227.2</ele>
        <time>2020-09-11T08:08:53Z</time>
      </trkpt>
      <trkpt lat="42.7898190" lon="-0.2346710">
        <ele>2227.4</ele>
        <time>2020-09-11T08:08:54Z</time>
      </trkpt>
      <trkpt lat="42.7897630" lon="-0.2346660">
        <ele>2228.6</ele>
        <time>2020-09-11T08:08:59Z</time>
      </trkpt>
      <trkpt lat="42.7897430" lon="-0.2346660">
        <ele>2229.0</ele>
        <time>2020-09-11T08:09:01Z</time>
      </trkpt>
      <trkpt lat="42.7897340" lon="-0.2346800">
        <ele>2229.4</ele>
        <time>2020-09-11T08:09:03Z</time>
      </trkpt>
      <trkpt lat="42.7897270" lon="-0.2346860">
        <ele>2229.8</ele>
        <time>2020-09-11T08:09:04Z</time>
      </trkpt>
      <trkpt lat="42.7897210" lon="-0.2346910">
        <ele>2230.0</ele>
        <time>2020-09-11T08:09:05Z</time>
      </trkpt>
      <trkpt lat="42.7897130" lon="-0.2347060">
        <ele>2230.4</ele>
        <time>2020-09-11T08:09:08Z</time>
      </trkpt>
      <trkpt lat="42.7897050" lon="-0.2347150">
        <ele>2230.8</ele>
        <time>2020-09-11T08:09:10Z</time>
      </trkpt>
      <trkpt lat="42.7896830" lon="-0.2347590">
        <ele>2232.0</ele>
        <time>2020-09-11T08:09:14Z</time>
      </trkpt>
      <trkpt lat="42.7896150" lon="-0.2349980">
        <ele>2233.0</ele>
        <time>2020-09-11T08:09:30Z</time>
      </trkpt>
      <trkpt lat="42.7896110" lon="-0.2350360">
        <ele>2233.2</ele>
        <time>2020-09-11T08:09:32Z</time>
      </trkpt>
      <trkpt lat="42.7895850" lon="-0.2351990">
        <ele>2234.0</ele>
        <time>2020-09-11T08:09:43Z</time>
      </trkpt>
      <trkpt lat="42.7895880" lon="-0.2352080">
        <ele>2234.2</ele>
        <time>2020-09-11T08:09:44Z</time>
      </trkpt>
      <trkpt lat="42.7895800" lon="-0.2353050">
        <ele>2235.2</ele>
        <time>2020-09-11T08:09:52Z</time>
      </trkpt>
      <trkpt lat="42.7895710" lon="-0.2353190">
        <ele>2235.4</ele>
        <time>2020-09-11T08:09:54Z</time>
      </trkpt>
      <trkpt lat="42.7895680" lon="-0.2353310">
        <ele>2235.6</ele>
        <time>2020-09-11T08:09:56Z</time>
      </trkpt>
      <trkpt lat="42.7895570" lon="-0.2353400">
        <ele>2236.2</ele>
        <time>2020-09-11T08:09:59Z</time>
      </trkpt>
      <trkpt lat="42.7895170" lon="-0.2353530">
        <ele>2237.0</ele>
        <time>2020-09-11T08:10:03Z</time>
      </trkpt>
      <trkpt lat="42.7894980" lon="-0.2353680">
        <ele>2237.2</ele>
        <time>2020-09-11T08:10:05Z</time>
      </trkpt>
      <trkpt lat="42.7894810" lon="-0.2353970">
        <ele>2237.6</ele>
        <time>2020-09-11T08:10:08Z</time>
      </trkpt>
      <trkpt lat="42.7894720" lon="-0.2354330">
        <ele>2238.4</ele>
        <time>2020-09-11T08:10:11Z</time>
      </trkpt>
      <trkpt lat="42.7894820" lon="-0.2354950">
        <ele>2238.6</ele>
        <time>2020-09-11T08:10:16Z</time>
      </trkpt>
      <trkpt lat="42.7894970" lon="-0.2355370">
        <ele>2238.8</ele>
        <time>2020-09-11T08:10:20Z</time>
      </trkpt>
      <trkpt lat="42.7895040" lon="-0.2355520">
        <ele>2239.0</ele>
        <time>2020-09-11T08:10:22Z</time>
      </trkpt>
      <trkpt lat="42.7895100" lon="-0.2355690">
        <ele>2239.2</ele>
        <time>2020-09-11T08:10:24Z</time>
      </trkpt>
      <trkpt lat="42.7895070" lon="-0.2356130">
        <ele>2239.4</ele>
        <time>2020-09-11T08:10:28Z</time>
      </trkpt>
      <trkpt lat="42.7894960" lon="-0.2356540">
        <ele>2239.8</ele>
        <time>2020-09-11T08:10:31Z</time>
      </trkpt>
      <trkpt lat="42.7894770" lon="-0.2356940">
        <ele>2240.4</ele>
        <time>2020-09-11T08:10:35Z</time>
      </trkpt>
      <trkpt lat="42.7894760" lon="-0.2357060">
        <ele>2240.6</ele>
        <time>2020-09-11T08:10:36Z</time>
      </trkpt>
      <trkpt lat="42.7894700" lon="-0.2357370">
        <ele>2240.8</ele>
        <time>2020-09-11T08:10:39Z</time>
      </trkpt>
      <trkpt lat="42.7894630" lon="-0.2357850">
        <ele>2241.2</ele>
        <time>2020-09-11T08:10:43Z</time>
      </trkpt>
      <trkpt lat="42.7894840" lon="-0.2357930">
        <ele>2241.6</ele>
        <time>2020-09-11T08:10:46Z</time>
      </trkpt>
      <trkpt lat="42.7894950" lon="-0.2357850">
        <ele>2241.8</ele>
        <time>2020-09-11T08:10:48Z</time>
      </trkpt>
      <trkpt lat="42.7895200" lon="-0.2357630">
        <ele>2242.4</ele>
        <time>2020-09-11T08:10:51Z</time>
      </trkpt>
      <trkpt lat="42.7895250" lon="-0.2357600">
        <ele>2242.6</ele>
        <time>2020-09-11T08:10:52Z</time>
      </trkpt>
      <trkpt lat="42.7895220" lon="-0.2357940">
        <ele>2243.8</ele>
        <time>2020-09-11T08:10:58Z</time>
      </trkpt>
      <trkpt lat="42.7895080" lon="-0.2358650">
        <ele>2244.8</ele>
        <time>2020-09-11T08:11:04Z</time>
      </trkpt>
      <trkpt lat="42.7894930" lon="-0.2358900">
        <ele>2245.0</ele>
        <time>2020-09-11T08:11:07Z</time>
      </trkpt>
      <trkpt lat="42.7894430" lon="-0.2359160">
        <ele>2245.6</ele>
        <time>2020-09-11T08:11:12Z</time>
      </trkpt>
      <trkpt lat="42.7894230" lon="-0.2359320">
        <ele>2246.0</ele>
        <time>2020-09-11T08:11:14Z</time>
      </trkpt>
      <trkpt lat="42.7893840" lon="-0.2360090">
        <ele>2247.0</ele>
        <time>2020-09-11T08:11:20Z</time>
      </trkpt>
      <trkpt lat="42.7893880" lon="-0.2360310">
        <ele>2247.2</ele>
        <time>2020-09-11T08:11:23Z</time>
      </trkpt>
      <trkpt lat="42.7893830" lon="-0.2360490">
        <ele>2247.4</ele>
        <time>2020-09-11T08:11:25Z</time>
      </trkpt>
      <trkpt lat="42.7893790" lon="-0.2360820">
        <ele>2248.2</ele>
        <time>2020-09-11T08:11:28Z</time>
      </trkpt>
      <trkpt lat="42.7893780" lon="-0.2361320">
        <ele>2249.0</ele>
        <time>2020-09-11T08:11:31Z</time>
      </trkpt>
      <trkpt lat="42.7893750" lon="-0.2361660">
        <ele>2249.4</ele>
        <time>2020-09-11T08:11:33Z</time>
      </trkpt>
      <trkpt lat="42.7893340" lon="-0.2362900">
        <ele>2249.6</ele>
        <time>2020-09-11T08:11:40Z</time>
      </trkpt>
      <trkpt lat="42.7893380" lon="-0.2363090">
        <ele>2249.8</ele>
        <time>2020-09-11T08:11:42Z</time>
      </trkpt>
      <trkpt lat="42.7893310" lon="-0.2363510">
        <ele>2250.4</ele>
        <time>2020-09-11T08:11:45Z</time>
      </trkpt>
      <trkpt lat="42.7893320" lon="-0.2364460">
        <ele>2251.4</ele>
        <time>2020-09-11T08:11:51Z</time>
      </trkpt>
      <trkpt lat="42.7893340" lon="-0.2364540">
        <ele>2251.4</ele>
        <time>2020-09-11T08:11:52Z</time>
      </trkpt>
      <trkpt lat="42.7893390" lon="-0.2364610">
        <ele>2251.6</ele>
        <time>2020-09-11T08:11:53Z</time>
      </trkpt>
      <trkpt lat="42.7893640" lon="-0.2364640">
        <ele>2252.2</ele>
        <time>2020-09-11T08:11:56Z</time>
      </trkpt>
      <trkpt lat="42.7893740" lon="-0.2364680">
        <ele>2252.6</ele>
        <time>2020-09-11T08:11:57Z</time>
      </trkpt>
      <trkpt lat="42.7893810" lon="-0.2364930">
        <ele>2253.6</ele>
        <time>2020-09-11T08:12:01Z</time>
      </trkpt>
      <trkpt lat="42.7893810" lon="-0.2365080">
        <ele>2253.6</ele>
        <time>2020-09-11T08:12:02Z</time>
      </trkpt>
      <trkpt lat="42.7893830" lon="-0.2365330">
        <ele>2254.2</ele>
        <time>2020-09-11T08:12:04Z</time>
      </trkpt>
      <trkpt lat="42.7893810" lon="-0.2365480">
        <ele>2254.8</ele>
        <time>2020-09-11T08:12:06Z</time>
      </trkpt>
      <trkpt lat="42.7893820" lon="-0.2365570">
        <ele>2255.0</ele>
        <time>2020-09-11T08:12:07Z</time>
      </trkpt>
      <trkpt lat="42.7893840" lon="-0.2365980">
        <ele>2255.8</ele>
        <time>2020-09-11T08:12:10Z</time>
      </trkpt>
      <trkpt lat="42.7893860" lon="-0.2366110">
        <ele>2256.0</ele>
        <time>2020-09-11T08:12:11Z</time>
      </trkpt>
      <trkpt lat="42.7893740" lon="-0.2367010">
        <ele>2256.8</ele>
        <time>2020-09-11T08:12:17Z</time>
      </trkpt>
      <trkpt lat="42.7893630" lon="-0.2367320">
        <ele>2257.0</ele>
        <time>2020-09-11T08:12:19Z</time>
      </trkpt>
      <trkpt lat="42.7893480" lon="-0.2367720">
        <ele>2257.2</ele>
        <time>2020-09-11T08:12:22Z</time>
      </trkpt>
      <trkpt lat="42.7893530" lon="-0.2368210">
        <ele>2258.0</ele>
        <time>2020-09-11T08:12:26Z</time>
      </trkpt>
      <trkpt lat="42.7893490" lon="-0.2369180">
        <ele>2259.0</ele>
        <time>2020-09-11T08:12:33Z</time>
      </trkpt>
      <trkpt lat="42.7893370" lon="-0.2369910">
        <ele>2259.2</ele>
        <time>2020-09-11T08:12:39Z</time>
      </trkpt>
      <trkpt lat="42.7893130" lon="-0.2370420">
        <ele>2260.4</ele>
        <time>2020-09-11T08:12:44Z</time>
      </trkpt>
      <trkpt lat="42.7893010" lon="-0.2370730">
        <ele>2261.4</ele>
        <time>2020-09-11T08:12:47Z</time>
      </trkpt>
      <trkpt lat="42.7892870" lon="-0.2371190">
        <ele>2262.4</ele>
        <time>2020-09-11T08:12:51Z</time>
      </trkpt>
      <trkpt lat="42.7892680" lon="-0.2371890">
        <ele>2263.6</ele>
        <time>2020-09-11T08:12:57Z</time>
      </trkpt>
      <trkpt lat="42.7892540" lon="-0.2372220">
        <ele>2264.4</ele>
        <time>2020-09-11T08:13:00Z</time>
      </trkpt>
      <trkpt lat="42.7892340" lon="-0.2372360">
        <ele>2264.6</ele>
        <time>2020-09-11T08:13:03Z</time>
      </trkpt>
      <trkpt lat="42.7892180" lon="-0.2372410">
        <ele>2264.8</ele>
        <time>2020-09-11T08:13:05Z</time>
      </trkpt>
      <trkpt lat="42.7891940" lon="-0.2372350">
        <ele>2265.4</ele>
        <time>2020-09-11T08:13:08Z</time>
      </trkpt>
      <trkpt lat="42.7891880" lon="-0.2372480">
        <ele>2266.2</ele>
        <time>2020-09-11T08:13:10Z</time>
      </trkpt>
      <trkpt lat="42.7891910" lon="-0.2372950">
        <ele>2267.2</ele>
        <time>2020-09-11T08:13:14Z</time>
      </trkpt>
      <trkpt lat="42.7891940" lon="-0.2373690">
        <ele>2268.2</ele>
        <time>2020-09-11T08:13:19Z</time>
      </trkpt>
      <trkpt lat="42.7891400" lon="-0.2376070">
        <ele>2267.4</ele>
        <time>2020-09-11T08:13:33Z</time>
      </trkpt>
      <trkpt lat="42.7891820" lon="-0.2378370">
        <ele>2268.4</ele>
        <time>2020-09-11T08:13:48Z</time>
      </trkpt>
      <trkpt lat="42.7891920" lon="-0.2378970">
        <ele>2269.0</ele>
        <time>2020-09-11T08:13:52Z</time>
      </trkpt>
      <trkpt lat="42.7892080" lon="-0.2379350">
        <ele>2269.4</ele>
        <time>2020-09-11T08:13:56Z</time>
      </trkpt>
      <trkpt lat="42.7892090" lon="-0.2379620">
        <ele>2269.8</ele>
        <time>2020-09-11T08:13:58Z</time>
      </trkpt>
      <trkpt lat="42.7892050" lon="-0.2380210">
        <ele>2270.4</ele>
        <time>2020-09-11T08:14:02Z</time>
      </trkpt>
      <trkpt lat="42.7892070" lon="-0.2380310">
        <ele>2270.6</ele>
        <time>2020-09-11T08:14:03Z</time>
      </trkpt>
      <trkpt lat="42.7892070" lon="-0.2380630">
        <ele>2271.0</ele>
        <time>2020-09-11T08:14:06Z</time>
      </trkpt>
      <trkpt lat="42.7892010" lon="-0.2381030">
        <ele>2271.6</ele>
        <time>2020-09-11T08:14:09Z</time>
      </trkpt>
      <trkpt lat="42.7891770" lon="-0.2381790">
        <ele>2272.0</ele>
        <time>2020-09-11T08:14:15Z</time>
      </trkpt>
      <trkpt lat="42.7891670" lon="-0.2381980">
        <ele>2272.2</ele>
        <time>2020-09-11T08:14:17Z</time>
      </trkpt>
      <trkpt lat="42.7891710" lon="-0.2382240">
        <ele>2272.6</ele>
        <time>2020-09-11T08:14:19Z</time>
      </trkpt>
      <trkpt lat="42.7891480" lon="-0.2383160">
        <ele>2273.6</ele>
        <time>2020-09-11T08:14:28Z</time>
      </trkpt>
      <trkpt lat="42.7891390" lon="-0.2383300">
        <ele>2273.8</ele>
        <time>2020-09-11T08:14:30Z</time>
      </trkpt>
      <trkpt lat="42.7891220" lon="-0.2383520">
        <ele>2274.6</ele>
        <time>2020-09-11T08:14:34Z</time>
      </trkpt>
      <trkpt lat="42.7890860" lon="-0.2383720">
        <ele>2275.2</ele>
        <time>2020-09-11T08:14:38Z</time>
      </trkpt>
      <trkpt lat="42.7890640" lon="-0.2383930">
        <ele>2275.4</ele>
        <time>2020-09-11T08:14:41Z</time>
      </trkpt>
      <trkpt lat="42.7890590" lon="-0.2384110">
        <ele>2275.6</ele>
        <time>2020-09-11T08:14:43Z</time>
      </trkpt>
      <trkpt lat="42.7890520" lon="-0.2384600">
        <ele>2276.8</ele>
        <time>2020-09-11T08:14:50Z</time>
      </trkpt>
      <trkpt lat="42.7890510" lon="-0.2385120">
        <ele>2278.2</ele>
        <time>2020-09-11T08:14:55Z</time>
      </trkpt>
      <trkpt lat="42.7890710" lon="-0.2385330">
        <ele>2279.2</ele>
        <time>2020-09-11T08:15:00Z</time>
      </trkpt>
      <trkpt lat="42.7890590" lon="-0.2385710">
        <ele>2280.4</ele>
        <time>2020-09-11T08:15:07Z</time>
      </trkpt>
      <trkpt lat="42.7890230" lon="-0.2386330">
        <ele>2281.4</ele>
        <time>2020-09-11T08:15:16Z</time>
      </trkpt>
      <trkpt lat="42.7890120" lon="-0.2386800">
        <ele>2282.6</ele>
        <time>2020-09-11T08:15:26Z</time>
      </trkpt>
      <trkpt lat="42.7890230" lon="-0.2387220">
        <ele>2283.6</ele>
        <time>2020-09-11T08:15:31Z</time>
      </trkpt>
      <trkpt lat="42.7890140" lon="-0.2388260">
        <ele>2284.8</ele>
        <time>2020-09-11T08:15:40Z</time>
      </trkpt>
      <trkpt lat="42.7890160" lon="-0.2389040">
        <ele>2285.4</ele>
        <time>2020-09-11T08:15:51Z</time>
      </trkpt>
      <trkpt lat="42.7889980" lon="-0.2389340">
        <ele>2285.8</ele>
        <time>2020-09-11T08:15:55Z</time>
      </trkpt>
      <trkpt lat="42.7889750" lon="-0.2389670">
        <ele>2286.8</ele>
        <time>2020-09-11T08:16:00Z</time>
      </trkpt>
      <trkpt lat="42.7889570" lon="-0.2389730">
        <ele>2287.8</ele>
        <time>2020-09-11T08:16:04Z</time>
      </trkpt>
      <trkpt lat="42.7889230" lon="-0.2390260">
        <ele>2289.0</ele>
        <time>2020-09-11T08:16:10Z</time>
      </trkpt>
      <trkpt lat="42.7889030" lon="-0.2390790">
        <ele>2290.0</ele>
        <time>2020-09-11T08:16:14Z</time>
      </trkpt>
      <trkpt lat="42.7888980" lon="-0.2392040">
        <ele>2291.0</ele>
        <time>2020-09-11T08:16:25Z</time>
      </trkpt>
      <trkpt lat="42.7888650" lon="-0.2392620">
        <ele>2292.0</ele>
        <time>2020-09-11T08:16:32Z</time>
      </trkpt>
      <trkpt lat="42.7888680" lon="-0.2393110">
        <ele>2293.2</ele>
        <time>2020-09-11T08:16:37Z</time>
      </trkpt>
      <trkpt lat="42.7888730" lon="-0.2393790">
        <ele>2294.2</ele>
        <time>2020-09-11T08:16:43Z</time>
      </trkpt>
      <trkpt lat="42.7888690" lon="-0.2393900">
        <ele>2294.4</ele>
        <time>2020-09-11T08:16:44Z</time>
      </trkpt>
      <trkpt lat="42.7888590" lon="-0.2394120">
        <ele>2294.8</ele>
        <time>2020-09-11T08:16:46Z</time>
      </trkpt>
      <trkpt lat="42.7888360" lon="-0.2394410">
        <ele>2295.4</ele>
        <time>2020-09-11T08:16:50Z</time>
      </trkpt>
      <trkpt lat="42.7888400" lon="-0.2394590">
        <ele>2295.8</ele>
        <time>2020-09-11T08:16:52Z</time>
      </trkpt>
      <trkpt lat="42.7888430" lon="-0.2394770">
        <ele>2296.0</ele>
        <time>2020-09-11T08:16:54Z</time>
      </trkpt>
      <trkpt lat="42.7888380" lon="-0.2395010">
        <ele>2296.6</ele>
        <time>2020-09-11T08:16:56Z</time>
      </trkpt>
      <trkpt lat="42.7888170" lon="-0.2395340">
        <ele>2297.6</ele>
        <time>2020-09-11T08:17:01Z</time>
      </trkpt>
      <trkpt lat="42.7887860" lon="-0.2395860">
        <ele>2298.8</ele>
        <time>2020-09-11T08:17:08Z</time>
      </trkpt>
      <trkpt lat="42.7887490" lon="-0.2396180">
        <ele>2300.0</ele>
        <time>2020-09-11T08:17:16Z</time>
      </trkpt>
      <trkpt lat="42.7887090" lon="-0.2396490">
        <ele>2301.0</ele>
        <time>2020-09-11T08:17:22Z</time>
      </trkpt>
      <trkpt lat="42.7886960" lon="-0.2397170">
        <ele>2302.2</ele>
        <time>2020-09-11T08:17:30Z</time>
      </trkpt>
      <trkpt lat="42.7886880" lon="-0.2397760">
        <ele>2303.2</ele>
        <time>2020-09-11T08:17:36Z</time>
      </trkpt>
      <trkpt lat="42.7886560" lon="-0.2397920">
        <ele>2304.2</ele>
        <time>2020-09-11T08:17:41Z</time>
      </trkpt>
      <trkpt lat="42.7886630" lon="-0.2398330">
        <ele>2305.4</ele>
        <time>2020-09-11T08:17:46Z</time>
      </trkpt>
      <trkpt lat="42.7886630" lon="-0.2398650">
        <ele>2306.6</ele>
        <time>2020-09-11T08:17:50Z</time>
      </trkpt>
      <trkpt lat="42.7886390" lon="-0.2399030">
        <ele>2307.6</ele>
        <time>2020-09-11T08:17:56Z</time>
      </trkpt>
      <trkpt lat="42.7885960" lon="-0.2399590">
        <ele>2308.8</ele>
        <time>2020-09-11T08:18:07Z</time>
      </trkpt>
      <trkpt lat="42.7885100" lon="-0.2399790">
        <ele>2310.0</ele>
        <time>2020-09-11T08:18:20Z</time>
      </trkpt>
      <trkpt lat="42.7884810" lon="-0.2399850">
        <ele>2311.0</ele>
        <time>2020-09-11T08:18:24Z</time>
      </trkpt>
      <trkpt lat="42.7884530" lon="-0.2399850">
        <ele>2311.4</ele>
        <time>2020-09-11T08:18:27Z</time>
      </trkpt>
      <trkpt lat="42.7884430" lon="-0.2400080">
        <ele>2312.2</ele>
        <time>2020-09-11T08:18:30Z</time>
      </trkpt>
      <trkpt lat="42.7884300" lon="-0.2400380">
        <ele>2313.2</ele>
        <time>2020-09-11T08:18:33Z</time>
      </trkpt>
      <trkpt lat="42.7883990" lon="-0.2400950">
        <ele>2314.4</ele>
        <time>2020-09-11T08:18:41Z</time>
      </trkpt>
      <trkpt lat="42.7884160" lon="-0.2401350">
        <ele>2315.6</ele>
        <time>2020-09-11T08:18:47Z</time>
      </trkpt>
      <trkpt lat="42.7884260" lon="-0.2401810">
        <ele>2316.6</ele>
        <time>2020-09-11T08:18:52Z</time>
      </trkpt>
      <trkpt lat="42.7884260" lon="-0.2402220">
        <ele>2317.8</ele>
        <time>2020-09-11T08:18:58Z</time>
      </trkpt>
      <trkpt lat="42.7883980" lon="-0.2402630">
        <ele>2318.8</ele>
        <time>2020-09-11T08:19:04Z</time>
      </trkpt>
      <trkpt lat="42.7883560" lon="-0.2402570">
        <ele>2319.8</ele>
        <time>2020-09-11T08:19:10Z</time>
      </trkpt>
      <trkpt lat="42.7883170" lon="-0.2402270">
        <ele>2321.0</ele>
        <time>2020-09-11T08:19:20Z</time>
      </trkpt>
      <trkpt lat="42.7882770" lon="-0.2402100">
        <ele>2322.0</ele>
        <time>2020-09-11T08:19:26Z</time>
      </trkpt>
      <trkpt lat="42.7882310" lon="-0.2401870">
        <ele>2323.2</ele>
        <time>2020-09-11T08:19:37Z</time>
      </trkpt>
      <trkpt lat="42.7881830" lon="-0.2401730">
        <ele>2324.2</ele>
        <time>2020-09-11T08:19:42Z</time>
      </trkpt>
      <trkpt lat="42.7881800" lon="-0.2401870">
        <ele>2324.6</ele>
        <time>2020-09-11T08:19:43Z</time>
      </trkpt>
      <trkpt lat="42.7881590" lon="-0.2402150">
        <ele>2325.0</ele>
        <time>2020-09-11T08:19:47Z</time>
      </trkpt>
      <trkpt lat="42.7881460" lon="-0.2402250">
        <ele>2325.4</ele>
        <time>2020-09-11T08:19:49Z</time>
      </trkpt>
      <trkpt lat="42.7881210" lon="-0.2402600">
        <ele>2326.4</ele>
        <time>2020-09-11T08:19:53Z</time>
      </trkpt>
      <trkpt lat="42.7880930" lon="-0.2402800">
        <ele>2327.0</ele>
        <time>2020-09-11T08:19:56Z</time>
      </trkpt>
      <trkpt lat="42.7880850" lon="-0.2403100">
        <ele>2327.8</ele>
        <time>2020-09-11T08:19:58Z</time>
      </trkpt>
      <trkpt lat="42.7880850" lon="-0.2403260">
        <ele>2328.0</ele>
        <time>2020-09-11T08:19:59Z</time>
      </trkpt>
      <trkpt lat="42.7880900" lon="-0.2404270">
        <ele>2328.8</ele>
        <time>2020-09-11T08:20:05Z</time>
      </trkpt>
      <trkpt lat="42.7880940" lon="-0.2404400">
        <ele>2329.2</ele>
        <time>2020-09-11T08:20:07Z</time>
      </trkpt>
      <trkpt lat="42.7881020" lon="-0.2405010">
        <ele>2329.8</ele>
        <time>2020-09-11T08:20:13Z</time>
      </trkpt>
      <trkpt lat="42.7881040" lon="-0.2405120">
        <ele>2329.8</ele>
        <time>2020-09-11T08:20:14Z</time>
      </trkpt>
      <trkpt lat="42.7881180" lon="-0.2405340">
        <ele>2330.0</ele>
        <time>2020-09-11T08:20:17Z</time>
      </trkpt>
      <trkpt lat="42.7881580" lon="-0.2406400">
        <ele>2330.4</ele>
        <time>2020-09-11T08:20:25Z</time>
      </trkpt>
      <trkpt lat="42.7881830" lon="-0.2406980">
        <ele>2329.6</ele>
        <time>2020-09-11T08:20:29Z</time>
      </trkpt>
      <trkpt lat="42.7882000" lon="-0.2407450">
        <ele>2328.8</ele>
        <time>2020-09-11T08:20:33Z</time>
      </trkpt>
      <trkpt lat="42.7882090" lon="-0.2407580">
        <ele>2328.6</ele>
        <time>2020-09-11T08:20:34Z</time>
      </trkpt>
      <trkpt lat="42.7882150" lon="-0.2407780">
        <ele>2328.4</ele>
        <time>2020-09-11T08:20:36Z</time>
      </trkpt>
      <trkpt lat="42.7882220" lon="-0.2408120">
        <ele>2328.0</ele>
        <time>2020-09-11T08:20:40Z</time>
      </trkpt>
      <trkpt lat="42.7882250" lon="-0.2408230">
        <ele>2327.8</ele>
        <time>2020-09-11T08:20:41Z</time>
      </trkpt>
      <trkpt lat="42.7882320" lon="-0.2408430">
        <ele>2327.6</ele>
        <time>2020-09-11T08:20:44Z</time>
      </trkpt>
      <trkpt lat="42.7883460" lon="-0.2410400">
        <ele>2328.4</ele>
        <time>2020-09-11T08:21:07Z</time>
      </trkpt>
      <trkpt lat="42.7883500" lon="-0.2410490">
        <ele>2328.6</ele>
        <time>2020-09-11T08:21:08Z</time>
      </trkpt>
      <trkpt lat="42.7883680" lon="-0.2410610">
        <ele>2328.8</ele>
        <time>2020-09-11T08:21:10Z</time>
      </trkpt>
      <trkpt lat="42.7883920" lon="-0.2410860">
        <ele>2329.0</ele>
        <time>2020-09-11T08:21:13Z</time>
      </trkpt>
      <trkpt lat="42.7884390" lon="-0.2411520">
        <ele>2328.8</ele>
        <time>2020-09-11T08:21:19Z</time>
      </trkpt>
      <trkpt lat="42.7885030" lon="-0.2411890">
        <ele>2329.0</ele>
        <time>2020-09-11T08:21:25Z</time>
      </trkpt>
      <trkpt lat="42.7885200" lon="-0.2411920">
        <ele>2329.2</ele>
        <time>2020-09-11T08:21:27Z</time>
      </trkpt>
      <trkpt lat="42.7885450" lon="-0.2412270">
        <ele>2330.0</ele>
        <time>2020-09-11T08:21:34Z</time>
      </trkpt>
      <trkpt lat="42.7885550" lon="-0.2412560">
        <ele>2331.0</ele>
        <time>2020-09-11T08:21:38Z</time>
      </trkpt>
      <trkpt lat="42.7885620" lon="-0.2412670">
        <ele>2332.0</ele>
        <time>2020-09-11T08:21:42Z</time>
      </trkpt>
      <trkpt lat="42.7885610" lon="-0.2412780">
        <ele>2333.2</ele>
        <time>2020-09-11T08:21:44Z</time>
      </trkpt>
      <trkpt lat="42.7885520" lon="-0.2413080">
        <ele>2334.2</ele>
        <time>2020-09-11T08:21:46Z</time>
      </trkpt>
      <trkpt lat="42.7885430" lon="-0.2413400">
        <ele>2335.4</ele>
        <time>2020-09-11T08:21:49Z</time>
      </trkpt>
      <trkpt lat="42.7885520" lon="-0.2413660">
        <ele>2336.4</ele>
        <time>2020-09-11T08:21:52Z</time>
      </trkpt>
      <trkpt lat="42.7885810" lon="-0.2414620">
        <ele>2337.6</ele>
        <time>2020-09-11T08:22:05Z</time>
      </trkpt>
      <trkpt lat="42.7885950" lon="-0.2414940">
        <ele>2338.8</ele>
        <time>2020-09-11T08:22:13Z</time>
      </trkpt>
      <trkpt lat="42.7886050" lon="-0.2415220">
        <ele>2340.0</ele>
        <time>2020-09-11T08:22:17Z</time>
      </trkpt>
      <trkpt lat="42.7886330" lon="-0.2415620">
        <ele>2341.4</ele>
        <time>2020-09-11T08:22:27Z</time>
      </trkpt>
      <trkpt lat="42.7886220" lon="-0.2415780">
        <ele>2342.4</ele>
        <time>2020-09-11T08:22:31Z</time>
      </trkpt>
      <trkpt lat="42.7886040" lon="-0.2416010">
        <ele>2343.6</ele>
        <time>2020-09-11T08:22:37Z</time>
      </trkpt>
      <trkpt lat="42.7886440" lon="-0.2416110">
        <ele>2344.6</ele>
        <time>2020-09-11T08:22:44Z</time>
      </trkpt>
      <trkpt lat="42.7886680" lon="-0.2416230">
        <ele>2345.6</ele>
        <time>2020-09-11T08:22:48Z</time>
      </trkpt>
      <trkpt lat="42.7886540" lon="-0.2416520">
        <ele>2346.8</ele>
        <time>2020-09-11T08:22:53Z</time>
      </trkpt>
      <trkpt lat="42.7886430" lon="-0.2416880">
        <ele>2347.8</ele>
        <time>2020-09-11T08:22:58Z</time>
      </trkpt>
      <trkpt lat="42.7886270" lon="-0.2417190">
        <ele>2349.0</ele>
        <time>2020-09-11T08:23:03Z</time>
      </trkpt>
      <trkpt lat="42.7885900" lon="-0.2417490">
        <ele>2350.2</ele>
        <time>2020-09-11T08:23:09Z</time>
      </trkpt>
      <trkpt lat="42.7885820" lon="-0.2418060">
        <ele>2351.4</ele>
        <time>2020-09-11T08:23:41Z</time>
      </trkpt>
      <trkpt lat="42.7886010" lon="-0.2418250">
        <ele>2352.4</ele>
        <time>2020-09-11T08:23:46Z</time>
      </trkpt>
      <trkpt lat="42.7885870" lon="-0.2418430">
        <ele>2353.8</ele>
        <time>2020-09-11T08:23:52Z</time>
      </trkpt>
      <trkpt lat="42.7885740" lon="-0.2418470">
        <ele>2355.0</ele>
        <time>2020-09-11T08:23:55Z</time>
      </trkpt>
      <trkpt lat="42.7885850" lon="-0.2418730">
        <ele>2356.0</ele>
        <time>2020-09-11T08:24:00Z</time>
      </trkpt>
      <trkpt lat="42.7885730" lon="-0.2419120">
        <ele>2357.0</ele>
        <time>2020-09-11T08:24:06Z</time>
      </trkpt>
      <trkpt lat="42.7885630" lon="-0.2419400">
        <ele>2358.2</ele>
        <time>2020-09-11T08:24:12Z</time>
      </trkpt>
      <trkpt lat="42.7885750" lon="-0.2419800">
        <ele>2359.2</ele>
        <time>2020-09-11T08:24:19Z</time>
      </trkpt>
      <trkpt lat="42.7885890" lon="-0.2420140">
        <ele>2360.4</ele>
        <time>2020-09-11T08:24:25Z</time>
      </trkpt>
      <trkpt lat="42.7886030" lon="-0.2420360">
        <ele>2361.6</ele>
        <time>2020-09-11T08:24:30Z</time>
      </trkpt>
      <trkpt lat="42.7886340" lon="-0.2420560">
        <ele>2362.6</ele>
        <time>2020-09-11T08:24:36Z</time>
      </trkpt>
      <trkpt lat="42.7886300" lon="-0.2420940">
        <ele>2363.6</ele>
        <time>2020-09-11T08:24:41Z</time>
      </trkpt>
      <trkpt lat="42.7886260" lon="-0.2421160">
        <ele>2364.8</ele>
        <time>2020-09-11T08:24:46Z</time>
      </trkpt>
      <trkpt lat="42.7886340" lon="-0.2421280">
        <ele>2365.8</ele>
        <time>2020-09-11T08:24:50Z</time>
      </trkpt>
      <trkpt lat="42.7886450" lon="-0.2421600">
        <ele>2367.2</ele>
        <time>2020-09-11T08:24:55Z</time>
      </trkpt>
      <trkpt lat="42.7886620" lon="-0.2421930">
        <ele>2368.2</ele>
        <time>2020-09-11T08:25:01Z</time>
      </trkpt>
      <trkpt lat="42.7886870" lon="-0.2422110">
        <ele>2369.4</ele>
        <time>2020-09-11T08:25:08Z</time>
      </trkpt>
      <trkpt lat="42.7887220" lon="-0.2422300">
        <ele>2370.6</ele>
        <time>2020-09-11T08:25:19Z</time>
      </trkpt>
      <trkpt lat="42.7887270" lon="-0.2422690">
        <ele>2371.4</ele>
        <time>2020-09-11T08:25:24Z</time>
      </trkpt>
      <trkpt lat="42.7887280" lon="-0.2422870">
        <ele>2371.6</ele>
        <time>2020-09-11T08:25:26Z</time>
      </trkpt>
      <trkpt lat="42.7887350" lon="-0.2423100">
        <ele>2372.0</ele>
        <time>2020-09-11T08:25:28Z</time>
      </trkpt>
      <trkpt lat="42.7887410" lon="-0.2423320">
        <ele>2372.6</ele>
        <time>2020-09-11T08:25:30Z</time>
      </trkpt>
      <trkpt lat="42.7887450" lon="-0.2423390">
        <ele>2372.8</ele>
        <time>2020-09-11T08:25:31Z</time>
      </trkpt>
      <trkpt lat="42.7887580" lon="-0.2423890">
        <ele>2373.2</ele>
        <time>2020-09-11T08:25:35Z</time>
      </trkpt>
      <trkpt lat="42.7887620" lon="-0.2424080">
        <ele>2373.8</ele>
        <time>2020-09-11T08:25:37Z</time>
      </trkpt>
      <trkpt lat="42.7887650" lon="-0.2424220">
        <ele>2373.8</ele>
        <time>2020-09-11T08:25:38Z</time>
      </trkpt>
      <trkpt lat="42.7887820" lon="-0.2424770">
        <ele>2373.8</ele>
        <time>2020-09-11T08:25:42Z</time>
      </trkpt>
      <trkpt lat="42.7888460" lon="-0.2425780">
        <ele>2374.8</ele>
        <time>2020-09-11T08:25:52Z</time>
      </trkpt>
      <trkpt lat="42.7888520" lon="-0.2425960">
        <ele>2374.8</ele>
        <time>2020-09-11T08:25:53Z</time>
      </trkpt>
      <trkpt lat="42.7888590" lon="-0.2426060">
        <ele>2374.8</ele>
        <time>2020-09-11T08:25:54Z</time>
      </trkpt>
      <trkpt lat="42.7888640" lon="-0.2426150">
        <ele>2375.0</ele>
        <time>2020-09-11T08:25:56Z</time>
      </trkpt>
      <trkpt lat="42.7888390" lon="-0.2426580">
        <ele>2375.0</ele>
        <time>2020-09-11T08:26:01Z</time>
      </trkpt>
      <trkpt lat="42.7888450" lon="-0.2426910">
        <ele>2375.0</ele>
        <time>2020-09-11T08:26:04Z</time>
      </trkpt>
      <trkpt lat="42.7888700" lon="-0.2427360">
        <ele>2374.8</ele>
        <time>2020-09-11T08:26:09Z</time>
      </trkpt>
      <trkpt lat="42.7889080" lon="-0.2428790">
        <ele>2375.4</ele>
        <time>2020-09-11T08:26:21Z</time>
      </trkpt>
      <trkpt lat="42.7888980" lon="-0.2428890">
        <ele>2375.8</ele>
        <time>2020-09-11T08:26:27Z</time>
      </trkpt>
      <trkpt lat="42.7889350" lon="-0.2429220">
        <ele>2376.0</ele>
        <time>2020-09-11T08:26:47Z</time>
      </trkpt>
      <trkpt lat="42.7889450" lon="-0.2429540">
        <ele>2376.4</ele>
        <time>2020-09-11T08:26:50Z</time>
      </trkpt>
      <trkpt lat="42.7889620" lon="-0.2429790">
        <ele>2377.0</ele>
        <time>2020-09-11T08:26:53Z</time>
      </trkpt>
      <trkpt lat="42.7889970" lon="-0.2430250">
        <ele>2377.6</ele>
        <time>2020-09-11T08:26:58Z</time>
      </trkpt>
      <trkpt lat="42.7890220" lon="-0.2430750">
        <ele>2378.2</ele>
        <time>2020-09-11T08:27:03Z</time>
      </trkpt>
      <trkpt lat="42.7890520" lon="-0.2431130">
        <ele>2378.4</ele>
        <time>2020-09-11T08:27:06Z</time>
      </trkpt>
      <trkpt lat="42.7890490" lon="-0.2432460">
        <ele>2378.4</ele>
        <time>2020-09-11T08:27:15Z</time>
      </trkpt>
      <trkpt lat="42.7891300" lon="-0.2433850">
        <ele>2377.2</ele>
        <time>2020-09-11T08:27:25Z</time>
      </trkpt>
      <trkpt lat="42.7891400" lon="-0.2434120">
        <ele>2377.4</ele>
        <time>2020-09-11T08:27:27Z</time>
      </trkpt>
      <trkpt lat="42.7892200" lon="-0.2435300">
        <ele>2378.2</ele>
        <time>2020-09-11T08:27:38Z</time>
      </trkpt>
      <trkpt lat="42.7892380" lon="-0.2435440">
        <ele>2378.2</ele>
        <time>2020-09-11T08:27:40Z</time>
      </trkpt>
      <trkpt lat="42.7893000" lon="-0.2435490">
        <ele>2378.4</ele>
        <time>2020-09-11T08:27:47Z</time>
      </trkpt>
      <trkpt lat="42.7893280" lon="-0.2435540">
        <ele>2378.4</ele>
        <time>2020-09-11T08:27:50Z</time>
      </trkpt>
      <trkpt lat="42.7894090" lon="-0.2435650">
        <ele>2378.2</ele>
        <time>2020-09-11T08:27:58Z</time>
      </trkpt>
      <trkpt lat="42.7894480" lon="-0.2435520">
        <ele>2378.2</ele>
        <time>2020-09-11T08:28:02Z</time>
      </trkpt>
      <trkpt lat="42.7894610" lon="-0.2435480">
        <ele>2378.2</ele>
        <time>2020-09-11T08:28:04Z</time>
      </trkpt>
      <trkpt lat="42.7894650" lon="-0.2435420">
        <ele>2378.2</ele>
        <time>2020-09-11T08:28:06Z</time>
      </trkpt>
      <trkpt lat="42.7894650" lon="-0.2435450">
        <ele>2378.4</ele>
        <time>2020-09-11T08:28:10Z</time>
      </trkpt>
      <trkpt lat="42.7894460" lon="-0.2435250">
        <ele>2377.0</ele>
        <time>2020-09-11T08:28:44Z</time>
      </trkpt>
      <trkpt lat="42.7894460" lon="-0.2435270">
        <ele>2377.2</ele>
        <time>2020-09-11T08:28:54Z</time>
      </trkpt>
      <trkpt lat="42.7894670" lon="-0.2435520">
        <ele>2377.0</ele>
        <time>2020-09-11T08:29:44Z</time>
      </trkpt>
      <trkpt lat="42.7894930" lon="-0.2435800">
        <ele>2377.0</ele>
        <time>2020-09-11T08:29:46Z</time>
      </trkpt>
      <trkpt lat="42.7895100" lon="-0.2436140">
        <ele>2375.8</ele>
        <time>2020-09-11T08:29:48Z</time>
      </trkpt>
      <trkpt lat="42.7895330" lon="-0.2436460">
        <ele>2374.8</ele>
        <time>2020-09-11T08:29:50Z</time>
      </trkpt>
      <trkpt lat="42.7895560" lon="-0.2437090">
        <ele>2374.8</ele>
        <time>2020-09-11T08:29:53Z</time>
      </trkpt>
      <trkpt lat="42.7895890" lon="-0.2437380">
        <ele>2375.0</ele>
        <time>2020-09-11T08:29:56Z</time>
      </trkpt>
      <trkpt lat="42.7895970" lon="-0.2437800">
        <ele>2375.4</ele>
        <time>2020-09-11T08:29:59Z</time>
      </trkpt>
      <trkpt lat="42.7896130" lon="-0.2438220">
        <ele>2375.8</ele>
        <time>2020-09-11T08:30:03Z</time>
      </trkpt>
      <trkpt lat="42.7896190" lon="-0.2438570">
        <ele>2376.2</ele>
        <time>2020-09-11T08:30:06Z</time>
      </trkpt>
      <trkpt lat="42.7896290" lon="-0.2438910">
        <ele>2376.2</ele>
        <time>2020-09-11T08:30:08Z</time>
      </trkpt>
      <trkpt lat="42.7896970" lon="-0.2439390">
        <ele>2376.0</ele>
        <time>2020-09-11T08:30:14Z</time>
      </trkpt>
      <trkpt lat="42.7897760" lon="-0.2440480">
        <ele>2375.2</ele>
        <time>2020-09-11T08:30:23Z</time>
      </trkpt>
      <trkpt lat="42.7898420" lon="-0.2440670">
        <ele>2374.8</ele>
        <time>2020-09-11T08:30:28Z</time>
      </trkpt>
      <trkpt lat="42.7898710" lon="-0.2440980">
        <ele>2374.4</ele>
        <time>2020-09-11T08:30:31Z</time>
      </trkpt>
      <trkpt lat="42.7898940" lon="-0.2440960">
        <ele>2374.4</ele>
        <time>2020-09-11T08:30:33Z</time>
      </trkpt>
      <trkpt lat="42.7899290" lon="-0.2440660">
        <ele>2374.4</ele>
        <time>2020-09-11T08:30:37Z</time>
      </trkpt>
      <trkpt lat="42.7899480" lon="-0.2440650">
        <ele>2374.2</ele>
        <time>2020-09-11T08:30:40Z</time>
      </trkpt>
      <trkpt lat="42.7899600" lon="-0.2440770">
        <ele>2374.2</ele>
        <time>2020-09-11T08:30:43Z</time>
      </trkpt>
      <trkpt lat="42.7899570" lon="-0.2441130">
        <ele>2374.0</ele>
        <time>2020-09-11T08:30:46Z</time>
      </trkpt>
      <trkpt lat="42.7899730" lon="-0.2441210">
        <ele>2373.6</ele>
        <time>2020-09-11T08:30:48Z</time>
      </trkpt>
      <trkpt lat="42.7899820" lon="-0.2441250">
        <ele>2373.4</ele>
        <time>2020-09-11T08:30:49Z</time>
      </trkpt>
      <trkpt lat="42.7899950" lon="-0.2441340">
        <ele>2373.0</ele>
        <time>2020-09-11T08:30:52Z</time>
      </trkpt>
      <trkpt lat="42.7900200" lon="-0.2441550">
        <ele>2372.6</ele>
        <time>2020-09-11T08:30:55Z</time>
      </trkpt>
      <trkpt lat="42.7900560" lon="-0.2441500">
        <ele>2371.6</ele>
        <time>2020-09-11T08:30:58Z</time>
      </trkpt>
      <trkpt lat="42.7900630" lon="-0.2441490">
        <ele>2371.4</ele>
        <time>2020-09-11T08:30:59Z</time>
      </trkpt>
      <trkpt lat="42.7900980" lon="-0.2441770">
        <ele>2371.2</ele>
        <time>2020-09-11T08:31:03Z</time>
      </trkpt>
      <trkpt lat="42.7901250" lon="-0.2441820">
        <ele>2370.4</ele>
        <time>2020-09-11T08:31:06Z</time>
      </trkpt>
      <trkpt lat="42.7901700" lon="-0.2442400">
        <ele>2369.4</ele>
        <time>2020-09-11T08:31:12Z</time>
      </trkpt>
      <trkpt lat="42.7902180" lon="-0.2442880">
        <ele>2368.6</ele>
        <time>2020-09-11T08:31:17Z</time>
      </trkpt>
      <trkpt lat="42.7902650" lon="-0.2443450">
        <ele>2368.6</ele>
        <time>2020-09-11T08:31:24Z</time>
      </trkpt>
      <trkpt lat="42.7902910" lon="-0.2443860">
        <ele>2368.4</ele>
        <time>2020-09-11T08:31:27Z</time>
      </trkpt>
      <trkpt lat="42.7903280" lon="-0.2444060">
        <ele>2368.4</ele>
        <time>2020-09-11T08:31:31Z</time>
      </trkpt>
      <trkpt lat="42.7903460" lon="-0.2444540">
        <ele>2368.4</ele>
        <time>2020-09-11T08:31:34Z</time>
      </trkpt>
      <trkpt lat="42.7903520" lon="-0.2444770">
        <ele>2368.4</ele>
        <time>2020-09-11T08:31:37Z</time>
      </trkpt>
      <trkpt lat="42.7903850" lon="-0.2444920">
        <ele>2368.4</ele>
        <time>2020-09-11T08:31:44Z</time>
      </trkpt>
      <trkpt lat="42.7904170" lon="-0.2445070">
        <ele>2368.6</ele>
        <time>2020-09-11T08:31:47Z</time>
      </trkpt>
      <trkpt lat="42.7904830" lon="-0.2444900">
        <ele>2368.8</ele>
        <time>2020-09-11T08:31:52Z</time>
      </trkpt>
      <trkpt lat="42.7905270" lon="-0.2445260">
        <ele>2368.2</ele>
        <time>2020-09-11T08:31:56Z</time>
      </trkpt>
      <trkpt lat="42.7905500" lon="-0.2445600">
        <ele>2367.6</ele>
        <time>2020-09-11T08:31:58Z</time>
      </trkpt>
      <trkpt lat="42.7905620" lon="-0.2445730">
        <ele>2367.0</ele>
        <time>2020-09-11T08:31:59Z</time>
      </trkpt>
      <trkpt lat="42.7905910" lon="-0.2445790">
        <ele>2366.4</ele>
        <time>2020-09-11T08:32:01Z</time>
      </trkpt>
      <trkpt lat="42.7906120" lon="-0.2445700">
        <ele>2365.8</ele>
        <time>2020-09-11T08:32:04Z</time>
      </trkpt>
      <trkpt lat="42.7906140" lon="-0.2445910">
        <ele>2365.4</ele>
        <time>2020-09-11T08:32:06Z</time>
      </trkpt>
      <trkpt lat="42.7906150" lon="-0.2446200">
        <ele>2364.6</ele>
        <time>2020-09-11T08:32:08Z</time>
      </trkpt>
      <trkpt lat="42.7906390" lon="-0.2448680">
        <ele>2364.4</ele>
        <time>2020-09-11T08:32:25Z</time>
      </trkpt>
      <trkpt lat="42.7907200" lon="-0.2450800">
        <ele>2365.8</ele>
        <time>2020-09-11T08:32:40Z</time>
      </trkpt>
      <trkpt lat="42.7907430" lon="-0.2451250">
        <ele>2366.2</ele>
        <time>2020-09-11T08:32:44Z</time>
      </trkpt>
      <trkpt lat="42.7907550" lon="-0.2451650">
        <ele>2366.8</ele>
        <time>2020-09-11T08:32:47Z</time>
      </trkpt>
      <trkpt lat="42.7908080" lon="-0.2453770">
        <ele>2367.8</ele>
        <time>2020-09-11T08:33:00Z</time>
      </trkpt>
      <trkpt lat="42.7909180" lon="-0.2455850">
        <ele>2367.2</ele>
        <time>2020-09-11T08:33:13Z</time>
      </trkpt>
      <trkpt lat="42.7909880" lon="-0.2457700">
        <ele>2366.6</ele>
        <time>2020-09-11T08:33:25Z</time>
      </trkpt>
      <trkpt lat="42.7910140" lon="-0.2458190">
        <ele>2366.4</ele>
        <time>2020-09-11T08:33:35Z</time>
      </trkpt>
      <trkpt lat="42.7910550" lon="-0.2459250">
        <ele>2366.6</ele>
        <time>2020-09-11T08:33:42Z</time>
      </trkpt>
      <trkpt lat="42.7910960" lon="-0.2460140">
        <ele>2366.8</ele>
        <time>2020-09-11T08:33:50Z</time>
      </trkpt>
      <trkpt lat="42.7910880" lon="-0.2460820">
        <ele>2367.4</ele>
        <time>2020-09-11T08:33:55Z</time>
      </trkpt>
      <trkpt lat="42.7910610" lon="-0.2461920">
        <ele>2367.2</ele>
        <time>2020-09-11T08:34:03Z</time>
      </trkpt>
      <trkpt lat="42.7910540" lon="-0.2462190">
        <ele>2367.0</ele>
        <time>2020-09-11T08:34:05Z</time>
      </trkpt>
      <trkpt lat="42.7910700" lon="-0.2462520">
        <ele>2366.8</ele>
        <time>2020-09-11T08:34:08Z</time>
      </trkpt>
      <trkpt lat="42.7910590" lon="-0.2462990">
        <ele>2366.8</ele>
        <time>2020-09-11T08:34:12Z</time>
      </trkpt>
      <trkpt lat="42.7909900" lon="-0.2463010">
        <ele>2366.8</ele>
        <time>2020-09-11T08:34:19Z</time>
      </trkpt>
      <trkpt lat="42.7909190" lon="-0.2465220">
        <ele>2366.8</ele>
        <time>2020-09-11T08:34:33Z</time>
      </trkpt>
      <trkpt lat="42.7910480" lon="-0.2467100">
        <ele>2367.4</ele>
        <time>2020-09-11T08:34:47Z</time>
      </trkpt>
      <trkpt lat="42.7910860" lon="-0.2469080">
        <ele>2367.6</ele>
        <time>2020-09-11T08:34:59Z</time>
      </trkpt>
      <trkpt lat="42.7910710" lon="-0.2471400">
        <ele>2368.4</ele>
        <time>2020-09-11T08:35:13Z</time>
      </trkpt>
      <trkpt lat="42.7910660" lon="-0.2471920">
        <ele>2368.4</ele>
        <time>2020-09-11T08:35:16Z</time>
      </trkpt>
      <trkpt lat="42.7910740" lon="-0.2472260">
        <ele>2368.8</ele>
        <time>2020-09-11T08:35:18Z</time>
      </trkpt>
      <trkpt lat="42.7910660" lon="-0.2473350">
        <ele>2369.2</ele>
        <time>2020-09-11T08:35:25Z</time>
      </trkpt>
      <trkpt lat="42.7911020" lon="-0.2475870">
        <ele>2369.6</ele>
        <time>2020-09-11T08:35:39Z</time>
      </trkpt>
      <trkpt lat="42.7911040" lon="-0.2476060">
        <ele>2369.8</ele>
        <time>2020-09-11T08:35:40Z</time>
      </trkpt>
      <trkpt lat="42.7911330" lon="-0.2477480">
        <ele>2370.4</ele>
        <time>2020-09-11T08:35:48Z</time>
      </trkpt>
      <trkpt lat="42.7911130" lon="-0.2479500">
        <ele>2370.8</ele>
        <time>2020-09-11T08:35:59Z</time>
      </trkpt>
      <trkpt lat="42.7910990" lon="-0.2481530">
        <ele>2371.8</ele>
        <time>2020-09-11T08:36:10Z</time>
      </trkpt>
      <trkpt lat="42.7910720" lon="-0.2484010">
        <ele>2372.4</ele>
        <time>2020-09-11T08:36:23Z</time>
      </trkpt>
      <trkpt lat="42.7910830" lon="-0.2485400">
        <ele>2373.0</ele>
        <time>2020-09-11T08:36:31Z</time>
      </trkpt>
      <trkpt lat="42.7910450" lon="-0.2487850">
        <ele>2373.4</ele>
        <time>2020-09-11T08:36:45Z</time>
      </trkpt>
      <trkpt lat="42.7910410" lon="-0.2488790">
        <ele>2374.0</ele>
        <time>2020-09-11T08:36:50Z</time>
      </trkpt>
      <trkpt lat="42.7910540" lon="-0.2490110">
        <ele>2374.4</ele>
        <time>2020-09-11T08:36:58Z</time>
      </trkpt>
      <trkpt lat="42.7910520" lon="-0.2490370">
        <ele>2374.4</ele>
        <time>2020-09-11T08:37:00Z</time>
      </trkpt>
      <trkpt lat="42.7910390" lon="-0.2490910">
        <ele>2374.4</ele>
        <time>2020-09-11T08:37:04Z</time>
      </trkpt>
      <trkpt lat="42.7910190" lon="-0.2491080">
        <ele>2374.6</ele>
        <time>2020-09-11T08:37:06Z</time>
      </trkpt>
      <trkpt lat="42.7910070" lon="-0.2491610">
        <ele>2375.0</ele>
        <time>2020-09-11T08:37:10Z</time>
      </trkpt>
      <trkpt lat="42.7909970" lon="-0.2491650">
        <ele>2375.0</ele>
        <time>2020-09-11T08:37:11Z</time>
      </trkpt>
      <trkpt lat="42.7909630" lon="-0.2491730">
        <ele>2375.0</ele>
        <time>2020-09-11T08:37:14Z</time>
      </trkpt>
      <trkpt lat="42.7909430" lon="-0.2491740">
        <ele>2375.0</ele>
        <time>2020-09-11T08:37:16Z</time>
      </trkpt>
      <trkpt lat="42.7909170" lon="-0.2492370">
        <ele>2376.2</ele>
        <time>2020-09-11T08:37:24Z</time>
      </trkpt>
      <trkpt lat="42.7909060" lon="-0.2492650">
        <ele>2377.2</ele>
        <time>2020-09-11T08:37:28Z</time>
      </trkpt>
      <trkpt lat="42.7908710" lon="-0.2492900">
        <ele>2378.2</ele>
        <time>2020-09-11T08:37:34Z</time>
      </trkpt>
      <trkpt lat="42.7908390" lon="-0.2493040">
        <ele>2379.2</ele>
        <time>2020-09-11T08:37:38Z</time>
      </trkpt>
      <trkpt lat="42.7908020" lon="-0.2493230">
        <ele>2380.4</ele>
        <time>2020-09-11T08:37:42Z</time>
      </trkpt>
      <trkpt lat="42.7908030" lon="-0.2493530">
        <ele>2381.4</ele>
        <time>2020-09-11T08:37:45Z</time>
      </trkpt>
      <trkpt lat="42.7907930" lon="-0.2494160">
        <ele>2382.6</ele>
        <time>2020-09-11T08:37:50Z</time>
      </trkpt>
      <trkpt lat="42.7907850" lon="-0.2494260">
        <ele>2382.6</ele>
        <time>2020-09-11T08:37:51Z</time>
      </trkpt>
      <trkpt lat="42.7907710" lon="-0.2494410">
        <ele>2383.0</ele>
        <time>2020-09-11T08:37:53Z</time>
      </trkpt>
      <trkpt lat="42.7907510" lon="-0.2494720">
        <ele>2383.4</ele>
        <time>2020-09-11T08:37:57Z</time>
      </trkpt>
      <trkpt lat="42.7907470" lon="-0.2494810">
        <ele>2383.6</ele>
        <time>2020-09-11T08:37:58Z</time>
      </trkpt>
      <trkpt lat="42.7907060" lon="-0.2495080">
        <ele>2384.8</ele>
        <time>2020-09-11T08:38:05Z</time>
      </trkpt>
      <trkpt lat="42.7906860" lon="-0.2495490">
        <ele>2385.8</ele>
        <time>2020-09-11T08:38:10Z</time>
      </trkpt>
      <trkpt lat="42.7906880" lon="-0.2495790">
        <ele>2386.0</ele>
        <time>2020-09-11T08:38:14Z</time>
      </trkpt>
      <trkpt lat="42.7906860" lon="-0.2496080">
        <ele>2386.2</ele>
        <time>2020-09-11T08:38:16Z</time>
      </trkpt>
      <trkpt lat="42.7906960" lon="-0.2496350">
        <ele>2386.8</ele>
        <time>2020-09-11T08:38:18Z</time>
      </trkpt>
      <trkpt lat="42.7907010" lon="-0.2498630">
        <ele>2388.0</ele>
        <time>2020-09-11T08:38:35Z</time>
      </trkpt>
      <trkpt lat="42.7907010" lon="-0.2498750">
        <ele>2388.0</ele>
        <time>2020-09-11T08:38:36Z</time>
      </trkpt>
      <trkpt lat="42.7906970" lon="-0.2498890">
        <ele>2388.4</ele>
        <time>2020-09-11T08:38:38Z</time>
      </trkpt>
      <trkpt lat="42.7906760" lon="-0.2499070">
        <ele>2388.8</ele>
        <time>2020-09-11T08:38:41Z</time>
      </trkpt>
      <trkpt lat="42.7906700" lon="-0.2499180">
        <ele>2389.0</ele>
        <time>2020-09-11T08:38:42Z</time>
      </trkpt>
      <trkpt lat="42.7906620" lon="-0.2499360">
        <ele>2389.4</ele>
        <time>2020-09-11T08:38:44Z</time>
      </trkpt>
      <trkpt lat="42.7906470" lon="-0.2499600">
        <ele>2389.8</ele>
        <time>2020-09-11T08:38:47Z</time>
      </trkpt>
      <trkpt lat="42.7906420" lon="-0.2499650">
        <ele>2390.0</ele>
        <time>2020-09-11T08:38:48Z</time>
      </trkpt>
      <trkpt lat="42.7906280" lon="-0.2499950">
        <ele>2390.4</ele>
        <time>2020-09-11T08:38:51Z</time>
      </trkpt>
      <trkpt lat="42.7906400" lon="-0.2500490">
        <ele>2390.8</ele>
        <time>2020-09-11T08:38:55Z</time>
      </trkpt>
      <trkpt lat="42.7906520" lon="-0.2500790">
        <ele>2391.2</ele>
        <time>2020-09-11T08:38:57Z</time>
      </trkpt>
      <trkpt lat="42.7906780" lon="-0.2502240">
        <ele>2392.2</ele>
        <time>2020-09-11T08:39:07Z</time>
      </trkpt>
      <trkpt lat="42.7906770" lon="-0.2502620">
        <ele>2392.6</ele>
        <time>2020-09-11T08:39:10Z</time>
      </trkpt>
      <trkpt lat="42.7906690" lon="-0.2503040">
        <ele>2393.4</ele>
        <time>2020-09-11T08:39:13Z</time>
      </trkpt>
      <trkpt lat="42.7906780" lon="-0.2503840">
        <ele>2394.4</ele>
        <time>2020-09-11T08:39:19Z</time>
      </trkpt>
      <trkpt lat="42.7906820" lon="-0.2504310">
        <ele>2395.2</ele>
        <time>2020-09-11T08:39:22Z</time>
      </trkpt>
      <trkpt lat="42.7906830" lon="-0.2504750">
        <ele>2395.6</ele>
        <time>2020-09-11T08:39:25Z</time>
      </trkpt>
      <trkpt lat="42.7906950" lon="-0.2505470">
        <ele>2396.6</ele>
        <time>2020-09-11T08:39:30Z</time>
      </trkpt>
      <trkpt lat="42.7906760" lon="-0.2506730">
        <ele>2397.4</ele>
        <time>2020-09-11T08:39:40Z</time>
      </trkpt>
      <trkpt lat="42.7906740" lon="-0.2506960">
        <ele>2397.6</ele>
        <time>2020-09-11T08:39:42Z</time>
      </trkpt>
      <trkpt lat="42.7906530" lon="-0.2507580">
        <ele>2398.4</ele>
        <time>2020-09-11T08:39:48Z</time>
      </trkpt>
      <trkpt lat="42.7906560" lon="-0.2507590">
        <ele>2398.6</ele>
        <time>2020-09-11T08:39:50Z</time>
      </trkpt>
      <trkpt lat="42.7906470" lon="-0.2507860">
        <ele>2398.8</ele>
        <time>2020-09-11T08:39:54Z</time>
      </trkpt>
      <trkpt lat="42.7906440" lon="-0.2508130">
        <ele>2398.8</ele>
        <time>2020-09-11T08:39:56Z</time>
      </trkpt>
      <trkpt lat="42.7906350" lon="-0.2508970">
        <ele>2399.8</ele>
        <time>2020-09-11T08:40:02Z</time>
      </trkpt>
      <trkpt lat="42.7906200" lon="-0.2509660">
        <ele>2400.8</ele>
        <time>2020-09-11T08:40:08Z</time>
      </trkpt>
      <trkpt lat="42.7906090" lon="-0.2509930">
        <ele>2401.4</ele>
        <time>2020-09-11T08:40:11Z</time>
      </trkpt>
      <trkpt lat="42.7906030" lon="-0.2510440">
        <ele>2402.0</ele>
        <time>2020-09-11T08:40:15Z</time>
      </trkpt>
      <trkpt lat="42.7905860" lon="-0.2510950">
        <ele>2403.0</ele>
        <time>2020-09-11T08:40:20Z</time>
      </trkpt>
      <trkpt lat="42.7905660" lon="-0.2511220">
        <ele>2403.6</ele>
        <time>2020-09-11T08:40:23Z</time>
      </trkpt>
      <trkpt lat="42.7905560" lon="-0.2511420">
        <ele>2404.2</ele>
        <time>2020-09-11T08:40:25Z</time>
      </trkpt>
      <trkpt lat="42.7905540" lon="-0.2511720">
        <ele>2404.6</ele>
        <time>2020-09-11T08:40:28Z</time>
      </trkpt>
      <trkpt lat="42.7905480" lon="-0.2512090">
        <ele>2405.2</ele>
        <time>2020-09-11T08:40:31Z</time>
      </trkpt>
      <trkpt lat="42.7905430" lon="-0.2512330">
        <ele>2405.6</ele>
        <time>2020-09-11T08:40:33Z</time>
      </trkpt>
      <trkpt lat="42.7905070" lon="-0.2513780">
        <ele>2406.4</ele>
        <time>2020-09-11T08:40:45Z</time>
      </trkpt>
      <trkpt lat="42.7905110" lon="-0.2513980">
        <ele>2406.8</ele>
        <time>2020-09-11T08:40:47Z</time>
      </trkpt>
      <trkpt lat="42.7905200" lon="-0.2514370">
        <ele>2407.4</ele>
        <time>2020-09-11T08:40:50Z</time>
      </trkpt>
      <trkpt lat="42.7905050" lon="-0.2515380">
        <ele>2407.8</ele>
        <time>2020-09-11T08:40:59Z</time>
      </trkpt>
      <trkpt lat="42.7905040" lon="-0.2515480">
        <ele>2408.0</ele>
        <time>2020-09-11T08:41:00Z</time>
      </trkpt>
      <trkpt lat="42.7904890" lon="-0.2515790">
        <ele>2408.4</ele>
        <time>2020-09-11T08:41:03Z</time>
      </trkpt>
      <trkpt lat="42.7904730" lon="-0.2515960">
        <ele>2408.8</ele>
        <time>2020-09-11T08:41:05Z</time>
      </trkpt>
      <trkpt lat="42.7904710" lon="-0.2516040">
        <ele>2408.8</ele>
        <time>2020-09-11T08:41:07Z</time>
      </trkpt>
      <trkpt lat="42.7904630" lon="-0.2516700">
        <ele>2409.4</ele>
        <time>2020-09-11T08:41:17Z</time>
      </trkpt>
      <trkpt lat="42.7904520" lon="-0.2517400">
        <ele>2410.6</ele>
        <time>2020-09-11T08:41:24Z</time>
      </trkpt>
      <trkpt lat="42.7904480" lon="-0.2517690">
        <ele>2411.0</ele>
        <time>2020-09-11T08:41:26Z</time>
      </trkpt>
      <trkpt lat="42.7904410" lon="-0.2517920">
        <ele>2411.0</ele>
        <time>2020-09-11T08:41:28Z</time>
      </trkpt>
      <trkpt lat="42.7904470" lon="-0.2518410">
        <ele>2411.4</ele>
        <time>2020-09-11T08:41:32Z</time>
      </trkpt>
      <trkpt lat="42.7904480" lon="-0.2518550">
        <ele>2411.6</ele>
        <time>2020-09-11T08:41:33Z</time>
      </trkpt>
      <trkpt lat="42.7904120" lon="-0.2518830">
        <ele>2412.0</ele>
        <time>2020-09-11T08:41:36Z</time>
      </trkpt>
      <trkpt lat="42.7903880" lon="-0.2519280">
        <ele>2412.4</ele>
        <time>2020-09-11T08:41:39Z</time>
      </trkpt>
      <trkpt lat="42.7903840" lon="-0.2519430">
        <ele>2412.6</ele>
        <time>2020-09-11T08:41:40Z</time>
      </trkpt>
      <trkpt lat="42.7903790" lon="-0.2519790">
        <ele>2412.8</ele>
        <time>2020-09-11T08:41:42Z</time>
      </trkpt>
      <trkpt lat="42.7903890" lon="-0.2520290">
        <ele>2413.4</ele>
        <time>2020-09-11T08:41:46Z</time>
      </trkpt>
      <trkpt lat="42.7904020" lon="-0.2520470">
        <ele>2413.8</ele>
        <time>2020-09-11T08:41:48Z</time>
      </trkpt>
      <trkpt lat="42.7904020" lon="-0.2520580">
        <ele>2414.0</ele>
        <time>2020-09-11T08:41:49Z</time>
      </trkpt>
      <trkpt lat="42.7904000" lon="-0.2520940">
        <ele>2414.2</ele>
        <time>2020-09-11T08:41:53Z</time>
      </trkpt>
      <trkpt lat="42.7904000" lon="-0.2521040">
        <ele>2414.4</ele>
        <time>2020-09-11T08:41:54Z</time>
      </trkpt>
      <trkpt lat="42.7903980" lon="-0.2521280">
        <ele>2414.8</ele>
        <time>2020-09-11T08:41:56Z</time>
      </trkpt>
      <trkpt lat="42.7904000" lon="-0.2521440">
        <ele>2415.2</ele>
        <time>2020-09-11T08:41:58Z</time>
      </trkpt>
      <trkpt lat="42.7904000" lon="-0.2521560">
        <ele>2415.6</ele>
        <time>2020-09-11T08:42:00Z</time>
      </trkpt>
      <trkpt lat="42.7904130" lon="-0.2521710">
        <ele>2416.0</ele>
        <time>2020-09-11T08:42:02Z</time>
      </trkpt>
      <trkpt lat="42.7904190" lon="-0.2521780">
        <ele>2416.2</ele>
        <time>2020-09-11T08:42:03Z</time>
      </trkpt>
      <trkpt lat="42.7904400" lon="-0.2521900">
        <ele>2416.8</ele>
        <time>2020-09-11T08:42:06Z</time>
      </trkpt>
      <trkpt lat="42.7904410" lon="-0.2521920">
        <ele>2417.2</ele>
        <time>2020-09-11T08:42:07Z</time>
      </trkpt>
      <trkpt lat="42.7904610" lon="-0.2522250">
        <ele>2418.2</ele>
        <time>2020-09-11T08:42:12Z</time>
      </trkpt>
      <trkpt lat="42.7904380" lon="-0.2522130">
        <ele>2419.2</ele>
        <time>2020-09-11T08:42:19Z</time>
      </trkpt>
      <trkpt lat="42.7904260" lon="-0.2522630">
        <ele>2420.4</ele>
        <time>2020-09-11T08:42:26Z</time>
      </trkpt>
      <trkpt lat="42.7904500" lon="-0.2523260">
        <ele>2421.6</ele>
        <time>2020-09-11T08:42:33Z</time>
      </trkpt>
      <trkpt lat="42.7903920" lon="-0.2523700">
        <ele>2422.6</ele>
        <time>2020-09-11T08:42:40Z</time>
      </trkpt>
      <trkpt lat="42.7903850" lon="-0.2523720">
        <ele>2422.6</ele>
        <time>2020-09-11T08:42:41Z</time>
      </trkpt>
      <trkpt lat="42.7903700" lon="-0.2524010">
        <ele>2423.8</ele>
        <time>2020-09-11T08:42:45Z</time>
      </trkpt>
      <trkpt lat="42.7904080" lon="-0.2524230">
        <ele>2424.4</ele>
        <time>2020-09-11T08:42:49Z</time>
      </trkpt>
      <trkpt lat="42.7904210" lon="-0.2524290">
        <ele>2424.6</ele>
        <time>2020-09-11T08:42:51Z</time>
      </trkpt>
      <trkpt lat="42.7904350" lon="-0.2524490">
        <ele>2425.0</ele>
        <time>2020-09-11T08:42:54Z</time>
      </trkpt>
      <trkpt lat="42.7904690" lon="-0.2524970">
        <ele>2426.2</ele>
        <time>2020-09-11T08:43:02Z</time>
      </trkpt>
      <trkpt lat="42.7904550" lon="-0.2524990">
        <ele>2427.2</ele>
        <time>2020-09-11T08:43:06Z</time>
      </trkpt>
      <trkpt lat="42.7904100" lon="-0.2525050">
        <ele>2428.4</ele>
        <time>2020-09-11T08:43:12Z</time>
      </trkpt>
      <trkpt lat="42.7903850" lon="-0.2525040">
        <ele>2429.4</ele>
        <time>2020-09-11T08:43:17Z</time>
      </trkpt>
      <trkpt lat="42.7903610" lon="-0.2525420">
        <ele>2430.6</ele>
        <time>2020-09-11T08:43:23Z</time>
      </trkpt>
      <trkpt lat="42.7903600" lon="-0.2525790">
        <ele>2431.6</ele>
        <time>2020-09-11T08:43:27Z</time>
      </trkpt>
      <trkpt lat="42.7903960" lon="-0.2525960">
        <ele>2432.8</ele>
        <time>2020-09-11T08:43:31Z</time>
      </trkpt>
      <trkpt lat="42.7904080" lon="-0.2526560">
        <ele>2433.8</ele>
        <time>2020-09-11T08:43:40Z</time>
      </trkpt>
      <trkpt lat="42.7904180" lon="-0.2526620">
        <ele>2434.8</ele>
        <time>2020-09-11T08:43:46Z</time>
      </trkpt>
      <trkpt lat="42.7904250" lon="-0.2526730">
        <ele>2435.8</ele>
        <time>2020-09-11T08:43:52Z</time>
      </trkpt>
      <trkpt lat="42.7904190" lon="-0.2526810">
        <ele>2436.0</ele>
        <time>2020-09-11T08:43:53Z</time>
      </trkpt>
      <trkpt lat="42.7904510" lon="-0.2526740">
        <ele>2437.0</ele>
        <time>2020-09-11T08:43:59Z</time>
      </trkpt>
      <trkpt lat="42.7904460" lon="-0.2527110">
        <ele>2438.2</ele>
        <time>2020-09-11T08:44:05Z</time>
      </trkpt>
      <trkpt lat="42.7903870" lon="-0.2527840">
        <ele>2439.2</ele>
        <time>2020-09-11T08:44:15Z</time>
      </trkpt>
      <trkpt lat="42.7903690" lon="-0.2528030">
        <ele>2439.8</ele>
        <time>2020-09-11T08:44:17Z</time>
      </trkpt>
      <trkpt lat="42.7903560" lon="-0.2528310">
        <ele>2440.4</ele>
        <time>2020-09-11T08:44:20Z</time>
      </trkpt>
      <trkpt lat="42.7903310" lon="-0.2528390">
        <ele>2441.6</ele>
        <time>2020-09-11T08:44:25Z</time>
      </trkpt>
      <trkpt lat="42.7903100" lon="-0.2528470">
        <ele>2442.6</ele>
        <time>2020-09-11T08:44:30Z</time>
      </trkpt>
      <trkpt lat="42.7902950" lon="-0.2528550">
        <ele>2443.8</ele>
        <time>2020-09-11T08:44:35Z</time>
      </trkpt>
      <trkpt lat="42.7902700" lon="-0.2528670">
        <ele>2445.0</ele>
        <time>2020-09-11T08:44:39Z</time>
      </trkpt>
      <trkpt lat="42.7902410" lon="-0.2529100">
        <ele>2446.0</ele>
        <time>2020-09-11T08:44:47Z</time>
      </trkpt>
      <trkpt lat="42.7902090" lon="-0.2529340">
        <ele>2447.2</ele>
        <time>2020-09-11T08:44:53Z</time>
      </trkpt>
      <trkpt lat="42.7901980" lon="-0.2529380">
        <ele>2448.4</ele>
        <time>2020-09-11T08:44:57Z</time>
      </trkpt>
      <trkpt lat="42.7902280" lon="-0.2529120">
        <ele>2449.4</ele>
        <time>2020-09-11T08:45:06Z</time>
      </trkpt>
      <trkpt lat="42.7902080" lon="-0.2529410">
        <ele>2450.4</ele>
        <time>2020-09-11T08:45:10Z</time>
      </trkpt>
      <trkpt lat="42.7901720" lon="-0.2529670">
        <ele>2451.6</ele>
        <time>2020-09-11T08:45:14Z</time>
      </trkpt>
      <trkpt lat="42.7901700" lon="-0.2529710">
        <ele>2451.6</ele>
        <time>2020-09-11T08:45:15Z</time>
      </trkpt>
      <trkpt lat="42.7901100" lon="-0.2530020">
        <ele>2452.6</ele>
        <time>2020-09-11T08:45:20Z</time>
      </trkpt>
      <trkpt lat="42.7900920" lon="-0.2530250">
        <ele>2453.4</ele>
        <time>2020-09-11T08:45:23Z</time>
      </trkpt>
      <trkpt lat="42.7900820" lon="-0.2530410">
        <ele>2453.8</ele>
        <time>2020-09-11T08:45:25Z</time>
      </trkpt>
      <trkpt lat="42.7900590" lon="-0.2530720">
        <ele>2455.0</ele>
        <time>2020-09-11T08:45:30Z</time>
      </trkpt>
      <trkpt lat="42.7900400" lon="-0.2531020">
        <ele>2456.0</ele>
        <time>2020-09-11T08:45:35Z</time>
      </trkpt>
      <trkpt lat="42.7900170" lon="-0.2531640">
        <ele>2457.4</ele>
        <time>2020-09-11T08:45:41Z</time>
      </trkpt>
      <trkpt lat="42.7900030" lon="-0.2532120">
        <ele>2458.6</ele>
        <time>2020-09-11T08:45:45Z</time>
      </trkpt>
      <trkpt lat="42.7899790" lon="-0.2532690">
        <ele>2459.6</ele>
        <time>2020-09-11T08:45:50Z</time>
      </trkpt>
      <trkpt lat="42.7899590" lon="-0.2533050">
        <ele>2460.6</ele>
        <time>2020-09-11T08:45:54Z</time>
      </trkpt>
      <trkpt lat="42.7899590" lon="-0.2533150">
        <ele>2460.8</ele>
        <time>2020-09-11T08:45:55Z</time>
      </trkpt>
      <trkpt lat="42.7899560" lon="-0.2533340">
        <ele>2461.0</ele>
        <time>2020-09-11T08:45:57Z</time>
      </trkpt>
      <trkpt lat="42.7899570" lon="-0.2533430">
        <ele>2461.2</ele>
        <time>2020-09-11T08:45:58Z</time>
      </trkpt>
      <trkpt lat="42.7899540" lon="-0.2533500">
        <ele>2461.4</ele>
        <time>2020-09-11T08:45:59Z</time>
      </trkpt>
      <trkpt lat="42.7899580" lon="-0.2533630">
        <ele>2462.0</ele>
        <time>2020-09-11T08:46:01Z</time>
      </trkpt>
      <trkpt lat="42.7899260" lon="-0.2533880">
        <ele>2463.0</ele>
        <time>2020-09-11T08:46:09Z</time>
      </trkpt>
      <trkpt lat="42.7898600" lon="-0.2535240">
        <ele>2464.2</ele>
        <time>2020-09-11T08:46:27Z</time>
      </trkpt>
      <trkpt lat="42.7898600" lon="-0.2535820">
        <ele>2465.0</ele>
        <time>2020-09-11T08:46:31Z</time>
      </trkpt>
      <trkpt lat="42.7898510" lon="-0.2535900">
        <ele>2465.4</ele>
        <time>2020-09-11T08:46:32Z</time>
      </trkpt>
      <trkpt lat="42.7898310" lon="-0.2536730">
        <ele>2465.6</ele>
        <time>2020-09-11T08:46:40Z</time>
      </trkpt>
      <trkpt lat="42.7898030" lon="-0.2537100">
        <ele>2466.4</ele>
        <time>2020-09-11T08:46:45Z</time>
      </trkpt>
      <trkpt lat="42.7897780" lon="-0.2537460">
        <ele>2467.4</ele>
        <time>2020-09-11T08:46:50Z</time>
      </trkpt>
      <trkpt lat="42.7897530" lon="-0.2537810">
        <ele>2468.6</ele>
        <time>2020-09-11T08:46:55Z</time>
      </trkpt>
      <trkpt lat="42.7897400" lon="-0.2538160">
        <ele>2469.6</ele>
        <time>2020-09-11T08:47:00Z</time>
      </trkpt>
      <trkpt lat="42.7897230" lon="-0.2538690">
        <ele>2470.8</ele>
        <time>2020-09-11T08:47:05Z</time>
      </trkpt>
      <trkpt lat="42.7897100" lon="-0.2539090">
        <ele>2471.0</ele>
        <time>2020-09-11T08:47:08Z</time>
      </trkpt>
      <trkpt lat="42.7896650" lon="-0.2539940">
        <ele>2471.8</ele>
        <time>2020-09-11T08:47:15Z</time>
      </trkpt>
      <trkpt lat="42.7896610" lon="-0.2540000">
        <ele>2471.8</ele>
        <time>2020-09-11T08:47:16Z</time>
      </trkpt>
      <trkpt lat="42.7896400" lon="-0.2540460">
        <ele>2472.6</ele>
        <time>2020-09-11T08:47:20Z</time>
      </trkpt>
      <trkpt lat="42.7896290" lon="-0.2540750">
        <ele>2472.8</ele>
        <time>2020-09-11T08:47:23Z</time>
      </trkpt>
      <trkpt lat="42.7895860" lon="-0.2541860">
        <ele>2473.8</ele>
        <time>2020-09-11T08:47:31Z</time>
      </trkpt>
      <trkpt lat="42.7895800" lon="-0.2542190">
        <ele>2474.0</ele>
        <time>2020-09-11T08:47:34Z</time>
      </trkpt>
      <trkpt lat="42.7895650" lon="-0.2542490">
        <ele>2474.6</ele>
        <time>2020-09-11T08:47:38Z</time>
      </trkpt>
      <trkpt lat="42.7895660" lon="-0.2542710">
        <ele>2475.0</ele>
        <time>2020-09-11T08:47:40Z</time>
      </trkpt>
      <trkpt lat="42.7895590" lon="-0.2543520">
        <ele>2476.0</ele>
        <time>2020-09-11T08:47:47Z</time>
      </trkpt>
      <trkpt lat="42.7895630" lon="-0.2543630">
        <ele>2476.2</ele>
        <time>2020-09-11T08:47:48Z</time>
      </trkpt>
      <trkpt lat="42.7895740" lon="-0.2544000">
        <ele>2476.4</ele>
        <time>2020-09-11T08:47:52Z</time>
      </trkpt>
      <trkpt lat="42.7895540" lon="-0.2544630">
        <ele>2477.2</ele>
        <time>2020-09-11T08:47:57Z</time>
      </trkpt>
      <trkpt lat="42.7895410" lon="-0.2545220">
        <ele>2478.2</ele>
        <time>2020-09-11T08:48:02Z</time>
      </trkpt>
      <trkpt lat="42.7895360" lon="-0.2545450">
        <ele>2478.6</ele>
        <time>2020-09-11T08:48:04Z</time>
      </trkpt>
      <trkpt lat="42.7895330" lon="-0.2545820">
        <ele>2479.2</ele>
        <time>2020-09-11T08:48:07Z</time>
      </trkpt>
      <trkpt lat="42.7895300" lon="-0.2547480">
        <ele>2480.4</ele>
        <time>2020-09-11T08:48:18Z</time>
      </trkpt>
      <trkpt lat="42.7895310" lon="-0.2548600">
        <ele>2481.4</ele>
        <time>2020-09-11T08:48:26Z</time>
      </trkpt>
      <trkpt lat="42.7895300" lon="-0.2548970">
        <ele>2482.2</ele>
        <time>2020-09-11T08:48:31Z</time>
      </trkpt>
      <trkpt lat="42.7895240" lon="-0.2549630">
        <ele>2482.4</ele>
        <time>2020-09-11T08:48:36Z</time>
      </trkpt>
      <trkpt lat="42.7895230" lon="-0.2549820">
        <ele>2482.4</ele>
        <time>2020-09-11T08:48:38Z</time>
      </trkpt>
      <trkpt lat="42.7895180" lon="-0.2549930">
        <ele>2482.6</ele>
        <time>2020-09-11T08:48:39Z</time>
      </trkpt>
      <trkpt lat="42.7895470" lon="-0.2550050">
        <ele>2483.2</ele>
        <time>2020-09-11T08:48:43Z</time>
      </trkpt>
      <trkpt lat="42.7895560" lon="-0.2550220">
        <ele>2483.6</ele>
        <time>2020-09-11T08:48:45Z</time>
      </trkpt>
      <trkpt lat="42.7895740" lon="-0.2550740">
        <ele>2484.6</ele>
        <time>2020-09-11T08:49:05Z</time>
      </trkpt>
      <trkpt lat="42.7895750" lon="-0.2550860">
        <ele>2484.8</ele>
        <time>2020-09-11T08:49:06Z</time>
      </trkpt>
      <trkpt lat="42.7895840" lon="-0.2551230">
        <ele>2485.2</ele>
        <time>2020-09-11T08:49:09Z</time>
      </trkpt>
      <trkpt lat="42.7896150" lon="-0.2551400">
        <ele>2485.8</ele>
        <time>2020-09-11T08:49:12Z</time>
      </trkpt>
      <trkpt lat="42.7896110" lon="-0.2551960">
        <ele>2487.0</ele>
        <time>2020-09-11T08:49:20Z</time>
      </trkpt>
      <trkpt lat="42.7896270" lon="-0.2552100">
        <ele>2487.6</ele>
        <time>2020-09-11T08:49:22Z</time>
      </trkpt>
      <trkpt lat="42.7896330" lon="-0.2552360">
        <ele>2488.0</ele>
        <time>2020-09-11T08:49:25Z</time>
      </trkpt>
      <trkpt lat="42.7896070" lon="-0.2553070">
        <ele>2489.2</ele>
        <time>2020-09-11T08:49:31Z</time>
      </trkpt>
      <trkpt lat="42.7896040" lon="-0.2553200">
        <ele>2489.2</ele>
        <time>2020-09-11T08:49:32Z</time>
      </trkpt>
      <trkpt lat="42.7896290" lon="-0.2553640">
        <ele>2490.0</ele>
        <time>2020-09-11T08:49:37Z</time>
      </trkpt>
      <trkpt lat="42.7896310" lon="-0.2553750">
        <ele>2490.2</ele>
        <time>2020-09-11T08:49:38Z</time>
      </trkpt>
      <trkpt lat="42.7896180" lon="-0.2554280">
        <ele>2491.2</ele>
        <time>2020-09-11T08:49:43Z</time>
      </trkpt>
      <trkpt lat="42.7896220" lon="-0.2554980">
        <ele>2492.2</ele>
        <time>2020-09-11T08:49:50Z</time>
      </trkpt>
      <trkpt lat="42.7896700" lon="-0.2555190">
        <ele>2493.2</ele>
        <time>2020-09-11T08:49:57Z</time>
      </trkpt>
      <trkpt lat="42.7896790" lon="-0.2555170">
        <ele>2493.4</ele>
        <time>2020-09-11T08:49:58Z</time>
      </trkpt>
      <trkpt lat="42.7897020" lon="-0.2555250">
        <ele>2494.0</ele>
        <time>2020-09-11T08:50:01Z</time>
      </trkpt>
      <trkpt lat="42.7897050" lon="-0.2555310">
        <ele>2494.2</ele>
        <time>2020-09-11T08:50:02Z</time>
      </trkpt>
      <trkpt lat="42.7897090" lon="-0.2555760">
        <ele>2495.2</ele>
        <time>2020-09-11T08:50:07Z</time>
      </trkpt>
      <trkpt lat="42.7897220" lon="-0.2556320">
        <ele>2496.4</ele>
        <time>2020-09-11T08:50:14Z</time>
      </trkpt>
      <trkpt lat="42.7897090" lon="-0.2556540">
        <ele>2497.6</ele>
        <time>2020-09-11T08:50:19Z</time>
      </trkpt>
      <trkpt lat="42.7897040" lon="-0.2556890">
        <ele>2498.2</ele>
        <time>2020-09-11T08:50:22Z</time>
      </trkpt>
      <trkpt lat="42.7896870" lon="-0.2557170">
        <ele>2498.6</ele>
        <time>2020-09-11T08:50:26Z</time>
      </trkpt>
      <trkpt lat="42.7896690" lon="-0.2557700">
        <ele>2499.6</ele>
        <time>2020-09-11T08:50:32Z</time>
      </trkpt>
      <trkpt lat="42.7896880" lon="-0.2558170">
        <ele>2500.6</ele>
        <time>2020-09-11T08:50:38Z</time>
      </trkpt>
      <trkpt lat="42.7896900" lon="-0.2558700">
        <ele>2501.8</ele>
        <time>2020-09-11T08:50:43Z</time>
      </trkpt>
      <trkpt lat="42.7896730" lon="-0.2559390">
        <ele>2502.8</ele>
        <time>2020-09-11T08:50:50Z</time>
      </trkpt>
      <trkpt lat="42.7896780" lon="-0.2560460">
        <ele>2504.0</ele>
        <time>2020-09-11T08:50:59Z</time>
      </trkpt>
      <trkpt lat="42.7896780" lon="-0.2561300">
        <ele>2505.0</ele>
        <time>2020-09-11T08:51:07Z</time>
      </trkpt>
      <trkpt lat="42.7896580" lon="-0.2561910">
        <ele>2506.0</ele>
        <time>2020-09-11T08:51:13Z</time>
      </trkpt>
      <trkpt lat="42.7896620" lon="-0.2562380">
        <ele>2507.2</ele>
        <time>2020-09-11T08:51:19Z</time>
      </trkpt>
      <trkpt lat="42.7896620" lon="-0.2562960">
        <ele>2508.0</ele>
        <time>2020-09-11T08:51:25Z</time>
      </trkpt>
      <trkpt lat="42.7896590" lon="-0.2564000">
        <ele>2508.2</ele>
        <time>2020-09-11T08:51:33Z</time>
      </trkpt>
      <trkpt lat="42.7896580" lon="-0.2564420">
        <ele>2508.6</ele>
        <time>2020-09-11T08:51:36Z</time>
      </trkpt>
      <trkpt lat="42.7896780" lon="-0.2564700">
        <ele>2509.0</ele>
        <time>2020-09-11T08:51:38Z</time>
      </trkpt>
      <trkpt lat="42.7896800" lon="-0.2564850">
        <ele>2509.2</ele>
        <time>2020-09-11T08:51:39Z</time>
      </trkpt>
      <trkpt lat="42.7896740" lon="-0.2564990">
        <ele>2509.4</ele>
        <time>2020-09-11T08:51:40Z</time>
      </trkpt>
      <trkpt lat="42.7896900" lon="-0.2565640">
        <ele>2510.4</ele>
        <time>2020-09-11T08:51:45Z</time>
      </trkpt>
      <trkpt lat="42.7896940" lon="-0.2565830">
        <ele>2510.6</ele>
        <time>2020-09-11T08:51:47Z</time>
      </trkpt>
      <trkpt lat="42.7897040" lon="-0.2566020">
        <ele>2510.8</ele>
        <time>2020-09-11T08:51:49Z</time>
      </trkpt>
      <trkpt lat="42.7897090" lon="-0.2566150">
        <ele>2511.2</ele>
        <time>2020-09-11T08:51:51Z</time>
      </trkpt>
      <trkpt lat="42.7897120" lon="-0.2566230">
        <ele>2511.4</ele>
        <time>2020-09-11T08:51:52Z</time>
      </trkpt>
      <trkpt lat="42.7898570" lon="-0.2565380">
        <ele>2511.4</ele>
        <time>2020-09-11T08:52:29Z</time>
      </trkpt>
      <trkpt lat="42.7896440" lon="-0.2565790">
        <ele>2511.8</ele>
        <time>2020-09-11T08:53:03Z</time>
      </trkpt>
      <trkpt lat="42.7896640" lon="-0.2566410">
        <ele>2512.0</ele>
        <time>2020-09-11T08:53:07Z</time>
      </trkpt>
      <trkpt lat="42.7896780" lon="-0.2566870">
        <ele>2512.2</ele>
        <time>2020-09-11T08:53:10Z</time>
      </trkpt>
      <trkpt lat="42.7896860" lon="-0.2566970">
        <ele>2512.6</ele>
        <time>2020-09-11T08:53:11Z</time>
      </trkpt>
      <trkpt lat="42.7896860" lon="-0.2567080">
        <ele>2512.6</ele>
        <time>2020-09-11T08:53:12Z</time>
      </trkpt>
      <trkpt lat="42.7896840" lon="-0.2567300">
        <ele>2513.0</ele>
        <time>2020-09-11T08:53:14Z</time>
      </trkpt>
      <trkpt lat="42.7897070" lon="-0.2567590">
        <ele>2513.4</ele>
        <time>2020-09-11T08:53:16Z</time>
      </trkpt>
      <trkpt lat="42.7897150" lon="-0.2567820">
        <ele>2513.6</ele>
        <time>2020-09-11T08:53:18Z</time>
      </trkpt>
      <trkpt lat="42.7897010" lon="-0.2568180">
        <ele>2514.2</ele>
        <time>2020-09-11T08:53:21Z</time>
      </trkpt>
      <trkpt lat="42.7897130" lon="-0.2568340">
        <ele>2514.8</ele>
        <time>2020-09-11T08:53:23Z</time>
      </trkpt>
      <trkpt lat="42.7897060" lon="-0.2568820">
        <ele>2515.6</ele>
        <time>2020-09-11T08:53:27Z</time>
      </trkpt>
      <trkpt lat="42.7897070" lon="-0.2568920">
        <ele>2515.8</ele>
        <time>2020-09-11T08:53:28Z</time>
      </trkpt>
      <trkpt lat="42.7897070" lon="-0.2569280">
        <ele>2516.8</ele>
        <time>2020-09-11T08:53:32Z</time>
      </trkpt>
      <trkpt lat="42.7897360" lon="-0.2569810">
        <ele>2517.8</ele>
        <time>2020-09-11T08:53:37Z</time>
      </trkpt>
      <trkpt lat="42.7897410" lon="-0.2569950">
        <ele>2517.8</ele>
        <time>2020-09-11T08:53:38Z</time>
      </trkpt>
      <trkpt lat="42.7897390" lon="-0.2570560">
        <ele>2518.2</ele>
        <time>2020-09-11T08:53:42Z</time>
      </trkpt>
      <trkpt lat="42.7897650" lon="-0.2570800">
        <ele>2518.8</ele>
        <time>2020-09-11T08:53:46Z</time>
      </trkpt>
      <trkpt lat="42.7897690" lon="-0.2570840">
        <ele>2519.0</ele>
        <time>2020-09-11T08:53:47Z</time>
      </trkpt>
      <trkpt lat="42.7897820" lon="-0.2571060">
        <ele>2519.8</ele>
        <time>2020-09-11T08:53:50Z</time>
      </trkpt>
      <trkpt lat="42.7897850" lon="-0.2571320">
        <ele>2520.2</ele>
        <time>2020-09-11T08:53:52Z</time>
      </trkpt>
      <trkpt lat="42.7897870" lon="-0.2571440">
        <ele>2520.2</ele>
        <time>2020-09-11T08:53:53Z</time>
      </trkpt>
      <trkpt lat="42.7897920" lon="-0.2572210">
        <ele>2520.8</ele>
        <time>2020-09-11T08:53:58Z</time>
      </trkpt>
      <trkpt lat="42.7897930" lon="-0.2572370">
        <ele>2521.2</ele>
        <time>2020-09-11T08:54:00Z</time>
      </trkpt>
      <trkpt lat="42.7897940" lon="-0.2572510">
        <ele>2521.6</ele>
        <time>2020-09-11T08:54:02Z</time>
      </trkpt>
      <trkpt lat="42.7897800" lon="-0.2572770">
        <ele>2522.0</ele>
        <time>2020-09-11T08:54:05Z</time>
      </trkpt>
      <trkpt lat="42.7897740" lon="-0.2572880">
        <ele>2522.4</ele>
        <time>2020-09-11T08:54:06Z</time>
      </trkpt>
      <trkpt lat="42.7897700" lon="-0.2573030">
        <ele>2522.6</ele>
        <time>2020-09-11T08:54:07Z</time>
      </trkpt>
      <trkpt lat="42.7897470" lon="-0.2573590">
        <ele>2523.4</ele>
        <time>2020-09-11T08:54:11Z</time>
      </trkpt>
      <trkpt lat="42.7897260" lon="-0.2574790">
        <ele>2524.4</ele>
        <time>2020-09-11T08:54:20Z</time>
      </trkpt>
      <trkpt lat="42.7897370" lon="-0.2575310">
        <ele>2525.2</ele>
        <time>2020-09-11T08:54:25Z</time>
      </trkpt>
      <trkpt lat="42.7897340" lon="-0.2575530">
        <ele>2525.6</ele>
        <time>2020-09-11T08:54:27Z</time>
      </trkpt>
      <trkpt lat="42.7897280" lon="-0.2575800">
        <ele>2525.8</ele>
        <time>2020-09-11T08:54:29Z</time>
      </trkpt>
      <trkpt lat="42.7896600" lon="-0.2577800">
        <ele>2526.8</ele>
        <time>2020-09-11T08:54:46Z</time>
      </trkpt>
      <trkpt lat="42.7896580" lon="-0.2577910">
        <ele>2526.8</ele>
        <time>2020-09-11T08:54:47Z</time>
      </trkpt>
      <trkpt lat="42.7896150" lon="-0.2578440">
        <ele>2527.6</ele>
        <time>2020-09-11T08:54:54Z</time>
      </trkpt>
      <trkpt lat="42.7896030" lon="-0.2578540">
        <ele>2527.8</ele>
        <time>2020-09-11T08:54:56Z</time>
      </trkpt>
      <trkpt lat="42.7895940" lon="-0.2578700">
        <ele>2528.2</ele>
        <time>2020-09-11T08:54:58Z</time>
      </trkpt>
      <trkpt lat="42.7895920" lon="-0.2579130">
        <ele>2528.6</ele>
        <time>2020-09-11T08:55:02Z</time>
      </trkpt>
      <trkpt lat="42.7895970" lon="-0.2579230">
        <ele>2528.8</ele>
        <time>2020-09-11T08:55:03Z</time>
      </trkpt>
      <trkpt lat="42.7896000" lon="-0.2579400">
        <ele>2529.8</ele>
        <time>2020-09-11T08:55:07Z</time>
      </trkpt>
      <trkpt lat="42.7895930" lon="-0.2580010">
        <ele>2531.0</ele>
        <time>2020-09-11T08:55:16Z</time>
      </trkpt>
      <trkpt lat="42.7896130" lon="-0.2580410">
        <ele>2532.2</ele>
        <time>2020-09-11T08:55:22Z</time>
      </trkpt>
      <trkpt lat="42.7896270" lon="-0.2580560">
        <ele>2533.2</ele>
        <time>2020-09-11T08:55:27Z</time>
      </trkpt>
      <trkpt lat="42.7895940" lon="-0.2580700">
        <ele>2534.0</ele>
        <time>2020-09-11T08:55:30Z</time>
      </trkpt>
      <trkpt lat="42.7895820" lon="-0.2580730">
        <ele>2534.2</ele>
        <time>2020-09-11T08:55:31Z</time>
      </trkpt>
      <trkpt lat="42.7895780" lon="-0.2580730">
        <ele>2534.4</ele>
        <time>2020-09-11T08:55:32Z</time>
      </trkpt>
      <trkpt lat="42.7895840" lon="-0.2580860">
        <ele>2534.6</ele>
        <time>2020-09-11T08:55:34Z</time>
      </trkpt>
      <trkpt lat="42.7896000" lon="-0.2581250">
        <ele>2535.4</ele>
        <time>2020-09-11T08:55:38Z</time>
      </trkpt>
      <trkpt lat="42.7896070" lon="-0.2581380">
        <ele>2535.6</ele>
        <time>2020-09-11T08:55:39Z</time>
      </trkpt>
      <trkpt lat="42.7896090" lon="-0.2581710">
        <ele>2536.0</ele>
        <time>2020-09-11T08:55:41Z</time>
      </trkpt>
      <trkpt lat="42.7896150" lon="-0.2581950">
        <ele>2536.6</ele>
        <time>2020-09-11T08:55:43Z</time>
      </trkpt>
      <trkpt lat="42.7896100" lon="-0.2582420">
        <ele>2537.4</ele>
        <time>2020-09-11T08:55:47Z</time>
      </trkpt>
      <trkpt lat="42.7896020" lon="-0.2582660">
        <ele>2537.8</ele>
        <time>2020-09-11T08:55:49Z</time>
      </trkpt>
      <trkpt lat="42.7896080" lon="-0.2582770">
        <ele>2538.0</ele>
        <time>2020-09-11T08:55:50Z</time>
      </trkpt>
      <trkpt lat="42.7896110" lon="-0.2583010">
        <ele>2538.4</ele>
        <time>2020-09-11T08:55:52Z</time>
      </trkpt>
      <trkpt lat="42.7896060" lon="-0.2583200">
        <ele>2538.6</ele>
        <time>2020-09-11T08:55:54Z</time>
      </trkpt>
      <trkpt lat="42.7895900" lon="-0.2583430">
        <ele>2538.8</ele>
        <time>2020-09-11T08:55:56Z</time>
      </trkpt>
      <trkpt lat="42.7895740" lon="-0.2583720">
        <ele>2539.4</ele>
        <time>2020-09-11T08:55:59Z</time>
      </trkpt>
      <trkpt lat="42.7895620" lon="-0.2583850">
        <ele>2539.8</ele>
        <time>2020-09-11T08:56:01Z</time>
      </trkpt>
      <trkpt lat="42.7895580" lon="-0.2584240">
        <ele>2541.0</ele>
        <time>2020-09-11T08:56:05Z</time>
      </trkpt>
      <trkpt lat="42.7895590" lon="-0.2584360">
        <ele>2541.4</ele>
        <time>2020-09-11T08:56:06Z</time>
      </trkpt>
      <trkpt lat="42.7895670" lon="-0.2584590">
        <ele>2541.6</ele>
        <time>2020-09-11T08:56:08Z</time>
      </trkpt>
      <trkpt lat="42.7895710" lon="-0.2584840">
        <ele>2541.8</ele>
        <time>2020-09-11T08:56:10Z</time>
      </trkpt>
      <trkpt lat="42.7895670" lon="-0.2585090">
        <ele>2541.8</ele>
        <time>2020-09-11T08:56:12Z</time>
      </trkpt>
      <trkpt lat="42.7895350" lon="-0.2585820">
        <ele>2542.0</ele>
        <time>2020-09-11T08:56:17Z</time>
      </trkpt>
      <trkpt lat="42.7894240" lon="-0.2587410">
        <ele>2541.6</ele>
        <time>2020-09-11T08:56:30Z</time>
      </trkpt>
      <trkpt lat="42.7894230" lon="-0.2588010">
        <ele>2541.2</ele>
        <time>2020-09-11T08:56:34Z</time>
      </trkpt>
      <trkpt lat="42.7894090" lon="-0.2588420">
        <ele>2540.8</ele>
        <time>2020-09-11T08:56:36Z</time>
      </trkpt>
      <trkpt lat="42.7893840" lon="-0.2588900">
        <ele>2540.2</ele>
        <time>2020-09-11T08:56:40Z</time>
      </trkpt>
      <trkpt lat="42.7893670" lon="-0.2589150">
        <ele>2540.0</ele>
        <time>2020-09-11T08:56:42Z</time>
      </trkpt>
      <trkpt lat="42.7892970" lon="-0.2589550">
        <ele>2540.0</ele>
        <time>2020-09-11T08:56:48Z</time>
      </trkpt>
      <trkpt lat="42.7892920" lon="-0.2589610">
        <ele>2540.2</ele>
        <time>2020-09-11T08:56:50Z</time>
      </trkpt>
      <trkpt lat="42.7892850" lon="-0.2589750">
        <ele>2540.6</ele>
        <time>2020-09-11T08:56:52Z</time>
      </trkpt>
      <trkpt lat="42.7892600" lon="-0.2590350">
        <ele>2541.0</ele>
        <time>2020-09-11T08:56:59Z</time>
      </trkpt>
      <trkpt lat="42.7892920" lon="-0.2590940">
        <ele>2541.4</ele>
        <time>2020-09-11T08:57:05Z</time>
      </trkpt>
      <trkpt lat="42.7893120" lon="-0.2591460">
        <ele>2542.0</ele>
        <time>2020-09-11T08:57:09Z</time>
      </trkpt>
      <trkpt lat="42.7893130" lon="-0.2591590">
        <ele>2542.4</ele>
        <time>2020-09-11T08:57:10Z</time>
      </trkpt>
      <trkpt lat="42.7892860" lon="-0.2592240">
        <ele>2543.4</ele>
        <time>2020-09-11T08:57:15Z</time>
      </trkpt>
      <trkpt lat="42.7892840" lon="-0.2592320">
        <ele>2543.6</ele>
        <time>2020-09-11T08:57:16Z</time>
      </trkpt>
      <trkpt lat="42.7893070" lon="-0.2592510">
        <ele>2544.0</ele>
        <time>2020-09-11T08:57:18Z</time>
      </trkpt>
      <trkpt lat="42.7893210" lon="-0.2592530">
        <ele>2544.4</ele>
        <time>2020-09-11T08:57:20Z</time>
      </trkpt>
      <trkpt lat="42.7893350" lon="-0.2592580">
        <ele>2544.4</ele>
        <time>2020-09-11T08:57:21Z</time>
      </trkpt>
      <trkpt lat="42.7893470" lon="-0.2592640">
        <ele>2544.4</ele>
        <time>2020-09-11T08:57:22Z</time>
      </trkpt>
      <trkpt lat="42.7893720" lon="-0.2593000">
        <ele>2544.2</ele>
        <time>2020-09-11T08:57:25Z</time>
      </trkpt>
      <trkpt lat="42.7893820" lon="-0.2593330">
        <ele>2543.6</ele>
        <time>2020-09-11T08:57:29Z</time>
      </trkpt>
      <trkpt lat="42.7893680" lon="-0.2593340">
        <ele>2543.4</ele>
        <time>2020-09-11T08:57:31Z</time>
      </trkpt>
      <trkpt lat="42.7893640" lon="-0.2593350">
        <ele>2543.4</ele>
        <time>2020-09-11T08:57:32Z</time>
      </trkpt>
      <trkpt lat="42.7893520" lon="-0.2594000">
        <ele>2542.8</ele>
        <time>2020-09-11T08:57:39Z</time>
      </trkpt>
      <trkpt lat="42.7893530" lon="-0.2594320">
        <ele>2543.0</ele>
        <time>2020-09-11T08:57:42Z</time>
      </trkpt>
      <trkpt lat="42.7893470" lon="-0.2594930">
        <ele>2543.8</ele>
        <time>2020-09-11T08:57:48Z</time>
      </trkpt>
      <trkpt lat="42.7893190" lon="-0.2595140">
        <ele>2544.6</ele>
        <time>2020-09-11T08:57:51Z</time>
      </trkpt>
      <trkpt lat="42.7893110" lon="-0.2595280">
        <ele>2545.2</ele>
        <time>2020-09-11T08:57:53Z</time>
      </trkpt>
      <trkpt lat="42.7893140" lon="-0.2595570">
        <ele>2545.8</ele>
        <time>2020-09-11T08:57:56Z</time>
      </trkpt>
      <trkpt lat="42.7893030" lon="-0.2596110">
        <ele>2546.8</ele>
        <time>2020-09-11T08:58:01Z</time>
      </trkpt>
      <trkpt lat="42.7892920" lon="-0.2596560">
        <ele>2547.8</ele>
        <time>2020-09-11T08:58:05Z</time>
      </trkpt>
      <trkpt lat="42.7892970" lon="-0.2596640">
        <ele>2548.2</ele>
        <time>2020-09-11T08:58:06Z</time>
      </trkpt>
      <trkpt lat="42.7893070" lon="-0.2596900">
        <ele>2549.0</ele>
        <time>2020-09-11T08:58:09Z</time>
      </trkpt>
      <trkpt lat="42.7893180" lon="-0.2597230">
        <ele>2550.0</ele>
        <time>2020-09-11T08:58:12Z</time>
      </trkpt>
      <trkpt lat="42.7893160" lon="-0.2597350">
        <ele>2550.0</ele>
        <time>2020-09-11T08:58:13Z</time>
      </trkpt>
      <trkpt lat="42.7892920" lon="-0.2597740">
        <ele>2550.4</ele>
        <time>2020-09-11T08:58:17Z</time>
      </trkpt>
      <trkpt lat="42.7892780" lon="-0.2598490">
        <ele>2551.4</ele>
        <time>2020-09-11T08:58:27Z</time>
      </trkpt>
      <trkpt lat="42.7892640" lon="-0.2599020">
        <ele>2552.4</ele>
        <time>2020-09-11T08:58:32Z</time>
      </trkpt>
      <trkpt lat="42.7892610" lon="-0.2599580">
        <ele>2553.4</ele>
        <time>2020-09-11T08:58:37Z</time>
      </trkpt>
      <trkpt lat="42.7892510" lon="-0.2599690">
        <ele>2553.6</ele>
        <time>2020-09-11T08:58:38Z</time>
      </trkpt>
      <trkpt lat="42.7892410" lon="-0.2599910">
        <ele>2554.2</ele>
        <time>2020-09-11T08:58:41Z</time>
      </trkpt>
      <trkpt lat="42.7892380" lon="-0.2599950">
        <ele>2554.4</ele>
        <time>2020-09-11T08:58:42Z</time>
      </trkpt>
      <trkpt lat="42.7892210" lon="-0.2600400">
        <ele>2555.6</ele>
        <time>2020-09-11T08:58:48Z</time>
      </trkpt>
      <trkpt lat="42.7892340" lon="-0.2600720">
        <ele>2556.6</ele>
        <time>2020-09-11T08:58:53Z</time>
      </trkpt>
      <trkpt lat="42.7892000" lon="-0.2600980">
        <ele>2557.6</ele>
        <time>2020-09-11T08:59:00Z</time>
      </trkpt>
      <trkpt lat="42.7891970" lon="-0.2601310">
        <ele>2558.8</ele>
        <time>2020-09-11T08:59:05Z</time>
      </trkpt>
      <trkpt lat="42.7892140" lon="-0.2601560">
        <ele>2559.8</ele>
        <time>2020-09-11T08:59:11Z</time>
      </trkpt>
      <trkpt lat="42.7891980" lon="-0.2601820">
        <ele>2560.8</ele>
        <time>2020-09-11T08:59:15Z</time>
      </trkpt>
      <trkpt lat="42.7891720" lon="-0.2602170">
        <ele>2562.0</ele>
        <time>2020-09-11T08:59:20Z</time>
      </trkpt>
      <trkpt lat="42.7891890" lon="-0.2602470">
        <ele>2563.0</ele>
        <time>2020-09-11T08:59:25Z</time>
      </trkpt>
      <trkpt lat="42.7891580" lon="-0.2602800">
        <ele>2564.0</ele>
        <time>2020-09-11T08:59:30Z</time>
      </trkpt>
      <trkpt lat="42.7891300" lon="-0.2603020">
        <ele>2565.2</ele>
        <time>2020-09-11T08:59:35Z</time>
      </trkpt>
      <trkpt lat="42.7891290" lon="-0.2603340">
        <ele>2566.4</ele>
        <time>2020-09-11T08:59:43Z</time>
      </trkpt>
      <trkpt lat="42.7891460" lon="-0.2603630">
        <ele>2567.4</ele>
        <time>2020-09-11T08:59:48Z</time>
      </trkpt>
      <trkpt lat="42.7891490" lon="-0.2603890">
        <ele>2568.4</ele>
        <time>2020-09-11T08:59:53Z</time>
      </trkpt>
      <trkpt lat="42.7891200" lon="-0.2604420">
        <ele>2569.6</ele>
        <time>2020-09-11T09:00:00Z</time>
      </trkpt>
      <trkpt lat="42.7891730" lon="-0.2604660">
        <ele>2570.6</ele>
        <time>2020-09-11T09:00:06Z</time>
      </trkpt>
      <trkpt lat="42.7891600" lon="-0.2604910">
        <ele>2571.8</ele>
        <time>2020-09-11T09:00:12Z</time>
      </trkpt>
      <trkpt lat="42.7891510" lon="-0.2605280">
        <ele>2572.8</ele>
        <time>2020-09-11T09:00:18Z</time>
      </trkpt>
      <trkpt lat="42.7891710" lon="-0.2605500">
        <ele>2574.0</ele>
        <time>2020-09-11T09:00:25Z</time>
      </trkpt>
      <trkpt lat="42.7891690" lon="-0.2605540">
        <ele>2574.2</ele>
        <time>2020-09-11T09:00:26Z</time>
      </trkpt>
      <trkpt lat="42.7891690" lon="-0.2605820">
        <ele>2575.2</ele>
        <time>2020-09-11T09:00:30Z</time>
      </trkpt>
      <trkpt lat="42.7891920" lon="-0.2606250">
        <ele>2576.4</ele>
        <time>2020-09-11T09:00:37Z</time>
      </trkpt>
      <trkpt lat="42.7892180" lon="-0.2606460">
        <ele>2577.4</ele>
        <time>2020-09-11T09:00:44Z</time>
      </trkpt>
      <trkpt lat="42.7891860" lon="-0.2606930">
        <ele>2578.6</ele>
        <time>2020-09-11T09:00:52Z</time>
      </trkpt>
      <trkpt lat="42.7892310" lon="-0.2606920">
        <ele>2579.8</ele>
        <time>2020-09-11T09:00:57Z</time>
      </trkpt>
      <trkpt lat="42.7892650" lon="-0.2607040">
        <ele>2581.0</ele>
        <time>2020-09-11T09:01:03Z</time>
      </trkpt>
      <trkpt lat="42.7892480" lon="-0.2607490">
        <ele>2582.0</ele>
        <time>2020-09-11T09:01:10Z</time>
      </trkpt>
      <trkpt lat="42.7892730" lon="-0.2607460">
        <ele>2583.2</ele>
        <time>2020-09-11T09:01:13Z</time>
      </trkpt>
      <trkpt lat="42.7893000" lon="-0.2607430">
        <ele>2584.2</ele>
        <time>2020-09-11T09:01:19Z</time>
      </trkpt>
      <trkpt lat="42.7893030" lon="-0.2607760">
        <ele>2585.2</ele>
        <time>2020-09-11T09:01:26Z</time>
      </trkpt>
      <trkpt lat="42.7893130" lon="-0.2607810">
        <ele>2586.2</ele>
        <time>2020-09-11T09:01:32Z</time>
      </trkpt>
      <trkpt lat="42.7893060" lon="-0.2608000">
        <ele>2587.4</ele>
        <time>2020-09-11T09:01:37Z</time>
      </trkpt>
      <trkpt lat="42.7893120" lon="-0.2608330">
        <ele>2588.6</ele>
        <time>2020-09-11T09:01:42Z</time>
      </trkpt>
      <trkpt lat="42.7893420" lon="-0.2608280">
        <ele>2589.6</ele>
        <time>2020-09-11T09:01:49Z</time>
      </trkpt>
      <trkpt lat="42.7893510" lon="-0.2608650">
        <ele>2590.8</ele>
        <time>2020-09-11T09:01:57Z</time>
      </trkpt>
      <trkpt lat="42.7893810" lon="-0.2608690">
        <ele>2592.0</ele>
        <time>2020-09-11T09:02:01Z</time>
      </trkpt>
      <trkpt lat="42.7893790" lon="-0.2608930">
        <ele>2593.2</ele>
        <time>2020-09-11T09:02:06Z</time>
      </trkpt>
      <trkpt lat="42.7894100" lon="-0.2609180">
        <ele>2594.4</ele>
        <time>2020-09-11T09:02:13Z</time>
      </trkpt>
      <trkpt lat="42.7894360" lon="-0.2609300">
        <ele>2595.4</ele>
        <time>2020-09-11T09:02:19Z</time>
      </trkpt>
      <trkpt lat="42.7894100" lon="-0.2609320">
        <ele>2596.6</ele>
        <time>2020-09-11T09:02:27Z</time>
      </trkpt>
      <trkpt lat="42.7893800" lon="-0.2609460">
        <ele>2597.6</ele>
        <time>2020-09-11T09:02:38Z</time>
      </trkpt>
      <trkpt lat="42.7893860" lon="-0.2609680">
        <ele>2598.6</ele>
        <time>2020-09-11T09:02:46Z</time>
      </trkpt>
      <trkpt lat="42.7893540" lon="-0.2610450">
        <ele>2599.6</ele>
        <time>2020-09-11T09:02:57Z</time>
      </trkpt>
      <trkpt lat="42.7892610" lon="-0.2611380">
        <ele>2600.8</ele>
        <time>2020-09-11T09:03:12Z</time>
      </trkpt>
      <trkpt lat="42.7892100" lon="-0.2612460">
        <ele>2602.0</ele>
        <time>2020-09-11T09:03:24Z</time>
      </trkpt>
      <trkpt lat="42.7891330" lon="-0.2612970">
        <ele>2603.0</ele>
        <time>2020-09-11T09:03:31Z</time>
      </trkpt>
      <trkpt lat="42.7891440" lon="-0.2613220">
        <ele>2604.2</ele>
        <time>2020-09-11T09:03:38Z</time>
      </trkpt>
      <trkpt lat="42.7890940" lon="-0.2613640">
        <ele>2605.2</ele>
        <time>2020-09-11T09:04:07Z</time>
      </trkpt>
      <trkpt lat="42.7890430" lon="-0.2614790">
        <ele>2606.2</ele>
        <time>2020-09-11T09:04:17Z</time>
      </trkpt>
      <trkpt lat="42.7890380" lon="-0.2615090">
        <ele>2607.2</ele>
        <time>2020-09-11T09:04:20Z</time>
      </trkpt>
      <trkpt lat="42.7889950" lon="-0.2615910">
        <ele>2608.2</ele>
        <time>2020-09-11T09:04:31Z</time>
      </trkpt>
      <trkpt lat="42.7889630" lon="-0.2616280">
        <ele>2609.2</ele>
        <time>2020-09-11T09:04:37Z</time>
      </trkpt>
      <trkpt lat="42.7889430" lon="-0.2617280">
        <ele>2610.2</ele>
        <time>2020-09-11T09:04:46Z</time>
      </trkpt>
      <trkpt lat="42.7889620" lon="-0.2617340">
        <ele>2610.6</ele>
        <time>2020-09-11T09:04:48Z</time>
      </trkpt>
      <trkpt lat="42.7889800" lon="-0.2617400">
        <ele>2611.0</ele>
        <time>2020-09-11T09:04:50Z</time>
      </trkpt>
      <trkpt lat="42.7889850" lon="-0.2617550">
        <ele>2611.2</ele>
        <time>2020-09-11T09:04:52Z</time>
      </trkpt>
      <trkpt lat="42.7889970" lon="-0.2617580">
        <ele>2611.6</ele>
        <time>2020-09-11T09:04:53Z</time>
      </trkpt>
      <trkpt lat="42.7889900" lon="-0.2617860">
        <ele>2612.6</ele>
        <time>2020-09-11T09:04:57Z</time>
      </trkpt>
      <trkpt lat="42.7889280" lon="-0.2618560">
        <ele>2613.4</ele>
        <time>2020-09-11T09:05:04Z</time>
      </trkpt>
      <trkpt lat="42.7888750" lon="-0.2618760">
        <ele>2613.6</ele>
        <time>2020-09-11T09:05:06Z</time>
      </trkpt>
      <trkpt lat="42.7888350" lon="-0.2619070">
        <ele>2613.8</ele>
        <time>2020-09-11T09:05:09Z</time>
      </trkpt>
      <trkpt lat="42.7888850" lon="-0.2619130">
        <ele>2614.6</ele>
        <time>2020-09-11T09:05:14Z</time>
      </trkpt>
      <trkpt lat="42.7888890" lon="-0.2619150">
        <ele>2614.8</ele>
        <time>2020-09-11T09:05:15Z</time>
      </trkpt>
      <trkpt lat="42.7888950" lon="-0.2619160">
        <ele>2614.8</ele>
        <time>2020-09-11T09:05:16Z</time>
      </trkpt>
      <trkpt lat="42.7889800" lon="-0.2619120">
        <ele>2615.8</ele>
        <time>2020-09-11T09:05:21Z</time>
      </trkpt>
      <trkpt lat="42.7890100" lon="-0.2619210">
        <ele>2616.8</ele>
        <time>2020-09-11T09:05:25Z</time>
      </trkpt>
      <trkpt lat="42.7890080" lon="-0.2619640">
        <ele>2618.0</ele>
        <time>2020-09-11T09:05:31Z</time>
      </trkpt>
      <trkpt lat="42.7889840" lon="-0.2620120">
        <ele>2619.0</ele>
        <time>2020-09-11T09:05:35Z</time>
      </trkpt>
      <trkpt lat="42.7889830" lon="-0.2620590">
        <ele>2620.2</ele>
        <time>2020-09-11T09:05:40Z</time>
      </trkpt>
      <trkpt lat="42.7890060" lon="-0.2620830">
        <ele>2621.2</ele>
        <time>2020-09-11T09:05:46Z</time>
      </trkpt>
      <trkpt lat="42.7889540" lon="-0.2621260">
        <ele>2622.0</ele>
        <time>2020-09-11T09:05:50Z</time>
      </trkpt>
      <trkpt lat="42.7889550" lon="-0.2621440">
        <ele>2622.0</ele>
        <time>2020-09-11T09:05:52Z</time>
      </trkpt>
      <trkpt lat="42.7889540" lon="-0.2621510">
        <ele>2622.2</ele>
        <time>2020-09-11T09:05:53Z</time>
      </trkpt>
      <trkpt lat="42.7889250" lon="-0.2622100">
        <ele>2623.4</ele>
        <time>2020-09-11T09:05:58Z</time>
      </trkpt>
      <trkpt lat="42.7889970" lon="-0.2622130">
        <ele>2624.4</ele>
        <time>2020-09-11T09:06:06Z</time>
      </trkpt>
      <trkpt lat="42.7890480" lon="-0.2621980">
        <ele>2625.4</ele>
        <time>2020-09-11T09:06:12Z</time>
      </trkpt>
      <trkpt lat="42.7890900" lon="-0.2622070">
        <ele>2626.6</ele>
        <time>2020-09-11T09:06:22Z</time>
      </trkpt>
      <trkpt lat="42.7890810" lon="-0.2622300">
        <ele>2627.8</ele>
        <time>2020-09-11T09:06:26Z</time>
      </trkpt>
      <trkpt lat="42.7891050" lon="-0.2622440">
        <ele>2628.8</ele>
        <time>2020-09-11T09:06:32Z</time>
      </trkpt>
      <trkpt lat="42.7891380" lon="-0.2622740">
        <ele>2629.8</ele>
        <time>2020-09-11T09:06:40Z</time>
      </trkpt>
      <trkpt lat="42.7891520" lon="-0.2622920">
        <ele>2631.0</ele>
        <time>2020-09-11T09:06:45Z</time>
      </trkpt>
      <trkpt lat="42.7891340" lon="-0.2623260">
        <ele>2632.2</ele>
        <time>2020-09-11T09:06:50Z</time>
      </trkpt>
      <trkpt lat="42.7890700" lon="-0.2624000">
        <ele>2633.2</ele>
        <time>2020-09-11T09:06:58Z</time>
      </trkpt>
      <trkpt lat="42.7889960" lon="-0.2624910">
        <ele>2634.2</ele>
        <time>2020-09-11T09:07:06Z</time>
      </trkpt>
      <trkpt lat="42.7890140" lon="-0.2624920">
        <ele>2634.2</ele>
        <time>2020-09-11T09:07:07Z</time>
      </trkpt>
      <trkpt lat="42.7890380" lon="-0.2625230">
        <ele>2635.4</ele>
        <time>2020-09-11T09:07:12Z</time>
      </trkpt>
      <trkpt lat="42.7890180" lon="-0.2625660">
        <ele>2635.8</ele>
        <time>2020-09-11T09:07:15Z</time>
      </trkpt>
      <trkpt lat="42.7889610" lon="-0.2626190">
        <ele>2636.4</ele>
        <time>2020-09-11T09:07:18Z</time>
      </trkpt>
      <trkpt lat="42.7889830" lon="-0.2626480">
        <ele>2637.4</ele>
        <time>2020-09-11T09:07:24Z</time>
      </trkpt>
      <trkpt lat="42.7890250" lon="-0.2626460">
        <ele>2637.8</ele>
        <time>2020-09-11T09:07:26Z</time>
      </trkpt>
      <trkpt lat="42.7890840" lon="-0.2626380">
        <ele>2638.4</ele>
        <time>2020-09-11T09:07:29Z</time>
      </trkpt>
      <trkpt lat="42.7890890" lon="-0.2626400">
        <ele>2638.8</ele>
        <time>2020-09-11T09:07:30Z</time>
      </trkpt>
      <trkpt lat="42.7890990" lon="-0.2626750">
        <ele>2639.8</ele>
        <time>2020-09-11T09:07:35Z</time>
      </trkpt>
      <trkpt lat="42.7890930" lon="-0.2626850">
        <ele>2640.0</ele>
        <time>2020-09-11T09:07:36Z</time>
      </trkpt>
      <trkpt lat="42.7890770" lon="-0.2627070">
        <ele>2640.4</ele>
        <time>2020-09-11T09:07:38Z</time>
      </trkpt>
      <trkpt lat="42.7890720" lon="-0.2627190">
        <ele>2640.8</ele>
        <time>2020-09-11T09:07:40Z</time>
      </trkpt>
      <trkpt lat="42.7890680" lon="-0.2627260">
        <ele>2641.0</ele>
        <time>2020-09-11T09:07:41Z</time>
      </trkpt>
      <trkpt lat="42.7890770" lon="-0.2627960">
        <ele>2642.0</ele>
        <time>2020-09-11T09:07:49Z</time>
      </trkpt>
      <trkpt lat="42.7890530" lon="-0.2628330">
        <ele>2643.0</ele>
        <time>2020-09-11T09:07:52Z</time>
      </trkpt>
      <trkpt lat="42.7890190" lon="-0.2628850">
        <ele>2644.2</ele>
        <time>2020-09-11T09:07:57Z</time>
      </trkpt>
      <trkpt lat="42.7889880" lon="-0.2629220">
        <ele>2645.0</ele>
        <time>2020-09-11T09:08:03Z</time>
      </trkpt>
      <trkpt lat="42.7889580" lon="-0.2629340">
        <ele>2645.2</ele>
        <time>2020-09-11T09:08:04Z</time>
      </trkpt>
      <trkpt lat="42.7889800" lon="-0.2629590">
        <ele>2646.4</ele>
        <time>2020-09-11T09:08:11Z</time>
      </trkpt>
      <trkpt lat="42.7889940" lon="-0.2629760">
        <ele>2647.4</ele>
        <time>2020-09-11T09:08:17Z</time>
      </trkpt>
      <trkpt lat="42.7890230" lon="-0.2629920">
        <ele>2648.4</ele>
        <time>2020-09-11T09:08:22Z</time>
      </trkpt>
      <trkpt lat="42.7891430" lon="-0.2630300">
        <ele>2649.0</ele>
        <time>2020-09-11T09:08:41Z</time>
      </trkpt>
      <trkpt lat="42.7891360" lon="-0.2630240">
        <ele>2648.6</ele>
        <time>2020-09-11T09:08:46Z</time>
      </trkpt>
      <trkpt lat="42.7891090" lon="-0.2630360">
        <ele>2648.8</ele>
        <time>2020-09-11T09:08:49Z</time>
      </trkpt>
      <trkpt lat="42.7890870" lon="-0.2630510">
        <ele>2649.6</ele>
        <time>2020-09-11T09:08:53Z</time>
      </trkpt>
      <trkpt lat="42.7890590" lon="-0.2630670">
        <ele>2649.6</ele>
        <time>2020-09-11T09:09:13Z</time>
      </trkpt>
      <trkpt lat="42.7890690" lon="-0.2631070">
        <ele>2649.8</ele>
        <time>2020-09-11T09:09:23Z</time>
      </trkpt>
      <trkpt lat="42.7890720" lon="-0.2631330">
        <ele>2650.2</ele>
        <time>2020-09-11T09:09:45Z</time>
      </trkpt>
      <trkpt lat="42.7890850" lon="-0.2631480">
        <ele>2650.6</ele>
        <time>2020-09-11T09:09:47Z</time>
      </trkpt>
      <trkpt lat="42.7890960" lon="-0.2631870">
        <ele>2651.0</ele>
        <time>2020-09-11T09:09:51Z</time>
      </trkpt>
      <trkpt lat="42.7890940" lon="-0.2632350">
        <ele>2651.4</ele>
        <time>2020-09-11T09:09:57Z</time>
      </trkpt>
      <trkpt lat="42.7890800" lon="-0.2632590">
        <ele>2651.6</ele>
        <time>2020-09-11T09:10:00Z</time>
      </trkpt>
      <trkpt lat="42.7890780" lon="-0.2632710">
        <ele>2651.6</ele>
        <time>2020-09-11T09:10:01Z</time>
      </trkpt>
      <trkpt lat="42.7890750" lon="-0.2632790">
        <ele>2651.8</ele>
        <time>2020-09-11T09:10:02Z</time>
      </trkpt>
      <trkpt lat="42.7890770" lon="-0.2632970">
        <ele>2652.4</ele>
        <time>2020-09-11T09:10:05Z</time>
      </trkpt>
      <trkpt lat="42.7890820" lon="-0.2633000">
        <ele>2652.8</ele>
        <time>2020-09-11T09:10:07Z</time>
      </trkpt>
      <trkpt lat="42.7890700" lon="-0.2633260">
        <ele>2653.8</ele>
        <time>2020-09-11T09:10:12Z</time>
      </trkpt>
      <trkpt lat="42.7890610" lon="-0.2633570">
        <ele>2655.0</ele>
        <time>2020-09-11T09:10:19Z</time>
      </trkpt>
      <trkpt lat="42.7890880" lon="-0.2634310">
        <ele>2656.0</ele>
        <time>2020-09-11T09:10:30Z</time>
      </trkpt>
      <trkpt lat="42.7891040" lon="-0.2634450">
        <ele>2657.0</ele>
        <time>2020-09-11T09:10:33Z</time>
      </trkpt>
      <trkpt lat="42.7891350" lon="-0.2636060">
        <ele>2658.2</ele>
        <time>2020-09-11T09:10:47Z</time>
      </trkpt>
      <trkpt lat="42.7891420" lon="-0.2636150">
        <ele>2658.2</ele>
        <time>2020-09-11T09:10:48Z</time>
      </trkpt>
      <trkpt lat="42.7892010" lon="-0.2636240">
        <ele>2658.2</ele>
        <time>2020-09-11T09:10:58Z</time>
      </trkpt>
      <trkpt lat="42.7892110" lon="-0.2636560">
        <ele>2658.6</ele>
        <time>2020-09-11T09:11:01Z</time>
      </trkpt>
      <trkpt lat="42.7892060" lon="-0.2636810">
        <ele>2659.4</ele>
        <time>2020-09-11T09:11:03Z</time>
      </trkpt>
      <trkpt lat="42.7892110" lon="-0.2636930">
        <ele>2659.8</ele>
        <time>2020-09-11T09:11:04Z</time>
      </trkpt>
      <trkpt lat="42.7892080" lon="-0.2637150">
        <ele>2660.0</ele>
        <time>2020-09-11T09:11:06Z</time>
      </trkpt>
      <trkpt lat="42.7891950" lon="-0.2637390">
        <ele>2660.4</ele>
        <time>2020-09-11T09:11:08Z</time>
      </trkpt>
      <trkpt lat="42.7892000" lon="-0.2638210">
        <ele>2661.6</ele>
        <time>2020-09-11T09:11:16Z</time>
      </trkpt>
      <trkpt lat="42.7891780" lon="-0.2638900">
        <ele>2662.8</ele>
        <time>2020-09-11T09:11:22Z</time>
      </trkpt>
      <trkpt lat="42.7891740" lon="-0.2639010">
        <ele>2663.0</ele>
        <time>2020-09-11T09:11:23Z</time>
      </trkpt>
      <trkpt lat="42.7891630" lon="-0.2639230">
        <ele>2663.4</ele>
        <time>2020-09-11T09:11:26Z</time>
      </trkpt>
      <trkpt lat="42.7891660" lon="-0.2639350">
        <ele>2663.8</ele>
        <time>2020-09-11T09:11:28Z</time>
      </trkpt>
      <trkpt lat="42.7891830" lon="-0.2639790">
        <ele>2664.8</ele>
        <time>2020-09-11T09:11:34Z</time>
      </trkpt>
      <trkpt lat="42.7891720" lon="-0.2640250">
        <ele>2666.0</ele>
        <time>2020-09-11T09:11:39Z</time>
      </trkpt>
      <trkpt lat="42.7891810" lon="-0.2640750">
        <ele>2667.2</ele>
        <time>2020-09-11T09:11:44Z</time>
      </trkpt>
      <trkpt lat="42.7891620" lon="-0.2641080">
        <ele>2667.8</ele>
        <time>2020-09-11T09:11:47Z</time>
      </trkpt>
      <trkpt lat="42.7891710" lon="-0.2641570">
        <ele>2668.2</ele>
        <time>2020-09-11T09:11:52Z</time>
      </trkpt>
      <trkpt lat="42.7891860" lon="-0.2642090">
        <ele>2669.4</ele>
        <time>2020-09-11T09:11:59Z</time>
      </trkpt>
      <trkpt lat="42.7891810" lon="-0.2642570">
        <ele>2670.4</ele>
        <time>2020-09-11T09:12:04Z</time>
      </trkpt>
      <trkpt lat="42.7892020" lon="-0.2642990">
        <ele>2671.6</ele>
        <time>2020-09-11T09:12:09Z</time>
      </trkpt>
      <trkpt lat="42.7892430" lon="-0.2643360">
        <ele>2672.6</ele>
        <time>2020-09-11T09:12:26Z</time>
      </trkpt>
      <trkpt lat="42.7892660" lon="-0.2643590">
        <ele>2673.0</ele>
        <time>2020-09-11T09:12:29Z</time>
      </trkpt>
      <trkpt lat="42.7892970" lon="-0.2644030">
        <ele>2673.2</ele>
        <time>2020-09-11T09:12:33Z</time>
      </trkpt>
      <trkpt lat="42.7893180" lon="-0.2644370">
        <ele>2673.2</ele>
        <time>2020-09-11T09:12:37Z</time>
      </trkpt>
      <trkpt lat="42.7893570" lon="-0.2644460">
        <ele>2673.4</ele>
        <time>2020-09-11T09:12:41Z</time>
      </trkpt>
      <trkpt lat="42.7893910" lon="-0.2644830">
        <ele>2672.4</ele>
        <time>2020-09-11T09:12:46Z</time>
      </trkpt>
      <trkpt lat="42.7894010" lon="-0.2644910">
        <ele>2672.4</ele>
        <time>2020-09-11T09:12:47Z</time>
      </trkpt>
      <trkpt lat="42.7894070" lon="-0.2645310">
        <ele>2672.8</ele>
        <time>2020-09-11T09:12:51Z</time>
      </trkpt>
      <trkpt lat="42.7894550" lon="-0.2645960">
        <ele>2673.4</ele>
        <time>2020-09-11T09:13:03Z</time>
      </trkpt>
      <trkpt lat="42.7894640" lon="-0.2646070">
        <ele>2673.4</ele>
        <time>2020-09-11T09:13:05Z</time>
      </trkpt>
      <trkpt lat="42.7894770" lon="-0.2646140">
        <ele>2673.4</ele>
        <time>2020-09-11T09:13:13Z</time>
      </trkpt>
      <trkpt lat="42.7895010" lon="-0.2646440">
        <ele>2673.6</ele>
        <time>2020-09-11T09:13:17Z</time>
      </trkpt>
      <trkpt lat="42.7896540" lon="-0.2647720">
        <ele>2673.8</ele>
        <time>2020-09-11T09:13:31Z</time>
      </trkpt>
      <trkpt lat="42.7896840" lon="-0.2647670">
        <ele>2674.0</ele>
        <time>2020-09-11T09:13:34Z</time>
      </trkpt>
      <trkpt lat="42.7897400" lon="-0.2647770">
        <ele>2674.6</ele>
        <time>2020-09-11T09:13:40Z</time>
      </trkpt>
      <trkpt lat="42.7897690" lon="-0.2647840">
        <ele>2674.8</ele>
        <time>2020-09-11T09:13:42Z</time>
      </trkpt>
      <trkpt lat="42.7899440" lon="-0.2648700">
        <ele>2673.8</ele>
        <time>2020-09-11T09:13:58Z</time>
      </trkpt>
      <trkpt lat="42.7899550" lon="-0.2648710">
        <ele>2673.6</ele>
        <time>2020-09-11T09:13:59Z</time>
      </trkpt>
      <trkpt lat="42.7900220" lon="-0.2649280">
        <ele>2672.4</ele>
        <time>2020-09-11T09:14:06Z</time>
      </trkpt>
      <trkpt lat="42.7900600" lon="-0.2649770">
        <ele>2671.2</ele>
        <time>2020-09-11T09:14:10Z</time>
      </trkpt>
      <trkpt lat="42.7902280" lon="-0.2650680">
        <ele>2670.8</ele>
        <time>2020-09-11T09:14:26Z</time>
      </trkpt>
      <trkpt lat="42.7902800" lon="-0.2650990">
        <ele>2670.4</ele>
        <time>2020-09-11T09:14:33Z</time>
      </trkpt>
      <trkpt lat="42.7903400" lon="-0.2651410">
        <ele>2670.4</ele>
        <time>2020-09-11T09:15:13Z</time>
      </trkpt>
      <trkpt lat="42.7903820" lon="-0.2651460">
        <ele>2670.2</ele>
        <time>2020-09-11T09:15:18Z</time>
      </trkpt>
      <trkpt lat="42.7904070" lon="-0.2651510">
        <ele>2670.4</ele>
        <time>2020-09-11T09:15:21Z</time>
      </trkpt>
      <trkpt lat="42.7905210" lon="-0.2652200">
        <ele>2671.2</ele>
        <time>2020-09-11T09:15:35Z</time>
      </trkpt>
      <trkpt lat="42.7907010" lon="-0.2652680">
        <ele>2671.4</ele>
        <time>2020-09-11T09:15:52Z</time>
      </trkpt>
      <trkpt lat="42.7907380" lon="-0.2652860">
        <ele>2672.4</ele>
        <time>2020-09-11T09:15:57Z</time>
      </trkpt>
      <trkpt lat="42.7908010" lon="-0.2653540">
        <ele>2672.4</ele>
        <time>2020-09-11T09:16:03Z</time>
      </trkpt>
      <trkpt lat="42.7908090" lon="-0.2653580">
        <ele>2672.4</ele>
        <time>2020-09-11T09:16:04Z</time>
      </trkpt>
      <trkpt lat="42.7909300" lon="-0.2655480">
        <ele>2672.2</ele>
        <time>2020-09-11T09:16:19Z</time>
      </trkpt>
      <trkpt lat="42.7910720" lon="-0.2657030">
        <ele>2672.8</ele>
        <time>2020-09-11T09:16:34Z</time>
      </trkpt>
      <trkpt lat="42.7912310" lon="-0.2658340">
        <ele>2672.2</ele>
        <time>2020-09-11T09:16:45Z</time>
      </trkpt>
      <trkpt lat="42.7914160" lon="-0.2659180">
        <ele>2673.4</ele>
        <time>2020-09-11T09:16:56Z</time>
      </trkpt>
      <trkpt lat="42.7914920" lon="-0.2659110">
        <ele>2674.0</ele>
        <time>2020-09-11T09:17:00Z</time>
      </trkpt>
      <trkpt lat="42.7915050" lon="-0.2659100">
        <ele>2674.6</ele>
        <time>2020-09-11T09:17:04Z</time>
      </trkpt>
      <trkpt lat="42.7915370" lon="-0.2659250">
        <ele>2675.6</ele>
        <time>2020-09-11T09:17:08Z</time>
      </trkpt>
      <trkpt lat="42.7915500" lon="-0.2659280">
        <ele>2676.0</ele>
        <time>2020-09-11T09:17:09Z</time>
      </trkpt>
      <trkpt lat="42.7915830" lon="-0.2659350">
        <ele>2676.6</ele>
        <time>2020-09-11T09:17:11Z</time>
      </trkpt>
      <trkpt lat="42.7916050" lon="-0.2659350">
        <ele>2676.8</ele>
        <time>2020-09-11T09:17:12Z</time>
      </trkpt>
      <trkpt lat="42.7916590" lon="-0.2659360">
        <ele>2677.2</ele>
        <time>2020-09-11T09:17:15Z</time>
      </trkpt>
      <trkpt lat="42.7916910" lon="-0.2659460">
        <ele>2677.8</ele>
        <time>2020-09-11T09:17:18Z</time>
      </trkpt>
      <trkpt lat="42.7916950" lon="-0.2659640">
        <ele>2677.8</ele>
        <time>2020-09-11T09:17:19Z</time>
      </trkpt>
      <trkpt lat="42.7916600" lon="-0.2661720">
        <ele>2678.6</ele>
        <time>2020-09-11T09:17:33Z</time>
      </trkpt>
      <trkpt lat="42.7915730" lon="-0.2662110">
        <ele>2678.0</ele>
        <time>2020-09-11T09:17:39Z</time>
      </trkpt>
      <trkpt lat="42.7915720" lon="-0.2662690">
        <ele>2678.4</ele>
        <time>2020-09-11T09:18:02Z</time>
      </trkpt>
      <trkpt lat="42.7915890" lon="-0.2663300">
        <ele>2679.0</ele>
        <time>2020-09-11T09:18:06Z</time>
      </trkpt>
      <trkpt lat="42.7916830" lon="-0.2663840">
        <ele>2680.0</ele>
        <time>2020-09-11T09:18:13Z</time>
      </trkpt>
      <trkpt lat="42.7917860" lon="-0.2663770">
        <ele>2680.8</ele>
        <time>2020-09-11T09:18:18Z</time>
      </trkpt>
      <trkpt lat="42.7917810" lon="-0.2663970">
        <ele>2681.0</ele>
        <time>2020-09-11T09:18:19Z</time>
      </trkpt>
      <trkpt lat="42.7917880" lon="-0.2664200">
        <ele>2681.2</ele>
        <time>2020-09-11T09:18:21Z</time>
      </trkpt>
      <trkpt lat="42.7918540" lon="-0.2664190">
        <ele>2682.0</ele>
        <time>2020-09-11T09:18:25Z</time>
      </trkpt>
      <trkpt lat="42.7918670" lon="-0.2664690">
        <ele>2683.2</ele>
        <time>2020-09-11T09:18:30Z</time>
      </trkpt>
      <trkpt lat="42.7918730" lon="-0.2664820">
        <ele>2683.4</ele>
        <time>2020-09-11T09:18:31Z</time>
      </trkpt>
      <trkpt lat="42.7918850" lon="-0.2664910">
        <ele>2684.0</ele>
        <time>2020-09-11T09:18:33Z</time>
      </trkpt>
      <trkpt lat="42.7919140" lon="-0.2664840">
        <ele>2684.4</ele>
        <time>2020-09-11T09:18:34Z</time>
      </trkpt>
      <trkpt lat="42.7919300" lon="-0.2664980">
        <ele>2684.6</ele>
        <time>2020-09-11T09:18:35Z</time>
      </trkpt>
      <trkpt lat="42.7919640" lon="-0.2665350">
        <ele>2685.4</ele>
        <time>2020-09-11T09:18:39Z</time>
      </trkpt>
      <trkpt lat="42.7919600" lon="-0.2665430">
        <ele>2685.6</ele>
        <time>2020-09-11T09:18:41Z</time>
      </trkpt>
      <trkpt lat="42.7919300" lon="-0.2665780">
        <ele>2685.8</ele>
        <time>2020-09-11T09:18:44Z</time>
      </trkpt>
      <trkpt lat="42.7919150" lon="-0.2666050">
        <ele>2686.2</ele>
        <time>2020-09-11T09:18:47Z</time>
      </trkpt>
      <trkpt lat="42.7919100" lon="-0.2666160">
        <ele>2686.4</ele>
        <time>2020-09-11T09:18:48Z</time>
      </trkpt>
      <trkpt lat="42.7918730" lon="-0.2666400">
        <ele>2687.0</ele>
        <time>2020-09-11T09:18:50Z</time>
      </trkpt>
      <trkpt lat="42.7919030" lon="-0.2666490">
        <ele>2687.6</ele>
        <time>2020-09-11T09:18:53Z</time>
      </trkpt>
      <trkpt lat="42.7918980" lon="-0.2666760">
        <ele>2688.6</ele>
        <time>2020-09-11T09:18:58Z</time>
      </trkpt>
      <trkpt lat="42.7918890" lon="-0.2666920">
        <ele>2689.8</ele>
        <time>2020-09-11T09:19:03Z</time>
      </trkpt>
      <trkpt lat="42.7919010" lon="-0.2666850">
        <ele>2691.0</ele>
        <time>2020-09-11T09:19:09Z</time>
      </trkpt>
      <trkpt lat="42.7918850" lon="-0.2667080">
        <ele>2692.2</ele>
        <time>2020-09-11T09:19:13Z</time>
      </trkpt>
      <trkpt lat="42.7918920" lon="-0.2667220">
        <ele>2693.4</ele>
        <time>2020-09-11T09:19:21Z</time>
      </trkpt>
      <trkpt lat="42.7919050" lon="-0.2667190">
        <ele>2694.4</ele>
        <time>2020-09-11T09:19:27Z</time>
      </trkpt>
      <trkpt lat="42.7918860" lon="-0.2667370">
        <ele>2695.6</ele>
        <time>2020-09-11T09:19:31Z</time>
      </trkpt>
      <trkpt lat="42.7918750" lon="-0.2667520">
        <ele>2696.8</ele>
        <time>2020-09-11T09:19:37Z</time>
      </trkpt>
      <trkpt lat="42.7919200" lon="-0.2667670">
        <ele>2697.4</ele>
        <time>2020-09-11T09:19:45Z</time>
      </trkpt>
      <trkpt lat="42.7919370" lon="-0.2667660">
        <ele>2697.8</ele>
        <time>2020-09-11T09:19:47Z</time>
      </trkpt>
      <trkpt lat="42.7919660" lon="-0.2667750">
        <ele>2698.8</ele>
        <time>2020-09-11T09:19:52Z</time>
      </trkpt>
      <trkpt lat="42.7919780" lon="-0.2667880">
        <ele>2700.0</ele>
        <time>2020-09-11T09:19:56Z</time>
      </trkpt>
      <trkpt lat="42.7919870" lon="-0.2667860">
        <ele>2701.0</ele>
        <time>2020-09-11T09:20:01Z</time>
      </trkpt>
      <trkpt lat="42.7920070" lon="-0.2667940">
        <ele>2702.0</ele>
        <time>2020-09-11T09:20:08Z</time>
      </trkpt>
      <trkpt lat="42.7920100" lon="-0.2668000">
        <ele>2703.4</ele>
        <time>2020-09-11T09:20:12Z</time>
      </trkpt>
      <trkpt lat="42.7920320" lon="-0.2668070">
        <ele>2704.4</ele>
        <time>2020-09-11T09:20:17Z</time>
      </trkpt>
      <trkpt lat="42.7920370" lon="-0.2667920">
        <ele>2705.6</ele>
        <time>2020-09-11T09:20:21Z</time>
      </trkpt>
      <trkpt lat="42.7920290" lon="-0.2668210">
        <ele>2706.6</ele>
        <time>2020-09-11T09:20:57Z</time>
      </trkpt>
      <trkpt lat="42.7920340" lon="-0.2668400">
        <ele>2707.8</ele>
        <time>2020-09-11T09:21:00Z</time>
      </trkpt>
      <trkpt lat="42.7920530" lon="-0.2668250">
        <ele>2709.2</ele>
        <time>2020-09-11T09:21:04Z</time>
      </trkpt>
      <trkpt lat="42.7920760" lon="-0.2668240">
        <ele>2710.4</ele>
        <time>2020-09-11T09:21:08Z</time>
      </trkpt>
      <trkpt lat="42.7921020" lon="-0.2668150">
        <ele>2711.4</ele>
        <time>2020-09-11T09:21:13Z</time>
      </trkpt>
      <trkpt lat="42.7921100" lon="-0.2667990">
        <ele>2712.4</ele>
        <time>2020-09-11T09:21:22Z</time>
      </trkpt>
      <trkpt lat="42.7921060" lon="-0.2667920">
        <ele>2712.2</ele>
        <time>2020-09-11T09:22:51Z</time>
      </trkpt>
      <trkpt lat="42.7921150" lon="-0.2668050">
        <ele>2711.8</ele>
        <time>2020-09-11T09:23:51Z</time>
      </trkpt>
      <trkpt lat="42.7920960" lon="-0.2667790">
        <ele>2711.8</ele>
        <time>2020-09-11T09:26:22Z</time>
      </trkpt>
      <trkpt lat="42.7921020" lon="-0.2667750">
        <ele>2711.8</ele>
        <time>2020-09-11T09:27:15Z</time>
      </trkpt>
      <trkpt lat="42.7921290" lon="-0.2667410">
        <ele>2711.8</ele>
        <time>2020-09-11T09:29:08Z</time>
      </trkpt>
      <trkpt lat="42.7922260" lon="-0.2666400">
        <ele>2711.8</ele>
        <time>2020-09-11T09:29:56Z</time>
      </trkpt>
      <trkpt lat="42.7922490" lon="-0.2665830">
        <ele>2698.2</ele>
        <time>2020-09-11T09:30:07Z</time>
      </trkpt>
      <trkpt lat="42.7922650" lon="-0.2665510">
        <ele>2696.8</ele>
        <time>2020-09-11T09:30:17Z</time>
      </trkpt>
      <trkpt lat="42.7922690" lon="-0.2665510">
        <ele>2695.8</ele>
        <time>2020-09-11T09:30:20Z</time>
      </trkpt>
      <trkpt lat="42.7922900" lon="-0.2665540">
        <ele>2694.8</ele>
        <time>2020-09-11T09:30:25Z</time>
      </trkpt>
      <trkpt lat="42.7922750" lon="-0.2665530">
        <ele>2694.2</ele>
        <time>2020-09-11T09:30:28Z</time>
      </trkpt>
      <trkpt lat="42.7922500" lon="-0.2665410">
        <ele>2693.6</ele>
        <time>2020-09-11T09:30:35Z</time>
      </trkpt>
      <trkpt lat="42.7922520" lon="-0.2665320">
        <ele>2692.6</ele>
        <time>2020-09-11T09:30:39Z</time>
      </trkpt>
      <trkpt lat="42.7922820" lon="-0.2665090">
        <ele>2691.4</ele>
        <time>2020-09-11T09:30:49Z</time>
      </trkpt>
      <trkpt lat="42.7922980" lon="-0.2665150">
        <ele>2690.2</ele>
        <time>2020-09-11T09:31:02Z</time>
      </trkpt>
      <trkpt lat="42.7923030" lon="-0.2665150">
        <ele>2690.2</ele>
        <time>2020-09-11T09:31:03Z</time>
      </trkpt>
      <trkpt lat="42.7922760" lon="-0.2665290">
        <ele>2689.0</ele>
        <time>2020-09-11T09:31:08Z</time>
      </trkpt>
      <trkpt lat="42.7922710" lon="-0.2665390">
        <ele>2688.0</ele>
        <time>2020-09-11T09:31:15Z</time>
      </trkpt>
      <trkpt lat="42.7923180" lon="-0.2665060">
        <ele>2687.0</ele>
        <time>2020-09-11T09:31:23Z</time>
      </trkpt>
      <trkpt lat="42.7923060" lon="-0.2664320">
        <ele>2685.8</ele>
        <time>2020-09-11T09:31:45Z</time>
      </trkpt>
      <trkpt lat="42.7923180" lon="-0.2664130">
        <ele>2684.8</ele>
        <time>2020-09-11T09:31:49Z</time>
      </trkpt>
      <trkpt lat="42.7923300" lon="-0.2664060">
        <ele>2684.0</ele>
        <time>2020-09-11T09:31:51Z</time>
      </trkpt>
      <trkpt lat="42.7923380" lon="-0.2664030">
        <ele>2683.6</ele>
        <time>2020-09-11T09:31:52Z</time>
      </trkpt>
      <trkpt lat="42.7923020" lon="-0.2664010">
        <ele>2682.4</ele>
        <time>2020-09-11T09:31:55Z</time>
      </trkpt>
      <trkpt lat="42.7922940" lon="-0.2664000">
        <ele>2682.2</ele>
        <time>2020-09-11T09:31:56Z</time>
      </trkpt>
      <trkpt lat="42.7922900" lon="-0.2663980">
        <ele>2682.0</ele>
        <time>2020-09-11T09:31:57Z</time>
      </trkpt>
      <trkpt lat="42.7923000" lon="-0.2663950">
        <ele>2681.6</ele>
        <time>2020-09-11T09:31:59Z</time>
      </trkpt>
      <trkpt lat="42.7923070" lon="-0.2663810">
        <ele>2681.0</ele>
        <time>2020-09-11T09:32:01Z</time>
      </trkpt>
      <trkpt lat="42.7923110" lon="-0.2663760">
        <ele>2680.6</ele>
        <time>2020-09-11T09:32:02Z</time>
      </trkpt>
      <trkpt lat="42.7923230" lon="-0.2663680">
        <ele>2679.6</ele>
        <time>2020-09-11T09:32:04Z</time>
      </trkpt>
      <trkpt lat="42.7923320" lon="-0.2663690">
        <ele>2679.2</ele>
        <time>2020-09-11T09:32:05Z</time>
      </trkpt>
      <trkpt lat="42.7923480" lon="-0.2663680">
        <ele>2678.4</ele>
        <time>2020-09-11T09:32:07Z</time>
      </trkpt>
      <trkpt lat="42.7923720" lon="-0.2663400">
        <ele>2677.2</ele>
        <time>2020-09-11T09:32:11Z</time>
      </trkpt>
      <trkpt lat="42.7923710" lon="-0.2663270">
        <ele>2677.0</ele>
        <time>2020-09-11T09:32:12Z</time>
      </trkpt>
      <trkpt lat="42.7923840" lon="-0.2662940">
        <ele>2675.8</ele>
        <time>2020-09-11T09:32:15Z</time>
      </trkpt>
      <trkpt lat="42.7923880" lon="-0.2662840">
        <ele>2675.4</ele>
        <time>2020-09-11T09:32:16Z</time>
      </trkpt>
      <trkpt lat="42.7923960" lon="-0.2662640">
        <ele>2674.6</ele>
        <time>2020-09-11T09:32:18Z</time>
      </trkpt>
      <trkpt lat="42.7924050" lon="-0.2662460">
        <ele>2673.0</ele>
        <time>2020-09-11T09:32:21Z</time>
      </trkpt>
      <trkpt lat="42.7924150" lon="-0.2662230">
        <ele>2672.4</ele>
        <time>2020-09-11T09:32:23Z</time>
      </trkpt>
      <trkpt lat="42.7924180" lon="-0.2662110">
        <ele>2672.0</ele>
        <time>2020-09-11T09:32:24Z</time>
      </trkpt>
      <trkpt lat="42.7924350" lon="-0.2662030">
        <ele>2671.0</ele>
        <time>2020-09-11T09:32:27Z</time>
      </trkpt>
      <trkpt lat="42.7924500" lon="-0.2662100">
        <ele>2669.8</ele>
        <time>2020-09-11T09:32:30Z</time>
      </trkpt>
      <trkpt lat="42.7924550" lon="-0.2662140">
        <ele>2669.2</ele>
        <time>2020-09-11T09:32:33Z</time>
      </trkpt>
      <trkpt lat="42.7924440" lon="-0.2662170">
        <ele>2668.8</ele>
        <time>2020-09-11T09:32:35Z</time>
      </trkpt>
      <trkpt lat="42.7924220" lon="-0.2662450">
        <ele>2669.0</ele>
        <time>2020-09-11T09:34:25Z</time>
      </trkpt>
      <trkpt lat="42.7926260" lon="-0.2662430">
        <ele>2667.8</ele>
        <time>2020-09-11T09:35:00Z</time>
      </trkpt>
      <trkpt lat="42.7925320" lon="-0.2662840">
        <ele>2667.4</ele>
        <time>2020-09-11T09:35:50Z</time>
      </trkpt>
      <trkpt lat="42.7925440" lon="-0.2662930">
        <ele>2666.6</ele>
        <time>2020-09-11T09:35:52Z</time>
      </trkpt>
      <trkpt lat="42.7925460" lon="-0.2662990">
        <ele>2666.0</ele>
        <time>2020-09-11T09:35:53Z</time>
      </trkpt>
      <trkpt lat="42.7925480" lon="-0.2663060">
        <ele>2665.4</ele>
        <time>2020-09-11T09:35:54Z</time>
      </trkpt>
      <trkpt lat="42.7925510" lon="-0.2663170">
        <ele>2664.4</ele>
        <time>2020-09-11T09:35:56Z</time>
      </trkpt>
      <trkpt lat="42.7925610" lon="-0.2663220">
        <ele>2663.0</ele>
        <time>2020-09-11T09:35:59Z</time>
      </trkpt>
      <trkpt lat="42.7925740" lon="-0.2663210">
        <ele>2662.2</ele>
        <time>2020-09-11T09:36:01Z</time>
      </trkpt>
      <trkpt lat="42.7925750" lon="-0.2663180">
        <ele>2661.8</ele>
        <time>2020-09-11T09:36:02Z</time>
      </trkpt>
      <trkpt lat="42.7925760" lon="-0.2663160">
        <ele>2661.6</ele>
        <time>2020-09-11T09:36:03Z</time>
      </trkpt>
      <trkpt lat="42.7925720" lon="-0.2663100">
        <ele>2660.8</ele>
        <time>2020-09-11T09:36:05Z</time>
      </trkpt>
      <trkpt lat="42.7925770" lon="-0.2663220">
        <ele>2659.8</ele>
        <time>2020-09-11T09:36:10Z</time>
      </trkpt>
      <trkpt lat="42.7926210" lon="-0.2663520">
        <ele>2658.8</ele>
        <time>2020-09-11T09:36:16Z</time>
      </trkpt>
      <trkpt lat="42.7926300" lon="-0.2663600">
        <ele>2657.6</ele>
        <time>2020-09-11T09:36:18Z</time>
      </trkpt>
      <trkpt lat="42.7926360" lon="-0.2663670">
        <ele>2656.4</ele>
        <time>2020-09-11T09:36:20Z</time>
      </trkpt>
      <trkpt lat="42.7926650" lon="-0.2663660">
        <ele>2655.4</ele>
        <time>2020-09-11T09:36:25Z</time>
      </trkpt>
      <trkpt lat="42.7926740" lon="-0.2663690">
        <ele>2655.0</ele>
        <time>2020-09-11T09:36:26Z</time>
      </trkpt>
      <trkpt lat="42.7926900" lon="-0.2663820">
        <ele>2654.2</ele>
        <time>2020-09-11T09:36:28Z</time>
      </trkpt>
      <trkpt lat="42.7927070" lon="-0.2663990">
        <ele>2653.0</ele>
        <time>2020-09-11T09:36:31Z</time>
      </trkpt>
      <trkpt lat="42.7927040" lon="-0.2664020">
        <ele>2651.8</ele>
        <time>2020-09-11T09:36:34Z</time>
      </trkpt>
      <trkpt lat="42.7927220" lon="-0.2664370">
        <ele>2650.8</ele>
        <time>2020-09-11T09:36:47Z</time>
      </trkpt>
      <trkpt lat="42.7927650" lon="-0.2664520">
        <ele>2649.2</ele>
        <time>2020-09-11T09:36:50Z</time>
      </trkpt>
      <trkpt lat="42.7927870" lon="-0.2664610">
        <ele>2648.0</ele>
        <time>2020-09-11T09:36:52Z</time>
      </trkpt>
      <trkpt lat="42.7928270" lon="-0.2664720">
        <ele>2646.4</ele>
        <time>2020-09-11T09:36:55Z</time>
      </trkpt>
      <trkpt lat="42.7928660" lon="-0.2664850">
        <ele>2645.2</ele>
        <time>2020-09-11T09:36:58Z</time>
      </trkpt>
      <trkpt lat="42.7929280" lon="-0.2665020">
        <ele>2643.8</ele>
        <time>2020-09-11T09:37:02Z</time>
      </trkpt>
      <trkpt lat="42.7929500" lon="-0.2665150">
        <ele>2642.4</ele>
        <time>2020-09-11T09:37:04Z</time>
      </trkpt>
      <trkpt lat="42.7929680" lon="-0.2665210">
        <ele>2641.0</ele>
        <time>2020-09-11T09:37:06Z</time>
      </trkpt>
      <trkpt lat="42.7929910" lon="-0.2665290">
        <ele>2640.0</ele>
        <time>2020-09-11T09:37:08Z</time>
      </trkpt>
      <trkpt lat="42.7930040" lon="-0.2665370">
        <ele>2639.6</ele>
        <time>2020-09-11T09:37:09Z</time>
      </trkpt>
      <trkpt lat="42.7930200" lon="-0.2665540">
        <ele>2638.8</ele>
        <time>2020-09-11T09:37:11Z</time>
      </trkpt>
      <trkpt lat="42.7930580" lon="-0.2665620">
        <ele>2637.8</ele>
        <time>2020-09-11T09:37:14Z</time>
      </trkpt>
      <trkpt lat="42.7931010" lon="-0.2665680">
        <ele>2636.4</ele>
        <time>2020-09-11T09:37:17Z</time>
      </trkpt>
      <trkpt lat="42.7931270" lon="-0.2665760">
        <ele>2635.2</ele>
        <time>2020-09-11T09:37:19Z</time>
      </trkpt>
      <trkpt lat="42.7931470" lon="-0.2665870">
        <ele>2633.8</ele>
        <time>2020-09-11T09:37:21Z</time>
      </trkpt>
      <trkpt lat="42.7931650" lon="-0.2665910">
        <ele>2632.8</ele>
        <time>2020-09-11T09:37:23Z</time>
      </trkpt>
      <trkpt lat="42.7931750" lon="-0.2665970">
        <ele>2632.2</ele>
        <time>2020-09-11T09:37:24Z</time>
      </trkpt>
      <trkpt lat="42.7932020" lon="-0.2666130">
        <ele>2630.8</ele>
        <time>2020-09-11T09:37:26Z</time>
      </trkpt>
      <trkpt lat="42.7932240" lon="-0.2666340">
        <ele>2629.6</ele>
        <time>2020-09-11T09:37:28Z</time>
      </trkpt>
      <trkpt lat="42.7932350" lon="-0.2666380">
        <ele>2628.8</ele>
        <time>2020-09-11T09:37:29Z</time>
      </trkpt>
      <trkpt lat="42.7932410" lon="-0.2666290">
        <ele>2628.2</ele>
        <time>2020-09-11T09:37:30Z</time>
      </trkpt>
      <trkpt lat="42.7932500" lon="-0.2665960">
        <ele>2626.6</ele>
        <time>2020-09-11T09:37:32Z</time>
      </trkpt>
      <trkpt lat="42.7932570" lon="-0.2665880">
        <ele>2626.2</ele>
        <time>2020-09-11T09:37:33Z</time>
      </trkpt>
      <trkpt lat="42.7932700" lon="-0.2665980">
        <ele>2625.4</ele>
        <time>2020-09-11T09:37:35Z</time>
      </trkpt>
      <trkpt lat="42.7932860" lon="-0.2666270">
        <ele>2624.2</ele>
        <time>2020-09-11T09:37:38Z</time>
      </trkpt>
      <trkpt lat="42.7933160" lon="-0.2666620">
        <ele>2622.8</ele>
        <time>2020-09-11T09:37:41Z</time>
      </trkpt>
      <trkpt lat="42.7933250" lon="-0.2666770">
        <ele>2622.4</ele>
        <time>2020-09-11T09:37:42Z</time>
      </trkpt>
      <trkpt lat="42.7933470" lon="-0.2666990">
        <ele>2621.2</ele>
        <time>2020-09-11T09:37:44Z</time>
      </trkpt>
      <trkpt lat="42.7933770" lon="-0.2667130">
        <ele>2620.0</ele>
        <time>2020-09-11T09:37:47Z</time>
      </trkpt>
      <trkpt lat="42.7933840" lon="-0.2667240">
        <ele>2619.6</ele>
        <time>2020-09-11T09:37:48Z</time>
      </trkpt>
      <trkpt lat="42.7933830" lon="-0.2667530">
        <ele>2619.0</ele>
        <time>2020-09-11T09:37:50Z</time>
      </trkpt>
      <trkpt lat="42.7933790" lon="-0.2667560">
        <ele>2618.6</ele>
        <time>2020-09-11T09:37:51Z</time>
      </trkpt>
      <trkpt lat="42.7933730" lon="-0.2667460">
        <ele>2617.6</ele>
        <time>2020-09-11T09:37:54Z</time>
      </trkpt>
      <trkpt lat="42.7934620" lon="-0.2667240">
        <ele>2616.4</ele>
        <time>2020-09-11T09:38:27Z</time>
      </trkpt>
      <trkpt lat="42.7934810" lon="-0.2667510">
        <ele>2615.4</ele>
        <time>2020-09-11T09:38:30Z</time>
      </trkpt>
      <trkpt lat="42.7934860" lon="-0.2667800">
        <ele>2614.4</ele>
        <time>2020-09-11T09:38:32Z</time>
      </trkpt>
      <trkpt lat="42.7935060" lon="-0.2668100">
        <ele>2613.2</ele>
        <time>2020-09-11T09:38:34Z</time>
      </trkpt>
      <trkpt lat="42.7935230" lon="-0.2668310">
        <ele>2611.8</ele>
        <time>2020-09-11T09:38:36Z</time>
      </trkpt>
      <trkpt lat="42.7935320" lon="-0.2668440">
        <ele>2611.0</ele>
        <time>2020-09-11T09:38:37Z</time>
      </trkpt>
      <trkpt lat="42.7935420" lon="-0.2668580">
        <ele>2610.4</ele>
        <time>2020-09-11T09:38:38Z</time>
      </trkpt>
      <trkpt lat="42.7935430" lon="-0.2668660">
        <ele>2609.8</ele>
        <time>2020-09-11T09:38:39Z</time>
      </trkpt>
      <trkpt lat="42.7935530" lon="-0.2668760">
        <ele>2609.0</ele>
        <time>2020-09-11T09:38:40Z</time>
      </trkpt>
      <trkpt lat="42.7935530" lon="-0.2668940">
        <ele>2608.6</ele>
        <time>2020-09-11T09:38:41Z</time>
      </trkpt>
      <trkpt lat="42.7935580" lon="-0.2669160">
        <ele>2608.0</ele>
        <time>2020-09-11T09:38:42Z</time>
      </trkpt>
      <trkpt lat="42.7935670" lon="-0.2669290">
        <ele>2607.4</ele>
        <time>2020-09-11T09:38:43Z</time>
      </trkpt>
      <trkpt lat="42.7935720" lon="-0.2669380">
        <ele>2606.8</ele>
        <time>2020-09-11T09:38:44Z</time>
      </trkpt>
      <trkpt lat="42.7935950" lon="-0.2669600">
        <ele>2606.2</ele>
        <time>2020-09-11T09:38:46Z</time>
      </trkpt>
      <trkpt lat="42.7936280" lon="-0.2669780">
        <ele>2605.4</ele>
        <time>2020-09-11T09:38:48Z</time>
      </trkpt>
      <trkpt lat="42.7936870" lon="-0.2670140">
        <ele>2604.2</ele>
        <time>2020-09-11T09:38:51Z</time>
      </trkpt>
      <trkpt lat="42.7937190" lon="-0.2670360">
        <ele>2602.8</ele>
        <time>2020-09-11T09:38:53Z</time>
      </trkpt>
      <trkpt lat="42.7937440" lon="-0.2670550">
        <ele>2601.2</ele>
        <time>2020-09-11T09:38:55Z</time>
      </trkpt>
      <trkpt lat="42.7937570" lon="-0.2670700">
        <ele>2599.8</ele>
        <time>2020-09-11T09:38:57Z</time>
      </trkpt>
      <trkpt lat="42.7937470" lon="-0.2670770">
        <ele>2599.2</ele>
        <time>2020-09-11T09:38:58Z</time>
      </trkpt>
      <trkpt lat="42.7937360" lon="-0.2670810">
        <ele>2598.8</ele>
        <time>2020-09-11T09:38:59Z</time>
      </trkpt>
      <trkpt lat="42.7937010" lon="-0.2671000">
        <ele>2598.2</ele>
        <time>2020-09-11T09:39:03Z</time>
      </trkpt>
      <trkpt lat="42.7937660" lon="-0.2671450">
        <ele>2597.8</ele>
        <time>2020-09-11T09:39:09Z</time>
      </trkpt>
      <trkpt lat="42.7938280" lon="-0.2671990">
        <ele>2596.6</ele>
        <time>2020-09-11T09:39:13Z</time>
      </trkpt>
      <trkpt lat="42.7938920" lon="-0.2672610">
        <ele>2595.2</ele>
        <time>2020-09-11T09:39:16Z</time>
      </trkpt>
      <trkpt lat="42.7939140" lon="-0.2672770">
        <ele>2594.6</ele>
        <time>2020-09-11T09:39:17Z</time>
      </trkpt>
      <trkpt lat="42.7939370" lon="-0.2672940">
        <ele>2594.0</ele>
        <time>2020-09-11T09:39:18Z</time>
      </trkpt>
      <trkpt lat="42.7939600" lon="-0.2673100">
        <ele>2592.8</ele>
        <time>2020-09-11T09:39:20Z</time>
      </trkpt>
      <trkpt lat="42.7939820" lon="-0.2673260">
        <ele>2591.6</ele>
        <time>2020-09-11T09:39:22Z</time>
      </trkpt>
      <trkpt lat="42.7940050" lon="-0.2673420">
        <ele>2590.2</ele>
        <time>2020-09-11T09:39:24Z</time>
      </trkpt>
      <trkpt lat="42.7940270" lon="-0.2673580">
        <ele>2588.8</ele>
        <time>2020-09-11T09:39:26Z</time>
      </trkpt>
      <trkpt lat="42.7940500" lon="-0.2673740">
        <ele>2587.6</ele>
        <time>2020-09-11T09:39:28Z</time>
      </trkpt>
      <trkpt lat="42.7940730" lon="-0.2673910">
        <ele>2586.0</ele>
        <time>2020-09-11T09:39:31Z</time>
      </trkpt>
      <trkpt lat="42.7940950" lon="-0.2674070">
        <ele>2585.2</ele>
        <time>2020-09-11T09:39:32Z</time>
      </trkpt>
      <trkpt lat="42.7941180" lon="-0.2674230">
        <ele>2584.2</ele>
        <time>2020-09-11T09:39:33Z</time>
      </trkpt>
      <trkpt lat="42.7941300" lon="-0.2674380">
        <ele>2583.4</ele>
        <time>2020-09-11T09:39:34Z</time>
      </trkpt>
      <trkpt lat="42.7941370" lon="-0.2674520">
        <ele>2582.8</ele>
        <time>2020-09-11T09:39:35Z</time>
      </trkpt>
      <trkpt lat="42.7941460" lon="-0.2674830">
        <ele>2581.6</ele>
        <time>2020-09-11T09:39:37Z</time>
      </trkpt>
      <trkpt lat="42.7941530" lon="-0.2675140">
        <ele>2580.2</ele>
        <time>2020-09-11T09:39:39Z</time>
      </trkpt>
      <trkpt lat="42.7941570" lon="-0.2675450">
        <ele>2578.6</ele>
        <time>2020-09-11T09:39:41Z</time>
      </trkpt>
      <trkpt lat="42.7941620" lon="-0.2675790">
        <ele>2577.4</ele>
        <time>2020-09-11T09:39:43Z</time>
      </trkpt>
      <trkpt lat="42.7941820" lon="-0.2676010">
        <ele>2576.4</ele>
        <time>2020-09-11T09:39:45Z</time>
      </trkpt>
      <trkpt lat="42.7941970" lon="-0.2676110">
        <ele>2576.0</ele>
        <time>2020-09-11T09:39:46Z</time>
      </trkpt>
      <trkpt lat="42.7942190" lon="-0.2676390">
        <ele>2575.2</ele>
        <time>2020-09-11T09:39:48Z</time>
      </trkpt>
      <trkpt lat="42.7942250" lon="-0.2676550">
        <ele>2574.8</ele>
        <time>2020-09-11T09:39:49Z</time>
      </trkpt>
      <trkpt lat="42.7942390" lon="-0.2676810">
        <ele>2574.4</ele>
        <time>2020-09-11T09:39:51Z</time>
      </trkpt>
      <trkpt lat="42.7942630" lon="-0.2676990">
        <ele>2573.6</ele>
        <time>2020-09-11T09:39:53Z</time>
      </trkpt>
      <trkpt lat="42.7943090" lon="-0.2677320">
        <ele>2572.4</ele>
        <time>2020-09-11T09:39:56Z</time>
      </trkpt>
      <trkpt lat="42.7943360" lon="-0.2677810">
        <ele>2571.2</ele>
        <time>2020-09-11T09:39:59Z</time>
      </trkpt>
      <trkpt lat="42.7943730" lon="-0.2678250">
        <ele>2570.0</ele>
        <time>2020-09-11T09:40:02Z</time>
      </trkpt>
      <trkpt lat="42.7944170" lon="-0.2678720">
        <ele>2569.0</ele>
        <time>2020-09-11T09:40:06Z</time>
      </trkpt>
      <trkpt lat="42.7944610" lon="-0.2679170">
        <ele>2567.8</ele>
        <time>2020-09-11T09:40:09Z</time>
      </trkpt>
      <trkpt lat="42.7944740" lon="-0.2679370">
        <ele>2566.4</ele>
        <time>2020-09-11T09:40:11Z</time>
      </trkpt>
      <trkpt lat="42.7944880" lon="-0.2679600">
        <ele>2564.8</ele>
        <time>2020-09-11T09:40:13Z</time>
      </trkpt>
      <trkpt lat="42.7945080" lon="-0.2679840">
        <ele>2563.6</ele>
        <time>2020-09-11T09:40:15Z</time>
      </trkpt>
      <trkpt lat="42.7945190" lon="-0.2680140">
        <ele>2562.6</ele>
        <time>2020-09-11T09:40:17Z</time>
      </trkpt>
      <trkpt lat="42.7945510" lon="-0.2680510">
        <ele>2561.4</ele>
        <time>2020-09-11T09:40:20Z</time>
      </trkpt>
      <trkpt lat="42.7946170" lon="-0.2681000">
        <ele>2560.0</ele>
        <time>2020-09-11T09:40:23Z</time>
      </trkpt>
      <trkpt lat="42.7946460" lon="-0.2681190">
        <ele>2558.6</ele>
        <time>2020-09-11T09:40:25Z</time>
      </trkpt>
      <trkpt lat="42.7946500" lon="-0.2681310">
        <ele>2558.0</ele>
        <time>2020-09-11T09:40:26Z</time>
      </trkpt>
      <trkpt lat="42.7946600" lon="-0.2681480">
        <ele>2557.4</ele>
        <time>2020-09-11T09:40:27Z</time>
      </trkpt>
      <trkpt lat="42.7946960" lon="-0.2681880">
        <ele>2556.0</ele>
        <time>2020-09-11T09:40:30Z</time>
      </trkpt>
      <trkpt lat="42.7947410" lon="-0.2682200">
        <ele>2554.6</ele>
        <time>2020-09-11T09:40:33Z</time>
      </trkpt>
      <trkpt lat="42.7947710" lon="-0.2682640">
        <ele>2553.0</ele>
        <time>2020-09-11T09:40:36Z</time>
      </trkpt>
      <trkpt lat="42.7947940" lon="-0.2682830">
        <ele>2551.2</ele>
        <time>2020-09-11T09:40:38Z</time>
      </trkpt>
      <trkpt lat="42.7948160" lon="-0.2683050">
        <ele>2550.0</ele>
        <time>2020-09-11T09:40:40Z</time>
      </trkpt>
      <trkpt lat="42.7948260" lon="-0.2683180">
        <ele>2549.4</ele>
        <time>2020-09-11T09:40:41Z</time>
      </trkpt>
      <trkpt lat="42.7948410" lon="-0.2683270">
        <ele>2548.8</ele>
        <time>2020-09-11T09:40:42Z</time>
      </trkpt>
      <trkpt lat="42.7948740" lon="-0.2683470">
        <ele>2547.8</ele>
        <time>2020-09-11T09:40:44Z</time>
      </trkpt>
      <trkpt lat="42.7949150" lon="-0.2683820">
        <ele>2545.8</ele>
        <time>2020-09-11T09:40:47Z</time>
      </trkpt>
      <trkpt lat="42.7949440" lon="-0.2683910">
        <ele>2544.2</ele>
        <time>2020-09-11T09:40:49Z</time>
      </trkpt>
      <trkpt lat="42.7949740" lon="-0.2684150">
        <ele>2543.0</ele>
        <time>2020-09-11T09:40:51Z</time>
      </trkpt>
      <trkpt lat="42.7950090" lon="-0.2684330">
        <ele>2541.4</ele>
        <time>2020-09-11T09:40:53Z</time>
      </trkpt>
      <trkpt lat="42.7950360" lon="-0.2684610">
        <ele>2539.8</ele>
        <time>2020-09-11T09:40:55Z</time>
      </trkpt>
      <trkpt lat="42.7950740" lon="-0.2684830">
        <ele>2538.8</ele>
        <time>2020-09-11T09:40:57Z</time>
      </trkpt>
      <trkpt lat="42.7951040" lon="-0.2685010">
        <ele>2537.8</ele>
        <time>2020-09-11T09:40:59Z</time>
      </trkpt>
      <trkpt lat="42.7951140" lon="-0.2685340">
        <ele>2536.2</ele>
        <time>2020-09-11T09:41:01Z</time>
      </trkpt>
      <trkpt lat="42.7951270" lon="-0.2685640">
        <ele>2534.8</ele>
        <time>2020-09-11T09:41:03Z</time>
      </trkpt>
      <trkpt lat="42.7951360" lon="-0.2685960">
        <ele>2534.2</ele>
        <time>2020-09-11T09:41:05Z</time>
      </trkpt>
      <trkpt lat="42.7951460" lon="-0.2686060">
        <ele>2533.8</ele>
        <time>2020-09-11T09:41:06Z</time>
      </trkpt>
      <trkpt lat="42.7951720" lon="-0.2686190">
        <ele>2532.8</ele>
        <time>2020-09-11T09:41:08Z</time>
      </trkpt>
      <trkpt lat="42.7951960" lon="-0.2686250">
        <ele>2531.6</ele>
        <time>2020-09-11T09:41:10Z</time>
      </trkpt>
      <trkpt lat="42.7952030" lon="-0.2686390">
        <ele>2530.4</ele>
        <time>2020-09-11T09:41:12Z</time>
      </trkpt>
      <trkpt lat="42.7952160" lon="-0.2686700">
        <ele>2530.0</ele>
        <time>2020-09-11T09:41:14Z</time>
      </trkpt>
      <trkpt lat="42.7952340" lon="-0.2687110">
        <ele>2529.8</ele>
        <time>2020-09-11T09:41:16Z</time>
      </trkpt>
      <trkpt lat="42.7952440" lon="-0.2687270">
        <ele>2529.4</ele>
        <time>2020-09-11T09:41:17Z</time>
      </trkpt>
      <trkpt lat="42.7952520" lon="-0.2687390">
        <ele>2528.8</ele>
        <time>2020-09-11T09:41:18Z</time>
      </trkpt>
      <trkpt lat="42.7952630" lon="-0.2687740">
        <ele>2528.0</ele>
        <time>2020-09-11T09:41:20Z</time>
      </trkpt>
      <trkpt lat="42.7952770" lon="-0.2687840">
        <ele>2527.4</ele>
        <time>2020-09-11T09:41:21Z</time>
      </trkpt>
      <trkpt lat="42.7952910" lon="-0.2687860">
        <ele>2526.8</ele>
        <time>2020-09-11T09:41:22Z</time>
      </trkpt>
      <trkpt lat="42.7953250" lon="-0.2687980">
        <ele>2525.6</ele>
        <time>2020-09-11T09:41:25Z</time>
      </trkpt>
      <trkpt lat="42.7953490" lon="-0.2688210">
        <ele>2524.4</ele>
        <time>2020-09-11T09:41:27Z</time>
      </trkpt>
      <trkpt lat="42.7953650" lon="-0.2688360">
        <ele>2523.2</ele>
        <time>2020-09-11T09:41:29Z</time>
      </trkpt>
      <trkpt lat="42.7953880" lon="-0.2688700">
        <ele>2522.0</ele>
        <time>2020-09-11T09:41:31Z</time>
      </trkpt>
      <trkpt lat="42.7954140" lon="-0.2689070">
        <ele>2520.2</ele>
        <time>2020-09-11T09:41:33Z</time>
      </trkpt>
      <trkpt lat="42.7954210" lon="-0.2689260">
        <ele>2519.0</ele>
        <time>2020-09-11T09:41:34Z</time>
      </trkpt>
      <trkpt lat="42.7954370" lon="-0.2689640">
        <ele>2518.0</ele>
        <time>2020-09-11T09:41:36Z</time>
      </trkpt>
      <trkpt lat="42.7954520" lon="-0.2690070">
        <ele>2516.8</ele>
        <time>2020-09-11T09:41:38Z</time>
      </trkpt>
      <trkpt lat="42.7954700" lon="-0.2690520">
        <ele>2515.6</ele>
        <time>2020-09-11T09:41:40Z</time>
      </trkpt>
      <trkpt lat="42.7954860" lon="-0.2690860">
        <ele>2514.4</ele>
        <time>2020-09-11T09:41:42Z</time>
      </trkpt>
      <trkpt lat="42.7954950" lon="-0.2691190">
        <ele>2513.2</ele>
        <time>2020-09-11T09:41:44Z</time>
      </trkpt>
      <trkpt lat="42.7955080" lon="-0.2691470">
        <ele>2512.0</ele>
        <time>2020-09-11T09:41:47Z</time>
      </trkpt>
      <trkpt lat="42.7955150" lon="-0.2691800">
        <ele>2511.0</ele>
        <time>2020-09-11T09:41:50Z</time>
      </trkpt>
      <trkpt lat="42.7955460" lon="-0.2691970">
        <ele>2510.4</ele>
        <time>2020-09-11T09:41:53Z</time>
      </trkpt>
      <trkpt lat="42.7955660" lon="-0.2692210">
        <ele>2509.8</ele>
        <time>2020-09-11T09:41:55Z</time>
      </trkpt>
      <trkpt lat="42.7955820" lon="-0.2692270">
        <ele>2509.4</ele>
        <time>2020-09-11T09:41:56Z</time>
      </trkpt>
      <trkpt lat="42.7956340" lon="-0.2692720">
        <ele>2509.0</ele>
        <time>2020-09-11T09:42:02Z</time>
      </trkpt>
      <trkpt lat="42.7956520" lon="-0.2692940">
        <ele>2508.6</ele>
        <time>2020-09-11T09:42:04Z</time>
      </trkpt>
      <trkpt lat="42.7956650" lon="-0.2693010">
        <ele>2508.4</ele>
        <time>2020-09-11T09:42:05Z</time>
      </trkpt>
      <trkpt lat="42.7957090" lon="-0.2693080">
        <ele>2507.6</ele>
        <time>2020-09-11T09:42:08Z</time>
      </trkpt>
      <trkpt lat="42.7957210" lon="-0.2693190">
        <ele>2507.4</ele>
        <time>2020-09-11T09:42:09Z</time>
      </trkpt>
      <trkpt lat="42.7957330" lon="-0.2693280">
        <ele>2507.4</ele>
        <time>2020-09-11T09:42:10Z</time>
      </trkpt>
      <trkpt lat="42.7957950" lon="-0.2693600">
        <ele>2506.2</ele>
        <time>2020-09-11T09:42:18Z</time>
      </trkpt>
      <trkpt lat="42.7958100" lon="-0.2693890">
        <ele>2505.6</ele>
        <time>2020-09-11T09:42:21Z</time>
      </trkpt>
      <trkpt lat="42.7958230" lon="-0.2693970">
        <ele>2505.4</ele>
        <time>2020-09-11T09:42:23Z</time>
      </trkpt>
      <trkpt lat="42.7958310" lon="-0.2693990">
        <ele>2505.0</ele>
        <time>2020-09-11T09:42:24Z</time>
      </trkpt>
      <trkpt lat="42.7958340" lon="-0.2694040">
        <ele>2504.8</ele>
        <time>2020-09-11T09:42:25Z</time>
      </trkpt>
      <trkpt lat="42.7958440" lon="-0.2694160">
        <ele>2504.0</ele>
        <time>2020-09-11T09:42:27Z</time>
      </trkpt>
      <trkpt lat="42.7958580" lon="-0.2694350">
        <ele>2503.4</ele>
        <time>2020-09-11T09:42:29Z</time>
      </trkpt>
      <trkpt lat="42.7958640" lon="-0.2694460">
        <ele>2502.8</ele>
        <time>2020-09-11T09:42:30Z</time>
      </trkpt>
      <trkpt lat="42.7958990" lon="-0.2694830">
        <ele>2501.8</ele>
        <time>2020-09-11T09:42:34Z</time>
      </trkpt>
      <trkpt lat="42.7959310" lon="-0.2695220">
        <ele>2500.4</ele>
        <time>2020-09-11T09:42:39Z</time>
      </trkpt>
      <trkpt lat="42.7959380" lon="-0.2695350">
        <ele>2499.8</ele>
        <time>2020-09-11T09:42:41Z</time>
      </trkpt>
      <trkpt lat="42.7959430" lon="-0.2695380">
        <ele>2499.4</ele>
        <time>2020-09-11T09:42:42Z</time>
      </trkpt>
      <trkpt lat="42.7959690" lon="-0.2695510">
        <ele>2498.2</ele>
        <time>2020-09-11T09:42:46Z</time>
      </trkpt>
      <trkpt lat="42.7959900" lon="-0.2695690">
        <ele>2497.0</ele>
        <time>2020-09-11T09:42:48Z</time>
      </trkpt>
      <trkpt lat="42.7960000" lon="-0.2695970">
        <ele>2495.8</ele>
        <time>2020-09-11T09:42:51Z</time>
      </trkpt>
      <trkpt lat="42.7960120" lon="-0.2696100">
        <ele>2494.4</ele>
        <time>2020-09-11T09:42:53Z</time>
      </trkpt>
      <trkpt lat="42.7960300" lon="-0.2696270">
        <ele>2493.2</ele>
        <time>2020-09-11T09:42:56Z</time>
      </trkpt>
      <trkpt lat="42.7960440" lon="-0.2696600">
        <ele>2492.0</ele>
        <time>2020-09-11T09:43:00Z</time>
      </trkpt>
      <trkpt lat="42.7960770" lon="-0.2696890">
        <ele>2490.8</ele>
        <time>2020-09-11T09:43:03Z</time>
      </trkpt>
      <trkpt lat="42.7960960" lon="-0.2697060">
        <ele>2489.2</ele>
        <time>2020-09-11T09:43:05Z</time>
      </trkpt>
      <trkpt lat="42.7961190" lon="-0.2697340">
        <ele>2488.0</ele>
        <time>2020-09-11T09:43:07Z</time>
      </trkpt>
      <trkpt lat="42.7961340" lon="-0.2697830">
        <ele>2486.6</ele>
        <time>2020-09-11T09:43:10Z</time>
      </trkpt>
      <trkpt lat="42.7961350" lon="-0.2698340">
        <ele>2485.4</ele>
        <time>2020-09-11T09:43:13Z</time>
      </trkpt>
      <trkpt lat="42.7961450" lon="-0.2698590">
        <ele>2484.8</ele>
        <time>2020-09-11T09:43:15Z</time>
      </trkpt>
      <trkpt lat="42.7961620" lon="-0.2698810">
        <ele>2484.4</ele>
        <time>2020-09-11T09:43:17Z</time>
      </trkpt>
      <trkpt lat="42.7961700" lon="-0.2698920">
        <ele>2484.2</ele>
        <time>2020-09-11T09:43:18Z</time>
      </trkpt>
      <trkpt lat="42.7961670" lon="-0.2699280">
        <ele>2483.4</ele>
        <time>2020-09-11T09:43:20Z</time>
      </trkpt>
      <trkpt lat="42.7961720" lon="-0.2699860">
        <ele>2482.2</ele>
        <time>2020-09-11T09:43:24Z</time>
      </trkpt>
      <trkpt lat="42.7961950" lon="-0.2700210">
        <ele>2481.8</ele>
        <time>2020-09-11T09:43:27Z</time>
      </trkpt>
      <trkpt lat="42.7962140" lon="-0.2700500">
        <ele>2481.0</ele>
        <time>2020-09-11T09:43:29Z</time>
      </trkpt>
      <trkpt lat="42.7962320" lon="-0.2700860">
        <ele>2479.8</ele>
        <time>2020-09-11T09:43:31Z</time>
      </trkpt>
      <trkpt lat="42.7962500" lon="-0.2701180">
        <ele>2478.4</ele>
        <time>2020-09-11T09:43:33Z</time>
      </trkpt>
      <trkpt lat="42.7962670" lon="-0.2701530">
        <ele>2477.2</ele>
        <time>2020-09-11T09:43:35Z</time>
      </trkpt>
      <trkpt lat="42.7962790" lon="-0.2702020">
        <ele>2476.4</ele>
        <time>2020-09-11T09:43:38Z</time>
      </trkpt>
      <trkpt lat="42.7962840" lon="-0.2702170">
        <ele>2476.0</ele>
        <time>2020-09-11T09:43:39Z</time>
      </trkpt>
      <trkpt lat="42.7962980" lon="-0.2702550">
        <ele>2475.0</ele>
        <time>2020-09-11T09:43:42Z</time>
      </trkpt>
      <trkpt lat="42.7963160" lon="-0.2702850">
        <ele>2473.6</ele>
        <time>2020-09-11T09:43:45Z</time>
      </trkpt>
      <trkpt lat="42.7963230" lon="-0.2702940">
        <ele>2473.2</ele>
        <time>2020-09-11T09:43:46Z</time>
      </trkpt>
      <trkpt lat="42.7963270" lon="-0.2703070">
        <ele>2472.6</ele>
        <time>2020-09-11T09:43:47Z</time>
      </trkpt>
      <trkpt lat="42.7963360" lon="-0.2703170">
        <ele>2472.0</ele>
        <time>2020-09-11T09:43:48Z</time>
      </trkpt>
      <trkpt lat="42.7963410" lon="-0.2703320">
        <ele>2471.4</ele>
        <time>2020-09-11T09:43:49Z</time>
      </trkpt>
      <trkpt lat="42.7963450" lon="-0.2703460">
        <ele>2471.2</ele>
        <time>2020-09-11T09:43:50Z</time>
      </trkpt>
      <trkpt lat="42.7963550" lon="-0.2703750">
        <ele>2470.8</ele>
        <time>2020-09-11T09:43:52Z</time>
      </trkpt>
      <trkpt lat="42.7963640" lon="-0.2703820">
        <ele>2470.4</ele>
        <time>2020-09-11T09:43:53Z</time>
      </trkpt>
      <trkpt lat="42.7963940" lon="-0.2704050">
        <ele>2469.4</ele>
        <time>2020-09-11T09:43:56Z</time>
      </trkpt>
      <trkpt lat="42.7964300" lon="-0.2704300">
        <ele>2468.2</ele>
        <time>2020-09-11T09:44:00Z</time>
      </trkpt>
      <trkpt lat="42.7964430" lon="-0.2704530">
        <ele>2467.4</ele>
        <time>2020-09-11T09:44:03Z</time>
      </trkpt>
      <trkpt lat="42.7964490" lon="-0.2704590">
        <ele>2467.0</ele>
        <time>2020-09-11T09:44:04Z</time>
      </trkpt>
      <trkpt lat="42.7964770" lon="-0.2704860">
        <ele>2466.2</ele>
        <time>2020-09-11T09:44:07Z</time>
      </trkpt>
      <trkpt lat="42.7964870" lon="-0.2704980">
        <ele>2466.0</ele>
        <time>2020-09-11T09:44:08Z</time>
      </trkpt>
      <trkpt lat="42.7965130" lon="-0.2705270">
        <ele>2464.6</ele>
        <time>2020-09-11T09:44:12Z</time>
      </trkpt>
      <trkpt lat="42.7965360" lon="-0.2705540">
        <ele>2463.6</ele>
        <time>2020-09-11T09:44:16Z</time>
      </trkpt>
      <trkpt lat="42.7965440" lon="-0.2705610">
        <ele>2463.2</ele>
        <time>2020-09-11T09:44:17Z</time>
      </trkpt>
      <trkpt lat="42.7965560" lon="-0.2705740">
        <ele>2462.2</ele>
        <time>2020-09-11T09:44:19Z</time>
      </trkpt>
      <trkpt lat="42.7965720" lon="-0.2705900">
        <ele>2461.6</ele>
        <time>2020-09-11T09:44:21Z</time>
      </trkpt>
      <trkpt lat="42.7965860" lon="-0.2705980">
        <ele>2461.2</ele>
        <time>2020-09-11T09:44:22Z</time>
      </trkpt>
      <trkpt lat="42.7966090" lon="-0.2706270">
        <ele>2460.0</ele>
        <time>2020-09-11T09:44:25Z</time>
      </trkpt>
      <trkpt lat="42.7966250" lon="-0.2706580">
        <ele>2459.0</ele>
        <time>2020-09-11T09:44:28Z</time>
      </trkpt>
      <trkpt lat="42.7966390" lon="-0.2706760">
        <ele>2458.6</ele>
        <time>2020-09-11T09:44:30Z</time>
      </trkpt>
      <trkpt lat="42.7966570" lon="-0.2707040">
        <ele>2458.2</ele>
        <time>2020-09-11T09:44:33Z</time>
      </trkpt>
      <trkpt lat="42.7966650" lon="-0.2707190">
        <ele>2457.6</ele>
        <time>2020-09-11T09:44:35Z</time>
      </trkpt>
      <trkpt lat="42.7966700" lon="-0.2707260">
        <ele>2457.2</ele>
        <time>2020-09-11T09:44:36Z</time>
      </trkpt>
      <trkpt lat="42.7966810" lon="-0.2707640">
        <ele>2456.4</ele>
        <time>2020-09-11T09:44:39Z</time>
      </trkpt>
      <trkpt lat="42.7967280" lon="-0.2708230">
        <ele>2455.2</ele>
        <time>2020-09-11T09:44:45Z</time>
      </trkpt>
      <trkpt lat="42.7967340" lon="-0.2708270">
        <ele>2454.8</ele>
        <time>2020-09-11T09:44:46Z</time>
      </trkpt>
      <trkpt lat="42.7967470" lon="-0.2708310">
        <ele>2454.2</ele>
        <time>2020-09-11T09:44:48Z</time>
      </trkpt>
      <trkpt lat="42.7967570" lon="-0.2708470">
        <ele>2453.2</ele>
        <time>2020-09-11T09:44:51Z</time>
      </trkpt>
      <trkpt lat="42.7967590" lon="-0.2708840">
        <ele>2452.2</ele>
        <time>2020-09-11T09:44:57Z</time>
      </trkpt>
      <trkpt lat="42.7967820" lon="-0.2709210">
        <ele>2452.0</ele>
        <time>2020-09-11T09:45:01Z</time>
      </trkpt>
      <trkpt lat="42.7968040" lon="-0.2709290">
        <ele>2451.2</ele>
        <time>2020-09-11T09:45:04Z</time>
      </trkpt>
      <trkpt lat="42.7968200" lon="-0.2709530">
        <ele>2450.8</ele>
        <time>2020-09-11T09:45:06Z</time>
      </trkpt>
      <trkpt lat="42.7968300" lon="-0.2709830">
        <ele>2450.0</ele>
        <time>2020-09-11T09:45:08Z</time>
      </trkpt>
      <trkpt lat="42.7968300" lon="-0.2709970">
        <ele>2449.8</ele>
        <time>2020-09-11T09:45:09Z</time>
      </trkpt>
      <trkpt lat="42.7968330" lon="-0.2710250">
        <ele>2449.2</ele>
        <time>2020-09-11T09:45:11Z</time>
      </trkpt>
      <trkpt lat="42.7968560" lon="-0.2710480">
        <ele>2448.4</ele>
        <time>2020-09-11T09:45:13Z</time>
      </trkpt>
      <trkpt lat="42.7968770" lon="-0.2710650">
        <ele>2448.0</ele>
        <time>2020-09-11T09:45:15Z</time>
      </trkpt>
      <trkpt lat="42.7969010" lon="-0.2711110">
        <ele>2447.4</ele>
        <time>2020-09-11T09:45:18Z</time>
      </trkpt>
      <trkpt lat="42.7969310" lon="-0.2711560">
        <ele>2447.0</ele>
        <time>2020-09-11T09:45:21Z</time>
      </trkpt>
      <trkpt lat="42.7969640" lon="-0.2712040">
        <ele>2446.4</ele>
        <time>2020-09-11T09:45:24Z</time>
      </trkpt>
      <trkpt lat="42.7970000" lon="-0.2712830">
        <ele>2445.2</ele>
        <time>2020-09-11T09:45:28Z</time>
      </trkpt>
      <trkpt lat="42.7970230" lon="-0.2713410">
        <ele>2444.0</ele>
        <time>2020-09-11T09:45:31Z</time>
      </trkpt>
      <trkpt lat="42.7970420" lon="-0.2713750">
        <ele>2442.8</ele>
        <time>2020-09-11T09:45:33Z</time>
      </trkpt>
      <trkpt lat="42.7970760" lon="-0.2714520">
        <ele>2441.6</ele>
        <time>2020-09-11T09:45:37Z</time>
      </trkpt>
      <trkpt lat="42.7970890" lon="-0.2715260">
        <ele>2440.4</ele>
        <time>2020-09-11T09:45:41Z</time>
      </trkpt>
      <trkpt lat="42.7970910" lon="-0.2715660">
        <ele>2440.0</ele>
        <time>2020-09-11T09:45:43Z</time>
      </trkpt>
      <trkpt lat="42.7971150" lon="-0.2716010">
        <ele>2439.2</ele>
        <time>2020-09-11T09:45:46Z</time>
      </trkpt>
      <trkpt lat="42.7970980" lon="-0.2716510">
        <ele>2438.0</ele>
        <time>2020-09-11T09:45:49Z</time>
      </trkpt>
      <trkpt lat="42.7971060" lon="-0.2717250">
        <ele>2437.0</ele>
        <time>2020-09-11T09:45:53Z</time>
      </trkpt>
      <trkpt lat="42.7971730" lon="-0.2718640">
        <ele>2436.0</ele>
        <time>2020-09-11T09:46:02Z</time>
      </trkpt>
      <trkpt lat="42.7971950" lon="-0.2719080">
        <ele>2435.0</ele>
        <time>2020-09-11T09:46:05Z</time>
      </trkpt>
      <trkpt lat="42.7972060" lon="-0.2719650">
        <ele>2434.4</ele>
        <time>2020-09-11T09:46:08Z</time>
      </trkpt>
      <trkpt lat="42.7971880" lon="-0.2720550">
        <ele>2433.8</ele>
        <time>2020-09-11T09:46:13Z</time>
      </trkpt>
      <trkpt lat="42.7971700" lon="-0.2721240">
        <ele>2432.6</ele>
        <time>2020-09-11T09:46:17Z</time>
      </trkpt>
      <trkpt lat="42.7971650" lon="-0.2721510">
        <ele>2432.0</ele>
        <time>2020-09-11T09:46:19Z</time>
      </trkpt>
      <trkpt lat="42.7971430" lon="-0.2721720">
        <ele>2431.4</ele>
        <time>2020-09-11T09:46:21Z</time>
      </trkpt>
      <trkpt lat="42.7971310" lon="-0.2721980">
        <ele>2431.2</ele>
        <time>2020-09-11T09:46:23Z</time>
      </trkpt>
      <trkpt lat="42.7971490" lon="-0.2722340">
        <ele>2430.4</ele>
        <time>2020-09-11T09:46:26Z</time>
      </trkpt>
      <trkpt lat="42.7971630" lon="-0.2722410">
        <ele>2430.2</ele>
        <time>2020-09-11T09:46:27Z</time>
      </trkpt>
      <trkpt lat="42.7972610" lon="-0.2722640">
        <ele>2429.2</ele>
        <time>2020-09-11T09:46:33Z</time>
      </trkpt>
      <trkpt lat="42.7973060" lon="-0.2722660">
        <ele>2428.2</ele>
        <time>2020-09-11T09:46:36Z</time>
      </trkpt>
      <trkpt lat="42.7973500" lon="-0.2722780">
        <ele>2427.2</ele>
        <time>2020-09-11T09:46:40Z</time>
      </trkpt>
      <trkpt lat="42.7973820" lon="-0.2722930">
        <ele>2425.8</ele>
        <time>2020-09-11T09:46:43Z</time>
      </trkpt>
      <trkpt lat="42.7974000" lon="-0.2722980">
        <ele>2425.2</ele>
        <time>2020-09-11T09:46:45Z</time>
      </trkpt>
      <trkpt lat="42.7974080" lon="-0.2723040">
        <ele>2424.8</ele>
        <time>2020-09-11T09:46:46Z</time>
      </trkpt>
      <trkpt lat="42.7974310" lon="-0.2723140">
        <ele>2423.8</ele>
        <time>2020-09-11T09:46:48Z</time>
      </trkpt>
      <trkpt lat="42.7974500" lon="-0.2723540">
        <ele>2422.4</ele>
        <time>2020-09-11T09:46:51Z</time>
      </trkpt>
      <trkpt lat="42.7974750" lon="-0.2723690">
        <ele>2421.4</ele>
        <time>2020-09-11T09:46:55Z</time>
      </trkpt>
      <trkpt lat="42.7974790" lon="-0.2723930">
        <ele>2420.2</ele>
        <time>2020-09-11T09:46:58Z</time>
      </trkpt>
      <trkpt lat="42.7974860" lon="-0.2724060">
        <ele>2420.0</ele>
        <time>2020-09-11T09:46:59Z</time>
      </trkpt>
      <trkpt lat="42.7975040" lon="-0.2724180">
        <ele>2419.6</ele>
        <time>2020-09-11T09:47:01Z</time>
      </trkpt>
      <trkpt lat="42.7975220" lon="-0.2724180">
        <ele>2419.0</ele>
        <time>2020-09-11T09:47:03Z</time>
      </trkpt>
      <trkpt lat="42.7975380" lon="-0.2724160">
        <ele>2418.6</ele>
        <time>2020-09-11T09:47:05Z</time>
      </trkpt>
      <trkpt lat="42.7975720" lon="-0.2724400">
        <ele>2418.0</ele>
        <time>2020-09-11T09:47:09Z</time>
      </trkpt>
      <trkpt lat="42.7975910" lon="-0.2724490">
        <ele>2417.2</ele>
        <time>2020-09-11T09:47:11Z</time>
      </trkpt>
      <trkpt lat="42.7975980" lon="-0.2724590">
        <ele>2416.6</ele>
        <time>2020-09-11T09:47:12Z</time>
      </trkpt>
      <trkpt lat="42.7976160" lon="-0.2724830">
        <ele>2415.8</ele>
        <time>2020-09-11T09:47:14Z</time>
      </trkpt>
      <trkpt lat="42.7976250" lon="-0.2724890">
        <ele>2415.4</ele>
        <time>2020-09-11T09:47:15Z</time>
      </trkpt>
      <trkpt lat="42.7976300" lon="-0.2725000">
        <ele>2415.2</ele>
        <time>2020-09-11T09:47:16Z</time>
      </trkpt>
      <trkpt lat="42.7976450" lon="-0.2725550">
        <ele>2414.4</ele>
        <time>2020-09-11T09:47:20Z</time>
      </trkpt>
      <trkpt lat="42.7976570" lon="-0.2725770">
        <ele>2414.0</ele>
        <time>2020-09-11T09:47:22Z</time>
      </trkpt>
      <trkpt lat="42.7976630" lon="-0.2725920">
        <ele>2413.2</ele>
        <time>2020-09-11T09:47:24Z</time>
      </trkpt>
      <trkpt lat="42.7976650" lon="-0.2726320">
        <ele>2412.2</ele>
        <time>2020-09-11T09:47:27Z</time>
      </trkpt>
      <trkpt lat="42.7976710" lon="-0.2726470">
        <ele>2412.0</ele>
        <time>2020-09-11T09:47:28Z</time>
      </trkpt>
      <trkpt lat="42.7976830" lon="-0.2727190">
        <ele>2411.6</ele>
        <time>2020-09-11T09:47:32Z</time>
      </trkpt>
      <trkpt lat="42.7976800" lon="-0.2727550">
        <ele>2410.8</ele>
        <time>2020-09-11T09:47:34Z</time>
      </trkpt>
      <trkpt lat="42.7976830" lon="-0.2727730">
        <ele>2410.2</ele>
        <time>2020-09-11T09:47:35Z</time>
      </trkpt>
      <trkpt lat="42.7976900" lon="-0.2728040">
        <ele>2409.6</ele>
        <time>2020-09-11T09:47:37Z</time>
      </trkpt>
      <trkpt lat="42.7976990" lon="-0.2728260">
        <ele>2409.2</ele>
        <time>2020-09-11T09:47:39Z</time>
      </trkpt>
      <trkpt lat="42.7977110" lon="-0.2728460">
        <ele>2408.2</ele>
        <time>2020-09-11T09:47:41Z</time>
      </trkpt>
      <trkpt lat="42.7977000" lon="-0.2728960">
        <ele>2407.2</ele>
        <time>2020-09-11T09:47:45Z</time>
      </trkpt>
      <trkpt lat="42.7976910" lon="-0.2729210">
        <ele>2406.0</ele>
        <time>2020-09-11T09:47:48Z</time>
      </trkpt>
      <trkpt lat="42.7976900" lon="-0.2729320">
        <ele>2405.2</ele>
        <time>2020-09-11T09:47:50Z</time>
      </trkpt>
      <trkpt lat="42.7976980" lon="-0.2729390">
        <ele>2405.0</ele>
        <time>2020-09-11T09:47:51Z</time>
      </trkpt>
      <trkpt lat="42.7977000" lon="-0.2729500">
        <ele>2404.8</ele>
        <time>2020-09-11T09:47:52Z</time>
      </trkpt>
      <trkpt lat="42.7977040" lon="-0.2729740">
        <ele>2404.4</ele>
        <time>2020-09-11T09:47:54Z</time>
      </trkpt>
      <trkpt lat="42.7976980" lon="-0.2730110">
        <ele>2404.2</ele>
        <time>2020-09-11T09:47:56Z</time>
      </trkpt>
      <trkpt lat="42.7976930" lon="-0.2730310">
        <ele>2403.8</ele>
        <time>2020-09-11T09:47:57Z</time>
      </trkpt>
      <trkpt lat="42.7976880" lon="-0.2730660">
        <ele>2402.8</ele>
        <time>2020-09-11T09:47:59Z</time>
      </trkpt>
      <trkpt lat="42.7976880" lon="-0.2730830">
        <ele>2402.2</ele>
        <time>2020-09-11T09:48:00Z</time>
      </trkpt>
      <trkpt lat="42.7977000" lon="-0.2730990">
        <ele>2401.2</ele>
        <time>2020-09-11T09:48:02Z</time>
      </trkpt>
      <trkpt lat="42.7976990" lon="-0.2731540">
        <ele>2400.2</ele>
        <time>2020-09-11T09:48:07Z</time>
      </trkpt>
      <trkpt lat="42.7976980" lon="-0.2731690">
        <ele>2400.0</ele>
        <time>2020-09-11T09:48:08Z</time>
      </trkpt>
      <trkpt lat="42.7977200" lon="-0.2732550">
        <ele>2398.8</ele>
        <time>2020-09-11T09:48:12Z</time>
      </trkpt>
      <trkpt lat="42.7977390" lon="-0.2732850">
        <ele>2397.4</ele>
        <time>2020-09-11T09:48:15Z</time>
      </trkpt>
      <trkpt lat="42.7977430" lon="-0.2732990">
        <ele>2397.0</ele>
        <time>2020-09-11T09:48:16Z</time>
      </trkpt>
      <trkpt lat="42.7977570" lon="-0.2733190">
        <ele>2396.2</ele>
        <time>2020-09-11T09:48:18Z</time>
      </trkpt>
      <trkpt lat="42.7977730" lon="-0.2733310">
        <ele>2395.6</ele>
        <time>2020-09-11T09:48:21Z</time>
      </trkpt>
      <trkpt lat="42.7977820" lon="-0.2733640">
        <ele>2395.6</ele>
        <time>2020-09-11T09:48:24Z</time>
      </trkpt>
      <trkpt lat="42.7977980" lon="-0.2733930">
        <ele>2396.0</ele>
        <time>2020-09-11T09:48:26Z</time>
      </trkpt>
      <trkpt lat="42.7978920" lon="-0.2735220">
        <ele>2395.6</ele>
        <time>2020-09-11T09:48:36Z</time>
      </trkpt>
      <trkpt lat="42.7979720" lon="-0.2735490">
        <ele>2397.2</ele>
        <time>2020-09-11T09:48:43Z</time>
      </trkpt>
      <trkpt lat="42.7980860" lon="-0.2735990">
        <ele>2396.8</ele>
        <time>2020-09-11T09:48:54Z</time>
      </trkpt>
      <trkpt lat="42.7981230" lon="-0.2736010">
        <ele>2396.2</ele>
        <time>2020-09-11T09:48:59Z</time>
      </trkpt>
      <trkpt lat="42.7981400" lon="-0.2736000">
        <ele>2395.8</ele>
        <time>2020-09-11T09:49:00Z</time>
      </trkpt>
      <trkpt lat="42.7981690" lon="-0.2735990">
        <ele>2395.0</ele>
        <time>2020-09-11T09:49:02Z</time>
      </trkpt>
      <trkpt lat="42.7983550" lon="-0.2736550">
        <ele>2394.2</ele>
        <time>2020-09-11T09:49:15Z</time>
      </trkpt>
      <trkpt lat="42.7984410" lon="-0.2736700">
        <ele>2394.0</ele>
        <time>2020-09-11T09:49:21Z</time>
      </trkpt>
      <trkpt lat="42.7984530" lon="-0.2736780">
        <ele>2394.0</ele>
        <time>2020-09-11T09:49:22Z</time>
      </trkpt>
      <trkpt lat="42.7986350" lon="-0.2737330">
        <ele>2394.0</ele>
        <time>2020-09-11T09:49:37Z</time>
      </trkpt>
      <trkpt lat="42.7987360" lon="-0.2737850">
        <ele>2395.0</ele>
        <time>2020-09-11T09:49:44Z</time>
      </trkpt>
      <trkpt lat="42.7988190" lon="-0.2738480">
        <ele>2394.0</ele>
        <time>2020-09-11T09:49:51Z</time>
      </trkpt>
      <trkpt lat="42.7988750" lon="-0.2739240">
        <ele>2393.0</ele>
        <time>2020-09-11T09:49:56Z</time>
      </trkpt>
      <trkpt lat="42.7989440" lon="-0.2739600">
        <ele>2391.8</ele>
        <time>2020-09-11T09:50:01Z</time>
      </trkpt>
      <trkpt lat="42.7991240" lon="-0.2739910">
        <ele>2392.2</ele>
        <time>2020-09-11T09:50:13Z</time>
      </trkpt>
      <trkpt lat="42.7993180" lon="-0.2739980">
        <ele>2391.6</ele>
        <time>2020-09-11T09:50:26Z</time>
      </trkpt>
      <trkpt lat="42.7995000" lon="-0.2739850">
        <ele>2391.4</ele>
        <time>2020-09-11T09:50:38Z</time>
      </trkpt>
      <trkpt lat="42.7996850" lon="-0.2740420">
        <ele>2391.8</ele>
        <time>2020-09-11T09:50:51Z</time>
      </trkpt>
      <trkpt lat="42.7998580" lon="-0.2740720">
        <ele>2391.6</ele>
        <time>2020-09-11T09:51:04Z</time>
      </trkpt>
      <trkpt lat="42.7999160" lon="-0.2740850">
        <ele>2391.4</ele>
        <time>2020-09-11T09:51:08Z</time>
      </trkpt>
      <trkpt lat="42.8000250" lon="-0.2740810">
        <ele>2391.2</ele>
        <time>2020-09-11T09:51:16Z</time>
      </trkpt>
      <trkpt lat="42.8002120" lon="-0.2740440">
        <ele>2392.8</ele>
        <time>2020-09-11T09:51:32Z</time>
      </trkpt>
      <trkpt lat="42.8002240" lon="-0.2740420">
        <ele>2393.0</ele>
        <time>2020-09-11T09:51:33Z</time>
      </trkpt>
      <trkpt lat="42.8003960" lon="-0.2741100">
        <ele>2391.8</ele>
        <time>2020-09-11T09:51:48Z</time>
      </trkpt>
      <trkpt lat="42.8004300" lon="-0.2741290">
        <ele>2390.6</ele>
        <time>2020-09-11T09:51:51Z</time>
      </trkpt>
      <trkpt lat="42.8005660" lon="-0.2741150">
        <ele>2389.4</ele>
        <time>2020-09-11T09:52:01Z</time>
      </trkpt>
      <trkpt lat="42.8006410" lon="-0.2740510">
        <ele>2388.2</ele>
        <time>2020-09-11T09:52:09Z</time>
      </trkpt>
      <trkpt lat="42.8006760" lon="-0.2740390">
        <ele>2387.2</ele>
        <time>2020-09-11T09:52:12Z</time>
      </trkpt>
      <trkpt lat="42.8007130" lon="-0.2740580">
        <ele>2386.2</ele>
        <time>2020-09-11T09:52:16Z</time>
      </trkpt>
      <trkpt lat="42.8007390" lon="-0.2740650">
        <ele>2385.2</ele>
        <time>2020-09-11T09:52:18Z</time>
      </trkpt>
      <trkpt lat="42.8007500" lon="-0.2740640">
        <ele>2384.8</ele>
        <time>2020-09-11T09:52:19Z</time>
      </trkpt>
      <trkpt lat="42.8007750" lon="-0.2740750">
        <ele>2383.8</ele>
        <time>2020-09-11T09:52:22Z</time>
      </trkpt>
      <trkpt lat="42.8007890" lon="-0.2740790">
        <ele>2383.0</ele>
        <time>2020-09-11T09:52:24Z</time>
      </trkpt>
      <trkpt lat="42.8007920" lon="-0.2740850">
        <ele>2382.6</ele>
        <time>2020-09-11T09:52:25Z</time>
      </trkpt>
      <trkpt lat="42.8008150" lon="-0.2741080">
        <ele>2381.8</ele>
        <time>2020-09-11T09:52:28Z</time>
      </trkpt>
      <trkpt lat="42.8008260" lon="-0.2741190">
        <ele>2381.4</ele>
        <time>2020-09-11T09:52:29Z</time>
      </trkpt>
      <trkpt lat="42.8008380" lon="-0.2741620">
        <ele>2380.0</ele>
        <time>2020-09-11T09:52:33Z</time>
      </trkpt>
      <trkpt lat="42.8008430" lon="-0.2741720">
        <ele>2379.6</ele>
        <time>2020-09-11T09:52:34Z</time>
      </trkpt>
      <trkpt lat="42.8008420" lon="-0.2741940">
        <ele>2378.8</ele>
        <time>2020-09-11T09:52:36Z</time>
      </trkpt>
      <trkpt lat="42.8008410" lon="-0.2742220">
        <ele>2378.0</ele>
        <time>2020-09-11T09:52:38Z</time>
      </trkpt>
      <trkpt lat="42.8008450" lon="-0.2742320">
        <ele>2377.6</ele>
        <time>2020-09-11T09:52:39Z</time>
      </trkpt>
      <trkpt lat="42.8008660" lon="-0.2742480">
        <ele>2376.6</ele>
        <time>2020-09-11T09:52:42Z</time>
      </trkpt>
      <trkpt lat="42.8008850" lon="-0.2742940">
        <ele>2375.4</ele>
        <time>2020-09-11T09:52:46Z</time>
      </trkpt>
      <trkpt lat="42.8008910" lon="-0.2743350">
        <ele>2374.2</ele>
        <time>2020-09-11T09:52:49Z</time>
      </trkpt>
      <trkpt lat="42.8008900" lon="-0.2743480">
        <ele>2373.6</ele>
        <time>2020-09-11T09:52:50Z</time>
      </trkpt>
      <trkpt lat="42.8008900" lon="-0.2743600">
        <ele>2372.8</ele>
        <time>2020-09-11T09:52:52Z</time>
      </trkpt>
      <trkpt lat="42.8008830" lon="-0.2743980">
        <ele>2371.4</ele>
        <time>2020-09-11T09:52:56Z</time>
      </trkpt>
      <trkpt lat="42.8008900" lon="-0.2744450">
        <ele>2370.4</ele>
        <time>2020-09-11T09:53:00Z</time>
      </trkpt>
      <trkpt lat="42.8008830" lon="-0.2745200">
        <ele>2369.0</ele>
        <time>2020-09-11T09:53:05Z</time>
      </trkpt>
      <trkpt lat="42.8008810" lon="-0.2745690">
        <ele>2368.0</ele>
        <time>2020-09-11T09:53:08Z</time>
      </trkpt>
      <trkpt lat="42.8008830" lon="-0.2745970">
        <ele>2367.2</ele>
        <time>2020-09-11T09:53:10Z</time>
      </trkpt>
      <trkpt lat="42.8008880" lon="-0.2746060">
        <ele>2366.8</ele>
        <time>2020-09-11T09:53:11Z</time>
      </trkpt>
      <trkpt lat="42.8008950" lon="-0.2746220">
        <ele>2366.0</ele>
        <time>2020-09-11T09:53:13Z</time>
      </trkpt>
      <trkpt lat="42.8008970" lon="-0.2746430">
        <ele>2365.6</ele>
        <time>2020-09-11T09:53:15Z</time>
      </trkpt>
      <trkpt lat="42.8009110" lon="-0.2746880">
        <ele>2364.4</ele>
        <time>2020-09-11T09:53:18Z</time>
      </trkpt>
      <trkpt lat="42.8009220" lon="-0.2747340">
        <ele>2363.2</ele>
        <time>2020-09-11T09:53:21Z</time>
      </trkpt>
      <trkpt lat="42.8009240" lon="-0.2747480">
        <ele>2363.0</ele>
        <time>2020-09-11T09:53:22Z</time>
      </trkpt>
      <trkpt lat="42.8009250" lon="-0.2747940">
        <ele>2362.0</ele>
        <time>2020-09-11T09:53:25Z</time>
      </trkpt>
      <trkpt lat="42.8009310" lon="-0.2748230">
        <ele>2361.4</ele>
        <time>2020-09-11T09:53:27Z</time>
      </trkpt>
      <trkpt lat="42.8009260" lon="-0.2748560">
        <ele>2360.6</ele>
        <time>2020-09-11T09:53:29Z</time>
      </trkpt>
      <trkpt lat="42.8009240" lon="-0.2748980">
        <ele>2359.4</ele>
        <time>2020-09-11T09:53:32Z</time>
      </trkpt>
      <trkpt lat="42.8009300" lon="-0.2749350">
        <ele>2358.2</ele>
        <time>2020-09-11T09:53:35Z</time>
      </trkpt>
      <trkpt lat="42.8009540" lon="-0.2749700">
        <ele>2357.2</ele>
        <time>2020-09-11T09:53:38Z</time>
      </trkpt>
      <trkpt lat="42.8009700" lon="-0.2749740">
        <ele>2355.8</ele>
        <time>2020-09-11T09:53:41Z</time>
      </trkpt>
      <trkpt lat="42.8009710" lon="-0.2749770">
        <ele>2354.6</ele>
        <time>2020-09-11T09:53:44Z</time>
      </trkpt>
      <trkpt lat="42.8009980" lon="-0.2750410">
        <ele>2353.8</ele>
        <time>2020-09-11T09:53:49Z</time>
      </trkpt>
      <trkpt lat="42.8010090" lon="-0.2750700">
        <ele>2353.2</ele>
        <time>2020-09-11T09:53:51Z</time>
      </trkpt>
      <trkpt lat="42.8010360" lon="-0.2750790">
        <ele>2352.0</ele>
        <time>2020-09-11T09:53:54Z</time>
      </trkpt>
      <trkpt lat="42.8010410" lon="-0.2751000">
        <ele>2351.2</ele>
        <time>2020-09-11T09:53:56Z</time>
      </trkpt>
      <trkpt lat="42.8010390" lon="-0.2751130">
        <ele>2351.0</ele>
        <time>2020-09-11T09:53:57Z</time>
      </trkpt>
      <trkpt lat="42.8010400" lon="-0.2751400">
        <ele>2350.0</ele>
        <time>2020-09-11T09:53:59Z</time>
      </trkpt>
      <trkpt lat="42.8010470" lon="-0.2751510">
        <ele>2349.4</ele>
        <time>2020-09-11T09:54:00Z</time>
      </trkpt>
      <trkpt lat="42.8010530" lon="-0.2751610">
        <ele>2349.0</ele>
        <time>2020-09-11T09:54:01Z</time>
      </trkpt>
      <trkpt lat="42.8010700" lon="-0.2752060">
        <ele>2348.4</ele>
        <time>2020-09-11T09:54:04Z</time>
      </trkpt>
      <trkpt lat="42.8010820" lon="-0.2752510">
        <ele>2347.4</ele>
        <time>2020-09-11T09:54:07Z</time>
      </trkpt>
      <trkpt lat="42.8010860" lon="-0.2752630">
        <ele>2347.0</ele>
        <time>2020-09-11T09:54:08Z</time>
      </trkpt>
      <trkpt lat="42.8011070" lon="-0.2753040">
        <ele>2346.0</ele>
        <time>2020-09-11T09:54:11Z</time>
      </trkpt>
      <trkpt lat="42.8011250" lon="-0.2753430">
        <ele>2345.0</ele>
        <time>2020-09-11T09:54:14Z</time>
      </trkpt>
      <trkpt lat="42.8011380" lon="-0.2753890">
        <ele>2343.8</ele>
        <time>2020-09-11T09:54:17Z</time>
      </trkpt>
      <trkpt lat="42.8011720" lon="-0.2754520">
        <ele>2342.6</ele>
        <time>2020-09-11T09:54:22Z</time>
      </trkpt>
      <trkpt lat="42.8012450" lon="-0.2755520">
        <ele>2341.6</ele>
        <time>2020-09-11T09:54:29Z</time>
      </trkpt>
      <trkpt lat="42.8013180" lon="-0.2756400">
        <ele>2340.6</ele>
        <time>2020-09-11T09:54:36Z</time>
      </trkpt>
      <trkpt lat="42.8014140" lon="-0.2757660">
        <ele>2339.4</ele>
        <time>2020-09-11T09:54:46Z</time>
      </trkpt>
      <trkpt lat="42.8014540" lon="-0.2758210">
        <ele>2338.2</ele>
        <time>2020-09-11T09:54:50Z</time>
      </trkpt>
      <trkpt lat="42.8015410" lon="-0.2758310">
        <ele>2337.2</ele>
        <time>2020-09-11T09:54:57Z</time>
      </trkpt>
      <trkpt lat="42.8015650" lon="-0.2758320">
        <ele>2336.6</ele>
        <time>2020-09-11T09:54:59Z</time>
      </trkpt>
      <trkpt lat="42.8015820" lon="-0.2758450">
        <ele>2336.2</ele>
        <time>2020-09-11T09:55:01Z</time>
      </trkpt>
      <trkpt lat="42.8016350" lon="-0.2758620">
        <ele>2334.8</ele>
        <time>2020-09-11T09:55:05Z</time>
      </trkpt>
      <trkpt lat="42.8016860" lon="-0.2759090">
        <ele>2333.6</ele>
        <time>2020-09-11T09:55:09Z</time>
      </trkpt>
      <trkpt lat="42.8017060" lon="-0.2759090">
        <ele>2332.4</ele>
        <time>2020-09-11T09:55:11Z</time>
      </trkpt>
      <trkpt lat="42.8017320" lon="-0.2759080">
        <ele>2331.0</ele>
        <time>2020-09-11T09:55:14Z</time>
      </trkpt>
      <trkpt lat="42.8017540" lon="-0.2759060">
        <ele>2329.8</ele>
        <time>2020-09-11T09:55:16Z</time>
      </trkpt>
      <trkpt lat="42.8017730" lon="-0.2758920">
        <ele>2328.8</ele>
        <time>2020-09-11T09:55:18Z</time>
      </trkpt>
      <trkpt lat="42.8018010" lon="-0.2758780">
        <ele>2327.6</ele>
        <time>2020-09-11T09:55:21Z</time>
      </trkpt>
      <trkpt lat="42.8018350" lon="-0.2758620">
        <ele>2326.2</ele>
        <time>2020-09-11T09:55:24Z</time>
      </trkpt>
      <trkpt lat="42.8018710" lon="-0.2758550">
        <ele>2325.2</ele>
        <time>2020-09-11T09:55:27Z</time>
      </trkpt>
      <trkpt lat="42.8019250" lon="-0.2758340">
        <ele>2323.6</ele>
        <time>2020-09-11T09:55:32Z</time>
      </trkpt>
      <trkpt lat="42.8019480" lon="-0.2758350">
        <ele>2322.6</ele>
        <time>2020-09-11T09:55:34Z</time>
      </trkpt>
      <trkpt lat="42.8019650" lon="-0.2758360">
        <ele>2321.4</ele>
        <time>2020-09-11T09:55:36Z</time>
      </trkpt>
      <trkpt lat="42.8019790" lon="-0.2758460">
        <ele>2320.8</ele>
        <time>2020-09-11T09:55:38Z</time>
      </trkpt>
      <trkpt lat="42.8019940" lon="-0.2758420">
        <ele>2320.4</ele>
        <time>2020-09-11T09:55:40Z</time>
      </trkpt>
      <trkpt lat="42.8020110" lon="-0.2758280">
        <ele>2319.8</ele>
        <time>2020-09-11T09:55:42Z</time>
      </trkpt>
      <trkpt lat="42.8020340" lon="-0.2758240">
        <ele>2319.2</ele>
        <time>2020-09-11T09:55:44Z</time>
      </trkpt>
      <trkpt lat="42.8020660" lon="-0.2758270">
        <ele>2317.6</ele>
        <time>2020-09-11T09:55:47Z</time>
      </trkpt>
      <trkpt lat="42.8020810" lon="-0.2758730">
        <ele>2316.4</ele>
        <time>2020-09-11T09:55:50Z</time>
      </trkpt>
      <trkpt lat="42.8020930" lon="-0.2758790">
        <ele>2315.8</ele>
        <time>2020-09-11T09:55:52Z</time>
      </trkpt>
      <trkpt lat="42.8021190" lon="-0.2758800">
        <ele>2315.2</ele>
        <time>2020-09-11T09:55:54Z</time>
      </trkpt>
      <trkpt lat="42.8021320" lon="-0.2758800">
        <ele>2315.0</ele>
        <time>2020-09-11T09:55:55Z</time>
      </trkpt>
      <trkpt lat="42.8021770" lon="-0.2758840">
        <ele>2313.6</ele>
        <time>2020-09-11T09:55:58Z</time>
      </trkpt>
      <trkpt lat="42.8022080" lon="-0.2758540">
        <ele>2312.4</ele>
        <time>2020-09-11T09:56:01Z</time>
      </trkpt>
      <trkpt lat="42.8022330" lon="-0.2758170">
        <ele>2311.2</ele>
        <time>2020-09-11T09:56:04Z</time>
      </trkpt>
      <trkpt lat="42.8022370" lon="-0.2757990">
        <ele>2310.0</ele>
        <time>2020-09-11T09:56:06Z</time>
      </trkpt>
      <trkpt lat="42.8022440" lon="-0.2757560">
        <ele>2308.8</ele>
        <time>2020-09-11T09:56:10Z</time>
      </trkpt>
      <trkpt lat="42.8022410" lon="-0.2756910">
        <ele>2307.6</ele>
        <time>2020-09-11T09:56:15Z</time>
      </trkpt>
      <trkpt lat="42.8022340" lon="-0.2756650">
        <ele>2306.4</ele>
        <time>2020-09-11T09:56:17Z</time>
      </trkpt>
      <trkpt lat="42.8022240" lon="-0.2756180">
        <ele>2305.2</ele>
        <time>2020-09-11T09:56:20Z</time>
      </trkpt>
      <trkpt lat="42.8022220" lon="-0.2755720">
        <ele>2304.0</ele>
        <time>2020-09-11T09:56:23Z</time>
      </trkpt>
      <trkpt lat="42.8022220" lon="-0.2755580">
        <ele>2303.6</ele>
        <time>2020-09-11T09:56:24Z</time>
      </trkpt>
      <trkpt lat="42.8022400" lon="-0.2755210">
        <ele>2303.0</ele>
        <time>2020-09-11T09:56:27Z</time>
      </trkpt>
      <trkpt lat="42.8022910" lon="-0.2754430">
        <ele>2301.6</ele>
        <time>2020-09-11T09:56:33Z</time>
      </trkpt>
      <trkpt lat="42.8023000" lon="-0.2754220">
        <ele>2300.8</ele>
        <time>2020-09-11T09:56:35Z</time>
      </trkpt>
      <trkpt lat="42.8023050" lon="-0.2754190">
        <ele>2300.2</ele>
        <time>2020-09-11T09:56:36Z</time>
      </trkpt>
      <trkpt lat="42.8023210" lon="-0.2754210">
        <ele>2299.0</ele>
        <time>2020-09-11T09:56:38Z</time>
      </trkpt>
      <trkpt lat="42.8023370" lon="-0.2754310">
        <ele>2298.0</ele>
        <time>2020-09-11T09:56:40Z</time>
      </trkpt>
      <trkpt lat="42.8023600" lon="-0.2754150">
        <ele>2296.8</ele>
        <time>2020-09-11T09:56:43Z</time>
      </trkpt>
      <trkpt lat="42.8023880" lon="-0.2752980">
        <ele>2295.8</ele>
        <time>2020-09-11T09:56:50Z</time>
      </trkpt>
      <trkpt lat="42.8024000" lon="-0.2752710">
        <ele>2295.2</ele>
        <time>2020-09-11T09:56:53Z</time>
      </trkpt>
      <trkpt lat="42.8024140" lon="-0.2752600">
        <ele>2294.6</ele>
        <time>2020-09-11T09:56:55Z</time>
      </trkpt>
      <trkpt lat="42.8024110" lon="-0.2752210">
        <ele>2293.4</ele>
        <time>2020-09-11T09:56:59Z</time>
      </trkpt>
      <trkpt lat="42.8024130" lon="-0.2752020">
        <ele>2293.0</ele>
        <time>2020-09-11T09:57:01Z</time>
      </trkpt>
      <trkpt lat="42.8024120" lon="-0.2751880">
        <ele>2292.8</ele>
        <time>2020-09-11T09:57:03Z</time>
      </trkpt>
      <trkpt lat="42.8024100" lon="-0.2751740">
        <ele>2292.4</ele>
        <time>2020-09-11T09:57:06Z</time>
      </trkpt>
      <trkpt lat="42.8024410" lon="-0.2751280">
        <ele>2291.8</ele>
        <time>2020-09-11T09:57:14Z</time>
      </trkpt>
      <trkpt lat="42.8024450" lon="-0.2750510">
        <ele>2291.2</ele>
        <time>2020-09-11T09:57:18Z</time>
      </trkpt>
      <trkpt lat="42.8024530" lon="-0.2750340">
        <ele>2290.8</ele>
        <time>2020-09-11T09:57:20Z</time>
      </trkpt>
      <trkpt lat="42.8024660" lon="-0.2750200">
        <ele>2290.2</ele>
        <time>2020-09-11T09:57:23Z</time>
      </trkpt>
      <trkpt lat="42.8024880" lon="-0.2749890">
        <ele>2289.0</ele>
        <time>2020-09-11T09:57:27Z</time>
      </trkpt>
      <trkpt lat="42.8025000" lon="-0.2750120">
        <ele>2287.6</ele>
        <time>2020-09-11T09:57:30Z</time>
      </trkpt>
      <trkpt lat="42.8025090" lon="-0.2750550">
        <ele>2286.6</ele>
        <time>2020-09-11T09:57:33Z</time>
      </trkpt>
      <trkpt lat="42.8025250" lon="-0.2750680">
        <ele>2285.4</ele>
        <time>2020-09-11T09:57:36Z</time>
      </trkpt>
      <trkpt lat="42.8025460" lon="-0.2751070">
        <ele>2284.2</ele>
        <time>2020-09-11T09:57:40Z</time>
      </trkpt>
      <trkpt lat="42.8025470" lon="-0.2751410">
        <ele>2283.2</ele>
        <time>2020-09-11T09:57:43Z</time>
      </trkpt>
      <trkpt lat="42.8025640" lon="-0.2751250">
        <ele>2282.0</ele>
        <time>2020-09-11T09:57:47Z</time>
      </trkpt>
      <trkpt lat="42.8025900" lon="-0.2751070">
        <ele>2280.6</ele>
        <time>2020-09-11T09:57:53Z</time>
      </trkpt>
      <trkpt lat="42.8026260" lon="-0.2751370">
        <ele>2279.6</ele>
        <time>2020-09-11T09:57:58Z</time>
      </trkpt>
      <trkpt lat="42.8026400" lon="-0.2751500">
        <ele>2278.8</ele>
        <time>2020-09-11T09:58:00Z</time>
      </trkpt>
      <trkpt lat="42.8026460" lon="-0.2751540">
        <ele>2278.6</ele>
        <time>2020-09-11T09:58:01Z</time>
      </trkpt>
      <trkpt lat="42.8026630" lon="-0.2751490">
        <ele>2277.4</ele>
        <time>2020-09-11T09:58:04Z</time>
      </trkpt>
      <trkpt lat="42.8026820" lon="-0.2751600">
        <ele>2276.4</ele>
        <time>2020-09-11T09:58:08Z</time>
      </trkpt>
      <trkpt lat="42.8026850" lon="-0.2752060">
        <ele>2275.0</ele>
        <time>2020-09-11T09:58:12Z</time>
      </trkpt>
      <trkpt lat="42.8026870" lon="-0.2752180">
        <ele>2274.6</ele>
        <time>2020-09-11T09:58:13Z</time>
      </trkpt>
      <trkpt lat="42.8026930" lon="-0.2752240">
        <ele>2273.8</ele>
        <time>2020-09-11T09:58:15Z</time>
      </trkpt>
      <trkpt lat="42.8027350" lon="-0.2752150">
        <ele>2272.6</ele>
        <time>2020-09-11T09:58:27Z</time>
      </trkpt>
      <trkpt lat="42.8027540" lon="-0.2752350">
        <ele>2271.4</ele>
        <time>2020-09-11T09:58:31Z</time>
      </trkpt>
      <trkpt lat="42.8027740" lon="-0.2752640">
        <ele>2270.2</ele>
        <time>2020-09-11T09:58:35Z</time>
      </trkpt>
      <trkpt lat="42.8028020" lon="-0.2752580">
        <ele>2269.0</ele>
        <time>2020-09-11T09:58:39Z</time>
      </trkpt>
      <trkpt lat="42.8028060" lon="-0.2752480">
        <ele>2268.6</ele>
        <time>2020-09-11T09:58:40Z</time>
      </trkpt>
      <trkpt lat="42.8028130" lon="-0.2752330">
        <ele>2267.8</ele>
        <time>2020-09-11T09:58:42Z</time>
      </trkpt>
      <trkpt lat="42.8028180" lon="-0.2751890">
        <ele>2267.0</ele>
        <time>2020-09-11T09:58:52Z</time>
      </trkpt>
      <trkpt lat="42.8028200" lon="-0.2751720">
        <ele>2266.8</ele>
        <time>2020-09-11T09:58:54Z</time>
      </trkpt>
      <trkpt lat="42.8028290" lon="-0.2751430">
        <ele>2265.8</ele>
        <time>2020-09-11T09:58:58Z</time>
      </trkpt>
      <trkpt lat="42.8028500" lon="-0.2751210">
        <ele>2265.0</ele>
        <time>2020-09-11T09:59:01Z</time>
      </trkpt>
      <trkpt lat="42.8028580" lon="-0.2751130">
        <ele>2264.8</ele>
        <time>2020-09-11T09:59:02Z</time>
      </trkpt>
      <trkpt lat="42.8028710" lon="-0.2750850">
        <ele>2263.8</ele>
        <time>2020-09-11T09:59:05Z</time>
      </trkpt>
      <trkpt lat="42.8028920" lon="-0.2750560">
        <ele>2262.4</ele>
        <time>2020-09-11T09:59:09Z</time>
      </trkpt>
      <trkpt lat="42.8029100" lon="-0.2750210">
        <ele>2261.6</ele>
        <time>2020-09-11T09:59:12Z</time>
      </trkpt>
      <trkpt lat="42.8029140" lon="-0.2750090">
        <ele>2261.4</ele>
        <time>2020-09-11T09:59:13Z</time>
      </trkpt>
      <trkpt lat="42.8029170" lon="-0.2749860">
        <ele>2260.8</ele>
        <time>2020-09-11T09:59:15Z</time>
      </trkpt>
      <trkpt lat="42.8029210" lon="-0.2749780">
        <ele>2260.2</ele>
        <time>2020-09-11T09:59:16Z</time>
      </trkpt>
      <trkpt lat="42.8029300" lon="-0.2749750">
        <ele>2259.2</ele>
        <time>2020-09-11T09:59:19Z</time>
      </trkpt>
      <trkpt lat="42.8029470" lon="-0.2749600">
        <ele>2258.0</ele>
        <time>2020-09-11T09:59:22Z</time>
      </trkpt>
      <trkpt lat="42.8029660" lon="-0.2749400">
        <ele>2257.0</ele>
        <time>2020-09-11T09:59:26Z</time>
      </trkpt>
      <trkpt lat="42.8029910" lon="-0.2748900">
        <ele>2255.8</ele>
        <time>2020-09-11T09:59:30Z</time>
      </trkpt>
      <trkpt lat="42.8030120" lon="-0.2748720">
        <ele>2254.4</ele>
        <time>2020-09-11T09:59:34Z</time>
      </trkpt>
      <trkpt lat="42.8030290" lon="-0.2748810">
        <ele>2253.4</ele>
        <time>2020-09-11T09:59:36Z</time>
      </trkpt>
      <trkpt lat="42.8030610" lon="-0.2748890">
        <ele>2251.8</ele>
        <time>2020-09-11T09:59:39Z</time>
      </trkpt>
      <trkpt lat="42.8030890" lon="-0.2748830">
        <ele>2250.8</ele>
        <time>2020-09-11T09:59:41Z</time>
      </trkpt>
      <trkpt lat="42.8031210" lon="-0.2748540">
        <ele>2249.4</ele>
        <time>2020-09-11T09:59:44Z</time>
      </trkpt>
      <trkpt lat="42.8031700" lon="-0.2748370">
        <ele>2248.4</ele>
        <time>2020-09-11T09:59:47Z</time>
      </trkpt>
      <trkpt lat="42.8032050" lon="-0.2748330">
        <ele>2247.2</ele>
        <time>2020-09-11T09:59:49Z</time>
      </trkpt>
      <trkpt lat="42.8032430" lon="-0.2748290">
        <ele>2245.8</ele>
        <time>2020-09-11T09:59:51Z</time>
      </trkpt>
      <trkpt lat="42.8032760" lon="-0.2748170">
        <ele>2244.4</ele>
        <time>2020-09-11T09:59:53Z</time>
      </trkpt>
      <trkpt lat="42.8033420" lon="-0.2747920">
        <ele>2243.0</ele>
        <time>2020-09-11T09:59:57Z</time>
      </trkpt>
      <trkpt lat="42.8033710" lon="-0.2747730">
        <ele>2241.6</ele>
        <time>2020-09-11T09:59:59Z</time>
      </trkpt>
      <trkpt lat="42.8033930" lon="-0.2747620">
        <ele>2240.6</ele>
        <time>2020-09-11T10:00:01Z</time>
      </trkpt>
      <trkpt lat="42.8034510" lon="-0.2747490">
        <ele>2239.2</ele>
        <time>2020-09-11T10:00:04Z</time>
      </trkpt>
      <trkpt lat="42.8034880" lon="-0.2747520">
        <ele>2238.0</ele>
        <time>2020-09-11T10:00:06Z</time>
      </trkpt>
      <trkpt lat="42.8035540" lon="-0.2747580">
        <ele>2236.6</ele>
        <time>2020-09-11T10:00:09Z</time>
      </trkpt>
      <trkpt lat="42.8036200" lon="-0.2747540">
        <ele>2235.0</ele>
        <time>2020-09-11T10:00:12Z</time>
      </trkpt>
      <trkpt lat="42.8036720" lon="-0.2747420">
        <ele>2234.0</ele>
        <time>2020-09-11T10:00:15Z</time>
      </trkpt>
      <trkpt lat="42.8037270" lon="-0.2747130">
        <ele>2232.4</ele>
        <time>2020-09-11T10:00:18Z</time>
      </trkpt>
      <trkpt lat="42.8037680" lon="-0.2746920">
        <ele>2231.4</ele>
        <time>2020-09-11T10:00:20Z</time>
      </trkpt>
      <trkpt lat="42.8038290" lon="-0.2746670">
        <ele>2230.0</ele>
        <time>2020-09-11T10:00:23Z</time>
      </trkpt>
      <trkpt lat="42.8038700" lon="-0.2746300">
        <ele>2228.6</ele>
        <time>2020-09-11T10:00:26Z</time>
      </trkpt>
      <trkpt lat="42.8039080" lon="-0.2746330">
        <ele>2227.4</ele>
        <time>2020-09-11T10:00:28Z</time>
      </trkpt>
      <trkpt lat="42.8039250" lon="-0.2746300">
        <ele>2227.0</ele>
        <time>2020-09-11T10:00:29Z</time>
      </trkpt>
      <trkpt lat="42.8039530" lon="-0.2746060">
        <ele>2226.2</ele>
        <time>2020-09-11T10:00:31Z</time>
      </trkpt>
      <trkpt lat="42.8040050" lon="-0.2745730">
        <ele>2225.2</ele>
        <time>2020-09-11T10:00:35Z</time>
      </trkpt>
      <trkpt lat="42.8040740" lon="-0.2745540">
        <ele>2224.2</ele>
        <time>2020-09-11T10:00:40Z</time>
      </trkpt>
      <trkpt lat="42.8041460" lon="-0.2745390">
        <ele>2222.8</ele>
        <time>2020-09-11T10:00:45Z</time>
      </trkpt>
      <trkpt lat="42.8042180" lon="-0.2745220">
        <ele>2221.6</ele>
        <time>2020-09-11T10:00:49Z</time>
      </trkpt>
      <trkpt lat="42.8043250" lon="-0.2744940">
        <ele>2220.0</ele>
        <time>2020-09-11T10:00:55Z</time>
      </trkpt>
      <trkpt lat="42.8043500" lon="-0.2744960">
        <ele>2218.8</ele>
        <time>2020-09-11T10:00:58Z</time>
      </trkpt>
      <trkpt lat="42.8043500" lon="-0.2744980">
        <ele>2218.4</ele>
        <time>2020-09-11T10:00:59Z</time>
      </trkpt>
      <trkpt lat="42.8043460" lon="-0.2744980">
        <ele>2217.6</ele>
        <time>2020-09-11T10:01:02Z</time>
      </trkpt>
      <trkpt lat="42.8043850" lon="-0.2745030">
        <ele>2217.6</ele>
        <time>2020-09-11T10:01:23Z</time>
      </trkpt>
      <trkpt lat="42.8044560" lon="-0.2744990">
        <ele>2216.6</ele>
        <time>2020-09-11T10:01:28Z</time>
      </trkpt>
      <trkpt lat="42.8044710" lon="-0.2745000">
        <ele>2216.4</ele>
        <time>2020-09-11T10:01:29Z</time>
      </trkpt>
      <trkpt lat="42.8045010" lon="-0.2745070">
        <ele>2216.0</ele>
        <time>2020-09-11T10:01:31Z</time>
      </trkpt>
      <trkpt lat="42.8045200" lon="-0.2745370">
        <ele>2215.4</ele>
        <time>2020-09-11T10:01:33Z</time>
      </trkpt>
      <trkpt lat="42.8045610" lon="-0.2745720">
        <ele>2214.4</ele>
        <time>2020-09-11T10:01:37Z</time>
      </trkpt>
      <trkpt lat="42.8047150" lon="-0.2746090">
        <ele>2213.2</ele>
        <time>2020-09-11T10:01:48Z</time>
      </trkpt>
      <trkpt lat="42.8047950" lon="-0.2745740">
        <ele>2212.2</ele>
        <time>2020-09-11T10:01:53Z</time>
      </trkpt>
      <trkpt lat="42.8049370" lon="-0.2745190">
        <ele>2211.0</ele>
        <time>2020-09-11T10:02:06Z</time>
      </trkpt>
      <trkpt lat="42.8050090" lon="-0.2744870">
        <ele>2210.0</ele>
        <time>2020-09-11T10:02:12Z</time>
      </trkpt>
      <trkpt lat="42.8050850" lon="-0.2744650">
        <ele>2208.8</ele>
        <time>2020-09-11T10:02:17Z</time>
      </trkpt>
      <trkpt lat="42.8051940" lon="-0.2744360">
        <ele>2207.8</ele>
        <time>2020-09-11T10:02:24Z</time>
      </trkpt>
      <trkpt lat="42.8052680" lon="-0.2744180">
        <ele>2206.8</ele>
        <time>2020-09-11T10:02:28Z</time>
      </trkpt>
      <trkpt lat="42.8053880" lon="-0.2743850">
        <ele>2205.8</ele>
        <time>2020-09-11T10:02:37Z</time>
      </trkpt>
      <trkpt lat="42.8054580" lon="-0.2743380">
        <ele>2204.6</ele>
        <time>2020-09-11T10:02:43Z</time>
      </trkpt>
      <trkpt lat="42.8054960" lon="-0.2743070">
        <ele>2203.6</ele>
        <time>2020-09-11T10:02:46Z</time>
      </trkpt>
      <trkpt lat="42.8055320" lon="-0.2743020">
        <ele>2202.4</ele>
        <time>2020-09-11T10:02:50Z</time>
      </trkpt>
      <trkpt lat="42.8055590" lon="-0.2742990">
        <ele>2201.8</ele>
        <time>2020-09-11T10:02:53Z</time>
      </trkpt>
      <trkpt lat="42.8055880" lon="-0.2742710">
        <ele>2201.6</ele>
        <time>2020-09-11T10:02:56Z</time>
      </trkpt>
      <trkpt lat="42.8056160" lon="-0.2742680">
        <ele>2201.6</ele>
        <time>2020-09-11T10:02:58Z</time>
      </trkpt>
      <trkpt lat="42.8057930" lon="-0.2742670">
        <ele>2203.4</ele>
        <time>2020-09-11T10:03:13Z</time>
      </trkpt>
      <trkpt lat="42.8058070" lon="-0.2742710">
        <ele>2203.4</ele>
        <time>2020-09-11T10:03:14Z</time>
      </trkpt>
      <trkpt lat="42.8059210" lon="-0.2742520">
        <ele>2202.4</ele>
        <time>2020-09-11T10:03:23Z</time>
      </trkpt>
      <trkpt lat="42.8060010" lon="-0.2742370">
        <ele>2201.4</ele>
        <time>2020-09-11T10:03:28Z</time>
      </trkpt>
      <trkpt lat="42.8060610" lon="-0.2742220">
        <ele>2200.2</ele>
        <time>2020-09-11T10:03:32Z</time>
      </trkpt>
      <trkpt lat="42.8061400" lon="-0.2742220">
        <ele>2199.0</ele>
        <time>2020-09-11T10:03:38Z</time>
      </trkpt>
      <trkpt lat="42.8062020" lon="-0.2742390">
        <ele>2198.0</ele>
        <time>2020-09-11T10:03:42Z</time>
      </trkpt>
      <trkpt lat="42.8062610" lon="-0.2743060">
        <ele>2196.6</ele>
        <time>2020-09-11T10:03:47Z</time>
      </trkpt>
      <trkpt lat="42.8063190" lon="-0.2743910">
        <ele>2195.4</ele>
        <time>2020-09-11T10:03:53Z</time>
      </trkpt>
      <trkpt lat="42.8063230" lon="-0.2744010">
        <ele>2194.8</ele>
        <time>2020-09-11T10:03:54Z</time>
      </trkpt>
      <trkpt lat="42.8063270" lon="-0.2744150">
        <ele>2194.4</ele>
        <time>2020-09-11T10:03:55Z</time>
      </trkpt>
      <trkpt lat="42.8063340" lon="-0.2744250">
        <ele>2193.8</ele>
        <time>2020-09-11T10:03:56Z</time>
      </trkpt>
      <trkpt lat="42.8063410" lon="-0.2744390">
        <ele>2193.4</ele>
        <time>2020-09-11T10:03:57Z</time>
      </trkpt>
      <trkpt lat="42.8063470" lon="-0.2744480">
        <ele>2193.0</ele>
        <time>2020-09-11T10:03:58Z</time>
      </trkpt>
      <trkpt lat="42.8063420" lon="-0.2744730">
        <ele>2192.2</ele>
        <time>2020-09-11T10:04:00Z</time>
      </trkpt>
      <trkpt lat="42.8063170" lon="-0.2745070">
        <ele>2191.0</ele>
        <time>2020-09-11T10:04:03Z</time>
      </trkpt>
      <trkpt lat="42.8063240" lon="-0.2745610">
        <ele>2189.8</ele>
        <time>2020-09-11T10:04:07Z</time>
      </trkpt>
      <trkpt lat="42.8063610" lon="-0.2745870">
        <ele>2188.6</ele>
        <time>2020-09-11T10:04:11Z</time>
      </trkpt>
      <trkpt lat="42.8064020" lon="-0.2745740">
        <ele>2188.0</ele>
        <time>2020-09-11T10:04:15Z</time>
      </trkpt>
      <trkpt lat="42.8064200" lon="-0.2745810">
        <ele>2187.2</ele>
        <time>2020-09-11T10:04:18Z</time>
      </trkpt>
      <trkpt lat="42.8064340" lon="-0.2746010">
        <ele>2186.2</ele>
        <time>2020-09-11T10:04:20Z</time>
      </trkpt>
      <trkpt lat="42.8064450" lon="-0.2746120">
        <ele>2185.6</ele>
        <time>2020-09-11T10:04:21Z</time>
      </trkpt>
      <trkpt lat="42.8064640" lon="-0.2746110">
        <ele>2185.0</ele>
        <time>2020-09-11T10:04:23Z</time>
      </trkpt>
      <trkpt lat="42.8064910" lon="-0.2745810">
        <ele>2184.4</ele>
        <time>2020-09-11T10:04:26Z</time>
      </trkpt>
      <trkpt lat="42.8065060" lon="-0.2745800">
        <ele>2184.0</ele>
        <time>2020-09-11T10:04:27Z</time>
      </trkpt>
      <trkpt lat="42.8065500" lon="-0.2745840">
        <ele>2183.0</ele>
        <time>2020-09-11T10:04:30Z</time>
      </trkpt>
      <trkpt lat="42.8065890" lon="-0.2745760">
        <ele>2181.8</ele>
        <time>2020-09-11T10:04:33Z</time>
      </trkpt>
      <trkpt lat="42.8066140" lon="-0.2745590">
        <ele>2180.8</ele>
        <time>2020-09-11T10:04:35Z</time>
      </trkpt>
      <trkpt lat="42.8066560" lon="-0.2745310">
        <ele>2179.6</ele>
        <time>2020-09-11T10:04:38Z</time>
      </trkpt>
      <trkpt lat="42.8067090" lon="-0.2745230">
        <ele>2178.4</ele>
        <time>2020-09-11T10:04:42Z</time>
      </trkpt>
      <trkpt lat="42.8067440" lon="-0.2745400">
        <ele>2177.0</ele>
        <time>2020-09-11T10:04:45Z</time>
      </trkpt>
      <trkpt lat="42.8067750" lon="-0.2745790">
        <ele>2176.0</ele>
        <time>2020-09-11T10:04:48Z</time>
      </trkpt>
      <trkpt lat="42.8068030" lon="-0.2746770">
        <ele>2174.8</ele>
        <time>2020-09-11T10:04:53Z</time>
      </trkpt>
      <trkpt lat="42.8068190" lon="-0.2747240">
        <ele>2173.4</ele>
        <time>2020-09-11T10:04:55Z</time>
      </trkpt>
      <trkpt lat="42.8068330" lon="-0.2747570">
        <ele>2171.8</ele>
        <time>2020-09-11T10:04:57Z</time>
      </trkpt>
      <trkpt lat="42.8068630" lon="-0.2747930">
        <ele>2170.8</ele>
        <time>2020-09-11T10:05:00Z</time>
      </trkpt>
      <trkpt lat="42.8069130" lon="-0.2748740">
        <ele>2169.4</ele>
        <time>2020-09-11T10:05:05Z</time>
      </trkpt>
      <trkpt lat="42.8069620" lon="-0.2749280">
        <ele>2168.4</ele>
        <time>2020-09-11T10:05:09Z</time>
      </trkpt>
      <trkpt lat="42.8070020" lon="-0.2750100">
        <ele>2167.2</ele>
        <time>2020-09-11T10:05:13Z</time>
      </trkpt>
      <trkpt lat="42.8070520" lon="-0.2750630">
        <ele>2166.2</ele>
        <time>2020-09-11T10:05:17Z</time>
      </trkpt>
      <trkpt lat="42.8071200" lon="-0.2750870">
        <ele>2165.0</ele>
        <time>2020-09-11T10:05:21Z</time>
      </trkpt>
      <trkpt lat="42.8071730" lon="-0.2751220">
        <ele>2163.6</ele>
        <time>2020-09-11T10:05:25Z</time>
      </trkpt>
      <trkpt lat="42.8071970" lon="-0.2751160">
        <ele>2163.2</ele>
        <time>2020-09-11T10:05:28Z</time>
      </trkpt>
      <trkpt lat="42.8072860" lon="-0.2751380">
        <ele>2162.6</ele>
        <time>2020-09-11T10:06:07Z</time>
      </trkpt>
      <trkpt lat="42.8073070" lon="-0.2751660">
        <ele>2162.6</ele>
        <time>2020-09-11T10:06:09Z</time>
      </trkpt>
      <trkpt lat="42.8073660" lon="-0.2752630">
        <ele>2161.6</ele>
        <time>2020-09-11T10:06:15Z</time>
      </trkpt>
      <trkpt lat="42.8073990" lon="-0.2752820">
        <ele>2160.4</ele>
        <time>2020-09-11T10:06:18Z</time>
      </trkpt>
      <trkpt lat="42.8074450" lon="-0.2753190">
        <ele>2159.4</ele>
        <time>2020-09-11T10:06:22Z</time>
      </trkpt>
      <trkpt lat="42.8074910" lon="-0.2753600">
        <ele>2158.4</ele>
        <time>2020-09-11T10:06:26Z</time>
      </trkpt>
      <trkpt lat="42.8075430" lon="-0.2753850">
        <ele>2157.4</ele>
        <time>2020-09-11T10:06:30Z</time>
      </trkpt>
      <trkpt lat="42.8076330" lon="-0.2753940">
        <ele>2156.4</ele>
        <time>2020-09-11T10:06:37Z</time>
      </trkpt>
      <trkpt lat="42.8076420" lon="-0.2753920">
        <ele>2156.2</ele>
        <time>2020-09-11T10:06:38Z</time>
      </trkpt>
      <trkpt lat="42.8077130" lon="-0.2754000">
        <ele>2155.8</ele>
        <time>2020-09-11T10:06:44Z</time>
      </trkpt>
      <trkpt lat="42.8078700" lon="-0.2754520">
        <ele>2155.2</ele>
        <time>2020-09-11T10:06:55Z</time>
      </trkpt>
      <trkpt lat="42.8080060" lon="-0.2756130">
        <ele>2154.4</ele>
        <time>2020-09-11T10:07:07Z</time>
      </trkpt>
      <trkpt lat="42.8080350" lon="-0.2756540">
        <ele>2154.2</ele>
        <time>2020-09-11T10:07:10Z</time>
      </trkpt>
      <trkpt lat="42.8082000" lon="-0.2757760">
        <ele>2153.2</ele>
        <time>2020-09-11T10:07:23Z</time>
      </trkpt>
      <trkpt lat="42.8082420" lon="-0.2757980">
        <ele>2153.0</ele>
        <time>2020-09-11T10:07:26Z</time>
      </trkpt>
      <trkpt lat="42.8084160" lon="-0.2758780">
        <ele>2153.2</ele>
        <time>2020-09-11T10:07:38Z</time>
      </trkpt>
      <trkpt lat="42.8085330" lon="-0.2758830">
        <ele>2152.0</ele>
        <time>2020-09-11T10:07:46Z</time>
      </trkpt>
      <trkpt lat="42.8087240" lon="-0.2759290">
        <ele>2151.4</ele>
        <time>2020-09-11T10:07:59Z</time>
      </trkpt>
      <trkpt lat="42.8088930" lon="-0.2760450">
        <ele>2152.2</ele>
        <time>2020-09-11T10:08:12Z</time>
      </trkpt>
      <trkpt lat="42.8090800" lon="-0.2760690">
        <ele>2152.6</ele>
        <time>2020-09-11T10:08:25Z</time>
      </trkpt>
      <trkpt lat="42.8092150" lon="-0.2759440">
        <ele>2151.0</ele>
        <time>2020-09-11T10:08:35Z</time>
      </trkpt>
      <trkpt lat="42.8092270" lon="-0.2759190">
        <ele>2150.8</ele>
        <time>2020-09-11T10:08:37Z</time>
      </trkpt>
      <trkpt lat="42.8093080" lon="-0.2759030">
        <ele>2150.0</ele>
        <time>2020-09-11T10:08:42Z</time>
      </trkpt>
      <trkpt lat="42.8094040" lon="-0.2758730">
        <ele>2148.8</ele>
        <time>2020-09-11T10:08:48Z</time>
      </trkpt>
      <trkpt lat="42.8095470" lon="-0.2758800">
        <ele>2147.8</ele>
        <time>2020-09-11T10:08:58Z</time>
      </trkpt>
      <trkpt lat="42.8096670" lon="-0.2758440">
        <ele>2146.4</ele>
        <time>2020-09-11T10:09:06Z</time>
      </trkpt>
      <trkpt lat="42.8097270" lon="-0.2758800">
        <ele>2145.2</ele>
        <time>2020-09-11T10:09:10Z</time>
      </trkpt>
      <trkpt lat="42.8098320" lon="-0.2759430">
        <ele>2144.2</ele>
        <time>2020-09-11T10:09:17Z</time>
      </trkpt>
      <trkpt lat="42.8099060" lon="-0.2759720">
        <ele>2143.2</ele>
        <time>2020-09-11T10:09:22Z</time>
      </trkpt>
      <trkpt lat="42.8099670" lon="-0.2759790">
        <ele>2142.0</ele>
        <time>2020-09-11T10:09:26Z</time>
      </trkpt>
      <trkpt lat="42.8100150" lon="-0.2759820">
        <ele>2140.8</ele>
        <time>2020-09-11T10:09:29Z</time>
      </trkpt>
      <trkpt lat="42.8101170" lon="-0.2760240">
        <ele>2139.8</ele>
        <time>2020-09-11T10:09:35Z</time>
      </trkpt>
      <trkpt lat="42.8101940" lon="-0.2760590">
        <ele>2138.6</ele>
        <time>2020-09-11T10:09:40Z</time>
      </trkpt>
      <trkpt lat="42.8102810" lon="-0.2760880">
        <ele>2137.4</ele>
        <time>2020-09-11T10:09:46Z</time>
      </trkpt>
      <trkpt lat="42.8103860" lon="-0.2760880">
        <ele>2136.6</ele>
        <time>2020-09-11T10:09:53Z</time>
      </trkpt>
      <trkpt lat="42.8103980" lon="-0.2760960">
        <ele>2136.4</ele>
        <time>2020-09-11T10:09:54Z</time>
      </trkpt>
      <trkpt lat="42.8104660" lon="-0.2761510">
        <ele>2135.4</ele>
        <time>2020-09-11T10:09:59Z</time>
      </trkpt>
      <trkpt lat="42.8105160" lon="-0.2762290">
        <ele>2134.6</ele>
        <time>2020-09-11T10:10:04Z</time>
      </trkpt>
      <trkpt lat="42.8105390" lon="-0.2762540">
        <ele>2134.4</ele>
        <time>2020-09-11T10:10:06Z</time>
      </trkpt>
      <trkpt lat="42.8105680" lon="-0.2763010">
        <ele>2133.0</ele>
        <time>2020-09-11T10:10:09Z</time>
      </trkpt>
      <trkpt lat="42.8106150" lon="-0.2763450">
        <ele>2132.0</ele>
        <time>2020-09-11T10:10:13Z</time>
      </trkpt>
      <trkpt lat="42.8106650" lon="-0.2763670">
        <ele>2131.8</ele>
        <time>2020-09-11T10:10:18Z</time>
      </trkpt>
      <trkpt lat="42.8106860" lon="-0.2763610">
        <ele>2131.8</ele>
        <time>2020-09-11T10:10:20Z</time>
      </trkpt>
      <trkpt lat="42.8107880" lon="-0.2764120">
        <ele>2131.8</ele>
        <time>2020-09-11T10:10:29Z</time>
      </trkpt>
      <trkpt lat="42.8108300" lon="-0.2764750">
        <ele>2130.6</ele>
        <time>2020-09-11T10:10:33Z</time>
      </trkpt>
      <trkpt lat="42.8108790" lon="-0.2765460">
        <ele>2129.6</ele>
        <time>2020-09-11T10:10:38Z</time>
      </trkpt>
      <trkpt lat="42.8109800" lon="-0.2767590">
        <ele>2129.8</ele>
        <time>2020-09-11T10:10:52Z</time>
      </trkpt>
      <trkpt lat="42.8110020" lon="-0.2767650">
        <ele>2129.8</ele>
        <time>2020-09-11T10:10:55Z</time>
      </trkpt>
      <trkpt lat="42.8110260" lon="-0.2767700">
        <ele>2129.8</ele>
        <time>2020-09-11T10:10:57Z</time>
      </trkpt>
      <trkpt lat="42.8110530" lon="-0.2767770">
        <ele>2129.0</ele>
        <time>2020-09-11T10:10:59Z</time>
      </trkpt>
      <trkpt lat="42.8110910" lon="-0.2768000">
        <ele>2128.4</ele>
        <time>2020-09-11T10:11:02Z</time>
      </trkpt>
      <trkpt lat="42.8112080" lon="-0.2768800">
        <ele>2129.6</ele>
        <time>2020-09-11T10:11:12Z</time>
      </trkpt>
      <trkpt lat="42.8113370" lon="-0.2769280">
        <ele>2128.2</ele>
        <time>2020-09-11T10:11:21Z</time>
      </trkpt>
      <trkpt lat="42.8113670" lon="-0.2769440">
        <ele>2127.2</ele>
        <time>2020-09-11T10:11:23Z</time>
      </trkpt>
      <trkpt lat="42.8114090" lon="-0.2769480">
        <ele>2126.2</ele>
        <time>2020-09-11T10:11:26Z</time>
      </trkpt>
      <trkpt lat="42.8114810" lon="-0.2769580">
        <ele>2125.0</ele>
        <time>2020-09-11T10:11:31Z</time>
      </trkpt>
      <trkpt lat="42.8116610" lon="-0.2769920">
        <ele>2124.2</ele>
        <time>2020-09-11T10:11:44Z</time>
      </trkpt>
      <trkpt lat="42.8117200" lon="-0.2769770">
        <ele>2124.8</ele>
        <time>2020-09-11T10:11:50Z</time>
      </trkpt>
      <trkpt lat="42.8117610" lon="-0.2769060">
        <ele>2126.2</ele>
        <time>2020-09-11T10:11:56Z</time>
      </trkpt>
      <trkpt lat="42.8117810" lon="-0.2768900">
        <ele>2127.0</ele>
        <time>2020-09-11T10:11:58Z</time>
      </trkpt>
      <trkpt lat="42.8117910" lon="-0.2768860">
        <ele>2127.4</ele>
        <time>2020-09-11T10:11:59Z</time>
      </trkpt>
      <trkpt lat="42.8119270" lon="-0.2767240">
        <ele>2126.6</ele>
        <time>2020-09-11T10:12:13Z</time>
      </trkpt>
      <trkpt lat="42.8120220" lon="-0.2766320">
        <ele>2127.4</ele>
        <time>2020-09-11T10:12:24Z</time>
      </trkpt>
      <trkpt lat="42.8120560" lon="-0.2766080">
        <ele>2126.2</ele>
        <time>2020-09-11T10:12:29Z</time>
      </trkpt>
      <trkpt lat="42.8120800" lon="-0.2765910">
        <ele>2125.2</ele>
        <time>2020-09-11T10:12:32Z</time>
      </trkpt>
      <trkpt lat="42.8120940" lon="-0.2765760">
        <ele>2123.6</ele>
        <time>2020-09-11T10:12:34Z</time>
      </trkpt>
      <trkpt lat="42.8121120" lon="-0.2765430">
        <ele>2122.8</ele>
        <time>2020-09-11T10:12:37Z</time>
      </trkpt>
      <trkpt lat="42.8121180" lon="-0.2765320">
        <ele>2123.0</ele>
        <time>2020-09-11T10:12:39Z</time>
      </trkpt>
      <trkpt lat="42.8121220" lon="-0.2765200">
        <ele>2122.2</ele>
        <time>2020-09-11T10:12:42Z</time>
      </trkpt>
      <trkpt lat="42.8121860" lon="-0.2764580">
        <ele>2121.4</ele>
        <time>2020-09-11T10:12:48Z</time>
      </trkpt>
      <trkpt lat="42.8122550" lon="-0.2763960">
        <ele>2121.6</ele>
        <time>2020-09-11T10:12:54Z</time>
      </trkpt>
      <trkpt lat="42.8123140" lon="-0.2763390">
        <ele>2121.0</ele>
        <time>2020-09-11T10:12:59Z</time>
      </trkpt>
      <trkpt lat="42.8123310" lon="-0.2763020">
        <ele>2120.8</ele>
        <time>2020-09-11T10:13:03Z</time>
      </trkpt>
      <trkpt lat="42.8123460" lon="-0.2762610">
        <ele>2120.4</ele>
        <time>2020-09-11T10:13:09Z</time>
      </trkpt>
      <trkpt lat="42.8123710" lon="-0.2762150">
        <ele>2119.8</ele>
        <time>2020-09-11T10:13:13Z</time>
      </trkpt>
      <trkpt lat="42.8123820" lon="-0.2761880">
        <ele>2118.4</ele>
        <time>2020-09-11T10:13:16Z</time>
      </trkpt>
      <trkpt lat="42.8123920" lon="-0.2761600">
        <ele>2117.4</ele>
        <time>2020-09-11T10:13:19Z</time>
      </trkpt>
      <trkpt lat="42.8124100" lon="-0.2761240">
        <ele>2116.0</ele>
        <time>2020-09-11T10:13:22Z</time>
      </trkpt>
      <trkpt lat="42.8124210" lon="-0.2760780">
        <ele>2115.0</ele>
        <time>2020-09-11T10:13:25Z</time>
      </trkpt>
      <trkpt lat="42.8124250" lon="-0.2760650">
        <ele>2114.4</ele>
        <time>2020-09-11T10:13:26Z</time>
      </trkpt>
      <trkpt lat="42.8124430" lon="-0.2760250">
        <ele>2113.2</ele>
        <time>2020-09-11T10:13:29Z</time>
      </trkpt>
      <trkpt lat="42.8125710" lon="-0.2758350">
        <ele>2112.6</ele>
        <time>2020-09-11T10:13:41Z</time>
      </trkpt>
      <trkpt lat="42.8125700" lon="-0.2758170">
        <ele>2112.2</ele>
        <time>2020-09-11T10:13:42Z</time>
      </trkpt>
      <trkpt lat="42.8126020" lon="-0.2757750">
        <ele>2111.0</ele>
        <time>2020-09-11T10:13:45Z</time>
      </trkpt>
      <trkpt lat="42.8126720" lon="-0.2757220">
        <ele>2109.6</ele>
        <time>2020-09-11T10:13:53Z</time>
      </trkpt>
      <trkpt lat="42.8126810" lon="-0.2757110">
        <ele>2108.0</ele>
        <time>2020-09-11T10:13:55Z</time>
      </trkpt>
      <trkpt lat="42.8127030" lon="-0.2756810">
        <ele>2107.0</ele>
        <time>2020-09-11T10:13:59Z</time>
      </trkpt>
      <trkpt lat="42.8127040" lon="-0.2756640">
        <ele>2106.4</ele>
        <time>2020-09-11T10:14:01Z</time>
      </trkpt>
      <trkpt lat="42.8127120" lon="-0.2756450">
        <ele>2105.8</ele>
        <time>2020-09-11T10:14:03Z</time>
      </trkpt>
      <trkpt lat="42.8127190" lon="-0.2756370">
        <ele>2105.4</ele>
        <time>2020-09-11T10:14:04Z</time>
      </trkpt>
      <trkpt lat="42.8127460" lon="-0.2756120">
        <ele>2104.4</ele>
        <time>2020-09-11T10:14:06Z</time>
      </trkpt>
      <trkpt lat="42.8127710" lon="-0.2756010">
        <ele>2103.2</ele>
        <time>2020-09-11T10:14:08Z</time>
      </trkpt>
      <trkpt lat="42.8128240" lon="-0.2755670">
        <ele>2102.0</ele>
        <time>2020-09-11T10:14:12Z</time>
      </trkpt>
      <trkpt lat="42.8128500" lon="-0.2754900">
        <ele>2101.4</ele>
        <time>2020-09-11T10:14:16Z</time>
      </trkpt>
      <trkpt lat="42.8128490" lon="-0.2754530">
        <ele>2101.0</ele>
        <time>2020-09-11T10:14:18Z</time>
      </trkpt>
      <trkpt lat="42.8128770" lon="-0.2752610">
        <ele>2100.0</ele>
        <time>2020-09-11T10:14:28Z</time>
      </trkpt>
      <trkpt lat="42.8128850" lon="-0.2751660">
        <ele>2099.6</ele>
        <time>2020-09-11T10:14:33Z</time>
      </trkpt>
      <trkpt lat="42.8129540" lon="-0.2751160">
        <ele>2100.4</ele>
        <time>2020-09-11T10:14:37Z</time>
      </trkpt>
      <trkpt lat="42.8129890" lon="-0.2751150">
        <ele>2100.8</ele>
        <time>2020-09-11T10:14:40Z</time>
      </trkpt>
      <trkpt lat="42.8130160" lon="-0.2750890">
        <ele>2101.0</ele>
        <time>2020-09-11T10:14:43Z</time>
      </trkpt>
      <trkpt lat="42.8130960" lon="-0.2750270">
        <ele>2101.4</ele>
        <time>2020-09-11T10:14:51Z</time>
      </trkpt>
      <trkpt lat="42.8131640" lon="-0.2749480">
        <ele>2102.2</ele>
        <time>2020-09-11T10:15:00Z</time>
      </trkpt>
      <trkpt lat="42.8131810" lon="-0.2749150">
        <ele>2103.2</ele>
        <time>2020-09-11T10:15:03Z</time>
      </trkpt>
      <trkpt lat="42.8132160" lon="-0.2748770">
        <ele>2104.2</ele>
        <time>2020-09-11T10:15:07Z</time>
      </trkpt>
      <trkpt lat="42.8132450" lon="-0.2748450">
        <ele>2105.6</ele>
        <time>2020-09-11T10:15:11Z</time>
      </trkpt>
      <trkpt lat="42.8132630" lon="-0.2748250">
        <ele>2106.8</ele>
        <time>2020-09-11T10:15:14Z</time>
      </trkpt>
      <trkpt lat="42.8132830" lon="-0.2748040">
        <ele>2107.6</ele>
        <time>2020-09-11T10:15:18Z</time>
      </trkpt>
      <trkpt lat="42.8132880" lon="-0.2748000">
        <ele>2107.8</ele>
        <time>2020-09-11T10:15:19Z</time>
      </trkpt>
      <trkpt lat="42.8132970" lon="-0.2748010">
        <ele>2108.0</ele>
        <time>2020-09-11T10:15:20Z</time>
      </trkpt>
      <trkpt lat="42.8133410" lon="-0.2748070">
        <ele>2108.4</ele>
        <time>2020-09-11T10:15:24Z</time>
      </trkpt>
      <trkpt lat="42.8133640" lon="-0.2747680">
        <ele>2109.0</ele>
        <time>2020-09-11T10:15:28Z</time>
      </trkpt>
      <trkpt lat="42.8133810" lon="-0.2747480">
        <ele>2109.8</ele>
        <time>2020-09-11T10:15:31Z</time>
      </trkpt>
      <trkpt lat="42.8133850" lon="-0.2747440">
        <ele>2110.2</ele>
        <time>2020-09-11T10:15:32Z</time>
      </trkpt>
      <trkpt lat="42.8133980" lon="-0.2747280">
        <ele>2111.2</ele>
        <time>2020-09-11T10:15:36Z</time>
      </trkpt>
      <trkpt lat="42.8134100" lon="-0.2747500">
        <ele>2112.4</ele>
        <time>2020-09-11T10:15:40Z</time>
      </trkpt>
      <trkpt lat="42.8133850" lon="-0.2750010">
        <ele>2111.6</ele>
        <time>2020-09-11T10:15:59Z</time>
      </trkpt>
      <trkpt lat="42.8133780" lon="-0.2750200">
        <ele>2111.6</ele>
        <time>2020-09-11T10:16:00Z</time>
      </trkpt>
      <trkpt lat="42.8133570" lon="-0.2751270">
        <ele>2111.6</ele>
        <time>2020-09-11T10:16:08Z</time>
      </trkpt>
      <trkpt lat="42.8133610" lon="-0.2751840">
        <ele>2111.4</ele>
        <time>2020-09-11T10:16:12Z</time>
      </trkpt>
      <trkpt lat="42.8133510" lon="-0.2752090">
        <ele>2111.2</ele>
        <time>2020-09-11T10:16:14Z</time>
      </trkpt>
      <trkpt lat="42.8133480" lon="-0.2754280">
        <ele>2112.2</ele>
        <time>2020-09-11T10:16:26Z</time>
      </trkpt>
      <trkpt lat="42.8133490" lon="-0.2755190">
        <ele>2113.6</ele>
        <time>2020-09-11T10:16:32Z</time>
      </trkpt>
      <trkpt lat="42.8133510" lon="-0.2755330">
        <ele>2113.8</ele>
        <time>2020-09-11T10:16:33Z</time>
      </trkpt>
      <trkpt lat="42.8133640" lon="-0.2755500">
        <ele>2114.6</ele>
        <time>2020-09-11T10:16:35Z</time>
      </trkpt>
      <trkpt lat="42.8133740" lon="-0.2755550">
        <ele>2114.8</ele>
        <time>2020-09-11T10:16:36Z</time>
      </trkpt>
      <trkpt lat="42.8134680" lon="-0.2755530">
        <ele>2115.4</ele>
        <time>2020-09-11T10:16:44Z</time>
      </trkpt>
      <trkpt lat="42.8134750" lon="-0.2755590">
        <ele>2115.6</ele>
        <time>2020-09-11T10:16:45Z</time>
      </trkpt>
      <trkpt lat="42.8135250" lon="-0.2758110">
        <ele>2114.8</ele>
        <time>2020-09-11T10:17:01Z</time>
      </trkpt>
      <trkpt lat="42.8135920" lon="-0.2759220">
        <ele>2116.8</ele>
        <time>2020-09-11T10:17:10Z</time>
      </trkpt>
      <trkpt lat="42.8137730" lon="-0.2759500">
        <ele>2117.8</ele>
        <time>2020-09-11T10:17:25Z</time>
      </trkpt>
      <trkpt lat="42.8137840" lon="-0.2759470">
        <ele>2117.8</ele>
        <time>2020-09-11T10:17:26Z</time>
      </trkpt>
      <trkpt lat="42.8137960" lon="-0.2759400">
        <ele>2117.8</ele>
        <time>2020-09-11T10:17:27Z</time>
      </trkpt>
      <trkpt lat="42.8138660" lon="-0.2759250">
        <ele>2119.0</ele>
        <time>2020-09-11T10:17:34Z</time>
      </trkpt>
      <trkpt lat="42.8139470" lon="-0.2759260">
        <ele>2120.0</ele>
        <time>2020-09-11T10:17:41Z</time>
      </trkpt>
      <trkpt lat="42.8140280" lon="-0.2759310">
        <ele>2121.2</ele>
        <time>2020-09-11T10:17:48Z</time>
      </trkpt>
      <trkpt lat="42.8140530" lon="-0.2759260">
        <ele>2122.4</ele>
        <time>2020-09-11T10:17:51Z</time>
      </trkpt>
      <trkpt lat="42.8140800" lon="-0.2759230">
        <ele>2123.0</ele>
        <time>2020-09-11T10:17:54Z</time>
      </trkpt>
      <trkpt lat="42.8141010" lon="-0.2759030">
        <ele>2123.6</ele>
        <time>2020-09-11T10:17:57Z</time>
      </trkpt>
      <trkpt lat="42.8141620" lon="-0.2758260">
        <ele>2124.8</ele>
        <time>2020-09-11T10:18:05Z</time>
      </trkpt>
      <trkpt lat="42.8141840" lon="-0.2758040">
        <ele>2125.4</ele>
        <time>2020-09-11T10:18:08Z</time>
      </trkpt>
      <trkpt lat="42.8141960" lon="-0.2758040">
        <ele>2125.8</ele>
        <time>2020-09-11T10:18:10Z</time>
      </trkpt>
      <trkpt lat="42.8142120" lon="-0.2758690">
        <ele>2127.0</ele>
        <time>2020-09-11T10:18:16Z</time>
      </trkpt>
      <trkpt lat="42.8142350" lon="-0.2759140">
        <ele>2128.2</ele>
        <time>2020-09-11T10:18:22Z</time>
      </trkpt>
      <trkpt lat="42.8142680" lon="-0.2759420">
        <ele>2129.4</ele>
        <time>2020-09-11T10:18:28Z</time>
      </trkpt>
      <trkpt lat="42.8142900" lon="-0.2760120">
        <ele>2130.6</ele>
        <time>2020-09-11T10:18:34Z</time>
      </trkpt>
      <trkpt lat="42.8143000" lon="-0.2760780">
        <ele>2131.8</ele>
        <time>2020-09-11T10:18:38Z</time>
      </trkpt>
      <trkpt lat="42.8142880" lon="-0.2763370">
        <ele>2132.0</ele>
        <time>2020-09-11T10:18:52Z</time>
      </trkpt>
      <trkpt lat="42.8143200" lon="-0.2764470">
        <ele>2130.6</ele>
        <time>2020-09-11T10:18:59Z</time>
      </trkpt>
      <trkpt lat="42.8143530" lon="-0.2765340">
        <ele>2130.6</ele>
        <time>2020-09-11T10:19:06Z</time>
      </trkpt>
      <trkpt lat="42.8143500" lon="-0.2765560">
        <ele>2130.8</ele>
        <time>2020-09-11T10:19:08Z</time>
      </trkpt>
      <trkpt lat="42.8143520" lon="-0.2765720">
        <ele>2131.0</ele>
        <time>2020-09-11T10:19:10Z</time>
      </trkpt>
      <trkpt lat="42.8143540" lon="-0.2766060">
        <ele>2131.6</ele>
        <time>2020-09-11T10:19:13Z</time>
      </trkpt>
      <trkpt lat="42.8143540" lon="-0.2766170">
        <ele>2131.8</ele>
        <time>2020-09-11T10:19:14Z</time>
      </trkpt>
      <trkpt lat="42.8143410" lon="-0.2767280">
        <ele>2132.8</ele>
        <time>2020-09-11T10:19:23Z</time>
      </trkpt>
      <trkpt lat="42.8143480" lon="-0.2767890">
        <ele>2133.8</ele>
        <time>2020-09-11T10:19:28Z</time>
      </trkpt>
      <trkpt lat="42.8143520" lon="-0.2768260">
        <ele>2134.0</ele>
        <time>2020-09-11T10:19:31Z</time>
      </trkpt>
      <trkpt lat="42.8143420" lon="-0.2768580">
        <ele>2134.8</ele>
        <time>2020-09-11T10:19:34Z</time>
      </trkpt>
      <trkpt lat="42.8143390" lon="-0.2768690">
        <ele>2135.0</ele>
        <time>2020-09-11T10:19:35Z</time>
      </trkpt>
      <trkpt lat="42.8143360" lon="-0.2768900">
        <ele>2135.6</ele>
        <time>2020-09-11T10:19:37Z</time>
      </trkpt>
      <trkpt lat="42.8143360" lon="-0.2769130">
        <ele>2136.2</ele>
        <time>2020-09-11T10:19:39Z</time>
      </trkpt>
      <trkpt lat="42.8143370" lon="-0.2769250">
        <ele>2136.4</ele>
        <time>2020-09-11T10:19:40Z</time>
      </trkpt>
      <trkpt lat="42.8143190" lon="-0.2770010">
        <ele>2137.2</ele>
        <time>2020-09-11T10:19:45Z</time>
      </trkpt>
      <trkpt lat="42.8143100" lon="-0.2770260">
        <ele>2137.4</ele>
        <time>2020-09-11T10:19:47Z</time>
      </trkpt>
      <trkpt lat="42.8142470" lon="-0.2771480">
        <ele>2138.2</ele>
        <time>2020-09-11T10:19:57Z</time>
      </trkpt>
      <trkpt lat="42.8142400" lon="-0.2771670">
        <ele>2138.6</ele>
        <time>2020-09-11T10:19:59Z</time>
      </trkpt>
      <trkpt lat="42.8142250" lon="-0.2772060">
        <ele>2139.4</ele>
        <time>2020-09-11T10:20:02Z</time>
      </trkpt>
      <trkpt lat="42.8141970" lon="-0.2772690">
        <ele>2140.4</ele>
        <time>2020-09-11T10:20:08Z</time>
      </trkpt>
      <trkpt lat="42.8141570" lon="-0.2773170">
        <ele>2141.4</ele>
        <time>2020-09-11T10:20:15Z</time>
      </trkpt>
      <trkpt lat="42.8141390" lon="-0.2773270">
        <ele>2142.6</ele>
        <time>2020-09-11T10:20:20Z</time>
      </trkpt>
      <trkpt lat="42.8141150" lon="-0.2773490">
        <ele>2143.6</ele>
        <time>2020-09-11T10:20:24Z</time>
      </trkpt>
      <trkpt lat="42.8140990" lon="-0.2773640">
        <ele>2144.8</ele>
        <time>2020-09-11T10:20:26Z</time>
      </trkpt>
      <trkpt lat="42.8140890" lon="-0.2773750">
        <ele>2145.8</ele>
        <time>2020-09-11T10:20:28Z</time>
      </trkpt>
      <trkpt lat="42.8140650" lon="-0.2774180">
        <ele>2146.6</ele>
        <time>2020-09-11T10:20:32Z</time>
      </trkpt>
      <trkpt lat="42.8140630" lon="-0.2774330">
        <ele>2147.0</ele>
        <time>2020-09-11T10:20:33Z</time>
      </trkpt>
      <trkpt lat="42.8140510" lon="-0.2774940">
        <ele>2148.0</ele>
        <time>2020-09-11T10:20:37Z</time>
      </trkpt>
      <trkpt lat="42.8140680" lon="-0.2775640">
        <ele>2148.6</ele>
        <time>2020-09-11T10:20:41Z</time>
      </trkpt>
      <trkpt lat="42.8140900" lon="-0.2776460">
        <ele>2149.2</ele>
        <time>2020-09-11T10:20:46Z</time>
      </trkpt>
      <trkpt lat="42.8140880" lon="-0.2777460">
        <ele>2150.4</ele>
        <time>2020-09-11T10:20:54Z</time>
      </trkpt>
      <trkpt lat="42.8140760" lon="-0.2777980">
        <ele>2151.4</ele>
        <time>2020-09-11T10:20:59Z</time>
      </trkpt>
      <trkpt lat="42.8140730" lon="-0.2778070">
        <ele>2151.6</ele>
        <time>2020-09-11T10:21:00Z</time>
      </trkpt>
      <trkpt lat="42.8140660" lon="-0.2778450">
        <ele>2152.0</ele>
        <time>2020-09-11T10:21:03Z</time>
      </trkpt>
      <trkpt lat="42.8140570" lon="-0.2779060">
        <ele>2152.6</ele>
        <time>2020-09-11T10:21:08Z</time>
      </trkpt>
      <trkpt lat="42.8140540" lon="-0.2779310">
        <ele>2153.0</ele>
        <time>2020-09-11T10:21:10Z</time>
      </trkpt>
      <trkpt lat="42.8141000" lon="-0.2780280">
        <ele>2153.4</ele>
        <time>2020-09-11T10:21:17Z</time>
      </trkpt>
      <trkpt lat="42.8142280" lon="-0.2782080">
        <ele>2152.2</ele>
        <time>2020-09-11T10:21:32Z</time>
      </trkpt>
      <trkpt lat="42.8142480" lon="-0.2782410">
        <ele>2151.6</ele>
        <time>2020-09-11T10:21:35Z</time>
      </trkpt>
      <trkpt lat="42.8142560" lon="-0.2782520">
        <ele>2151.4</ele>
        <time>2020-09-11T10:21:36Z</time>
      </trkpt>
      <trkpt lat="42.8143050" lon="-0.2782850">
        <ele>2150.6</ele>
        <time>2020-09-11T10:21:41Z</time>
      </trkpt>
      <trkpt lat="42.8143570" lon="-0.2783130">
        <ele>2149.2</ele>
        <time>2020-09-11T10:21:47Z</time>
      </trkpt>
      <trkpt lat="42.8143620" lon="-0.2783080">
        <ele>2148.4</ele>
        <time>2020-09-11T10:21:50Z</time>
      </trkpt>
      <trkpt lat="42.8143640" lon="-0.2783090">
        <ele>2148.2</ele>
        <time>2020-09-11T10:21:52Z</time>
      </trkpt>
      <trkpt lat="42.8143940" lon="-0.2783320">
        <ele>2148.2</ele>
        <time>2020-09-11T10:21:57Z</time>
      </trkpt>
      <trkpt lat="42.8145240" lon="-0.2784290">
        <ele>2147.6</ele>
        <time>2020-09-11T10:22:08Z</time>
      </trkpt>
      <trkpt lat="42.8145900" lon="-0.2785380">
        <ele>2147.4</ele>
        <time>2020-09-11T10:22:15Z</time>
      </trkpt>
      <trkpt lat="42.8146110" lon="-0.2785820">
        <ele>2147.2</ele>
        <time>2020-09-11T10:22:18Z</time>
      </trkpt>
      <trkpt lat="42.8146160" lon="-0.2786000">
        <ele>2147.0</ele>
        <time>2020-09-11T10:22:19Z</time>
      </trkpt>
      <trkpt lat="42.8146740" lon="-0.2788320">
        <ele>2146.2</ele>
        <time>2020-09-11T10:22:33Z</time>
      </trkpt>
      <trkpt lat="42.8145970" lon="-0.2790430">
        <ele>2146.4</ele>
        <time>2020-09-11T10:22:47Z</time>
      </trkpt>
      <trkpt lat="42.8145060" lon="-0.2790840">
        <ele>2145.8</ele>
        <time>2020-09-11T10:22:54Z</time>
      </trkpt>
      <trkpt lat="42.8144670" lon="-0.2791120">
        <ele>2144.8</ele>
        <time>2020-09-11T10:22:57Z</time>
      </trkpt>
      <trkpt lat="42.8144260" lon="-0.2791110">
        <ele>2143.4</ele>
        <time>2020-09-11T10:23:00Z</time>
      </trkpt>
      <trkpt lat="42.8143980" lon="-0.2791090">
        <ele>2143.0</ele>
        <time>2020-09-11T10:23:02Z</time>
      </trkpt>
      <trkpt lat="42.8143070" lon="-0.2791410">
        <ele>2142.6</ele>
        <time>2020-09-11T10:23:09Z</time>
      </trkpt>
      <trkpt lat="42.8142960" lon="-0.2791400">
        <ele>2142.4</ele>
        <time>2020-09-11T10:23:10Z</time>
      </trkpt>
      <trkpt lat="42.8142860" lon="-0.2791490">
        <ele>2142.4</ele>
        <time>2020-09-11T10:23:11Z</time>
      </trkpt>
      <trkpt lat="42.8142390" lon="-0.2791750">
        <ele>2141.2</ele>
        <time>2020-09-11T10:23:15Z</time>
      </trkpt>
      <trkpt lat="42.8142100" lon="-0.2791890">
        <ele>2140.8</ele>
        <time>2020-09-11T10:23:17Z</time>
      </trkpt>
      <trkpt lat="42.8141700" lon="-0.2792370">
        <ele>2140.0</ele>
        <time>2020-09-11T10:23:21Z</time>
      </trkpt>
      <trkpt lat="42.8141510" lon="-0.2793030">
        <ele>2138.8</ele>
        <time>2020-09-11T10:23:25Z</time>
      </trkpt>
      <trkpt lat="42.8141910" lon="-0.2794390">
        <ele>2137.6</ele>
        <time>2020-09-11T10:23:32Z</time>
      </trkpt>
      <trkpt lat="42.8142140" lon="-0.2794860">
        <ele>2136.4</ele>
        <time>2020-09-11T10:23:35Z</time>
      </trkpt>
      <trkpt lat="42.8142680" lon="-0.2795210">
        <ele>2135.2</ele>
        <time>2020-09-11T10:23:39Z</time>
      </trkpt>
      <trkpt lat="42.8143430" lon="-0.2795420">
        <ele>2134.0</ele>
        <time>2020-09-11T10:23:44Z</time>
      </trkpt>
      <trkpt lat="42.8143570" lon="-0.2795500">
        <ele>2133.6</ele>
        <time>2020-09-11T10:23:45Z</time>
      </trkpt>
      <trkpt lat="42.8143990" lon="-0.2795710">
        <ele>2132.8</ele>
        <time>2020-09-11T10:23:48Z</time>
      </trkpt>
      <trkpt lat="42.8144770" lon="-0.2795970">
        <ele>2131.6</ele>
        <time>2020-09-11T10:23:54Z</time>
      </trkpt>
      <trkpt lat="42.8145310" lon="-0.2796270">
        <ele>2130.8</ele>
        <time>2020-09-11T10:23:58Z</time>
      </trkpt>
      <trkpt lat="42.8145400" lon="-0.2796400">
        <ele>2130.6</ele>
        <time>2020-09-11T10:23:59Z</time>
      </trkpt>
      <trkpt lat="42.8146080" lon="-0.2797330">
        <ele>2129.4</ele>
        <time>2020-09-11T10:24:06Z</time>
      </trkpt>
      <trkpt lat="42.8146550" lon="-0.2797990">
        <ele>2128.4</ele>
        <time>2020-09-11T10:24:11Z</time>
      </trkpt>
      <trkpt lat="42.8147150" lon="-0.2798280">
        <ele>2127.4</ele>
        <time>2020-09-11T10:24:16Z</time>
      </trkpt>
      <trkpt lat="42.8147370" lon="-0.2798500">
        <ele>2127.2</ele>
        <time>2020-09-11T10:24:18Z</time>
      </trkpt>
      <trkpt lat="42.8147770" lon="-0.2798980">
        <ele>2126.8</ele>
        <time>2020-09-11T10:24:22Z</time>
      </trkpt>
      <trkpt lat="42.8148110" lon="-0.2799160">
        <ele>2126.2</ele>
        <time>2020-09-11T10:24:25Z</time>
      </trkpt>
      <trkpt lat="42.8148510" lon="-0.2799550">
        <ele>2125.2</ele>
        <time>2020-09-11T10:24:30Z</time>
      </trkpt>
      <trkpt lat="42.8148570" lon="-0.2799580">
        <ele>2125.0</ele>
        <time>2020-09-11T10:24:31Z</time>
      </trkpt>
      <trkpt lat="42.8148550" lon="-0.2801860">
        <ele>2124.4</ele>
        <time>2020-09-11T10:24:51Z</time>
      </trkpt>
      <trkpt lat="42.8148470" lon="-0.2802410">
        <ele>2124.2</ele>
        <time>2020-09-11T10:24:54Z</time>
      </trkpt>
      <trkpt lat="42.8148270" lon="-0.2804140">
        <ele>2123.0</ele>
        <time>2020-09-11T10:25:04Z</time>
      </trkpt>
      <trkpt lat="42.8148260" lon="-0.2804510">
        <ele>2122.8</ele>
        <time>2020-09-11T10:25:06Z</time>
      </trkpt>
      <trkpt lat="42.8148320" lon="-0.2805340">
        <ele>2122.2</ele>
        <time>2020-09-11T10:25:11Z</time>
      </trkpt>
      <trkpt lat="42.8148330" lon="-0.2806610">
        <ele>2122.0</ele>
        <time>2020-09-11T10:25:19Z</time>
      </trkpt>
      <trkpt lat="42.8148520" lon="-0.2808720">
        <ele>2120.8</ele>
        <time>2020-09-11T10:25:31Z</time>
      </trkpt>
      <trkpt lat="42.8148500" lon="-0.2809440">
        <ele>2120.4</ele>
        <time>2020-09-11T10:25:35Z</time>
      </trkpt>
      <trkpt lat="42.8148220" lon="-0.2810440">
        <ele>2120.6</ele>
        <time>2020-09-11T10:25:42Z</time>
      </trkpt>
      <trkpt lat="42.8148420" lon="-0.2811340">
        <ele>2121.8</ele>
        <time>2020-09-11T10:25:48Z</time>
      </trkpt>
      <trkpt lat="42.8148640" lon="-0.2812020">
        <ele>2122.2</ele>
        <time>2020-09-11T10:25:54Z</time>
      </trkpt>
      <trkpt lat="42.8148660" lon="-0.2812190">
        <ele>2122.2</ele>
        <time>2020-09-11T10:25:56Z</time>
      </trkpt>
      <trkpt lat="42.8148720" lon="-0.2812370">
        <ele>2122.4</ele>
        <time>2020-09-11T10:25:58Z</time>
      </trkpt>
      <trkpt lat="42.8148660" lon="-0.2812910">
        <ele>2122.6</ele>
        <time>2020-09-11T10:26:02Z</time>
      </trkpt>
      <trkpt lat="42.8148690" lon="-0.2813160">
        <ele>2122.8</ele>
        <time>2020-09-11T10:26:04Z</time>
      </trkpt>
      <trkpt lat="42.8148710" lon="-0.2813330">
        <ele>2123.0</ele>
        <time>2020-09-11T10:26:05Z</time>
      </trkpt>
      <trkpt lat="42.8148770" lon="-0.2813880">
        <ele>2124.0</ele>
        <time>2020-09-11T10:26:09Z</time>
      </trkpt>
      <trkpt lat="42.8148780" lon="-0.2814050">
        <ele>2124.2</ele>
        <time>2020-09-11T10:26:11Z</time>
      </trkpt>
      <trkpt lat="42.8148820" lon="-0.2814320">
        <ele>2124.8</ele>
        <time>2020-09-11T10:26:14Z</time>
      </trkpt>
      <trkpt lat="42.8148980" lon="-0.2814650">
        <ele>2125.4</ele>
        <time>2020-09-11T10:26:17Z</time>
      </trkpt>
      <trkpt lat="42.8149100" lon="-0.2814770">
        <ele>2125.6</ele>
        <time>2020-09-11T10:26:19Z</time>
      </trkpt>
      <trkpt lat="42.8149210" lon="-0.2815100">
        <ele>2126.4</ele>
        <time>2020-09-11T10:26:23Z</time>
      </trkpt>
      <trkpt lat="42.8149310" lon="-0.2815310">
        <ele>2126.8</ele>
        <time>2020-09-11T10:26:25Z</time>
      </trkpt>
      <trkpt lat="42.8149620" lon="-0.2816190">
        <ele>2127.4</ele>
        <time>2020-09-11T10:26:32Z</time>
      </trkpt>
      <trkpt lat="42.8149650" lon="-0.2816280">
        <ele>2127.6</ele>
        <time>2020-09-11T10:26:33Z</time>
      </trkpt>
      <trkpt lat="42.8149680" lon="-0.2816420">
        <ele>2128.0</ele>
        <time>2020-09-11T10:26:34Z</time>
      </trkpt>
      <trkpt lat="42.8149810" lon="-0.2816750">
        <ele>2129.0</ele>
        <time>2020-09-11T10:26:37Z</time>
      </trkpt>
      <trkpt lat="42.8149810" lon="-0.2816980">
        <ele>2129.4</ele>
        <time>2020-09-11T10:26:39Z</time>
      </trkpt>
      <trkpt lat="42.8149910" lon="-0.2817240">
        <ele>2130.0</ele>
        <time>2020-09-11T10:26:42Z</time>
      </trkpt>
      <trkpt lat="42.8150100" lon="-0.2817500">
        <ele>2130.8</ele>
        <time>2020-09-11T10:26:45Z</time>
      </trkpt>
      <trkpt lat="42.8150120" lon="-0.2817820">
        <ele>2131.2</ele>
        <time>2020-09-11T10:26:48Z</time>
      </trkpt>
      <trkpt lat="42.8150290" lon="-0.2818270">
        <ele>2131.6</ele>
        <time>2020-09-11T10:26:52Z</time>
      </trkpt>
      <trkpt lat="42.8150440" lon="-0.2818720">
        <ele>2132.2</ele>
        <time>2020-09-11T10:26:55Z</time>
      </trkpt>
      <trkpt lat="42.8150490" lon="-0.2818840">
        <ele>2132.4</ele>
        <time>2020-09-11T10:26:56Z</time>
      </trkpt>
      <trkpt lat="42.8150670" lon="-0.2819090">
        <ele>2133.0</ele>
        <time>2020-09-11T10:26:59Z</time>
      </trkpt>
      <trkpt lat="42.8150800" lon="-0.2819300">
        <ele>2133.2</ele>
        <time>2020-09-11T10:27:01Z</time>
      </trkpt>
      <trkpt lat="42.8150880" lon="-0.2819430">
        <ele>2133.4</ele>
        <time>2020-09-11T10:27:02Z</time>
      </trkpt>
      <trkpt lat="42.8151010" lon="-0.2819660">
        <ele>2133.6</ele>
        <time>2020-09-11T10:27:04Z</time>
      </trkpt>
      <trkpt lat="42.8151090" lon="-0.2820030">
        <ele>2133.8</ele>
        <time>2020-09-11T10:27:07Z</time>
      </trkpt>
      <trkpt lat="42.8151080" lon="-0.2820450">
        <ele>2134.4</ele>
        <time>2020-09-11T10:27:10Z</time>
      </trkpt>
      <trkpt lat="42.8151400" lon="-0.2820980">
        <ele>2135.4</ele>
        <time>2020-09-11T10:27:15Z</time>
      </trkpt>
      <trkpt lat="42.8151470" lon="-0.2821180">
        <ele>2135.4</ele>
        <time>2020-09-11T10:27:17Z</time>
      </trkpt>
      <trkpt lat="42.8151720" lon="-0.2821620">
        <ele>2136.6</ele>
        <time>2020-09-11T10:27:22Z</time>
      </trkpt>
      <trkpt lat="42.8151760" lon="-0.2821680">
        <ele>2137.0</ele>
        <time>2020-09-11T10:27:23Z</time>
      </trkpt>
      <trkpt lat="42.8151930" lon="-0.2821790">
        <ele>2137.8</ele>
        <time>2020-09-11T10:27:26Z</time>
      </trkpt>
      <trkpt lat="42.8152220" lon="-0.2822240">
        <ele>2138.8</ele>
        <time>2020-09-11T10:27:33Z</time>
      </trkpt>
      <trkpt lat="42.8152400" lon="-0.2822650">
        <ele>2140.0</ele>
        <time>2020-09-11T10:27:39Z</time>
      </trkpt>
      <trkpt lat="42.8152490" lon="-0.2823010">
        <ele>2141.0</ele>
        <time>2020-09-11T10:27:43Z</time>
      </trkpt>
      <trkpt lat="42.8152590" lon="-0.2823310">
        <ele>2142.2</ele>
        <time>2020-09-11T10:27:47Z</time>
      </trkpt>
      <trkpt lat="42.8152770" lon="-0.2823830">
        <ele>2143.2</ele>
        <time>2020-09-11T10:27:54Z</time>
      </trkpt>
      <trkpt lat="42.8152760" lon="-0.2823960">
        <ele>2143.2</ele>
        <time>2020-09-11T10:27:55Z</time>
      </trkpt>
      <trkpt lat="42.8153150" lon="-0.2826490">
        <ele>2143.8</ele>
        <time>2020-09-11T10:28:12Z</time>
      </trkpt>
      <trkpt lat="42.8153220" lon="-0.2827320">
        <ele>2143.2</ele>
        <time>2020-09-11T10:28:17Z</time>
      </trkpt>
      <trkpt lat="42.8154270" lon="-0.2829050">
        <ele>2142.8</ele>
        <time>2020-09-11T10:28:31Z</time>
      </trkpt>
      <trkpt lat="42.8155970" lon="-0.2829250">
        <ele>2143.0</ele>
        <time>2020-09-11T10:28:46Z</time>
      </trkpt>
      <trkpt lat="42.8157690" lon="-0.2829650">
        <ele>2142.6</ele>
        <time>2020-09-11T10:29:00Z</time>
      </trkpt>
      <trkpt lat="42.8159020" lon="-0.2831540">
        <ele>2142.4</ele>
        <time>2020-09-11T10:29:14Z</time>
      </trkpt>
      <trkpt lat="42.8159070" lon="-0.2832300">
        <ele>2142.2</ele>
        <time>2020-09-11T10:29:18Z</time>
      </trkpt>
      <trkpt lat="42.8158660" lon="-0.2834750">
        <ele>2141.6</ele>
        <time>2020-09-11T10:29:32Z</time>
      </trkpt>
      <trkpt lat="42.8158550" lon="-0.2834960">
        <ele>2141.8</ele>
        <time>2020-09-11T10:29:35Z</time>
      </trkpt>
      <trkpt lat="42.8158330" lon="-0.2834880">
        <ele>2141.8</ele>
        <time>2020-09-11T10:29:52Z</time>
      </trkpt>
      <trkpt lat="42.8158930" lon="-0.2836630">
        <ele>2143.0</ele>
        <time>2020-09-11T10:30:02Z</time>
      </trkpt>
      <trkpt lat="42.8158940" lon="-0.2836640">
        <ele>2143.2</ele>
        <time>2020-09-11T10:30:04Z</time>
      </trkpt>
      <trkpt lat="42.8159380" lon="-0.2836830">
        <ele>2143.0</ele>
        <time>2020-09-11T10:30:20Z</time>
      </trkpt>
      <trkpt lat="42.8160390" lon="-0.2838530">
        <ele>2144.0</ele>
        <time>2020-09-11T10:30:33Z</time>
      </trkpt>
      <trkpt lat="42.8160330" lon="-0.2839100">
        <ele>2144.2</ele>
        <time>2020-09-11T10:30:36Z</time>
      </trkpt>
      <trkpt lat="42.8161010" lon="-0.2840450">
        <ele>2145.2</ele>
        <time>2020-09-11T10:30:46Z</time>
      </trkpt>
      <trkpt lat="42.8161360" lon="-0.2841550">
        <ele>2146.2</ele>
        <time>2020-09-11T10:30:54Z</time>
      </trkpt>
      <trkpt lat="42.8161300" lon="-0.2841710">
        <ele>2146.4</ele>
        <time>2020-09-11T10:30:55Z</time>
      </trkpt>
      <trkpt lat="42.8161020" lon="-0.2842530">
        <ele>2147.4</ele>
        <time>2020-09-11T10:31:01Z</time>
      </trkpt>
      <trkpt lat="42.8160990" lon="-0.2842720">
        <ele>2147.6</ele>
        <time>2020-09-11T10:31:02Z</time>
      </trkpt>
      <trkpt lat="42.8161420" lon="-0.2844810">
        <ele>2146.4</ele>
        <time>2020-09-11T10:31:13Z</time>
      </trkpt>
      <trkpt lat="42.8161180" lon="-0.2846950">
        <ele>2145.2</ele>
        <time>2020-09-11T10:31:23Z</time>
      </trkpt>
      <trkpt lat="42.8161420" lon="-0.2849450">
        <ele>2145.6</ele>
        <time>2020-09-11T10:31:35Z</time>
      </trkpt>
      <trkpt lat="42.8161950" lon="-0.2850150">
        <ele>2146.2</ele>
        <time>2020-09-11T10:31:40Z</time>
      </trkpt>
      <trkpt lat="42.8162980" lon="-0.2852220">
        <ele>2147.2</ele>
        <time>2020-09-11T10:31:53Z</time>
      </trkpt>
      <trkpt lat="42.8163260" lon="-0.2854640">
        <ele>2146.0</ele>
        <time>2020-09-11T10:32:05Z</time>
      </trkpt>
      <trkpt lat="42.8163930" lon="-0.2855880">
        <ele>2145.8</ele>
        <time>2020-09-11T10:32:13Z</time>
      </trkpt>
      <trkpt lat="42.8164280" lon="-0.2856410">
        <ele>2145.6</ele>
        <time>2020-09-11T10:32:18Z</time>
      </trkpt>
      <trkpt lat="42.8164400" lon="-0.2856570">
        <ele>2145.8</ele>
        <time>2020-09-11T10:32:20Z</time>
      </trkpt>
      <trkpt lat="42.8164730" lon="-0.2857570">
        <ele>2147.6</ele>
        <time>2020-09-11T10:32:28Z</time>
      </trkpt>
      <trkpt lat="42.8164920" lon="-0.2858060">
        <ele>2148.6</ele>
        <time>2020-09-11T10:32:31Z</time>
      </trkpt>
      <trkpt lat="42.8164960" lon="-0.2858200">
        <ele>2148.8</ele>
        <time>2020-09-11T10:32:32Z</time>
      </trkpt>
      <trkpt lat="42.8165520" lon="-0.2858930">
        <ele>2149.6</ele>
        <time>2020-09-11T10:32:38Z</time>
      </trkpt>
      <trkpt lat="42.8165610" lon="-0.2858940">
        <ele>2149.8</ele>
        <time>2020-09-11T10:32:39Z</time>
      </trkpt>
      <trkpt lat="42.8165960" lon="-0.2858850">
        <ele>2150.6</ele>
        <time>2020-09-11T10:32:43Z</time>
      </trkpt>
      <trkpt lat="42.8166030" lon="-0.2858740">
        <ele>2150.8</ele>
        <time>2020-09-11T10:32:44Z</time>
      </trkpt>
      <trkpt lat="42.8167240" lon="-0.2857750">
        <ele>2151.0</ele>
        <time>2020-09-11T10:32:58Z</time>
      </trkpt>
      <trkpt lat="42.8167240" lon="-0.2857790">
        <ele>2150.6</ele>
        <time>2020-09-11T10:33:01Z</time>
      </trkpt>
      <trkpt lat="42.8167390" lon="-0.2858050">
        <ele>2150.0</ele>
        <time>2020-09-11T10:33:04Z</time>
      </trkpt>
      <trkpt lat="42.8167430" lon="-0.2858180">
        <ele>2149.6</ele>
        <time>2020-09-11T10:33:05Z</time>
      </trkpt>
      <trkpt lat="42.8167460" lon="-0.2858580">
        <ele>2148.4</ele>
        <time>2020-09-11T10:33:08Z</time>
      </trkpt>
      <trkpt lat="42.8167500" lon="-0.2859070">
        <ele>2147.4</ele>
        <time>2020-09-11T10:33:12Z</time>
      </trkpt>
      <trkpt lat="42.8167510" lon="-0.2859300">
        <ele>2146.2</ele>
        <time>2020-09-11T10:33:15Z</time>
      </trkpt>
      <trkpt lat="42.8167630" lon="-0.2859580">
        <ele>2145.2</ele>
        <time>2020-09-11T10:33:20Z</time>
      </trkpt>
      <trkpt lat="42.8167840" lon="-0.2860110">
        <ele>2144.4</ele>
        <time>2020-09-11T10:33:23Z</time>
      </trkpt>
      <trkpt lat="42.8167830" lon="-0.2860290">
        <ele>2143.8</ele>
        <time>2020-09-11T10:33:25Z</time>
      </trkpt>
      <trkpt lat="42.8167680" lon="-0.2860400">
        <ele>2142.8</ele>
        <time>2020-09-11T10:33:28Z</time>
      </trkpt>
      <trkpt lat="42.8167470" lon="-0.2860370">
        <ele>2141.6</ele>
        <time>2020-09-11T10:33:32Z</time>
      </trkpt>
      <trkpt lat="42.8167240" lon="-0.2860400">
        <ele>2140.4</ele>
        <time>2020-09-11T10:33:36Z</time>
      </trkpt>
      <trkpt lat="42.8166830" lon="-0.2860710">
        <ele>2139.0</ele>
        <time>2020-09-11T10:33:41Z</time>
      </trkpt>
      <trkpt lat="42.8166640" lon="-0.2860830">
        <ele>2138.0</ele>
        <time>2020-09-11T10:33:43Z</time>
      </trkpt>
      <trkpt lat="42.8166430" lon="-0.2861150">
        <ele>2137.0</ele>
        <time>2020-09-11T10:33:46Z</time>
      </trkpt>
      <trkpt lat="42.8166410" lon="-0.2861660">
        <ele>2135.6</ele>
        <time>2020-09-11T10:33:49Z</time>
      </trkpt>
      <trkpt lat="42.8166290" lon="-0.2862210">
        <ele>2134.2</ele>
        <time>2020-09-11T10:33:52Z</time>
      </trkpt>
      <trkpt lat="42.8166290" lon="-0.2862570">
        <ele>2133.2</ele>
        <time>2020-09-11T10:33:54Z</time>
      </trkpt>
      <trkpt lat="42.8166330" lon="-0.2863120">
        <ele>2132.0</ele>
        <time>2020-09-11T10:33:57Z</time>
      </trkpt>
      <trkpt lat="42.8166350" lon="-0.2863240">
        <ele>2131.6</ele>
        <time>2020-09-11T10:33:58Z</time>
      </trkpt>
      <trkpt lat="42.8166370" lon="-0.2863530">
        <ele>2130.8</ele>
        <time>2020-09-11T10:34:00Z</time>
      </trkpt>
      <trkpt lat="42.8166400" lon="-0.2863670">
        <ele>2130.4</ele>
        <time>2020-09-11T10:34:01Z</time>
      </trkpt>
      <trkpt lat="42.8166640" lon="-0.2864130">
        <ele>2129.6</ele>
        <time>2020-09-11T10:34:04Z</time>
      </trkpt>
      <trkpt lat="42.8166650" lon="-0.2864560">
        <ele>2128.2</ele>
        <time>2020-09-11T10:34:07Z</time>
      </trkpt>
      <trkpt lat="42.8166530" lon="-0.2865740">
        <ele>2127.2</ele>
        <time>2020-09-11T10:34:13Z</time>
      </trkpt>
      <trkpt lat="42.8166580" lon="-0.2866440">
        <ele>2126.2</ele>
        <time>2020-09-11T10:34:17Z</time>
      </trkpt>
      <trkpt lat="42.8166670" lon="-0.2866600">
        <ele>2125.8</ele>
        <time>2020-09-11T10:34:18Z</time>
      </trkpt>
      <trkpt lat="42.8166790" lon="-0.2866910">
        <ele>2125.0</ele>
        <time>2020-09-11T10:34:20Z</time>
      </trkpt>
      <trkpt lat="42.8166800" lon="-0.2867010">
        <ele>2124.4</ele>
        <time>2020-09-11T10:34:21Z</time>
      </trkpt>
      <trkpt lat="42.8166770" lon="-0.2867100">
        <ele>2124.0</ele>
        <time>2020-09-11T10:34:22Z</time>
      </trkpt>
      <trkpt lat="42.8166680" lon="-0.2867290">
        <ele>2123.4</ele>
        <time>2020-09-11T10:34:24Z</time>
      </trkpt>
      <trkpt lat="42.8166670" lon="-0.2867560">
        <ele>2122.2</ele>
        <time>2020-09-11T10:34:26Z</time>
      </trkpt>
      <trkpt lat="42.8166630" lon="-0.2867900">
        <ele>2121.0</ele>
        <time>2020-09-11T10:34:28Z</time>
      </trkpt>
      <trkpt lat="42.8166610" lon="-0.2868300">
        <ele>2119.8</ele>
        <time>2020-09-11T10:34:30Z</time>
      </trkpt>
      <trkpt lat="42.8166590" lon="-0.2868680">
        <ele>2118.6</ele>
        <time>2020-09-11T10:34:32Z</time>
      </trkpt>
      <trkpt lat="42.8166560" lon="-0.2869240">
        <ele>2117.4</ele>
        <time>2020-09-11T10:34:35Z</time>
      </trkpt>
      <trkpt lat="42.8166680" lon="-0.2869860">
        <ele>2116.6</ele>
        <time>2020-09-11T10:34:39Z</time>
      </trkpt>
      <trkpt lat="42.8166640" lon="-0.2870130">
        <ele>2116.2</ele>
        <time>2020-09-11T10:34:41Z</time>
      </trkpt>
      <trkpt lat="42.8166640" lon="-0.2870250">
        <ele>2116.0</ele>
        <time>2020-09-11T10:34:42Z</time>
      </trkpt>
      <trkpt lat="42.8166690" lon="-0.2870500">
        <ele>2115.2</ele>
        <time>2020-09-11T10:34:44Z</time>
      </trkpt>
      <trkpt lat="42.8166670" lon="-0.2871130">
        <ele>2113.8</ele>
        <time>2020-09-11T10:34:48Z</time>
      </trkpt>
      <trkpt lat="42.8166720" lon="-0.2871260">
        <ele>2113.4</ele>
        <time>2020-09-11T10:34:49Z</time>
      </trkpt>
      <trkpt lat="42.8166940" lon="-0.2871470">
        <ele>2112.8</ele>
        <time>2020-09-11T10:34:51Z</time>
      </trkpt>
      <trkpt lat="42.8167920" lon="-0.2872070">
        <ele>2112.8</ele>
        <time>2020-09-11T10:35:01Z</time>
      </trkpt>
      <trkpt lat="42.8168510" lon="-0.2872830">
        <ele>2113.4</ele>
        <time>2020-09-11T10:35:08Z</time>
      </trkpt>
      <trkpt lat="42.8168530" lon="-0.2874170">
        <ele>2113.8</ele>
        <time>2020-09-11T10:35:17Z</time>
      </trkpt>
      <trkpt lat="42.8168720" lon="-0.2875110">
        <ele>2113.8</ele>
        <time>2020-09-11T10:35:24Z</time>
      </trkpt>
      <trkpt lat="42.8168520" lon="-0.2875620">
        <ele>2114.2</ele>
        <time>2020-09-11T10:35:28Z</time>
      </trkpt>
      <trkpt lat="42.8168360" lon="-0.2876250">
        <ele>2114.6</ele>
        <time>2020-09-11T10:35:37Z</time>
      </trkpt>
      <trkpt lat="42.8168490" lon="-0.2876920">
        <ele>2114.6</ele>
        <time>2020-09-11T10:35:43Z</time>
      </trkpt>
      <trkpt lat="42.8168750" lon="-0.2877660">
        <ele>2115.0</ele>
        <time>2020-09-11T10:35:55Z</time>
      </trkpt>
      <trkpt lat="42.8169140" lon="-0.2877740">
        <ele>2115.0</ele>
        <time>2020-09-11T10:36:21Z</time>
      </trkpt>
      <trkpt lat="42.8169290" lon="-0.2878240">
        <ele>2118.2</ele>
        <time>2020-09-11T11:08:45Z</time>
      </trkpt>
      <trkpt lat="42.8169250" lon="-0.2878580">
        <ele>2117.6</ele>
        <time>2020-09-11T11:09:15Z</time>
      </trkpt>
      <trkpt lat="42.8169370" lon="-0.2878280">
        <ele>2117.4</ele>
        <time>2020-09-11T11:11:35Z</time>
      </trkpt>
      <trkpt lat="42.8169540" lon="-0.2878770">
        <ele>2117.0</ele>
        <time>2020-09-11T11:11:43Z</time>
      </trkpt>
      <trkpt lat="42.8169790" lon="-0.2878790">
        <ele>2116.8</ele>
        <time>2020-09-11T11:11:45Z</time>
      </trkpt>
      <trkpt lat="42.8170550" lon="-0.2878770">
        <ele>2116.2</ele>
        <time>2020-09-11T11:11:51Z</time>
      </trkpt>
      <trkpt lat="42.8171620" lon="-0.2880070">
        <ele>2117.6</ele>
        <time>2020-09-11T11:12:04Z</time>
      </trkpt>
      <trkpt lat="42.8173200" lon="-0.2881100">
        <ele>2117.6</ele>
        <time>2020-09-11T11:12:20Z</time>
      </trkpt>
      <trkpt lat="42.8174890" lon="-0.2881600">
        <ele>2117.2</ele>
        <time>2020-09-11T11:12:34Z</time>
      </trkpt>
      <trkpt lat="42.8175270" lon="-0.2882660">
        <ele>2117.4</ele>
        <time>2020-09-11T11:12:43Z</time>
      </trkpt>
      <trkpt lat="42.8175240" lon="-0.2882810">
        <ele>2117.6</ele>
        <time>2020-09-11T11:12:45Z</time>
      </trkpt>
      <trkpt lat="42.8175240" lon="-0.2883290">
        <ele>2117.8</ele>
        <time>2020-09-11T11:12:49Z</time>
      </trkpt>
      <trkpt lat="42.8175640" lon="-0.2884470">
        <ele>2118.0</ele>
        <time>2020-09-11T11:12:59Z</time>
      </trkpt>
      <trkpt lat="42.8176520" lon="-0.2886710">
        <ele>2116.6</ele>
        <time>2020-09-11T11:13:16Z</time>
      </trkpt>
      <trkpt lat="42.8176640" lon="-0.2886990">
        <ele>2116.0</ele>
        <time>2020-09-11T11:13:18Z</time>
      </trkpt>
      <trkpt lat="42.8177080" lon="-0.2889420">
        <ele>2115.2</ele>
        <time>2020-09-11T11:13:36Z</time>
      </trkpt>
      <trkpt lat="42.8177330" lon="-0.2890320">
        <ele>2115.2</ele>
        <time>2020-09-11T11:13:43Z</time>
      </trkpt>
      <trkpt lat="42.8177410" lon="-0.2892750">
        <ele>2116.4</ele>
        <time>2020-09-11T11:14:02Z</time>
      </trkpt>
      <trkpt lat="42.8177330" lon="-0.2893340">
        <ele>2117.2</ele>
        <time>2020-09-11T11:14:07Z</time>
      </trkpt>
      <trkpt lat="42.8177280" lon="-0.2893480">
        <ele>2117.2</ele>
        <time>2020-09-11T11:14:08Z</time>
      </trkpt>
      <trkpt lat="42.8177180" lon="-0.2894260">
        <ele>2118.2</ele>
        <time>2020-09-11T11:14:14Z</time>
      </trkpt>
      <trkpt lat="42.8177070" lon="-0.2895610">
        <ele>2119.2</ele>
        <time>2020-09-11T11:14:25Z</time>
      </trkpt>
      <trkpt lat="42.8177200" lon="-0.2897110">
        <ele>2119.6</ele>
        <time>2020-09-11T11:14:36Z</time>
      </trkpt>
      <trkpt lat="42.8177190" lon="-0.2897730">
        <ele>2120.2</ele>
        <time>2020-09-11T11:14:41Z</time>
      </trkpt>
      <trkpt lat="42.8177160" lon="-0.2897880">
        <ele>2120.4</ele>
        <time>2020-09-11T11:14:42Z</time>
      </trkpt>
      <trkpt lat="42.8177400" lon="-0.2898900">
        <ele>2121.2</ele>
        <time>2020-09-11T11:14:50Z</time>
      </trkpt>
      <trkpt lat="42.8177540" lon="-0.2899360">
        <ele>2122.0</ele>
        <time>2020-09-11T11:14:55Z</time>
      </trkpt>
      <trkpt lat="42.8177520" lon="-0.2899370">
        <ele>2122.4</ele>
        <time>2020-09-11T11:14:58Z</time>
      </trkpt>
      <trkpt lat="42.8177770" lon="-0.2900600">
        <ele>2123.0</ele>
        <time>2020-09-11T11:15:12Z</time>
      </trkpt>
      <trkpt lat="42.8177760" lon="-0.2901010">
        <ele>2123.4</ele>
        <time>2020-09-11T11:15:15Z</time>
      </trkpt>
      <trkpt lat="42.8177640" lon="-0.2901450">
        <ele>2123.8</ele>
        <time>2020-09-11T11:15:18Z</time>
      </trkpt>
      <trkpt lat="42.8177500" lon="-0.2901890">
        <ele>2124.2</ele>
        <time>2020-09-11T11:15:22Z</time>
      </trkpt>
      <trkpt lat="42.8177470" lon="-0.2902130">
        <ele>2124.4</ele>
        <time>2020-09-11T11:15:24Z</time>
      </trkpt>
      <trkpt lat="42.8177510" lon="-0.2902230">
        <ele>2124.6</ele>
        <time>2020-09-11T11:15:25Z</time>
      </trkpt>
      <trkpt lat="42.8177570" lon="-0.2902740">
        <ele>2125.0</ele>
        <time>2020-09-11T11:15:29Z</time>
      </trkpt>
      <trkpt lat="42.8177750" lon="-0.2903350">
        <ele>2125.6</ele>
        <time>2020-09-11T11:15:34Z</time>
      </trkpt>
      <trkpt lat="42.8177800" lon="-0.2903620">
        <ele>2125.8</ele>
        <time>2020-09-11T11:15:36Z</time>
      </trkpt>
      <trkpt lat="42.8177630" lon="-0.2904630">
        <ele>2126.6</ele>
        <time>2020-09-11T11:15:44Z</time>
      </trkpt>
      <trkpt lat="42.8177580" lon="-0.2905000">
        <ele>2127.2</ele>
        <time>2020-09-11T11:15:47Z</time>
      </trkpt>
      <trkpt lat="42.8177500" lon="-0.2905530">
        <ele>2127.8</ele>
        <time>2020-09-11T11:15:51Z</time>
      </trkpt>
      <trkpt lat="42.8177200" lon="-0.2906180">
        <ele>2128.8</ele>
        <time>2020-09-11T11:15:58Z</time>
      </trkpt>
      <trkpt lat="42.8177180" lon="-0.2906270">
        <ele>2129.0</ele>
        <time>2020-09-11T11:15:59Z</time>
      </trkpt>
      <trkpt lat="42.8177080" lon="-0.2906880">
        <ele>2129.8</ele>
        <time>2020-09-11T11:16:05Z</time>
      </trkpt>
      <trkpt lat="42.8177190" lon="-0.2907240">
        <ele>2131.0</ele>
        <time>2020-09-11T11:16:10Z</time>
      </trkpt>
      <trkpt lat="42.8177190" lon="-0.2907690">
        <ele>2132.0</ele>
        <time>2020-09-11T11:16:15Z</time>
      </trkpt>
      <trkpt lat="42.8177200" lon="-0.2908050">
        <ele>2133.2</ele>
        <time>2020-09-11T11:16:20Z</time>
      </trkpt>
      <trkpt lat="42.8177070" lon="-0.2908490">
        <ele>2134.4</ele>
        <time>2020-09-11T11:16:26Z</time>
      </trkpt>
      <trkpt lat="42.8176810" lon="-0.2908920">
        <ele>2135.0</ele>
        <time>2020-09-11T11:16:30Z</time>
      </trkpt>
      <trkpt lat="42.8176700" lon="-0.2909190">
        <ele>2135.2</ele>
        <time>2020-09-11T11:16:32Z</time>
      </trkpt>
      <trkpt lat="42.8176730" lon="-0.2909410">
        <ele>2135.2</ele>
        <time>2020-09-11T11:16:34Z</time>
      </trkpt>
      <trkpt lat="42.8176700" lon="-0.2909750">
        <ele>2135.6</ele>
        <time>2020-09-11T11:16:37Z</time>
      </trkpt>
      <trkpt lat="42.8176700" lon="-0.2909860">
        <ele>2135.8</ele>
        <time>2020-09-11T11:16:38Z</time>
      </trkpt>
      <trkpt lat="42.8176670" lon="-0.2910620">
        <ele>2136.8</ele>
        <time>2020-09-11T11:16:44Z</time>
      </trkpt>
      <trkpt lat="42.8176580" lon="-0.2911700">
        <ele>2137.4</ele>
        <time>2020-09-11T11:16:52Z</time>
      </trkpt>
      <trkpt lat="42.8176600" lon="-0.2911880">
        <ele>2137.2</ele>
        <time>2020-09-11T11:16:53Z</time>
      </trkpt>
      <trkpt lat="42.8177370" lon="-0.2914250">
        <ele>2136.0</ele>
        <time>2020-09-11T11:17:08Z</time>
      </trkpt>
      <trkpt lat="42.8177530" lon="-0.2914630">
        <ele>2135.6</ele>
        <time>2020-09-11T11:17:11Z</time>
      </trkpt>
      <trkpt lat="42.8177600" lon="-0.2914780">
        <ele>2135.6</ele>
        <time>2020-09-11T11:17:14Z</time>
      </trkpt>
      <trkpt lat="42.8177550" lon="-0.2914870">
        <ele>2135.6</ele>
        <time>2020-09-11T11:17:16Z</time>
      </trkpt>
      <trkpt lat="42.8177600" lon="-0.2915250">
        <ele>2135.6</ele>
        <time>2020-09-11T11:17:19Z</time>
      </trkpt>
      <trkpt lat="42.8177650" lon="-0.2915530">
        <ele>2135.4</ele>
        <time>2020-09-11T11:17:21Z</time>
      </trkpt>
      <trkpt lat="42.8178100" lon="-0.2917920">
        <ele>2135.2</ele>
        <time>2020-09-11T11:17:38Z</time>
      </trkpt>
      <trkpt lat="42.8178030" lon="-0.2920500">
        <ele>2135.2</ele>
        <time>2020-09-11T11:17:53Z</time>
      </trkpt>
      <trkpt lat="42.8178440" lon="-0.2922220">
        <ele>2134.8</ele>
        <time>2020-09-11T11:18:03Z</time>
      </trkpt>
      <trkpt lat="42.8178780" lon="-0.2923850">
        <ele>2134.6</ele>
        <time>2020-09-11T11:18:12Z</time>
      </trkpt>
      <trkpt lat="42.8178890" lon="-0.2926380">
        <ele>2134.6</ele>
        <time>2020-09-11T11:18:27Z</time>
      </trkpt>
      <trkpt lat="42.8178710" lon="-0.2928930">
        <ele>2134.2</ele>
        <time>2020-09-11T11:18:41Z</time>
      </trkpt>
      <trkpt lat="42.8178540" lon="-0.2930430">
        <ele>2133.8</ele>
        <time>2020-09-11T11:18:51Z</time>
      </trkpt>
      <trkpt lat="42.8178480" lon="-0.2931240">
        <ele>2133.6</ele>
        <time>2020-09-11T11:18:56Z</time>
      </trkpt>
      <trkpt lat="42.8177690" lon="-0.2933350">
        <ele>2132.8</ele>
        <time>2020-09-11T11:19:11Z</time>
      </trkpt>
      <trkpt lat="42.8177550" lon="-0.2933830">
        <ele>2132.6</ele>
        <time>2020-09-11T11:19:14Z</time>
      </trkpt>
      <trkpt lat="42.8177660" lon="-0.2936410">
        <ele>2132.6</ele>
        <time>2020-09-11T11:19:28Z</time>
      </trkpt>
      <trkpt lat="42.8177720" lon="-0.2937280">
        <ele>2132.4</ele>
        <time>2020-09-11T11:19:34Z</time>
      </trkpt>
      <trkpt lat="42.8177940" lon="-0.2939560">
        <ele>2131.6</ele>
        <time>2020-09-11T11:19:48Z</time>
      </trkpt>
      <trkpt lat="42.8177930" lon="-0.2939720">
        <ele>2131.4</ele>
        <time>2020-09-11T11:19:49Z</time>
      </trkpt>
      <trkpt lat="42.8177230" lon="-0.2942010">
        <ele>2131.8</ele>
        <time>2020-09-11T11:20:04Z</time>
      </trkpt>
      <trkpt lat="42.8176950" lon="-0.2943270">
        <ele>2131.6</ele>
        <time>2020-09-11T11:20:16Z</time>
      </trkpt>
      <trkpt lat="42.8176850" lon="-0.2944060">
        <ele>2131.2</ele>
        <time>2020-09-11T11:20:41Z</time>
      </trkpt>
      <trkpt lat="42.8176870" lon="-0.2944880">
        <ele>2131.2</ele>
        <time>2020-09-11T11:20:46Z</time>
      </trkpt>
      <trkpt lat="42.8176900" lon="-0.2945200">
        <ele>2131.2</ele>
        <time>2020-09-11T11:20:50Z</time>
      </trkpt>
      <trkpt lat="42.8177080" lon="-0.2946430">
        <ele>2131.4</ele>
        <time>2020-09-11T11:21:09Z</time>
      </trkpt>
      <trkpt lat="42.8177600" lon="-0.2948780">
        <ele>2131.4</ele>
        <time>2020-09-11T11:21:24Z</time>
      </trkpt>
      <trkpt lat="42.8177350" lon="-0.2948900">
        <ele>2131.4</ele>
        <time>2020-09-11T11:21:29Z</time>
      </trkpt>
      <trkpt lat="42.8177240" lon="-0.2948570">
        <ele>2131.6</ele>
        <time>2020-09-11T11:21:33Z</time>
      </trkpt>
      <trkpt lat="42.8177130" lon="-0.2948420">
        <ele>2131.6</ele>
        <time>2020-09-11T11:21:34Z</time>
      </trkpt>
      <trkpt lat="42.8177010" lon="-0.2948000">
        <ele>2131.4</ele>
        <time>2020-09-11T11:21:36Z</time>
      </trkpt>
      <trkpt lat="42.8176910" lon="-0.2945890">
        <ele>2131.0</ele>
        <time>2020-09-11T11:21:48Z</time>
      </trkpt>
      <trkpt lat="42.8176950" lon="-0.2945860">
        <ele>2131.0</ele>
        <time>2020-09-11T11:21:50Z</time>
      </trkpt>
      <trkpt lat="42.8176780" lon="-0.2945410">
        <ele>2131.0</ele>
        <time>2020-09-11T11:21:56Z</time>
      </trkpt>
      <trkpt lat="42.8176430" lon="-0.2945480">
        <ele>2130.4</ele>
        <time>2020-09-11T11:22:02Z</time>
      </trkpt>
      <trkpt lat="42.8176350" lon="-0.2945600">
        <ele>2130.2</ele>
        <time>2020-09-11T11:22:03Z</time>
      </trkpt>
      <trkpt lat="42.8176100" lon="-0.2946050">
        <ele>2129.6</ele>
        <time>2020-09-11T11:22:08Z</time>
      </trkpt>
      <trkpt lat="42.8176060" lon="-0.2946130">
        <ele>2129.4</ele>
        <time>2020-09-11T11:22:09Z</time>
      </trkpt>
      <trkpt lat="42.8175840" lon="-0.2946100">
        <ele>2128.4</ele>
        <time>2020-09-11T11:22:13Z</time>
      </trkpt>
      <trkpt lat="42.8175710" lon="-0.2945620">
        <ele>2127.6</ele>
        <time>2020-09-11T11:22:18Z</time>
      </trkpt>
      <trkpt lat="42.8175760" lon="-0.2945610">
        <ele>2127.4</ele>
        <time>2020-09-11T11:22:20Z</time>
      </trkpt>
      <trkpt lat="42.8175840" lon="-0.2944930">
        <ele>2126.2</ele>
        <time>2020-09-11T11:22:27Z</time>
      </trkpt>
      <trkpt lat="42.8175860" lon="-0.2944720">
        <ele>2125.8</ele>
        <time>2020-09-11T11:22:28Z</time>
      </trkpt>
      <trkpt lat="42.8176030" lon="-0.2944410">
        <ele>2125.0</ele>
        <time>2020-09-11T11:22:32Z</time>
      </trkpt>
      <trkpt lat="42.8176090" lon="-0.2943850">
        <ele>2123.6</ele>
        <time>2020-09-11T11:22:38Z</time>
      </trkpt>
      <trkpt lat="42.8176010" lon="-0.2943390">
        <ele>2122.6</ele>
        <time>2020-09-11T11:22:42Z</time>
      </trkpt>
      <trkpt lat="42.8175830" lon="-0.2943140">
        <ele>2121.8</ele>
        <time>2020-09-11T11:22:45Z</time>
      </trkpt>
      <trkpt lat="42.8175790" lon="-0.2942980">
        <ele>2121.4</ele>
        <time>2020-09-11T11:22:46Z</time>
      </trkpt>
      <trkpt lat="42.8175680" lon="-0.2942600">
        <ele>2120.8</ele>
        <time>2020-09-11T11:22:48Z</time>
      </trkpt>
      <trkpt lat="42.8175590" lon="-0.2942460">
        <ele>2120.4</ele>
        <time>2020-09-11T11:22:49Z</time>
      </trkpt>
      <trkpt lat="42.8175470" lon="-0.2942040">
        <ele>2119.2</ele>
        <time>2020-09-11T11:22:51Z</time>
      </trkpt>
      <trkpt lat="42.8175400" lon="-0.2941870">
        <ele>2118.8</ele>
        <time>2020-09-11T11:22:52Z</time>
      </trkpt>
      <trkpt lat="42.8175270" lon="-0.2941720">
        <ele>2118.0</ele>
        <time>2020-09-11T11:22:54Z</time>
      </trkpt>
      <trkpt lat="42.8175250" lon="-0.2941440">
        <ele>2117.2</ele>
        <time>2020-09-11T11:22:56Z</time>
      </trkpt>
      <trkpt lat="42.8175180" lon="-0.2941410">
        <ele>2116.8</ele>
        <time>2020-09-11T11:22:57Z</time>
      </trkpt>
      <trkpt lat="42.8175150" lon="-0.2941890">
        <ele>2115.8</ele>
        <time>2020-09-11T11:23:00Z</time>
      </trkpt>
      <trkpt lat="42.8175060" lon="-0.2942320">
        <ele>2114.6</ele>
        <time>2020-09-11T11:23:04Z</time>
      </trkpt>
      <trkpt lat="42.8174750" lon="-0.2942860">
        <ele>2113.4</ele>
        <time>2020-09-11T11:23:08Z</time>
      </trkpt>
      <trkpt lat="42.8174490" lon="-0.2943310">
        <ele>2112.0</ele>
        <time>2020-09-11T11:23:11Z</time>
      </trkpt>
      <trkpt lat="42.8174130" lon="-0.2943970">
        <ele>2111.0</ele>
        <time>2020-09-11T11:23:15Z</time>
      </trkpt>
      <trkpt lat="42.8174110" lon="-0.2945040">
        <ele>2110.0</ele>
        <time>2020-09-11T11:23:20Z</time>
      </trkpt>
      <trkpt lat="42.8174110" lon="-0.2946160">
        <ele>2109.0</ele>
        <time>2020-09-11T11:23:28Z</time>
      </trkpt>
      <trkpt lat="42.8173830" lon="-0.2946610">
        <ele>2109.2</ele>
        <time>2020-09-11T11:23:35Z</time>
      </trkpt>
      <trkpt lat="42.8173690" lon="-0.2947090">
        <ele>2109.0</ele>
        <time>2020-09-11T11:23:39Z</time>
      </trkpt>
      <trkpt lat="42.8173380" lon="-0.2948030">
        <ele>2107.8</ele>
        <time>2020-09-11T11:23:50Z</time>
      </trkpt>
      <trkpt lat="42.8173380" lon="-0.2948160">
        <ele>2107.8</ele>
        <time>2020-09-11T11:23:51Z</time>
      </trkpt>
      <trkpt lat="42.8173410" lon="-0.2948440">
        <ele>2107.4</ele>
        <time>2020-09-11T11:23:53Z</time>
      </trkpt>
      <trkpt lat="42.8173380" lon="-0.2948720">
        <ele>2107.2</ele>
        <time>2020-09-11T11:23:55Z</time>
      </trkpt>
      <trkpt lat="42.8173430" lon="-0.2949060">
        <ele>2107.2</ele>
        <time>2020-09-11T11:23:57Z</time>
      </trkpt>
      <trkpt lat="42.8173570" lon="-0.2949550">
        <ele>2106.6</ele>
        <time>2020-09-11T11:24:00Z</time>
      </trkpt>
      <trkpt lat="42.8173580" lon="-0.2950010">
        <ele>2106.2</ele>
        <time>2020-09-11T11:24:03Z</time>
      </trkpt>
      <trkpt lat="42.8173300" lon="-0.2951090">
        <ele>2105.6</ele>
        <time>2020-09-11T11:24:10Z</time>
      </trkpt>
      <trkpt lat="42.8172690" lon="-0.2953420">
        <ele>2105.0</ele>
        <time>2020-09-11T11:24:26Z</time>
      </trkpt>
      <trkpt lat="42.8172360" lon="-0.2955900">
        <ele>2105.0</ele>
        <time>2020-09-11T11:24:41Z</time>
      </trkpt>
      <trkpt lat="42.8172390" lon="-0.2956240">
        <ele>2105.0</ele>
        <time>2020-09-11T11:24:45Z</time>
      </trkpt>
      <trkpt lat="42.8172470" lon="-0.2956260">
        <ele>2105.2</ele>
        <time>2020-09-11T11:24:47Z</time>
      </trkpt>
      <trkpt lat="42.8172530" lon="-0.2956290">
        <ele>2105.0</ele>
        <time>2020-09-11T11:24:49Z</time>
      </trkpt>
      <trkpt lat="42.8172920" lon="-0.2956490">
        <ele>2104.6</ele>
        <time>2020-09-11T11:24:56Z</time>
      </trkpt>
      <trkpt lat="42.8173080" lon="-0.2956680">
        <ele>2104.0</ele>
        <time>2020-09-11T11:24:58Z</time>
      </trkpt>
      <trkpt lat="42.8173250" lon="-0.2956790">
        <ele>2103.2</ele>
        <time>2020-09-11T11:25:00Z</time>
      </trkpt>
      <trkpt lat="42.8173460" lon="-0.2957080">
        <ele>2102.2</ele>
        <time>2020-09-11T11:25:03Z</time>
      </trkpt>
      <trkpt lat="42.8173630" lon="-0.2957750">
        <ele>2101.2</ele>
        <time>2020-09-11T11:25:07Z</time>
      </trkpt>
      <trkpt lat="42.8174420" lon="-0.2960110">
        <ele>2101.0</ele>
        <time>2020-09-11T11:25:22Z</time>
      </trkpt>
      <trkpt lat="42.8175420" lon="-0.2962190">
        <ele>2101.2</ele>
        <time>2020-09-11T11:25:36Z</time>
      </trkpt>
      <trkpt lat="42.8175950" lon="-0.2964170">
        <ele>2101.2</ele>
        <time>2020-09-11T11:25:49Z</time>
      </trkpt>
      <trkpt lat="42.8176900" lon="-0.2966300">
        <ele>2101.6</ele>
        <time>2020-09-11T11:26:04Z</time>
      </trkpt>
      <trkpt lat="42.8176930" lon="-0.2966440">
        <ele>2101.6</ele>
        <time>2020-09-11T11:26:05Z</time>
      </trkpt>
      <trkpt lat="42.8176920" lon="-0.2966930">
        <ele>2101.6</ele>
        <time>2020-09-11T11:26:08Z</time>
      </trkpt>
      <trkpt lat="42.8177030" lon="-0.2968140">
        <ele>2101.6</ele>
        <time>2020-09-11T11:26:17Z</time>
      </trkpt>
      <trkpt lat="42.8177200" lon="-0.2968490">
        <ele>2101.6</ele>
        <time>2020-09-11T11:26:20Z</time>
      </trkpt>
      <trkpt lat="42.8177810" lon="-0.2969650">
        <ele>2101.8</ele>
        <time>2020-09-11T11:26:31Z</time>
      </trkpt>
      <trkpt lat="42.8177910" lon="-0.2970230">
        <ele>2101.8</ele>
        <time>2020-09-11T11:26:35Z</time>
      </trkpt>
      <trkpt lat="42.8178160" lon="-0.2971600">
        <ele>2102.2</ele>
        <time>2020-09-11T11:26:44Z</time>
      </trkpt>
      <trkpt lat="42.8178410" lon="-0.2972510">
        <ele>2102.4</ele>
        <time>2020-09-11T11:26:53Z</time>
      </trkpt>
      <trkpt lat="42.8178670" lon="-0.2973220">
        <ele>2102.4</ele>
        <time>2020-09-11T11:27:00Z</time>
      </trkpt>
      <trkpt lat="42.8178690" lon="-0.2973680">
        <ele>2102.6</ele>
        <time>2020-09-11T11:27:03Z</time>
      </trkpt>
      <trkpt lat="42.8180420" lon="-0.2973910">
        <ele>2102.4</ele>
        <time>2020-09-11T11:27:18Z</time>
      </trkpt>
      <trkpt lat="42.8180810" lon="-0.2974240">
        <ele>2102.6</ele>
        <time>2020-09-11T11:27:22Z</time>
      </trkpt>
      <trkpt lat="42.8181470" lon="-0.2976600">
        <ele>2102.6</ele>
        <time>2020-09-11T11:27:40Z</time>
      </trkpt>
      <trkpt lat="42.8181860" lon="-0.2977770">
        <ele>2102.8</ele>
        <time>2020-09-11T11:27:50Z</time>
      </trkpt>
      <trkpt lat="42.8182340" lon="-0.2978150">
        <ele>2102.8</ele>
        <time>2020-09-11T11:27:57Z</time>
      </trkpt>
      <trkpt lat="42.8182430" lon="-0.2978150">
        <ele>2102.8</ele>
        <time>2020-09-11T11:27:59Z</time>
      </trkpt>
      <trkpt lat="42.8183030" lon="-0.2978040">
        <ele>2103.0</ele>
        <time>2020-09-11T11:28:05Z</time>
      </trkpt>
      <trkpt lat="42.8183810" lon="-0.2977870">
        <ele>2103.0</ele>
        <time>2020-09-11T11:28:12Z</time>
      </trkpt>
      <trkpt lat="42.8183990" lon="-0.2977990">
        <ele>2103.0</ele>
        <time>2020-09-11T11:28:14Z</time>
      </trkpt>
      <trkpt lat="42.8184810" lon="-0.2978460">
        <ele>2103.2</ele>
        <time>2020-09-11T11:28:22Z</time>
      </trkpt>
      <trkpt lat="42.8184930" lon="-0.2978500">
        <ele>2103.2</ele>
        <time>2020-09-11T11:28:24Z</time>
      </trkpt>
      <trkpt lat="42.8185280" lon="-0.2978770">
        <ele>2103.4</ele>
        <time>2020-09-11T11:28:28Z</time>
      </trkpt>
      <trkpt lat="42.8185680" lon="-0.2979340">
        <ele>2103.4</ele>
        <time>2020-09-11T11:28:34Z</time>
      </trkpt>
      <trkpt lat="42.8186410" lon="-0.2979960">
        <ele>2103.2</ele>
        <time>2020-09-11T11:28:42Z</time>
      </trkpt>
      <trkpt lat="42.8186670" lon="-0.2980520">
        <ele>2103.2</ele>
        <time>2020-09-11T11:28:48Z</time>
      </trkpt>
      <trkpt lat="42.8187380" lon="-0.2982350">
        <ele>2103.2</ele>
        <time>2020-09-11T11:29:06Z</time>
      </trkpt>
      <trkpt lat="42.8188080" lon="-0.2984750">
        <ele>2102.8</ele>
        <time>2020-09-11T11:29:24Z</time>
      </trkpt>
      <trkpt lat="42.8188400" lon="-0.2985650">
        <ele>2103.0</ele>
        <time>2020-09-11T11:29:32Z</time>
      </trkpt>
      <trkpt lat="42.8188460" lon="-0.2985840">
        <ele>2103.0</ele>
        <time>2020-09-11T11:29:35Z</time>
      </trkpt>
      <trkpt lat="42.8188900" lon="-0.2988120">
        <ele>2103.6</ele>
        <time>2020-09-11T11:29:54Z</time>
      </trkpt>
      <trkpt lat="42.8189070" lon="-0.2989640">
        <ele>2103.8</ele>
        <time>2020-09-11T11:30:04Z</time>
      </trkpt>
      <trkpt lat="42.8189810" lon="-0.2991760">
        <ele>2104.0</ele>
        <time>2020-09-11T11:30:22Z</time>
      </trkpt>
      <trkpt lat="42.8189950" lon="-0.2992300">
        <ele>2103.6</ele>
        <time>2020-09-11T11:30:27Z</time>
      </trkpt>
      <trkpt lat="42.8190090" lon="-0.2992520">
        <ele>2103.6</ele>
        <time>2020-09-11T11:30:30Z</time>
      </trkpt>
      <trkpt lat="42.8190400" lon="-0.2994000">
        <ele>2103.4</ele>
        <time>2020-09-11T11:30:42Z</time>
      </trkpt>
      <trkpt lat="42.8190580" lon="-0.2994840">
        <ele>2103.8</ele>
        <time>2020-09-11T11:30:49Z</time>
      </trkpt>
      <trkpt lat="42.8190720" lon="-0.2995580">
        <ele>2103.8</ele>
        <time>2020-09-11T11:30:54Z</time>
      </trkpt>
      <trkpt lat="42.8190950" lon="-0.2997050">
        <ele>2103.8</ele>
        <time>2020-09-11T11:31:04Z</time>
      </trkpt>
      <trkpt lat="42.8191010" lon="-0.2997530">
        <ele>2104.0</ele>
        <time>2020-09-11T11:31:08Z</time>
      </trkpt>
      <trkpt lat="42.8191080" lon="-0.2998050">
        <ele>2104.0</ele>
        <time>2020-09-11T11:31:11Z</time>
      </trkpt>
      <trkpt lat="42.8191310" lon="-0.2998290">
        <ele>2104.2</ele>
        <time>2020-09-11T11:31:14Z</time>
      </trkpt>
      <trkpt lat="42.8191310" lon="-0.2998370">
        <ele>2104.4</ele>
        <time>2020-09-11T11:31:15Z</time>
      </trkpt>
      <trkpt lat="42.8191280" lon="-0.2998570">
        <ele>2104.6</ele>
        <time>2020-09-11T11:31:17Z</time>
      </trkpt>
      <trkpt lat="42.8191340" lon="-0.2999100">
        <ele>2104.2</ele>
        <time>2020-09-11T11:31:20Z</time>
      </trkpt>
      <trkpt lat="42.8191780" lon="-0.3000540">
        <ele>2104.6</ele>
        <time>2020-09-11T11:31:31Z</time>
      </trkpt>
      <trkpt lat="42.8191730" lon="-0.3000710">
        <ele>2104.6</ele>
        <time>2020-09-11T11:31:33Z</time>
      </trkpt>
      <trkpt lat="42.8191750" lon="-0.3001240">
        <ele>2104.4</ele>
        <time>2020-09-11T11:31:37Z</time>
      </trkpt>
      <trkpt lat="42.8191880" lon="-0.3001550">
        <ele>2104.4</ele>
        <time>2020-09-11T11:31:40Z</time>
      </trkpt>
      <trkpt lat="42.8192300" lon="-0.3002700">
        <ele>2104.6</ele>
        <time>2020-09-11T11:31:48Z</time>
      </trkpt>
      <trkpt lat="42.8192540" lon="-0.3003640">
        <ele>2104.8</ele>
        <time>2020-09-11T11:31:54Z</time>
      </trkpt>
      <trkpt lat="42.8192760" lon="-0.3004420">
        <ele>2104.8</ele>
        <time>2020-09-11T11:32:01Z</time>
      </trkpt>
      <trkpt lat="42.8192880" lon="-0.3004570">
        <ele>2104.8</ele>
        <time>2020-09-11T11:32:04Z</time>
      </trkpt>
      <trkpt lat="42.8192820" lon="-0.3004620">
        <ele>2104.6</ele>
        <time>2020-09-11T11:32:11Z</time>
      </trkpt>
      <trkpt lat="42.8192890" lon="-0.3004640">
        <ele>2104.4</ele>
        <time>2020-09-11T11:32:13Z</time>
      </trkpt>
      <trkpt lat="42.8193240" lon="-0.3005220">
        <ele>2105.6</ele>
        <time>2020-09-11T11:32:21Z</time>
      </trkpt>
      <trkpt lat="42.8193700" lon="-0.3005770">
        <ele>2106.6</ele>
        <time>2020-09-11T11:32:28Z</time>
      </trkpt>
      <trkpt lat="42.8193900" lon="-0.3006350">
        <ele>2107.2</ele>
        <time>2020-09-11T11:32:33Z</time>
      </trkpt>
      <trkpt lat="42.8194020" lon="-0.3006470">
        <ele>2107.4</ele>
        <time>2020-09-11T11:32:35Z</time>
      </trkpt>
      <trkpt lat="42.8194080" lon="-0.3006530">
        <ele>2107.6</ele>
        <time>2020-09-11T11:32:36Z</time>
      </trkpt>
      <trkpt lat="42.8194330" lon="-0.3006900">
        <ele>2108.8</ele>
        <time>2020-09-11T11:32:41Z</time>
      </trkpt>
      <trkpt lat="42.8194420" lon="-0.3007080">
        <ele>2109.2</ele>
        <time>2020-09-11T11:32:44Z</time>
      </trkpt>
      <trkpt lat="42.8194440" lon="-0.3007260">
        <ele>2110.0</ele>
        <time>2020-09-11T11:32:46Z</time>
      </trkpt>
      <trkpt lat="42.8194530" lon="-0.3007590">
        <ele>2111.0</ele>
        <time>2020-09-11T11:32:51Z</time>
      </trkpt>
      <trkpt lat="42.8194680" lon="-0.3008090">
        <ele>2112.2</ele>
        <time>2020-09-11T11:32:57Z</time>
      </trkpt>
      <trkpt lat="42.8195010" lon="-0.3008310">
        <ele>2113.0</ele>
        <time>2020-09-11T11:33:01Z</time>
      </trkpt>
      <trkpt lat="42.8195130" lon="-0.3008490">
        <ele>2113.2</ele>
        <time>2020-09-11T11:33:04Z</time>
      </trkpt>
      <trkpt lat="42.8195400" lon="-0.3009010">
        <ele>2114.0</ele>
        <time>2020-09-11T11:33:10Z</time>
      </trkpt>
      <trkpt lat="42.8195420" lon="-0.3009270">
        <ele>2114.2</ele>
        <time>2020-09-11T11:33:12Z</time>
      </trkpt>
      <trkpt lat="42.8195520" lon="-0.3009490">
        <ele>2114.6</ele>
        <time>2020-09-11T11:33:14Z</time>
      </trkpt>
      <trkpt lat="42.8195630" lon="-0.3009710">
        <ele>2115.2</ele>
        <time>2020-09-11T11:33:16Z</time>
      </trkpt>
      <trkpt lat="42.8195750" lon="-0.3009800">
        <ele>2115.6</ele>
        <time>2020-09-11T11:33:18Z</time>
      </trkpt>
      <trkpt lat="42.8195690" lon="-0.3009280">
        <ele>2116.4</ele>
        <time>2020-09-11T11:33:24Z</time>
      </trkpt>
      <trkpt lat="42.8195670" lon="-0.3008640">
        <ele>2117.6</ele>
        <time>2020-09-11T11:33:29Z</time>
      </trkpt>
      <trkpt lat="42.8196060" lon="-0.3009010">
        <ele>2118.6</ele>
        <time>2020-09-11T11:33:37Z</time>
      </trkpt>
      <trkpt lat="42.8196480" lon="-0.3009540">
        <ele>2119.8</ele>
        <time>2020-09-11T11:33:46Z</time>
      </trkpt>
      <trkpt lat="42.8196690" lon="-0.3010090">
        <ele>2121.0</ele>
        <time>2020-09-11T11:33:52Z</time>
      </trkpt>
      <trkpt lat="42.8196800" lon="-0.3010750">
        <ele>2122.2</ele>
        <time>2020-09-11T11:33:58Z</time>
      </trkpt>
      <trkpt lat="42.8196830" lon="-0.3010860">
        <ele>2122.4</ele>
        <time>2020-09-11T11:33:59Z</time>
      </trkpt>
      <trkpt lat="42.8196850" lon="-0.3011170">
        <ele>2122.8</ele>
        <time>2020-09-11T11:34:02Z</time>
      </trkpt>
      <trkpt lat="42.8196930" lon="-0.3011370">
        <ele>2123.0</ele>
        <time>2020-09-11T11:34:04Z</time>
      </trkpt>
      <trkpt lat="42.8196970" lon="-0.3011620">
        <ele>2123.2</ele>
        <time>2020-09-11T11:34:06Z</time>
      </trkpt>
      <trkpt lat="42.8197140" lon="-0.3012380">
        <ele>2123.6</ele>
        <time>2020-09-11T11:34:12Z</time>
      </trkpt>
      <trkpt lat="42.8197220" lon="-0.3012720">
        <ele>2124.0</ele>
        <time>2020-09-11T11:34:15Z</time>
      </trkpt>
      <trkpt lat="42.8197370" lon="-0.3012960">
        <ele>2124.4</ele>
        <time>2020-09-11T11:34:18Z</time>
      </trkpt>
      <trkpt lat="42.8197490" lon="-0.3013230">
        <ele>2124.6</ele>
        <time>2020-09-11T11:34:21Z</time>
      </trkpt>
      <trkpt lat="42.8197640" lon="-0.3014050">
        <ele>2125.4</ele>
        <time>2020-09-11T11:34:28Z</time>
      </trkpt>
      <trkpt lat="42.8197760" lon="-0.3015090">
        <ele>2126.6</ele>
        <time>2020-09-11T11:34:36Z</time>
      </trkpt>
      <trkpt lat="42.8198300" lon="-0.3016300">
        <ele>2127.6</ele>
        <time>2020-09-11T11:34:48Z</time>
      </trkpt>
      <trkpt lat="42.8198420" lon="-0.3016470">
        <ele>2127.6</ele>
        <time>2020-09-11T11:34:51Z</time>
      </trkpt>
      <trkpt lat="42.8198510" lon="-0.3017030">
        <ele>2127.2</ele>
        <time>2020-09-11T11:34:57Z</time>
      </trkpt>
      <trkpt lat="42.8198630" lon="-0.3017940">
        <ele>2126.6</ele>
        <time>2020-09-11T11:35:03Z</time>
      </trkpt>
      <trkpt lat="42.8199050" lon="-0.3019520">
        <ele>2125.8</ele>
        <time>2020-09-11T11:35:15Z</time>
      </trkpt>
      <trkpt lat="42.8199120" lon="-0.3020010">
        <ele>2125.6</ele>
        <time>2020-09-11T11:35:18Z</time>
      </trkpt>
      <trkpt lat="42.8199300" lon="-0.3020710">
        <ele>2124.6</ele>
        <time>2020-09-11T11:35:23Z</time>
      </trkpt>
      <trkpt lat="42.8199960" lon="-0.3023040">
        <ele>2123.6</ele>
        <time>2020-09-11T11:35:39Z</time>
      </trkpt>
      <trkpt lat="42.8200120" lon="-0.3023470">
        <ele>2123.4</ele>
        <time>2020-09-11T11:35:42Z</time>
      </trkpt>
      <trkpt lat="42.8200310" lon="-0.3023950">
        <ele>2123.4</ele>
        <time>2020-09-11T11:35:47Z</time>
      </trkpt>
      <trkpt lat="42.8200380" lon="-0.3024900">
        <ele>2123.0</ele>
        <time>2020-09-11T11:35:55Z</time>
      </trkpt>
      <trkpt lat="42.8200440" lon="-0.3025250">
        <ele>2122.4</ele>
        <time>2020-09-11T11:35:58Z</time>
      </trkpt>
      <trkpt lat="42.8200890" lon="-0.3026910">
        <ele>2121.4</ele>
        <time>2020-09-11T11:36:09Z</time>
      </trkpt>
      <trkpt lat="42.8201670" lon="-0.3028360">
        <ele>2121.0</ele>
        <time>2020-09-11T11:36:21Z</time>
      </trkpt>
      <trkpt lat="42.8203130" lon="-0.3029810">
        <ele>2121.6</ele>
        <time>2020-09-11T11:36:38Z</time>
      </trkpt>
      <trkpt lat="42.8203340" lon="-0.3030270">
        <ele>2122.4</ele>
        <time>2020-09-11T11:36:43Z</time>
      </trkpt>
      <trkpt lat="42.8203340" lon="-0.3030400">
        <ele>2122.8</ele>
        <time>2020-09-11T11:36:45Z</time>
      </trkpt>
      <trkpt lat="42.8203940" lon="-0.3031790">
        <ele>2123.4</ele>
        <time>2020-09-11T11:36:56Z</time>
      </trkpt>
      <trkpt lat="42.8203920" lon="-0.3032610">
        <ele>2123.0</ele>
        <time>2020-09-11T11:37:05Z</time>
      </trkpt>
      <trkpt lat="42.8204720" lon="-0.3034860">
        <ele>2123.0</ele>
        <time>2020-09-11T11:37:25Z</time>
      </trkpt>
      <trkpt lat="42.8205950" lon="-0.3036770">
        <ele>2124.4</ele>
        <time>2020-09-11T11:37:42Z</time>
      </trkpt>
      <trkpt lat="42.8206010" lon="-0.3036890">
        <ele>2124.6</ele>
        <time>2020-09-11T11:37:43Z</time>
      </trkpt>
      <trkpt lat="42.8206160" lon="-0.3037470">
        <ele>2124.8</ele>
        <time>2020-09-11T11:37:47Z</time>
      </trkpt>
      <trkpt lat="42.8206380" lon="-0.3038020">
        <ele>2125.0</ele>
        <time>2020-09-11T11:37:52Z</time>
      </trkpt>
      <trkpt lat="42.8206600" lon="-0.3038080">
        <ele>2125.2</ele>
        <time>2020-09-11T11:37:55Z</time>
      </trkpt>
      <trkpt lat="42.8206680" lon="-0.3038190">
        <ele>2125.4</ele>
        <time>2020-09-11T11:37:57Z</time>
      </trkpt>
      <trkpt lat="42.8206780" lon="-0.3038300">
        <ele>2125.6</ele>
        <time>2020-09-11T11:37:59Z</time>
      </trkpt>
      <trkpt lat="42.8207010" lon="-0.3038500">
        <ele>2126.4</ele>
        <time>2020-09-11T11:38:02Z</time>
      </trkpt>
      <trkpt lat="42.8207170" lon="-0.3038580">
        <ele>2126.8</ele>
        <time>2020-09-11T11:38:04Z</time>
      </trkpt>
      <trkpt lat="42.8207580" lon="-0.3038850">
        <ele>2127.8</ele>
        <time>2020-09-11T11:38:11Z</time>
      </trkpt>
      <trkpt lat="42.8207980" lon="-0.3039230">
        <ele>2129.0</ele>
        <time>2020-09-11T11:38:18Z</time>
      </trkpt>
      <trkpt lat="42.8208230" lon="-0.3039590">
        <ele>2130.2</ele>
        <time>2020-09-11T11:38:24Z</time>
      </trkpt>
      <trkpt lat="42.8208610" lon="-0.3039760">
        <ele>2131.2</ele>
        <time>2020-09-11T11:38:30Z</time>
      </trkpt>
      <trkpt lat="42.8208980" lon="-0.3040010">
        <ele>2132.2</ele>
        <time>2020-09-11T11:38:35Z</time>
      </trkpt>
      <trkpt lat="42.8209420" lon="-0.3040210">
        <ele>2133.2</ele>
        <time>2020-09-11T11:38:41Z</time>
      </trkpt>
      <trkpt lat="42.8209860" lon="-0.3040550">
        <ele>2134.6</ele>
        <time>2020-09-11T11:38:49Z</time>
      </trkpt>
      <trkpt lat="42.8210140" lon="-0.3040870">
        <ele>2135.6</ele>
        <time>2020-09-11T11:38:53Z</time>
      </trkpt>
      <trkpt lat="42.8210760" lon="-0.3041390">
        <ele>2136.8</ele>
        <time>2020-09-11T11:39:02Z</time>
      </trkpt>
      <trkpt lat="42.8211330" lon="-0.3041770">
        <ele>2137.8</ele>
        <time>2020-09-11T11:39:09Z</time>
      </trkpt>
      <trkpt lat="42.8211670" lon="-0.3042020">
        <ele>2138.6</ele>
        <time>2020-09-11T11:39:14Z</time>
      </trkpt>
      <trkpt lat="42.8211770" lon="-0.3042060">
        <ele>2138.8</ele>
        <time>2020-09-11T11:39:16Z</time>
      </trkpt>
      <trkpt lat="42.8211920" lon="-0.3041950">
        <ele>2139.4</ele>
        <time>2020-09-11T11:39:18Z</time>
      </trkpt>
      <trkpt lat="42.8212010" lon="-0.3041540">
        <ele>2140.0</ele>
        <time>2020-09-11T11:39:21Z</time>
      </trkpt>
      <trkpt lat="42.8211960" lon="-0.3041200">
        <ele>2140.0</ele>
        <time>2020-09-11T11:39:23Z</time>
      </trkpt>
      <trkpt lat="42.8211860" lon="-0.3040660">
        <ele>2140.2</ele>
        <time>2020-09-11T11:39:27Z</time>
      </trkpt>
      <trkpt lat="42.8211780" lon="-0.3040310">
        <ele>2140.6</ele>
        <time>2020-09-11T11:39:30Z</time>
      </trkpt>
      <trkpt lat="42.8211600" lon="-0.3040120">
        <ele>2141.2</ele>
        <time>2020-09-11T11:39:32Z</time>
      </trkpt>
      <trkpt lat="42.8211400" lon="-0.3039940">
        <ele>2141.4</ele>
        <time>2020-09-11T11:39:34Z</time>
      </trkpt>
      <trkpt lat="42.8211010" lon="-0.3039150">
        <ele>2142.2</ele>
        <time>2020-09-11T11:39:41Z</time>
      </trkpt>
      <trkpt lat="42.8210690" lon="-0.3038050">
        <ele>2143.2</ele>
        <time>2020-09-11T11:39:51Z</time>
      </trkpt>
      <trkpt lat="42.8210600" lon="-0.3037480">
        <ele>2144.2</ele>
        <time>2020-09-11T11:39:56Z</time>
      </trkpt>
      <trkpt lat="42.8210350" lon="-0.3036970">
        <ele>2145.2</ele>
        <time>2020-09-11T11:40:02Z</time>
      </trkpt>
      <trkpt lat="42.8210690" lon="-0.3037220">
        <ele>2146.4</ele>
        <time>2020-09-11T11:40:08Z</time>
      </trkpt>
      <trkpt lat="42.8211190" lon="-0.3038230">
        <ele>2147.4</ele>
        <time>2020-09-11T11:40:17Z</time>
      </trkpt>
      <trkpt lat="42.8211750" lon="-0.3038970">
        <ele>2148.6</ele>
        <time>2020-09-11T11:40:26Z</time>
      </trkpt>
      <trkpt lat="42.8211880" lon="-0.3039100">
        <ele>2148.8</ele>
        <time>2020-09-11T11:40:28Z</time>
      </trkpt>
      <trkpt lat="42.8211980" lon="-0.3039220">
        <ele>2149.0</ele>
        <time>2020-09-11T11:40:30Z</time>
      </trkpt>
      <trkpt lat="42.8212170" lon="-0.3039340">
        <ele>2149.6</ele>
        <time>2020-09-11T11:40:33Z</time>
      </trkpt>
      <trkpt lat="42.8212550" lon="-0.3039530">
        <ele>2150.6</ele>
        <time>2020-09-11T11:40:39Z</time>
      </trkpt>
      <trkpt lat="42.8212820" lon="-0.3039780">
        <ele>2151.8</ele>
        <time>2020-09-11T11:40:44Z</time>
      </trkpt>
      <trkpt lat="42.8212880" lon="-0.3040230">
        <ele>2153.0</ele>
        <time>2020-09-11T11:40:51Z</time>
      </trkpt>
      <trkpt lat="42.8213190" lon="-0.3040840">
        <ele>2154.2</ele>
        <time>2020-09-11T11:40:58Z</time>
      </trkpt>
      <trkpt lat="42.8213460" lon="-0.3041130">
        <ele>2155.2</ele>
        <time>2020-09-11T11:41:03Z</time>
      </trkpt>
      <trkpt lat="42.8213860" lon="-0.3041610">
        <ele>2156.6</ele>
        <time>2020-09-11T11:41:11Z</time>
      </trkpt>
      <trkpt lat="42.8214010" lon="-0.3042700">
        <ele>2157.6</ele>
        <time>2020-09-11T11:41:20Z</time>
      </trkpt>
      <trkpt lat="42.8214240" lon="-0.3043120">
        <ele>2158.6</ele>
        <time>2020-09-11T11:41:26Z</time>
      </trkpt>
      <trkpt lat="42.8214460" lon="-0.3044030">
        <ele>2159.6</ele>
        <time>2020-09-11T11:41:34Z</time>
      </trkpt>
      <trkpt lat="42.8214720" lon="-0.3044690">
        <ele>2160.6</ele>
        <time>2020-09-11T11:41:41Z</time>
      </trkpt>
      <trkpt lat="42.8214740" lon="-0.3044780">
        <ele>2160.8</ele>
        <time>2020-09-11T11:41:42Z</time>
      </trkpt>
      <trkpt lat="42.8215060" lon="-0.3046010">
        <ele>2161.8</ele>
        <time>2020-09-11T11:41:52Z</time>
      </trkpt>
      <trkpt lat="42.8215110" lon="-0.3046150">
        <ele>2162.0</ele>
        <time>2020-09-11T11:41:53Z</time>
      </trkpt>
      <trkpt lat="42.8215850" lon="-0.3047110">
        <ele>2163.0</ele>
        <time>2020-09-11T11:42:03Z</time>
      </trkpt>
      <trkpt lat="42.8216120" lon="-0.3048980">
        <ele>2164.0</ele>
        <time>2020-09-11T11:42:17Z</time>
      </trkpt>
      <trkpt lat="42.8216800" lon="-0.3050440">
        <ele>2164.6</ele>
        <time>2020-09-11T11:42:30Z</time>
      </trkpt>
      <trkpt lat="42.8216880" lon="-0.3050580">
        <ele>2165.0</ele>
        <time>2020-09-11T11:42:32Z</time>
      </trkpt>
      <trkpt lat="42.8216890" lon="-0.3050650">
        <ele>2165.0</ele>
        <time>2020-09-11T11:42:33Z</time>
      </trkpt>
      <trkpt lat="42.8217060" lon="-0.3051040">
        <ele>2165.6</ele>
        <time>2020-09-11T11:42:37Z</time>
      </trkpt>
      <trkpt lat="42.8217430" lon="-0.3051370">
        <ele>2166.2</ele>
        <time>2020-09-11T11:42:41Z</time>
      </trkpt>
      <trkpt lat="42.8217510" lon="-0.3051430">
        <ele>2166.2</ele>
        <time>2020-09-11T11:42:42Z</time>
      </trkpt>
      <trkpt lat="42.8218240" lon="-0.3052190">
        <ele>2167.2</ele>
        <time>2020-09-11T11:42:51Z</time>
      </trkpt>
      <trkpt lat="42.8218690" lon="-0.3053240">
        <ele>2167.6</ele>
        <time>2020-09-11T11:43:01Z</time>
      </trkpt>
      <trkpt lat="42.8218890" lon="-0.3053870">
        <ele>2168.2</ele>
        <time>2020-09-11T11:43:09Z</time>
      </trkpt>
      <trkpt lat="42.8218560" lon="-0.3054860">
        <ele>2169.2</ele>
        <time>2020-09-11T11:43:18Z</time>
      </trkpt>
      <trkpt lat="42.8218460" lon="-0.3055270">
        <ele>2169.4</ele>
        <time>2020-09-11T11:43:21Z</time>
      </trkpt>
      <trkpt lat="42.8218430" lon="-0.3055490">
        <ele>2169.8</ele>
        <time>2020-09-11T11:43:23Z</time>
      </trkpt>
      <trkpt lat="42.8218350" lon="-0.3055940">
        <ele>2170.2</ele>
        <time>2020-09-11T11:43:30Z</time>
      </trkpt>
      <trkpt lat="42.8218360" lon="-0.3056100">
        <ele>2170.4</ele>
        <time>2020-09-11T11:43:31Z</time>
      </trkpt>
      <trkpt lat="42.8217950" lon="-0.3058450">
        <ele>2170.6</ele>
        <time>2020-09-11T11:43:47Z</time>
      </trkpt>
      <trkpt lat="42.8217890" lon="-0.3059740">
        <ele>2171.4</ele>
        <time>2020-09-11T11:43:54Z</time>
      </trkpt>
      <trkpt lat="42.8218000" lon="-0.3060110">
        <ele>2171.8</ele>
        <time>2020-09-11T11:43:58Z</time>
      </trkpt>
      <trkpt lat="42.8218180" lon="-0.3060440">
        <ele>2171.8</ele>
        <time>2020-09-11T11:44:02Z</time>
      </trkpt>
      <trkpt lat="42.8218190" lon="-0.3060600">
        <ele>2172.2</ele>
        <time>2020-09-11T11:44:04Z</time>
      </trkpt>
      <trkpt lat="42.8218250" lon="-0.3060870">
        <ele>2172.4</ele>
        <time>2020-09-11T11:44:06Z</time>
      </trkpt>
      <trkpt lat="42.8218570" lon="-0.3061620">
        <ele>2173.4</ele>
        <time>2020-09-11T11:44:13Z</time>
      </trkpt>
      <trkpt lat="42.8218630" lon="-0.3061740">
        <ele>2173.6</ele>
        <time>2020-09-11T11:44:14Z</time>
      </trkpt>
      <trkpt lat="42.8218660" lon="-0.3061870">
        <ele>2173.6</ele>
        <time>2020-09-11T11:44:15Z</time>
      </trkpt>
      <trkpt lat="42.8218640" lon="-0.3062990">
        <ele>2174.6</ele>
        <time>2020-09-11T11:44:23Z</time>
      </trkpt>
      <trkpt lat="42.8218680" lon="-0.3063630">
        <ele>2175.2</ele>
        <time>2020-09-11T11:44:29Z</time>
      </trkpt>
      <trkpt lat="42.8218750" lon="-0.3064020">
        <ele>2175.6</ele>
        <time>2020-09-11T11:44:33Z</time>
      </trkpt>
      <trkpt lat="42.8218970" lon="-0.3064950">
        <ele>2176.8</ele>
        <time>2020-09-11T11:44:41Z</time>
      </trkpt>
      <trkpt lat="42.8219160" lon="-0.3067360">
        <ele>2176.4</ele>
        <time>2020-09-11T11:44:56Z</time>
      </trkpt>
      <trkpt lat="42.8219090" lon="-0.3069980">
        <ele>2176.0</ele>
        <time>2020-09-11T11:45:11Z</time>
      </trkpt>
      <trkpt lat="42.8219030" lon="-0.3070590">
        <ele>2176.2</ele>
        <time>2020-09-11T11:45:15Z</time>
      </trkpt>
      <trkpt lat="42.8218730" lon="-0.3073100">
        <ele>2176.2</ele>
        <time>2020-09-11T11:45:30Z</time>
      </trkpt>
      <trkpt lat="42.8218530" lon="-0.3074920">
        <ele>2175.8</ele>
        <time>2020-09-11T11:45:41Z</time>
      </trkpt>
      <trkpt lat="42.8218490" lon="-0.3075560">
        <ele>2175.4</ele>
        <time>2020-09-11T11:45:45Z</time>
      </trkpt>
      <trkpt lat="42.8218410" lon="-0.3076750">
        <ele>2174.6</ele>
        <time>2020-09-11T11:45:52Z</time>
      </trkpt>
      <trkpt lat="42.8218330" lon="-0.3078260">
        <ele>2173.4</ele>
        <time>2020-09-11T11:46:01Z</time>
      </trkpt>
      <trkpt lat="42.8218540" lon="-0.3079430">
        <ele>2172.4</ele>
        <time>2020-09-11T11:46:08Z</time>
      </trkpt>
      <trkpt lat="42.8218510" lon="-0.3079580">
        <ele>2172.4</ele>
        <time>2020-09-11T11:46:09Z</time>
      </trkpt>
      <trkpt lat="42.8218730" lon="-0.3081410">
        <ele>2171.4</ele>
        <time>2020-09-11T11:46:20Z</time>
      </trkpt>
      <trkpt lat="42.8219340" lon="-0.3083790">
        <ele>2171.6</ele>
        <time>2020-09-11T11:46:36Z</time>
      </trkpt>
      <trkpt lat="42.8219550" lon="-0.3084610">
        <ele>2171.4</ele>
        <time>2020-09-11T11:46:42Z</time>
      </trkpt>
      <trkpt lat="42.8219670" lon="-0.3085130">
        <ele>2171.4</ele>
        <time>2020-09-11T11:46:47Z</time>
      </trkpt>
      <trkpt lat="42.8220310" lon="-0.3087180">
        <ele>2172.6</ele>
        <time>2020-09-11T11:47:02Z</time>
      </trkpt>
      <trkpt lat="42.8220420" lon="-0.3087700">
        <ele>2173.6</ele>
        <time>2020-09-11T11:47:06Z</time>
      </trkpt>
      <trkpt lat="42.8221030" lon="-0.3090110">
        <ele>2174.0</ele>
        <time>2020-09-11T11:47:21Z</time>
      </trkpt>
      <trkpt lat="42.8221120" lon="-0.3090340">
        <ele>2174.2</ele>
        <time>2020-09-11T11:47:23Z</time>
      </trkpt>
      <trkpt lat="42.8221130" lon="-0.3090980">
        <ele>2174.6</ele>
        <time>2020-09-11T11:47:28Z</time>
      </trkpt>
      <trkpt lat="42.8221460" lon="-0.3092060">
        <ele>2175.8</ele>
        <time>2020-09-11T11:47:36Z</time>
      </trkpt>
      <trkpt lat="42.8221820" lon="-0.3093520">
        <ele>2176.4</ele>
        <time>2020-09-11T11:47:47Z</time>
      </trkpt>
      <trkpt lat="42.8221860" lon="-0.3093910">
        <ele>2176.4</ele>
        <time>2020-09-11T11:47:50Z</time>
      </trkpt>
      <trkpt lat="42.8222040" lon="-0.3094460">
        <ele>2176.8</ele>
        <time>2020-09-11T11:47:54Z</time>
      </trkpt>
      <trkpt lat="42.8223020" lon="-0.3096720">
        <ele>2177.2</ele>
        <time>2020-09-11T11:48:10Z</time>
      </trkpt>
      <trkpt lat="42.8223810" lon="-0.3098980">
        <ele>2177.6</ele>
        <time>2020-09-11T11:48:24Z</time>
      </trkpt>
      <trkpt lat="42.8223960" lon="-0.3099230">
        <ele>2178.0</ele>
        <time>2020-09-11T11:48:26Z</time>
      </trkpt>
      <trkpt lat="42.8224310" lon="-0.3100150">
        <ele>2178.2</ele>
        <time>2020-09-11T11:48:32Z</time>
      </trkpt>
      <trkpt lat="42.8224500" lon="-0.3101040">
        <ele>2178.0</ele>
        <time>2020-09-11T11:48:39Z</time>
      </trkpt>
      <trkpt lat="42.8224580" lon="-0.3101750">
        <ele>2178.0</ele>
        <time>2020-09-11T11:48:45Z</time>
      </trkpt>
      <trkpt lat="42.8224880" lon="-0.3102330">
        <ele>2178.0</ele>
        <time>2020-09-11T11:48:50Z</time>
      </trkpt>
      <trkpt lat="42.8225580" lon="-0.3104620">
        <ele>2178.4</ele>
        <time>2020-09-11T11:49:07Z</time>
      </trkpt>
      <trkpt lat="42.8225770" lon="-0.3105540">
        <ele>2178.0</ele>
        <time>2020-09-11T11:49:12Z</time>
      </trkpt>
      <trkpt lat="42.8226750" lon="-0.3107620">
        <ele>2178.8</ele>
        <time>2020-09-11T11:49:27Z</time>
      </trkpt>
      <trkpt lat="42.8227450" lon="-0.3109980">
        <ele>2178.8</ele>
        <time>2020-09-11T11:49:43Z</time>
      </trkpt>
      <trkpt lat="42.8228220" lon="-0.3112230">
        <ele>2177.2</ele>
        <time>2020-09-11T11:50:00Z</time>
      </trkpt>
      <trkpt lat="42.8228260" lon="-0.3112290">
        <ele>2177.0</ele>
        <time>2020-09-11T11:50:01Z</time>
      </trkpt>
      <trkpt lat="42.8228330" lon="-0.3112370">
        <ele>2176.8</ele>
        <time>2020-09-11T11:50:02Z</time>
      </trkpt>
      <trkpt lat="42.8228870" lon="-0.3113870">
        <ele>2175.6</ele>
        <time>2020-09-11T11:50:11Z</time>
      </trkpt>
      <trkpt lat="42.8229150" lon="-0.3115490">
        <ele>2174.6</ele>
        <time>2020-09-11T11:50:19Z</time>
      </trkpt>
      <trkpt lat="42.8229260" lon="-0.3116640">
        <ele>2173.4</ele>
        <time>2020-09-11T11:50:25Z</time>
      </trkpt>
      <trkpt lat="42.8229540" lon="-0.3117700">
        <ele>2172.4</ele>
        <time>2020-09-11T11:50:31Z</time>
      </trkpt>
      <trkpt lat="42.8229910" lon="-0.3119270">
        <ele>2172.8</ele>
        <time>2020-09-11T11:50:44Z</time>
      </trkpt>
      <trkpt lat="42.8229960" lon="-0.3119720">
        <ele>2172.8</ele>
        <time>2020-09-11T11:50:47Z</time>
      </trkpt>
      <trkpt lat="42.8230130" lon="-0.3120570">
        <ele>2171.2</ele>
        <time>2020-09-11T11:50:53Z</time>
      </trkpt>
      <trkpt lat="42.8230180" lon="-0.3121500">
        <ele>2170.2</ele>
        <time>2020-09-11T11:50:59Z</time>
      </trkpt>
      <trkpt lat="42.8230750" lon="-0.3123870">
        <ele>2169.4</ele>
        <time>2020-09-11T11:51:14Z</time>
      </trkpt>
      <trkpt lat="42.8230770" lon="-0.3124190">
        <ele>2169.2</ele>
        <time>2020-09-11T11:51:16Z</time>
      </trkpt>
      <trkpt lat="42.8230900" lon="-0.3125690">
        <ele>2168.0</ele>
        <time>2020-09-11T11:51:24Z</time>
      </trkpt>
      <trkpt lat="42.8231080" lon="-0.3126680">
        <ele>2167.0</ele>
        <time>2020-09-11T11:51:31Z</time>
      </trkpt>
      <trkpt lat="42.8231280" lon="-0.3127540">
        <ele>2166.0</ele>
        <time>2020-09-11T11:51:38Z</time>
      </trkpt>
      <trkpt lat="42.8231530" lon="-0.3127880">
        <ele>2165.0</ele>
        <time>2020-09-11T11:51:41Z</time>
      </trkpt>
      <trkpt lat="42.8231790" lon="-0.3128560">
        <ele>2163.8</ele>
        <time>2020-09-11T11:51:46Z</time>
      </trkpt>
      <trkpt lat="42.8232110" lon="-0.3129490">
        <ele>2162.6</ele>
        <time>2020-09-11T11:51:52Z</time>
      </trkpt>
      <trkpt lat="42.8232390" lon="-0.3130500">
        <ele>2161.6</ele>
        <time>2020-09-11T11:51:58Z</time>
      </trkpt>
      <trkpt lat="42.8232660" lon="-0.3132880">
        <ele>2161.0</ele>
        <time>2020-09-11T11:52:13Z</time>
      </trkpt>
      <trkpt lat="42.8233140" lon="-0.3135030">
        <ele>2160.6</ele>
        <time>2020-09-11T11:52:26Z</time>
      </trkpt>
      <trkpt lat="42.8233500" lon="-0.3136110">
        <ele>2159.4</ele>
        <time>2020-09-11T11:52:33Z</time>
      </trkpt>
      <trkpt lat="42.8233700" lon="-0.3137160">
        <ele>2158.4</ele>
        <time>2020-09-11T11:52:39Z</time>
      </trkpt>
      <trkpt lat="42.8233610" lon="-0.3138370">
        <ele>2157.4</ele>
        <time>2020-09-11T11:52:46Z</time>
      </trkpt>
      <trkpt lat="42.8233660" lon="-0.3138750">
        <ele>2157.0</ele>
        <time>2020-09-11T11:52:50Z</time>
      </trkpt>
      <trkpt lat="42.8233630" lon="-0.3138720">
        <ele>2157.0</ele>
        <time>2020-09-11T11:52:52Z</time>
      </trkpt>
      <trkpt lat="42.8233600" lon="-0.3138570">
        <ele>2156.4</ele>
        <time>2020-09-11T11:53:07Z</time>
      </trkpt>
      <trkpt lat="42.8233740" lon="-0.3139350">
        <ele>2156.0</ele>
        <time>2020-09-11T11:53:18Z</time>
      </trkpt>
      <trkpt lat="42.8234110" lon="-0.3141850">
        <ele>2155.6</ele>
        <time>2020-09-11T11:53:31Z</time>
      </trkpt>
      <trkpt lat="42.8234230" lon="-0.3142330">
        <ele>2155.4</ele>
        <time>2020-09-11T11:53:34Z</time>
      </trkpt>
      <trkpt lat="42.8234260" lon="-0.3142770">
        <ele>2155.2</ele>
        <time>2020-09-11T11:53:37Z</time>
      </trkpt>
      <trkpt lat="42.8234670" lon="-0.3143830">
        <ele>2154.2</ele>
        <time>2020-09-11T11:53:44Z</time>
      </trkpt>
      <trkpt lat="42.8235050" lon="-0.3144840">
        <ele>2153.2</ele>
        <time>2020-09-11T11:53:51Z</time>
      </trkpt>
      <trkpt lat="42.8235470" lon="-0.3145440">
        <ele>2153.0</ele>
        <time>2020-09-11T11:53:58Z</time>
      </trkpt>
      <trkpt lat="42.8235490" lon="-0.3145610">
        <ele>2153.2</ele>
        <time>2020-09-11T11:54:00Z</time>
      </trkpt>
      <trkpt lat="42.8235830" lon="-0.3146470">
        <ele>2154.0</ele>
        <time>2020-09-11T11:54:07Z</time>
      </trkpt>
      <trkpt lat="42.8235860" lon="-0.3146790">
        <ele>2153.8</ele>
        <time>2020-09-11T11:54:09Z</time>
      </trkpt>
      <trkpt lat="42.8236510" lon="-0.3148540">
        <ele>2153.2</ele>
        <time>2020-09-11T11:54:22Z</time>
      </trkpt>
      <trkpt lat="42.8237150" lon="-0.3150930">
        <ele>2153.8</ele>
        <time>2020-09-11T11:54:39Z</time>
      </trkpt>
      <trkpt lat="42.8237320" lon="-0.3151930">
        <ele>2152.8</ele>
        <time>2020-09-11T11:54:46Z</time>
      </trkpt>
      <trkpt lat="42.8237230" lon="-0.3152430">
        <ele>2152.2</ele>
        <time>2020-09-11T11:54:50Z</time>
      </trkpt>
      <trkpt lat="42.8237220" lon="-0.3152980">
        <ele>2151.0</ele>
        <time>2020-09-11T11:54:54Z</time>
      </trkpt>
      <trkpt lat="42.8237180" lon="-0.3154030">
        <ele>2149.8</ele>
        <time>2020-09-11T11:55:01Z</time>
      </trkpt>
      <trkpt lat="42.8237580" lon="-0.3154960">
        <ele>2148.8</ele>
        <time>2020-09-11T11:55:08Z</time>
      </trkpt>
      <trkpt lat="42.8237810" lon="-0.3155950">
        <ele>2147.6</ele>
        <time>2020-09-11T11:55:15Z</time>
      </trkpt>
      <trkpt lat="42.8237780" lon="-0.3156810">
        <ele>2146.4</ele>
        <time>2020-09-11T11:55:20Z</time>
      </trkpt>
      <trkpt lat="42.8237880" lon="-0.3157260">
        <ele>2145.4</ele>
        <time>2020-09-11T11:55:23Z</time>
      </trkpt>
      <trkpt lat="42.8238020" lon="-0.3158030">
        <ele>2144.2</ele>
        <time>2020-09-11T11:55:28Z</time>
      </trkpt>
      <trkpt lat="42.8238100" lon="-0.3158610">
        <ele>2143.2</ele>
        <time>2020-09-11T11:55:32Z</time>
      </trkpt>
      <trkpt lat="42.8238420" lon="-0.3159210">
        <ele>2142.2</ele>
        <time>2020-09-11T11:55:38Z</time>
      </trkpt>
      <trkpt lat="42.8238510" lon="-0.3159270">
        <ele>2141.8</ele>
        <time>2020-09-11T11:55:39Z</time>
      </trkpt>
      <trkpt lat="42.8238760" lon="-0.3159510">
        <ele>2140.8</ele>
        <time>2020-09-11T11:55:42Z</time>
      </trkpt>
      <trkpt lat="42.8238830" lon="-0.3159640">
        <ele>2140.6</ele>
        <time>2020-09-11T11:55:43Z</time>
      </trkpt>
      <trkpt lat="42.8239030" lon="-0.3159960">
        <ele>2139.8</ele>
        <time>2020-09-11T11:55:46Z</time>
      </trkpt>
      <trkpt lat="42.8239150" lon="-0.3160030">
        <ele>2139.6</ele>
        <time>2020-09-11T11:55:47Z</time>
      </trkpt>
      <trkpt lat="42.8239290" lon="-0.3160250">
        <ele>2139.2</ele>
        <time>2020-09-11T11:55:49Z</time>
      </trkpt>
      <trkpt lat="42.8239370" lon="-0.3160540">
        <ele>2138.6</ele>
        <time>2020-09-11T11:55:51Z</time>
      </trkpt>
      <trkpt lat="42.8239400" lon="-0.3161400">
        <ele>2137.4</ele>
        <time>2020-09-11T11:55:57Z</time>
      </trkpt>
      <trkpt lat="42.8239330" lon="-0.3162420">
        <ele>2136.4</ele>
        <time>2020-09-11T11:56:03Z</time>
      </trkpt>
      <trkpt lat="42.8239310" lon="-0.3163300">
        <ele>2135.4</ele>
        <time>2020-09-11T11:56:08Z</time>
      </trkpt>
      <trkpt lat="42.8239670" lon="-0.3163940">
        <ele>2134.2</ele>
        <time>2020-09-11T11:56:13Z</time>
      </trkpt>
      <trkpt lat="42.8239900" lon="-0.3164680">
        <ele>2133.6</ele>
        <time>2020-09-11T11:56:18Z</time>
      </trkpt>
      <trkpt lat="42.8240010" lon="-0.3164760">
        <ele>2133.2</ele>
        <time>2020-09-11T11:56:19Z</time>
      </trkpt>
      <trkpt lat="42.8240510" lon="-0.3165430">
        <ele>2132.2</ele>
        <time>2020-09-11T11:56:25Z</time>
      </trkpt>
      <trkpt lat="42.8240580" lon="-0.3165490">
        <ele>2132.0</ele>
        <time>2020-09-11T11:56:27Z</time>
      </trkpt>
      <trkpt lat="42.8241260" lon="-0.3166870">
        <ele>2131.0</ele>
        <time>2020-09-11T11:56:46Z</time>
      </trkpt>
      <trkpt lat="42.8241830" lon="-0.3167490">
        <ele>2129.8</ele>
        <time>2020-09-11T11:56:52Z</time>
      </trkpt>
      <trkpt lat="42.8242570" lon="-0.3169710">
        <ele>2129.8</ele>
        <time>2020-09-11T11:57:07Z</time>
      </trkpt>
      <trkpt lat="42.8243170" lon="-0.3171460">
        <ele>2130.8</ele>
        <time>2020-09-11T11:57:22Z</time>
      </trkpt>
      <trkpt lat="42.8243210" lon="-0.3171540">
        <ele>2131.0</ele>
        <time>2020-09-11T11:57:23Z</time>
      </trkpt>
      <trkpt lat="42.8243300" lon="-0.3172810">
        <ele>2132.0</ele>
        <time>2020-09-11T11:57:30Z</time>
      </trkpt>
      <trkpt lat="42.8243890" lon="-0.3174040">
        <ele>2133.0</ele>
        <time>2020-09-11T11:57:41Z</time>
      </trkpt>
      <trkpt lat="42.8243900" lon="-0.3174130">
        <ele>2133.2</ele>
        <time>2020-09-11T11:57:42Z</time>
      </trkpt>
      <trkpt lat="42.8243940" lon="-0.3175020">
        <ele>2134.2</ele>
        <time>2020-09-11T11:57:47Z</time>
      </trkpt>
      <trkpt lat="42.8244070" lon="-0.3176140">
        <ele>2135.2</ele>
        <time>2020-09-11T11:57:54Z</time>
      </trkpt>
      <trkpt lat="42.8244100" lon="-0.3176250">
        <ele>2135.4</ele>
        <time>2020-09-11T11:57:55Z</time>
      </trkpt>
      <trkpt lat="42.8244450" lon="-0.3177080">
        <ele>2136.2</ele>
        <time>2020-09-11T11:58:02Z</time>
      </trkpt>
      <trkpt lat="42.8244460" lon="-0.3177230">
        <ele>2136.4</ele>
        <time>2020-09-11T11:58:03Z</time>
      </trkpt>
      <trkpt lat="42.8244680" lon="-0.3177780">
        <ele>2136.8</ele>
        <time>2020-09-11T11:58:08Z</time>
      </trkpt>
      <trkpt lat="42.8244900" lon="-0.3178060">
        <ele>2137.2</ele>
        <time>2020-09-11T11:58:12Z</time>
      </trkpt>
      <trkpt lat="42.8244950" lon="-0.3178170">
        <ele>2137.4</ele>
        <time>2020-09-11T11:58:13Z</time>
      </trkpt>
      <trkpt lat="42.8245400" lon="-0.3179440">
        <ele>2138.4</ele>
        <time>2020-09-11T11:58:23Z</time>
      </trkpt>
      <trkpt lat="42.8245500" lon="-0.3179870">
        <ele>2138.8</ele>
        <time>2020-09-11T11:58:26Z</time>
      </trkpt>
      <trkpt lat="42.8245860" lon="-0.3180770">
        <ele>2139.4</ele>
        <time>2020-09-11T11:58:33Z</time>
      </trkpt>
      <trkpt lat="42.8246020" lon="-0.3181580">
        <ele>2140.6</ele>
        <time>2020-09-11T11:58:40Z</time>
      </trkpt>
      <trkpt lat="42.8246120" lon="-0.3182220">
        <ele>2141.4</ele>
        <time>2020-09-11T11:58:46Z</time>
      </trkpt>
      <trkpt lat="42.8246130" lon="-0.3182350">
        <ele>2141.6</ele>
        <time>2020-09-11T11:58:47Z</time>
      </trkpt>
      <trkpt lat="42.8246160" lon="-0.3182560">
        <ele>2142.2</ele>
        <time>2020-09-11T11:58:49Z</time>
      </trkpt>
      <trkpt lat="42.8246180" lon="-0.3182790">
        <ele>2142.8</ele>
        <time>2020-09-11T11:58:51Z</time>
      </trkpt>
      <trkpt lat="42.8246360" lon="-0.3183480">
        <ele>2143.8</ele>
        <time>2020-09-11T11:58:57Z</time>
      </trkpt>
      <trkpt lat="42.8246450" lon="-0.3183640">
        <ele>2144.0</ele>
        <time>2020-09-11T11:58:59Z</time>
      </trkpt>
      <trkpt lat="42.8246660" lon="-0.3184300">
        <ele>2145.0</ele>
        <time>2020-09-11T11:59:05Z</time>
      </trkpt>
      <trkpt lat="42.8247260" lon="-0.3184900">
        <ele>2145.6</ele>
        <time>2020-09-11T11:59:14Z</time>
      </trkpt>
      <trkpt lat="42.8247550" lon="-0.3185070">
        <ele>2146.0</ele>
        <time>2020-09-11T11:59:18Z</time>
      </trkpt>
      <trkpt lat="42.8247550" lon="-0.3185630">
        <ele>2147.0</ele>
        <time>2020-09-11T11:59:22Z</time>
      </trkpt>
      <trkpt lat="42.8247580" lon="-0.3185730">
        <ele>2147.2</ele>
        <time>2020-09-11T11:59:23Z</time>
      </trkpt>
      <trkpt lat="42.8247700" lon="-0.3186860">
        <ele>2148.2</ele>
        <time>2020-09-11T11:59:33Z</time>
      </trkpt>
      <trkpt lat="42.8248060" lon="-0.3187260">
        <ele>2149.2</ele>
        <time>2020-09-11T11:59:39Z</time>
      </trkpt>
      <trkpt lat="42.8248470" lon="-0.3187910">
        <ele>2150.4</ele>
        <time>2020-09-11T11:59:47Z</time>
      </trkpt>
      <trkpt lat="42.8248740" lon="-0.3188280">
        <ele>2151.6</ele>
        <time>2020-09-11T11:59:52Z</time>
      </trkpt>
      <trkpt lat="42.8249650" lon="-0.3188820">
        <ele>2151.8</ele>
        <time>2020-09-11T12:00:01Z</time>
      </trkpt>
      <trkpt lat="42.8249560" lon="-0.3189520">
        <ele>2152.6</ele>
        <time>2020-09-11T12:00:06Z</time>
      </trkpt>
      <trkpt lat="42.8249610" lon="-0.3189870">
        <ele>2152.4</ele>
        <time>2020-09-11T12:00:09Z</time>
      </trkpt>
      <trkpt lat="42.8249550" lon="-0.3190390">
        <ele>2152.4</ele>
        <time>2020-09-11T12:00:14Z</time>
      </trkpt>
      <trkpt lat="42.8249550" lon="-0.3190630">
        <ele>2152.4</ele>
        <time>2020-09-11T12:00:16Z</time>
      </trkpt>
      <trkpt lat="42.8249590" lon="-0.3190830">
        <ele>2152.6</ele>
        <time>2020-09-11T12:00:18Z</time>
      </trkpt>
      <trkpt lat="42.8249430" lon="-0.3191430">
        <ele>2153.0</ele>
        <time>2020-09-11T12:00:22Z</time>
      </trkpt>
      <trkpt lat="42.8249430" lon="-0.3191900">
        <ele>2153.8</ele>
        <time>2020-09-11T12:00:26Z</time>
      </trkpt>
      <trkpt lat="42.8249490" lon="-0.3191930">
        <ele>2153.8</ele>
        <time>2020-09-11T12:00:27Z</time>
      </trkpt>
      <trkpt lat="42.8249550" lon="-0.3192130">
        <ele>2154.2</ele>
        <time>2020-09-11T12:00:29Z</time>
      </trkpt>
      <trkpt lat="42.8249610" lon="-0.3192580">
        <ele>2154.8</ele>
        <time>2020-09-11T12:00:32Z</time>
      </trkpt>
      <trkpt lat="42.8249620" lon="-0.3192720">
        <ele>2155.0</ele>
        <time>2020-09-11T12:00:33Z</time>
      </trkpt>
      <trkpt lat="42.8249680" lon="-0.3193540">
        <ele>2155.8</ele>
        <time>2020-09-11T12:00:39Z</time>
      </trkpt>
      <trkpt lat="42.8249660" lon="-0.3193970">
        <ele>2156.0</ele>
        <time>2020-09-11T12:00:42Z</time>
      </trkpt>
      <trkpt lat="42.8249670" lon="-0.3194380">
        <ele>2156.4</ele>
        <time>2020-09-11T12:00:46Z</time>
      </trkpt>
      <trkpt lat="42.8249730" lon="-0.3194780">
        <ele>2156.8</ele>
        <time>2020-09-11T12:00:49Z</time>
      </trkpt>
      <trkpt lat="42.8249780" lon="-0.3195060">
        <ele>2157.0</ele>
        <time>2020-09-11T12:00:51Z</time>
      </trkpt>
      <trkpt lat="42.8249760" lon="-0.3195330">
        <ele>2157.4</ele>
        <time>2020-09-11T12:00:53Z</time>
      </trkpt>
      <trkpt lat="42.8249790" lon="-0.3195480">
        <ele>2157.4</ele>
        <time>2020-09-11T12:00:55Z</time>
      </trkpt>
      <trkpt lat="42.8249870" lon="-0.3195480">
        <ele>2157.6</ele>
        <time>2020-09-11T12:00:58Z</time>
      </trkpt>
      <trkpt lat="42.8249970" lon="-0.3195970">
        <ele>2157.6</ele>
        <time>2020-09-11T12:01:03Z</time>
      </trkpt>
      <trkpt lat="42.8250020" lon="-0.3198470">
        <ele>2157.8</ele>
        <time>2020-09-11T12:01:18Z</time>
      </trkpt>
      <trkpt lat="42.8250140" lon="-0.3199100">
        <ele>2158.0</ele>
        <time>2020-09-11T12:01:22Z</time>
      </trkpt>
      <trkpt lat="42.8250430" lon="-0.3199240">
        <ele>2158.2</ele>
        <time>2020-09-11T12:01:25Z</time>
      </trkpt>
      <trkpt lat="42.8250900" lon="-0.3199390">
        <ele>2158.0</ele>
        <time>2020-09-11T12:01:29Z</time>
      </trkpt>
      <trkpt lat="42.8251970" lon="-0.3201220">
        <ele>2157.4</ele>
        <time>2020-09-11T12:01:43Z</time>
      </trkpt>
      <trkpt lat="42.8252930" lon="-0.3202620">
        <ele>2157.0</ele>
        <time>2020-09-11T12:01:55Z</time>
      </trkpt>
      <trkpt lat="42.8253430" lon="-0.3203600">
        <ele>2156.8</ele>
        <time>2020-09-11T12:02:03Z</time>
      </trkpt>
      <trkpt lat="42.8253670" lon="-0.3204430">
        <ele>2157.6</ele>
        <time>2020-09-11T12:02:12Z</time>
      </trkpt>
      <trkpt lat="42.8253810" lon="-0.3204770">
        <ele>2158.2</ele>
        <time>2020-09-11T12:02:15Z</time>
      </trkpt>
      <trkpt lat="42.8254890" lon="-0.3205480">
        <ele>2159.2</ele>
        <time>2020-09-11T12:02:26Z</time>
      </trkpt>
      <trkpt lat="42.8256360" lon="-0.3207160">
        <ele>2159.4</ele>
        <time>2020-09-11T12:02:43Z</time>
      </trkpt>
      <trkpt lat="42.8257740" lon="-0.3208970">
        <ele>2158.4</ele>
        <time>2020-09-11T12:02:59Z</time>
      </trkpt>
      <trkpt lat="42.8257860" lon="-0.3209090">
        <ele>2158.2</ele>
        <time>2020-09-11T12:03:00Z</time>
      </trkpt>
      <trkpt lat="42.8258780" lon="-0.3209680">
        <ele>2157.2</ele>
        <time>2020-09-11T12:03:08Z</time>
      </trkpt>
      <trkpt lat="42.8260650" lon="-0.3209850">
        <ele>2156.2</ele>
        <time>2020-09-11T12:03:24Z</time>
      </trkpt>
      <trkpt lat="42.8260810" lon="-0.3209880">
        <ele>2156.2</ele>
        <time>2020-09-11T12:03:25Z</time>
      </trkpt>
      <trkpt lat="42.8262580" lon="-0.3210190">
        <ele>2155.2</ele>
        <time>2020-09-11T12:03:39Z</time>
      </trkpt>
      <trkpt lat="42.8262710" lon="-0.3210100">
        <ele>2155.2</ele>
        <time>2020-09-11T12:03:40Z</time>
      </trkpt>
      <trkpt lat="42.8263870" lon="-0.3210630">
        <ele>2154.0</ele>
        <time>2020-09-11T12:03:50Z</time>
      </trkpt>
      <trkpt lat="42.8264000" lon="-0.3210620">
        <ele>2153.8</ele>
        <time>2020-09-11T12:03:52Z</time>
      </trkpt>
      <trkpt lat="42.8264180" lon="-0.3210280">
        <ele>2153.4</ele>
        <time>2020-09-11T12:03:55Z</time>
      </trkpt>
      <trkpt lat="42.8264290" lon="-0.3209670">
        <ele>2153.0</ele>
        <time>2020-09-11T12:03:59Z</time>
      </trkpt>
      <trkpt lat="42.8264470" lon="-0.3208860">
        <ele>2152.2</ele>
        <time>2020-09-11T12:04:03Z</time>
      </trkpt>
      <trkpt lat="42.8264450" lon="-0.3208650">
        <ele>2152.0</ele>
        <time>2020-09-11T12:04:04Z</time>
      </trkpt>
      <trkpt lat="42.8264520" lon="-0.3207270">
        <ele>2150.8</ele>
        <time>2020-09-11T12:04:13Z</time>
      </trkpt>
      <trkpt lat="42.8265000" lon="-0.3206700">
        <ele>2150.4</ele>
        <time>2020-09-11T12:04:18Z</time>
      </trkpt>
      <trkpt lat="42.8265660" lon="-0.3206370">
        <ele>2149.8</ele>
        <time>2020-09-11T12:04:24Z</time>
      </trkpt>
      <trkpt lat="42.8266490" lon="-0.3206170">
        <ele>2148.8</ele>
        <time>2020-09-11T12:04:31Z</time>
      </trkpt>
      <trkpt lat="42.8267790" lon="-0.3205180">
        <ele>2148.0</ele>
        <time>2020-09-11T12:04:42Z</time>
      </trkpt>
      <trkpt lat="42.8268030" lon="-0.3205260">
        <ele>2147.8</ele>
        <time>2020-09-11T12:04:45Z</time>
      </trkpt>
      <trkpt lat="42.8268230" lon="-0.3205140">
        <ele>2147.6</ele>
        <time>2020-09-11T12:04:47Z</time>
      </trkpt>
      <trkpt lat="42.8268240" lon="-0.3205420">
        <ele>2147.6</ele>
        <time>2020-09-11T12:04:54Z</time>
      </trkpt>
      <trkpt lat="42.8268750" lon="-0.3205490">
        <ele>2146.6</ele>
        <time>2020-09-11T12:05:01Z</time>
      </trkpt>
      <trkpt lat="42.8269080" lon="-0.3205620">
        <ele>2146.4</ele>
        <time>2020-09-11T12:05:04Z</time>
      </trkpt>
      <trkpt lat="42.8269560" lon="-0.3206020">
        <ele>2145.6</ele>
        <time>2020-09-11T12:05:09Z</time>
      </trkpt>
      <trkpt lat="42.8270030" lon="-0.3206780">
        <ele>2144.6</ele>
        <time>2020-09-11T12:05:15Z</time>
      </trkpt>
      <trkpt lat="42.8270370" lon="-0.3206990">
        <ele>2144.2</ele>
        <time>2020-09-11T12:05:18Z</time>
      </trkpt>
      <trkpt lat="42.8270530" lon="-0.3207140">
        <ele>2144.2</ele>
        <time>2020-09-11T12:05:20Z</time>
      </trkpt>
      <trkpt lat="42.8271140" lon="-0.3208040">
        <ele>2143.4</ele>
        <time>2020-09-11T12:05:29Z</time>
      </trkpt>
      <trkpt lat="42.8271950" lon="-0.3208990">
        <ele>2142.4</ele>
        <time>2020-09-11T12:05:39Z</time>
      </trkpt>
      <trkpt lat="42.8272650" lon="-0.3210220">
        <ele>2141.4</ele>
        <time>2020-09-11T12:05:48Z</time>
      </trkpt>
      <trkpt lat="42.8273190" lon="-0.3210780">
        <ele>2140.8</ele>
        <time>2020-09-11T12:05:54Z</time>
      </trkpt>
      <trkpt lat="42.8273360" lon="-0.3211190">
        <ele>2140.8</ele>
        <time>2020-09-11T12:05:57Z</time>
      </trkpt>
      <trkpt lat="42.8274370" lon="-0.3212690">
        <ele>2140.4</ele>
        <time>2020-09-11T12:06:09Z</time>
      </trkpt>
      <trkpt lat="42.8275090" lon="-0.3214860">
        <ele>2141.6</ele>
        <time>2020-09-11T12:06:25Z</time>
      </trkpt>
      <trkpt lat="42.8275600" lon="-0.3215110">
        <ele>2141.4</ele>
        <time>2020-09-11T12:06:30Z</time>
      </trkpt>
      <trkpt lat="42.8275950" lon="-0.3215050">
        <ele>2141.2</ele>
        <time>2020-09-11T12:06:33Z</time>
      </trkpt>
      <trkpt lat="42.8276180" lon="-0.3215050">
        <ele>2140.8</ele>
        <time>2020-09-11T12:06:35Z</time>
      </trkpt>
      <trkpt lat="42.8276460" lon="-0.3214910">
        <ele>2140.2</ele>
        <time>2020-09-11T12:06:37Z</time>
      </trkpt>
      <trkpt lat="42.8276560" lon="-0.3214900">
        <ele>2140.0</ele>
        <time>2020-09-11T12:06:38Z</time>
      </trkpt>
      <trkpt lat="42.8277050" lon="-0.3214940">
        <ele>2139.2</ele>
        <time>2020-09-11T12:06:41Z</time>
      </trkpt>
      <trkpt lat="42.8277630" lon="-0.3215080">
        <ele>2138.0</ele>
        <time>2020-09-11T12:06:45Z</time>
      </trkpt>
      <trkpt lat="42.8279220" lon="-0.3216580">
        <ele>2139.0</ele>
        <time>2020-09-11T12:07:02Z</time>
      </trkpt>
      <trkpt lat="42.8279310" lon="-0.3216640">
        <ele>2139.2</ele>
        <time>2020-09-11T12:07:03Z</time>
      </trkpt>
      <trkpt lat="42.8279660" lon="-0.3216710">
        <ele>2139.8</ele>
        <time>2020-09-11T12:07:07Z</time>
      </trkpt>
      <trkpt lat="42.8279840" lon="-0.3216630">
        <ele>2140.0</ele>
        <time>2020-09-11T12:07:09Z</time>
      </trkpt>
      <trkpt lat="42.8279940" lon="-0.3216590">
        <ele>2140.2</ele>
        <time>2020-09-11T12:07:10Z</time>
      </trkpt>
      <trkpt lat="42.8280170" lon="-0.3216510">
        <ele>2140.4</ele>
        <time>2020-09-11T12:07:12Z</time>
      </trkpt>
      <trkpt lat="42.8280730" lon="-0.3216620">
        <ele>2141.2</ele>
        <time>2020-09-11T12:07:18Z</time>
      </trkpt>
      <trkpt lat="42.8281060" lon="-0.3217020">
        <ele>2141.8</ele>
        <time>2020-09-11T12:07:22Z</time>
      </trkpt>
      <trkpt lat="42.8282800" lon="-0.3217260">
        <ele>2141.6</ele>
        <time>2020-09-11T12:07:39Z</time>
      </trkpt>
      <trkpt lat="42.8283480" lon="-0.3216350">
        <ele>2141.8</ele>
        <time>2020-09-11T12:07:46Z</time>
      </trkpt>
      <trkpt lat="42.8283720" lon="-0.3216010">
        <ele>2142.4</ele>
        <time>2020-09-11T12:07:49Z</time>
      </trkpt>
      <trkpt lat="42.8284060" lon="-0.3215440">
        <ele>2143.4</ele>
        <time>2020-09-11T12:07:54Z</time>
      </trkpt>
      <trkpt lat="42.8284150" lon="-0.3215360">
        <ele>2143.6</ele>
        <time>2020-09-11T12:07:55Z</time>
      </trkpt>
      <trkpt lat="42.8284430" lon="-0.3215040">
        <ele>2144.0</ele>
        <time>2020-09-11T12:08:00Z</time>
      </trkpt>
      <trkpt lat="42.8284530" lon="-0.3215070">
        <ele>2144.6</ele>
        <time>2020-09-11T12:08:02Z</time>
      </trkpt>
      <trkpt lat="42.8284410" lon="-0.3214440">
        <ele>2145.8</ele>
        <time>2020-09-11T12:08:08Z</time>
      </trkpt>
      <trkpt lat="42.8284780" lon="-0.3213660">
        <ele>2146.6</ele>
        <time>2020-09-11T12:08:15Z</time>
      </trkpt>
      <trkpt lat="42.8284870" lon="-0.3213590">
        <ele>2146.8</ele>
        <time>2020-09-11T12:08:16Z</time>
      </trkpt>
      <trkpt lat="42.8285240" lon="-0.3213300">
        <ele>2147.8</ele>
        <time>2020-09-11T12:08:21Z</time>
      </trkpt>
      <trkpt lat="42.8285310" lon="-0.3213110">
        <ele>2148.2</ele>
        <time>2020-09-11T12:08:22Z</time>
      </trkpt>
      <trkpt lat="42.8285420" lon="-0.3212830">
        <ele>2148.6</ele>
        <time>2020-09-11T12:08:25Z</time>
      </trkpt>
      <trkpt lat="42.8285550" lon="-0.3212660">
        <ele>2149.2</ele>
        <time>2020-09-11T12:08:27Z</time>
      </trkpt>
      <trkpt lat="42.8285780" lon="-0.3212360">
        <ele>2149.8</ele>
        <time>2020-09-11T12:08:30Z</time>
      </trkpt>
      <trkpt lat="42.8285910" lon="-0.3212210">
        <ele>2150.2</ele>
        <time>2020-09-11T12:08:32Z</time>
      </trkpt>
      <trkpt lat="42.8286050" lon="-0.3212030">
        <ele>2150.6</ele>
        <time>2020-09-11T12:08:34Z</time>
      </trkpt>
      <trkpt lat="42.8286260" lon="-0.3211760">
        <ele>2151.2</ele>
        <time>2020-09-11T12:08:38Z</time>
      </trkpt>
      <trkpt lat="42.8286220" lon="-0.3211740">
        <ele>2151.6</ele>
        <time>2020-09-11T12:08:40Z</time>
      </trkpt>
      <trkpt lat="42.8286270" lon="-0.3211350">
        <ele>2152.4</ele>
        <time>2020-09-11T12:08:45Z</time>
      </trkpt>
      <trkpt lat="42.8286540" lon="-0.3210800">
        <ele>2153.6</ele>
        <time>2020-09-11T12:08:51Z</time>
      </trkpt>
      <trkpt lat="42.8286060" lon="-0.3210700">
        <ele>2154.6</ele>
        <time>2020-09-11T12:09:09Z</time>
      </trkpt>
      <trkpt lat="42.8286490" lon="-0.3209750">
        <ele>2154.6</ele>
        <time>2020-09-11T12:09:30Z</time>
      </trkpt>
      <trkpt lat="42.8286530" lon="-0.3209660">
        <ele>2154.8</ele>
        <time>2020-09-11T12:09:32Z</time>
      </trkpt>
      <trkpt lat="42.8286960" lon="-0.3209180">
        <ele>2155.4</ele>
        <time>2020-09-11T12:09:39Z</time>
      </trkpt>
      <trkpt lat="42.8287360" lon="-0.3208700">
        <ele>2155.4</ele>
        <time>2020-09-11T12:09:43Z</time>
      </trkpt>
      <trkpt lat="42.8287820" lon="-0.3208410">
        <ele>2155.4</ele>
        <time>2020-09-11T12:09:46Z</time>
      </trkpt>
      <trkpt lat="42.8288920" lon="-0.3208970">
        <ele>2155.6</ele>
        <time>2020-09-11T12:09:55Z</time>
      </trkpt>
      <trkpt lat="42.8290120" lon="-0.3210690">
        <ele>2155.8</ele>
        <time>2020-09-11T12:10:09Z</time>
      </trkpt>
      <trkpt lat="42.8290190" lon="-0.3211210">
        <ele>2155.6</ele>
        <time>2020-09-11T12:10:12Z</time>
      </trkpt>
      <trkpt lat="42.8290340" lon="-0.3212240">
        <ele>2154.4</ele>
        <time>2020-09-11T12:10:19Z</time>
      </trkpt>
      <trkpt lat="42.8290170" lon="-0.3212900">
        <ele>2153.2</ele>
        <time>2020-09-11T12:10:23Z</time>
      </trkpt>
      <trkpt lat="42.8290170" lon="-0.3213560">
        <ele>2152.2</ele>
        <time>2020-09-11T12:10:28Z</time>
      </trkpt>
      <trkpt lat="42.8290050" lon="-0.3214210">
        <ele>2150.8</ele>
        <time>2020-09-11T12:10:32Z</time>
      </trkpt>
      <trkpt lat="42.8290040" lon="-0.3214380">
        <ele>2150.6</ele>
        <time>2020-09-11T12:10:33Z</time>
      </trkpt>
      <trkpt lat="42.8290300" lon="-0.3214510">
        <ele>2149.8</ele>
        <time>2020-09-11T12:10:36Z</time>
      </trkpt>
      <trkpt lat="42.8290660" lon="-0.3213890">
        <ele>2148.6</ele>
        <time>2020-09-11T12:10:41Z</time>
      </trkpt>
      <trkpt lat="42.8291110" lon="-0.3212700">
        <ele>2147.6</ele>
        <time>2020-09-11T12:10:47Z</time>
      </trkpt>
      <trkpt lat="42.8292320" lon="-0.3210950">
        <ele>2146.4</ele>
        <time>2020-09-11T12:10:59Z</time>
      </trkpt>
      <trkpt lat="42.8292470" lon="-0.3210350">
        <ele>2146.4</ele>
        <time>2020-09-11T12:11:03Z</time>
      </trkpt>
      <trkpt lat="42.8292830" lon="-0.3209870">
        <ele>2146.4</ele>
        <time>2020-09-11T12:11:07Z</time>
      </trkpt>
      <trkpt lat="42.8292920" lon="-0.3209560">
        <ele>2147.2</ele>
        <time>2020-09-11T12:11:10Z</time>
      </trkpt>
      <trkpt lat="42.8292940" lon="-0.3209070">
        <ele>2147.4</ele>
        <time>2020-09-11T12:11:14Z</time>
      </trkpt>
      <trkpt lat="42.8293120" lon="-0.3208320">
        <ele>2147.4</ele>
        <time>2020-09-11T12:11:19Z</time>
      </trkpt>
      <trkpt lat="42.8293290" lon="-0.3206270">
        <ele>2146.6</ele>
        <time>2020-09-11T12:11:32Z</time>
      </trkpt>
      <trkpt lat="42.8293290" lon="-0.3206130">
        <ele>2146.4</ele>
        <time>2020-09-11T12:11:33Z</time>
      </trkpt>
      <trkpt lat="42.8293260" lon="-0.3205080">
        <ele>2145.2</ele>
        <time>2020-09-11T12:11:41Z</time>
      </trkpt>
      <trkpt lat="42.8293230" lon="-0.3204220">
        <ele>2144.0</ele>
        <time>2020-09-11T12:11:46Z</time>
      </trkpt>
      <trkpt lat="42.8293250" lon="-0.3204070">
        <ele>2143.8</ele>
        <time>2020-09-11T12:11:47Z</time>
      </trkpt>
      <trkpt lat="42.8293420" lon="-0.3202920">
        <ele>2143.4</ele>
        <time>2020-09-11T12:11:54Z</time>
      </trkpt>
      <trkpt lat="42.8293390" lon="-0.3202290">
        <ele>2143.0</ele>
        <time>2020-09-11T12:11:58Z</time>
      </trkpt>
      <trkpt lat="42.8293250" lon="-0.3201850">
        <ele>2142.8</ele>
        <time>2020-09-11T12:12:01Z</time>
      </trkpt>
      <trkpt lat="42.8293560" lon="-0.3201420">
        <ele>2142.2</ele>
        <time>2020-09-11T12:12:06Z</time>
      </trkpt>
      <trkpt lat="42.8293630" lon="-0.3201170">
        <ele>2141.8</ele>
        <time>2020-09-11T12:12:08Z</time>
      </trkpt>
      <trkpt lat="42.8293720" lon="-0.3201090">
        <ele>2141.6</ele>
        <time>2020-09-11T12:12:09Z</time>
      </trkpt>
      <trkpt lat="42.8294500" lon="-0.3201500">
        <ele>2141.0</ele>
        <time>2020-09-11T12:12:12Z</time>
      </trkpt>
      <trkpt lat="42.8294560" lon="-0.3201680">
        <ele>2140.6</ele>
        <time>2020-09-11T12:12:13Z</time>
      </trkpt>
      <trkpt lat="42.8294490" lon="-0.3201880">
        <ele>2140.4</ele>
        <time>2020-09-11T12:12:14Z</time>
      </trkpt>
      <trkpt lat="42.8294450" lon="-0.3202590">
        <ele>2139.6</ele>
        <time>2020-09-11T12:12:18Z</time>
      </trkpt>
      <trkpt lat="42.8294530" lon="-0.3202710">
        <ele>2139.0</ele>
        <time>2020-09-11T12:12:20Z</time>
      </trkpt>
      <trkpt lat="42.8294660" lon="-0.3202450">
        <ele>2138.6</ele>
        <time>2020-09-11T12:12:24Z</time>
      </trkpt>
      <trkpt lat="42.8295170" lon="-0.3201270">
        <ele>2137.4</ele>
        <time>2020-09-11T12:12:30Z</time>
      </trkpt>
      <trkpt lat="42.8295460" lon="-0.3200720">
        <ele>2136.8</ele>
        <time>2020-09-11T12:12:33Z</time>
      </trkpt>
      <trkpt lat="42.8295570" lon="-0.3200560">
        <ele>2136.4</ele>
        <time>2020-09-11T12:12:34Z</time>
      </trkpt>
      <trkpt lat="42.8295670" lon="-0.3200460">
        <ele>2136.0</ele>
        <time>2020-09-11T12:12:35Z</time>
      </trkpt>
      <trkpt lat="42.8296320" lon="-0.3200480">
        <ele>2135.8</ele>
        <time>2020-09-11T12:12:38Z</time>
      </trkpt>
      <trkpt lat="42.8296500" lon="-0.3200600">
        <ele>2135.8</ele>
        <time>2020-09-11T12:12:40Z</time>
      </trkpt>
      <trkpt lat="42.8296950" lon="-0.3200330">
        <ele>2135.6</ele>
        <time>2020-09-11T12:12:44Z</time>
      </trkpt>
      <trkpt lat="42.8297270" lon="-0.3200150">
        <ele>2135.4</ele>
        <time>2020-09-11T12:12:46Z</time>
      </trkpt>
      <trkpt lat="42.8297430" lon="-0.3200010">
        <ele>2135.2</ele>
        <time>2020-09-11T12:12:48Z</time>
      </trkpt>
      <trkpt lat="42.8297470" lon="-0.3199980">
        <ele>2135.0</ele>
        <time>2020-09-11T12:12:49Z</time>
      </trkpt>
      <trkpt lat="42.8297510" lon="-0.3199880">
        <ele>2135.0</ele>
        <time>2020-09-11T12:12:50Z</time>
      </trkpt>
      <trkpt lat="42.8297520" lon="-0.3199800">
        <ele>2134.8</ele>
        <time>2020-09-11T12:12:51Z</time>
      </trkpt>
      <trkpt lat="42.8297670" lon="-0.3199410">
        <ele>2134.2</ele>
        <time>2020-09-11T12:12:53Z</time>
      </trkpt>
      <trkpt lat="42.8297710" lon="-0.3199050">
        <ele>2134.0</ele>
        <time>2020-09-11T12:12:55Z</time>
      </trkpt>
      <trkpt lat="42.8297690" lon="-0.3198720">
        <ele>2133.8</ele>
        <time>2020-09-11T12:12:58Z</time>
      </trkpt>
      <trkpt lat="42.8300660" lon="-0.3198340">
        <ele>2134.2</ele>
        <time>2020-09-11T12:13:03Z</time>
      </trkpt>
      <trkpt lat="42.8302980" lon="-0.3197400">
        <ele>2134.0</ele>
        <time>2020-09-11T12:13:05Z</time>
      </trkpt>
      <trkpt lat="42.8303250" lon="-0.3196970">
        <ele>2134.2</ele>
        <time>2020-09-11T12:13:06Z</time>
      </trkpt>
      <trkpt lat="42.8304300" lon="-0.3196250">
        <ele>2133.0</ele>
        <time>2020-09-11T12:13:10Z</time>
      </trkpt>
      <trkpt lat="42.8304400" lon="-0.3196000">
        <ele>2131.6</ele>
        <time>2020-09-11T12:13:14Z</time>
      </trkpt>
      <trkpt lat="42.8304310" lon="-0.3196030">
        <ele>2131.4</ele>
        <time>2020-09-11T12:13:15Z</time>
      </trkpt>
      <trkpt lat="42.8304480" lon="-0.3195910">
        <ele>2131.0</ele>
        <time>2020-09-11T12:13:19Z</time>
      </trkpt>
      <trkpt lat="42.8304160" lon="-0.3195670">
        <ele>2130.6</ele>
        <time>2020-09-11T12:13:25Z</time>
      </trkpt>
      <trkpt lat="42.8304090" lon="-0.3195500">
        <ele>2130.4</ele>
        <time>2020-09-11T12:13:26Z</time>
      </trkpt>
      <trkpt lat="42.8303970" lon="-0.3195320">
        <ele>2130.2</ele>
        <time>2020-09-11T12:13:28Z</time>
      </trkpt>
      <trkpt lat="42.8303820" lon="-0.3194860">
        <ele>2129.4</ele>
        <time>2020-09-11T12:13:32Z</time>
      </trkpt>
      <trkpt lat="42.8303810" lon="-0.3194710">
        <ele>2129.2</ele>
        <time>2020-09-11T12:13:36Z</time>
      </trkpt>
      <trkpt lat="42.8303730" lon="-0.3194200">
        <ele>2129.2</ele>
        <time>2020-09-11T12:13:43Z</time>
      </trkpt>
      <trkpt lat="42.8304050" lon="-0.3194070">
        <ele>2128.2</ele>
        <time>2020-09-11T12:13:47Z</time>
      </trkpt>
      <trkpt lat="42.8298640" lon="-0.3196990">
        <ele>2128.4</ele>
        <time>2020-09-11T12:13:56Z</time>
      </trkpt>
      <trkpt lat="42.8299180" lon="-0.3196810">
        <ele>2129.0</ele>
        <time>2020-09-11T12:14:02Z</time>
      </trkpt>
      <trkpt lat="42.8299890" lon="-0.3196510">
        <ele>2129.4</ele>
        <time>2020-09-11T12:14:17Z</time>
      </trkpt>
      <trkpt lat="42.8300440" lon="-0.3195700">
        <ele>2130.4</ele>
        <time>2020-09-11T12:14:24Z</time>
      </trkpt>
      <trkpt lat="42.8300490" lon="-0.3195580">
        <ele>2130.6</ele>
        <time>2020-09-11T12:14:25Z</time>
      </trkpt>
      <trkpt lat="42.8300900" lon="-0.3195270">
        <ele>2131.0</ele>
        <time>2020-09-11T12:14:29Z</time>
      </trkpt>
      <trkpt lat="42.8300960" lon="-0.3195100">
        <ele>2131.4</ele>
        <time>2020-09-11T12:14:31Z</time>
      </trkpt>
      <trkpt lat="42.8300990" lon="-0.3195000">
        <ele>2131.6</ele>
        <time>2020-09-11T12:14:32Z</time>
      </trkpt>
      <trkpt lat="42.8301010" lon="-0.3194920">
        <ele>2131.8</ele>
        <time>2020-09-11T12:14:33Z</time>
      </trkpt>
      <trkpt lat="42.8301170" lon="-0.3194690">
        <ele>2132.0</ele>
        <time>2020-09-11T12:14:35Z</time>
      </trkpt>
      <trkpt lat="42.8301390" lon="-0.3194350">
        <ele>2132.4</ele>
        <time>2020-09-11T12:14:39Z</time>
      </trkpt>
      <trkpt lat="42.8301470" lon="-0.3194260">
        <ele>2132.6</ele>
        <time>2020-09-11T12:14:40Z</time>
      </trkpt>
      <trkpt lat="42.8301520" lon="-0.3194160">
        <ele>2132.8</ele>
        <time>2020-09-11T12:14:41Z</time>
      </trkpt>
      <trkpt lat="42.8301830" lon="-0.3193630">
        <ele>2133.6</ele>
        <time>2020-09-11T12:14:48Z</time>
      </trkpt>
      <trkpt lat="42.8301910" lon="-0.3193500">
        <ele>2133.8</ele>
        <time>2020-09-11T12:14:49Z</time>
      </trkpt>
      <trkpt lat="42.8301970" lon="-0.3193370">
        <ele>2134.0</ele>
        <time>2020-09-11T12:14:50Z</time>
      </trkpt>
      <trkpt lat="42.8302100" lon="-0.3193100">
        <ele>2134.8</ele>
        <time>2020-09-11T12:14:53Z</time>
      </trkpt>
      <trkpt lat="42.8302140" lon="-0.3193000">
        <ele>2134.8</ele>
        <time>2020-09-11T12:14:54Z</time>
      </trkpt>
      <trkpt lat="42.8302020" lon="-0.3192300">
        <ele>2135.8</ele>
        <time>2020-09-11T12:15:03Z</time>
      </trkpt>
      <trkpt lat="42.8302300" lon="-0.3191460">
        <ele>2137.0</ele>
        <time>2020-09-11T12:15:11Z</time>
      </trkpt>
      <trkpt lat="42.8302620" lon="-0.3191100">
        <ele>2138.0</ele>
        <time>2020-09-11T12:15:19Z</time>
      </trkpt>
      <trkpt lat="42.8303150" lon="-0.3188490">
        <ele>2137.4</ele>
        <time>2020-09-11T12:15:40Z</time>
      </trkpt>
      <trkpt lat="42.8303150" lon="-0.3188260">
        <ele>2137.6</ele>
        <time>2020-09-11T12:15:42Z</time>
      </trkpt>
      <trkpt lat="42.8303010" lon="-0.3185900">
        <ele>2139.0</ele>
        <time>2020-09-11T12:15:59Z</time>
      </trkpt>
      <trkpt lat="42.8303080" lon="-0.3185150">
        <ele>2140.0</ele>
        <time>2020-09-11T12:16:05Z</time>
      </trkpt>
      <trkpt lat="42.8302990" lon="-0.3184750">
        <ele>2140.2</ele>
        <time>2020-09-11T12:16:08Z</time>
      </trkpt>
      <trkpt lat="42.8303250" lon="-0.3183960">
        <ele>2141.2</ele>
        <time>2020-09-11T12:16:14Z</time>
      </trkpt>
      <trkpt lat="42.8303600" lon="-0.3183400">
        <ele>2141.2</ele>
        <time>2020-09-11T12:16:18Z</time>
      </trkpt>
      <trkpt lat="42.8303270" lon="-0.3182760">
        <ele>2140.0</ele>
        <time>2020-09-11T12:16:23Z</time>
      </trkpt>
      <trkpt lat="42.8302900" lon="-0.3181440">
        <ele>2140.2</ele>
        <time>2020-09-11T12:16:32Z</time>
      </trkpt>
      <trkpt lat="42.8302850" lon="-0.3180750">
        <ele>2140.4</ele>
        <time>2020-09-11T12:16:38Z</time>
      </trkpt>
      <trkpt lat="42.8303350" lon="-0.3179640">
        <ele>2141.0</ele>
        <time>2020-09-11T12:16:47Z</time>
      </trkpt>
      <trkpt lat="42.8303840" lon="-0.3178750">
        <ele>2141.0</ele>
        <time>2020-09-11T12:16:55Z</time>
      </trkpt>
      <trkpt lat="42.8304090" lon="-0.3178430">
        <ele>2141.0</ele>
        <time>2020-09-11T12:16:57Z</time>
      </trkpt>
      <trkpt lat="42.8304770" lon="-0.3176180">
        <ele>2141.6</ele>
        <time>2020-09-11T12:17:14Z</time>
      </trkpt>
      <trkpt lat="42.8305670" lon="-0.3174980">
        <ele>2141.8</ele>
        <time>2020-09-11T12:17:30Z</time>
      </trkpt>
      <trkpt lat="42.8305720" lon="-0.3174920">
        <ele>2142.0</ele>
        <time>2020-09-11T12:17:32Z</time>
      </trkpt>
      <trkpt lat="42.8305760" lon="-0.3174920">
        <ele>2142.0</ele>
        <time>2020-09-11T12:17:33Z</time>
      </trkpt>
      <trkpt lat="42.8306920" lon="-0.3173770">
        <ele>2142.4</ele>
        <time>2020-09-11T12:17:45Z</time>
      </trkpt>
      <trkpt lat="42.8307000" lon="-0.3173630">
        <ele>2142.6</ele>
        <time>2020-09-11T12:17:47Z</time>
      </trkpt>
      <trkpt lat="42.8307280" lon="-0.3173460">
        <ele>2143.0</ele>
        <time>2020-09-11T12:17:50Z</time>
      </trkpt>
      <trkpt lat="42.8307470" lon="-0.3173300">
        <ele>2143.6</ele>
        <time>2020-09-11T12:17:53Z</time>
      </trkpt>
      <trkpt lat="42.8307960" lon="-0.3172970">
        <ele>2144.0</ele>
        <time>2020-09-11T12:17:58Z</time>
      </trkpt>
      <trkpt lat="42.8309240" lon="-0.3170990">
        <ele>2141.8</ele>
        <time>2020-09-11T12:18:10Z</time>
      </trkpt>
      <trkpt lat="42.8310040" lon="-0.3169760">
        <ele>2141.6</ele>
        <time>2020-09-11T12:18:21Z</time>
      </trkpt>
      <trkpt lat="42.8311050" lon="-0.3167750">
        <ele>2141.6</ele>
        <time>2020-09-11T12:18:36Z</time>
      </trkpt>
      <trkpt lat="42.8311240" lon="-0.3167180">
        <ele>2141.8</ele>
        <time>2020-09-11T12:18:44Z</time>
      </trkpt>
      <trkpt lat="42.8311350" lon="-0.3166140">
        <ele>2142.0</ele>
        <time>2020-09-11T12:18:52Z</time>
      </trkpt>
      <trkpt lat="42.8311750" lon="-0.3164490">
        <ele>2143.0</ele>
        <time>2020-09-11T12:19:08Z</time>
      </trkpt>
      <trkpt lat="42.8311730" lon="-0.3164450">
        <ele>2143.0</ele>
        <time>2020-09-11T12:19:09Z</time>
      </trkpt>
      <trkpt lat="42.8311780" lon="-0.3164340">
        <ele>2143.2</ele>
        <time>2020-09-11T12:19:11Z</time>
      </trkpt>
      <trkpt lat="42.8311990" lon="-0.3164060">
        <ele>2144.0</ele>
        <time>2020-09-11T12:19:14Z</time>
      </trkpt>
      <trkpt lat="42.8312220" lon="-0.3163780">
        <ele>2144.4</ele>
        <time>2020-09-11T12:19:17Z</time>
      </trkpt>
      <trkpt lat="42.8312810" lon="-0.3163110">
        <ele>2144.0</ele>
        <time>2020-09-11T12:19:25Z</time>
      </trkpt>
      <trkpt lat="42.8313130" lon="-0.3162190">
        <ele>2143.0</ele>
        <time>2020-09-11T12:19:30Z</time>
      </trkpt>
      <trkpt lat="42.8312920" lon="-0.3162240">
        <ele>2142.6</ele>
        <time>2020-09-11T12:19:32Z</time>
      </trkpt>
      <trkpt lat="42.8312440" lon="-0.3162560">
        <ele>2142.4</ele>
        <time>2020-09-11T12:19:37Z</time>
      </trkpt>
      <trkpt lat="42.8312790" lon="-0.3161940">
        <ele>2142.4</ele>
        <time>2020-09-11T12:19:41Z</time>
      </trkpt>
      <trkpt lat="42.8312900" lon="-0.3161720">
        <ele>2142.2</ele>
        <time>2020-09-11T12:19:43Z</time>
      </trkpt>
      <trkpt lat="42.8313360" lon="-0.3159450">
        <ele>2141.8</ele>
        <time>2020-09-11T12:19:53Z</time>
      </trkpt>
      <trkpt lat="42.8313720" lon="-0.3158890">
        <ele>2141.2</ele>
        <time>2020-09-11T12:19:56Z</time>
      </trkpt>
      <trkpt lat="42.8315490" lon="-0.3158060">
        <ele>2141.8</ele>
        <time>2020-09-11T12:20:13Z</time>
      </trkpt>
      <trkpt lat="42.8315940" lon="-0.3157730">
        <ele>2141.6</ele>
        <time>2020-09-11T12:20:18Z</time>
      </trkpt>
      <trkpt lat="42.8316430" lon="-0.3157500">
        <ele>2141.0</ele>
        <time>2020-09-11T12:20:22Z</time>
      </trkpt>
      <trkpt lat="42.8317990" lon="-0.3156260">
        <ele>2141.2</ele>
        <time>2020-09-11T12:20:36Z</time>
      </trkpt>
      <trkpt lat="42.8318250" lon="-0.3155990">
        <ele>2141.2</ele>
        <time>2020-09-11T12:20:38Z</time>
      </trkpt>
      <trkpt lat="42.8318820" lon="-0.3154880">
        <ele>2141.4</ele>
        <time>2020-09-11T12:20:45Z</time>
      </trkpt>
      <trkpt lat="42.8318740" lon="-0.3154670">
        <ele>2141.4</ele>
        <time>2020-09-11T12:20:48Z</time>
      </trkpt>
      <trkpt lat="42.8318870" lon="-0.3154520">
        <ele>2141.6</ele>
        <time>2020-09-11T12:20:50Z</time>
      </trkpt>
      <trkpt lat="42.8318950" lon="-0.3154410">
        <ele>2141.6</ele>
        <time>2020-09-11T12:20:52Z</time>
      </trkpt>
      <trkpt lat="42.8319110" lon="-0.3154270">
        <ele>2141.2</ele>
        <time>2020-09-11T12:20:56Z</time>
      </trkpt>
      <trkpt lat="42.8319060" lon="-0.3154190">
        <ele>2140.8</ele>
        <time>2020-09-11T12:20:59Z</time>
      </trkpt>
      <trkpt lat="42.8319430" lon="-0.3154310">
        <ele>2141.0</ele>
        <time>2020-09-11T12:21:10Z</time>
      </trkpt>
      <trkpt lat="42.8319630" lon="-0.3154820">
        <ele>2141.4</ele>
        <time>2020-09-11T12:21:15Z</time>
      </trkpt>
      <trkpt lat="42.8319630" lon="-0.3155040">
        <ele>2141.6</ele>
        <time>2020-09-11T12:21:17Z</time>
      </trkpt>
      <trkpt lat="42.8319640" lon="-0.3155150">
        <ele>2141.8</ele>
        <time>2020-09-11T12:21:18Z</time>
      </trkpt>
      <trkpt lat="42.8319750" lon="-0.3155270">
        <ele>2142.0</ele>
        <time>2020-09-11T12:21:20Z</time>
      </trkpt>
      <trkpt lat="42.8319830" lon="-0.3155310">
        <ele>2142.4</ele>
        <time>2020-09-11T12:21:22Z</time>
      </trkpt>
      <trkpt lat="42.8319970" lon="-0.3155730">
        <ele>2143.0</ele>
        <time>2020-09-11T12:21:26Z</time>
      </trkpt>
      <trkpt lat="42.8320100" lon="-0.3155880">
        <ele>2143.2</ele>
        <time>2020-09-11T12:21:28Z</time>
      </trkpt>
      <trkpt lat="42.8320400" lon="-0.3155850">
        <ele>2143.8</ele>
        <time>2020-09-11T12:21:31Z</time>
      </trkpt>
      <trkpt lat="42.8320520" lon="-0.3155840">
        <ele>2144.0</ele>
        <time>2020-09-11T12:21:32Z</time>
      </trkpt>
      <trkpt lat="42.8320630" lon="-0.3155800">
        <ele>2144.2</ele>
        <time>2020-09-11T12:21:33Z</time>
      </trkpt>
      <trkpt lat="42.8320990" lon="-0.3155730">
        <ele>2145.0</ele>
        <time>2020-09-11T12:21:37Z</time>
      </trkpt>
      <trkpt lat="42.8321230" lon="-0.3155620">
        <ele>2145.0</ele>
        <time>2020-09-11T12:21:39Z</time>
      </trkpt>
      <trkpt lat="42.8321360" lon="-0.3155580">
        <ele>2145.0</ele>
        <time>2020-09-11T12:21:40Z</time>
      </trkpt>
      <trkpt lat="42.8321860" lon="-0.3155300">
        <ele>2145.8</ele>
        <time>2020-09-11T12:21:45Z</time>
      </trkpt>
      <trkpt lat="42.8322220" lon="-0.3155190">
        <ele>2146.2</ele>
        <time>2020-09-11T12:21:48Z</time>
      </trkpt>
      <trkpt lat="42.8322300" lon="-0.3155110">
        <ele>2146.2</ele>
        <time>2020-09-11T12:21:49Z</time>
      </trkpt>
      <trkpt lat="42.8322940" lon="-0.3154710">
        <ele>2147.4</ele>
        <time>2020-09-11T12:21:56Z</time>
      </trkpt>
      <trkpt lat="42.8323250" lon="-0.3154740">
        <ele>2148.4</ele>
        <time>2020-09-11T12:22:01Z</time>
      </trkpt>
      <trkpt lat="42.8323870" lon="-0.3154450">
        <ele>2149.6</ele>
        <time>2020-09-11T12:22:08Z</time>
      </trkpt>
      <trkpt lat="42.8324030" lon="-0.3154240">
        <ele>2149.8</ele>
        <time>2020-09-11T12:22:11Z</time>
      </trkpt>
      <trkpt lat="42.8324040" lon="-0.3154210">
        <ele>2150.0</ele>
        <time>2020-09-11T12:22:14Z</time>
      </trkpt>
      <trkpt lat="42.8324100" lon="-0.3154050">
        <ele>2150.4</ele>
        <time>2020-09-11T12:22:16Z</time>
      </trkpt>
      <trkpt lat="42.8324060" lon="-0.3153960">
        <ele>2150.6</ele>
        <time>2020-09-11T12:22:18Z</time>
      </trkpt>
      <trkpt lat="42.8324270" lon="-0.3153530">
        <ele>2151.6</ele>
        <time>2020-09-11T12:22:24Z</time>
      </trkpt>
      <trkpt lat="42.8324330" lon="-0.3153500">
        <ele>2152.2</ele>
        <time>2020-09-11T12:22:43Z</time>
      </trkpt>
      <trkpt lat="42.8324590" lon="-0.3153150">
        <ele>2152.4</ele>
        <time>2020-09-11T12:22:46Z</time>
      </trkpt>
      <trkpt lat="42.8324820" lon="-0.3152840">
        <ele>2152.6</ele>
        <time>2020-09-11T12:22:49Z</time>
      </trkpt>
      <trkpt lat="42.8324990" lon="-0.3152630">
        <ele>2152.8</ele>
        <time>2020-09-11T12:22:52Z</time>
      </trkpt>
      <trkpt lat="42.8325320" lon="-0.3152340">
        <ele>2153.6</ele>
        <time>2020-09-11T12:22:56Z</time>
      </trkpt>
      <trkpt lat="42.8325350" lon="-0.3152320">
        <ele>2153.6</ele>
        <time>2020-09-11T12:22:57Z</time>
      </trkpt>
      <trkpt lat="42.8326730" lon="-0.3151470">
        <ele>2154.6</ele>
        <time>2020-09-11T12:23:11Z</time>
      </trkpt>
      <trkpt lat="42.8327320" lon="-0.3151230">
        <ele>2155.6</ele>
        <time>2020-09-11T12:23:17Z</time>
      </trkpt>
      <trkpt lat="42.8328100" lon="-0.3150810">
        <ele>2156.6</ele>
        <time>2020-09-11T12:23:24Z</time>
      </trkpt>
      <trkpt lat="42.8329960" lon="-0.3150830">
        <ele>2156.0</ele>
        <time>2020-09-11T12:23:40Z</time>
      </trkpt>
      <trkpt lat="42.8330820" lon="-0.3150900">
        <ele>2155.6</ele>
        <time>2020-09-11T12:23:47Z</time>
      </trkpt>
      <trkpt lat="42.8332340" lon="-0.3151310">
        <ele>2154.6</ele>
        <time>2020-09-11T12:24:00Z</time>
      </trkpt>
      <trkpt lat="42.8333110" lon="-0.3150960">
        <ele>2155.0</ele>
        <time>2020-09-11T12:24:06Z</time>
      </trkpt>
      <trkpt lat="42.8333340" lon="-0.3150890">
        <ele>2155.2</ele>
        <time>2020-09-11T12:24:08Z</time>
      </trkpt>
      <trkpt lat="42.8333600" lon="-0.3150380">
        <ele>2155.6</ele>
        <time>2020-09-11T12:24:14Z</time>
      </trkpt>
      <trkpt lat="42.8333680" lon="-0.3150240">
        <ele>2155.6</ele>
        <time>2020-09-11T12:24:15Z</time>
      </trkpt>
      <trkpt lat="42.8333810" lon="-0.3150150">
        <ele>2155.6</ele>
        <time>2020-09-11T12:24:17Z</time>
      </trkpt>
      <trkpt lat="42.8334200" lon="-0.3149810">
        <ele>2155.6</ele>
        <time>2020-09-11T12:24:19Z</time>
      </trkpt>
      <trkpt lat="42.8334460" lon="-0.3149700">
        <ele>2155.6</ele>
        <time>2020-09-11T12:24:21Z</time>
      </trkpt>
      <trkpt lat="42.8334960" lon="-0.3149780">
        <ele>2155.6</ele>
        <time>2020-09-11T12:24:26Z</time>
      </trkpt>
      <trkpt lat="42.8335130" lon="-0.3149610">
        <ele>2156.0</ele>
        <time>2020-09-11T12:24:29Z</time>
      </trkpt>
      <trkpt lat="42.8336580" lon="-0.3148260">
        <ele>2155.8</ele>
        <time>2020-09-11T12:24:43Z</time>
      </trkpt>
      <trkpt lat="42.8336920" lon="-0.3147530">
        <ele>2155.6</ele>
        <time>2020-09-11T12:24:50Z</time>
      </trkpt>
      <trkpt lat="42.8337000" lon="-0.3147330">
        <ele>2155.4</ele>
        <time>2020-09-11T12:24:52Z</time>
      </trkpt>
      <trkpt lat="42.8337040" lon="-0.3147220">
        <ele>2155.6</ele>
        <time>2020-09-11T12:24:54Z</time>
      </trkpt>
      <trkpt lat="42.8337090" lon="-0.3146600">
        <ele>2156.8</ele>
        <time>2020-09-11T12:25:03Z</time>
      </trkpt>
      <trkpt lat="42.8337150" lon="-0.3146400">
        <ele>2157.8</ele>
        <time>2020-09-11T12:25:08Z</time>
      </trkpt>
      <trkpt lat="42.8337420" lon="-0.3145930">
        <ele>2158.8</ele>
        <time>2020-09-11T12:25:15Z</time>
      </trkpt>
      <trkpt lat="42.8337780" lon="-0.3145670">
        <ele>2159.8</ele>
        <time>2020-09-11T12:25:21Z</time>
      </trkpt>
      <trkpt lat="42.8338380" lon="-0.3145090">
        <ele>2161.0</ele>
        <time>2020-09-11T12:25:28Z</time>
      </trkpt>
      <trkpt lat="42.8338680" lon="-0.3145010">
        <ele>2161.4</ele>
        <time>2020-09-11T12:25:32Z</time>
      </trkpt>
      <trkpt lat="42.8338730" lon="-0.3145050">
        <ele>2161.6</ele>
        <time>2020-09-11T12:25:34Z</time>
      </trkpt>
      <trkpt lat="42.8338930" lon="-0.3144920">
        <ele>2162.2</ele>
        <time>2020-09-11T12:25:37Z</time>
      </trkpt>
      <trkpt lat="42.8339070" lon="-0.3144830">
        <ele>2162.6</ele>
        <time>2020-09-11T12:25:39Z</time>
      </trkpt>
      <trkpt lat="42.8339370" lon="-0.3144700">
        <ele>2163.2</ele>
        <time>2020-09-11T12:25:42Z</time>
      </trkpt>
      <trkpt lat="42.8339620" lon="-0.3144690">
        <ele>2163.8</ele>
        <time>2020-09-11T12:25:45Z</time>
      </trkpt>
      <trkpt lat="42.8339830" lon="-0.3144620">
        <ele>2164.4</ele>
        <time>2020-09-11T12:25:47Z</time>
      </trkpt>
      <trkpt lat="42.8339940" lon="-0.3144560">
        <ele>2164.6</ele>
        <time>2020-09-11T12:25:48Z</time>
      </trkpt>
      <trkpt lat="42.8340150" lon="-0.3144510">
        <ele>2165.6</ele>
        <time>2020-09-11T12:25:51Z</time>
      </trkpt>
      <trkpt lat="42.8340210" lon="-0.3144480">
        <ele>2165.8</ele>
        <time>2020-09-11T12:25:52Z</time>
      </trkpt>
      <trkpt lat="42.8340700" lon="-0.3144140">
        <ele>2166.6</ele>
        <time>2020-09-11T12:25:58Z</time>
      </trkpt>
      <trkpt lat="42.8340780" lon="-0.3144080">
        <ele>2166.6</ele>
        <time>2020-09-11T12:26:00Z</time>
      </trkpt>
      <trkpt lat="42.8342290" lon="-0.3143500">
        <ele>2167.2</ele>
        <time>2020-09-11T12:26:42Z</time>
      </trkpt>
      <trkpt lat="42.8343000" lon="-0.3143550">
        <ele>2167.8</ele>
        <time>2020-09-11T12:26:51Z</time>
      </trkpt>
      <trkpt lat="42.8343590" lon="-0.3143020">
        <ele>2168.8</ele>
        <time>2020-09-11T12:27:00Z</time>
      </trkpt>
      <trkpt lat="42.8343870" lon="-0.3142780">
        <ele>2169.4</ele>
        <time>2020-09-11T12:27:04Z</time>
      </trkpt>
      <trkpt lat="42.8344010" lon="-0.3142790">
        <ele>2170.0</ele>
        <time>2020-09-11T12:27:06Z</time>
      </trkpt>
      <trkpt lat="42.8344060" lon="-0.3142940">
        <ele>2170.4</ele>
        <time>2020-09-11T12:27:08Z</time>
      </trkpt>
      <trkpt lat="42.8344080" lon="-0.3143020">
        <ele>2171.4</ele>
        <time>2020-09-11T12:27:11Z</time>
      </trkpt>
      <trkpt lat="42.8343890" lon="-0.3143380">
        <ele>2172.4</ele>
        <time>2020-09-11T12:27:17Z</time>
      </trkpt>
      <trkpt lat="42.8343630" lon="-0.3144240">
        <ele>2173.4</ele>
        <time>2020-09-11T12:27:29Z</time>
      </trkpt>
      <trkpt lat="42.8342360" lon="-0.3145700">
        <ele>2174.6</ele>
        <time>2020-09-11T12:27:51Z</time>
      </trkpt>
      <trkpt lat="42.8341740" lon="-0.3146420">
        <ele>2175.6</ele>
        <time>2020-09-11T12:27:59Z</time>
      </trkpt>
      <trkpt lat="42.8341310" lon="-0.3147280">
        <ele>2176.4</ele>
        <time>2020-09-11T12:28:07Z</time>
      </trkpt>
      <trkpt lat="42.8341190" lon="-0.3147630">
        <ele>2176.6</ele>
        <time>2020-09-11T12:28:10Z</time>
      </trkpt>
      <trkpt lat="42.8341150" lon="-0.3147740">
        <ele>2176.6</ele>
        <time>2020-09-11T12:28:11Z</time>
      </trkpt>
      <trkpt lat="42.8341020" lon="-0.3148140">
        <ele>2176.8</ele>
        <time>2020-09-11T12:28:14Z</time>
      </trkpt>
      <trkpt lat="42.8340560" lon="-0.3148560">
        <ele>2177.4</ele>
        <time>2020-09-11T12:28:19Z</time>
      </trkpt>
      <trkpt lat="42.8340470" lon="-0.3149000">
        <ele>2177.8</ele>
        <time>2020-09-11T12:28:22Z</time>
      </trkpt>
      <trkpt lat="42.8339930" lon="-0.3149840">
        <ele>2178.8</ele>
        <time>2020-09-11T12:28:30Z</time>
      </trkpt>
      <trkpt lat="42.8339530" lon="-0.3149970">
        <ele>2179.2</ele>
        <time>2020-09-11T12:28:34Z</time>
      </trkpt>
      <trkpt lat="42.8339400" lon="-0.3149960">
        <ele>2179.2</ele>
        <time>2020-09-11T12:28:36Z</time>
      </trkpt>
      <trkpt lat="42.8339250" lon="-0.3150090">
        <ele>2179.2</ele>
        <time>2020-09-11T12:28:38Z</time>
      </trkpt>
      <trkpt lat="42.8339150" lon="-0.3150650">
        <ele>2179.8</ele>
        <time>2020-09-11T12:28:42Z</time>
      </trkpt>
      <trkpt lat="42.8339110" lon="-0.3150880">
        <ele>2180.0</ele>
        <time>2020-09-11T12:28:44Z</time>
      </trkpt>
      <trkpt lat="42.8339060" lon="-0.3151440">
        <ele>2180.4</ele>
        <time>2020-09-11T12:28:49Z</time>
      </trkpt>
      <trkpt lat="42.8338940" lon="-0.3151830">
        <ele>2180.8</ele>
        <time>2020-09-11T12:28:53Z</time>
      </trkpt>
      <trkpt lat="42.8338880" lon="-0.3151900">
        <ele>2181.0</ele>
        <time>2020-09-11T12:28:54Z</time>
      </trkpt>
      <trkpt lat="42.8338800" lon="-0.3151940">
        <ele>2181.2</ele>
        <time>2020-09-11T12:28:55Z</time>
      </trkpt>
      <trkpt lat="42.8338740" lon="-0.3151900">
        <ele>2182.0</ele>
        <time>2020-09-11T12:28:58Z</time>
      </trkpt>
      <trkpt lat="42.8338750" lon="-0.3151840">
        <ele>2182.4</ele>
        <time>2020-09-11T12:29:00Z</time>
      </trkpt>
      <trkpt lat="42.8338650" lon="-0.3151640">
        <ele>2182.8</ele>
        <time>2020-09-11T12:29:07Z</time>
      </trkpt>
      <trkpt lat="42.8338890" lon="-0.3151980">
        <ele>2182.8</ele>
        <time>2020-09-11T12:29:30Z</time>
      </trkpt>
      <trkpt lat="42.8338900" lon="-0.3152170">
        <ele>2183.0</ele>
        <time>2020-09-11T12:29:32Z</time>
      </trkpt>
      <trkpt lat="42.8338630" lon="-0.3153030">
        <ele>2184.0</ele>
        <time>2020-09-11T12:29:41Z</time>
      </trkpt>
      <trkpt lat="42.8338380" lon="-0.3153560">
        <ele>2185.2</ele>
        <time>2020-09-11T12:29:50Z</time>
      </trkpt>
      <trkpt lat="42.8338730" lon="-0.3153980">
        <ele>2185.4</ele>
        <time>2020-09-11T12:29:57Z</time>
      </trkpt>
      <trkpt lat="42.8338980" lon="-0.3153930">
        <ele>2185.8</ele>
        <time>2020-09-11T12:30:00Z</time>
      </trkpt>
      <trkpt lat="42.8339050" lon="-0.3153890">
        <ele>2186.2</ele>
        <time>2020-09-11T12:30:02Z</time>
      </trkpt>
      <trkpt lat="42.8339280" lon="-0.3153810">
        <ele>2187.4</ele>
        <time>2020-09-11T12:30:09Z</time>
      </trkpt>
      <trkpt lat="42.8339660" lon="-0.3153320">
        <ele>2188.4</ele>
        <time>2020-09-11T12:30:17Z</time>
      </trkpt>
      <trkpt lat="42.8339670" lon="-0.3153320">
        <ele>2189.4</ele>
        <time>2020-09-11T12:30:22Z</time>
      </trkpt>
      <trkpt lat="42.8340400" lon="-0.3153800">
        <ele>2190.4</ele>
        <time>2020-09-11T12:30:35Z</time>
      </trkpt>
      <trkpt lat="42.8340960" lon="-0.3153840">
        <ele>2191.4</ele>
        <time>2020-09-11T12:30:41Z</time>
      </trkpt>
      <trkpt lat="42.8341760" lon="-0.3154160">
        <ele>2192.8</ele>
        <time>2020-09-11T12:30:53Z</time>
      </trkpt>
      <trkpt lat="42.8342160" lon="-0.3154370">
        <ele>2193.8</ele>
        <time>2020-09-11T12:30:59Z</time>
      </trkpt>
      <trkpt lat="42.8342640" lon="-0.3154430">
        <ele>2195.0</ele>
        <time>2020-09-11T12:31:04Z</time>
      </trkpt>
      <trkpt lat="42.8342970" lon="-0.3154540">
        <ele>2196.0</ele>
        <time>2020-09-11T12:31:08Z</time>
      </trkpt>
      <trkpt lat="42.8343030" lon="-0.3154530">
        <ele>2196.2</ele>
        <time>2020-09-11T12:31:09Z</time>
      </trkpt>
      <trkpt lat="42.8343120" lon="-0.3154450">
        <ele>2196.4</ele>
        <time>2020-09-11T12:31:10Z</time>
      </trkpt>
      <trkpt lat="42.8343250" lon="-0.3154370">
        <ele>2196.8</ele>
        <time>2020-09-11T12:31:12Z</time>
      </trkpt>
      <trkpt lat="42.8343420" lon="-0.3154230">
        <ele>2197.0</ele>
        <time>2020-09-11T12:31:14Z</time>
      </trkpt>
      <trkpt lat="42.8343470" lon="-0.3154160">
        <ele>2197.4</ele>
        <time>2020-09-11T12:31:16Z</time>
      </trkpt>
      <trkpt lat="42.8343610" lon="-0.3153960">
        <ele>2198.6</ele>
        <time>2020-09-11T12:31:20Z</time>
      </trkpt>
      <trkpt lat="42.8343700" lon="-0.3154390">
        <ele>2199.6</ele>
        <time>2020-09-11T12:31:30Z</time>
      </trkpt>
      <trkpt lat="42.8344130" lon="-0.3153790">
        <ele>2200.8</ele>
        <time>2020-09-11T12:31:37Z</time>
      </trkpt>
      <trkpt lat="42.8344420" lon="-0.3152820">
        <ele>2202.0</ele>
        <time>2020-09-11T12:31:47Z</time>
      </trkpt>
      <trkpt lat="42.8344610" lon="-0.3153340">
        <ele>2203.0</ele>
        <time>2020-09-11T12:31:57Z</time>
      </trkpt>
      <trkpt lat="42.8344190" lon="-0.3154290">
        <ele>2204.4</ele>
        <time>2020-09-11T12:32:06Z</time>
      </trkpt>
      <trkpt lat="42.8344210" lon="-0.3154520">
        <ele>2204.8</ele>
        <time>2020-09-11T12:32:08Z</time>
      </trkpt>
      <trkpt lat="42.8344170" lon="-0.3154990">
        <ele>2205.4</ele>
        <time>2020-09-11T12:32:13Z</time>
      </trkpt>
      <trkpt lat="42.8344210" lon="-0.3155640">
        <ele>2206.4</ele>
        <time>2020-09-11T12:32:20Z</time>
      </trkpt>
      <trkpt lat="42.8344540" lon="-0.3156420">
        <ele>2207.6</ele>
        <time>2020-09-11T12:32:41Z</time>
      </trkpt>
      <trkpt lat="42.8344270" lon="-0.3158870">
        <ele>2207.0</ele>
        <time>2020-09-11T12:33:05Z</time>
      </trkpt>
      <trkpt lat="42.8344280" lon="-0.3161070">
        <ele>2207.8</ele>
        <time>2020-09-11T12:33:20Z</time>
      </trkpt>
      <trkpt lat="42.8344420" lon="-0.3161290">
        <ele>2208.0</ele>
        <time>2020-09-11T12:33:22Z</time>
      </trkpt>
      <trkpt lat="42.8344830" lon="-0.3161380">
        <ele>2208.4</ele>
        <time>2020-09-11T12:33:26Z</time>
      </trkpt>
      <trkpt lat="42.8344890" lon="-0.3161460">
        <ele>2208.6</ele>
        <time>2020-09-11T12:33:27Z</time>
      </trkpt>
      <trkpt lat="42.8344990" lon="-0.3161650">
        <ele>2209.0</ele>
        <time>2020-09-11T12:33:29Z</time>
      </trkpt>
      <trkpt lat="42.8345080" lon="-0.3162300">
        <ele>2209.4</ele>
        <time>2020-09-11T12:33:33Z</time>
      </trkpt>
      <trkpt lat="42.8345030" lon="-0.3162630">
        <ele>2209.8</ele>
        <time>2020-09-11T12:33:35Z</time>
      </trkpt>
      <trkpt lat="42.8344930" lon="-0.3163300">
        <ele>2210.0</ele>
        <time>2020-09-11T12:33:39Z</time>
      </trkpt>
      <trkpt lat="42.8344970" lon="-0.3163560">
        <ele>2210.0</ele>
        <time>2020-09-11T12:33:41Z</time>
      </trkpt>
      <trkpt lat="42.8344270" lon="-0.3165780">
        <ele>2209.8</ele>
        <time>2020-09-11T12:33:59Z</time>
      </trkpt>
      <trkpt lat="42.8344320" lon="-0.3165920">
        <ele>2209.8</ele>
        <time>2020-09-11T12:34:00Z</time>
      </trkpt>
      <trkpt lat="42.8344400" lon="-0.3166280">
        <ele>2209.8</ele>
        <time>2020-09-11T12:34:02Z</time>
      </trkpt>
      <trkpt lat="42.8344490" lon="-0.3167120">
        <ele>2208.8</ele>
        <time>2020-09-11T12:34:07Z</time>
      </trkpt>
      <trkpt lat="42.8344460" lon="-0.3168700">
        <ele>2208.6</ele>
        <time>2020-09-11T12:34:17Z</time>
      </trkpt>
      <trkpt lat="42.8344100" lon="-0.3170010">
        <ele>2207.8</ele>
        <time>2020-09-11T12:34:24Z</time>
      </trkpt>
      <trkpt lat="42.8343950" lon="-0.3172420">
        <ele>2208.0</ele>
        <time>2020-09-11T12:34:41Z</time>
      </trkpt>
      <trkpt lat="42.8343990" lon="-0.3174040">
        <ele>2207.2</ele>
        <time>2020-09-11T12:34:52Z</time>
      </trkpt>
      <trkpt lat="42.8344020" lon="-0.3174450">
        <ele>2207.6</ele>
        <time>2020-09-11T12:34:55Z</time>
      </trkpt>
      <trkpt lat="42.8344150" lon="-0.3174740">
        <ele>2208.0</ele>
        <time>2020-09-11T12:34:58Z</time>
      </trkpt>
      <trkpt lat="42.8344370" lon="-0.3175000">
        <ele>2208.2</ele>
        <time>2020-09-11T12:35:01Z</time>
      </trkpt>
      <trkpt lat="42.8344780" lon="-0.3175090">
        <ele>2208.2</ele>
        <time>2020-09-11T12:35:06Z</time>
      </trkpt>
      <trkpt lat="42.8345520" lon="-0.3174740">
        <ele>2208.2</ele>
        <time>2020-09-11T12:35:13Z</time>
      </trkpt>
      <trkpt lat="42.8347110" lon="-0.3174290">
        <ele>2207.0</ele>
        <time>2020-09-11T12:35:29Z</time>
      </trkpt>
      <trkpt lat="42.8347490" lon="-0.3174250">
        <ele>2206.8</ele>
        <time>2020-09-11T12:35:36Z</time>
      </trkpt>
      <trkpt lat="42.8347990" lon="-0.3174180">
        <ele>2206.4</ele>
        <time>2020-09-11T12:35:41Z</time>
      </trkpt>
      <trkpt lat="42.8348530" lon="-0.3174040">
        <ele>2206.4</ele>
        <time>2020-09-11T12:35:47Z</time>
      </trkpt>
      <trkpt lat="42.8348710" lon="-0.3173910">
        <ele>2206.4</ele>
        <time>2020-09-11T12:35:49Z</time>
      </trkpt>
      <trkpt lat="42.8350360" lon="-0.3172690">
        <ele>2206.2</ele>
        <time>2020-09-11T12:36:04Z</time>
      </trkpt>
      <trkpt lat="42.8350870" lon="-0.3172370">
        <ele>2206.0</ele>
        <time>2020-09-11T12:36:10Z</time>
      </trkpt>
      <trkpt lat="42.8351210" lon="-0.3171920">
        <ele>2206.0</ele>
        <time>2020-09-11T12:36:15Z</time>
      </trkpt>
      <trkpt lat="42.8351710" lon="-0.3171550">
        <ele>2206.2</ele>
        <time>2020-09-11T12:36:21Z</time>
      </trkpt>
      <trkpt lat="42.8351920" lon="-0.3171400">
        <ele>2206.4</ele>
        <time>2020-09-11T12:36:23Z</time>
      </trkpt>
      <trkpt lat="42.8353040" lon="-0.3170050">
        <ele>2206.6</ele>
        <time>2020-09-11T12:36:36Z</time>
      </trkpt>
      <trkpt lat="42.8353680" lon="-0.3169430">
        <ele>2206.8</ele>
        <time>2020-09-11T12:36:42Z</time>
      </trkpt>
      <trkpt lat="42.8354470" lon="-0.3168710">
        <ele>2207.0</ele>
        <time>2020-09-11T12:36:53Z</time>
      </trkpt>
      <trkpt lat="42.8354640" lon="-0.3168570">
        <ele>2207.2</ele>
        <time>2020-09-11T12:36:57Z</time>
      </trkpt>
      <trkpt lat="42.8354760" lon="-0.3168450">
        <ele>2207.2</ele>
        <time>2020-09-11T12:36:59Z</time>
      </trkpt>
      <trkpt lat="42.8355570" lon="-0.3167920">
        <ele>2206.6</ele>
        <time>2020-09-11T12:37:09Z</time>
      </trkpt>
      <trkpt lat="42.8356230" lon="-0.3167500">
        <ele>2206.4</ele>
        <time>2020-09-11T12:37:13Z</time>
      </trkpt>
      <trkpt lat="42.8356760" lon="-0.3167040">
        <ele>2206.2</ele>
        <time>2020-09-11T12:37:17Z</time>
      </trkpt>
      <trkpt lat="42.8357220" lon="-0.3166300">
        <ele>2205.8</ele>
        <time>2020-09-11T12:37:23Z</time>
      </trkpt>
      <trkpt lat="42.8357270" lon="-0.3166240">
        <ele>2205.6</ele>
        <time>2020-09-11T12:37:24Z</time>
      </trkpt>
      <trkpt lat="42.8357320" lon="-0.3166170">
        <ele>2205.6</ele>
        <time>2020-09-11T12:37:25Z</time>
      </trkpt>
      <trkpt lat="42.8357490" lon="-0.3165740">
        <ele>2205.4</ele>
        <time>2020-09-11T12:37:30Z</time>
      </trkpt>
      <trkpt lat="42.8357770" lon="-0.3165240">
        <ele>2205.6</ele>
        <time>2020-09-11T12:37:34Z</time>
      </trkpt>
      <trkpt lat="42.8357840" lon="-0.3165050">
        <ele>2205.6</ele>
        <time>2020-09-11T12:37:36Z</time>
      </trkpt>
      <trkpt lat="42.8358060" lon="-0.3164730">
        <ele>2205.8</ele>
        <time>2020-09-11T12:37:40Z</time>
      </trkpt>
      <trkpt lat="42.8358220" lon="-0.3163890">
        <ele>2205.2</ele>
        <time>2020-09-11T12:37:48Z</time>
      </trkpt>
      <trkpt lat="42.8358170" lon="-0.3163590">
        <ele>2205.0</ele>
        <time>2020-09-11T12:37:53Z</time>
      </trkpt>
      <trkpt lat="42.8358230" lon="-0.3163670">
        <ele>2205.2</ele>
        <time>2020-09-11T12:37:57Z</time>
      </trkpt>
      <trkpt lat="42.8358660" lon="-0.3162870">
        <ele>2204.8</ele>
        <time>2020-09-11T12:38:20Z</time>
      </trkpt>
      <trkpt lat="42.8359450" lon="-0.3162750">
        <ele>2204.8</ele>
        <time>2020-09-11T12:38:25Z</time>
      </trkpt>
      <trkpt lat="42.8360240" lon="-0.3161980">
        <ele>2205.4</ele>
        <time>2020-09-11T12:38:33Z</time>
      </trkpt>
      <trkpt lat="42.8360620" lon="-0.3161880">
        <ele>2205.4</ele>
        <time>2020-09-11T12:38:35Z</time>
      </trkpt>
      <trkpt lat="42.8360980" lon="-0.3161670">
        <ele>2205.4</ele>
        <time>2020-09-11T12:38:38Z</time>
      </trkpt>
      <trkpt lat="42.8361360" lon="-0.3161340">
        <ele>2205.6</ele>
        <time>2020-09-11T12:38:41Z</time>
      </trkpt>
      <trkpt lat="42.8361540" lon="-0.3161190">
        <ele>2205.8</ele>
        <time>2020-09-11T12:38:43Z</time>
      </trkpt>
      <trkpt lat="42.8361850" lon="-0.3161000">
        <ele>2205.8</ele>
        <time>2020-09-11T12:38:45Z</time>
      </trkpt>
      <trkpt lat="42.8362350" lon="-0.3159690">
        <ele>2205.6</ele>
        <time>2020-09-11T12:38:53Z</time>
      </trkpt>
      <trkpt lat="42.8363000" lon="-0.3159310">
        <ele>2205.6</ele>
        <time>2020-09-11T12:38:59Z</time>
      </trkpt>
      <trkpt lat="42.8363450" lon="-0.3158880">
        <ele>2205.8</ele>
        <time>2020-09-11T12:39:03Z</time>
      </trkpt>
      <trkpt lat="42.8363570" lon="-0.3158750">
        <ele>2206.0</ele>
        <time>2020-09-11T12:39:05Z</time>
      </trkpt>
      <trkpt lat="42.8363900" lon="-0.3158550">
        <ele>2206.0</ele>
        <time>2020-09-11T12:39:08Z</time>
      </trkpt>
      <trkpt lat="42.8364420" lon="-0.3158180">
        <ele>2205.4</ele>
        <time>2020-09-11T12:39:13Z</time>
      </trkpt>
      <trkpt lat="42.8365320" lon="-0.3157140">
        <ele>2205.0</ele>
        <time>2020-09-11T12:39:21Z</time>
      </trkpt>
      <trkpt lat="42.8366110" lon="-0.3156090">
        <ele>2204.6</ele>
        <time>2020-09-11T12:39:29Z</time>
      </trkpt>
      <trkpt lat="42.8366500" lon="-0.3155390">
        <ele>2204.4</ele>
        <time>2020-09-11T12:39:34Z</time>
      </trkpt>
      <trkpt lat="42.8366740" lon="-0.3154950">
        <ele>2204.0</ele>
        <time>2020-09-11T12:39:38Z</time>
      </trkpt>
      <trkpt lat="42.8366840" lon="-0.3154810">
        <ele>2204.0</ele>
        <time>2020-09-11T12:39:40Z</time>
      </trkpt>
      <trkpt lat="42.8367030" lon="-0.3154440">
        <ele>2204.0</ele>
        <time>2020-09-11T12:39:43Z</time>
      </trkpt>
      <trkpt lat="42.8367700" lon="-0.3153140">
        <ele>2203.8</ele>
        <time>2020-09-11T12:39:55Z</time>
      </trkpt>
      <trkpt lat="42.8367850" lon="-0.3152790">
        <ele>2204.6</ele>
        <time>2020-09-11T12:39:59Z</time>
      </trkpt>
      <trkpt lat="42.8367880" lon="-0.3152700">
        <ele>2205.0</ele>
        <time>2020-09-11T12:40:01Z</time>
      </trkpt>
      <trkpt lat="42.8368170" lon="-0.3152460">
        <ele>2205.4</ele>
        <time>2020-09-11T12:40:06Z</time>
      </trkpt>
      <trkpt lat="42.8368320" lon="-0.3152280">
        <ele>2205.8</ele>
        <time>2020-09-11T12:40:08Z</time>
      </trkpt>
      <trkpt lat="42.8368430" lon="-0.3152180">
        <ele>2206.0</ele>
        <time>2020-09-11T12:40:09Z</time>
      </trkpt>
      <trkpt lat="42.8368630" lon="-0.3151980">
        <ele>2206.2</ele>
        <time>2020-09-11T12:40:11Z</time>
      </trkpt>
      <trkpt lat="42.8368900" lon="-0.3151760">
        <ele>2206.4</ele>
        <time>2020-09-11T12:40:13Z</time>
      </trkpt>
      <trkpt lat="42.8369120" lon="-0.3151480">
        <ele>2206.4</ele>
        <time>2020-09-11T12:40:15Z</time>
      </trkpt>
      <trkpt lat="42.8369420" lon="-0.3151040">
        <ele>2207.0</ele>
        <time>2020-09-11T12:40:19Z</time>
      </trkpt>
      <trkpt lat="42.8369680" lon="-0.3150630">
        <ele>2207.6</ele>
        <time>2020-09-11T12:40:25Z</time>
      </trkpt>
      <trkpt lat="42.8369760" lon="-0.3150520">
        <ele>2207.8</ele>
        <time>2020-09-11T12:40:27Z</time>
      </trkpt>
      <trkpt lat="42.8369870" lon="-0.3150370">
        <ele>2208.0</ele>
        <time>2020-09-11T12:40:29Z</time>
      </trkpt>
      <trkpt lat="42.8369950" lon="-0.3150270">
        <ele>2208.0</ele>
        <time>2020-09-11T12:40:30Z</time>
      </trkpt>
      <trkpt lat="42.8370040" lon="-0.3150190">
        <ele>2208.2</ele>
        <time>2020-09-11T12:40:31Z</time>
      </trkpt>
      <trkpt lat="42.8371530" lon="-0.3148800">
        <ele>2208.8</ele>
        <time>2020-09-11T12:40:46Z</time>
      </trkpt>
      <trkpt lat="42.8372810" lon="-0.3148310">
        <ele>2208.6</ele>
        <time>2020-09-11T12:40:58Z</time>
      </trkpt>
      <trkpt lat="42.8373120" lon="-0.3148570">
        <ele>2208.8</ele>
        <time>2020-09-11T12:41:02Z</time>
      </trkpt>
      <trkpt lat="42.8373860" lon="-0.3149030">
        <ele>2208.4</ele>
        <time>2020-09-11T12:41:10Z</time>
      </trkpt>
      <trkpt lat="42.8374230" lon="-0.3149290">
        <ele>2208.6</ele>
        <time>2020-09-11T12:41:14Z</time>
      </trkpt>
      <trkpt lat="42.8375060" lon="-0.3150540">
        <ele>2208.6</ele>
        <time>2020-09-11T12:41:29Z</time>
      </trkpt>
      <trkpt lat="42.8376140" lon="-0.3152320">
        <ele>2207.8</ele>
        <time>2020-09-11T12:41:44Z</time>
      </trkpt>
      <trkpt lat="42.8376360" lon="-0.3152590">
        <ele>2207.8</ele>
        <time>2020-09-11T12:41:47Z</time>
      </trkpt>
      <trkpt lat="42.8376720" lon="-0.3152970">
        <ele>2207.8</ele>
        <time>2020-09-11T12:41:52Z</time>
      </trkpt>
      <trkpt lat="42.8377770" lon="-0.3154900">
        <ele>2208.0</ele>
        <time>2020-09-11T12:42:12Z</time>
      </trkpt>
      <trkpt lat="42.8377820" lon="-0.3156130">
        <ele>2209.2</ele>
        <time>2020-09-11T12:42:18Z</time>
      </trkpt>
      <trkpt lat="42.8377910" lon="-0.3156930">
        <ele>2209.4</ele>
        <time>2020-09-11T12:42:24Z</time>
      </trkpt>
      <trkpt lat="42.8377850" lon="-0.3157510">
        <ele>2210.4</ele>
        <time>2020-09-11T12:42:28Z</time>
      </trkpt>
      <trkpt lat="42.8377820" lon="-0.3158630">
        <ele>2211.4</ele>
        <time>2020-09-11T12:42:35Z</time>
      </trkpt>
      <trkpt lat="42.8377860" lon="-0.3159340">
        <ele>2211.6</ele>
        <time>2020-09-11T12:42:41Z</time>
      </trkpt>
      <trkpt lat="42.8377460" lon="-0.3161120">
        <ele>2212.2</ele>
        <time>2020-09-11T12:42:56Z</time>
      </trkpt>
      <trkpt lat="42.8377660" lon="-0.3161630">
        <ele>2212.4</ele>
        <time>2020-09-11T12:43:01Z</time>
      </trkpt>
      <trkpt lat="42.8377650" lon="-0.3161710">
        <ele>2212.4</ele>
        <time>2020-09-11T12:43:02Z</time>
      </trkpt>
      <trkpt lat="42.8377960" lon="-0.3161960">
        <ele>2212.2</ele>
        <time>2020-09-11T12:43:06Z</time>
      </trkpt>
      <trkpt lat="42.8378170" lon="-0.3162190">
        <ele>2211.8</ele>
        <time>2020-09-11T12:43:09Z</time>
      </trkpt>
      <trkpt lat="42.8378670" lon="-0.3162580">
        <ele>2211.4</ele>
        <time>2020-09-11T12:43:17Z</time>
      </trkpt>
      <trkpt lat="42.8379460" lon="-0.3164070">
        <ele>2212.4</ele>
        <time>2020-09-11T12:43:37Z</time>
      </trkpt>
      <trkpt lat="42.8379630" lon="-0.3164880">
        <ele>2213.6</ele>
        <time>2020-09-11T12:43:50Z</time>
      </trkpt>
      <trkpt lat="42.8379920" lon="-0.3166110">
        <ele>2214.8</ele>
        <time>2020-09-11T12:44:08Z</time>
      </trkpt>
      <trkpt lat="42.8380240" lon="-0.3166440">
        <ele>2215.8</ele>
        <time>2020-09-11T12:44:22Z</time>
      </trkpt>
      <trkpt lat="42.8380540" lon="-0.3166900">
        <ele>2217.0</ele>
        <time>2020-09-11T12:44:37Z</time>
      </trkpt>
      <trkpt lat="42.8380600" lon="-0.3167550">
        <ele>2218.0</ele>
        <time>2020-09-11T12:44:47Z</time>
      </trkpt>
      <trkpt lat="42.8381000" lon="-0.3168230">
        <ele>2219.0</ele>
        <time>2020-09-11T12:44:57Z</time>
      </trkpt>
      <trkpt lat="42.8381820" lon="-0.3169950">
        <ele>2219.0</ele>
        <time>2020-09-11T12:45:29Z</time>
      </trkpt>
      <trkpt lat="42.8383220" lon="-0.3171440">
        <ele>2218.2</ele>
        <time>2020-09-11T12:46:04Z</time>
      </trkpt>
      <trkpt lat="42.8384280" lon="-0.3173050">
        <ele>2219.8</ele>
        <time>2020-09-11T12:46:37Z</time>
      </trkpt>
      <trkpt lat="42.8384430" lon="-0.3173220">
        <ele>2220.0</ele>
        <time>2020-09-11T12:46:41Z</time>
      </trkpt>
      <trkpt lat="42.8385290" lon="-0.3174180">
        <ele>2221.0</ele>
        <time>2020-09-11T12:47:04Z</time>
      </trkpt>
      <trkpt lat="42.8385650" lon="-0.3174370">
        <ele>2222.2</ele>
        <time>2020-09-11T12:47:10Z</time>
      </trkpt>
      <trkpt lat="42.8387320" lon="-0.3174650">
        <ele>2221.2</ele>
        <time>2020-09-11T12:47:33Z</time>
      </trkpt>
      <trkpt lat="42.8388960" lon="-0.3175300">
        <ele>2221.4</ele>
        <time>2020-09-11T12:48:05Z</time>
      </trkpt>
      <trkpt lat="42.8390480" lon="-0.3175850">
        <ele>2222.2</ele>
        <time>2020-09-11T12:48:30Z</time>
      </trkpt>
      <trkpt lat="42.8390670" lon="-0.3176110">
        <ele>2222.4</ele>
        <time>2020-09-11T12:48:33Z</time>
      </trkpt>
      <trkpt lat="42.8391400" lon="-0.3176760">
        <ele>2222.8</ele>
        <time>2020-09-11T12:48:44Z</time>
      </trkpt>
      <trkpt lat="42.8391290" lon="-0.3176860">
        <ele>2223.2</ele>
        <time>2020-09-11T12:48:46Z</time>
      </trkpt>
      <trkpt lat="42.8391300" lon="-0.3176890">
        <ele>2223.2</ele>
        <time>2020-09-11T12:48:47Z</time>
      </trkpt>
      <trkpt lat="42.8392210" lon="-0.3177200">
        <ele>2224.4</ele>
        <time>2020-09-11T12:48:59Z</time>
      </trkpt>
      <trkpt lat="42.8393130" lon="-0.3177030">
        <ele>2225.4</ele>
        <time>2020-09-11T12:49:31Z</time>
      </trkpt>
      <trkpt lat="42.8393640" lon="-0.3177020">
        <ele>2226.2</ele>
        <time>2020-09-11T12:49:36Z</time>
      </trkpt>
      <trkpt lat="42.8393750" lon="-0.3176980">
        <ele>2226.4</ele>
        <time>2020-09-11T12:49:38Z</time>
      </trkpt>
      <trkpt lat="42.8394490" lon="-0.3176710">
        <ele>2227.4</ele>
        <time>2020-09-11T12:49:51Z</time>
      </trkpt>
      <trkpt lat="42.8394630" lon="-0.3176750">
        <ele>2228.6</ele>
        <time>2020-09-11T12:49:56Z</time>
      </trkpt>
      <trkpt lat="42.8394740" lon="-0.3176700">
        <ele>2229.8</ele>
        <time>2020-09-11T12:50:01Z</time>
      </trkpt>
      <trkpt lat="42.8395020" lon="-0.3176730">
        <ele>2230.8</ele>
        <time>2020-09-11T12:50:08Z</time>
      </trkpt>
      <trkpt lat="42.8394760" lon="-0.3177200">
        <ele>2232.0</ele>
        <time>2020-09-11T12:50:26Z</time>
      </trkpt>
      <trkpt lat="42.8395120" lon="-0.3177710">
        <ele>2233.2</ele>
        <time>2020-09-11T12:50:35Z</time>
      </trkpt>
      <trkpt lat="42.8395180" lon="-0.3177740">
        <ele>2233.6</ele>
        <time>2020-09-11T12:50:36Z</time>
      </trkpt>
      <trkpt lat="42.8395380" lon="-0.3177920">
        <ele>2234.4</ele>
        <time>2020-09-11T12:50:39Z</time>
      </trkpt>
      <trkpt lat="42.8395620" lon="-0.3177830">
        <ele>2235.4</ele>
        <time>2020-09-11T12:50:43Z</time>
      </trkpt>
      <trkpt lat="42.8395630" lon="-0.3177880">
        <ele>2235.6</ele>
        <time>2020-09-11T12:50:44Z</time>
      </trkpt>
      <trkpt lat="42.8395700" lon="-0.3178110">
        <ele>2236.6</ele>
        <time>2020-09-11T12:50:48Z</time>
      </trkpt>
      <trkpt lat="42.8395700" lon="-0.3178400">
        <ele>2237.8</ele>
        <time>2020-09-11T12:50:54Z</time>
      </trkpt>
      <trkpt lat="42.8395750" lon="-0.3178740">
        <ele>2239.0</ele>
        <time>2020-09-11T12:51:00Z</time>
      </trkpt>
      <trkpt lat="42.8396000" lon="-0.3178870">
        <ele>2240.0</ele>
        <time>2020-09-11T12:51:05Z</time>
      </trkpt>
      <trkpt lat="42.8396080" lon="-0.3179120">
        <ele>2241.2</ele>
        <time>2020-09-11T12:51:10Z</time>
      </trkpt>
      <trkpt lat="42.8396560" lon="-0.3179230">
        <ele>2242.2</ele>
        <time>2020-09-11T12:51:16Z</time>
      </trkpt>
      <trkpt lat="42.8396680" lon="-0.3179270">
        <ele>2243.2</ele>
        <time>2020-09-11T12:51:20Z</time>
      </trkpt>
      <trkpt lat="42.8396630" lon="-0.3179700">
        <ele>2244.4</ele>
        <time>2020-09-11T12:51:26Z</time>
      </trkpt>
      <trkpt lat="42.8396740" lon="-0.3179840">
        <ele>2245.4</ele>
        <time>2020-09-11T12:51:32Z</time>
      </trkpt>
      <trkpt lat="42.8396750" lon="-0.3180060">
        <ele>2246.4</ele>
        <time>2020-09-11T12:51:39Z</time>
      </trkpt>
      <trkpt lat="42.8396480" lon="-0.3180410">
        <ele>2247.4</ele>
        <time>2020-09-11T12:51:47Z</time>
      </trkpt>
      <trkpt lat="42.8396420" lon="-0.3180730">
        <ele>2248.6</ele>
        <time>2020-09-11T12:51:54Z</time>
      </trkpt>
      <trkpt lat="42.8396430" lon="-0.3180970">
        <ele>2249.8</ele>
        <time>2020-09-11T12:51:58Z</time>
      </trkpt>
      <trkpt lat="42.8396930" lon="-0.3181150">
        <ele>2250.8</ele>
        <time>2020-09-11T12:52:05Z</time>
      </trkpt>
      <trkpt lat="42.8396950" lon="-0.3181170">
        <ele>2251.0</ele>
        <time>2020-09-11T12:52:06Z</time>
      </trkpt>
      <trkpt lat="42.8397000" lon="-0.3181390">
        <ele>2252.0</ele>
        <time>2020-09-11T12:52:10Z</time>
      </trkpt>
      <trkpt lat="42.8397340" lon="-0.3181600">
        <ele>2253.2</ele>
        <time>2020-09-11T12:52:17Z</time>
      </trkpt>
      <trkpt lat="42.8397680" lon="-0.3181540">
        <ele>2254.2</ele>
        <time>2020-09-11T12:52:22Z</time>
      </trkpt>
      <trkpt lat="42.8397900" lon="-0.3181640">
        <ele>2255.2</ele>
        <time>2020-09-11T12:52:30Z</time>
      </trkpt>
      <trkpt lat="42.8397990" lon="-0.3181630">
        <ele>2256.4</ele>
        <time>2020-09-11T12:52:34Z</time>
      </trkpt>
      <trkpt lat="42.8398220" lon="-0.3181680">
        <ele>2257.4</ele>
        <time>2020-09-11T12:52:42Z</time>
      </trkpt>
      <trkpt lat="42.8398290" lon="-0.3181810">
        <ele>2258.6</ele>
        <time>2020-09-11T12:52:47Z</time>
      </trkpt>
      <trkpt lat="42.8398360" lon="-0.3181910">
        <ele>2259.8</ele>
        <time>2020-09-11T12:52:53Z</time>
      </trkpt>
      <trkpt lat="42.8398560" lon="-0.3181770">
        <ele>2260.8</ele>
        <time>2020-09-11T12:52:59Z</time>
      </trkpt>
      <trkpt lat="42.8398500" lon="-0.3181890">
        <ele>2261.8</ele>
        <time>2020-09-11T12:53:04Z</time>
      </trkpt>
      <trkpt lat="42.8398380" lon="-0.3182010">
        <ele>2263.2</ele>
        <time>2020-09-11T12:53:09Z</time>
      </trkpt>
      <trkpt lat="42.8398370" lon="-0.3182180">
        <ele>2264.2</ele>
        <time>2020-09-11T12:53:13Z</time>
      </trkpt>
      <trkpt lat="42.8398720" lon="-0.3182440">
        <ele>2265.2</ele>
        <time>2020-09-11T12:53:20Z</time>
      </trkpt>
      <trkpt lat="42.8398920" lon="-0.3182640">
        <ele>2266.2</ele>
        <time>2020-09-11T12:53:27Z</time>
      </trkpt>
      <trkpt lat="42.8398950" lon="-0.3182600">
        <ele>2267.4</ele>
        <time>2020-09-11T12:53:31Z</time>
      </trkpt>
      <trkpt lat="42.8398810" lon="-0.3182670">
        <ele>2268.6</ele>
        <time>2020-09-11T12:53:35Z</time>
      </trkpt>
      <trkpt lat="42.8399160" lon="-0.3182680">
        <ele>2269.6</ele>
        <time>2020-09-11T12:53:42Z</time>
      </trkpt>
      <trkpt lat="42.8399100" lon="-0.3182780">
        <ele>2270.8</ele>
        <time>2020-09-11T12:53:46Z</time>
      </trkpt>
      <trkpt lat="42.8399000" lon="-0.3183120">
        <ele>2272.0</ele>
        <time>2020-09-11T12:53:52Z</time>
      </trkpt>
      <trkpt lat="42.8398930" lon="-0.3183350">
        <ele>2273.2</ele>
        <time>2020-09-11T12:53:56Z</time>
      </trkpt>
      <trkpt lat="42.8398980" lon="-0.3183940">
        <ele>2274.2</ele>
        <time>2020-09-11T12:54:02Z</time>
      </trkpt>
      <trkpt lat="42.8399250" lon="-0.3183990">
        <ele>2275.4</ele>
        <time>2020-09-11T12:54:06Z</time>
      </trkpt>
      <trkpt lat="42.8399750" lon="-0.3184130">
        <ele>2276.6</ele>
        <time>2020-09-11T12:54:12Z</time>
      </trkpt>
      <trkpt lat="42.8399730" lon="-0.3184290">
        <ele>2278.0</ele>
        <time>2020-09-11T12:54:16Z</time>
      </trkpt>
      <trkpt lat="42.8399700" lon="-0.3184260">
        <ele>2279.0</ele>
        <time>2020-09-11T12:54:24Z</time>
      </trkpt>
      <trkpt lat="42.8399960" lon="-0.3184230">
        <ele>2280.2</ele>
        <time>2020-09-11T12:54:28Z</time>
      </trkpt>
      <trkpt lat="42.8400080" lon="-0.3183720">
        <ele>2281.4</ele>
        <time>2020-09-11T12:54:32Z</time>
      </trkpt>
      <trkpt lat="42.8399800" lon="-0.3184340">
        <ele>2282.4</ele>
        <time>2020-09-11T12:54:42Z</time>
      </trkpt>
      <trkpt lat="42.8399720" lon="-0.3184610">
        <ele>2283.4</ele>
        <time>2020-09-11T12:54:48Z</time>
      </trkpt>
      <trkpt lat="42.8399580" lon="-0.3184880">
        <ele>2284.6</ele>
        <time>2020-09-11T12:54:53Z</time>
      </trkpt>
      <trkpt lat="42.8399720" lon="-0.3185140">
        <ele>2285.6</ele>
        <time>2020-09-11T12:55:00Z</time>
      </trkpt>
      <trkpt lat="42.8399960" lon="-0.3185080">
        <ele>2286.8</ele>
        <time>2020-09-11T12:55:05Z</time>
      </trkpt>
      <trkpt lat="42.8399980" lon="-0.3184840">
        <ele>2288.2</ele>
        <time>2020-09-11T12:55:08Z</time>
      </trkpt>
      <trkpt lat="42.8399960" lon="-0.3185050">
        <ele>2289.4</ele>
        <time>2020-09-11T12:55:13Z</time>
      </trkpt>
      <trkpt lat="42.8400020" lon="-0.3185270">
        <ele>2290.4</ele>
        <time>2020-09-11T12:55:17Z</time>
      </trkpt>
      <trkpt lat="42.8400210" lon="-0.3185440">
        <ele>2291.4</ele>
        <time>2020-09-11T12:55:23Z</time>
      </trkpt>
      <trkpt lat="42.8400600" lon="-0.3185520">
        <ele>2292.4</ele>
        <time>2020-09-11T12:55:30Z</time>
      </trkpt>
      <trkpt lat="42.8400980" lon="-0.3185490">
        <ele>2293.6</ele>
        <time>2020-09-11T12:55:35Z</time>
      </trkpt>
      <trkpt lat="42.8401260" lon="-0.3185590">
        <ele>2294.8</ele>
        <time>2020-09-11T12:55:40Z</time>
      </trkpt>
      <trkpt lat="42.8401440" lon="-0.3185630">
        <ele>2296.0</ele>
        <time>2020-09-11T12:55:47Z</time>
      </trkpt>
      <trkpt lat="42.8401420" lon="-0.3185900">
        <ele>2297.2</ele>
        <time>2020-09-11T12:55:53Z</time>
      </trkpt>
      <trkpt lat="42.8401380" lon="-0.3185900">
        <ele>2298.4</ele>
        <time>2020-09-11T12:55:56Z</time>
      </trkpt>
      <trkpt lat="42.8400650" lon="-0.3186420">
        <ele>2299.4</ele>
        <time>2020-09-11T12:56:15Z</time>
      </trkpt>
      <trkpt lat="42.8400600" lon="-0.3186770">
        <ele>2300.6</ele>
        <time>2020-09-11T12:56:20Z</time>
      </trkpt>
      <trkpt lat="42.8400450" lon="-0.3187070">
        <ele>2301.6</ele>
        <time>2020-09-11T12:56:25Z</time>
      </trkpt>
      <trkpt lat="42.8400490" lon="-0.3187160">
        <ele>2302.8</ele>
        <time>2020-09-11T12:56:29Z</time>
      </trkpt>
      <trkpt lat="42.8399940" lon="-0.3188030">
        <ele>2303.8</ele>
        <time>2020-09-11T12:56:57Z</time>
      </trkpt>
      <trkpt lat="42.8399790" lon="-0.3188220">
        <ele>2305.0</ele>
        <time>2020-09-11T12:57:01Z</time>
      </trkpt>
      <trkpt lat="42.8399550" lon="-0.3188610">
        <ele>2306.2</ele>
        <time>2020-09-11T12:57:07Z</time>
      </trkpt>
      <trkpt lat="42.8399500" lon="-0.3188980">
        <ele>2306.8</ele>
        <time>2020-09-11T12:57:10Z</time>
      </trkpt>
      <trkpt lat="42.8399510" lon="-0.3189120">
        <ele>2307.0</ele>
        <time>2020-09-11T12:57:11Z</time>
      </trkpt>
      <trkpt lat="42.8399490" lon="-0.3189200">
        <ele>2307.2</ele>
        <time>2020-09-11T12:57:12Z</time>
      </trkpt>
      <trkpt lat="42.8399460" lon="-0.3189260">
        <ele>2307.4</ele>
        <time>2020-09-11T12:57:13Z</time>
      </trkpt>
      <trkpt lat="42.8399200" lon="-0.3189450">
        <ele>2308.4</ele>
        <time>2020-09-11T12:57:17Z</time>
      </trkpt>
      <trkpt lat="42.8398790" lon="-0.3189930">
        <ele>2309.4</ele>
        <time>2020-09-11T12:57:26Z</time>
      </trkpt>
      <trkpt lat="42.8398830" lon="-0.3190190">
        <ele>2310.6</ele>
        <time>2020-09-11T12:57:31Z</time>
      </trkpt>
      <trkpt lat="42.8398560" lon="-0.3190500">
        <ele>2311.6</ele>
        <time>2020-09-11T12:57:37Z</time>
      </trkpt>
      <trkpt lat="42.8398550" lon="-0.3190760">
        <ele>2312.6</ele>
        <time>2020-09-11T12:57:42Z</time>
      </trkpt>
      <trkpt lat="42.8398350" lon="-0.3190780">
        <ele>2313.8</ele>
        <time>2020-09-11T12:57:46Z</time>
      </trkpt>
      <trkpt lat="42.8398020" lon="-0.3190870">
        <ele>2314.8</ele>
        <time>2020-09-11T12:57:55Z</time>
      </trkpt>
      <trkpt lat="42.8397760" lon="-0.3191170">
        <ele>2315.2</ele>
        <time>2020-09-11T12:57:58Z</time>
      </trkpt>
      <trkpt lat="42.8397600" lon="-0.3191910">
        <ele>2315.8</ele>
        <time>2020-09-11T12:58:04Z</time>
      </trkpt>
      <trkpt lat="42.8397600" lon="-0.3192030">
        <ele>2316.0</ele>
        <time>2020-09-11T12:58:05Z</time>
      </trkpt>
      <trkpt lat="42.8397510" lon="-0.3192430">
        <ele>2316.8</ele>
        <time>2020-09-11T12:58:08Z</time>
      </trkpt>
      <trkpt lat="42.8397520" lon="-0.3192690">
        <ele>2317.2</ele>
        <time>2020-09-11T12:58:10Z</time>
      </trkpt>
      <trkpt lat="42.8397540" lon="-0.3192810">
        <ele>2317.2</ele>
        <time>2020-09-11T12:58:11Z</time>
      </trkpt>
      <trkpt lat="42.8397560" lon="-0.3193230">
        <ele>2318.4</ele>
        <time>2020-09-11T12:58:17Z</time>
      </trkpt>
      <trkpt lat="42.8397490" lon="-0.3193520">
        <ele>2319.6</ele>
        <time>2020-09-11T12:58:22Z</time>
      </trkpt>
      <trkpt lat="42.8397340" lon="-0.3193690">
        <ele>2320.8</ele>
        <time>2020-09-11T12:58:26Z</time>
      </trkpt>
      <trkpt lat="42.8397150" lon="-0.3193690">
        <ele>2322.0</ele>
        <time>2020-09-11T12:58:30Z</time>
      </trkpt>
      <trkpt lat="42.8396540" lon="-0.3193900">
        <ele>2323.0</ele>
        <time>2020-09-11T12:58:39Z</time>
      </trkpt>
      <trkpt lat="42.8396260" lon="-0.3193970">
        <ele>2324.4</ele>
        <time>2020-09-11T12:58:44Z</time>
      </trkpt>
      <trkpt lat="42.8396090" lon="-0.3194000">
        <ele>2325.4</ele>
        <time>2020-09-11T12:58:48Z</time>
      </trkpt>
      <trkpt lat="42.8396030" lon="-0.3194040">
        <ele>2324.4</ele>
        <time>2020-09-11T12:58:57Z</time>
      </trkpt>
      <trkpt lat="42.8396210" lon="-0.3194090">
        <ele>2325.6</ele>
        <time>2020-09-11T12:59:09Z</time>
      </trkpt>
      <trkpt lat="42.8396260" lon="-0.3195170">
        <ele>2326.8</ele>
        <time>2020-09-11T12:59:23Z</time>
      </trkpt>
      <trkpt lat="42.8396380" lon="-0.3195430">
        <ele>2327.8</ele>
        <time>2020-09-11T12:59:28Z</time>
      </trkpt>
      <trkpt lat="42.8396390" lon="-0.3195460">
        <ele>2329.0</ele>
        <time>2020-09-11T12:59:31Z</time>
      </trkpt>
      <trkpt lat="42.8396300" lon="-0.3195680">
        <ele>2330.0</ele>
        <time>2020-09-11T12:59:35Z</time>
      </trkpt>
      <trkpt lat="42.8396190" lon="-0.3195960">
        <ele>2331.0</ele>
        <time>2020-09-11T12:59:41Z</time>
      </trkpt>
      <trkpt lat="42.8396220" lon="-0.3196190">
        <ele>2332.4</ele>
        <time>2020-09-11T12:59:46Z</time>
      </trkpt>
      <trkpt lat="42.8396070" lon="-0.3196620">
        <ele>2333.6</ele>
        <time>2020-09-11T12:59:53Z</time>
      </trkpt>
      <trkpt lat="42.8395880" lon="-0.3196700">
        <ele>2334.6</ele>
        <time>2020-09-11T12:59:57Z</time>
      </trkpt>
      <trkpt lat="42.8395580" lon="-0.3196990">
        <ele>2335.6</ele>
        <time>2020-09-11T13:00:04Z</time>
      </trkpt>
      <trkpt lat="42.8395150" lon="-0.3197400">
        <ele>2336.6</ele>
        <time>2020-09-11T13:00:11Z</time>
      </trkpt>
      <trkpt lat="42.8394990" lon="-0.3197780">
        <ele>2337.8</ele>
        <time>2020-09-11T13:00:16Z</time>
      </trkpt>
      <trkpt lat="42.8394770" lon="-0.3198100">
        <ele>2338.8</ele>
        <time>2020-09-11T13:00:21Z</time>
      </trkpt>
      <trkpt lat="42.8394620" lon="-0.3198700">
        <ele>2340.0</ele>
        <time>2020-09-11T13:00:28Z</time>
      </trkpt>
      <trkpt lat="42.8394510" lon="-0.3199020">
        <ele>2341.2</ele>
        <time>2020-09-11T13:00:34Z</time>
      </trkpt>
      <trkpt lat="42.8394600" lon="-0.3199250">
        <ele>2342.4</ele>
        <time>2020-09-11T13:00:41Z</time>
      </trkpt>
      <trkpt lat="42.8394550" lon="-0.3199460">
        <ele>2343.4</ele>
        <time>2020-09-11T13:00:45Z</time>
      </trkpt>
      <trkpt lat="42.8394460" lon="-0.3199680">
        <ele>2344.6</ele>
        <time>2020-09-11T13:00:49Z</time>
      </trkpt>
      <trkpt lat="42.8394250" lon="-0.3199830">
        <ele>2345.6</ele>
        <time>2020-09-11T13:00:53Z</time>
      </trkpt>
      <trkpt lat="42.8394160" lon="-0.3200150">
        <ele>2347.0</ele>
        <time>2020-09-11T13:01:00Z</time>
      </trkpt>
      <trkpt lat="42.8394330" lon="-0.3200320">
        <ele>2348.2</ele>
        <time>2020-09-11T13:01:05Z</time>
      </trkpt>
      <trkpt lat="42.8394460" lon="-0.3200430">
        <ele>2349.2</ele>
        <time>2020-09-11T13:01:13Z</time>
      </trkpt>
      <trkpt lat="42.8394520" lon="-0.3200630">
        <ele>2350.4</ele>
        <time>2020-09-11T13:01:17Z</time>
      </trkpt>
      <trkpt lat="42.8394360" lon="-0.3201010">
        <ele>2351.4</ele>
        <time>2020-09-11T13:01:22Z</time>
      </trkpt>
      <trkpt lat="42.8394120" lon="-0.3201070">
        <ele>2352.6</ele>
        <time>2020-09-11T13:01:29Z</time>
      </trkpt>
      <trkpt lat="42.8394280" lon="-0.3201320">
        <ele>2353.6</ele>
        <time>2020-09-11T13:01:35Z</time>
      </trkpt>
      <trkpt lat="42.8394570" lon="-0.3201330">
        <ele>2354.8</ele>
        <time>2020-09-11T13:01:41Z</time>
      </trkpt>
      <trkpt lat="42.8394650" lon="-0.3200960">
        <ele>2356.0</ele>
        <time>2020-09-11T13:01:45Z</time>
      </trkpt>
      <trkpt lat="42.8394590" lon="-0.3201040">
        <ele>2357.0</ele>
        <time>2020-09-11T13:01:50Z</time>
      </trkpt>
      <trkpt lat="42.8394590" lon="-0.3201650">
        <ele>2358.2</ele>
        <time>2020-09-11T13:02:00Z</time>
      </trkpt>
      <trkpt lat="42.8394530" lon="-0.3201770">
        <ele>2359.2</ele>
        <time>2020-09-11T13:02:05Z</time>
      </trkpt>
      <trkpt lat="42.8394380" lon="-0.3201910">
        <ele>2360.4</ele>
        <time>2020-09-11T13:02:09Z</time>
      </trkpt>
      <trkpt lat="42.8394330" lon="-0.3202460">
        <ele>2361.4</ele>
        <time>2020-09-11T13:02:16Z</time>
      </trkpt>
      <trkpt lat="42.8394410" lon="-0.3202810">
        <ele>2362.4</ele>
        <time>2020-09-11T13:02:23Z</time>
      </trkpt>
      <trkpt lat="42.8394170" lon="-0.3203000">
        <ele>2363.6</ele>
        <time>2020-09-11T13:02:27Z</time>
      </trkpt>
      <trkpt lat="42.8394410" lon="-0.3203510">
        <ele>2364.8</ele>
        <time>2020-09-11T13:03:01Z</time>
      </trkpt>
      <trkpt lat="42.8394470" lon="-0.3203560">
        <ele>2365.0</ele>
        <time>2020-09-11T13:03:02Z</time>
      </trkpt>
      <trkpt lat="42.8394710" lon="-0.3203750">
        <ele>2365.8</ele>
        <time>2020-09-11T13:03:06Z</time>
      </trkpt>
      <trkpt lat="42.8395020" lon="-0.3203360">
        <ele>2367.0</ele>
        <time>2020-09-11T13:03:12Z</time>
      </trkpt>
      <trkpt lat="42.8395180" lon="-0.3203090">
        <ele>2368.0</ele>
        <time>2020-09-11T13:03:17Z</time>
      </trkpt>
      <trkpt lat="42.8394990" lon="-0.3203270">
        <ele>2369.0</ele>
        <time>2020-09-11T13:03:22Z</time>
      </trkpt>
      <trkpt lat="42.8394850" lon="-0.3203480">
        <ele>2370.2</ele>
        <time>2020-09-11T13:03:26Z</time>
      </trkpt>
      <trkpt lat="42.8394880" lon="-0.3203610">
        <ele>2371.4</ele>
        <time>2020-09-11T13:03:31Z</time>
      </trkpt>
      <trkpt lat="42.8395240" lon="-0.3203370">
        <ele>2372.6</ele>
        <time>2020-09-11T13:03:37Z</time>
      </trkpt>
      <trkpt lat="42.8395440" lon="-0.3203430">
        <ele>2373.6</ele>
        <time>2020-09-11T13:03:41Z</time>
      </trkpt>
      <trkpt lat="42.8395390" lon="-0.3204120">
        <ele>2374.8</ele>
        <time>2020-09-11T13:03:47Z</time>
      </trkpt>
      <trkpt lat="42.8395310" lon="-0.3205280">
        <ele>2376.0</ele>
        <time>2020-09-11T13:03:58Z</time>
      </trkpt>
      <trkpt lat="42.8395210" lon="-0.3205340">
        <ele>2377.0</ele>
        <time>2020-09-11T13:04:01Z</time>
      </trkpt>
      <trkpt lat="42.8395080" lon="-0.3205590">
        <ele>2378.2</ele>
        <time>2020-09-11T13:04:06Z</time>
      </trkpt>
      <trkpt lat="42.8395010" lon="-0.3205850">
        <ele>2379.2</ele>
        <time>2020-09-11T13:04:14Z</time>
      </trkpt>
      <trkpt lat="42.8394860" lon="-0.3206000">
        <ele>2380.4</ele>
        <time>2020-09-11T13:04:19Z</time>
      </trkpt>
      <trkpt lat="42.8394720" lon="-0.3206370">
        <ele>2381.6</ele>
        <time>2020-09-11T13:04:24Z</time>
      </trkpt>
      <trkpt lat="42.8394520" lon="-0.3206940">
        <ele>2382.8</ele>
        <time>2020-09-11T13:04:34Z</time>
      </trkpt>
      <trkpt lat="42.8394220" lon="-0.3206880">
        <ele>2383.8</ele>
        <time>2020-09-11T13:04:40Z</time>
      </trkpt>
      <trkpt lat="42.8394150" lon="-0.3207300">
        <ele>2385.0</ele>
        <time>2020-09-11T13:04:47Z</time>
      </trkpt>
      <trkpt lat="42.8394050" lon="-0.3207520">
        <ele>2386.0</ele>
        <time>2020-09-11T13:04:51Z</time>
      </trkpt>
      <trkpt lat="42.8393950" lon="-0.3207810">
        <ele>2387.0</ele>
        <time>2020-09-11T13:04:56Z</time>
      </trkpt>
      <trkpt lat="42.8394150" lon="-0.3208670">
        <ele>2388.0</ele>
        <time>2020-09-11T13:05:06Z</time>
      </trkpt>
      <trkpt lat="42.8394150" lon="-0.3209030">
        <ele>2389.0</ele>
        <time>2020-09-11T13:05:10Z</time>
      </trkpt>
      <trkpt lat="42.8394290" lon="-0.3209410">
        <ele>2390.2</ele>
        <time>2020-09-11T13:05:15Z</time>
      </trkpt>
      <trkpt lat="42.8394580" lon="-0.3209930">
        <ele>2391.2</ele>
        <time>2020-09-11T13:05:23Z</time>
      </trkpt>
      <trkpt lat="42.8394830" lon="-0.3210320">
        <ele>2392.2</ele>
        <time>2020-09-11T13:05:29Z</time>
      </trkpt>
      <trkpt lat="42.8395050" lon="-0.3210600">
        <ele>2393.2</ele>
        <time>2020-09-11T13:05:34Z</time>
      </trkpt>
      <trkpt lat="42.8395100" lon="-0.3210950">
        <ele>2394.6</ele>
        <time>2020-09-11T13:05:39Z</time>
      </trkpt>
      <trkpt lat="42.8395220" lon="-0.3211110">
        <ele>2395.6</ele>
        <time>2020-09-11T13:05:43Z</time>
      </trkpt>
      <trkpt lat="42.8395600" lon="-0.3211570">
        <ele>2396.8</ele>
        <time>2020-09-11T13:05:54Z</time>
      </trkpt>
      <trkpt lat="42.8395620" lon="-0.3211810">
        <ele>2398.0</ele>
        <time>2020-09-11T13:05:57Z</time>
      </trkpt>
      <trkpt lat="42.8395650" lon="-0.3211880">
        <ele>2398.2</ele>
        <time>2020-09-11T13:05:58Z</time>
      </trkpt>
      <trkpt lat="42.8395720" lon="-0.3212040">
        <ele>2399.0</ele>
        <time>2020-09-11T13:06:01Z</time>
      </trkpt>
      <trkpt lat="42.8396060" lon="-0.3212300">
        <ele>2400.2</ele>
        <time>2020-09-11T13:06:07Z</time>
      </trkpt>
      <trkpt lat="42.8395910" lon="-0.3212550">
        <ele>2401.2</ele>
        <time>2020-09-11T13:06:14Z</time>
      </trkpt>
      <trkpt lat="42.8395830" lon="-0.3213070">
        <ele>2402.2</ele>
        <time>2020-09-11T13:06:20Z</time>
      </trkpt>
      <trkpt lat="42.8396160" lon="-0.3213450">
        <ele>2403.2</ele>
        <time>2020-09-11T13:06:27Z</time>
      </trkpt>
      <trkpt lat="42.8396370" lon="-0.3213680">
        <ele>2404.2</ele>
        <time>2020-09-11T13:06:32Z</time>
      </trkpt>
      <trkpt lat="42.8396320" lon="-0.3213840">
        <ele>2405.4</ele>
        <time>2020-09-11T13:06:35Z</time>
      </trkpt>
      <trkpt lat="42.8396690" lon="-0.3214350">
        <ele>2406.4</ele>
        <time>2020-09-11T13:06:43Z</time>
      </trkpt>
      <trkpt lat="42.8396700" lon="-0.3214530">
        <ele>2407.4</ele>
        <time>2020-09-11T13:06:47Z</time>
      </trkpt>
      <trkpt lat="42.8397010" lon="-0.3215070">
        <ele>2408.6</ele>
        <time>2020-09-11T13:06:56Z</time>
      </trkpt>
      <trkpt lat="42.8397620" lon="-0.3215360">
        <ele>2409.6</ele>
        <time>2020-09-11T13:07:07Z</time>
      </trkpt>
      <trkpt lat="42.8397630" lon="-0.3215400">
        <ele>2410.8</ele>
        <time>2020-09-11T13:07:10Z</time>
      </trkpt>
      <trkpt lat="42.8397450" lon="-0.3215700">
        <ele>2410.4</ele>
        <time>2020-09-11T13:07:29Z</time>
      </trkpt>
      <trkpt lat="42.8397460" lon="-0.3215810">
        <ele>2409.8</ele>
        <time>2020-09-11T13:07:32Z</time>
      </trkpt>
      <trkpt lat="42.8397150" lon="-0.3215660">
        <ele>2410.8</ele>
        <time>2020-09-11T13:07:44Z</time>
      </trkpt>
      <trkpt lat="42.8397300" lon="-0.3215420">
        <ele>2411.4</ele>
        <time>2020-09-11T13:08:48Z</time>
      </trkpt>
      <trkpt lat="42.8398270" lon="-0.3216140">
        <ele>2411.4</ele>
        <time>2020-09-11T13:09:31Z</time>
      </trkpt>
      <trkpt lat="42.8398450" lon="-0.3216160">
        <ele>2408.8</ele>
        <time>2020-09-11T13:09:33Z</time>
      </trkpt>
      <trkpt lat="42.8398530" lon="-0.3216220">
        <ele>2407.4</ele>
        <time>2020-09-11T13:09:34Z</time>
      </trkpt>
      <trkpt lat="42.8398590" lon="-0.3216310">
        <ele>2406.2</ele>
        <time>2020-09-11T13:09:35Z</time>
      </trkpt>
      <trkpt lat="42.8398980" lon="-0.3216560">
        <ele>2405.0</ele>
        <time>2020-09-11T13:09:40Z</time>
      </trkpt>
      <trkpt lat="42.8399120" lon="-0.3216580">
        <ele>2404.6</ele>
        <time>2020-09-11T13:09:42Z</time>
      </trkpt>
      <trkpt lat="42.8399190" lon="-0.3216770">
        <ele>2404.0</ele>
        <time>2020-09-11T13:09:44Z</time>
      </trkpt>
      <trkpt lat="42.8399250" lon="-0.3216980">
        <ele>2403.6</ele>
        <time>2020-09-11T13:09:46Z</time>
      </trkpt>
      <trkpt lat="42.8399330" lon="-0.3217080">
        <ele>2403.0</ele>
        <time>2020-09-11T13:09:48Z</time>
      </trkpt>
      <trkpt lat="42.8399400" lon="-0.3217360">
        <ele>2402.0</ele>
        <time>2020-09-11T13:09:51Z</time>
      </trkpt>
      <trkpt lat="42.8399580" lon="-0.3217680">
        <ele>2401.0</ele>
        <time>2020-09-11T13:09:55Z</time>
      </trkpt>
      <trkpt lat="42.8399720" lon="-0.3217960">
        <ele>2399.6</ele>
        <time>2020-09-11T13:09:58Z</time>
      </trkpt>
      <trkpt lat="42.8399980" lon="-0.3218060">
        <ele>2398.8</ele>
        <time>2020-09-11T13:10:01Z</time>
      </trkpt>
      <trkpt lat="42.8400050" lon="-0.3218050">
        <ele>2398.4</ele>
        <time>2020-09-11T13:10:02Z</time>
      </trkpt>
      <trkpt lat="42.8400190" lon="-0.3218200">
        <ele>2397.8</ele>
        <time>2020-09-11T13:10:04Z</time>
      </trkpt>
      <trkpt lat="42.8400360" lon="-0.3218100">
        <ele>2397.0</ele>
        <time>2020-09-11T13:10:07Z</time>
      </trkpt>
      <trkpt lat="42.8400460" lon="-0.3217700">
        <ele>2396.2</ele>
        <time>2020-09-11T13:10:12Z</time>
      </trkpt>
      <trkpt lat="42.8400690" lon="-0.3217770">
        <ele>2396.2</ele>
        <time>2020-09-11T13:10:16Z</time>
      </trkpt>
      <trkpt lat="42.8400800" lon="-0.3217880">
        <ele>2396.2</ele>
        <time>2020-09-11T13:10:18Z</time>
      </trkpt>
      <trkpt lat="42.8400820" lon="-0.3217970">
        <ele>2396.0</ele>
        <time>2020-09-11T13:10:19Z</time>
      </trkpt>
      <trkpt lat="42.8400930" lon="-0.3218360">
        <ele>2395.4</ele>
        <time>2020-09-11T13:10:22Z</time>
      </trkpt>
      <trkpt lat="42.8400910" lon="-0.3218680">
        <ele>2394.8</ele>
        <time>2020-09-11T13:10:24Z</time>
      </trkpt>
      <trkpt lat="42.8400980" lon="-0.3218980">
        <ele>2394.2</ele>
        <time>2020-09-11T13:10:27Z</time>
      </trkpt>
      <trkpt lat="42.8401030" lon="-0.3219300">
        <ele>2393.6</ele>
        <time>2020-09-11T13:10:29Z</time>
      </trkpt>
      <trkpt lat="42.8401240" lon="-0.3219830">
        <ele>2392.4</ele>
        <time>2020-09-11T13:10:32Z</time>
      </trkpt>
      <trkpt lat="42.8401590" lon="-0.3220470">
        <ele>2391.8</ele>
        <time>2020-09-11T13:10:37Z</time>
      </trkpt>
      <trkpt lat="42.8401710" lon="-0.3220540">
        <ele>2391.8</ele>
        <time>2020-09-11T13:10:39Z</time>
      </trkpt>
      <trkpt lat="42.8401780" lon="-0.3220650">
        <ele>2391.6</ele>
        <time>2020-09-11T13:10:41Z</time>
      </trkpt>
      <trkpt lat="42.8401970" lon="-0.3221020">
        <ele>2391.2</ele>
        <time>2020-09-11T13:10:45Z</time>
      </trkpt>
      <trkpt lat="42.8402130" lon="-0.3221120">
        <ele>2391.2</ele>
        <time>2020-09-11T13:10:47Z</time>
      </trkpt>
      <trkpt lat="42.8402420" lon="-0.3221570">
        <ele>2391.4</ele>
        <time>2020-09-11T13:10:52Z</time>
      </trkpt>
      <trkpt lat="42.8402780" lon="-0.3221830">
        <ele>2391.2</ele>
        <time>2020-09-11T13:10:57Z</time>
      </trkpt>
      <trkpt lat="42.8403010" lon="-0.3221970">
        <ele>2390.8</ele>
        <time>2020-09-11T13:11:00Z</time>
      </trkpt>
      <trkpt lat="42.8403190" lon="-0.3222190">
        <ele>2390.8</ele>
        <time>2020-09-11T13:11:03Z</time>
      </trkpt>
      <trkpt lat="42.8403270" lon="-0.3222160">
        <ele>2390.6</ele>
        <time>2020-09-11T13:11:06Z</time>
      </trkpt>
      <trkpt lat="42.8403210" lon="-0.3222190">
        <ele>2390.0</ele>
        <time>2020-09-11T13:11:12Z</time>
      </trkpt>
      <trkpt lat="42.8403210" lon="-0.3222350">
        <ele>2388.8</ele>
        <time>2020-09-11T13:11:17Z</time>
      </trkpt>
      <trkpt lat="42.8403210" lon="-0.3222550">
        <ele>2388.0</ele>
        <time>2020-09-11T13:11:23Z</time>
      </trkpt>
      <trkpt lat="42.8403600" lon="-0.3222870">
        <ele>2387.8</ele>
        <time>2020-09-11T13:11:46Z</time>
      </trkpt>
      <trkpt lat="42.8404190" lon="-0.3222990">
        <ele>2386.8</ele>
        <time>2020-09-11T13:11:54Z</time>
      </trkpt>
      <trkpt lat="42.8404290" lon="-0.3223020">
        <ele>2386.6</ele>
        <time>2020-09-11T13:11:56Z</time>
      </trkpt>
      <trkpt lat="42.8404930" lon="-0.3222910">
        <ele>2385.6</ele>
        <time>2020-09-11T13:12:04Z</time>
      </trkpt>
      <trkpt lat="42.8405020" lon="-0.3222960">
        <ele>2385.4</ele>
        <time>2020-09-11T13:12:06Z</time>
      </trkpt>
      <trkpt lat="42.8405100" lon="-0.3223870">
        <ele>2386.2</ele>
        <time>2020-09-11T13:12:17Z</time>
      </trkpt>
      <trkpt lat="42.8405650" lon="-0.3224570">
        <ele>2386.6</ele>
        <time>2020-09-11T13:12:25Z</time>
      </trkpt>
      <trkpt lat="42.8405990" lon="-0.3224690">
        <ele>2386.6</ele>
        <time>2020-09-11T13:12:30Z</time>
      </trkpt>
      <trkpt lat="42.8406530" lon="-0.3225080">
        <ele>2385.4</ele>
        <time>2020-09-11T13:12:47Z</time>
      </trkpt>
      <trkpt lat="42.8406730" lon="-0.3224950">
        <ele>2384.2</ele>
        <time>2020-09-11T13:12:51Z</time>
      </trkpt>
      <trkpt lat="42.8406910" lon="-0.3225030">
        <ele>2382.8</ele>
        <time>2020-09-11T13:12:54Z</time>
      </trkpt>
      <trkpt lat="42.8407270" lon="-0.3225030">
        <ele>2381.8</ele>
        <time>2020-09-11T13:12:59Z</time>
      </trkpt>
      <trkpt lat="42.8407490" lon="-0.3225020">
        <ele>2380.8</ele>
        <time>2020-09-11T13:13:05Z</time>
      </trkpt>
      <trkpt lat="42.8407670" lon="-0.3225210">
        <ele>2379.6</ele>
        <time>2020-09-11T13:13:09Z</time>
      </trkpt>
      <trkpt lat="42.8407820" lon="-0.3224910">
        <ele>2378.4</ele>
        <time>2020-09-11T13:13:15Z</time>
      </trkpt>
      <trkpt lat="42.8408230" lon="-0.3225110">
        <ele>2377.4</ele>
        <time>2020-09-11T13:13:23Z</time>
      </trkpt>
      <trkpt lat="42.8408270" lon="-0.3225490">
        <ele>2376.2</ele>
        <time>2020-09-11T13:13:28Z</time>
      </trkpt>
      <trkpt lat="42.8408400" lon="-0.3225900">
        <ele>2375.2</ele>
        <time>2020-09-11T13:13:35Z</time>
      </trkpt>
      <trkpt lat="42.8408440" lon="-0.3226050">
        <ele>2374.0</ele>
        <time>2020-09-11T13:13:38Z</time>
      </trkpt>
      <trkpt lat="42.8408680" lon="-0.3226180">
        <ele>2372.8</ele>
        <time>2020-09-11T13:13:43Z</time>
      </trkpt>
      <trkpt lat="42.8408780" lon="-0.3226160">
        <ele>2371.8</ele>
        <time>2020-09-11T13:13:47Z</time>
      </trkpt>
      <trkpt lat="42.8408870" lon="-0.3226440">
        <ele>2370.8</ele>
        <time>2020-09-11T13:13:54Z</time>
      </trkpt>
      <trkpt lat="42.8408940" lon="-0.3226970">
        <ele>2369.4</ele>
        <time>2020-09-11T13:14:01Z</time>
      </trkpt>
      <trkpt lat="42.8409270" lon="-0.3227180">
        <ele>2368.2</ele>
        <time>2020-09-11T13:14:07Z</time>
      </trkpt>
      <trkpt lat="42.8409450" lon="-0.3227290">
        <ele>2367.0</ele>
        <time>2020-09-11T13:14:11Z</time>
      </trkpt>
      <trkpt lat="42.8409730" lon="-0.3227120">
        <ele>2366.0</ele>
        <time>2020-09-11T13:14:16Z</time>
      </trkpt>
      <trkpt lat="42.8410100" lon="-0.3227300">
        <ele>2364.8</ele>
        <time>2020-09-11T13:14:22Z</time>
      </trkpt>
      <trkpt lat="42.8410330" lon="-0.3227380">
        <ele>2363.6</ele>
        <time>2020-09-11T13:14:26Z</time>
      </trkpt>
      <trkpt lat="42.8410540" lon="-0.3227340">
        <ele>2362.4</ele>
        <time>2020-09-11T13:14:32Z</time>
      </trkpt>
      <trkpt lat="42.8410650" lon="-0.3227470">
        <ele>2361.2</ele>
        <time>2020-09-11T13:14:36Z</time>
      </trkpt>
      <trkpt lat="42.8410910" lon="-0.3227560">
        <ele>2360.0</ele>
        <time>2020-09-11T13:14:41Z</time>
      </trkpt>
      <trkpt lat="42.8410960" lon="-0.3227660">
        <ele>2358.8</ele>
        <time>2020-09-11T13:14:45Z</time>
      </trkpt>
      <trkpt lat="42.8411170" lon="-0.3227890">
        <ele>2357.8</ele>
        <time>2020-09-11T13:14:49Z</time>
      </trkpt>
      <trkpt lat="42.8411480" lon="-0.3228240">
        <ele>2356.6</ele>
        <time>2020-09-11T13:14:55Z</time>
      </trkpt>
      <trkpt lat="42.8411680" lon="-0.3228520">
        <ele>2355.6</ele>
        <time>2020-09-11T13:15:00Z</time>
      </trkpt>
      <trkpt lat="42.8412140" lon="-0.3228760">
        <ele>2354.4</ele>
        <time>2020-09-11T13:15:09Z</time>
      </trkpt>
      <trkpt lat="42.8412340" lon="-0.3228490">
        <ele>2353.0</ele>
        <time>2020-09-11T13:15:13Z</time>
      </trkpt>
      <trkpt lat="42.8412740" lon="-0.3228440">
        <ele>2351.8</ele>
        <time>2020-09-11T13:15:19Z</time>
      </trkpt>
      <trkpt lat="42.8413040" lon="-0.3228580">
        <ele>2350.8</ele>
        <time>2020-09-11T13:15:23Z</time>
      </trkpt>
      <trkpt lat="42.8413650" lon="-0.3228910">
        <ele>2349.8</ele>
        <time>2020-09-11T13:15:32Z</time>
      </trkpt>
      <trkpt lat="42.8414440" lon="-0.3229800">
        <ele>2348.6</ele>
        <time>2020-09-11T13:16:07Z</time>
      </trkpt>
      <trkpt lat="42.8414630" lon="-0.3228970">
        <ele>2347.4</ele>
        <time>2020-09-11T13:16:16Z</time>
      </trkpt>
      <trkpt lat="42.8414840" lon="-0.3228840">
        <ele>2346.4</ele>
        <time>2020-09-11T13:16:20Z</time>
      </trkpt>
      <trkpt lat="42.8415130" lon="-0.3229050">
        <ele>2345.2</ele>
        <time>2020-09-11T13:16:24Z</time>
      </trkpt>
      <trkpt lat="42.8415300" lon="-0.3229520">
        <ele>2344.2</ele>
        <time>2020-09-11T13:16:28Z</time>
      </trkpt>
      <trkpt lat="42.8415460" lon="-0.3229970">
        <ele>2343.8</ele>
        <time>2020-09-11T13:16:32Z</time>
      </trkpt>
      <trkpt lat="42.8415580" lon="-0.3229970">
        <ele>2343.0</ele>
        <time>2020-09-11T13:16:34Z</time>
      </trkpt>
      <trkpt lat="42.8415610" lon="-0.3229940">
        <ele>2342.8</ele>
        <time>2020-09-11T13:16:35Z</time>
      </trkpt>
      <trkpt lat="42.8416060" lon="-0.3230110">
        <ele>2342.0</ele>
        <time>2020-09-11T13:16:39Z</time>
      </trkpt>
      <trkpt lat="42.8416200" lon="-0.3230130">
        <ele>2342.0</ele>
        <time>2020-09-11T13:16:40Z</time>
      </trkpt>
      <trkpt lat="42.8416390" lon="-0.3230100">
        <ele>2341.8</ele>
        <time>2020-09-11T13:16:42Z</time>
      </trkpt>
      <trkpt lat="42.8416570" lon="-0.3230250">
        <ele>2341.6</ele>
        <time>2020-09-11T13:16:44Z</time>
      </trkpt>
      <trkpt lat="42.8416760" lon="-0.3230480">
        <ele>2341.4</ele>
        <time>2020-09-11T13:16:46Z</time>
      </trkpt>
      <trkpt lat="42.8416920" lon="-0.3230750">
        <ele>2341.0</ele>
        <time>2020-09-11T13:16:49Z</time>
      </trkpt>
      <trkpt lat="42.8417110" lon="-0.3230990">
        <ele>2340.4</ele>
        <time>2020-09-11T13:16:52Z</time>
      </trkpt>
      <trkpt lat="42.8417280" lon="-0.3231150">
        <ele>2340.0</ele>
        <time>2020-09-11T13:16:54Z</time>
      </trkpt>
      <trkpt lat="42.8417780" lon="-0.3231070">
        <ele>2339.4</ele>
        <time>2020-09-11T13:16:59Z</time>
      </trkpt>
      <trkpt lat="42.8418030" lon="-0.3231230">
        <ele>2339.0</ele>
        <time>2020-09-11T13:17:02Z</time>
      </trkpt>
      <trkpt lat="42.8418110" lon="-0.3231270">
        <ele>2338.8</ele>
        <time>2020-09-11T13:17:03Z</time>
      </trkpt>
      <trkpt lat="42.8418490" lon="-0.3231540">
        <ele>2338.2</ele>
        <time>2020-09-11T13:17:07Z</time>
      </trkpt>
      <trkpt lat="42.8418570" lon="-0.3231620">
        <ele>2338.2</ele>
        <time>2020-09-11T13:17:11Z</time>
      </trkpt>
      <trkpt lat="42.8418700" lon="-0.3231650">
        <ele>2338.0</ele>
        <time>2020-09-11T13:17:13Z</time>
      </trkpt>
      <trkpt lat="42.8418790" lon="-0.3231730">
        <ele>2337.8</ele>
        <time>2020-09-11T13:17:22Z</time>
      </trkpt>
      <trkpt lat="42.8419490" lon="-0.3232180">
        <ele>2336.6</ele>
        <time>2020-09-11T13:17:52Z</time>
      </trkpt>
      <trkpt lat="42.8419820" lon="-0.3232800">
        <ele>2335.4</ele>
        <time>2020-09-11T13:17:58Z</time>
      </trkpt>
      <trkpt lat="42.8419920" lon="-0.3232980">
        <ele>2334.6</ele>
        <time>2020-09-11T13:18:00Z</time>
      </trkpt>
      <trkpt lat="42.8419930" lon="-0.3233230">
        <ele>2334.2</ele>
        <time>2020-09-11T13:18:02Z</time>
      </trkpt>
      <trkpt lat="42.8419920" lon="-0.3233350">
        <ele>2333.8</ele>
        <time>2020-09-11T13:18:03Z</time>
      </trkpt>
      <trkpt lat="42.8419990" lon="-0.3233590">
        <ele>2333.4</ele>
        <time>2020-09-11T13:18:05Z</time>
      </trkpt>
      <trkpt lat="42.8420030" lon="-0.3233710">
        <ele>2333.2</ele>
        <time>2020-09-11T13:18:06Z</time>
      </trkpt>
      <trkpt lat="42.8420060" lon="-0.3233860">
        <ele>2333.0</ele>
        <time>2020-09-11T13:18:07Z</time>
      </trkpt>
      <trkpt lat="42.8420290" lon="-0.3234030">
        <ele>2332.0</ele>
        <time>2020-09-11T13:18:12Z</time>
      </trkpt>
      <trkpt lat="42.8420480" lon="-0.3234250">
        <ele>2330.8</ele>
        <time>2020-09-11T13:18:17Z</time>
      </trkpt>
      <trkpt lat="42.8420750" lon="-0.3234640">
        <ele>2329.8</ele>
        <time>2020-09-11T13:18:24Z</time>
      </trkpt>
      <trkpt lat="42.8421000" lon="-0.3234890">
        <ele>2328.6</ele>
        <time>2020-09-11T13:18:28Z</time>
      </trkpt>
      <trkpt lat="42.8421120" lon="-0.3235380">
        <ele>2327.4</ele>
        <time>2020-09-11T13:18:34Z</time>
      </trkpt>
      <trkpt lat="42.8421450" lon="-0.3235640">
        <ele>2326.2</ele>
        <time>2020-09-11T13:18:39Z</time>
      </trkpt>
      <trkpt lat="42.8422060" lon="-0.3235780">
        <ele>2325.0</ele>
        <time>2020-09-11T13:18:45Z</time>
      </trkpt>
      <trkpt lat="42.8422160" lon="-0.3236130">
        <ele>2323.8</ele>
        <time>2020-09-11T13:18:51Z</time>
      </trkpt>
      <trkpt lat="42.8422240" lon="-0.3236470">
        <ele>2322.8</ele>
        <time>2020-09-11T13:18:57Z</time>
      </trkpt>
      <trkpt lat="42.8422260" lon="-0.3236670">
        <ele>2321.8</ele>
        <time>2020-09-11T13:19:00Z</time>
      </trkpt>
      <trkpt lat="42.8422310" lon="-0.3236700">
        <ele>2320.4</ele>
        <time>2020-09-11T13:19:05Z</time>
      </trkpt>
      <trkpt lat="42.8422360" lon="-0.3236390">
        <ele>2319.2</ele>
        <time>2020-09-11T13:19:10Z</time>
      </trkpt>
      <trkpt lat="42.8422580" lon="-0.3236450">
        <ele>2318.0</ele>
        <time>2020-09-11T13:19:14Z</time>
      </trkpt>
      <trkpt lat="42.8422890" lon="-0.3236350">
        <ele>2316.8</ele>
        <time>2020-09-11T13:19:18Z</time>
      </trkpt>
      <trkpt lat="42.8423770" lon="-0.3236610">
        <ele>2315.8</ele>
        <time>2020-09-11T13:19:31Z</time>
      </trkpt>
      <trkpt lat="42.8423960" lon="-0.3236440">
        <ele>2314.6</ele>
        <time>2020-09-11T13:19:36Z</time>
      </trkpt>
      <trkpt lat="42.8424610" lon="-0.3236360">
        <ele>2313.8</ele>
        <time>2020-09-11T13:19:43Z</time>
      </trkpt>
      <trkpt lat="42.8424750" lon="-0.3236410">
        <ele>2313.6</ele>
        <time>2020-09-11T13:19:45Z</time>
      </trkpt>
      <trkpt lat="42.8424980" lon="-0.3236580">
        <ele>2313.4</ele>
        <time>2020-09-11T13:19:48Z</time>
      </trkpt>
      <trkpt lat="42.8425240" lon="-0.3237060">
        <ele>2312.6</ele>
        <time>2020-09-11T13:19:53Z</time>
      </trkpt>
      <trkpt lat="42.8425270" lon="-0.3237340">
        <ele>2312.2</ele>
        <time>2020-09-11T13:19:55Z</time>
      </trkpt>
      <trkpt lat="42.8425840" lon="-0.3238850">
        <ele>2311.4</ele>
        <time>2020-09-11T13:20:06Z</time>
      </trkpt>
      <trkpt lat="42.8425850" lon="-0.3238970">
        <ele>2311.2</ele>
        <time>2020-09-11T13:20:07Z</time>
      </trkpt>
      <trkpt lat="42.8425860" lon="-0.3239270">
        <ele>2311.0</ele>
        <time>2020-09-11T13:20:10Z</time>
      </trkpt>
      <trkpt lat="42.8426020" lon="-0.3239540">
        <ele>2310.6</ele>
        <time>2020-09-11T13:20:13Z</time>
      </trkpt>
      <trkpt lat="42.8426230" lon="-0.3239740">
        <ele>2310.2</ele>
        <time>2020-09-11T13:20:16Z</time>
      </trkpt>
      <trkpt lat="42.8426340" lon="-0.3239900">
        <ele>2309.8</ele>
        <time>2020-09-11T13:20:18Z</time>
      </trkpt>
      <trkpt lat="42.8426600" lon="-0.3239920">
        <ele>2309.2</ele>
        <time>2020-09-11T13:20:21Z</time>
      </trkpt>
      <trkpt lat="42.8426660" lon="-0.3239980">
        <ele>2309.0</ele>
        <time>2020-09-11T13:20:22Z</time>
      </trkpt>
      <trkpt lat="42.8426710" lon="-0.3240040">
        <ele>2308.8</ele>
        <time>2020-09-11T13:20:23Z</time>
      </trkpt>
      <trkpt lat="42.8426980" lon="-0.3240190">
        <ele>2307.8</ele>
        <time>2020-09-11T13:20:29Z</time>
      </trkpt>
      <trkpt lat="42.8427020" lon="-0.3240390">
        <ele>2306.6</ele>
        <time>2020-09-11T13:20:32Z</time>
      </trkpt>
      <trkpt lat="42.8427290" lon="-0.3240770">
        <ele>2305.2</ele>
        <time>2020-09-11T13:20:37Z</time>
      </trkpt>
      <trkpt lat="42.8427400" lon="-0.3241040">
        <ele>2304.0</ele>
        <time>2020-09-11T13:20:42Z</time>
      </trkpt>
      <trkpt lat="42.8427800" lon="-0.3241310">
        <ele>2303.0</ele>
        <time>2020-09-11T13:20:48Z</time>
      </trkpt>
      <trkpt lat="42.8428040" lon="-0.3241590">
        <ele>2302.0</ele>
        <time>2020-09-11T13:20:52Z</time>
      </trkpt>
      <trkpt lat="42.8428250" lon="-0.3241680">
        <ele>2301.2</ele>
        <time>2020-09-11T13:20:54Z</time>
      </trkpt>
      <trkpt lat="42.8428320" lon="-0.3241710">
        <ele>2300.8</ele>
        <time>2020-09-11T13:20:55Z</time>
      </trkpt>
      <trkpt lat="42.8428440" lon="-0.3241920">
        <ele>2300.0</ele>
        <time>2020-09-11T13:20:57Z</time>
      </trkpt>
      <trkpt lat="42.8428460" lon="-0.3242060">
        <ele>2299.6</ele>
        <time>2020-09-11T13:20:58Z</time>
      </trkpt>
      <trkpt lat="42.8428620" lon="-0.3242510">
        <ele>2299.0</ele>
        <time>2020-09-11T13:21:01Z</time>
      </trkpt>
      <trkpt lat="42.8428690" lon="-0.3242630">
        <ele>2298.6</ele>
        <time>2020-09-11T13:21:02Z</time>
      </trkpt>
      <trkpt lat="42.8428800" lon="-0.3242910">
        <ele>2298.0</ele>
        <time>2020-09-11T13:21:05Z</time>
      </trkpt>
      <trkpt lat="42.8428900" lon="-0.3243140">
        <ele>2297.4</ele>
        <time>2020-09-11T13:21:07Z</time>
      </trkpt>
      <trkpt lat="42.8428950" lon="-0.3243300">
        <ele>2297.0</ele>
        <time>2020-09-11T13:21:08Z</time>
      </trkpt>
      <trkpt lat="42.8429130" lon="-0.3243780">
        <ele>2296.2</ele>
        <time>2020-09-11T13:21:11Z</time>
      </trkpt>
      <trkpt lat="42.8429390" lon="-0.3244040">
        <ele>2295.6</ele>
        <time>2020-09-11T13:21:14Z</time>
      </trkpt>
      <trkpt lat="42.8429600" lon="-0.3244040">
        <ele>2295.2</ele>
        <time>2020-09-11T13:21:16Z</time>
      </trkpt>
      <trkpt lat="42.8429960" lon="-0.3244180">
        <ele>2295.2</ele>
        <time>2020-09-11T13:21:19Z</time>
      </trkpt>
      <trkpt lat="42.8431170" lon="-0.3245230">
        <ele>2295.2</ele>
        <time>2020-09-11T13:21:33Z</time>
      </trkpt>
      <trkpt lat="42.8432020" lon="-0.3245940">
        <ele>2295.8</ele>
        <time>2020-09-11T13:21:44Z</time>
      </trkpt>
      <trkpt lat="42.8432250" lon="-0.3245840">
        <ele>2295.8</ele>
        <time>2020-09-11T13:21:47Z</time>
      </trkpt>
      <trkpt lat="42.8432290" lon="-0.3245740">
        <ele>2295.6</ele>
        <time>2020-09-11T13:21:50Z</time>
      </trkpt>
      <trkpt lat="42.8432860" lon="-0.3245800">
        <ele>2294.0</ele>
        <time>2020-09-11T13:22:50Z</time>
      </trkpt>
      <trkpt lat="42.8432780" lon="-0.3246100">
        <ele>2292.8</ele>
        <time>2020-09-11T13:23:19Z</time>
      </trkpt>
      <trkpt lat="42.8433100" lon="-0.3246660">
        <ele>2291.6</ele>
        <time>2020-09-11T13:23:24Z</time>
      </trkpt>
      <trkpt lat="42.8433440" lon="-0.3247090">
        <ele>2290.4</ele>
        <time>2020-09-11T13:23:28Z</time>
      </trkpt>
      <trkpt lat="42.8433560" lon="-0.3247160">
        <ele>2289.4</ele>
        <time>2020-09-11T13:23:30Z</time>
      </trkpt>
      <trkpt lat="42.8433590" lon="-0.3247020">
        <ele>2288.2</ele>
        <time>2020-09-11T13:23:33Z</time>
      </trkpt>
      <trkpt lat="42.8433780" lon="-0.3247230">
        <ele>2287.0</ele>
        <time>2020-09-11T13:23:38Z</time>
      </trkpt>
      <trkpt lat="42.8434100" lon="-0.3247650">
        <ele>2286.2</ele>
        <time>2020-09-11T13:23:45Z</time>
      </trkpt>
      <trkpt lat="42.8434130" lon="-0.3247760">
        <ele>2286.0</ele>
        <time>2020-09-11T13:23:46Z</time>
      </trkpt>
      <trkpt lat="42.8434210" lon="-0.3247860">
        <ele>2285.6</ele>
        <time>2020-09-11T13:23:47Z</time>
      </trkpt>
      <trkpt lat="42.8434370" lon="-0.3248040">
        <ele>2284.8</ele>
        <time>2020-09-11T13:23:49Z</time>
      </trkpt>
      <trkpt lat="42.8434400" lon="-0.3248030">
        <ele>2284.2</ele>
        <time>2020-09-11T13:23:51Z</time>
      </trkpt>
      <trkpt lat="42.8434390" lon="-0.3248200">
        <ele>2283.8</ele>
        <time>2020-09-11T13:23:53Z</time>
      </trkpt>
      <trkpt lat="42.8434580" lon="-0.3248590">
        <ele>2283.6</ele>
        <time>2020-09-11T13:23:56Z</time>
      </trkpt>
      <trkpt lat="42.8434920" lon="-0.3248850">
        <ele>2283.2</ele>
        <time>2020-09-11T13:24:00Z</time>
      </trkpt>
      <trkpt lat="42.8434990" lon="-0.3248860">
        <ele>2282.4</ele>
        <time>2020-09-11T13:24:02Z</time>
      </trkpt>
      <trkpt lat="42.8435460" lon="-0.3249220">
        <ele>2281.8</ele>
        <time>2020-09-11T13:24:10Z</time>
      </trkpt>
      <trkpt lat="42.8435620" lon="-0.3249310">
        <ele>2281.6</ele>
        <time>2020-09-11T13:24:13Z</time>
      </trkpt>
      <trkpt lat="42.8435670" lon="-0.3249340">
        <ele>2281.4</ele>
        <time>2020-09-11T13:24:14Z</time>
      </trkpt>
      <trkpt lat="42.8436170" lon="-0.3249660">
        <ele>2280.4</ele>
        <time>2020-09-11T13:24:21Z</time>
      </trkpt>
      <trkpt lat="42.8436300" lon="-0.3249730">
        <ele>2279.8</ele>
        <time>2020-09-11T13:24:23Z</time>
      </trkpt>
      <trkpt lat="42.8436360" lon="-0.3249840">
        <ele>2279.0</ele>
        <time>2020-09-11T13:24:25Z</time>
      </trkpt>
      <trkpt lat="42.8436400" lon="-0.3249770">
        <ele>2278.0</ele>
        <time>2020-09-11T13:24:29Z</time>
      </trkpt>
      <trkpt lat="42.8436600" lon="-0.3249690">
        <ele>2277.0</ele>
        <time>2020-09-11T13:24:34Z</time>
      </trkpt>
      <trkpt lat="42.8436930" lon="-0.3249530">
        <ele>2275.8</ele>
        <time>2020-09-11T13:24:39Z</time>
      </trkpt>
      <trkpt lat="42.8437350" lon="-0.3249570">
        <ele>2274.6</ele>
        <time>2020-09-11T13:24:44Z</time>
      </trkpt>
      <trkpt lat="42.8437590" lon="-0.3249530">
        <ele>2273.4</ele>
        <time>2020-09-11T13:24:47Z</time>
      </trkpt>
      <trkpt lat="42.8437710" lon="-0.3249420">
        <ele>2272.4</ele>
        <time>2020-09-11T13:24:51Z</time>
      </trkpt>
      <trkpt lat="42.8437680" lon="-0.3249540">
        <ele>2271.2</ele>
        <time>2020-09-11T13:24:57Z</time>
      </trkpt>
      <trkpt lat="42.8438000" lon="-0.3249680">
        <ele>2270.0</ele>
        <time>2020-09-11T13:25:05Z</time>
      </trkpt>
      <trkpt lat="42.8438270" lon="-0.3249340">
        <ele>2269.0</ele>
        <time>2020-09-11T13:25:13Z</time>
      </trkpt>
      <trkpt lat="42.8438400" lon="-0.3249610">
        <ele>2268.0</ele>
        <time>2020-09-11T13:25:18Z</time>
      </trkpt>
      <trkpt lat="42.8438550" lon="-0.3250160">
        <ele>2266.8</ele>
        <time>2020-09-11T13:25:23Z</time>
      </trkpt>
      <trkpt lat="42.8438630" lon="-0.3250240">
        <ele>2266.6</ele>
        <time>2020-09-11T13:25:24Z</time>
      </trkpt>
      <trkpt lat="42.8438770" lon="-0.3250330">
        <ele>2265.8</ele>
        <time>2020-09-11T13:25:26Z</time>
      </trkpt>
      <trkpt lat="42.8438570" lon="-0.3250640">
        <ele>2264.8</ele>
        <time>2020-09-11T13:25:29Z</time>
      </trkpt>
      <trkpt lat="42.8438550" lon="-0.3250760">
        <ele>2264.4</ele>
        <time>2020-09-11T13:25:30Z</time>
      </trkpt>
      <trkpt lat="42.8438620" lon="-0.3250890">
        <ele>2263.6</ele>
        <time>2020-09-11T13:25:32Z</time>
      </trkpt>
      <trkpt lat="42.8438680" lon="-0.3250900">
        <ele>2263.4</ele>
        <time>2020-09-11T13:25:33Z</time>
      </trkpt>
      <trkpt lat="42.8439040" lon="-0.3251110">
        <ele>2262.4</ele>
        <time>2020-09-11T13:25:38Z</time>
      </trkpt>
      <trkpt lat="42.8439420" lon="-0.3251110">
        <ele>2261.2</ele>
        <time>2020-09-11T13:25:43Z</time>
      </trkpt>
      <trkpt lat="42.8439820" lon="-0.3250940">
        <ele>2260.2</ele>
        <time>2020-09-11T13:25:47Z</time>
      </trkpt>
      <trkpt lat="42.8439940" lon="-0.3250980">
        <ele>2260.0</ele>
        <time>2020-09-11T13:25:48Z</time>
      </trkpt>
      <trkpt lat="42.8440400" lon="-0.3251230">
        <ele>2258.8</ele>
        <time>2020-09-11T13:25:56Z</time>
      </trkpt>
      <trkpt lat="42.8441640" lon="-0.3251370">
        <ele>2258.2</ele>
        <time>2020-09-11T13:26:06Z</time>
      </trkpt>
      <trkpt lat="42.8441900" lon="-0.3251690">
        <ele>2257.8</ele>
        <time>2020-09-11T13:26:09Z</time>
      </trkpt>
      <trkpt lat="42.8442190" lon="-0.3252030">
        <ele>2257.0</ele>
        <time>2020-09-11T13:26:13Z</time>
      </trkpt>
      <trkpt lat="42.8442360" lon="-0.3252310">
        <ele>2256.8</ele>
        <time>2020-09-11T13:26:16Z</time>
      </trkpt>
      <trkpt lat="42.8442940" lon="-0.3252550">
        <ele>2255.6</ele>
        <time>2020-09-11T13:26:21Z</time>
      </trkpt>
      <trkpt lat="42.8443750" lon="-0.3252460">
        <ele>2254.4</ele>
        <time>2020-09-11T13:26:28Z</time>
      </trkpt>
      <trkpt lat="42.8443810" lon="-0.3252450">
        <ele>2254.2</ele>
        <time>2020-09-11T13:26:29Z</time>
      </trkpt>
      <trkpt lat="42.8443950" lon="-0.3252440">
        <ele>2253.8</ele>
        <time>2020-09-11T13:26:31Z</time>
      </trkpt>
      <trkpt lat="42.8444000" lon="-0.3252410">
        <ele>2253.4</ele>
        <time>2020-09-11T13:26:33Z</time>
      </trkpt>
      <trkpt lat="42.8443960" lon="-0.3252720">
        <ele>2252.4</ele>
        <time>2020-09-11T13:26:37Z</time>
      </trkpt>
      <trkpt lat="42.8444160" lon="-0.3252810">
        <ele>2251.4</ele>
        <time>2020-09-11T13:26:41Z</time>
      </trkpt>
      <trkpt lat="42.8444450" lon="-0.3253000">
        <ele>2250.2</ele>
        <time>2020-09-11T13:26:46Z</time>
      </trkpt>
      <trkpt lat="42.8444690" lon="-0.3253200">
        <ele>2249.2</ele>
        <time>2020-09-11T13:26:51Z</time>
      </trkpt>
      <trkpt lat="42.8444860" lon="-0.3253580">
        <ele>2248.0</ele>
        <time>2020-09-11T13:26:56Z</time>
      </trkpt>
      <trkpt lat="42.8445230" lon="-0.3253850">
        <ele>2246.8</ele>
        <time>2020-09-11T13:27:00Z</time>
      </trkpt>
      <trkpt lat="42.8445500" lon="-0.3254150">
        <ele>2245.8</ele>
        <time>2020-09-11T13:27:04Z</time>
      </trkpt>
      <trkpt lat="42.8445760" lon="-0.3254360">
        <ele>2245.4</ele>
        <time>2020-09-11T13:27:07Z</time>
      </trkpt>
      <trkpt lat="42.8446100" lon="-0.3254610">
        <ele>2245.2</ele>
        <time>2020-09-11T13:27:10Z</time>
      </trkpt>
      <trkpt lat="42.8446690" lon="-0.3254760">
        <ele>2245.2</ele>
        <time>2020-09-11T13:27:15Z</time>
      </trkpt>
      <trkpt lat="42.8446950" lon="-0.3254500">
        <ele>2245.0</ele>
        <time>2020-09-11T13:27:18Z</time>
      </trkpt>
      <trkpt lat="42.8447100" lon="-0.3254500">
        <ele>2244.8</ele>
        <time>2020-09-11T13:27:20Z</time>
      </trkpt>
      <trkpt lat="42.8447370" lon="-0.3254550">
        <ele>2243.8</ele>
        <time>2020-09-11T13:27:24Z</time>
      </trkpt>
      <trkpt lat="42.8447650" lon="-0.3254960">
        <ele>2242.4</ele>
        <time>2020-09-11T13:27:28Z</time>
      </trkpt>
      <trkpt lat="42.8447770" lon="-0.3255000">
        <ele>2242.0</ele>
        <time>2020-09-11T13:27:30Z</time>
      </trkpt>
      <trkpt lat="42.8447830" lon="-0.3255020">
        <ele>2241.6</ele>
        <time>2020-09-11T13:27:32Z</time>
      </trkpt>
      <trkpt lat="42.8447890" lon="-0.3255180">
        <ele>2241.4</ele>
        <time>2020-09-11T13:27:35Z</time>
      </trkpt>
      <trkpt lat="42.8449430" lon="-0.3256520">
        <ele>2242.6</ele>
        <time>2020-09-11T13:28:01Z</time>
      </trkpt>
      <trkpt lat="42.8449750" lon="-0.3256680">
        <ele>2243.6</ele>
        <time>2020-09-11T13:28:05Z</time>
      </trkpt>
      <trkpt lat="42.8450190" lon="-0.3257450">
        <ele>2244.4</ele>
        <time>2020-09-11T13:28:11Z</time>
      </trkpt>
      <trkpt lat="42.8451130" lon="-0.3258180">
        <ele>2244.4</ele>
        <time>2020-09-11T13:28:23Z</time>
      </trkpt>
      <trkpt lat="42.8451360" lon="-0.3258420">
        <ele>2244.6</ele>
        <time>2020-09-11T13:28:26Z</time>
      </trkpt>
      <trkpt lat="42.8452280" lon="-0.3259230">
        <ele>2244.6</ele>
        <time>2020-09-11T13:28:36Z</time>
      </trkpt>
      <trkpt lat="42.8452890" lon="-0.3259510">
        <ele>2245.8</ele>
        <time>2020-09-11T13:28:42Z</time>
      </trkpt>
      <trkpt lat="42.8453070" lon="-0.3259530">
        <ele>2246.2</ele>
        <time>2020-09-11T13:28:44Z</time>
      </trkpt>
      <trkpt lat="42.8453570" lon="-0.3259610">
        <ele>2247.0</ele>
        <time>2020-09-11T13:28:50Z</time>
      </trkpt>
      <trkpt lat="42.8453630" lon="-0.3259550">
        <ele>2247.0</ele>
        <time>2020-09-11T13:28:51Z</time>
      </trkpt>
      <trkpt lat="42.8453940" lon="-0.3259510">
        <ele>2248.0</ele>
        <time>2020-09-11T13:28:56Z</time>
      </trkpt>
      <trkpt lat="42.8454140" lon="-0.3259530">
        <ele>2248.4</ele>
        <time>2020-09-11T13:28:58Z</time>
      </trkpt>
      <trkpt lat="42.8454220" lon="-0.3259610">
        <ele>2248.8</ele>
        <time>2020-09-11T13:29:00Z</time>
      </trkpt>
      <trkpt lat="42.8454290" lon="-0.3259750">
        <ele>2249.0</ele>
        <time>2020-09-11T13:29:02Z</time>
      </trkpt>
      <trkpt lat="42.8455510" lon="-0.3261460">
        <ele>2249.4</ele>
        <time>2020-09-11T13:29:30Z</time>
      </trkpt>
      <trkpt lat="42.8455650" lon="-0.3262310">
        <ele>2248.8</ele>
        <time>2020-09-11T13:29:37Z</time>
      </trkpt>
      <trkpt lat="42.8455790" lon="-0.3262650">
        <ele>2248.0</ele>
        <time>2020-09-11T13:29:40Z</time>
      </trkpt>
      <trkpt lat="42.8455940" lon="-0.3263020">
        <ele>2247.8</ele>
        <time>2020-09-11T13:29:43Z</time>
      </trkpt>
      <trkpt lat="42.8456150" lon="-0.3263330">
        <ele>2247.8</ele>
        <time>2020-09-11T13:29:46Z</time>
      </trkpt>
      <trkpt lat="42.8456280" lon="-0.3263510">
        <ele>2247.8</ele>
        <time>2020-09-11T13:29:49Z</time>
      </trkpt>
      <trkpt lat="42.8456400" lon="-0.3263640">
        <ele>2248.0</ele>
        <time>2020-09-11T13:29:51Z</time>
      </trkpt>
      <trkpt lat="42.8456900" lon="-0.3264290">
        <ele>2247.8</ele>
        <time>2020-09-11T13:29:59Z</time>
      </trkpt>
      <trkpt lat="42.8457650" lon="-0.3265880">
        <ele>2248.6</ele>
        <time>2020-09-11T13:30:14Z</time>
      </trkpt>
      <trkpt lat="42.8457750" lon="-0.3265940">
        <ele>2248.6</ele>
        <time>2020-09-11T13:30:16Z</time>
      </trkpt>
      <trkpt lat="42.8458050" lon="-0.3265960">
        <ele>2248.6</ele>
        <time>2020-09-11T13:30:20Z</time>
      </trkpt>
      <trkpt lat="42.8458680" lon="-0.3266640">
        <ele>2247.4</ele>
        <time>2020-09-11T13:30:29Z</time>
      </trkpt>
      <trkpt lat="42.8458760" lon="-0.3266780">
        <ele>2247.4</ele>
        <time>2020-09-11T13:30:31Z</time>
      </trkpt>
      <trkpt lat="42.8459090" lon="-0.3266710">
        <ele>2247.4</ele>
        <time>2020-09-11T13:30:38Z</time>
      </trkpt>
      <trkpt lat="42.8459340" lon="-0.3266590">
        <ele>2247.6</ele>
        <time>2020-09-11T13:30:48Z</time>
      </trkpt>
      <trkpt lat="42.8458640" lon="-0.3267140">
        <ele>2247.2</ele>
        <time>2020-09-11T13:31:44Z</time>
      </trkpt>
      <trkpt lat="42.8457510" lon="-0.3268280">
        <ele>2248.0</ele>
        <time>2020-09-11T13:31:56Z</time>
      </trkpt>
      <trkpt lat="42.8457170" lon="-0.3268780">
        <ele>2249.0</ele>
        <time>2020-09-11T13:32:02Z</time>
      </trkpt>
      <trkpt lat="42.8457140" lon="-0.3268870">
        <ele>2249.4</ele>
        <time>2020-09-11T13:32:03Z</time>
      </trkpt>
      <trkpt lat="42.8457030" lon="-0.3269390">
        <ele>2250.2</ele>
        <time>2020-09-11T13:32:07Z</time>
      </trkpt>
      <trkpt lat="42.8457090" lon="-0.3269690">
        <ele>2250.4</ele>
        <time>2020-09-11T13:32:09Z</time>
      </trkpt>
      <trkpt lat="42.8457020" lon="-0.3270400">
        <ele>2250.4</ele>
        <time>2020-09-11T13:32:14Z</time>
      </trkpt>
      <trkpt lat="42.8456950" lon="-0.3270680">
        <ele>2250.2</ele>
        <time>2020-09-11T13:32:16Z</time>
      </trkpt>
      <trkpt lat="42.8457040" lon="-0.3271590">
        <ele>2249.8</ele>
        <time>2020-09-11T13:32:23Z</time>
      </trkpt>
      <trkpt lat="42.8457010" lon="-0.3271850">
        <ele>2249.6</ele>
        <time>2020-09-11T13:32:25Z</time>
      </trkpt>
      <trkpt lat="42.8456870" lon="-0.3272240">
        <ele>2249.0</ele>
        <time>2020-09-11T13:32:28Z</time>
      </trkpt>
      <trkpt lat="42.8456720" lon="-0.3272440">
        <ele>2248.0</ele>
        <time>2020-09-11T13:32:31Z</time>
      </trkpt>
      <trkpt lat="42.8456390" lon="-0.3272960">
        <ele>2247.0</ele>
        <time>2020-09-11T13:32:36Z</time>
      </trkpt>
      <trkpt lat="42.8456380" lon="-0.3273100">
        <ele>2246.8</ele>
        <time>2020-09-11T13:32:37Z</time>
      </trkpt>
      <trkpt lat="42.8456430" lon="-0.3273320">
        <ele>2246.2</ele>
        <time>2020-09-11T13:32:39Z</time>
      </trkpt>
      <trkpt lat="42.8456350" lon="-0.3273700">
        <ele>2245.8</ele>
        <time>2020-09-11T13:32:42Z</time>
      </trkpt>
      <trkpt lat="42.8455980" lon="-0.3274180">
        <ele>2244.8</ele>
        <time>2020-09-11T13:32:48Z</time>
      </trkpt>
      <trkpt lat="42.8455970" lon="-0.3274580">
        <ele>2243.8</ele>
        <time>2020-09-11T13:32:53Z</time>
      </trkpt>
      <trkpt lat="42.8455950" lon="-0.3274690">
        <ele>2243.6</ele>
        <time>2020-09-11T13:32:54Z</time>
      </trkpt>
      <trkpt lat="42.8455880" lon="-0.3275010">
        <ele>2242.6</ele>
        <time>2020-09-11T13:33:01Z</time>
      </trkpt>
      <trkpt lat="42.8455890" lon="-0.3275320">
        <ele>2241.4</ele>
        <time>2020-09-11T13:33:07Z</time>
      </trkpt>
      <trkpt lat="42.8455750" lon="-0.3275830">
        <ele>2240.4</ele>
        <time>2020-09-11T13:33:13Z</time>
      </trkpt>
      <trkpt lat="42.8455370" lon="-0.3276260">
        <ele>2239.2</ele>
        <time>2020-09-11T13:33:18Z</time>
      </trkpt>
      <trkpt lat="42.8454560" lon="-0.3277090">
        <ele>2238.4</ele>
        <time>2020-09-11T13:33:26Z</time>
      </trkpt>
      <trkpt lat="42.8454480" lon="-0.3277190">
        <ele>2238.4</ele>
        <time>2020-09-11T13:33:28Z</time>
      </trkpt>
      <trkpt lat="42.8454470" lon="-0.3277290">
        <ele>2238.2</ele>
        <time>2020-09-11T13:33:30Z</time>
      </trkpt>
      <trkpt lat="42.8454580" lon="-0.3277800">
        <ele>2238.4</ele>
        <time>2020-09-11T13:33:34Z</time>
      </trkpt>
      <trkpt lat="42.8454970" lon="-0.3277530">
        <ele>2239.6</ele>
        <time>2020-09-11T13:33:41Z</time>
      </trkpt>
      <trkpt lat="42.8454990" lon="-0.3277420">
        <ele>2240.8</ele>
        <time>2020-09-11T13:33:44Z</time>
      </trkpt>
      <trkpt lat="42.8455070" lon="-0.3277380">
        <ele>2242.0</ele>
        <time>2020-09-11T13:33:46Z</time>
      </trkpt>
      <trkpt lat="42.8455350" lon="-0.3277480">
        <ele>2243.0</ele>
        <time>2020-09-11T13:33:50Z</time>
      </trkpt>
      <trkpt lat="42.8455580" lon="-0.3278400">
        <ele>2244.2</ele>
        <time>2020-09-11T13:33:58Z</time>
      </trkpt>
      <trkpt lat="42.8455930" lon="-0.3279730">
        <ele>2245.2</ele>
        <time>2020-09-11T13:34:07Z</time>
      </trkpt>
      <trkpt lat="42.8456100" lon="-0.3280000">
        <ele>2246.0</ele>
        <time>2020-09-11T13:34:10Z</time>
      </trkpt>
      <trkpt lat="42.8456220" lon="-0.3280050">
        <ele>2246.4</ele>
        <time>2020-09-11T13:34:12Z</time>
      </trkpt>
      <trkpt lat="42.8456340" lon="-0.3280230">
        <ele>2247.0</ele>
        <time>2020-09-11T13:34:15Z</time>
      </trkpt>
      <trkpt lat="42.8456660" lon="-0.3280770">
        <ele>2247.2</ele>
        <time>2020-09-11T13:34:22Z</time>
      </trkpt>
      <trkpt lat="42.8456700" lon="-0.3281260">
        <ele>2247.0</ele>
        <time>2020-09-11T13:34:25Z</time>
      </trkpt>
      <trkpt lat="42.8457420" lon="-0.3282760">
        <ele>2247.4</ele>
        <time>2020-09-11T13:34:37Z</time>
      </trkpt>
      <trkpt lat="42.8457700" lon="-0.3283090">
        <ele>2247.2</ele>
        <time>2020-09-11T13:34:41Z</time>
      </trkpt>
      <trkpt lat="42.8457910" lon="-0.3283370">
        <ele>2246.4</ele>
        <time>2020-09-11T13:34:44Z</time>
      </trkpt>
      <trkpt lat="42.8458210" lon="-0.3283740">
        <ele>2246.2</ele>
        <time>2020-09-11T13:34:49Z</time>
      </trkpt>
      <trkpt lat="42.8458590" lon="-0.3284450">
        <ele>2245.6</ele>
        <time>2020-09-11T13:34:56Z</time>
      </trkpt>
      <trkpt lat="42.8458640" lon="-0.3285380">
        <ele>2245.4</ele>
        <time>2020-09-11T13:35:01Z</time>
      </trkpt>
      <trkpt lat="42.8458700" lon="-0.3285640">
        <ele>2245.4</ele>
        <time>2020-09-11T13:35:03Z</time>
      </trkpt>
      <trkpt lat="42.8459060" lon="-0.3286810">
        <ele>2245.4</ele>
        <time>2020-09-11T13:35:12Z</time>
      </trkpt>
      <trkpt lat="42.8459150" lon="-0.3287470">
        <ele>2245.0</ele>
        <time>2020-09-11T13:35:17Z</time>
      </trkpt>
      <trkpt lat="42.8459060" lon="-0.3287720">
        <ele>2244.2</ele>
        <time>2020-09-11T13:35:20Z</time>
      </trkpt>
      <trkpt lat="42.8458950" lon="-0.3287940">
        <ele>2243.8</ele>
        <time>2020-09-11T13:35:22Z</time>
      </trkpt>
      <trkpt lat="42.8459030" lon="-0.3288400">
        <ele>2243.0</ele>
        <time>2020-09-11T13:35:25Z</time>
      </trkpt>
      <trkpt lat="42.8459030" lon="-0.3289090">
        <ele>2242.0</ele>
        <time>2020-09-11T13:35:29Z</time>
      </trkpt>
      <trkpt lat="42.8459100" lon="-0.3289180">
        <ele>2241.6</ele>
        <time>2020-09-11T13:35:30Z</time>
      </trkpt>
      <trkpt lat="42.8459110" lon="-0.3289190">
        <ele>2240.8</ele>
        <time>2020-09-11T13:35:33Z</time>
      </trkpt>
      <trkpt lat="42.8458980" lon="-0.3290060">
        <ele>2241.0</ele>
        <time>2020-09-11T13:36:10Z</time>
      </trkpt>
      <trkpt lat="42.8459200" lon="-0.3291450">
        <ele>2240.4</ele>
        <time>2020-09-11T13:36:23Z</time>
      </trkpt>
      <trkpt lat="42.8459380" lon="-0.3291560">
        <ele>2240.4</ele>
        <time>2020-09-11T13:36:25Z</time>
      </trkpt>
      <trkpt lat="42.8459840" lon="-0.3291960">
        <ele>2239.8</ele>
        <time>2020-09-11T13:36:30Z</time>
      </trkpt>
      <trkpt lat="42.8459930" lon="-0.3291890">
        <ele>2239.8</ele>
        <time>2020-09-11T13:36:31Z</time>
      </trkpt>
      <trkpt lat="42.8460020" lon="-0.3291810">
        <ele>2239.6</ele>
        <time>2020-09-11T13:36:32Z</time>
      </trkpt>
      <trkpt lat="42.8460030" lon="-0.3291790">
        <ele>2239.6</ele>
        <time>2020-09-11T13:36:34Z</time>
      </trkpt>
      <trkpt lat="42.8460030" lon="-0.3291980">
        <ele>2239.8</ele>
        <time>2020-09-11T13:36:37Z</time>
      </trkpt>
      <trkpt lat="42.8460160" lon="-0.3292360">
        <ele>2239.8</ele>
        <time>2020-09-11T13:36:40Z</time>
      </trkpt>
      <trkpt lat="42.8460500" lon="-0.3292820">
        <ele>2239.6</ele>
        <time>2020-09-11T13:36:45Z</time>
      </trkpt>
      <trkpt lat="42.8460620" lon="-0.3292960">
        <ele>2239.6</ele>
        <time>2020-09-11T13:36:47Z</time>
      </trkpt>
      <trkpt lat="42.8460840" lon="-0.3293250">
        <ele>2238.8</ele>
        <time>2020-09-11T13:36:52Z</time>
      </trkpt>
      <trkpt lat="42.8461040" lon="-0.3292690">
        <ele>2238.2</ele>
        <time>2020-09-11T13:37:47Z</time>
      </trkpt>
      <trkpt lat="42.8461170" lon="-0.3293180">
        <ele>2238.2</ele>
        <time>2020-09-11T13:37:50Z</time>
      </trkpt>
      <trkpt lat="42.8460900" lon="-0.3293720">
        <ele>2238.2</ele>
        <time>2020-09-11T13:37:54Z</time>
      </trkpt>
      <trkpt lat="42.8460910" lon="-0.3293970">
        <ele>2238.4</ele>
        <time>2020-09-11T13:37:56Z</time>
      </trkpt>
      <trkpt lat="42.8461340" lon="-0.3295950">
        <ele>2238.4</ele>
        <time>2020-09-11T13:38:10Z</time>
      </trkpt>
      <trkpt lat="42.8461060" lon="-0.3296210">
        <ele>2238.0</ele>
        <time>2020-09-11T13:38:14Z</time>
      </trkpt>
      <trkpt lat="42.8460630" lon="-0.3296620">
        <ele>2238.0</ele>
        <time>2020-09-11T13:38:19Z</time>
      </trkpt>
      <trkpt lat="42.8460600" lon="-0.3296700">
        <ele>2238.0</ele>
        <time>2020-09-11T13:38:21Z</time>
      </trkpt>
      <trkpt lat="42.8461030" lon="-0.3297440">
        <ele>2238.4</ele>
        <time>2020-09-11T13:38:30Z</time>
      </trkpt>
      <trkpt lat="42.8461130" lon="-0.3298960">
        <ele>2238.2</ele>
        <time>2020-09-11T13:38:40Z</time>
      </trkpt>
      <trkpt lat="42.8461070" lon="-0.3299120">
        <ele>2238.2</ele>
        <time>2020-09-11T13:38:42Z</time>
      </trkpt>
      <trkpt lat="42.8461170" lon="-0.3299280">
        <ele>2238.0</ele>
        <time>2020-09-11T13:38:45Z</time>
      </trkpt>
      <trkpt lat="42.8461260" lon="-0.3298630">
        <ele>2237.4</ele>
        <time>2020-09-11T13:38:54Z</time>
      </trkpt>
      <trkpt lat="42.8461300" lon="-0.3298550">
        <ele>2236.4</ele>
        <time>2020-09-11T13:38:57Z</time>
      </trkpt>
      <trkpt lat="42.8461020" lon="-0.3298300">
        <ele>2235.2</ele>
        <time>2020-09-11T13:39:28Z</time>
      </trkpt>
      <trkpt lat="42.8462000" lon="-0.3298890">
        <ele>2234.4</ele>
        <time>2020-09-11T13:40:02Z</time>
      </trkpt>
      <trkpt lat="42.8462130" lon="-0.3298940">
        <ele>2234.2</ele>
        <time>2020-09-11T13:40:03Z</time>
      </trkpt>
      <trkpt lat="42.8462640" lon="-0.3299270">
        <ele>2233.0</ele>
        <time>2020-09-11T13:40:08Z</time>
      </trkpt>
      <trkpt lat="42.8463170" lon="-0.3299730">
        <ele>2232.0</ele>
        <time>2020-09-11T13:40:14Z</time>
      </trkpt>
      <trkpt lat="42.8463600" lon="-0.3300140">
        <ele>2231.4</ele>
        <time>2020-09-11T13:40:19Z</time>
      </trkpt>
      <trkpt lat="42.8463750" lon="-0.3300530">
        <ele>2231.0</ele>
        <time>2020-09-11T13:40:22Z</time>
      </trkpt>
      <trkpt lat="42.8463870" lon="-0.3300760">
        <ele>2230.8</ele>
        <time>2020-09-11T13:40:24Z</time>
      </trkpt>
      <trkpt lat="42.8464150" lon="-0.3301330">
        <ele>2230.0</ele>
        <time>2020-09-11T13:40:30Z</time>
      </trkpt>
      <trkpt lat="42.8464220" lon="-0.3301320">
        <ele>2229.8</ele>
        <time>2020-09-11T13:40:31Z</time>
      </trkpt>
      <trkpt lat="42.8464300" lon="-0.3301500">
        <ele>2228.8</ele>
        <time>2020-09-11T13:40:40Z</time>
      </trkpt>
      <trkpt lat="42.8464560" lon="-0.3301940">
        <ele>2227.8</ele>
        <time>2020-09-11T13:40:46Z</time>
      </trkpt>
      <trkpt lat="42.8464750" lon="-0.3302220">
        <ele>2226.6</ele>
        <time>2020-09-11T13:40:50Z</time>
      </trkpt>
      <trkpt lat="42.8464930" lon="-0.3302430">
        <ele>2225.8</ele>
        <time>2020-09-11T13:40:53Z</time>
      </trkpt>
      <trkpt lat="42.8465050" lon="-0.3302430">
        <ele>2225.6</ele>
        <time>2020-09-11T13:40:54Z</time>
      </trkpt>
      <trkpt lat="42.8465460" lon="-0.3302750">
        <ele>2224.6</ele>
        <time>2020-09-11T13:40:59Z</time>
      </trkpt>
      <trkpt lat="42.8465800" lon="-0.3303160">
        <ele>2223.2</ele>
        <time>2020-09-11T13:41:03Z</time>
      </trkpt>
      <trkpt lat="42.8466010" lon="-0.3303330">
        <ele>2222.0</ele>
        <time>2020-09-11T13:41:06Z</time>
      </trkpt>
      <trkpt lat="42.8466350" lon="-0.3303840">
        <ele>2221.0</ele>
        <time>2020-09-11T13:41:10Z</time>
      </trkpt>
      <trkpt lat="42.8466540" lon="-0.3303950">
        <ele>2220.2</ele>
        <time>2020-09-11T13:41:12Z</time>
      </trkpt>
      <trkpt lat="42.8466570" lon="-0.3303800">
        <ele>2219.8</ele>
        <time>2020-09-11T13:41:13Z</time>
      </trkpt>
      <trkpt lat="42.8466740" lon="-0.3303060">
        <ele>2219.0</ele>
        <time>2020-09-11T13:41:17Z</time>
      </trkpt>
      <trkpt lat="42.8466930" lon="-0.3302850">
        <ele>2218.8</ele>
        <time>2020-09-11T13:41:19Z</time>
      </trkpt>
      <trkpt lat="42.8467030" lon="-0.3302690">
        <ele>2218.2</ele>
        <time>2020-09-11T13:41:22Z</time>
      </trkpt>
      <trkpt lat="42.8466980" lon="-0.3302840">
        <ele>2217.8</ele>
        <time>2020-09-11T13:41:28Z</time>
      </trkpt>
      <trkpt lat="42.8467230" lon="-0.3303420">
        <ele>2217.2</ele>
        <time>2020-09-11T13:41:34Z</time>
      </trkpt>
      <trkpt lat="42.8467410" lon="-0.3303600">
        <ele>2216.4</ele>
        <time>2020-09-11T13:41:36Z</time>
      </trkpt>
      <trkpt lat="42.8467700" lon="-0.3304040">
        <ele>2215.4</ele>
        <time>2020-09-11T13:41:39Z</time>
      </trkpt>
      <trkpt lat="42.8468150" lon="-0.3304820">
        <ele>2214.4</ele>
        <time>2020-09-11T13:41:45Z</time>
      </trkpt>
      <trkpt lat="42.8468720" lon="-0.3305720">
        <ele>2213.2</ele>
        <time>2020-09-11T13:41:53Z</time>
      </trkpt>
      <trkpt lat="42.8469240" lon="-0.3306360">
        <ele>2212.6</ele>
        <time>2020-09-11T13:42:00Z</time>
      </trkpt>
      <trkpt lat="42.8471060" lon="-0.3306650">
        <ele>2212.2</ele>
        <time>2020-09-11T13:42:14Z</time>
      </trkpt>
      <trkpt lat="42.8471180" lon="-0.3306640">
        <ele>2212.2</ele>
        <time>2020-09-11T13:42:15Z</time>
      </trkpt>
      <trkpt lat="42.8471410" lon="-0.3306670">
        <ele>2212.2</ele>
        <time>2020-09-11T13:42:17Z</time>
      </trkpt>
      <trkpt lat="42.8471650" lon="-0.3306640">
        <ele>2212.2</ele>
        <time>2020-09-11T13:42:19Z</time>
      </trkpt>
      <trkpt lat="42.8471940" lon="-0.3307000">
        <ele>2212.4</ele>
        <time>2020-09-11T13:42:23Z</time>
      </trkpt>
      <trkpt lat="42.8472130" lon="-0.3307370">
        <ele>2212.8</ele>
        <time>2020-09-11T13:42:26Z</time>
      </trkpt>
      <trkpt lat="42.8472320" lon="-0.3307610">
        <ele>2213.2</ele>
        <time>2020-09-11T13:42:29Z</time>
      </trkpt>
      <trkpt lat="42.8472430" lon="-0.3307840">
        <ele>2213.6</ele>
        <time>2020-09-11T13:42:31Z</time>
      </trkpt>
      <trkpt lat="42.8472560" lon="-0.3307860">
        <ele>2214.2</ele>
        <time>2020-09-11T13:42:34Z</time>
      </trkpt>
      <trkpt lat="42.8472620" lon="-0.3307860">
        <ele>2214.2</ele>
        <time>2020-09-11T13:42:35Z</time>
      </trkpt>
      <trkpt lat="42.8472860" lon="-0.3307840">
        <ele>2215.4</ele>
        <time>2020-09-11T13:42:40Z</time>
      </trkpt>
      <trkpt lat="42.8472990" lon="-0.3306910">
        <ele>2216.2</ele>
        <time>2020-09-11T13:42:50Z</time>
      </trkpt>
      <trkpt lat="42.8473040" lon="-0.3306730">
        <ele>2216.6</ele>
        <time>2020-09-11T13:42:52Z</time>
      </trkpt>
      <trkpt lat="42.8473120" lon="-0.3306090">
        <ele>2217.8</ele>
        <time>2020-09-11T13:42:58Z</time>
      </trkpt>
      <trkpt lat="42.8473180" lon="-0.3305650">
        <ele>2218.8</ele>
        <time>2020-09-11T13:43:02Z</time>
      </trkpt>
      <trkpt lat="42.8473670" lon="-0.3305280">
        <ele>2219.6</ele>
        <time>2020-09-11T13:43:09Z</time>
      </trkpt>
      <trkpt lat="42.8473780" lon="-0.3305280">
        <ele>2219.8</ele>
        <time>2020-09-11T13:43:10Z</time>
      </trkpt>
      <trkpt lat="42.8474130" lon="-0.3305230">
        <ele>2221.0</ele>
        <time>2020-09-11T13:43:16Z</time>
      </trkpt>
      <trkpt lat="42.8474510" lon="-0.3304850">
        <ele>2222.0</ele>
        <time>2020-09-11T13:43:24Z</time>
      </trkpt>
      <trkpt lat="42.8474630" lon="-0.3304540">
        <ele>2223.2</ele>
        <time>2020-09-11T13:43:28Z</time>
      </trkpt>
      <trkpt lat="42.8474980" lon="-0.3304040">
        <ele>2224.2</ele>
        <time>2020-09-11T13:43:35Z</time>
      </trkpt>
      <trkpt lat="42.8475440" lon="-0.3303640">
        <ele>2225.2</ele>
        <time>2020-09-11T13:43:41Z</time>
      </trkpt>
      <trkpt lat="42.8475530" lon="-0.3303630">
        <ele>2225.2</ele>
        <time>2020-09-11T13:43:42Z</time>
      </trkpt>
      <trkpt lat="42.8475730" lon="-0.3303660">
        <ele>2225.2</ele>
        <time>2020-09-11T13:43:44Z</time>
      </trkpt>
      <trkpt lat="42.8476640" lon="-0.3303880">
        <ele>2224.8</ele>
        <time>2020-09-11T13:43:53Z</time>
      </trkpt>
      <trkpt lat="42.8476880" lon="-0.3303660">
        <ele>2224.6</ele>
        <time>2020-09-11T13:43:56Z</time>
      </trkpt>
      <trkpt lat="42.8477210" lon="-0.3304000">
        <ele>2225.2</ele>
        <time>2020-09-11T13:44:00Z</time>
      </trkpt>
      <trkpt lat="42.8477290" lon="-0.3304390">
        <ele>2225.6</ele>
        <time>2020-09-11T13:44:03Z</time>
      </trkpt>
      <trkpt lat="42.8477370" lon="-0.3304620">
        <ele>2226.0</ele>
        <time>2020-09-11T13:44:05Z</time>
      </trkpt>
      <trkpt lat="42.8477420" lon="-0.3304820">
        <ele>2226.4</ele>
        <time>2020-09-11T13:44:07Z</time>
      </trkpt>
      <trkpt lat="42.8477530" lon="-0.3305280">
        <ele>2226.6</ele>
        <time>2020-09-11T13:44:11Z</time>
      </trkpt>
      <trkpt lat="42.8477570" lon="-0.3305550">
        <ele>2226.8</ele>
        <time>2020-09-11T13:44:13Z</time>
      </trkpt>
      <trkpt lat="42.8477600" lon="-0.3305730">
        <ele>2226.8</ele>
        <time>2020-09-11T13:44:15Z</time>
      </trkpt>
      <trkpt lat="42.8478150" lon="-0.3308180">
        <ele>2226.4</ele>
        <time>2020-09-11T13:44:33Z</time>
      </trkpt>
      <trkpt lat="42.8478390" lon="-0.3308670">
        <ele>2226.2</ele>
        <time>2020-09-11T13:44:37Z</time>
      </trkpt>
      <trkpt lat="42.8478460" lon="-0.3309050">
        <ele>2226.4</ele>
        <time>2020-09-11T13:44:40Z</time>
      </trkpt>
      <trkpt lat="42.8478520" lon="-0.3309430">
        <ele>2226.8</ele>
        <time>2020-09-11T13:44:43Z</time>
      </trkpt>
      <trkpt lat="42.8478650" lon="-0.3309630">
        <ele>2227.0</ele>
        <time>2020-09-11T13:44:45Z</time>
      </trkpt>
      <trkpt lat="42.8478850" lon="-0.3309500">
        <ele>2227.4</ele>
        <time>2020-09-11T13:44:47Z</time>
      </trkpt>
      <trkpt lat="42.8478960" lon="-0.3309390">
        <ele>2227.6</ele>
        <time>2020-09-11T13:44:49Z</time>
      </trkpt>
      <trkpt lat="42.8479170" lon="-0.3309230">
        <ele>2228.0</ele>
        <time>2020-09-11T13:44:52Z</time>
      </trkpt>
      <trkpt lat="42.8479510" lon="-0.3308840">
        <ele>2228.4</ele>
        <time>2020-09-11T13:44:56Z</time>
      </trkpt>
      <trkpt lat="42.8479580" lon="-0.3308790">
        <ele>2228.4</ele>
        <time>2020-09-11T13:44:57Z</time>
      </trkpt>
      <trkpt lat="42.8479830" lon="-0.3308760">
        <ele>2228.6</ele>
        <time>2020-09-11T13:45:00Z</time>
      </trkpt>
      <trkpt lat="42.8480120" lon="-0.3308610">
        <ele>2229.6</ele>
        <time>2020-09-11T13:45:05Z</time>
      </trkpt>
      <trkpt lat="42.8480280" lon="-0.3308490">
        <ele>2229.8</ele>
        <time>2020-09-11T13:45:07Z</time>
      </trkpt>
      <trkpt lat="42.8480450" lon="-0.3308370">
        <ele>2230.0</ele>
        <time>2020-09-11T13:45:09Z</time>
      </trkpt>
      <trkpt lat="42.8480630" lon="-0.3308170">
        <ele>2230.2</ele>
        <time>2020-09-11T13:45:12Z</time>
      </trkpt>
      <trkpt lat="42.8480750" lon="-0.3308120">
        <ele>2230.6</ele>
        <time>2020-09-11T13:45:14Z</time>
      </trkpt>
      <trkpt lat="42.8481280" lon="-0.3308260">
        <ele>2231.6</ele>
        <time>2020-09-11T13:45:21Z</time>
      </trkpt>
      <trkpt lat="42.8481500" lon="-0.3309000">
        <ele>2232.6</ele>
        <time>2020-09-11T13:45:27Z</time>
      </trkpt>
      <trkpt lat="42.8482270" lon="-0.3310770">
        <ele>2233.2</ele>
        <time>2020-09-11T13:45:42Z</time>
      </trkpt>
      <trkpt lat="42.8482470" lon="-0.3310940">
        <ele>2233.6</ele>
        <time>2020-09-11T13:45:45Z</time>
      </trkpt>
      <trkpt lat="42.8483660" lon="-0.3312630">
        <ele>2233.8</ele>
        <time>2020-09-11T13:46:04Z</time>
      </trkpt>
      <trkpt lat="42.8483750" lon="-0.3312820">
        <ele>2234.0</ele>
        <time>2020-09-11T13:46:07Z</time>
      </trkpt>
      <trkpt lat="42.8483970" lon="-0.3313120">
        <ele>2234.2</ele>
        <time>2020-09-11T13:46:10Z</time>
      </trkpt>
      <trkpt lat="42.8484190" lon="-0.3313480">
        <ele>2234.4</ele>
        <time>2020-09-11T13:46:13Z</time>
      </trkpt>
      <trkpt lat="42.8485400" lon="-0.3314630">
        <ele>2233.6</ele>
        <time>2020-09-11T13:46:28Z</time>
      </trkpt>
      <trkpt lat="42.8485700" lon="-0.3314980">
        <ele>2232.6</ele>
        <time>2020-09-11T13:46:37Z</time>
      </trkpt>
      <trkpt lat="42.8485760" lon="-0.3315070">
        <ele>2232.6</ele>
        <time>2020-09-11T13:46:38Z</time>
      </trkpt>
      <trkpt lat="42.8485950" lon="-0.3315260">
        <ele>2231.8</ele>
        <time>2020-09-11T13:46:41Z</time>
      </trkpt>
      <trkpt lat="42.8486100" lon="-0.3315560">
        <ele>2231.4</ele>
        <time>2020-09-11T13:46:44Z</time>
      </trkpt>
      <trkpt lat="42.8486120" lon="-0.3315660">
        <ele>2231.2</ele>
        <time>2020-09-11T13:46:45Z</time>
      </trkpt>
      <trkpt lat="42.8486230" lon="-0.3315690">
        <ele>2231.0</ele>
        <time>2020-09-11T13:46:47Z</time>
      </trkpt>
      <trkpt lat="42.8486430" lon="-0.3315650">
        <ele>2230.2</ele>
        <time>2020-09-11T13:46:49Z</time>
      </trkpt>
      <trkpt lat="42.8486530" lon="-0.3315780">
        <ele>2229.8</ele>
        <time>2020-09-11T13:46:51Z</time>
      </trkpt>
      <trkpt lat="42.8486580" lon="-0.3316030">
        <ele>2229.4</ele>
        <time>2020-09-11T13:46:53Z</time>
      </trkpt>
      <trkpt lat="42.8486560" lon="-0.3316160">
        <ele>2229.2</ele>
        <time>2020-09-11T13:46:54Z</time>
      </trkpt>
      <trkpt lat="42.8486570" lon="-0.3316270">
        <ele>2229.0</ele>
        <time>2020-09-11T13:46:55Z</time>
      </trkpt>
      <trkpt lat="42.8486550" lon="-0.3316780">
        <ele>2228.2</ele>
        <time>2020-09-11T13:46:59Z</time>
      </trkpt>
      <trkpt lat="42.8486490" lon="-0.3317190">
        <ele>2227.2</ele>
        <time>2020-09-11T13:47:02Z</time>
      </trkpt>
      <trkpt lat="42.8486490" lon="-0.3317470">
        <ele>2226.8</ele>
        <time>2020-09-11T13:47:04Z</time>
      </trkpt>
      <trkpt lat="42.8486490" lon="-0.3317730">
        <ele>2226.0</ele>
        <time>2020-09-11T13:47:06Z</time>
      </trkpt>
      <trkpt lat="42.8486330" lon="-0.3318300">
        <ele>2225.0</ele>
        <time>2020-09-11T13:47:10Z</time>
      </trkpt>
      <trkpt lat="42.8486570" lon="-0.3318240">
        <ele>2223.8</ele>
        <time>2020-09-11T13:47:14Z</time>
      </trkpt>
      <trkpt lat="42.8486680" lon="-0.3318270">
        <ele>2223.4</ele>
        <time>2020-09-11T13:47:16Z</time>
      </trkpt>
      <trkpt lat="42.8486820" lon="-0.3318520">
        <ele>2222.8</ele>
        <time>2020-09-11T13:47:19Z</time>
      </trkpt>
      <trkpt lat="42.8486970" lon="-0.3318490">
        <ele>2222.4</ele>
        <time>2020-09-11T13:47:21Z</time>
      </trkpt>
      <trkpt lat="42.8487250" lon="-0.3318420">
        <ele>2221.6</ele>
        <time>2020-09-11T13:47:24Z</time>
      </trkpt>
      <trkpt lat="42.8487350" lon="-0.3318200">
        <ele>2220.8</ele>
        <time>2020-09-11T13:47:26Z</time>
      </trkpt>
      <trkpt lat="42.8487370" lon="-0.3318110">
        <ele>2220.6</ele>
        <time>2020-09-11T13:47:27Z</time>
      </trkpt>
      <trkpt lat="42.8487440" lon="-0.3318070">
        <ele>2220.2</ele>
        <time>2020-09-11T13:47:28Z</time>
      </trkpt>
      <trkpt lat="42.8487800" lon="-0.3318220">
        <ele>2219.4</ele>
        <time>2020-09-11T13:47:32Z</time>
      </trkpt>
      <trkpt lat="42.8488210" lon="-0.3318540">
        <ele>2219.0</ele>
        <time>2020-09-11T13:47:37Z</time>
      </trkpt>
      <trkpt lat="42.8488370" lon="-0.3318580">
        <ele>2218.8</ele>
        <time>2020-09-11T13:47:39Z</time>
      </trkpt>
      <trkpt lat="42.8488570" lon="-0.3318660">
        <ele>2218.4</ele>
        <time>2020-09-11T13:47:41Z</time>
      </trkpt>
      <trkpt lat="42.8488680" lon="-0.3318680">
        <ele>2218.2</ele>
        <time>2020-09-11T13:47:42Z</time>
      </trkpt>
      <trkpt lat="42.8488870" lon="-0.3318790">
        <ele>2217.8</ele>
        <time>2020-09-11T13:47:44Z</time>
      </trkpt>
      <trkpt lat="42.8489030" lon="-0.3318770">
        <ele>2217.4</ele>
        <time>2020-09-11T13:47:46Z</time>
      </trkpt>
      <trkpt lat="42.8489190" lon="-0.3318760">
        <ele>2217.0</ele>
        <time>2020-09-11T13:47:48Z</time>
      </trkpt>
      <trkpt lat="42.8489680" lon="-0.3319010">
        <ele>2216.0</ele>
        <time>2020-09-11T13:47:53Z</time>
      </trkpt>
      <trkpt lat="42.8490010" lon="-0.3319590">
        <ele>2214.8</ele>
        <time>2020-09-11T13:47:58Z</time>
      </trkpt>
      <trkpt lat="42.8490090" lon="-0.3319690">
        <ele>2214.6</ele>
        <time>2020-09-11T13:47:59Z</time>
      </trkpt>
      <trkpt lat="42.8490780" lon="-0.3319500">
        <ele>2213.6</ele>
        <time>2020-09-11T13:48:07Z</time>
      </trkpt>
      <trkpt lat="42.8490850" lon="-0.3319500">
        <ele>2213.6</ele>
        <time>2020-09-11T13:48:08Z</time>
      </trkpt>
      <trkpt lat="42.8491140" lon="-0.3319790">
        <ele>2212.8</ele>
        <time>2020-09-11T13:48:12Z</time>
      </trkpt>
      <trkpt lat="42.8491230" lon="-0.3319890">
        <ele>2212.4</ele>
        <time>2020-09-11T13:48:13Z</time>
      </trkpt>
      <trkpt lat="42.8491310" lon="-0.3319960">
        <ele>2212.2</ele>
        <time>2020-09-11T13:48:14Z</time>
      </trkpt>
      <trkpt lat="42.8491460" lon="-0.3320020">
        <ele>2211.8</ele>
        <time>2020-09-11T13:48:16Z</time>
      </trkpt>
      <trkpt lat="42.8491570" lon="-0.3320070">
        <ele>2211.4</ele>
        <time>2020-09-11T13:48:18Z</time>
      </trkpt>
      <trkpt lat="42.8491610" lon="-0.3320150">
        <ele>2211.2</ele>
        <time>2020-09-11T13:48:19Z</time>
      </trkpt>
      <trkpt lat="42.8491650" lon="-0.3320260">
        <ele>2211.0</ele>
        <time>2020-09-11T13:48:20Z</time>
      </trkpt>
      <trkpt lat="42.8491740" lon="-0.3320500">
        <ele>2210.6</ele>
        <time>2020-09-11T13:48:22Z</time>
      </trkpt>
      <trkpt lat="42.8491850" lon="-0.3320790">
        <ele>2210.2</ele>
        <time>2020-09-11T13:48:24Z</time>
      </trkpt>
      <trkpt lat="42.8491940" lon="-0.3320910">
        <ele>2210.0</ele>
        <time>2020-09-11T13:48:25Z</time>
      </trkpt>
      <trkpt lat="42.8492390" lon="-0.3321390">
        <ele>2209.2</ele>
        <time>2020-09-11T13:48:30Z</time>
      </trkpt>
      <trkpt lat="42.8492740" lon="-0.3321920">
        <ele>2208.6</ele>
        <time>2020-09-11T13:48:36Z</time>
      </trkpt>
      <trkpt lat="42.8493110" lon="-0.3322030">
        <ele>2208.2</ele>
        <time>2020-09-11T13:48:41Z</time>
      </trkpt>
      <trkpt lat="42.8493360" lon="-0.3322000">
        <ele>2207.6</ele>
        <time>2020-09-11T13:48:45Z</time>
      </trkpt>
      <trkpt lat="42.8493230" lon="-0.3322160">
        <ele>2207.0</ele>
        <time>2020-09-11T13:48:48Z</time>
      </trkpt>
      <trkpt lat="42.8493040" lon="-0.3322290">
        <ele>2206.8</ele>
        <time>2020-09-11T13:48:51Z</time>
      </trkpt>
      <trkpt lat="42.8493230" lon="-0.3322790">
        <ele>2206.0</ele>
        <time>2020-09-11T13:49:38Z</time>
      </trkpt>
      <trkpt lat="42.8493540" lon="-0.3322940">
        <ele>2205.0</ele>
        <time>2020-09-11T13:49:42Z</time>
      </trkpt>
      <trkpt lat="42.8493840" lon="-0.3323260">
        <ele>2203.8</ele>
        <time>2020-09-11T13:49:46Z</time>
      </trkpt>
      <trkpt lat="42.8493960" lon="-0.3323370">
        <ele>2203.2</ele>
        <time>2020-09-11T13:49:48Z</time>
      </trkpt>
      <trkpt lat="42.8493930" lon="-0.3323780">
        <ele>2202.8</ele>
        <time>2020-09-11T13:49:52Z</time>
      </trkpt>
      <trkpt lat="42.8493970" lon="-0.3323880">
        <ele>2202.6</ele>
        <time>2020-09-11T13:49:53Z</time>
      </trkpt>
      <trkpt lat="42.8494170" lon="-0.3324110">
        <ele>2201.6</ele>
        <time>2020-09-11T13:49:56Z</time>
      </trkpt>
      <trkpt lat="42.8494190" lon="-0.3324250">
        <ele>2201.2</ele>
        <time>2020-09-11T13:49:57Z</time>
      </trkpt>
      <trkpt lat="42.8494170" lon="-0.3324940">
        <ele>2200.6</ele>
        <time>2020-09-11T13:50:01Z</time>
      </trkpt>
      <trkpt lat="42.8494220" lon="-0.3325120">
        <ele>2200.4</ele>
        <time>2020-09-11T13:50:02Z</time>
      </trkpt>
      <trkpt lat="42.8494370" lon="-0.3325440">
        <ele>2200.2</ele>
        <time>2020-09-11T13:50:04Z</time>
      </trkpt>
      <trkpt lat="42.8494960" lon="-0.3325940">
        <ele>2199.2</ele>
        <time>2020-09-11T13:50:10Z</time>
      </trkpt>
      <trkpt lat="42.8495610" lon="-0.3325570">
        <ele>2198.2</ele>
        <time>2020-09-11T13:50:16Z</time>
      </trkpt>
      <trkpt lat="42.8495860" lon="-0.3325480">
        <ele>2197.8</ele>
        <time>2020-09-11T13:50:18Z</time>
      </trkpt>
      <trkpt lat="42.8496210" lon="-0.3325340">
        <ele>2197.0</ele>
        <time>2020-09-11T13:50:21Z</time>
      </trkpt>
      <trkpt lat="42.8496260" lon="-0.3325320">
        <ele>2196.8</ele>
        <time>2020-09-11T13:50:22Z</time>
      </trkpt>
      <trkpt lat="42.8496710" lon="-0.3325220">
        <ele>2195.8</ele>
        <time>2020-09-11T13:50:28Z</time>
      </trkpt>
      <trkpt lat="42.8496740" lon="-0.3325160">
        <ele>2195.4</ele>
        <time>2020-09-11T13:50:29Z</time>
      </trkpt>
      <trkpt lat="42.8496840" lon="-0.3325010">
        <ele>2194.6</ele>
        <time>2020-09-11T13:50:31Z</time>
      </trkpt>
      <trkpt lat="42.8497190" lon="-0.3324750">
        <ele>2194.0</ele>
        <time>2020-09-11T13:50:36Z</time>
      </trkpt>
      <trkpt lat="42.8497550" lon="-0.3324790">
        <ele>2193.8</ele>
        <time>2020-09-11T13:50:39Z</time>
      </trkpt>
      <trkpt lat="42.8497840" lon="-0.3324780">
        <ele>2193.8</ele>
        <time>2020-09-11T13:50:41Z</time>
      </trkpt>
      <trkpt lat="42.8498480" lon="-0.3324880">
        <ele>2193.8</ele>
        <time>2020-09-11T13:50:45Z</time>
      </trkpt>
      <trkpt lat="42.8498670" lon="-0.3324900">
        <ele>2193.8</ele>
        <time>2020-09-11T13:50:47Z</time>
      </trkpt>
      <trkpt lat="42.8498980" lon="-0.3324970">
        <ele>2193.4</ele>
        <time>2020-09-11T13:50:50Z</time>
      </trkpt>
      <trkpt lat="42.8499180" lon="-0.3325060">
        <ele>2192.8</ele>
        <time>2020-09-11T13:50:52Z</time>
      </trkpt>
      <trkpt lat="42.8499460" lon="-0.3325140">
        <ele>2192.0</ele>
        <time>2020-09-11T13:50:54Z</time>
      </trkpt>
      <trkpt lat="42.8499730" lon="-0.3325100">
        <ele>2191.0</ele>
        <time>2020-09-11T13:50:57Z</time>
      </trkpt>
      <trkpt lat="42.8499940" lon="-0.3325160">
        <ele>2190.0</ele>
        <time>2020-09-11T13:51:01Z</time>
      </trkpt>
      <trkpt lat="42.8499940" lon="-0.3325140">
        <ele>2189.2</ele>
        <time>2020-09-11T13:51:05Z</time>
      </trkpt>
      <trkpt lat="42.8500170" lon="-0.3324520">
        <ele>2189.4</ele>
        <time>2020-09-11T13:51:14Z</time>
      </trkpt>
      <trkpt lat="42.8500220" lon="-0.3324150">
        <ele>2189.0</ele>
        <time>2020-09-11T13:51:16Z</time>
      </trkpt>
      <trkpt lat="42.8500250" lon="-0.3324000">
        <ele>2188.8</ele>
        <time>2020-09-11T13:51:17Z</time>
      </trkpt>
      <trkpt lat="42.8500330" lon="-0.3323930">
        <ele>2188.4</ele>
        <time>2020-09-11T13:51:18Z</time>
      </trkpt>
      <trkpt lat="42.8500650" lon="-0.3324220">
        <ele>2187.6</ele>
        <time>2020-09-11T13:51:21Z</time>
      </trkpt>
      <trkpt lat="42.8500890" lon="-0.3324690">
        <ele>2186.4</ele>
        <time>2020-09-11T13:51:25Z</time>
      </trkpt>
      <trkpt lat="42.8500940" lon="-0.3324780">
        <ele>2186.2</ele>
        <time>2020-09-11T13:51:26Z</time>
      </trkpt>
      <trkpt lat="42.8501110" lon="-0.3325120">
        <ele>2185.4</ele>
        <time>2020-09-11T13:51:29Z</time>
      </trkpt>
      <trkpt lat="42.8501180" lon="-0.3325360">
        <ele>2185.0</ele>
        <time>2020-09-11T13:51:31Z</time>
      </trkpt>
      <trkpt lat="42.8501280" lon="-0.3325580">
        <ele>2184.6</ele>
        <time>2020-09-11T13:51:33Z</time>
      </trkpt>
      <trkpt lat="42.8501530" lon="-0.3325490">
        <ele>2184.2</ele>
        <time>2020-09-11T13:51:36Z</time>
      </trkpt>
      <trkpt lat="42.8501630" lon="-0.3325390">
        <ele>2183.6</ele>
        <time>2020-09-11T13:51:38Z</time>
      </trkpt>
      <trkpt lat="42.8501740" lon="-0.3325330">
        <ele>2183.0</ele>
        <time>2020-09-11T13:51:40Z</time>
      </trkpt>
      <trkpt lat="42.8501920" lon="-0.3325310">
        <ele>2182.4</ele>
        <time>2020-09-11T13:51:42Z</time>
      </trkpt>
      <trkpt lat="42.8501990" lon="-0.3325300">
        <ele>2182.0</ele>
        <time>2020-09-11T13:51:43Z</time>
      </trkpt>
      <trkpt lat="42.8502050" lon="-0.3325350">
        <ele>2181.8</ele>
        <time>2020-09-11T13:51:44Z</time>
      </trkpt>
      <trkpt lat="42.8502080" lon="-0.3325650">
        <ele>2181.0</ele>
        <time>2020-09-11T13:51:47Z</time>
      </trkpt>
      <trkpt lat="42.8502110" lon="-0.3326250">
        <ele>2180.0</ele>
        <time>2020-09-11T13:51:52Z</time>
      </trkpt>
      <trkpt lat="42.8502130" lon="-0.3326400">
        <ele>2179.6</ele>
        <time>2020-09-11T13:51:53Z</time>
      </trkpt>
      <trkpt lat="42.8502130" lon="-0.3326520">
        <ele>2179.2</ele>
        <time>2020-09-11T13:51:54Z</time>
      </trkpt>
      <trkpt lat="42.8502080" lon="-0.3326800">
        <ele>2178.4</ele>
        <time>2020-09-11T13:51:56Z</time>
      </trkpt>
      <trkpt lat="42.8501920" lon="-0.3327200">
        <ele>2177.6</ele>
        <time>2020-09-11T13:52:00Z</time>
      </trkpt>
      <trkpt lat="42.8501930" lon="-0.3327290">
        <ele>2177.4</ele>
        <time>2020-09-11T13:52:01Z</time>
      </trkpt>
      <trkpt lat="42.8501980" lon="-0.3327450">
        <ele>2176.8</ele>
        <time>2020-09-11T13:52:03Z</time>
      </trkpt>
      <trkpt lat="42.8502160" lon="-0.3327310">
        <ele>2176.0</ele>
        <time>2020-09-11T13:52:06Z</time>
      </trkpt>
      <trkpt lat="42.8502200" lon="-0.3327480">
        <ele>2175.0</ele>
        <time>2020-09-11T13:52:09Z</time>
      </trkpt>
      <trkpt lat="42.8502070" lon="-0.3327800">
        <ele>2173.6</ele>
        <time>2020-09-11T13:52:14Z</time>
      </trkpt>
      <trkpt lat="42.8502330" lon="-0.3327660">
        <ele>2172.6</ele>
        <time>2020-09-11T13:52:19Z</time>
      </trkpt>
      <trkpt lat="42.8502480" lon="-0.3327720">
        <ele>2171.4</ele>
        <time>2020-09-11T13:52:23Z</time>
      </trkpt>
      <trkpt lat="42.8502420" lon="-0.3327940">
        <ele>2170.4</ele>
        <time>2020-09-11T13:52:26Z</time>
      </trkpt>
      <trkpt lat="42.8502430" lon="-0.3328220">
        <ele>2169.4</ele>
        <time>2020-09-11T13:52:29Z</time>
      </trkpt>
      <trkpt lat="42.8502720" lon="-0.3328430">
        <ele>2168.2</ele>
        <time>2020-09-11T13:52:34Z</time>
      </trkpt>
      <trkpt lat="42.8503090" lon="-0.3328640">
        <ele>2167.2</ele>
        <time>2020-09-11T13:52:39Z</time>
      </trkpt>
      <trkpt lat="42.8503260" lon="-0.3328880">
        <ele>2165.8</ele>
        <time>2020-09-11T13:52:42Z</time>
      </trkpt>
      <trkpt lat="42.8503470" lon="-0.3328850">
        <ele>2164.6</ele>
        <time>2020-09-11T13:52:45Z</time>
      </trkpt>
      <trkpt lat="42.8503680" lon="-0.3328780">
        <ele>2163.6</ele>
        <time>2020-09-11T13:52:48Z</time>
      </trkpt>
      <trkpt lat="42.8504100" lon="-0.3328710">
        <ele>2162.4</ele>
        <time>2020-09-11T13:52:53Z</time>
      </trkpt>
      <trkpt lat="42.8504180" lon="-0.3328670">
        <ele>2162.2</ele>
        <time>2020-09-11T13:52:54Z</time>
      </trkpt>
      <trkpt lat="42.8504330" lon="-0.3328680">
        <ele>2161.4</ele>
        <time>2020-09-11T13:52:56Z</time>
      </trkpt>
      <trkpt lat="42.8504580" lon="-0.3328690">
        <ele>2160.2</ele>
        <time>2020-09-11T13:52:59Z</time>
      </trkpt>
      <trkpt lat="42.8504620" lon="-0.3328690">
        <ele>2160.0</ele>
        <time>2020-09-11T13:53:00Z</time>
      </trkpt>
      <trkpt lat="42.8504860" lon="-0.3328520">
        <ele>2159.0</ele>
        <time>2020-09-11T13:53:03Z</time>
      </trkpt>
      <trkpt lat="42.8505010" lon="-0.3328570">
        <ele>2158.2</ele>
        <time>2020-09-11T13:53:05Z</time>
      </trkpt>
      <trkpt lat="42.8505050" lon="-0.3328690">
        <ele>2158.0</ele>
        <time>2020-09-11T13:53:06Z</time>
      </trkpt>
      <trkpt lat="42.8505020" lon="-0.3328830">
        <ele>2157.2</ele>
        <time>2020-09-11T13:53:08Z</time>
      </trkpt>
      <trkpt lat="42.8505000" lon="-0.3328850">
        <ele>2156.8</ele>
        <time>2020-09-11T13:53:09Z</time>
      </trkpt>
      <trkpt lat="42.8505030" lon="-0.3329110">
        <ele>2155.6</ele>
        <time>2020-09-11T13:53:13Z</time>
      </trkpt>
      <trkpt lat="42.8505180" lon="-0.3329700">
        <ele>2154.6</ele>
        <time>2020-09-11T13:53:19Z</time>
      </trkpt>
      <trkpt lat="42.8505310" lon="-0.3330030">
        <ele>2153.4</ele>
        <time>2020-09-11T13:53:23Z</time>
      </trkpt>
      <trkpt lat="42.8505480" lon="-0.3330240">
        <ele>2152.2</ele>
        <time>2020-09-11T13:53:27Z</time>
      </trkpt>
      <trkpt lat="42.8505510" lon="-0.3330640">
        <ele>2151.0</ele>
        <time>2020-09-11T13:53:31Z</time>
      </trkpt>
      <trkpt lat="42.8505630" lon="-0.3330610">
        <ele>2150.0</ele>
        <time>2020-09-11T13:53:34Z</time>
      </trkpt>
      <trkpt lat="42.8505840" lon="-0.3330800">
        <ele>2148.8</ele>
        <time>2020-09-11T13:53:39Z</time>
      </trkpt>
      <trkpt lat="42.8506040" lon="-0.3330690">
        <ele>2147.4</ele>
        <time>2020-09-11T13:53:43Z</time>
      </trkpt>
      <trkpt lat="42.8506230" lon="-0.3330650">
        <ele>2146.2</ele>
        <time>2020-09-11T13:53:47Z</time>
      </trkpt>
      <trkpt lat="42.8506420" lon="-0.3330820">
        <ele>2145.2</ele>
        <time>2020-09-11T13:53:52Z</time>
      </trkpt>
      <trkpt lat="42.8506440" lon="-0.3331010">
        <ele>2144.2</ele>
        <time>2020-09-11T13:53:55Z</time>
      </trkpt>
      <trkpt lat="42.8506610" lon="-0.3331440">
        <ele>2143.0</ele>
        <time>2020-09-11T13:54:00Z</time>
      </trkpt>
      <trkpt lat="42.8506710" lon="-0.3331660">
        <ele>2141.8</ele>
        <time>2020-09-11T13:54:04Z</time>
      </trkpt>
      <trkpt lat="42.8506770" lon="-0.3331790">
        <ele>2140.8</ele>
        <time>2020-09-11T13:54:07Z</time>
      </trkpt>
      <trkpt lat="42.8506810" lon="-0.3332090">
        <ele>2139.6</ele>
        <time>2020-09-11T13:54:11Z</time>
      </trkpt>
      <trkpt lat="42.8506920" lon="-0.3332250">
        <ele>2138.6</ele>
        <time>2020-09-11T13:54:15Z</time>
      </trkpt>
      <trkpt lat="42.8507160" lon="-0.3332270">
        <ele>2137.6</ele>
        <time>2020-09-11T13:54:21Z</time>
      </trkpt>
      <trkpt lat="42.8507380" lon="-0.3332420">
        <ele>2136.4</ele>
        <time>2020-09-11T13:54:26Z</time>
      </trkpt>
      <trkpt lat="42.8507490" lon="-0.3332460">
        <ele>2135.2</ele>
        <time>2020-09-11T13:54:29Z</time>
      </trkpt>
      <trkpt lat="42.8507610" lon="-0.3332740">
        <ele>2134.2</ele>
        <time>2020-09-11T13:54:33Z</time>
      </trkpt>
      <trkpt lat="42.8507700" lon="-0.3333110">
        <ele>2132.8</ele>
        <time>2020-09-11T13:54:37Z</time>
      </trkpt>
      <trkpt lat="42.8508010" lon="-0.3333180">
        <ele>2131.8</ele>
        <time>2020-09-11T13:54:42Z</time>
      </trkpt>
      <trkpt lat="42.8508220" lon="-0.3333340">
        <ele>2130.6</ele>
        <time>2020-09-11T13:54:45Z</time>
      </trkpt>
      <trkpt lat="42.8508410" lon="-0.3333430">
        <ele>2129.6</ele>
        <time>2020-09-11T13:54:48Z</time>
      </trkpt>
      <trkpt lat="42.8508600" lon="-0.3333350">
        <ele>2128.2</ele>
        <time>2020-09-11T13:54:51Z</time>
      </trkpt>
      <trkpt lat="42.8508880" lon="-0.3333350">
        <ele>2127.2</ele>
        <time>2020-09-11T13:54:54Z</time>
      </trkpt>
      <trkpt lat="42.8509130" lon="-0.3333700">
        <ele>2126.0</ele>
        <time>2020-09-11T13:54:58Z</time>
      </trkpt>
      <trkpt lat="42.8509400" lon="-0.3334270">
        <ele>2124.8</ele>
        <time>2020-09-11T13:55:02Z</time>
      </trkpt>
      <trkpt lat="42.8509680" lon="-0.3334940">
        <ele>2123.4</ele>
        <time>2020-09-11T13:55:05Z</time>
      </trkpt>
      <trkpt lat="42.8509880" lon="-0.3335370">
        <ele>2122.4</ele>
        <time>2020-09-11T13:55:08Z</time>
      </trkpt>
      <trkpt lat="42.8509890" lon="-0.3335540">
        <ele>2121.8</ele>
        <time>2020-09-11T13:55:10Z</time>
      </trkpt>
      <trkpt lat="42.8509800" lon="-0.3335680">
        <ele>2121.2</ele>
        <time>2020-09-11T13:55:12Z</time>
      </trkpt>
      <trkpt lat="42.8510050" lon="-0.3336350">
        <ele>2120.2</ele>
        <time>2020-09-11T13:55:17Z</time>
      </trkpt>
      <trkpt lat="42.8510090" lon="-0.3336960">
        <ele>2119.0</ele>
        <time>2020-09-11T13:55:21Z</time>
      </trkpt>
      <trkpt lat="42.8510010" lon="-0.3337520">
        <ele>2117.8</ele>
        <time>2020-09-11T13:55:26Z</time>
      </trkpt>
      <trkpt lat="42.8510130" lon="-0.3337840">
        <ele>2116.8</ele>
        <time>2020-09-11T13:55:30Z</time>
      </trkpt>
      <trkpt lat="42.8510190" lon="-0.3338030">
        <ele>2116.2</ele>
        <time>2020-09-11T13:55:32Z</time>
      </trkpt>
      <trkpt lat="42.8510100" lon="-0.3338320">
        <ele>2115.6</ele>
        <time>2020-09-11T13:55:35Z</time>
      </trkpt>
      <trkpt lat="42.8510010" lon="-0.3338720">
        <ele>2114.4</ele>
        <time>2020-09-11T13:55:39Z</time>
      </trkpt>
      <trkpt lat="42.8509860" lon="-0.3338990">
        <ele>2113.2</ele>
        <time>2020-09-11T13:55:43Z</time>
      </trkpt>
      <trkpt lat="42.8509940" lon="-0.3339440">
        <ele>2112.0</ele>
        <time>2020-09-11T13:55:46Z</time>
      </trkpt>
      <trkpt lat="42.8510040" lon="-0.3339830">
        <ele>2111.4</ele>
        <time>2020-09-11T13:55:49Z</time>
      </trkpt>
      <trkpt lat="42.8510330" lon="-0.3340070">
        <ele>2110.8</ele>
        <time>2020-09-11T13:55:53Z</time>
      </trkpt>
      <trkpt lat="42.8510470" lon="-0.3340240">
        <ele>2109.6</ele>
        <time>2020-09-11T13:55:56Z</time>
      </trkpt>
      <trkpt lat="42.8510490" lon="-0.3340300">
        <ele>2109.2</ele>
        <time>2020-09-11T13:55:57Z</time>
      </trkpt>
      <trkpt lat="42.8510500" lon="-0.3340470">
        <ele>2108.6</ele>
        <time>2020-09-11T13:55:59Z</time>
      </trkpt>
      <trkpt lat="42.8510400" lon="-0.3340730">
        <ele>2107.4</ele>
        <time>2020-09-11T13:56:03Z</time>
      </trkpt>
      <trkpt lat="42.8510630" lon="-0.3341000">
        <ele>2106.4</ele>
        <time>2020-09-11T13:56:07Z</time>
      </trkpt>
      <trkpt lat="42.8510680" lon="-0.3341390">
        <ele>2105.4</ele>
        <time>2020-09-11T13:56:12Z</time>
      </trkpt>
      <trkpt lat="42.8510550" lon="-0.3341740">
        <ele>2104.2</ele>
        <time>2020-09-11T13:56:16Z</time>
      </trkpt>
      <trkpt lat="42.8510700" lon="-0.3342050">
        <ele>2103.2</ele>
        <time>2020-09-11T13:56:21Z</time>
      </trkpt>
      <trkpt lat="42.8510690" lon="-0.3342760">
        <ele>2102.0</ele>
        <time>2020-09-11T13:56:27Z</time>
      </trkpt>
      <trkpt lat="42.8510710" lon="-0.3343120">
        <ele>2101.0</ele>
        <time>2020-09-11T13:56:30Z</time>
      </trkpt>
      <trkpt lat="42.8510670" lon="-0.3343390">
        <ele>2099.8</ele>
        <time>2020-09-11T13:56:33Z</time>
      </trkpt>
      <trkpt lat="42.8510630" lon="-0.3343760">
        <ele>2098.6</ele>
        <time>2020-09-11T13:56:36Z</time>
      </trkpt>
      <trkpt lat="42.8510670" lon="-0.3344140">
        <ele>2097.6</ele>
        <time>2020-09-11T13:56:40Z</time>
      </trkpt>
      <trkpt lat="42.8510460" lon="-0.3344420">
        <ele>2096.4</ele>
        <time>2020-09-11T13:56:44Z</time>
      </trkpt>
      <trkpt lat="42.8510270" lon="-0.3344570">
        <ele>2095.4</ele>
        <time>2020-09-11T13:56:50Z</time>
      </trkpt>
      <trkpt lat="42.8510590" lon="-0.3344870">
        <ele>2094.4</ele>
        <time>2020-09-11T13:56:55Z</time>
      </trkpt>
      <trkpt lat="42.8510790" lon="-0.3344760">
        <ele>2093.0</ele>
        <time>2020-09-11T13:56:59Z</time>
      </trkpt>
      <trkpt lat="42.8510900" lon="-0.3344570">
        <ele>2092.0</ele>
        <time>2020-09-11T13:57:02Z</time>
      </trkpt>
      <trkpt lat="42.8511420" lon="-0.3344120">
        <ele>2090.6</ele>
        <time>2020-09-11T13:57:08Z</time>
      </trkpt>
      <trkpt lat="42.8511740" lon="-0.3343820">
        <ele>2089.6</ele>
        <time>2020-09-11T13:57:12Z</time>
      </trkpt>
      <trkpt lat="42.8512070" lon="-0.3343550">
        <ele>2088.4</ele>
        <time>2020-09-11T13:57:16Z</time>
      </trkpt>
      <trkpt lat="42.8512430" lon="-0.3343290">
        <ele>2087.0</ele>
        <time>2020-09-11T13:57:21Z</time>
      </trkpt>
      <trkpt lat="42.8512740" lon="-0.3343170">
        <ele>2085.8</ele>
        <time>2020-09-11T13:57:25Z</time>
      </trkpt>
      <trkpt lat="42.8512860" lon="-0.3343620">
        <ele>2084.6</ele>
        <time>2020-09-11T13:57:30Z</time>
      </trkpt>
      <trkpt lat="42.8513030" lon="-0.3343950">
        <ele>2083.4</ele>
        <time>2020-09-11T13:57:33Z</time>
      </trkpt>
      <trkpt lat="42.8513010" lon="-0.3344350">
        <ele>2082.4</ele>
        <time>2020-09-11T13:57:36Z</time>
      </trkpt>
      <trkpt lat="42.8513100" lon="-0.3344440">
        <ele>2081.6</ele>
        <time>2020-09-11T13:57:38Z</time>
      </trkpt>
      <trkpt lat="42.8513170" lon="-0.3344410">
        <ele>2081.2</ele>
        <time>2020-09-11T13:57:39Z</time>
      </trkpt>
      <trkpt lat="42.8513350" lon="-0.3344460">
        <ele>2080.0</ele>
        <time>2020-09-11T13:57:44Z</time>
      </trkpt>
      <trkpt lat="42.8513480" lon="-0.3344440">
        <ele>2079.0</ele>
        <time>2020-09-11T13:57:47Z</time>
      </trkpt>
      <trkpt lat="42.8513490" lon="-0.3344690">
        <ele>2078.0</ele>
        <time>2020-09-11T13:57:51Z</time>
      </trkpt>
      <trkpt lat="42.8513750" lon="-0.3344680">
        <ele>2076.8</ele>
        <time>2020-09-11T13:57:56Z</time>
      </trkpt>
      <trkpt lat="42.8514020" lon="-0.3344740">
        <ele>2075.6</ele>
        <time>2020-09-11T13:58:00Z</time>
      </trkpt>
      <trkpt lat="42.8514250" lon="-0.3345100">
        <ele>2074.6</ele>
        <time>2020-09-11T13:58:04Z</time>
      </trkpt>
      <trkpt lat="42.8514440" lon="-0.3345270">
        <ele>2073.4</ele>
        <time>2020-09-11T13:58:07Z</time>
      </trkpt>
      <trkpt lat="42.8514780" lon="-0.3345870">
        <ele>2072.0</ele>
        <time>2020-09-11T13:58:15Z</time>
      </trkpt>
      <trkpt lat="42.8515050" lon="-0.3345920">
        <ele>2071.0</ele>
        <time>2020-09-11T13:58:18Z</time>
      </trkpt>
      <trkpt lat="42.8515360" lon="-0.3346020">
        <ele>2069.8</ele>
        <time>2020-09-11T13:58:21Z</time>
      </trkpt>
      <trkpt lat="42.8515350" lon="-0.3346280">
        <ele>2068.8</ele>
        <time>2020-09-11T13:58:24Z</time>
      </trkpt>
      <trkpt lat="42.8515270" lon="-0.3346790">
        <ele>2067.6</ele>
        <time>2020-09-11T13:58:28Z</time>
      </trkpt>
      <trkpt lat="42.8515680" lon="-0.3346970">
        <ele>2066.6</ele>
        <time>2020-09-11T13:58:34Z</time>
      </trkpt>
      <trkpt lat="42.8515980" lon="-0.3347000">
        <ele>2065.6</ele>
        <time>2020-09-11T13:58:38Z</time>
      </trkpt>
      <trkpt lat="42.8516140" lon="-0.3347270">
        <ele>2064.4</ele>
        <time>2020-09-11T13:58:41Z</time>
      </trkpt>
      <trkpt lat="42.8516300" lon="-0.3347600">
        <ele>2063.2</ele>
        <time>2020-09-11T13:58:44Z</time>
      </trkpt>
      <trkpt lat="42.8516430" lon="-0.3348000">
        <ele>2062.0</ele>
        <time>2020-09-11T13:58:49Z</time>
      </trkpt>
      <trkpt lat="42.8516590" lon="-0.3348490">
        <ele>2060.6</ele>
        <time>2020-09-11T13:58:53Z</time>
      </trkpt>
      <trkpt lat="42.8516580" lon="-0.3348970">
        <ele>2059.6</ele>
        <time>2020-09-11T13:58:57Z</time>
      </trkpt>
      <trkpt lat="42.8516590" lon="-0.3349090">
        <ele>2059.6</ele>
        <time>2020-09-11T13:58:58Z</time>
      </trkpt>
      <trkpt lat="42.8516920" lon="-0.3350020">
        <ele>2058.6</ele>
        <time>2020-09-11T13:59:04Z</time>
      </trkpt>
      <trkpt lat="42.8516790" lon="-0.3352170">
        <ele>2057.6</ele>
        <time>2020-09-11T13:59:17Z</time>
      </trkpt>
      <trkpt lat="42.8516610" lon="-0.3352830">
        <ele>2056.6</ele>
        <time>2020-09-11T13:59:23Z</time>
      </trkpt>
      <trkpt lat="42.8516630" lon="-0.3352940">
        <ele>2056.4</ele>
        <time>2020-09-11T13:59:24Z</time>
      </trkpt>
      <trkpt lat="42.8516760" lon="-0.3353450">
        <ele>2055.4</ele>
        <time>2020-09-11T13:59:29Z</time>
      </trkpt>
      <trkpt lat="42.8516740" lon="-0.3353800">
        <ele>2054.6</ele>
        <time>2020-09-11T13:59:32Z</time>
      </trkpt>
      <trkpt lat="42.8516780" lon="-0.3353820">
        <ele>2054.2</ele>
        <time>2020-09-11T13:59:33Z</time>
      </trkpt>
      <trkpt lat="42.8516890" lon="-0.3353820">
        <ele>2053.8</ele>
        <time>2020-09-11T13:59:35Z</time>
      </trkpt>
      <trkpt lat="42.8516910" lon="-0.3354030">
        <ele>2053.2</ele>
        <time>2020-09-11T13:59:37Z</time>
      </trkpt>
      <trkpt lat="42.8516880" lon="-0.3354170">
        <ele>2052.6</ele>
        <time>2020-09-11T13:59:39Z</time>
      </trkpt>
      <trkpt lat="42.8516820" lon="-0.3354310">
        <ele>2052.2</ele>
        <time>2020-09-11T13:59:41Z</time>
      </trkpt>
      <trkpt lat="42.8516810" lon="-0.3354310">
        <ele>2052.0</ele>
        <time>2020-09-11T13:59:42Z</time>
      </trkpt>
      <trkpt lat="42.8516830" lon="-0.3354330">
        <ele>2052.0</ele>
        <time>2020-09-11T13:59:46Z</time>
      </trkpt>
      <trkpt lat="42.8516550" lon="-0.3354190">
        <ele>2051.0</ele>
        <time>2020-09-11T14:00:01Z</time>
      </trkpt>
      <trkpt lat="42.8516300" lon="-0.3354570">
        <ele>2051.2</ele>
        <time>2020-09-11T14:00:13Z</time>
      </trkpt>
      <trkpt lat="42.8516910" lon="-0.3354350">
        <ele>2051.0</ele>
        <time>2020-09-11T14:00:56Z</time>
      </trkpt>
      <trkpt lat="42.8517220" lon="-0.3354370">
        <ele>2050.4</ele>
        <time>2020-09-11T14:00:59Z</time>
      </trkpt>
      <trkpt lat="42.8517460" lon="-0.3354350">
        <ele>2050.0</ele>
        <time>2020-09-11T14:01:01Z</time>
      </trkpt>
      <trkpt lat="42.8517630" lon="-0.3354580">
        <ele>2049.2</ele>
        <time>2020-09-11T14:01:03Z</time>
      </trkpt>
      <trkpt lat="42.8517740" lon="-0.3354660">
        <ele>2048.6</ele>
        <time>2020-09-11T14:01:04Z</time>
      </trkpt>
      <trkpt lat="42.8518190" lon="-0.3355050">
        <ele>2047.4</ele>
        <time>2020-09-11T14:01:08Z</time>
      </trkpt>
      <trkpt lat="42.8518550" lon="-0.3355740">
        <ele>2046.2</ele>
        <time>2020-09-11T14:01:12Z</time>
      </trkpt>
      <trkpt lat="42.8518690" lon="-0.3356140">
        <ele>2045.8</ele>
        <time>2020-09-11T14:01:14Z</time>
      </trkpt>
      <trkpt lat="42.8519080" lon="-0.3356650">
        <ele>2045.0</ele>
        <time>2020-09-11T14:01:18Z</time>
      </trkpt>
      <trkpt lat="42.8519730" lon="-0.3357130">
        <ele>2044.0</ele>
        <time>2020-09-11T14:01:24Z</time>
      </trkpt>
      <trkpt lat="42.8520240" lon="-0.3357310">
        <ele>2043.0</ele>
        <time>2020-09-11T14:01:28Z</time>
      </trkpt>
      <trkpt lat="42.8520340" lon="-0.3357410">
        <ele>2042.8</ele>
        <time>2020-09-11T14:01:29Z</time>
      </trkpt>
      <trkpt lat="42.8520910" lon="-0.3357930">
        <ele>2041.6</ele>
        <time>2020-09-11T14:01:34Z</time>
      </trkpt>
      <trkpt lat="42.8521080" lon="-0.3358300">
        <ele>2040.6</ele>
        <time>2020-09-11T14:01:37Z</time>
      </trkpt>
      <trkpt lat="42.8521130" lon="-0.3358410">
        <ele>2040.2</ele>
        <time>2020-09-11T14:01:38Z</time>
      </trkpt>
      <trkpt lat="42.8521240" lon="-0.3358360">
        <ele>2039.6</ele>
        <time>2020-09-11T14:01:40Z</time>
      </trkpt>
      <trkpt lat="42.8521260" lon="-0.3358090">
        <ele>2039.0</ele>
        <time>2020-09-11T14:01:42Z</time>
      </trkpt>
      <trkpt lat="42.8521310" lon="-0.3357850">
        <ele>2038.4</ele>
        <time>2020-09-11T14:01:44Z</time>
      </trkpt>
      <trkpt lat="42.8521460" lon="-0.3357610">
        <ele>2038.0</ele>
        <time>2020-09-11T14:01:46Z</time>
      </trkpt>
      <trkpt lat="42.8521500" lon="-0.3357020">
        <ele>2037.2</ele>
        <time>2020-09-11T14:01:49Z</time>
      </trkpt>
      <trkpt lat="42.8521600" lon="-0.3356520">
        <ele>2036.4</ele>
        <time>2020-09-11T14:01:52Z</time>
      </trkpt>
      <trkpt lat="42.8521630" lon="-0.3356330">
        <ele>2036.2</ele>
        <time>2020-09-11T14:01:53Z</time>
      </trkpt>
      <trkpt lat="42.8521600" lon="-0.3355790">
        <ele>2035.0</ele>
        <time>2020-09-11T14:01:56Z</time>
      </trkpt>
      <trkpt lat="42.8521530" lon="-0.3354870">
        <ele>2034.0</ele>
        <time>2020-09-11T14:02:01Z</time>
      </trkpt>
      <trkpt lat="42.8521620" lon="-0.3354250">
        <ele>2032.8</ele>
        <time>2020-09-11T14:02:05Z</time>
      </trkpt>
      <trkpt lat="42.8521790" lon="-0.3353530">
        <ele>2031.8</ele>
        <time>2020-09-11T14:02:10Z</time>
      </trkpt>
      <trkpt lat="42.8521980" lon="-0.3353530">
        <ele>2031.6</ele>
        <time>2020-09-11T14:02:12Z</time>
      </trkpt>
      <trkpt lat="42.8522360" lon="-0.3353680">
        <ele>2030.6</ele>
        <time>2020-09-11T14:02:16Z</time>
      </trkpt>
      <trkpt lat="42.8522590" lon="-0.3353800">
        <ele>2029.2</ele>
        <time>2020-09-11T14:02:19Z</time>
      </trkpt>
      <trkpt lat="42.8522950" lon="-0.3354080">
        <ele>2028.2</ele>
        <time>2020-09-11T14:02:23Z</time>
      </trkpt>
      <trkpt lat="42.8523080" lon="-0.3354260">
        <ele>2027.4</ele>
        <time>2020-09-11T14:02:25Z</time>
      </trkpt>
      <trkpt lat="42.8523160" lon="-0.3354320">
        <ele>2026.8</ele>
        <time>2020-09-11T14:02:26Z</time>
      </trkpt>
      <trkpt lat="42.8523220" lon="-0.3354370">
        <ele>2026.2</ele>
        <time>2020-09-11T14:02:27Z</time>
      </trkpt>
      <trkpt lat="42.8523280" lon="-0.3354480">
        <ele>2025.6</ele>
        <time>2020-09-11T14:02:28Z</time>
      </trkpt>
      <trkpt lat="42.8523320" lon="-0.3354610">
        <ele>2025.2</ele>
        <time>2020-09-11T14:02:29Z</time>
      </trkpt>
      <trkpt lat="42.8523520" lon="-0.3354860">
        <ele>2024.4</ele>
        <time>2020-09-11T14:02:31Z</time>
      </trkpt>
      <trkpt lat="42.8523800" lon="-0.3355430">
        <ele>2023.4</ele>
        <time>2020-09-11T14:02:35Z</time>
      </trkpt>
      <trkpt lat="42.8524100" lon="-0.3355830">
        <ele>2022.4</ele>
        <time>2020-09-11T14:02:39Z</time>
      </trkpt>
      <trkpt lat="42.8524130" lon="-0.3355930">
        <ele>2022.2</ele>
        <time>2020-09-11T14:02:40Z</time>
      </trkpt>
      <trkpt lat="42.8524170" lon="-0.3356030">
        <ele>2022.0</ele>
        <time>2020-09-11T14:02:41Z</time>
      </trkpt>
      <trkpt lat="42.8524200" lon="-0.3356750">
        <ele>2021.0</ele>
        <time>2020-09-11T14:02:45Z</time>
      </trkpt>
      <trkpt lat="42.8524210" lon="-0.3356890">
        <ele>2020.8</ele>
        <time>2020-09-11T14:02:46Z</time>
      </trkpt>
      <trkpt lat="42.8524360" lon="-0.3357360">
        <ele>2020.2</ele>
        <time>2020-09-11T14:02:50Z</time>
      </trkpt>
      <trkpt lat="42.8524390" lon="-0.3357490">
        <ele>2019.8</ele>
        <time>2020-09-11T14:02:51Z</time>
      </trkpt>
      <trkpt lat="42.8524310" lon="-0.3357980">
        <ele>2018.4</ele>
        <time>2020-09-11T14:02:54Z</time>
      </trkpt>
      <trkpt lat="42.8524280" lon="-0.3358580">
        <ele>2017.2</ele>
        <time>2020-09-11T14:02:58Z</time>
      </trkpt>
      <trkpt lat="42.8524150" lon="-0.3358820">
        <ele>2016.6</ele>
        <time>2020-09-11T14:03:00Z</time>
      </trkpt>
      <trkpt lat="42.8524090" lon="-0.3359100">
        <ele>2016.2</ele>
        <time>2020-09-11T14:03:02Z</time>
      </trkpt>
      <trkpt lat="42.8523770" lon="-0.3359570">
        <ele>2015.0</ele>
        <time>2020-09-11T14:03:06Z</time>
      </trkpt>
      <trkpt lat="42.8523390" lon="-0.3360150">
        <ele>2013.8</ele>
        <time>2020-09-11T14:03:10Z</time>
      </trkpt>
      <trkpt lat="42.8523360" lon="-0.3360330">
        <ele>2013.4</ele>
        <time>2020-09-11T14:03:11Z</time>
      </trkpt>
      <trkpt lat="42.8523330" lon="-0.3360680">
        <ele>2012.8</ele>
        <time>2020-09-11T14:03:13Z</time>
      </trkpt>
      <trkpt lat="42.8523290" lon="-0.3360850">
        <ele>2012.4</ele>
        <time>2020-09-11T14:03:14Z</time>
      </trkpt>
      <trkpt lat="42.8523010" lon="-0.3361290">
        <ele>2011.6</ele>
        <time>2020-09-11T14:03:17Z</time>
      </trkpt>
      <trkpt lat="42.8522950" lon="-0.3361470">
        <ele>2011.4</ele>
        <time>2020-09-11T14:03:18Z</time>
      </trkpt>
      <trkpt lat="42.8522840" lon="-0.3362000">
        <ele>2010.6</ele>
        <time>2020-09-11T14:03:21Z</time>
      </trkpt>
      <trkpt lat="42.8522680" lon="-0.3362460">
        <ele>2009.8</ele>
        <time>2020-09-11T14:03:24Z</time>
      </trkpt>
      <trkpt lat="42.8522670" lon="-0.3362620">
        <ele>2009.6</ele>
        <time>2020-09-11T14:03:25Z</time>
      </trkpt>
      <trkpt lat="42.8522470" lon="-0.3363460">
        <ele>2008.4</ele>
        <time>2020-09-11T14:03:30Z</time>
      </trkpt>
      <trkpt lat="42.8522440" lon="-0.3363600">
        <ele>2008.2</ele>
        <time>2020-09-11T14:03:31Z</time>
      </trkpt>
      <trkpt lat="42.8522240" lon="-0.3364040">
        <ele>2007.2</ele>
        <time>2020-09-11T14:03:35Z</time>
      </trkpt>
      <trkpt lat="42.8521970" lon="-0.3364520">
        <ele>2006.2</ele>
        <time>2020-09-11T14:03:39Z</time>
      </trkpt>
      <trkpt lat="42.8521770" lon="-0.3365260">
        <ele>2004.8</ele>
        <time>2020-09-11T14:03:44Z</time>
      </trkpt>
      <trkpt lat="42.8521720" lon="-0.3366080">
        <ele>2003.8</ele>
        <time>2020-09-11T14:03:49Z</time>
      </trkpt>
      <trkpt lat="42.8521930" lon="-0.3366920">
        <ele>2002.8</ele>
        <time>2020-09-11T14:03:55Z</time>
      </trkpt>
      <trkpt lat="42.8522050" lon="-0.3367000">
        <ele>2002.8</ele>
        <time>2020-09-11T14:03:56Z</time>
      </trkpt>
      <trkpt lat="42.8522300" lon="-0.3367080">
        <ele>2002.2</ele>
        <time>2020-09-11T14:03:59Z</time>
      </trkpt>
      <trkpt lat="42.8522470" lon="-0.3366840">
        <ele>2001.6</ele>
        <time>2020-09-11T14:04:01Z</time>
      </trkpt>
      <trkpt lat="42.8522610" lon="-0.3366670">
        <ele>2001.2</ele>
        <time>2020-09-11T14:04:03Z</time>
      </trkpt>
      <trkpt lat="42.8522820" lon="-0.3366320">
        <ele>2000.8</ele>
        <time>2020-09-11T14:04:06Z</time>
      </trkpt>
      <trkpt lat="42.8522990" lon="-0.3366150">
        <ele>2000.6</ele>
        <time>2020-09-11T14:04:08Z</time>
      </trkpt>
      <trkpt lat="42.8523360" lon="-0.3366140">
        <ele>2000.0</ele>
        <time>2020-09-11T14:04:11Z</time>
      </trkpt>
      <trkpt lat="42.8523440" lon="-0.3366520">
        <ele>1999.2</ele>
        <time>2020-09-11T14:04:14Z</time>
      </trkpt>
      <trkpt lat="42.8523500" lon="-0.3366630">
        <ele>1998.8</ele>
        <time>2020-09-11T14:04:15Z</time>
      </trkpt>
      <trkpt lat="42.8523710" lon="-0.3366850">
        <ele>1998.2</ele>
        <time>2020-09-11T14:04:17Z</time>
      </trkpt>
      <trkpt lat="42.8523840" lon="-0.3366920">
        <ele>1997.8</ele>
        <time>2020-09-11T14:04:18Z</time>
      </trkpt>
      <trkpt lat="42.8524300" lon="-0.3366860">
        <ele>1997.2</ele>
        <time>2020-09-11T14:04:21Z</time>
      </trkpt>
      <trkpt lat="42.8524380" lon="-0.3366770">
        <ele>1997.0</ele>
        <time>2020-09-11T14:04:22Z</time>
      </trkpt>
      <trkpt lat="42.8524760" lon="-0.3366420">
        <ele>1995.6</ele>
        <time>2020-09-11T14:04:26Z</time>
      </trkpt>
      <trkpt lat="42.8524850" lon="-0.3366350">
        <ele>1995.4</ele>
        <time>2020-09-11T14:04:27Z</time>
      </trkpt>
      <trkpt lat="42.8525180" lon="-0.3366130">
        <ele>1994.4</ele>
        <time>2020-09-11T14:04:31Z</time>
      </trkpt>
      <trkpt lat="42.8525420" lon="-0.3366060">
        <ele>1994.0</ele>
        <time>2020-09-11T14:04:34Z</time>
      </trkpt>
      <trkpt lat="42.8525690" lon="-0.3365910">
        <ele>1993.0</ele>
        <time>2020-09-11T14:04:37Z</time>
      </trkpt>
      <trkpt lat="42.8525890" lon="-0.3365880">
        <ele>1992.2</ele>
        <time>2020-09-11T14:04:39Z</time>
      </trkpt>
      <trkpt lat="42.8526000" lon="-0.3365800">
        <ele>1992.0</ele>
        <time>2020-09-11T14:04:40Z</time>
      </trkpt>
      <trkpt lat="42.8526180" lon="-0.3365690">
        <ele>1991.2</ele>
        <time>2020-09-11T14:04:42Z</time>
      </trkpt>
      <trkpt lat="42.8526230" lon="-0.3365740">
        <ele>1990.8</ele>
        <time>2020-09-11T14:04:43Z</time>
      </trkpt>
      <trkpt lat="42.8526320" lon="-0.3365990">
        <ele>1990.2</ele>
        <time>2020-09-11T14:04:46Z</time>
      </trkpt>
      <trkpt lat="42.8526370" lon="-0.3366220">
        <ele>1989.8</ele>
        <time>2020-09-11T14:04:48Z</time>
      </trkpt>
      <trkpt lat="42.8526510" lon="-0.3366850">
        <ele>1989.2</ele>
        <time>2020-09-11T14:04:52Z</time>
      </trkpt>
      <trkpt lat="42.8526730" lon="-0.3367500">
        <ele>1988.6</ele>
        <time>2020-09-11T14:04:57Z</time>
      </trkpt>
      <trkpt lat="42.8526990" lon="-0.3367890">
        <ele>1988.0</ele>
        <time>2020-09-11T14:05:02Z</time>
      </trkpt>
      <trkpt lat="42.8527010" lon="-0.3368100">
        <ele>1987.8</ele>
        <time>2020-09-11T14:05:04Z</time>
      </trkpt>
      <trkpt lat="42.8527200" lon="-0.3368320">
        <ele>1987.8</ele>
        <time>2020-09-11T14:05:07Z</time>
      </trkpt>
      <trkpt lat="42.8527590" lon="-0.3368290">
        <ele>1987.6</ele>
        <time>2020-09-11T14:05:11Z</time>
      </trkpt>
      <trkpt lat="42.8527670" lon="-0.3368310">
        <ele>1987.4</ele>
        <time>2020-09-11T14:05:12Z</time>
      </trkpt>
      <trkpt lat="42.8528530" lon="-0.3368670">
        <ele>1986.4</ele>
        <time>2020-09-11T14:05:22Z</time>
      </trkpt>
      <trkpt lat="42.8528870" lon="-0.3368670">
        <ele>1986.0</ele>
        <time>2020-09-11T14:05:26Z</time>
      </trkpt>
      <trkpt lat="42.8529580" lon="-0.3368820">
        <ele>1985.4</ele>
        <time>2020-09-11T14:05:32Z</time>
      </trkpt>
      <trkpt lat="42.8531440" lon="-0.3369160">
        <ele>1984.6</ele>
        <time>2020-09-11T14:05:47Z</time>
      </trkpt>
      <trkpt lat="42.8532540" lon="-0.3369620">
        <ele>1984.4</ele>
        <time>2020-09-11T14:05:57Z</time>
      </trkpt>
      <trkpt lat="42.8533010" lon="-0.3369320">
        <ele>1983.2</ele>
        <time>2020-09-11T14:06:02Z</time>
      </trkpt>
      <trkpt lat="42.8533840" lon="-0.3369380">
        <ele>1982.2</ele>
        <time>2020-09-11T14:06:09Z</time>
      </trkpt>
      <trkpt lat="42.8534730" lon="-0.3369330">
        <ele>1982.4</ele>
        <time>2020-09-11T14:06:17Z</time>
      </trkpt>
      <trkpt lat="42.8535310" lon="-0.3369260">
        <ele>1981.0</ele>
        <time>2020-09-11T14:06:23Z</time>
      </trkpt>
      <trkpt lat="42.8536110" lon="-0.3369130">
        <ele>1980.0</ele>
        <time>2020-09-11T14:06:29Z</time>
      </trkpt>
      <trkpt lat="42.8536440" lon="-0.3369140">
        <ele>1979.8</ele>
        <time>2020-09-11T14:06:32Z</time>
      </trkpt>
      <trkpt lat="42.8538160" lon="-0.3368710">
        <ele>1979.6</ele>
        <time>2020-09-11T14:06:47Z</time>
      </trkpt>
      <trkpt lat="42.8538640" lon="-0.3368420">
        <ele>1979.6</ele>
        <time>2020-09-11T14:06:53Z</time>
      </trkpt>
      <trkpt lat="42.8538630" lon="-0.3368300">
        <ele>1979.4</ele>
        <time>2020-09-11T14:07:00Z</time>
      </trkpt>
      <trkpt lat="42.8538640" lon="-0.3368200">
        <ele>1979.0</ele>
        <time>2020-09-11T14:07:02Z</time>
      </trkpt>
      <trkpt lat="42.8539270" lon="-0.3368170">
        <ele>1979.4</ele>
        <time>2020-09-11T14:07:09Z</time>
      </trkpt>
      <trkpt lat="42.8541100" lon="-0.3367660">
        <ele>1979.8</ele>
        <time>2020-09-11T14:07:23Z</time>
      </trkpt>
      <trkpt lat="42.8541740" lon="-0.3367330">
        <ele>1978.8</ele>
        <time>2020-09-11T14:07:28Z</time>
      </trkpt>
      <trkpt lat="42.8543500" lon="-0.3366520">
        <ele>1978.0</ele>
        <time>2020-09-11T14:07:42Z</time>
      </trkpt>
      <trkpt lat="42.8543630" lon="-0.3366460">
        <ele>1978.0</ele>
        <time>2020-09-11T14:07:43Z</time>
      </trkpt>
      <trkpt lat="42.8544190" lon="-0.3365970">
        <ele>1977.8</ele>
        <time>2020-09-11T14:07:48Z</time>
      </trkpt>
      <trkpt lat="42.8544300" lon="-0.3365900">
        <ele>1977.8</ele>
        <time>2020-09-11T14:07:49Z</time>
      </trkpt>
      <trkpt lat="42.8546040" lon="-0.3365080">
        <ele>1978.4</ele>
        <time>2020-09-11T14:08:05Z</time>
      </trkpt>
      <trkpt lat="42.8547260" lon="-0.3364790">
        <ele>1978.2</ele>
        <time>2020-09-11T14:08:16Z</time>
      </trkpt>
      <trkpt lat="42.8547790" lon="-0.3365520">
        <ele>1977.8</ele>
        <time>2020-09-11T14:08:22Z</time>
      </trkpt>
      <trkpt lat="42.8548480" lon="-0.3365300">
        <ele>1976.6</ele>
        <time>2020-09-11T14:08:28Z</time>
      </trkpt>
      <trkpt lat="42.8549840" lon="-0.3364240">
        <ele>1975.6</ele>
        <time>2020-09-11T14:08:40Z</time>
      </trkpt>
      <trkpt lat="42.8551430" lon="-0.3362920">
        <ele>1975.6</ele>
        <time>2020-09-11T14:08:54Z</time>
      </trkpt>
      <trkpt lat="42.8551850" lon="-0.3362690">
        <ele>1975.2</ele>
        <time>2020-09-11T14:08:58Z</time>
      </trkpt>
      <trkpt lat="42.8552470" lon="-0.3362240">
        <ele>1974.6</ele>
        <time>2020-09-11T14:09:05Z</time>
      </trkpt>
      <trkpt lat="42.8552730" lon="-0.3361960">
        <ele>1974.4</ele>
        <time>2020-09-11T14:09:09Z</time>
      </trkpt>
      <trkpt lat="42.8553240" lon="-0.3361450">
        <ele>1973.8</ele>
        <time>2020-09-11T14:09:16Z</time>
      </trkpt>
      <trkpt lat="42.8553450" lon="-0.3361450">
        <ele>1973.6</ele>
        <time>2020-09-11T14:09:18Z</time>
      </trkpt>
      <trkpt lat="42.8553560" lon="-0.3361450">
        <ele>1973.4</ele>
        <time>2020-09-11T14:09:19Z</time>
      </trkpt>
      <trkpt lat="42.8553900" lon="-0.3361290">
        <ele>1972.4</ele>
        <time>2020-09-11T14:09:23Z</time>
      </trkpt>
      <trkpt lat="42.8554390" lon="-0.3361090">
        <ele>1971.2</ele>
        <time>2020-09-11T14:09:28Z</time>
      </trkpt>
      <trkpt lat="42.8554830" lon="-0.3360890">
        <ele>1970.2</ele>
        <time>2020-09-11T14:09:32Z</time>
      </trkpt>
      <trkpt lat="42.8555510" lon="-0.3360690">
        <ele>1969.0</ele>
        <time>2020-09-11T14:09:38Z</time>
      </trkpt>
      <trkpt lat="42.8556140" lon="-0.3360440">
        <ele>1969.0</ele>
        <time>2020-09-11T14:09:44Z</time>
      </trkpt>
      <trkpt lat="42.8556230" lon="-0.3360420">
        <ele>1969.4</ele>
        <time>2020-09-11T14:09:46Z</time>
      </trkpt>
      <trkpt lat="42.8556510" lon="-0.3360180">
        <ele>1969.6</ele>
        <time>2020-09-11T14:09:54Z</time>
      </trkpt>
      <trkpt lat="42.8557090" lon="-0.3359830">
        <ele>1969.2</ele>
        <time>2020-09-11T14:09:59Z</time>
      </trkpt>
      <trkpt lat="42.8557210" lon="-0.3359530">
        <ele>1969.0</ele>
        <time>2020-09-11T14:10:01Z</time>
      </trkpt>
      <trkpt lat="42.8558730" lon="-0.3359110">
        <ele>1968.4</ele>
        <time>2020-09-11T14:10:12Z</time>
      </trkpt>
      <trkpt lat="42.8559390" lon="-0.3359290">
        <ele>1968.2</ele>
        <time>2020-09-11T14:10:17Z</time>
      </trkpt>
      <trkpt lat="42.8561220" lon="-0.3360000">
        <ele>1969.8</ele>
        <time>2020-09-11T14:10:35Z</time>
      </trkpt>
      <trkpt lat="42.8561470" lon="-0.3360240">
        <ele>1970.2</ele>
        <time>2020-09-11T14:10:38Z</time>
      </trkpt>
      <trkpt lat="42.8563210" lon="-0.3360640">
        <ele>1971.2</ele>
        <time>2020-09-11T14:10:56Z</time>
      </trkpt>
      <trkpt lat="42.8563450" lon="-0.3360730">
        <ele>1971.8</ele>
        <time>2020-09-11T14:10:59Z</time>
      </trkpt>
      <trkpt lat="42.8563780" lon="-0.3360680">
        <ele>1972.4</ele>
        <time>2020-09-11T14:11:03Z</time>
      </trkpt>
      <trkpt lat="42.8564170" lon="-0.3360660">
        <ele>1973.0</ele>
        <time>2020-09-11T14:11:07Z</time>
      </trkpt>
      <trkpt lat="42.8564750" lon="-0.3360640">
        <ele>1973.4</ele>
        <time>2020-09-11T14:11:13Z</time>
      </trkpt>
      <trkpt lat="42.8565080" lon="-0.3360810">
        <ele>1974.2</ele>
        <time>2020-09-11T14:11:17Z</time>
      </trkpt>
      <trkpt lat="42.8565150" lon="-0.3360840">
        <ele>1974.4</ele>
        <time>2020-09-11T14:11:18Z</time>
      </trkpt>
      <trkpt lat="42.8565400" lon="-0.3361050">
        <ele>1975.2</ele>
        <time>2020-09-11T14:11:22Z</time>
      </trkpt>
      <trkpt lat="42.8565610" lon="-0.3361110">
        <ele>1975.6</ele>
        <time>2020-09-11T14:11:25Z</time>
      </trkpt>
      <trkpt lat="42.8566080" lon="-0.3360940">
        <ele>1976.6</ele>
        <time>2020-09-11T14:11:31Z</time>
      </trkpt>
      <trkpt lat="42.8566620" lon="-0.3360610">
        <ele>1977.6</ele>
        <time>2020-09-11T14:11:46Z</time>
      </trkpt>
      <trkpt lat="42.8566790" lon="-0.3360500">
        <ele>1977.8</ele>
        <time>2020-09-11T14:11:48Z</time>
      </trkpt>
      <trkpt lat="42.8567810" lon="-0.3359960">
        <ele>1977.4</ele>
        <time>2020-09-11T14:11:57Z</time>
      </trkpt>
      <trkpt lat="42.8569590" lon="-0.3359970">
        <ele>1978.6</ele>
        <time>2020-09-11T14:12:14Z</time>
      </trkpt>
      <trkpt lat="42.8571450" lon="-0.3360310">
        <ele>1977.0</ele>
        <time>2020-09-11T14:12:29Z</time>
      </trkpt>
      <trkpt lat="42.8571710" lon="-0.3360430">
        <ele>1976.4</ele>
        <time>2020-09-11T14:12:31Z</time>
      </trkpt>
      <trkpt lat="42.8572600" lon="-0.3360710">
        <ele>1976.0</ele>
        <time>2020-09-11T14:12:40Z</time>
      </trkpt>
      <trkpt lat="42.8572950" lon="-0.3360820">
        <ele>1976.4</ele>
        <time>2020-09-11T14:12:44Z</time>
      </trkpt>
      <trkpt lat="42.8573200" lon="-0.3360850">
        <ele>1976.6</ele>
        <time>2020-09-11T14:12:47Z</time>
      </trkpt>
      <trkpt lat="42.8574170" lon="-0.3360660">
        <ele>1977.4</ele>
        <time>2020-09-11T14:12:55Z</time>
      </trkpt>
      <trkpt lat="42.8575880" lon="-0.3359830">
        <ele>1977.0</ele>
        <time>2020-09-11T14:13:13Z</time>
      </trkpt>
      <trkpt lat="42.8576350" lon="-0.3359480">
        <ele>1977.2</ele>
        <time>2020-09-11T14:13:19Z</time>
      </trkpt>
      <trkpt lat="42.8577010" lon="-0.3358370">
        <ele>1976.4</ele>
        <time>2020-09-11T14:13:31Z</time>
      </trkpt>
      <trkpt lat="42.8577220" lon="-0.3358230">
        <ele>1976.2</ele>
        <time>2020-09-11T14:13:33Z</time>
      </trkpt>
      <trkpt lat="42.8577400" lon="-0.3358080">
        <ele>1976.2</ele>
        <time>2020-09-11T14:13:35Z</time>
      </trkpt>
      <trkpt lat="42.8577710" lon="-0.3357880">
        <ele>1976.0</ele>
        <time>2020-09-11T14:13:38Z</time>
      </trkpt>
      <trkpt lat="42.8578270" lon="-0.3357630">
        <ele>1975.4</ele>
        <time>2020-09-11T14:13:44Z</time>
      </trkpt>
      <trkpt lat="42.8578560" lon="-0.3357460">
        <ele>1975.2</ele>
        <time>2020-09-11T14:13:47Z</time>
      </trkpt>
      <trkpt lat="42.8579120" lon="-0.3356990">
        <ele>1974.4</ele>
        <time>2020-09-11T14:13:55Z</time>
      </trkpt>
      <trkpt lat="42.8579190" lon="-0.3356930">
        <ele>1974.4</ele>
        <time>2020-09-11T14:13:56Z</time>
      </trkpt>
      <trkpt lat="42.8579280" lon="-0.3356840">
        <ele>1974.4</ele>
        <time>2020-09-11T14:13:58Z</time>
      </trkpt>
      <trkpt lat="42.8579440" lon="-0.3356730">
        <ele>1974.4</ele>
        <time>2020-09-11T14:14:02Z</time>
      </trkpt>
      <trkpt lat="42.8579920" lon="-0.3356250">
        <ele>1974.0</ele>
        <time>2020-09-11T14:14:08Z</time>
      </trkpt>
      <trkpt lat="42.8580150" lon="-0.3356010">
        <ele>1973.8</ele>
        <time>2020-09-11T14:14:11Z</time>
      </trkpt>
      <trkpt lat="42.8580240" lon="-0.3355630">
        <ele>1973.6</ele>
        <time>2020-09-11T14:14:14Z</time>
      </trkpt>
      <trkpt lat="42.8580490" lon="-0.3355560">
        <ele>1973.2</ele>
        <time>2020-09-11T14:14:16Z</time>
      </trkpt>
      <trkpt lat="42.8581200" lon="-0.3355350">
        <ele>1972.6</ele>
        <time>2020-09-11T14:14:23Z</time>
      </trkpt>
      <trkpt lat="42.8581460" lon="-0.3355300">
        <ele>1973.0</ele>
        <time>2020-09-11T14:14:25Z</time>
      </trkpt>
      <trkpt lat="42.8582730" lon="-0.3354950">
        <ele>1972.2</ele>
        <time>2020-09-11T14:14:35Z</time>
      </trkpt>
      <trkpt lat="42.8583400" lon="-0.3354820">
        <ele>1971.8</ele>
        <time>2020-09-11T14:14:41Z</time>
      </trkpt>
      <trkpt lat="42.8583840" lon="-0.3354890">
        <ele>1971.2</ele>
        <time>2020-09-11T14:14:45Z</time>
      </trkpt>
      <trkpt lat="42.8583920" lon="-0.3354940">
        <ele>1970.8</ele>
        <time>2020-09-11T14:14:46Z</time>
      </trkpt>
      <trkpt lat="42.8584170" lon="-0.3355100">
        <ele>1970.2</ele>
        <time>2020-09-11T14:14:49Z</time>
      </trkpt>
      <trkpt lat="42.8584430" lon="-0.3355210">
        <ele>1970.4</ele>
        <time>2020-09-11T14:14:53Z</time>
      </trkpt>
      <trkpt lat="42.8584790" lon="-0.3355220">
        <ele>1970.8</ele>
        <time>2020-09-11T14:14:57Z</time>
      </trkpt>
      <trkpt lat="42.8585050" lon="-0.3355120">
        <ele>1971.2</ele>
        <time>2020-09-11T14:15:00Z</time>
      </trkpt>
      <trkpt lat="42.8585500" lon="-0.3355120">
        <ele>1971.2</ele>
        <time>2020-09-11T14:15:04Z</time>
      </trkpt>
      <trkpt lat="42.8586810" lon="-0.3355560">
        <ele>1972.4</ele>
        <time>2020-09-11T14:15:16Z</time>
      </trkpt>
      <trkpt lat="42.8587740" lon="-0.3356030">
        <ele>1973.4</ele>
        <time>2020-09-11T14:15:25Z</time>
      </trkpt>
      <trkpt lat="42.8588850" lon="-0.3356540">
        <ele>1974.2</ele>
        <time>2020-09-11T14:15:35Z</time>
      </trkpt>
      <trkpt lat="42.8589120" lon="-0.3356750">
        <ele>1974.4</ele>
        <time>2020-09-11T14:15:38Z</time>
      </trkpt>
      <trkpt lat="42.8589250" lon="-0.3356800">
        <ele>1974.6</ele>
        <time>2020-09-11T14:15:39Z</time>
      </trkpt>
      <trkpt lat="42.8590070" lon="-0.3356830">
        <ele>1975.2</ele>
        <time>2020-09-11T14:15:46Z</time>
      </trkpt>
      <trkpt lat="42.8590520" lon="-0.3356760">
        <ele>1975.6</ele>
        <time>2020-09-11T14:15:49Z</time>
      </trkpt>
      <trkpt lat="42.8591130" lon="-0.3356800">
        <ele>1976.6</ele>
        <time>2020-09-11T14:15:55Z</time>
      </trkpt>
      <trkpt lat="42.8591350" lon="-0.3356820">
        <ele>1976.8</ele>
        <time>2020-09-11T14:15:58Z</time>
      </trkpt>
      <trkpt lat="42.8591570" lon="-0.3356560">
        <ele>1977.2</ele>
        <time>2020-09-11T14:16:01Z</time>
      </trkpt>
      <trkpt lat="42.8591720" lon="-0.3356570">
        <ele>1977.8</ele>
        <time>2020-09-11T14:16:04Z</time>
      </trkpt>
      <trkpt lat="42.8591720" lon="-0.3356530">
        <ele>1978.4</ele>
        <time>2020-09-11T14:16:08Z</time>
      </trkpt>
      <trkpt lat="42.8591670" lon="-0.3356580">
        <ele>1978.8</ele>
        <time>2020-09-11T14:16:10Z</time>
      </trkpt>
      <trkpt lat="42.8591940" lon="-0.3356170">
        <ele>1978.8</ele>
        <time>2020-09-11T14:16:16Z</time>
      </trkpt>
      <trkpt lat="42.8592170" lon="-0.3355870">
        <ele>1978.4</ele>
        <time>2020-09-11T14:16:19Z</time>
      </trkpt>
      <trkpt lat="42.8592210" lon="-0.3355560">
        <ele>1977.6</ele>
        <time>2020-09-11T14:16:22Z</time>
      </trkpt>
      <trkpt lat="42.8592450" lon="-0.3355470">
        <ele>1976.4</ele>
        <time>2020-09-11T14:16:25Z</time>
      </trkpt>
      <trkpt lat="42.8592550" lon="-0.3355450">
        <ele>1976.0</ele>
        <time>2020-09-11T14:16:26Z</time>
      </trkpt>
      <trkpt lat="42.8593290" lon="-0.3356560">
        <ele>1975.6</ele>
        <time>2020-09-11T14:16:28Z</time>
      </trkpt>
      <trkpt lat="42.8593180" lon="-0.3356350">
        <ele>1975.2</ele>
        <time>2020-09-11T14:16:30Z</time>
      </trkpt>
      <trkpt lat="42.8593710" lon="-0.3356260">
        <ele>1974.0</ele>
        <time>2020-09-11T14:16:36Z</time>
      </trkpt>
      <trkpt lat="42.8593870" lon="-0.3356310">
        <ele>1973.8</ele>
        <time>2020-09-11T14:16:37Z</time>
      </trkpt>
      <trkpt lat="42.8594290" lon="-0.3356380">
        <ele>1973.2</ele>
        <time>2020-09-11T14:16:40Z</time>
      </trkpt>
      <trkpt lat="42.8594470" lon="-0.3356320">
        <ele>1973.0</ele>
        <time>2020-09-11T14:16:41Z</time>
      </trkpt>
      <trkpt lat="42.8594780" lon="-0.3356340">
        <ele>1972.0</ele>
        <time>2020-09-11T14:16:43Z</time>
      </trkpt>
      <trkpt lat="42.8595270" lon="-0.3356690">
        <ele>1971.0</ele>
        <time>2020-09-11T14:16:47Z</time>
      </trkpt>
      <trkpt lat="42.8595750" lon="-0.3357310">
        <ele>1970.4</ele>
        <time>2020-09-11T14:16:52Z</time>
      </trkpt>
      <trkpt lat="42.8597190" lon="-0.3358800">
        <ele>1971.6</ele>
        <time>2020-09-11T14:17:09Z</time>
      </trkpt>
      <trkpt lat="42.8597290" lon="-0.3358930">
        <ele>1972.0</ele>
        <time>2020-09-11T14:17:11Z</time>
      </trkpt>
      <trkpt lat="42.8597410" lon="-0.3359130">
        <ele>1972.6</ele>
        <time>2020-09-11T14:17:14Z</time>
      </trkpt>
      <trkpt lat="42.8597480" lon="-0.3359260">
        <ele>1973.0</ele>
        <time>2020-09-11T14:17:16Z</time>
      </trkpt>
      <trkpt lat="42.8597720" lon="-0.3359470">
        <ele>1973.6</ele>
        <time>2020-09-11T14:17:19Z</time>
      </trkpt>
      <trkpt lat="42.8597990" lon="-0.3359600">
        <ele>1974.0</ele>
        <time>2020-09-11T14:17:22Z</time>
      </trkpt>
      <trkpt lat="42.8598110" lon="-0.3359660">
        <ele>1974.2</ele>
        <time>2020-09-11T14:17:23Z</time>
      </trkpt>
      <trkpt lat="42.8598690" lon="-0.3359870">
        <ele>1975.2</ele>
        <time>2020-09-11T14:17:29Z</time>
      </trkpt>
      <trkpt lat="42.8599390" lon="-0.3359950">
        <ele>1976.2</ele>
        <time>2020-09-11T14:17:36Z</time>
      </trkpt>
      <trkpt lat="42.8600420" lon="-0.3359560">
        <ele>1976.6</ele>
        <time>2020-09-11T14:17:46Z</time>
      </trkpt>
      <trkpt lat="42.8600550" lon="-0.3359590">
        <ele>1976.6</ele>
        <time>2020-09-11T14:17:48Z</time>
      </trkpt>
      <trkpt lat="42.8600790" lon="-0.3359490">
        <ele>1977.4</ele>
        <time>2020-09-11T14:17:53Z</time>
      </trkpt>
      <trkpt lat="42.8601050" lon="-0.3359280">
        <ele>1978.0</ele>
        <time>2020-09-11T14:17:57Z</time>
      </trkpt>
      <trkpt lat="42.8601160" lon="-0.3359230">
        <ele>1978.4</ele>
        <time>2020-09-11T14:17:59Z</time>
      </trkpt>
      <trkpt lat="42.8601220" lon="-0.3359180">
        <ele>1978.6</ele>
        <time>2020-09-11T14:18:00Z</time>
      </trkpt>
      <trkpt lat="42.8601970" lon="-0.3358630">
        <ele>1979.4</ele>
        <time>2020-09-11T14:18:08Z</time>
      </trkpt>
      <trkpt lat="42.8602050" lon="-0.3358560">
        <ele>1979.6</ele>
        <time>2020-09-11T14:18:09Z</time>
      </trkpt>
      <trkpt lat="42.8602220" lon="-0.3358260">
        <ele>1979.8</ele>
        <time>2020-09-11T14:18:12Z</time>
      </trkpt>
      <trkpt lat="42.8602280" lon="-0.3358220">
        <ele>1980.6</ele>
        <time>2020-09-11T14:18:15Z</time>
      </trkpt>
      <trkpt lat="42.8603750" lon="-0.3357940">
        <ele>1981.6</ele>
        <time>2020-09-11T14:18:32Z</time>
      </trkpt>
      <trkpt lat="42.8603810" lon="-0.3357860">
        <ele>1981.6</ele>
        <time>2020-09-11T14:18:33Z</time>
      </trkpt>
      <trkpt lat="42.8604160" lon="-0.3356900">
        <ele>1982.0</ele>
        <time>2020-09-11T14:18:38Z</time>
      </trkpt>
      <trkpt lat="42.8604340" lon="-0.3356900">
        <ele>1982.0</ele>
        <time>2020-09-11T14:18:40Z</time>
      </trkpt>
      <trkpt lat="42.8604880" lon="-0.3357290">
        <ele>1981.0</ele>
        <time>2020-09-11T14:18:44Z</time>
      </trkpt>
      <trkpt lat="42.8604970" lon="-0.3357360">
        <ele>1980.8</ele>
        <time>2020-09-11T14:18:45Z</time>
      </trkpt>
      <trkpt lat="42.8605160" lon="-0.3357500">
        <ele>1980.6</ele>
        <time>2020-09-11T14:18:47Z</time>
      </trkpt>
      <trkpt lat="42.8605300" lon="-0.3357890">
        <ele>1980.4</ele>
        <time>2020-09-11T14:18:50Z</time>
      </trkpt>
      <trkpt lat="42.8605410" lon="-0.3358110">
        <ele>1980.0</ele>
        <time>2020-09-11T14:18:52Z</time>
      </trkpt>
      <trkpt lat="42.8605440" lon="-0.3358360">
        <ele>1979.4</ele>
        <time>2020-09-11T14:18:54Z</time>
      </trkpt>
      <trkpt lat="42.8605620" lon="-0.3358710">
        <ele>1978.6</ele>
        <time>2020-09-11T14:18:57Z</time>
      </trkpt>
      <trkpt lat="42.8605660" lon="-0.3358730">
        <ele>1978.2</ele>
        <time>2020-09-11T14:18:58Z</time>
      </trkpt>
      <trkpt lat="42.8605690" lon="-0.3358730">
        <ele>1978.0</ele>
        <time>2020-09-11T14:18:59Z</time>
      </trkpt>
      <trkpt lat="42.8605670" lon="-0.3358580">
        <ele>1977.6</ele>
        <time>2020-09-11T14:19:01Z</time>
      </trkpt>
      <trkpt lat="42.8605620" lon="-0.3358330">
        <ele>1977.2</ele>
        <time>2020-09-11T14:19:03Z</time>
      </trkpt>
      <trkpt lat="42.8605510" lon="-0.3357940">
        <ele>1976.4</ele>
        <time>2020-09-11T14:19:06Z</time>
      </trkpt>
      <trkpt lat="42.8605550" lon="-0.3357870">
        <ele>1976.0</ele>
        <time>2020-09-11T14:19:07Z</time>
      </trkpt>
      <trkpt lat="42.8605930" lon="-0.3357920">
        <ele>1974.6</ele>
        <time>2020-09-11T14:19:10Z</time>
      </trkpt>
      <trkpt lat="42.8606100" lon="-0.3358110">
        <ele>1974.2</ele>
        <time>2020-09-11T14:19:13Z</time>
      </trkpt>
      <trkpt lat="42.8605970" lon="-0.3358500">
        <ele>1973.4</ele>
        <time>2020-09-11T14:19:17Z</time>
      </trkpt>
      <trkpt lat="42.8605900" lon="-0.3358560">
        <ele>1973.0</ele>
        <time>2020-09-11T14:19:18Z</time>
      </trkpt>
      <trkpt lat="42.8605940" lon="-0.3359090">
        <ele>1972.4</ele>
        <time>2020-09-11T14:19:24Z</time>
      </trkpt>
      <trkpt lat="42.8605960" lon="-0.3359200">
        <ele>1972.2</ele>
        <time>2020-09-11T14:19:25Z</time>
      </trkpt>
      <trkpt lat="42.8605970" lon="-0.3359520">
        <ele>1971.6</ele>
        <time>2020-09-11T14:19:27Z</time>
      </trkpt>
      <trkpt lat="42.8606000" lon="-0.3359850">
        <ele>1971.0</ele>
        <time>2020-09-11T14:19:29Z</time>
      </trkpt>
      <trkpt lat="42.8606360" lon="-0.3361040">
        <ele>1970.8</ele>
        <time>2020-09-11T14:19:38Z</time>
      </trkpt>
      <trkpt lat="42.8606460" lon="-0.3361640">
        <ele>1971.0</ele>
        <time>2020-09-11T14:19:42Z</time>
      </trkpt>
      <trkpt lat="42.8606790" lon="-0.3362570">
        <ele>1971.6</ele>
        <time>2020-09-11T14:19:49Z</time>
      </trkpt>
      <trkpt lat="42.8608440" lon="-0.3363820">
        <ele>1972.0</ele>
        <time>2020-09-11T14:20:06Z</time>
      </trkpt>
      <trkpt lat="42.8609400" lon="-0.3365040">
        <ele>1972.4</ele>
        <time>2020-09-11T14:20:18Z</time>
      </trkpt>
      <trkpt lat="42.8609960" lon="-0.3365030">
        <ele>1972.4</ele>
        <time>2020-09-11T14:20:32Z</time>
      </trkpt>
      <trkpt lat="42.8610490" lon="-0.3365290">
        <ele>1972.6</ele>
        <time>2020-09-11T14:20:38Z</time>
      </trkpt>
      <trkpt lat="42.8610910" lon="-0.3365260">
        <ele>1972.8</ele>
        <time>2020-09-11T14:20:42Z</time>
      </trkpt>
      <trkpt lat="42.8612660" lon="-0.3365600">
        <ele>1970.8</ele>
        <time>2020-09-11T14:20:55Z</time>
      </trkpt>
      <trkpt lat="42.8613180" lon="-0.3365670">
        <ele>1970.0</ele>
        <time>2020-09-11T14:20:59Z</time>
      </trkpt>
      <trkpt lat="42.8613300" lon="-0.3365680">
        <ele>1970.0</ele>
        <time>2020-09-11T14:21:00Z</time>
      </trkpt>
      <trkpt lat="42.8613400" lon="-0.3365710">
        <ele>1969.8</ele>
        <time>2020-09-11T14:21:01Z</time>
      </trkpt>
      <trkpt lat="42.8613850" lon="-0.3365790">
        <ele>1969.4</ele>
        <time>2020-09-11T14:21:05Z</time>
      </trkpt>
      <trkpt lat="42.8614430" lon="-0.3365890">
        <ele>1968.8</ele>
        <time>2020-09-11T14:21:10Z</time>
      </trkpt>
      <trkpt lat="42.8615640" lon="-0.3366310">
        <ele>1968.2</ele>
        <time>2020-09-11T14:21:19Z</time>
      </trkpt>
      <trkpt lat="42.8615810" lon="-0.3366340">
        <ele>1968.4</ele>
        <time>2020-09-11T14:21:21Z</time>
      </trkpt>
      <trkpt lat="42.8616010" lon="-0.3366600">
        <ele>1968.6</ele>
        <time>2020-09-11T14:21:27Z</time>
      </trkpt>
      <trkpt lat="42.8617750" lon="-0.3367490">
        <ele>1969.2</ele>
        <time>2020-09-11T14:21:44Z</time>
      </trkpt>
      <trkpt lat="42.8618130" lon="-0.3367690">
        <ele>1969.8</ele>
        <time>2020-09-11T14:21:49Z</time>
      </trkpt>
      <trkpt lat="42.8619030" lon="-0.3367480">
        <ele>1970.4</ele>
        <time>2020-09-11T14:21:57Z</time>
      </trkpt>
      <trkpt lat="42.8619990" lon="-0.3366620">
        <ele>1970.6</ele>
        <time>2020-09-11T14:22:08Z</time>
      </trkpt>
      <trkpt lat="42.8620440" lon="-0.3365950">
        <ele>1970.4</ele>
        <time>2020-09-11T14:22:13Z</time>
      </trkpt>
      <trkpt lat="42.8620570" lon="-0.3365450">
        <ele>1969.2</ele>
        <time>2020-09-11T14:22:16Z</time>
      </trkpt>
      <trkpt lat="42.8620720" lon="-0.3365210">
        <ele>1968.6</ele>
        <time>2020-09-11T14:22:18Z</time>
      </trkpt>
      <trkpt lat="42.8620660" lon="-0.3365060">
        <ele>1968.4</ele>
        <time>2020-09-11T14:22:21Z</time>
      </trkpt>
      <trkpt lat="42.8620650" lon="-0.3364910">
        <ele>1968.4</ele>
        <time>2020-09-11T14:22:23Z</time>
      </trkpt>
      <trkpt lat="42.8620680" lon="-0.3364790">
        <ele>1968.4</ele>
        <time>2020-09-11T14:22:26Z</time>
      </trkpt>
      <trkpt lat="42.8620900" lon="-0.3364670">
        <ele>1968.4</ele>
        <time>2020-09-11T14:22:29Z</time>
      </trkpt>
      <trkpt lat="42.8620900" lon="-0.3364280">
        <ele>1968.4</ele>
        <time>2020-09-11T14:22:31Z</time>
      </trkpt>
      <trkpt lat="42.8621420" lon="-0.3363230">
        <ele>1968.2</ele>
        <time>2020-09-11T14:22:38Z</time>
      </trkpt>
      <trkpt lat="42.8621820" lon="-0.3362340">
        <ele>1967.6</ele>
        <time>2020-09-11T14:22:47Z</time>
      </trkpt>
      <trkpt lat="42.8621890" lon="-0.3362250">
        <ele>1967.0</ele>
        <time>2020-09-11T14:22:49Z</time>
      </trkpt>
      <trkpt lat="42.8621930" lon="-0.3362110">
        <ele>1966.4</ele>
        <time>2020-09-11T14:22:51Z</time>
      </trkpt>
      <trkpt lat="42.8622130" lon="-0.3361910">
        <ele>1966.0</ele>
        <time>2020-09-11T14:22:54Z</time>
      </trkpt>
      <trkpt lat="42.8622200" lon="-0.3361600">
        <ele>1965.4</ele>
        <time>2020-09-11T14:22:57Z</time>
      </trkpt>
      <trkpt lat="42.8622270" lon="-0.3361330">
        <ele>1964.6</ele>
        <time>2020-09-11T14:23:00Z</time>
      </trkpt>
      <trkpt lat="42.8622340" lon="-0.3361150">
        <ele>1964.2</ele>
        <time>2020-09-11T14:23:02Z</time>
      </trkpt>
      <trkpt lat="42.8622350" lon="-0.3361080">
        <ele>1964.0</ele>
        <time>2020-09-11T14:23:03Z</time>
      </trkpt>
      <trkpt lat="42.8622470" lon="-0.3360970">
        <ele>1963.0</ele>
        <time>2020-09-11T14:23:05Z</time>
      </trkpt>
      <trkpt lat="42.8622880" lon="-0.3360850">
        <ele>1962.2</ele>
        <time>2020-09-11T14:23:09Z</time>
      </trkpt>
      <trkpt lat="42.8623170" lon="-0.3360810">
        <ele>1961.8</ele>
        <time>2020-09-11T14:23:11Z</time>
      </trkpt>
      <trkpt lat="42.8623350" lon="-0.3360780">
        <ele>1961.4</ele>
        <time>2020-09-11T14:23:13Z</time>
      </trkpt>
      <trkpt lat="42.8623410" lon="-0.3360640">
        <ele>1961.0</ele>
        <time>2020-09-11T14:23:18Z</time>
      </trkpt>
      <trkpt lat="42.8623410" lon="-0.3360550">
        <ele>1961.2</ele>
        <time>2020-09-11T14:23:21Z</time>
      </trkpt>
      <trkpt lat="42.8623640" lon="-0.3359100">
        <ele>1962.6</ele>
        <time>2020-09-11T14:23:53Z</time>
      </trkpt>
      <trkpt lat="42.8623410" lon="-0.3358830">
        <ele>1963.0</ele>
        <time>2020-09-11T14:23:55Z</time>
      </trkpt>
      <trkpt lat="42.8623320" lon="-0.3358700">
        <ele>1963.4</ele>
        <time>2020-09-11T14:23:56Z</time>
      </trkpt>
      <trkpt lat="42.8623230" lon="-0.3358550">
        <ele>1964.0</ele>
        <time>2020-09-11T14:23:58Z</time>
      </trkpt>
      <trkpt lat="42.8623230" lon="-0.3358510">
        <ele>1964.2</ele>
        <time>2020-09-11T14:23:59Z</time>
      </trkpt>
      <trkpt lat="42.8623240" lon="-0.3358470">
        <ele>1964.6</ele>
        <time>2020-09-11T14:24:00Z</time>
      </trkpt>
      <trkpt lat="42.8623130" lon="-0.3358270">
        <ele>1965.2</ele>
        <time>2020-09-11T14:24:02Z</time>
      </trkpt>
      <trkpt lat="42.8623030" lon="-0.3358130">
        <ele>1965.4</ele>
        <time>2020-09-11T14:24:03Z</time>
      </trkpt>
      <trkpt lat="42.8622900" lon="-0.3357860">
        <ele>1966.0</ele>
        <time>2020-09-11T14:24:05Z</time>
      </trkpt>
      <trkpt lat="42.8622910" lon="-0.3357690">
        <ele>1966.6</ele>
        <time>2020-09-11T14:24:07Z</time>
      </trkpt>
      <trkpt lat="42.8622890" lon="-0.3357580">
        <ele>1966.8</ele>
        <time>2020-09-11T14:24:08Z</time>
      </trkpt>
      <trkpt lat="42.8622640" lon="-0.3357300">
        <ele>1967.0</ele>
        <time>2020-09-11T14:24:10Z</time>
      </trkpt>
      <trkpt lat="42.8622240" lon="-0.3356790">
        <ele>1967.6</ele>
        <time>2020-09-11T14:24:14Z</time>
      </trkpt>
      <trkpt lat="42.8621710" lon="-0.3355900">
        <ele>1966.2</ele>
        <time>2020-09-11T14:24:21Z</time>
      </trkpt>
      <trkpt lat="42.8621700" lon="-0.3355580">
        <ele>1965.4</ele>
        <time>2020-09-11T14:24:23Z</time>
      </trkpt>
      <trkpt lat="42.8621920" lon="-0.3355250">
        <ele>1964.8</ele>
        <time>2020-09-11T14:24:25Z</time>
      </trkpt>
      <trkpt lat="42.8621900" lon="-0.3354480">
        <ele>1963.8</ele>
        <time>2020-09-11T14:24:31Z</time>
      </trkpt>
      <trkpt lat="42.8621860" lon="-0.3354360">
        <ele>1963.8</ele>
        <time>2020-09-11T14:24:32Z</time>
      </trkpt>
      <trkpt lat="42.8621850" lon="-0.3354210">
        <ele>1963.8</ele>
        <time>2020-09-11T14:24:34Z</time>
      </trkpt>
      <trkpt lat="42.8622020" lon="-0.3354190">
        <ele>1963.8</ele>
        <time>2020-09-11T14:24:38Z</time>
      </trkpt>
      <trkpt lat="42.8621910" lon="-0.3353750">
        <ele>1963.8</ele>
        <time>2020-09-11T14:24:42Z</time>
      </trkpt>
      <trkpt lat="42.8621900" lon="-0.3353400">
        <ele>1963.8</ele>
        <time>2020-09-11T14:24:45Z</time>
      </trkpt>
      <trkpt lat="42.8621800" lon="-0.3352510">
        <ele>1963.6</ele>
        <time>2020-09-11T14:24:51Z</time>
      </trkpt>
      <trkpt lat="42.8621750" lon="-0.3352310">
        <ele>1963.6</ele>
        <time>2020-09-11T14:24:53Z</time>
      </trkpt>
      <trkpt lat="42.8621690" lon="-0.3351920">
        <ele>1964.8</ele>
        <time>2020-09-11T14:24:58Z</time>
      </trkpt>
      <trkpt lat="42.8621660" lon="-0.3351810">
        <ele>1965.0</ele>
        <time>2020-09-11T14:24:59Z</time>
      </trkpt>
      <trkpt lat="42.8621700" lon="-0.3351500">
        <ele>1965.6</ele>
        <time>2020-09-11T14:25:02Z</time>
      </trkpt>
      <trkpt lat="42.8621780" lon="-0.3351170">
        <ele>1966.0</ele>
        <time>2020-09-11T14:25:05Z</time>
      </trkpt>
      <trkpt lat="42.8621840" lon="-0.3351040">
        <ele>1966.4</ele>
        <time>2020-09-11T14:25:07Z</time>
      </trkpt>
      <trkpt lat="42.8621910" lon="-0.3350910">
        <ele>1966.8</ele>
        <time>2020-09-11T14:25:09Z</time>
      </trkpt>
      <trkpt lat="42.8622040" lon="-0.3350690">
        <ele>1967.0</ele>
        <time>2020-09-11T14:25:12Z</time>
      </trkpt>
      <trkpt lat="42.8622160" lon="-0.3349590">
        <ele>1968.0</ele>
        <time>2020-09-11T14:25:21Z</time>
      </trkpt>
      <trkpt lat="42.8622180" lon="-0.3349450">
        <ele>1968.2</ele>
        <time>2020-09-11T14:25:22Z</time>
      </trkpt>
      <trkpt lat="42.8622300" lon="-0.3348870">
        <ele>1968.8</ele>
        <time>2020-09-11T14:25:26Z</time>
      </trkpt>
      <trkpt lat="42.8622290" lon="-0.3348330">
        <ele>1969.0</ele>
        <time>2020-09-11T14:25:31Z</time>
      </trkpt>
      <trkpt lat="42.8622150" lon="-0.3348140">
        <ele>1969.2</ele>
        <time>2020-09-11T14:25:34Z</time>
      </trkpt>
      <trkpt lat="42.8621980" lon="-0.3348070">
        <ele>1969.4</ele>
        <time>2020-09-11T14:25:36Z</time>
      </trkpt>
      <trkpt lat="42.8621820" lon="-0.3348100">
        <ele>1969.6</ele>
        <time>2020-09-11T14:25:39Z</time>
      </trkpt>
      <trkpt lat="42.8621680" lon="-0.3348230">
        <ele>1970.4</ele>
        <time>2020-09-11T14:25:41Z</time>
      </trkpt>
      <trkpt lat="42.8621410" lon="-0.3347970">
        <ele>1971.4</ele>
        <time>2020-09-11T14:25:44Z</time>
      </trkpt>
      <trkpt lat="42.8621350" lon="-0.3347840">
        <ele>1971.6</ele>
        <time>2020-09-11T14:25:45Z</time>
      </trkpt>
      <trkpt lat="42.8621280" lon="-0.3347680">
        <ele>1972.0</ele>
        <time>2020-09-11T14:25:47Z</time>
      </trkpt>
      <trkpt lat="42.8621190" lon="-0.3347550">
        <ele>1972.4</ele>
        <time>2020-09-11T14:25:49Z</time>
      </trkpt>
      <trkpt lat="42.8620950" lon="-0.3347240">
        <ele>1972.6</ele>
        <time>2020-09-11T14:25:52Z</time>
      </trkpt>
      <trkpt lat="42.8620650" lon="-0.3346490">
        <ele>1973.8</ele>
        <time>2020-09-11T14:25:57Z</time>
      </trkpt>
      <trkpt lat="42.8620700" lon="-0.3345340">
        <ele>1975.0</ele>
        <time>2020-09-11T14:26:04Z</time>
      </trkpt>
      <trkpt lat="42.8620950" lon="-0.3344960">
        <ele>1975.4</ele>
        <time>2020-09-11T14:26:07Z</time>
      </trkpt>
      <trkpt lat="42.8621050" lon="-0.3344830">
        <ele>1975.4</ele>
        <time>2020-09-11T14:26:09Z</time>
      </trkpt>
      <trkpt lat="42.8621300" lon="-0.3344730">
        <ele>1973.8</ele>
        <time>2020-09-11T14:26:16Z</time>
      </trkpt>
      <trkpt lat="42.8621450" lon="-0.3344890">
        <ele>1972.6</ele>
        <time>2020-09-11T14:26:20Z</time>
      </trkpt>
      <trkpt lat="42.8622030" lon="-0.3344780">
        <ele>1971.6</ele>
        <time>2020-09-11T14:26:26Z</time>
      </trkpt>
      <trkpt lat="42.8622340" lon="-0.3344380">
        <ele>1970.4</ele>
        <time>2020-09-11T14:26:30Z</time>
      </trkpt>
      <trkpt lat="42.8622990" lon="-0.3344010">
        <ele>1970.4</ele>
        <time>2020-09-11T14:26:37Z</time>
      </trkpt>
      <trkpt lat="42.8623380" lon="-0.3343680">
        <ele>1970.4</ele>
        <time>2020-09-11T14:26:41Z</time>
      </trkpt>
      <trkpt lat="42.8623590" lon="-0.3343600">
        <ele>1970.4</ele>
        <time>2020-09-11T14:26:43Z</time>
      </trkpt>
      <trkpt lat="42.8623680" lon="-0.3343180">
        <ele>1970.2</ele>
        <time>2020-09-11T14:26:47Z</time>
      </trkpt>
      <trkpt lat="42.8623690" lon="-0.3342830">
        <ele>1969.6</ele>
        <time>2020-09-11T14:26:50Z</time>
      </trkpt>
      <trkpt lat="42.8623940" lon="-0.3342720">
        <ele>1969.6</ele>
        <time>2020-09-11T14:26:53Z</time>
      </trkpt>
      <trkpt lat="42.8624080" lon="-0.3342670">
        <ele>1969.8</ele>
        <time>2020-09-11T14:26:55Z</time>
      </trkpt>
      <trkpt lat="42.8624120" lon="-0.3342670">
        <ele>1969.8</ele>
        <time>2020-09-11T14:26:59Z</time>
      </trkpt>
      <trkpt lat="42.8623740" lon="-0.3342540">
        <ele>1969.4</ele>
        <time>2020-09-11T14:27:05Z</time>
      </trkpt>
      <trkpt lat="42.8624150" lon="-0.3342700">
        <ele>1969.6</ele>
        <time>2020-09-11T14:30:24Z</time>
      </trkpt>
      <trkpt lat="42.8624270" lon="-0.3342930">
        <ele>1969.6</ele>
        <time>2020-09-11T14:32:45Z</time>
      </trkpt>
      <trkpt lat="42.8624790" lon="-0.3342540">
        <ele>1969.6</ele>
        <time>2020-09-11T14:33:10Z</time>
      </trkpt>
      <trkpt lat="42.8626000" lon="-0.3340580">
        <ele>1970.0</ele>
        <time>2020-09-11T14:33:27Z</time>
      </trkpt>
      <trkpt lat="42.8626440" lon="-0.3338220">
        <ele>1969.4</ele>
        <time>2020-09-11T14:33:41Z</time>
      </trkpt>
      <trkpt lat="42.8626480" lon="-0.3337520">
        <ele>1969.4</ele>
        <time>2020-09-11T14:33:45Z</time>
      </trkpt>
      <trkpt lat="42.8626780" lon="-0.3335280">
        <ele>1969.2</ele>
        <time>2020-09-11T14:33:58Z</time>
      </trkpt>
      <trkpt lat="42.8627190" lon="-0.3332760">
        <ele>1969.2</ele>
        <time>2020-09-11T14:34:14Z</time>
      </trkpt>
      <trkpt lat="42.8627190" lon="-0.3332590">
        <ele>1969.2</ele>
        <time>2020-09-11T14:34:15Z</time>
      </trkpt>
      <trkpt lat="42.8627640" lon="-0.3330490">
        <ele>1969.2</ele>
        <time>2020-09-11T14:34:28Z</time>
      </trkpt>
      <trkpt lat="42.8627970" lon="-0.3329300">
        <ele>1969.4</ele>
        <time>2020-09-11T14:34:35Z</time>
      </trkpt>
      <trkpt lat="42.8628380" lon="-0.3327560">
        <ele>1969.4</ele>
        <time>2020-09-11T14:34:46Z</time>
      </trkpt>
      <trkpt lat="42.8629110" lon="-0.3325330">
        <ele>1968.6</ele>
        <time>2020-09-11T14:35:00Z</time>
      </trkpt>
      <trkpt lat="42.8629390" lon="-0.3324550">
        <ele>1968.4</ele>
        <time>2020-09-11T14:35:05Z</time>
      </trkpt>
      <trkpt lat="42.8629540" lon="-0.3324100">
        <ele>1968.4</ele>
        <time>2020-09-11T14:35:08Z</time>
      </trkpt>
      <trkpt lat="42.8629750" lon="-0.3323060">
        <ele>1968.4</ele>
        <time>2020-09-11T14:35:17Z</time>
      </trkpt>
      <trkpt lat="42.8630310" lon="-0.3323060">
        <ele>1968.6</ele>
        <time>2020-09-11T14:35:22Z</time>
      </trkpt>
      <trkpt lat="42.8631070" lon="-0.3323240">
        <ele>1969.0</ele>
        <time>2020-09-11T14:35:27Z</time>
      </trkpt>
      <trkpt lat="42.8632050" lon="-0.3323680">
        <ele>1968.8</ele>
        <time>2020-09-11T14:35:36Z</time>
      </trkpt>
      <trkpt lat="42.8632800" lon="-0.3323420">
        <ele>1968.4</ele>
        <time>2020-09-11T14:35:43Z</time>
      </trkpt>
      <trkpt lat="42.8634670" lon="-0.3323570">
        <ele>1968.6</ele>
        <time>2020-09-11T14:35:59Z</time>
      </trkpt>
      <trkpt lat="42.8635010" lon="-0.3323550">
        <ele>1969.0</ele>
        <time>2020-09-11T14:36:03Z</time>
      </trkpt>
      <trkpt lat="42.8635630" lon="-0.3324080">
        <ele>1969.2</ele>
        <time>2020-09-11T14:36:11Z</time>
      </trkpt>
      <trkpt lat="42.8635780" lon="-0.3324210">
        <ele>1969.2</ele>
        <time>2020-09-11T14:36:13Z</time>
      </trkpt>
      <trkpt lat="42.8635900" lon="-0.3324100">
        <ele>1969.4</ele>
        <time>2020-09-11T14:36:15Z</time>
      </trkpt>
      <trkpt lat="42.8636030" lon="-0.3323570">
        <ele>1970.0</ele>
        <time>2020-09-11T14:36:19Z</time>
      </trkpt>
      <trkpt lat="42.8636140" lon="-0.3323180">
        <ele>1970.2</ele>
        <time>2020-09-11T14:36:22Z</time>
      </trkpt>
      <trkpt lat="42.8636240" lon="-0.3322780">
        <ele>1970.4</ele>
        <time>2020-09-11T14:36:25Z</time>
      </trkpt>
      <trkpt lat="42.8636330" lon="-0.3322570">
        <ele>1970.6</ele>
        <time>2020-09-11T14:36:27Z</time>
      </trkpt>
      <trkpt lat="42.8637160" lon="-0.3321490">
        <ele>1971.0</ele>
        <time>2020-09-11T14:36:41Z</time>
      </trkpt>
      <trkpt lat="42.8637530" lon="-0.3321210">
        <ele>1971.2</ele>
        <time>2020-09-11T14:36:46Z</time>
      </trkpt>
      <trkpt lat="42.8637720" lon="-0.3321040">
        <ele>1971.4</ele>
        <time>2020-09-11T14:36:48Z</time>
      </trkpt>
      <trkpt lat="42.8637830" lon="-0.3320970">
        <ele>1971.4</ele>
        <time>2020-09-11T14:36:49Z</time>
      </trkpt>
      <trkpt lat="42.8638050" lon="-0.3320770">
        <ele>1971.6</ele>
        <time>2020-09-11T14:36:51Z</time>
      </trkpt>
      <trkpt lat="42.8638430" lon="-0.3320450">
        <ele>1972.4</ele>
        <time>2020-09-11T14:36:55Z</time>
      </trkpt>
      <trkpt lat="42.8638490" lon="-0.3320350">
        <ele>1972.4</ele>
        <time>2020-09-11T14:36:56Z</time>
      </trkpt>
      <trkpt lat="42.8638770" lon="-0.3320060">
        <ele>1972.8</ele>
        <time>2020-09-11T14:37:00Z</time>
      </trkpt>
      <trkpt lat="42.8638870" lon="-0.3319860">
        <ele>1973.0</ele>
        <time>2020-09-11T14:37:02Z</time>
      </trkpt>
      <trkpt lat="42.8639230" lon="-0.3319420">
        <ele>1973.6</ele>
        <time>2020-09-11T14:37:08Z</time>
      </trkpt>
      <trkpt lat="42.8639310" lon="-0.3319220">
        <ele>1973.8</ele>
        <time>2020-09-11T14:37:10Z</time>
      </trkpt>
      <trkpt lat="42.8639600" lon="-0.3318950">
        <ele>1974.2</ele>
        <time>2020-09-11T14:37:14Z</time>
      </trkpt>
      <trkpt lat="42.8639690" lon="-0.3318870">
        <ele>1974.4</ele>
        <time>2020-09-11T14:37:16Z</time>
      </trkpt>
      <trkpt lat="42.8639790" lon="-0.3318870">
        <ele>1974.8</ele>
        <time>2020-09-11T14:37:18Z</time>
      </trkpt>
      <trkpt lat="42.8640220" lon="-0.3318690">
        <ele>1975.8</ele>
        <time>2020-09-11T14:37:24Z</time>
      </trkpt>
      <trkpt lat="42.8640470" lon="-0.3318480">
        <ele>1977.0</ele>
        <time>2020-09-11T14:37:29Z</time>
      </trkpt>
      <trkpt lat="42.8640740" lon="-0.3317910">
        <ele>1977.8</ele>
        <time>2020-09-11T14:37:36Z</time>
      </trkpt>
      <trkpt lat="42.8640700" lon="-0.3317830">
        <ele>1978.0</ele>
        <time>2020-09-11T14:37:37Z</time>
      </trkpt>
      <trkpt lat="42.8640960" lon="-0.3317270">
        <ele>1979.2</ele>
        <time>2020-09-11T14:37:44Z</time>
      </trkpt>
      <trkpt lat="42.8641170" lon="-0.3317080">
        <ele>1980.0</ele>
        <time>2020-09-11T14:37:47Z</time>
      </trkpt>
      <trkpt lat="42.8641230" lon="-0.3316990">
        <ele>1980.4</ele>
        <time>2020-09-11T14:37:49Z</time>
      </trkpt>
      <trkpt lat="42.8641540" lon="-0.3316480">
        <ele>1981.6</ele>
        <time>2020-09-11T14:37:56Z</time>
      </trkpt>
      <trkpt lat="42.8641660" lon="-0.3315950">
        <ele>1982.8</ele>
        <time>2020-09-11T14:38:03Z</time>
      </trkpt>
      <trkpt lat="42.8641820" lon="-0.3315890">
        <ele>1983.8</ele>
        <time>2020-09-11T14:38:07Z</time>
      </trkpt>
      <trkpt lat="42.8641920" lon="-0.3315740">
        <ele>1985.0</ele>
        <time>2020-09-11T14:38:13Z</time>
      </trkpt>
      <trkpt lat="42.8642110" lon="-0.3315600">
        <ele>1986.0</ele>
        <time>2020-09-11T14:38:20Z</time>
      </trkpt>
      <trkpt lat="42.8642150" lon="-0.3315660">
        <ele>1987.0</ele>
        <time>2020-09-11T14:38:27Z</time>
      </trkpt>
      <trkpt lat="42.8642590" lon="-0.3315390">
        <ele>1988.2</ele>
        <time>2020-09-11T14:38:35Z</time>
      </trkpt>
      <trkpt lat="42.8642690" lon="-0.3315440">
        <ele>1989.4</ele>
        <time>2020-09-11T14:38:43Z</time>
      </trkpt>
      <trkpt lat="42.8642720" lon="-0.3315010">
        <ele>1990.4</ele>
        <time>2020-09-11T14:38:50Z</time>
      </trkpt>
      <trkpt lat="42.8643140" lon="-0.3315140">
        <ele>1991.6</ele>
        <time>2020-09-11T14:39:01Z</time>
      </trkpt>
      <trkpt lat="42.8643480" lon="-0.3315190">
        <ele>1992.6</ele>
        <time>2020-09-11T14:39:10Z</time>
      </trkpt>
      <trkpt lat="42.8643460" lon="-0.3315150">
        <ele>1993.6</ele>
        <time>2020-09-11T14:39:16Z</time>
      </trkpt>
      <trkpt lat="42.8644110" lon="-0.3314450">
        <ele>1994.8</ele>
        <time>2020-09-11T14:39:55Z</time>
      </trkpt>
      <trkpt lat="42.8644070" lon="-0.3314040">
        <ele>1996.0</ele>
        <time>2020-09-11T14:40:02Z</time>
      </trkpt>
      <trkpt lat="42.8644300" lon="-0.3313710">
        <ele>1997.0</ele>
        <time>2020-09-11T14:40:12Z</time>
      </trkpt>
      <trkpt lat="42.8644730" lon="-0.3313420">
        <ele>1998.0</ele>
        <time>2020-09-11T14:40:18Z</time>
      </trkpt>
      <trkpt lat="42.8645040" lon="-0.3313130">
        <ele>1999.0</ele>
        <time>2020-09-11T14:40:24Z</time>
      </trkpt>
      <trkpt lat="42.8645230" lon="-0.3312740">
        <ele>2000.0</ele>
        <time>2020-09-11T14:40:32Z</time>
      </trkpt>
      <trkpt lat="42.8645380" lon="-0.3312710">
        <ele>2001.2</ele>
        <time>2020-09-11T14:40:37Z</time>
      </trkpt>
      <trkpt lat="42.8645550" lon="-0.3312390">
        <ele>2002.2</ele>
        <time>2020-09-11T14:40:45Z</time>
      </trkpt>
      <trkpt lat="42.8645770" lon="-0.3312330">
        <ele>2003.2</ele>
        <time>2020-09-11T14:40:51Z</time>
      </trkpt>
      <trkpt lat="42.8646530" lon="-0.3311250">
        <ele>2004.4</ele>
        <time>2020-09-11T14:41:04Z</time>
      </trkpt>
      <trkpt lat="42.8648180" lon="-0.3310120">
        <ele>2004.4</ele>
        <time>2020-09-11T14:41:20Z</time>
      </trkpt>
      <trkpt lat="42.8649400" lon="-0.3308980">
        <ele>2005.4</ele>
        <time>2020-09-11T14:41:34Z</time>
      </trkpt>
      <trkpt lat="42.8649740" lon="-0.3308510">
        <ele>2006.2</ele>
        <time>2020-09-11T14:41:39Z</time>
      </trkpt>
      <trkpt lat="42.8649850" lon="-0.3308440">
        <ele>2006.6</ele>
        <time>2020-09-11T14:41:41Z</time>
      </trkpt>
      <trkpt lat="42.8649950" lon="-0.3308260">
        <ele>2007.0</ele>
        <time>2020-09-11T14:41:43Z</time>
      </trkpt>
      <trkpt lat="42.8650040" lon="-0.3308160">
        <ele>2007.4</ele>
        <time>2020-09-11T14:41:45Z</time>
      </trkpt>
      <trkpt lat="42.8650090" lon="-0.3308090">
        <ele>2007.6</ele>
        <time>2020-09-11T14:41:46Z</time>
      </trkpt>
      <trkpt lat="42.8650570" lon="-0.3307720">
        <ele>2008.6</ele>
        <time>2020-09-11T14:41:53Z</time>
      </trkpt>
      <trkpt lat="42.8650910" lon="-0.3308360">
        <ele>2010.0</ele>
        <time>2020-09-11T14:42:00Z</time>
      </trkpt>
      <trkpt lat="42.8650990" lon="-0.3308530">
        <ele>2010.0</ele>
        <time>2020-09-11T14:42:01Z</time>
      </trkpt>
      <trkpt lat="42.8652620" lon="-0.3308320">
        <ele>2009.0</ele>
        <time>2020-09-11T14:42:16Z</time>
      </trkpt>
      <trkpt lat="42.8652820" lon="-0.3308230">
        <ele>2009.0</ele>
        <time>2020-09-11T14:42:18Z</time>
      </trkpt>
      <trkpt lat="42.8654710" lon="-0.3308150">
        <ele>2009.4</ele>
        <time>2020-09-11T14:42:35Z</time>
      </trkpt>
      <trkpt lat="42.8654770" lon="-0.3308130">
        <ele>2009.4</ele>
        <time>2020-09-11T14:42:36Z</time>
      </trkpt>
      <trkpt lat="42.8655300" lon="-0.3308300">
        <ele>2009.8</ele>
        <time>2020-09-11T14:42:42Z</time>
      </trkpt>
      <trkpt lat="42.8655420" lon="-0.3308320">
        <ele>2010.0</ele>
        <time>2020-09-11T14:42:43Z</time>
      </trkpt>
      <trkpt lat="42.8656710" lon="-0.3308120">
        <ele>2011.0</ele>
        <time>2020-09-11T14:42:54Z</time>
      </trkpt>
      <trkpt lat="42.8656780" lon="-0.3307990">
        <ele>2011.2</ele>
        <time>2020-09-11T14:42:55Z</time>
      </trkpt>
      <trkpt lat="42.8656890" lon="-0.3307370">
        <ele>2011.6</ele>
        <time>2020-09-11T14:42:59Z</time>
      </trkpt>
      <trkpt lat="42.8657110" lon="-0.3307070">
        <ele>2011.8</ele>
        <time>2020-09-11T14:43:02Z</time>
      </trkpt>
      <trkpt lat="42.8657610" lon="-0.3307420">
        <ele>2012.2</ele>
        <time>2020-09-11T14:43:08Z</time>
      </trkpt>
      <trkpt lat="42.8657950" lon="-0.3307700">
        <ele>2012.4</ele>
        <time>2020-09-11T14:43:12Z</time>
      </trkpt>
      <trkpt lat="42.8658180" lon="-0.3307830">
        <ele>2012.4</ele>
        <time>2020-09-11T14:43:14Z</time>
      </trkpt>
      <trkpt lat="42.8658380" lon="-0.3307900">
        <ele>2012.2</ele>
        <time>2020-09-11T14:43:16Z</time>
      </trkpt>
      <trkpt lat="42.8658530" lon="-0.3308070">
        <ele>2011.8</ele>
        <time>2020-09-11T14:43:18Z</time>
      </trkpt>
      <trkpt lat="42.8658780" lon="-0.3308600">
        <ele>2011.2</ele>
        <time>2020-09-11T14:43:22Z</time>
      </trkpt>
      <trkpt lat="42.8659580" lon="-0.3309810">
        <ele>2010.2</ele>
        <time>2020-09-11T14:43:32Z</time>
      </trkpt>
      <trkpt lat="42.8660160" lon="-0.3309370">
        <ele>2010.0</ele>
        <time>2020-09-11T14:43:38Z</time>
      </trkpt>
      <trkpt lat="42.8660420" lon="-0.3309010">
        <ele>2010.8</ele>
        <time>2020-09-11T14:43:42Z</time>
      </trkpt>
      <trkpt lat="42.8660610" lon="-0.3308750">
        <ele>2011.2</ele>
        <time>2020-09-11T14:43:45Z</time>
      </trkpt>
      <trkpt lat="42.8660730" lon="-0.3308520">
        <ele>2011.4</ele>
        <time>2020-09-11T14:43:47Z</time>
      </trkpt>
      <trkpt lat="42.8660890" lon="-0.3308410">
        <ele>2011.6</ele>
        <time>2020-09-11T14:43:49Z</time>
      </trkpt>
      <trkpt lat="42.8662200" lon="-0.3308820">
        <ele>2010.4</ele>
        <time>2020-09-11T14:44:03Z</time>
      </trkpt>
      <trkpt lat="42.8662320" lon="-0.3308820">
        <ele>2010.2</ele>
        <time>2020-09-11T14:44:04Z</time>
      </trkpt>
      <trkpt lat="42.8662970" lon="-0.3308940">
        <ele>2009.0</ele>
        <time>2020-09-11T14:44:11Z</time>
      </trkpt>
      <trkpt lat="42.8663190" lon="-0.3309090">
        <ele>2008.4</ele>
        <time>2020-09-11T14:44:14Z</time>
      </trkpt>
      <trkpt lat="42.8663410" lon="-0.3309140">
        <ele>2008.2</ele>
        <time>2020-09-11T14:44:16Z</time>
      </trkpt>
      <trkpt lat="42.8663530" lon="-0.3309190">
        <ele>2008.0</ele>
        <time>2020-09-11T14:44:17Z</time>
      </trkpt>
      <trkpt lat="42.8664740" lon="-0.3309510">
        <ele>2006.8</ele>
        <time>2020-09-11T14:44:29Z</time>
      </trkpt>
      <trkpt lat="42.8665550" lon="-0.3309420">
        <ele>2005.8</ele>
        <time>2020-09-11T14:44:36Z</time>
      </trkpt>
      <trkpt lat="42.8667330" lon="-0.3309120">
        <ele>2006.4</ele>
        <time>2020-09-11T14:44:53Z</time>
      </trkpt>
      <trkpt lat="42.8668790" lon="-0.3309430">
        <ele>2004.8</ele>
        <time>2020-09-11T14:45:07Z</time>
      </trkpt>
      <trkpt lat="42.8670230" lon="-0.3309730">
        <ele>2003.6</ele>
        <time>2020-09-11T14:45:19Z</time>
      </trkpt>
      <trkpt lat="42.8671460" lon="-0.3308810">
        <ele>2003.2</ele>
        <time>2020-09-11T14:45:32Z</time>
      </trkpt>
      <trkpt lat="42.8671640" lon="-0.3308940">
        <ele>2003.2</ele>
        <time>2020-09-11T14:45:34Z</time>
      </trkpt>
      <trkpt lat="42.8672080" lon="-0.3309240">
        <ele>2003.0</ele>
        <time>2020-09-11T14:45:40Z</time>
      </trkpt>
      <trkpt lat="42.8672180" lon="-0.3309320">
        <ele>2002.8</ele>
        <time>2020-09-11T14:45:42Z</time>
      </trkpt>
      <trkpt lat="42.8672250" lon="-0.3309350">
        <ele>2002.6</ele>
        <time>2020-09-11T14:45:43Z</time>
      </trkpt>
      <trkpt lat="42.8672660" lon="-0.3309620">
        <ele>2001.6</ele>
        <time>2020-09-11T14:45:50Z</time>
      </trkpt>
      <trkpt lat="42.8672980" lon="-0.3309750">
        <ele>2000.4</ele>
        <time>2020-09-11T14:45:55Z</time>
      </trkpt>
      <trkpt lat="42.8673350" lon="-0.3309950">
        <ele>1999.4</ele>
        <time>2020-09-11T14:46:01Z</time>
      </trkpt>
      <trkpt lat="42.8673600" lon="-0.3310160">
        <ele>1998.0</ele>
        <time>2020-09-11T14:46:05Z</time>
      </trkpt>
      <trkpt lat="42.8673840" lon="-0.3310460">
        <ele>1997.0</ele>
        <time>2020-09-11T14:46:09Z</time>
      </trkpt>
      <trkpt lat="42.8674070" lon="-0.3310740">
        <ele>1995.8</ele>
        <time>2020-09-11T14:46:15Z</time>
      </trkpt>
      <trkpt lat="42.8673840" lon="-0.3311020">
        <ele>1994.8</ele>
        <time>2020-09-11T14:46:22Z</time>
      </trkpt>
      <trkpt lat="42.8673560" lon="-0.3311140">
        <ele>1993.6</ele>
        <time>2020-09-11T14:46:27Z</time>
      </trkpt>
      <trkpt lat="42.8673300" lon="-0.3311230">
        <ele>1992.4</ele>
        <time>2020-09-11T14:46:31Z</time>
      </trkpt>
      <trkpt lat="42.8672840" lon="-0.3311400">
        <ele>1991.2</ele>
        <time>2020-09-11T14:46:38Z</time>
      </trkpt>
      <trkpt lat="42.8672680" lon="-0.3311640">
        <ele>1990.0</ele>
        <time>2020-09-11T14:46:41Z</time>
      </trkpt>
      <trkpt lat="42.8673370" lon="-0.3312010">
        <ele>1989.0</ele>
        <time>2020-09-11T14:46:51Z</time>
      </trkpt>
      <trkpt lat="42.8673700" lon="-0.3312030">
        <ele>1988.4</ele>
        <time>2020-09-11T14:46:54Z</time>
      </trkpt>
      <trkpt lat="42.8673930" lon="-0.3311970">
        <ele>1988.0</ele>
        <time>2020-09-11T14:46:56Z</time>
      </trkpt>
      <trkpt lat="42.8674170" lon="-0.3311890">
        <ele>1987.2</ele>
        <time>2020-09-11T14:46:59Z</time>
      </trkpt>
      <trkpt lat="42.8674210" lon="-0.3311890">
        <ele>1987.0</ele>
        <time>2020-09-11T14:47:00Z</time>
      </trkpt>
      <trkpt lat="42.8674680" lon="-0.3311830">
        <ele>1985.8</ele>
        <time>2020-09-11T14:47:06Z</time>
      </trkpt>
      <trkpt lat="42.8675070" lon="-0.3311870">
        <ele>1985.2</ele>
        <time>2020-09-11T14:47:10Z</time>
      </trkpt>
      <trkpt lat="42.8675280" lon="-0.3311850">
        <ele>1984.8</ele>
        <time>2020-09-11T14:47:12Z</time>
      </trkpt>
      <trkpt lat="42.8675370" lon="-0.3311870">
        <ele>1984.6</ele>
        <time>2020-09-11T14:47:13Z</time>
      </trkpt>
      <trkpt lat="42.8675770" lon="-0.3312070">
        <ele>1983.4</ele>
        <time>2020-09-11T14:47:18Z</time>
      </trkpt>
      <trkpt lat="42.8675850" lon="-0.3312190">
        <ele>1983.4</ele>
        <time>2020-09-11T14:47:19Z</time>
      </trkpt>
      <trkpt lat="42.8676300" lon="-0.3312760">
        <ele>1982.2</ele>
        <time>2020-09-11T14:47:24Z</time>
      </trkpt>
      <trkpt lat="42.8676470" lon="-0.3312840">
        <ele>1981.8</ele>
        <time>2020-09-11T14:47:26Z</time>
      </trkpt>
      <trkpt lat="42.8676710" lon="-0.3312830">
        <ele>1981.0</ele>
        <time>2020-09-11T14:47:30Z</time>
      </trkpt>
      <trkpt lat="42.8677000" lon="-0.3312790">
        <ele>1979.8</ele>
        <time>2020-09-11T14:47:34Z</time>
      </trkpt>
      <trkpt lat="42.8677310" lon="-0.3312880">
        <ele>1979.2</ele>
        <time>2020-09-11T14:47:37Z</time>
      </trkpt>
      <trkpt lat="42.8677460" lon="-0.3312840">
        <ele>1978.8</ele>
        <time>2020-09-11T14:47:39Z</time>
      </trkpt>
      <trkpt lat="42.8677540" lon="-0.3312750">
        <ele>1978.6</ele>
        <time>2020-09-11T14:47:40Z</time>
      </trkpt>
      <trkpt lat="42.8677720" lon="-0.3312500">
        <ele>1978.4</ele>
        <time>2020-09-11T14:47:42Z</time>
      </trkpt>
      <trkpt lat="42.8677920" lon="-0.3312440">
        <ele>1978.0</ele>
        <time>2020-09-11T14:47:44Z</time>
      </trkpt>
      <trkpt lat="42.8678120" lon="-0.3312480">
        <ele>1977.6</ele>
        <time>2020-09-11T14:47:46Z</time>
      </trkpt>
      <trkpt lat="42.8678970" lon="-0.3312350">
        <ele>1976.6</ele>
        <time>2020-09-11T14:47:52Z</time>
      </trkpt>
      <trkpt lat="42.8679440" lon="-0.3312410">
        <ele>1975.2</ele>
        <time>2020-09-11T14:47:56Z</time>
      </trkpt>
      <trkpt lat="42.8679960" lon="-0.3312480">
        <ele>1974.2</ele>
        <time>2020-09-11T14:48:01Z</time>
      </trkpt>
      <trkpt lat="42.8681000" lon="-0.3312660">
        <ele>1973.4</ele>
        <time>2020-09-11T14:48:09Z</time>
      </trkpt>
      <trkpt lat="42.8681490" lon="-0.3312850">
        <ele>1973.6</ele>
        <time>2020-09-11T14:48:13Z</time>
      </trkpt>
      <trkpt lat="42.8682840" lon="-0.3312510">
        <ele>1974.2</ele>
        <time>2020-09-11T14:48:25Z</time>
      </trkpt>
      <trkpt lat="42.8683110" lon="-0.3312440">
        <ele>1974.2</ele>
        <time>2020-09-11T14:48:28Z</time>
      </trkpt>
      <trkpt lat="42.8683660" lon="-0.3312370">
        <ele>1973.2</ele>
        <time>2020-09-11T14:48:33Z</time>
      </trkpt>
      <trkpt lat="42.8685500" lon="-0.3312090">
        <ele>1973.2</ele>
        <time>2020-09-11T14:48:50Z</time>
      </trkpt>
      <trkpt lat="42.8687200" lon="-0.3311230">
        <ele>1972.8</ele>
        <time>2020-09-11T14:49:05Z</time>
      </trkpt>
      <trkpt lat="42.8687580" lon="-0.3310980">
        <ele>1973.0</ele>
        <time>2020-09-11T14:49:11Z</time>
      </trkpt>
      <trkpt lat="42.8687920" lon="-0.3310770">
        <ele>1973.4</ele>
        <time>2020-09-11T14:49:15Z</time>
      </trkpt>
      <trkpt lat="42.8688100" lon="-0.3310520">
        <ele>1973.4</ele>
        <time>2020-09-11T14:49:17Z</time>
      </trkpt>
      <trkpt lat="42.8689360" lon="-0.3309030">
        <ele>1972.0</ele>
        <time>2020-09-11T14:49:31Z</time>
      </trkpt>
      <trkpt lat="42.8690980" lon="-0.3307950">
        <ele>1971.6</ele>
        <time>2020-09-11T14:49:46Z</time>
      </trkpt>
      <trkpt lat="42.8691180" lon="-0.3307820">
        <ele>1971.6</ele>
        <time>2020-09-11T14:49:48Z</time>
      </trkpt>
      <trkpt lat="42.8692340" lon="-0.3306750">
        <ele>1970.8</ele>
        <time>2020-09-11T14:49:59Z</time>
      </trkpt>
      <trkpt lat="42.8693250" lon="-0.3305680">
        <ele>1970.4</ele>
        <time>2020-09-11T14:50:10Z</time>
      </trkpt>
      <trkpt lat="42.8693420" lon="-0.3305430">
        <ele>1969.8</ele>
        <time>2020-09-11T14:50:14Z</time>
      </trkpt>
      <trkpt lat="42.8693440" lon="-0.3305320">
        <ele>1969.6</ele>
        <time>2020-09-11T14:50:15Z</time>
      </trkpt>
      <trkpt lat="42.8693500" lon="-0.3305190">
        <ele>1969.2</ele>
        <time>2020-09-11T14:50:17Z</time>
      </trkpt>
      <trkpt lat="42.8693500" lon="-0.3304980">
        <ele>1968.6</ele>
        <time>2020-09-11T14:50:20Z</time>
      </trkpt>
      <trkpt lat="42.8693660" lon="-0.3304770">
        <ele>1967.6</ele>
        <time>2020-09-11T14:50:25Z</time>
      </trkpt>
      <trkpt lat="42.8693700" lon="-0.3304820">
        <ele>1967.4</ele>
        <time>2020-09-11T14:50:26Z</time>
      </trkpt>
      <trkpt lat="42.8693960" lon="-0.3304550">
        <ele>1966.8</ele>
        <time>2020-09-11T14:50:30Z</time>
      </trkpt>
      <trkpt lat="42.8694020" lon="-0.3304480">
        <ele>1966.6</ele>
        <time>2020-09-11T14:50:31Z</time>
      </trkpt>
      <trkpt lat="42.8694120" lon="-0.3304140">
        <ele>1965.8</ele>
        <time>2020-09-11T14:50:33Z</time>
      </trkpt>
      <trkpt lat="42.8694140" lon="-0.3303980">
        <ele>1965.2</ele>
        <time>2020-09-11T14:50:35Z</time>
      </trkpt>
      <trkpt lat="42.8694430" lon="-0.3303280">
        <ele>1964.0</ele>
        <time>2020-09-11T14:50:38Z</time>
      </trkpt>
      <trkpt lat="42.8694710" lon="-0.3302470">
        <ele>1963.0</ele>
        <time>2020-09-11T14:50:42Z</time>
      </trkpt>
      <trkpt lat="42.8695640" lon="-0.3301600">
        <ele>1962.8</ele>
        <time>2020-09-11T14:50:54Z</time>
      </trkpt>
      <trkpt lat="42.8695730" lon="-0.3301390">
        <ele>1963.2</ele>
        <time>2020-09-11T14:50:57Z</time>
      </trkpt>
      <trkpt lat="42.8696120" lon="-0.3300950">
        <ele>1964.0</ele>
        <time>2020-09-11T14:51:02Z</time>
      </trkpt>
      <trkpt lat="42.8696200" lon="-0.3300860">
        <ele>1964.0</ele>
        <time>2020-09-11T14:51:03Z</time>
      </trkpt>
      <trkpt lat="42.8696510" lon="-0.3300350">
        <ele>1964.8</ele>
        <time>2020-09-11T14:51:09Z</time>
      </trkpt>
      <trkpt lat="42.8696560" lon="-0.3300270">
        <ele>1965.0</ele>
        <time>2020-09-11T14:51:10Z</time>
      </trkpt>
      <trkpt lat="42.8696990" lon="-0.3299780">
        <ele>1966.2</ele>
        <time>2020-09-11T14:51:16Z</time>
      </trkpt>
      <trkpt lat="42.8697400" lon="-0.3299220">
        <ele>1967.2</ele>
        <time>2020-09-11T14:51:22Z</time>
      </trkpt>
      <trkpt lat="42.8698090" lon="-0.3298350">
        <ele>1967.8</ele>
        <time>2020-09-11T14:51:31Z</time>
      </trkpt>
      <trkpt lat="42.8698100" lon="-0.3298080">
        <ele>1967.8</ele>
        <time>2020-09-11T14:51:33Z</time>
      </trkpt>
      <trkpt lat="42.8698100" lon="-0.3297830">
        <ele>1968.0</ele>
        <time>2020-09-11T14:51:36Z</time>
      </trkpt>
      <trkpt lat="42.8698100" lon="-0.3297580">
        <ele>1968.4</ele>
        <time>2020-09-11T14:51:39Z</time>
      </trkpt>
      <trkpt lat="42.8698140" lon="-0.3297310">
        <ele>1969.4</ele>
        <time>2020-09-11T14:51:45Z</time>
      </trkpt>
      <trkpt lat="42.8698740" lon="-0.3297030">
        <ele>1970.6</ele>
        <time>2020-09-11T14:51:51Z</time>
      </trkpt>
      <trkpt lat="42.8699660" lon="-0.3296680">
        <ele>1971.6</ele>
        <time>2020-09-11T14:52:02Z</time>
      </trkpt>
      <trkpt lat="42.8700470" lon="-0.3296670">
        <ele>1972.8</ele>
        <time>2020-09-11T14:52:10Z</time>
      </trkpt>
      <trkpt lat="42.8701160" lon="-0.3296330">
        <ele>1973.8</ele>
        <time>2020-09-11T14:52:18Z</time>
      </trkpt>
      <trkpt lat="42.8702710" lon="-0.3295620">
        <ele>1974.8</ele>
        <time>2020-09-11T14:52:33Z</time>
      </trkpt>
      <trkpt lat="42.8704380" lon="-0.3294940">
        <ele>1975.4</ele>
        <time>2020-09-11T14:52:49Z</time>
      </trkpt>
      <trkpt lat="42.8704540" lon="-0.3294850">
        <ele>1975.4</ele>
        <time>2020-09-11T14:52:51Z</time>
      </trkpt>
      <trkpt lat="42.8706290" lon="-0.3294030">
        <ele>1974.4</ele>
        <time>2020-09-11T14:53:06Z</time>
      </trkpt>
      <trkpt lat="42.8706950" lon="-0.3293710">
        <ele>1974.6</ele>
        <time>2020-09-11T14:53:13Z</time>
      </trkpt>
      <trkpt lat="42.8708800" lon="-0.3293220">
        <ele>1974.8</ele>
        <time>2020-09-11T14:53:29Z</time>
      </trkpt>
      <trkpt lat="42.8710500" lon="-0.3292610">
        <ele>1975.6</ele>
        <time>2020-09-11T14:53:45Z</time>
      </trkpt>
      <trkpt lat="42.8710970" lon="-0.3292580">
        <ele>1975.6</ele>
        <time>2020-09-11T14:53:50Z</time>
      </trkpt>
      <trkpt lat="42.8711290" lon="-0.3292550">
        <ele>1975.8</ele>
        <time>2020-09-11T14:53:53Z</time>
      </trkpt>
      <trkpt lat="42.8713180" lon="-0.3292390">
        <ele>1975.2</ele>
        <time>2020-09-11T14:54:09Z</time>
      </trkpt>
      <trkpt lat="42.8713400" lon="-0.3292270">
        <ele>1975.0</ele>
        <time>2020-09-11T14:54:12Z</time>
      </trkpt>
      <trkpt lat="42.8715270" lon="-0.3292770">
        <ele>1975.0</ele>
        <time>2020-09-11T14:54:28Z</time>
      </trkpt>
      <trkpt lat="42.8717040" lon="-0.3293440">
        <ele>1973.8</ele>
        <time>2020-09-11T14:54:42Z</time>
      </trkpt>
      <trkpt lat="42.8717180" lon="-0.3293480">
        <ele>1973.8</ele>
        <time>2020-09-11T14:54:43Z</time>
      </trkpt>
      <trkpt lat="42.8718040" lon="-0.3293310">
        <ele>1973.6</ele>
        <time>2020-09-11T14:54:50Z</time>
      </trkpt>
      <trkpt lat="42.8718270" lon="-0.3293580">
        <ele>1973.6</ele>
        <time>2020-09-11T14:54:53Z</time>
      </trkpt>
      <trkpt lat="42.8719220" lon="-0.3293740">
        <ele>1974.8</ele>
        <time>2020-09-11T14:55:03Z</time>
      </trkpt>
      <trkpt lat="42.8719350" lon="-0.3293750">
        <ele>1975.0</ele>
        <time>2020-09-11T14:55:05Z</time>
      </trkpt>
      <trkpt lat="42.8719730" lon="-0.3293780">
        <ele>1975.6</ele>
        <time>2020-09-11T14:55:09Z</time>
      </trkpt>
      <trkpt lat="42.8719820" lon="-0.3293790">
        <ele>1975.8</ele>
        <time>2020-09-11T14:55:10Z</time>
      </trkpt>
      <trkpt lat="42.8720220" lon="-0.3293990">
        <ele>1976.4</ele>
        <time>2020-09-11T14:55:14Z</time>
      </trkpt>
      <trkpt lat="42.8720500" lon="-0.3293950">
        <ele>1976.6</ele>
        <time>2020-09-11T14:55:17Z</time>
      </trkpt>
      <trkpt lat="42.8721240" lon="-0.3294270">
        <ele>1976.0</ele>
        <time>2020-09-11T14:55:25Z</time>
      </trkpt>
      <trkpt lat="42.8721650" lon="-0.3294220">
        <ele>1976.0</ele>
        <time>2020-09-11T14:55:29Z</time>
      </trkpt>
      <trkpt lat="42.8722890" lon="-0.3294700">
        <ele>1974.6</ele>
        <time>2020-09-11T14:55:40Z</time>
      </trkpt>
      <trkpt lat="42.8723050" lon="-0.3294770">
        <ele>1974.4</ele>
        <time>2020-09-11T14:55:42Z</time>
      </trkpt>
      <trkpt lat="42.8723740" lon="-0.3295180">
        <ele>1973.6</ele>
        <time>2020-09-11T14:55:50Z</time>
      </trkpt>
      <trkpt lat="42.8724250" lon="-0.3295250">
        <ele>1972.4</ele>
        <time>2020-09-11T14:55:56Z</time>
      </trkpt>
      <trkpt lat="42.8724290" lon="-0.3295280">
        <ele>1972.4</ele>
        <time>2020-09-11T14:55:57Z</time>
      </trkpt>
      <trkpt lat="42.8725030" lon="-0.3295430">
        <ele>1971.6</ele>
        <time>2020-09-11T14:56:06Z</time>
      </trkpt>
      <trkpt lat="42.8725460" lon="-0.3295660">
        <ele>1971.4</ele>
        <time>2020-09-11T14:56:10Z</time>
      </trkpt>
      <trkpt lat="42.8725960" lon="-0.3295630">
        <ele>1971.4</ele>
        <time>2020-09-11T14:56:16Z</time>
      </trkpt>
      <trkpt lat="42.8726120" lon="-0.3295600">
        <ele>1971.4</ele>
        <time>2020-09-11T14:56:18Z</time>
      </trkpt>
      <trkpt lat="42.8726260" lon="-0.3295600">
        <ele>1971.4</ele>
        <time>2020-09-11T14:56:20Z</time>
      </trkpt>
      <trkpt lat="42.8726620" lon="-0.3295730">
        <ele>1971.0</ele>
        <time>2020-09-11T14:56:24Z</time>
      </trkpt>
      <trkpt lat="42.8726770" lon="-0.3295770">
        <ele>1970.8</ele>
        <time>2020-09-11T14:56:26Z</time>
      </trkpt>
      <trkpt lat="42.8726980" lon="-0.3296020">
        <ele>1970.8</ele>
        <time>2020-09-11T14:56:29Z</time>
      </trkpt>
      <trkpt lat="42.8727370" lon="-0.3296420">
        <ele>1970.2</ele>
        <time>2020-09-11T14:56:34Z</time>
      </trkpt>
      <trkpt lat="42.8727910" lon="-0.3296670">
        <ele>1969.2</ele>
        <time>2020-09-11T14:56:39Z</time>
      </trkpt>
      <trkpt lat="42.8728570" lon="-0.3296890">
        <ele>1968.2</ele>
        <time>2020-09-11T14:56:45Z</time>
      </trkpt>
      <trkpt lat="42.8728670" lon="-0.3296960">
        <ele>1967.8</ele>
        <time>2020-09-11T14:56:47Z</time>
      </trkpt>
      <trkpt lat="42.8728820" lon="-0.3297050">
        <ele>1967.2</ele>
        <time>2020-09-11T14:56:49Z</time>
      </trkpt>
      <trkpt lat="42.8728980" lon="-0.3297070">
        <ele>1966.6</ele>
        <time>2020-09-11T14:56:51Z</time>
      </trkpt>
      <trkpt lat="42.8729110" lon="-0.3297120">
        <ele>1966.2</ele>
        <time>2020-09-11T14:56:53Z</time>
      </trkpt>
      <trkpt lat="42.8729510" lon="-0.3297270">
        <ele>1965.2</ele>
        <time>2020-09-11T14:56:58Z</time>
      </trkpt>
      <trkpt lat="42.8729660" lon="-0.3297280">
        <ele>1964.8</ele>
        <time>2020-09-11T14:57:00Z</time>
      </trkpt>
      <trkpt lat="42.8729990" lon="-0.3297410">
        <ele>1964.4</ele>
        <time>2020-09-11T14:57:03Z</time>
      </trkpt>
      <trkpt lat="42.8730210" lon="-0.3297550">
        <ele>1964.0</ele>
        <time>2020-09-11T14:57:05Z</time>
      </trkpt>
      <trkpt lat="42.8731660" lon="-0.3297540">
        <ele>1964.6</ele>
        <time>2020-09-11T14:57:20Z</time>
      </trkpt>
      <trkpt lat="42.8731830" lon="-0.3297580">
        <ele>1964.8</ele>
        <time>2020-09-11T14:57:23Z</time>
      </trkpt>
      <trkpt lat="42.8731960" lon="-0.3297660">
        <ele>1965.2</ele>
        <time>2020-09-11T14:57:25Z</time>
      </trkpt>
      <trkpt lat="42.8732130" lon="-0.3297700">
        <ele>1965.4</ele>
        <time>2020-09-11T14:57:27Z</time>
      </trkpt>
      <trkpt lat="42.8732540" lon="-0.3297790">
        <ele>1966.2</ele>
        <time>2020-09-11T14:57:32Z</time>
      </trkpt>
      <trkpt lat="42.8733240" lon="-0.3298060">
        <ele>1967.4</ele>
        <time>2020-09-11T14:57:39Z</time>
      </trkpt>
      <trkpt lat="42.8734500" lon="-0.3297960">
        <ele>1968.2</ele>
        <time>2020-09-11T14:57:52Z</time>
      </trkpt>
      <trkpt lat="42.8734950" lon="-0.3297800">
        <ele>1967.6</ele>
        <time>2020-09-11T14:57:57Z</time>
      </trkpt>
      <trkpt lat="42.8735390" lon="-0.3297710">
        <ele>1967.6</ele>
        <time>2020-09-11T14:58:02Z</time>
      </trkpt>
      <trkpt lat="42.8736080" lon="-0.3297740">
        <ele>1967.8</ele>
        <time>2020-09-11T14:58:09Z</time>
      </trkpt>
      <trkpt lat="42.8736410" lon="-0.3297530">
        <ele>1968.4</ele>
        <time>2020-09-11T14:58:15Z</time>
      </trkpt>
      <trkpt lat="42.8737010" lon="-0.3297020">
        <ele>1969.4</ele>
        <time>2020-09-11T14:58:25Z</time>
      </trkpt>
      <trkpt lat="42.8737720" lon="-0.3295850">
        <ele>1970.0</ele>
        <time>2020-09-11T14:58:36Z</time>
      </trkpt>
      <trkpt lat="42.8737840" lon="-0.3295520">
        <ele>1970.0</ele>
        <time>2020-09-11T14:58:38Z</time>
      </trkpt>
      <trkpt lat="42.8737870" lon="-0.3295280">
        <ele>1970.2</ele>
        <time>2020-09-11T14:58:40Z</time>
      </trkpt>
      <trkpt lat="42.8739240" lon="-0.3293600">
        <ele>1969.8</ele>
        <time>2020-09-11T14:58:59Z</time>
      </trkpt>
      <trkpt lat="42.8739810" lon="-0.3293190">
        <ele>1970.0</ele>
        <time>2020-09-11T14:59:06Z</time>
      </trkpt>
      <trkpt lat="42.8739960" lon="-0.3292950">
        <ele>1970.4</ele>
        <time>2020-09-11T14:59:09Z</time>
      </trkpt>
      <trkpt lat="42.8740200" lon="-0.3292710">
        <ele>1970.8</ele>
        <time>2020-09-11T14:59:14Z</time>
      </trkpt>
      <trkpt lat="42.8740730" lon="-0.3292410">
        <ele>1969.4</ele>
        <time>2020-09-11T14:59:26Z</time>
      </trkpt>
      <trkpt lat="42.8741110" lon="-0.3291890">
        <ele>1968.2</ele>
        <time>2020-09-11T14:59:31Z</time>
      </trkpt>
      <trkpt lat="42.8741940" lon="-0.3290880">
        <ele>1967.2</ele>
        <time>2020-09-11T14:59:41Z</time>
      </trkpt>
      <trkpt lat="42.8742290" lon="-0.3290360">
        <ele>1967.0</ele>
        <time>2020-09-11T14:59:48Z</time>
      </trkpt>
      <trkpt lat="42.8742370" lon="-0.3290090">
        <ele>1966.8</ele>
        <time>2020-09-11T14:59:51Z</time>
      </trkpt>
      <trkpt lat="42.8742430" lon="-0.3289880">
        <ele>1967.0</ele>
        <time>2020-09-11T14:59:53Z</time>
      </trkpt>
      <trkpt lat="42.8742490" lon="-0.3289630">
        <ele>1967.2</ele>
        <time>2020-09-11T14:59:56Z</time>
      </trkpt>
      <trkpt lat="42.8742820" lon="-0.3288760">
        <ele>1968.2</ele>
        <time>2020-09-11T15:00:02Z</time>
      </trkpt>
      <trkpt lat="42.8742850" lon="-0.3288570">
        <ele>1968.4</ele>
        <time>2020-09-11T15:00:03Z</time>
      </trkpt>
      <trkpt lat="42.8742870" lon="-0.3288420">
        <ele>1968.4</ele>
        <time>2020-09-11T15:00:04Z</time>
      </trkpt>
      <trkpt lat="42.8742890" lon="-0.3288090">
        <ele>1968.6</ele>
        <time>2020-09-11T15:00:06Z</time>
      </trkpt>
      <trkpt lat="42.8743210" lon="-0.3287310">
        <ele>1969.0</ele>
        <time>2020-09-11T15:00:12Z</time>
      </trkpt>
      <trkpt lat="42.8743650" lon="-0.3286970">
        <ele>1969.2</ele>
        <time>2020-09-11T15:00:16Z</time>
      </trkpt>
      <trkpt lat="42.8743800" lon="-0.3286740">
        <ele>1969.6</ele>
        <time>2020-09-11T15:00:18Z</time>
      </trkpt>
      <trkpt lat="42.8744090" lon="-0.3286160">
        <ele>1970.2</ele>
        <time>2020-09-11T15:00:23Z</time>
      </trkpt>
      <trkpt lat="42.8744240" lon="-0.3285680">
        <ele>1970.6</ele>
        <time>2020-09-11T15:00:30Z</time>
      </trkpt>
      <trkpt lat="42.8743990" lon="-0.3285040">
        <ele>1971.0</ele>
        <time>2020-09-11T15:00:36Z</time>
      </trkpt>
      <trkpt lat="42.8744130" lon="-0.3284810">
        <ele>1971.6</ele>
        <time>2020-09-11T15:00:39Z</time>
      </trkpt>
      <trkpt lat="42.8744210" lon="-0.3284730">
        <ele>1971.8</ele>
        <time>2020-09-11T15:00:40Z</time>
      </trkpt>
      <trkpt lat="42.8744320" lon="-0.3284490">
        <ele>1972.2</ele>
        <time>2020-09-11T15:00:43Z</time>
      </trkpt>
      <trkpt lat="42.8744470" lon="-0.3284290">
        <ele>1972.8</ele>
        <time>2020-09-11T15:00:46Z</time>
      </trkpt>
      <trkpt lat="42.8744520" lon="-0.3284220">
        <ele>1973.0</ele>
        <time>2020-09-11T15:00:47Z</time>
      </trkpt>
      <trkpt lat="42.8744590" lon="-0.3284080">
        <ele>1973.2</ele>
        <time>2020-09-11T15:00:49Z</time>
      </trkpt>
      <trkpt lat="42.8744580" lon="-0.3283980">
        <ele>1973.4</ele>
        <time>2020-09-11T15:00:51Z</time>
      </trkpt>
      <trkpt lat="42.8744670" lon="-0.3283960">
        <ele>1973.8</ele>
        <time>2020-09-11T15:00:53Z</time>
      </trkpt>
      <trkpt lat="42.8745130" lon="-0.3283580">
        <ele>1975.0</ele>
        <time>2020-09-11T15:01:02Z</time>
      </trkpt>
      <trkpt lat="42.8745440" lon="-0.3283340">
        <ele>1976.0</ele>
        <time>2020-09-11T15:01:09Z</time>
      </trkpt>
      <trkpt lat="42.8745590" lon="-0.3283020">
        <ele>1977.0</ele>
        <time>2020-09-11T15:01:15Z</time>
      </trkpt>
      <trkpt lat="42.8744960" lon="-0.3282640">
        <ele>1978.2</ele>
        <time>2020-09-11T15:01:23Z</time>
      </trkpt>
      <trkpt lat="42.8744720" lon="-0.3282710">
        <ele>1979.2</ele>
        <time>2020-09-11T15:01:29Z</time>
      </trkpt>
      <trkpt lat="42.8745100" lon="-0.3282580">
        <ele>1980.4</ele>
        <time>2020-09-11T15:01:40Z</time>
      </trkpt>
      <trkpt lat="42.8745340" lon="-0.3282480">
        <ele>1981.4</ele>
        <time>2020-09-11T15:01:44Z</time>
      </trkpt>
      <trkpt lat="42.8745430" lon="-0.3282040">
        <ele>1982.4</ele>
        <time>2020-09-11T15:01:53Z</time>
      </trkpt>
      <trkpt lat="42.8745050" lon="-0.3281840">
        <ele>1983.6</ele>
        <time>2020-09-11T15:02:00Z</time>
      </trkpt>
      <trkpt lat="42.8744740" lon="-0.3281760">
        <ele>1984.6</ele>
        <time>2020-09-11T15:02:07Z</time>
      </trkpt>
      <trkpt lat="42.8744510" lon="-0.3281750">
        <ele>1985.8</ele>
        <time>2020-09-11T15:02:13Z</time>
      </trkpt>
      <trkpt lat="42.8744150" lon="-0.3281690">
        <ele>1986.4</ele>
        <time>2020-09-11T15:02:18Z</time>
      </trkpt>
      <trkpt lat="42.8744030" lon="-0.3281650">
        <ele>1986.8</ele>
        <time>2020-09-11T15:02:20Z</time>
      </trkpt>
      <trkpt lat="42.8743970" lon="-0.3281420">
        <ele>1987.8</ele>
        <time>2020-09-11T15:02:28Z</time>
      </trkpt>
      <trkpt lat="42.8744160" lon="-0.3281340">
        <ele>1989.0</ele>
        <time>2020-09-11T15:02:34Z</time>
      </trkpt>
      <trkpt lat="42.8744150" lon="-0.3281180">
        <ele>1990.2</ele>
        <time>2020-09-11T15:02:39Z</time>
      </trkpt>
      <trkpt lat="42.8744340" lon="-0.3281250">
        <ele>1991.4</ele>
        <time>2020-09-11T15:02:42Z</time>
      </trkpt>
      <trkpt lat="42.8744440" lon="-0.3280900">
        <ele>1992.6</ele>
        <time>2020-09-11T15:02:50Z</time>
      </trkpt>
      <trkpt lat="42.8744490" lon="-0.3280780">
        <ele>1993.8</ele>
        <time>2020-09-11T15:02:54Z</time>
      </trkpt>
      <trkpt lat="42.8745030" lon="-0.3280660">
        <ele>1995.0</ele>
        <time>2020-09-11T15:03:08Z</time>
      </trkpt>
      <trkpt lat="42.8745170" lon="-0.3280500">
        <ele>1996.0</ele>
        <time>2020-09-11T15:03:13Z</time>
      </trkpt>
      <trkpt lat="42.8745270" lon="-0.3280350">
        <ele>1997.0</ele>
        <time>2020-09-11T15:03:21Z</time>
      </trkpt>
      <trkpt lat="42.8745510" lon="-0.3280310">
        <ele>1998.2</ele>
        <time>2020-09-11T15:03:25Z</time>
      </trkpt>
      <trkpt lat="42.8746010" lon="-0.3279500">
        <ele>1999.4</ele>
        <time>2020-09-11T15:03:32Z</time>
      </trkpt>
      <trkpt lat="42.8746570" lon="-0.3278850">
        <ele>2000.4</ele>
        <time>2020-09-11T15:03:44Z</time>
      </trkpt>
      <trkpt lat="42.8746690" lon="-0.3278630">
        <ele>2001.6</ele>
        <time>2020-09-11T15:03:50Z</time>
      </trkpt>
      <trkpt lat="42.8746750" lon="-0.3278340">
        <ele>2002.6</ele>
        <time>2020-09-11T15:03:58Z</time>
      </trkpt>
      <trkpt lat="42.8746250" lon="-0.3277830">
        <ele>2003.6</ele>
        <time>2020-09-11T15:04:09Z</time>
      </trkpt>
      <trkpt lat="42.8745840" lon="-0.3277540">
        <ele>2004.6</ele>
        <time>2020-09-11T15:04:16Z</time>
      </trkpt>
      <trkpt lat="42.8745420" lon="-0.3277000">
        <ele>2005.6</ele>
        <time>2020-09-11T15:04:24Z</time>
      </trkpt>
      <trkpt lat="42.8745700" lon="-0.3276670">
        <ele>2006.6</ele>
        <time>2020-09-11T15:04:31Z</time>
      </trkpt>
      <trkpt lat="42.8745980" lon="-0.3276130">
        <ele>2007.8</ele>
        <time>2020-09-11T15:04:39Z</time>
      </trkpt>
      <trkpt lat="42.8745970" lon="-0.3275650">
        <ele>2009.0</ele>
        <time>2020-09-11T15:04:47Z</time>
      </trkpt>
      <trkpt lat="42.8746110" lon="-0.3275510">
        <ele>2010.0</ele>
        <time>2020-09-11T15:04:53Z</time>
      </trkpt>
      <trkpt lat="42.8746530" lon="-0.3275160">
        <ele>2011.2</ele>
        <time>2020-09-11T15:05:00Z</time>
      </trkpt>
      <trkpt lat="42.8746890" lon="-0.3274440">
        <ele>2012.2</ele>
        <time>2020-09-11T15:05:09Z</time>
      </trkpt>
      <trkpt lat="42.8747120" lon="-0.3273620">
        <ele>2013.4</ele>
        <time>2020-09-11T15:05:20Z</time>
      </trkpt>
      <trkpt lat="42.8747110" lon="-0.3273260">
        <ele>2014.4</ele>
        <time>2020-09-11T15:05:28Z</time>
      </trkpt>
      <trkpt lat="42.8747380" lon="-0.3272670">
        <ele>2015.6</ele>
        <time>2020-09-11T15:05:39Z</time>
      </trkpt>
      <trkpt lat="42.8747430" lon="-0.3272470">
        <ele>2016.6</ele>
        <time>2020-09-11T15:05:46Z</time>
      </trkpt>
      <trkpt lat="42.8746990" lon="-0.3272290">
        <ele>2017.8</ele>
        <time>2020-09-11T15:05:52Z</time>
      </trkpt>
      <trkpt lat="42.8747510" lon="-0.3271940">
        <ele>2018.8</ele>
        <time>2020-09-11T15:05:58Z</time>
      </trkpt>
      <trkpt lat="42.8748450" lon="-0.3270680">
        <ele>2020.0</ele>
        <time>2020-09-11T15:06:14Z</time>
      </trkpt>
      <trkpt lat="42.8748800" lon="-0.3269920">
        <ele>2021.0</ele>
        <time>2020-09-11T15:06:25Z</time>
      </trkpt>
      <trkpt lat="42.8749460" lon="-0.3269780">
        <ele>2022.0</ele>
        <time>2020-09-11T15:06:32Z</time>
      </trkpt>
      <trkpt lat="42.8749580" lon="-0.3269750">
        <ele>2023.2</ele>
        <time>2020-09-11T15:06:37Z</time>
      </trkpt>
      <trkpt lat="42.8749550" lon="-0.3269720">
        <ele>2023.2</ele>
        <time>2020-09-11T15:06:38Z</time>
      </trkpt>
      <trkpt lat="42.8749460" lon="-0.3269030">
        <ele>2024.2</ele>
        <time>2020-09-11T15:06:47Z</time>
      </trkpt>
      <trkpt lat="42.8749730" lon="-0.3268640">
        <ele>2025.4</ele>
        <time>2020-09-11T15:06:53Z</time>
      </trkpt>
      <trkpt lat="42.8749870" lon="-0.3268350">
        <ele>2025.6</ele>
        <time>2020-09-11T15:06:56Z</time>
      </trkpt>
      <trkpt lat="42.8749820" lon="-0.3267970">
        <ele>2026.4</ele>
        <time>2020-09-11T15:07:05Z</time>
      </trkpt>
      <trkpt lat="42.8750060" lon="-0.3267460">
        <ele>2027.6</ele>
        <time>2020-09-11T15:07:13Z</time>
      </trkpt>
      <trkpt lat="42.8750280" lon="-0.3266920">
        <ele>2028.6</ele>
        <time>2020-09-11T15:07:21Z</time>
      </trkpt>
      <trkpt lat="42.8750610" lon="-0.3266420">
        <ele>2029.6</ele>
        <time>2020-09-11T15:07:28Z</time>
      </trkpt>
      <trkpt lat="42.8750800" lon="-0.3266350">
        <ele>2029.6</ele>
        <time>2020-09-11T15:07:30Z</time>
      </trkpt>
      <trkpt lat="42.8750830" lon="-0.3266300">
        <ele>2029.8</ele>
        <time>2020-09-11T15:07:31Z</time>
      </trkpt>
      <trkpt lat="42.8751190" lon="-0.3265580">
        <ele>2030.8</ele>
        <time>2020-09-11T15:07:40Z</time>
      </trkpt>
      <trkpt lat="42.8751310" lon="-0.3265320">
        <ele>2031.2</ele>
        <time>2020-09-11T15:07:42Z</time>
      </trkpt>
      <trkpt lat="42.8751360" lon="-0.3265060">
        <ele>2031.4</ele>
        <time>2020-09-11T15:07:44Z</time>
      </trkpt>
      <trkpt lat="42.8751310" lon="-0.3264440">
        <ele>2031.8</ele>
        <time>2020-09-11T15:07:49Z</time>
      </trkpt>
      <trkpt lat="42.8751400" lon="-0.3264170">
        <ele>2031.8</ele>
        <time>2020-09-11T15:07:52Z</time>
      </trkpt>
      <trkpt lat="42.8751850" lon="-0.3263190">
        <ele>2033.0</ele>
        <time>2020-09-11T15:08:02Z</time>
      </trkpt>
      <trkpt lat="42.8752040" lon="-0.3262800">
        <ele>2033.2</ele>
        <time>2020-09-11T15:08:07Z</time>
      </trkpt>
      <trkpt lat="42.8752170" lon="-0.3262730">
        <ele>2033.6</ele>
        <time>2020-09-11T15:08:11Z</time>
      </trkpt>
      <trkpt lat="42.8752230" lon="-0.3262650">
        <ele>2034.0</ele>
        <time>2020-09-11T15:08:15Z</time>
      </trkpt>
      <trkpt lat="42.8752280" lon="-0.3262420">
        <ele>2035.0</ele>
        <time>2020-09-11T15:08:22Z</time>
      </trkpt>
      <trkpt lat="42.8752480" lon="-0.3262180">
        <ele>2036.2</ele>
        <time>2020-09-11T15:08:28Z</time>
      </trkpt>
      <trkpt lat="42.8752730" lon="-0.3261970">
        <ele>2037.4</ele>
        <time>2020-09-11T15:08:33Z</time>
      </trkpt>
      <trkpt lat="42.8752980" lon="-0.3261680">
        <ele>2038.6</ele>
        <time>2020-09-11T15:08:40Z</time>
      </trkpt>
      <trkpt lat="42.8753030" lon="-0.3261350">
        <ele>2039.8</ele>
        <time>2020-09-11T15:08:46Z</time>
      </trkpt>
      <trkpt lat="42.8752830" lon="-0.3260860">
        <ele>2040.8</ele>
        <time>2020-09-11T15:08:52Z</time>
      </trkpt>
      <trkpt lat="42.8752140" lon="-0.3260850">
        <ele>2042.0</ele>
        <time>2020-09-11T15:08:59Z</time>
      </trkpt>
      <trkpt lat="42.8751200" lon="-0.3261550">
        <ele>2042.4</ele>
        <time>2020-09-11T15:09:10Z</time>
      </trkpt>
      <trkpt lat="42.8750750" lon="-0.3261800">
        <ele>2043.0</ele>
        <time>2020-09-11T15:09:19Z</time>
      </trkpt>
      <trkpt lat="42.8750540" lon="-0.3261660">
        <ele>2044.0</ele>
        <time>2020-09-11T15:09:26Z</time>
      </trkpt>
      <trkpt lat="42.8750630" lon="-0.3261250">
        <ele>2045.2</ele>
        <time>2020-09-11T15:09:33Z</time>
      </trkpt>
      <trkpt lat="42.8750630" lon="-0.3260910">
        <ele>2046.2</ele>
        <time>2020-09-11T15:09:39Z</time>
      </trkpt>
      <trkpt lat="42.8750700" lon="-0.3260510">
        <ele>2047.6</ele>
        <time>2020-09-11T15:09:44Z</time>
      </trkpt>
      <trkpt lat="42.8750990" lon="-0.3259750">
        <ele>2048.6</ele>
        <time>2020-09-11T15:09:54Z</time>
      </trkpt>
      <trkpt lat="42.8751140" lon="-0.3259410">
        <ele>2049.6</ele>
        <time>2020-09-11T15:09:59Z</time>
      </trkpt>
      <trkpt lat="42.8751110" lon="-0.3259040">
        <ele>2050.6</ele>
        <time>2020-09-11T15:10:04Z</time>
      </trkpt>
      <trkpt lat="42.8751370" lon="-0.3258430">
        <ele>2051.8</ele>
        <time>2020-09-11T15:10:13Z</time>
      </trkpt>
      <trkpt lat="42.8751550" lon="-0.3258140">
        <ele>2052.8</ele>
        <time>2020-09-11T15:10:18Z</time>
      </trkpt>
      <trkpt lat="42.8751950" lon="-0.3257710">
        <ele>2053.8</ele>
        <time>2020-09-11T15:10:26Z</time>
      </trkpt>
      <trkpt lat="42.8752230" lon="-0.3257330">
        <ele>2054.8</ele>
        <time>2020-09-11T15:10:32Z</time>
      </trkpt>
      <trkpt lat="42.8752690" lon="-0.3256410">
        <ele>2056.0</ele>
        <time>2020-09-11T15:10:44Z</time>
      </trkpt>
      <trkpt lat="42.8753040" lon="-0.3255670">
        <ele>2057.0</ele>
        <time>2020-09-11T15:10:53Z</time>
      </trkpt>
      <trkpt lat="42.8753200" lon="-0.3255020">
        <ele>2058.2</ele>
        <time>2020-09-11T15:11:01Z</time>
      </trkpt>
      <trkpt lat="42.8753670" lon="-0.3254500">
        <ele>2059.4</ele>
        <time>2020-09-11T15:11:10Z</time>
      </trkpt>
      <trkpt lat="42.8754210" lon="-0.3254080">
        <ele>2060.4</ele>
        <time>2020-09-11T15:11:19Z</time>
      </trkpt>
      <trkpt lat="42.8754710" lon="-0.3253520">
        <ele>2061.4</ele>
        <time>2020-09-11T15:11:30Z</time>
      </trkpt>
      <trkpt lat="42.8755570" lon="-0.3253340">
        <ele>2062.0</ele>
        <time>2020-09-11T15:11:41Z</time>
      </trkpt>
      <trkpt lat="42.8755820" lon="-0.3253700">
        <ele>2062.6</ele>
        <time>2020-09-11T15:11:49Z</time>
      </trkpt>
      <trkpt lat="42.8756120" lon="-0.3253830">
        <ele>2063.6</ele>
        <time>2020-09-11T15:11:59Z</time>
      </trkpt>
      <trkpt lat="42.8756400" lon="-0.3253620">
        <ele>2064.8</ele>
        <time>2020-09-11T15:12:04Z</time>
      </trkpt>
      <trkpt lat="42.8756590" lon="-0.3253420">
        <ele>2065.8</ele>
        <time>2020-09-11T15:12:08Z</time>
      </trkpt>
      <trkpt lat="42.8756900" lon="-0.3253150">
        <ele>2066.4</ele>
        <time>2020-09-11T15:12:12Z</time>
      </trkpt>
      <trkpt lat="42.8757070" lon="-0.3252870">
        <ele>2066.8</ele>
        <time>2020-09-11T15:12:16Z</time>
      </trkpt>
      <trkpt lat="42.8757370" lon="-0.3252490">
        <ele>2067.8</ele>
        <time>2020-09-11T15:12:24Z</time>
      </trkpt>
      <trkpt lat="42.8757760" lon="-0.3252370">
        <ele>2069.0</ele>
        <time>2020-09-11T15:12:30Z</time>
      </trkpt>
      <trkpt lat="42.8758520" lon="-0.3252440">
        <ele>2070.0</ele>
        <time>2020-09-11T15:12:40Z</time>
      </trkpt>
      <trkpt lat="42.8759110" lon="-0.3251870">
        <ele>2071.2</ele>
        <time>2020-09-11T15:12:48Z</time>
      </trkpt>
      <trkpt lat="42.8760430" lon="-0.3251930">
        <ele>2071.8</ele>
        <time>2020-09-11T15:13:03Z</time>
      </trkpt>
      <trkpt lat="42.8760560" lon="-0.3252090">
        <ele>2071.8</ele>
        <time>2020-09-11T15:13:05Z</time>
      </trkpt>
      <trkpt lat="42.8760830" lon="-0.3252300">
        <ele>2071.8</ele>
        <time>2020-09-11T15:13:09Z</time>
      </trkpt>
      <trkpt lat="42.8761080" lon="-0.3252470">
        <ele>2072.2</ele>
        <time>2020-09-11T15:13:14Z</time>
      </trkpt>
      <trkpt lat="42.8762210" lon="-0.3252490">
        <ele>2072.4</ele>
        <time>2020-09-11T15:13:26Z</time>
      </trkpt>
      <trkpt lat="42.8762420" lon="-0.3252630">
        <ele>2072.6</ele>
        <time>2020-09-11T15:13:29Z</time>
      </trkpt>
      <trkpt lat="42.8762860" lon="-0.3252440">
        <ele>2073.0</ele>
        <time>2020-09-11T15:13:35Z</time>
      </trkpt>
      <trkpt lat="42.8763410" lon="-0.3252210">
        <ele>2073.2</ele>
        <time>2020-09-11T15:13:41Z</time>
      </trkpt>
      <trkpt lat="42.8763630" lon="-0.3251940">
        <ele>2073.2</ele>
        <time>2020-09-11T15:13:44Z</time>
      </trkpt>
      <trkpt lat="42.8763680" lon="-0.3251890">
        <ele>2073.2</ele>
        <time>2020-09-11T15:13:45Z</time>
      </trkpt>
      <trkpt lat="42.8764060" lon="-0.3251480">
        <ele>2074.2</ele>
        <time>2020-09-11T15:13:53Z</time>
      </trkpt>
      <trkpt lat="42.8764300" lon="-0.3250440">
        <ele>2075.4</ele>
        <time>2020-09-11T15:14:04Z</time>
      </trkpt>
      <trkpt lat="42.8764250" lon="-0.3249440">
        <ele>2076.4</ele>
        <time>2020-09-11T15:14:14Z</time>
      </trkpt>
      <trkpt lat="42.8764180" lon="-0.3249150">
        <ele>2077.6</ele>
        <time>2020-09-11T15:14:19Z</time>
      </trkpt>
      <trkpt lat="42.8764100" lon="-0.3248660">
        <ele>2078.6</ele>
        <time>2020-09-11T15:14:24Z</time>
      </trkpt>
      <trkpt lat="42.8763880" lon="-0.3247940">
        <ele>2079.8</ele>
        <time>2020-09-11T15:14:31Z</time>
      </trkpt>
      <trkpt lat="42.8763380" lon="-0.3247390">
        <ele>2080.8</ele>
        <time>2020-09-11T15:14:39Z</time>
      </trkpt>
      <trkpt lat="42.8763300" lon="-0.3246760">
        <ele>2082.0</ele>
        <time>2020-09-11T15:14:48Z</time>
      </trkpt>
      <trkpt lat="42.8763270" lon="-0.3246460">
        <ele>2083.0</ele>
        <time>2020-09-11T15:14:52Z</time>
      </trkpt>
      <trkpt lat="42.8763210" lon="-0.3245950">
        <ele>2084.0</ele>
        <time>2020-09-11T15:15:03Z</time>
      </trkpt>
      <trkpt lat="42.8763500" lon="-0.3245480">
        <ele>2085.2</ele>
        <time>2020-09-11T15:15:12Z</time>
      </trkpt>
      <trkpt lat="42.8763530" lon="-0.3245090">
        <ele>2086.2</ele>
        <time>2020-09-11T15:15:18Z</time>
      </trkpt>
      <trkpt lat="42.8763450" lon="-0.3244510">
        <ele>2087.4</ele>
        <time>2020-09-11T15:15:26Z</time>
      </trkpt>
      <trkpt lat="42.8763640" lon="-0.3244120">
        <ele>2088.6</ele>
        <time>2020-09-11T15:15:33Z</time>
      </trkpt>
      <trkpt lat="42.8763890" lon="-0.3243750">
        <ele>2089.6</ele>
        <time>2020-09-11T15:15:39Z</time>
      </trkpt>
      <trkpt lat="42.8764320" lon="-0.3243380">
        <ele>2090.8</ele>
        <time>2020-09-11T15:15:53Z</time>
      </trkpt>
      <trkpt lat="42.8764480" lon="-0.3243040">
        <ele>2091.8</ele>
        <time>2020-09-11T15:15:57Z</time>
      </trkpt>
      <trkpt lat="42.8764750" lon="-0.3242600">
        <ele>2092.8</ele>
        <time>2020-09-11T15:16:04Z</time>
      </trkpt>
      <trkpt lat="42.8765090" lon="-0.3242330">
        <ele>2094.0</ele>
        <time>2020-09-11T15:16:10Z</time>
      </trkpt>
      <trkpt lat="42.8765370" lon="-0.3241900">
        <ele>2095.2</ele>
        <time>2020-09-11T15:16:22Z</time>
      </trkpt>
      <trkpt lat="42.8765470" lon="-0.3241810">
        <ele>2096.4</ele>
        <time>2020-09-11T15:16:26Z</time>
      </trkpt>
      <trkpt lat="42.8765690" lon="-0.3241460">
        <ele>2097.4</ele>
        <time>2020-09-11T15:16:31Z</time>
      </trkpt>
      <trkpt lat="42.8765790" lon="-0.3240810">
        <ele>2098.6</ele>
        <time>2020-09-11T15:16:39Z</time>
      </trkpt>
      <trkpt lat="42.8765710" lon="-0.3240080">
        <ele>2099.6</ele>
        <time>2020-09-11T15:16:46Z</time>
      </trkpt>
      <trkpt lat="42.8765760" lon="-0.3239580">
        <ele>2100.8</ele>
        <time>2020-09-11T15:16:57Z</time>
      </trkpt>
      <trkpt lat="42.8765810" lon="-0.3239280">
        <ele>2101.8</ele>
        <time>2020-09-11T15:17:02Z</time>
      </trkpt>
      <trkpt lat="42.8766020" lon="-0.3239070">
        <ele>2102.8</ele>
        <time>2020-09-11T15:17:09Z</time>
      </trkpt>
      <trkpt lat="42.8766000" lon="-0.3238930">
        <ele>2103.2</ele>
        <time>2020-09-11T15:17:12Z</time>
      </trkpt>
      <trkpt lat="42.8766010" lon="-0.3238830">
        <ele>2103.8</ele>
        <time>2020-09-11T15:17:16Z</time>
      </trkpt>
      <trkpt lat="42.8766150" lon="-0.3238560">
        <ele>2105.0</ele>
        <time>2020-09-11T15:17:24Z</time>
      </trkpt>
      <trkpt lat="42.8766370" lon="-0.3238410">
        <ele>2106.0</ele>
        <time>2020-09-11T15:17:31Z</time>
      </trkpt>
      <trkpt lat="42.8766470" lon="-0.3238050">
        <ele>2107.2</ele>
        <time>2020-09-11T15:17:38Z</time>
      </trkpt>
      <trkpt lat="42.8766040" lon="-0.3237850">
        <ele>2108.4</ele>
        <time>2020-09-11T15:17:46Z</time>
      </trkpt>
      <trkpt lat="42.8765910" lon="-0.3237640">
        <ele>2109.6</ele>
        <time>2020-09-11T15:17:52Z</time>
      </trkpt>
      <trkpt lat="42.8765580" lon="-0.3237270">
        <ele>2110.6</ele>
        <time>2020-09-11T15:18:01Z</time>
      </trkpt>
      <trkpt lat="42.8765450" lon="-0.3237210">
        <ele>2112.0</ele>
        <time>2020-09-11T15:18:08Z</time>
      </trkpt>
      <trkpt lat="42.8765940" lon="-0.3237160">
        <ele>2113.0</ele>
        <time>2020-09-11T15:18:14Z</time>
      </trkpt>
      <trkpt lat="42.8766270" lon="-0.3236730">
        <ele>2114.0</ele>
        <time>2020-09-11T15:18:25Z</time>
      </trkpt>
      <trkpt lat="42.8766180" lon="-0.3236590">
        <ele>2115.0</ele>
        <time>2020-09-11T15:18:29Z</time>
      </trkpt>
      <trkpt lat="42.8766000" lon="-0.3236400">
        <ele>2116.2</ele>
        <time>2020-09-11T15:18:35Z</time>
      </trkpt>
      <trkpt lat="42.8765980" lon="-0.3236190">
        <ele>2117.4</ele>
        <time>2020-09-11T15:18:43Z</time>
      </trkpt>
      <trkpt lat="42.8766190" lon="-0.3236200">
        <ele>2118.4</ele>
        <time>2020-09-11T15:18:55Z</time>
      </trkpt>
      <trkpt lat="42.8766380" lon="-0.3236040">
        <ele>2119.4</ele>
        <time>2020-09-11T15:18:59Z</time>
      </trkpt>
      <trkpt lat="42.8766470" lon="-0.3235870">
        <ele>2120.6</ele>
        <time>2020-09-11T15:19:04Z</time>
      </trkpt>
      <trkpt lat="42.8766230" lon="-0.3235270">
        <ele>2121.6</ele>
        <time>2020-09-11T15:19:15Z</time>
      </trkpt>
      <trkpt lat="42.8766040" lon="-0.3235060">
        <ele>2122.8</ele>
        <time>2020-09-11T15:19:19Z</time>
      </trkpt>
      <trkpt lat="42.8765830" lon="-0.3235150">
        <ele>2124.0</ele>
        <time>2020-09-11T15:19:24Z</time>
      </trkpt>
      <trkpt lat="42.8765720" lon="-0.3234960">
        <ele>2125.0</ele>
        <time>2020-09-11T15:19:32Z</time>
      </trkpt>
      <trkpt lat="42.8765750" lon="-0.3234650">
        <ele>2126.0</ele>
        <time>2020-09-11T15:19:38Z</time>
      </trkpt>
      <trkpt lat="42.8765690" lon="-0.3234160">
        <ele>2127.2</ele>
        <time>2020-09-11T15:19:48Z</time>
      </trkpt>
      <trkpt lat="42.8765280" lon="-0.3234030">
        <ele>2128.2</ele>
        <time>2020-09-11T15:19:54Z</time>
      </trkpt>
      <trkpt lat="42.8765370" lon="-0.3233520">
        <ele>2129.4</ele>
        <time>2020-09-11T15:20:06Z</time>
      </trkpt>
      <trkpt lat="42.8765560" lon="-0.3233330">
        <ele>2130.6</ele>
        <time>2020-09-11T15:20:09Z</time>
      </trkpt>
      <trkpt lat="42.8765850" lon="-0.3232960">
        <ele>2131.8</ele>
        <time>2020-09-11T15:20:17Z</time>
      </trkpt>
      <trkpt lat="42.8766210" lon="-0.3232460">
        <ele>2133.0</ele>
        <time>2020-09-11T15:20:27Z</time>
      </trkpt>
      <trkpt lat="42.8766410" lon="-0.3232220">
        <ele>2134.2</ele>
        <time>2020-09-11T15:20:33Z</time>
      </trkpt>
      <trkpt lat="42.8766740" lon="-0.3231970">
        <ele>2135.2</ele>
        <time>2020-09-11T15:20:42Z</time>
      </trkpt>
      <trkpt lat="42.8766850" lon="-0.3231810">
        <ele>2136.4</ele>
        <time>2020-09-11T15:20:47Z</time>
      </trkpt>
      <trkpt lat="42.8767100" lon="-0.3231320">
        <ele>2137.6</ele>
        <time>2020-09-11T15:20:57Z</time>
      </trkpt>
      <trkpt lat="42.8767410" lon="-0.3230970">
        <ele>2138.8</ele>
        <time>2020-09-11T15:21:06Z</time>
      </trkpt>
      <trkpt lat="42.8767630" lon="-0.3230680">
        <ele>2140.0</ele>
        <time>2020-09-11T15:21:13Z</time>
      </trkpt>
      <trkpt lat="42.8767620" lon="-0.3230690">
        <ele>2140.0</ele>
        <time>2020-09-11T15:21:26Z</time>
      </trkpt>
      <trkpt lat="42.8768200" lon="-0.3229670">
        <ele>2140.4</ele>
        <time>2020-09-11T15:22:27Z</time>
      </trkpt>
      <trkpt lat="42.8768330" lon="-0.3229540">
        <ele>2141.0</ele>
        <time>2020-09-11T15:22:30Z</time>
      </trkpt>
      <trkpt lat="42.8768370" lon="-0.3229050">
        <ele>2142.0</ele>
        <time>2020-09-11T15:22:35Z</time>
      </trkpt>
      <trkpt lat="42.8768640" lon="-0.3228460">
        <ele>2142.8</ele>
        <time>2020-09-11T15:22:41Z</time>
      </trkpt>
      <trkpt lat="42.8768720" lon="-0.3228300">
        <ele>2143.0</ele>
        <time>2020-09-11T15:22:43Z</time>
      </trkpt>
      <trkpt lat="42.8768890" lon="-0.3228200">
        <ele>2143.2</ele>
        <time>2020-09-11T15:22:45Z</time>
      </trkpt>
      <trkpt lat="42.8769130" lon="-0.3227930">
        <ele>2143.4</ele>
        <time>2020-09-11T15:22:49Z</time>
      </trkpt>
      <trkpt lat="42.8769110" lon="-0.3227830">
        <ele>2143.8</ele>
        <time>2020-09-11T15:22:51Z</time>
      </trkpt>
      <trkpt lat="42.8769100" lon="-0.3227790">
        <ele>2144.2</ele>
        <time>2020-09-11T15:22:52Z</time>
      </trkpt>
      <trkpt lat="42.8769090" lon="-0.3227750">
        <ele>2144.4</ele>
        <time>2020-09-11T15:22:53Z</time>
      </trkpt>
      <trkpt lat="42.8768920" lon="-0.3227500">
        <ele>2145.4</ele>
        <time>2020-09-11T15:22:57Z</time>
      </trkpt>
      <trkpt lat="42.8768940" lon="-0.3227260">
        <ele>2146.4</ele>
        <time>2020-09-11T15:23:00Z</time>
      </trkpt>
      <trkpt lat="42.8769130" lon="-0.3227100">
        <ele>2147.4</ele>
        <time>2020-09-11T15:23:06Z</time>
      </trkpt>
      <trkpt lat="42.8769390" lon="-0.3226960">
        <ele>2148.4</ele>
        <time>2020-09-11T15:23:12Z</time>
      </trkpt>
      <trkpt lat="42.8770020" lon="-0.3226470">
        <ele>2149.6</ele>
        <time>2020-09-11T15:23:26Z</time>
      </trkpt>
      <trkpt lat="42.8770000" lon="-0.3225860">
        <ele>2150.6</ele>
        <time>2020-09-11T15:23:33Z</time>
      </trkpt>
      <trkpt lat="42.8770170" lon="-0.3225410">
        <ele>2151.6</ele>
        <time>2020-09-11T15:23:40Z</time>
      </trkpt>
      <trkpt lat="42.8770630" lon="-0.3224470">
        <ele>2152.8</ele>
        <time>2020-09-11T15:23:55Z</time>
      </trkpt>
      <trkpt lat="42.8770600" lon="-0.3224050">
        <ele>2153.8</ele>
        <time>2020-09-11T15:24:00Z</time>
      </trkpt>
      <trkpt lat="42.8771030" lon="-0.3223610">
        <ele>2154.8</ele>
        <time>2020-09-11T15:24:09Z</time>
      </trkpt>
      <trkpt lat="42.8771390" lon="-0.3222890">
        <ele>2155.8</ele>
        <time>2020-09-11T15:24:22Z</time>
      </trkpt>
      <trkpt lat="42.8771650" lon="-0.3222220">
        <ele>2157.0</ele>
        <time>2020-09-11T15:24:38Z</time>
      </trkpt>
      <trkpt lat="42.8771190" lon="-0.3221630">
        <ele>2158.2</ele>
        <time>2020-09-11T15:24:49Z</time>
      </trkpt>
      <trkpt lat="42.8771510" lon="-0.3221100">
        <ele>2159.2</ele>
        <time>2020-09-11T15:25:01Z</time>
      </trkpt>
      <trkpt lat="42.8771720" lon="-0.3220740">
        <ele>2160.2</ele>
        <time>2020-09-11T15:25:07Z</time>
      </trkpt>
      <trkpt lat="42.8771990" lon="-0.3220510">
        <ele>2161.4</ele>
        <time>2020-09-11T15:25:13Z</time>
      </trkpt>
      <trkpt lat="42.8772670" lon="-0.3219300">
        <ele>2162.4</ele>
        <time>2020-09-11T15:25:27Z</time>
      </trkpt>
      <trkpt lat="42.8773150" lon="-0.3217290">
        <ele>2161.6</ele>
        <time>2020-09-11T15:25:44Z</time>
      </trkpt>
      <trkpt lat="42.8773290" lon="-0.3217030">
        <ele>2161.4</ele>
        <time>2020-09-11T15:25:46Z</time>
      </trkpt>
      <trkpt lat="42.8773590" lon="-0.3215780">
        <ele>2160.2</ele>
        <time>2020-09-11T15:25:57Z</time>
      </trkpt>
      <trkpt lat="42.8773680" lon="-0.3215670">
        <ele>2160.0</ele>
        <time>2020-09-11T15:25:58Z</time>
      </trkpt>
      <trkpt lat="42.8774240" lon="-0.3215190">
        <ele>2159.2</ele>
        <time>2020-09-11T15:26:02Z</time>
      </trkpt>
      <trkpt lat="42.8774660" lon="-0.3214590">
        <ele>2158.8</ele>
        <time>2020-09-11T15:26:06Z</time>
      </trkpt>
      <trkpt lat="42.8774400" lon="-0.3213570">
        <ele>2159.4</ele>
        <time>2020-09-11T15:26:14Z</time>
      </trkpt>
      <trkpt lat="42.8774030" lon="-0.3213200">
        <ele>2159.8</ele>
        <time>2020-09-11T15:26:17Z</time>
      </trkpt>
      <trkpt lat="42.8773350" lon="-0.3212240">
        <ele>2160.0</ele>
        <time>2020-09-11T15:26:25Z</time>
      </trkpt>
      <trkpt lat="42.8773270" lon="-0.3212070">
        <ele>2160.2</ele>
        <time>2020-09-11T15:26:29Z</time>
      </trkpt>
      <trkpt lat="42.8773110" lon="-0.3211810">
        <ele>2161.4</ele>
        <time>2020-09-11T15:26:34Z</time>
      </trkpt>
      <trkpt lat="42.8773700" lon="-0.3210900">
        <ele>2160.2</ele>
        <time>2020-09-11T15:26:45Z</time>
      </trkpt>
      <trkpt lat="42.8774700" lon="-0.3210290">
        <ele>2159.6</ele>
        <time>2020-09-11T15:26:54Z</time>
      </trkpt>
      <trkpt lat="42.8776590" lon="-0.3209390">
        <ele>2160.8</ele>
        <time>2020-09-11T15:27:04Z</time>
      </trkpt>
      <trkpt lat="42.8776660" lon="-0.3209350">
        <ele>2161.4</ele>
        <time>2020-09-11T15:27:07Z</time>
      </trkpt>
      <trkpt lat="42.8776620" lon="-0.3208970">
        <ele>2162.4</ele>
        <time>2020-09-11T15:27:13Z</time>
      </trkpt>
      <trkpt lat="42.8775890" lon="-0.3208510">
        <ele>2163.6</ele>
        <time>2020-09-11T15:27:18Z</time>
      </trkpt>
      <trkpt lat="42.8774690" lon="-0.3207800">
        <ele>2164.6</ele>
        <time>2020-09-11T15:27:24Z</time>
      </trkpt>
      <trkpt lat="42.8774380" lon="-0.3207080">
        <ele>2165.6</ele>
        <time>2020-09-11T15:27:32Z</time>
      </trkpt>
      <trkpt lat="42.8774430" lon="-0.3206340">
        <ele>2166.0</ele>
        <time>2020-09-11T15:27:40Z</time>
      </trkpt>
      <trkpt lat="42.8774290" lon="-0.3205780">
        <ele>2166.0</ele>
        <time>2020-09-11T15:27:45Z</time>
      </trkpt>
      <trkpt lat="42.8774240" lon="-0.3205570">
        <ele>2166.2</ele>
        <time>2020-09-11T15:27:47Z</time>
      </trkpt>
      <trkpt lat="42.8774150" lon="-0.3205320">
        <ele>2166.6</ele>
        <time>2020-09-11T15:27:50Z</time>
      </trkpt>
      <trkpt lat="42.8774480" lon="-0.3203580">
        <ele>2167.6</ele>
        <time>2020-09-11T15:28:08Z</time>
      </trkpt>
      <trkpt lat="42.8774560" lon="-0.3203520">
        <ele>2167.6</ele>
        <time>2020-09-11T15:28:09Z</time>
      </trkpt>
      <trkpt lat="42.8775040" lon="-0.3203320">
        <ele>2167.6</ele>
        <time>2020-09-11T15:28:14Z</time>
      </trkpt>
      <trkpt lat="42.8775600" lon="-0.3202160">
        <ele>2167.8</ele>
        <time>2020-09-11T15:28:32Z</time>
      </trkpt>
      <trkpt lat="42.8775800" lon="-0.3202220">
        <ele>2168.6</ele>
        <time>2020-09-11T15:28:41Z</time>
      </trkpt>
      <trkpt lat="42.8776510" lon="-0.3201900">
        <ele>2169.8</ele>
        <time>2020-09-11T15:28:54Z</time>
      </trkpt>
      <trkpt lat="42.8776730" lon="-0.3201390">
        <ele>2170.8</ele>
        <time>2020-09-11T15:29:24Z</time>
      </trkpt>
      <trkpt lat="42.8777100" lon="-0.3201050">
        <ele>2172.0</ele>
        <time>2020-09-11T15:29:30Z</time>
      </trkpt>
      <trkpt lat="42.8777160" lon="-0.3201000">
        <ele>2172.2</ele>
        <time>2020-09-11T15:29:31Z</time>
      </trkpt>
      <trkpt lat="42.8777210" lon="-0.3200820">
        <ele>2173.0</ele>
        <time>2020-09-11T15:29:34Z</time>
      </trkpt>
      <trkpt lat="42.8777400" lon="-0.3200430">
        <ele>2174.2</ele>
        <time>2020-09-11T15:29:40Z</time>
      </trkpt>
      <trkpt lat="42.8777400" lon="-0.3199710">
        <ele>2175.2</ele>
        <time>2020-09-11T15:29:47Z</time>
      </trkpt>
      <trkpt lat="42.8777700" lon="-0.3198730">
        <ele>2176.4</ele>
        <time>2020-09-11T15:29:57Z</time>
      </trkpt>
      <trkpt lat="42.8778590" lon="-0.3197270">
        <ele>2177.4</ele>
        <time>2020-09-11T15:30:10Z</time>
      </trkpt>
      <trkpt lat="42.8778650" lon="-0.3197160">
        <ele>2177.6</ele>
        <time>2020-09-11T15:30:11Z</time>
      </trkpt>
      <trkpt lat="42.8778830" lon="-0.3196700">
        <ele>2177.8</ele>
        <time>2020-09-11T15:30:15Z</time>
      </trkpt>
      <trkpt lat="42.8778940" lon="-0.3196540">
        <ele>2178.0</ele>
        <time>2020-09-11T15:30:17Z</time>
      </trkpt>
      <trkpt lat="42.8779100" lon="-0.3195880">
        <ele>2178.2</ele>
        <time>2020-09-11T15:30:23Z</time>
      </trkpt>
      <trkpt lat="42.8779130" lon="-0.3195480">
        <ele>2178.6</ele>
        <time>2020-09-11T15:30:27Z</time>
      </trkpt>
      <trkpt lat="42.8779160" lon="-0.3195360">
        <ele>2178.8</ele>
        <time>2020-09-11T15:30:28Z</time>
      </trkpt>
      <trkpt lat="42.8779030" lon="-0.3194790">
        <ele>2179.0</ele>
        <time>2020-09-11T15:30:34Z</time>
      </trkpt>
      <trkpt lat="42.8778430" lon="-0.3193570">
        <ele>2179.6</ele>
        <time>2020-09-11T15:30:39Z</time>
      </trkpt>
      <trkpt lat="42.8778430" lon="-0.3193390">
        <ele>2179.8</ele>
        <time>2020-09-11T15:30:40Z</time>
      </trkpt>
      <trkpt lat="42.8778790" lon="-0.3192660">
        <ele>2179.4</ele>
        <time>2020-09-11T15:30:46Z</time>
      </trkpt>
      <trkpt lat="42.8779000" lon="-0.3192360">
        <ele>2179.2</ele>
        <time>2020-09-11T15:30:49Z</time>
      </trkpt>
      <trkpt lat="42.8779150" lon="-0.3191940">
        <ele>2179.4</ele>
        <time>2020-09-11T15:30:53Z</time>
      </trkpt>
      <trkpt lat="42.8779300" lon="-0.3190950">
        <ele>2180.0</ele>
        <time>2020-09-11T15:31:00Z</time>
      </trkpt>
      <trkpt lat="42.8779370" lon="-0.3190820">
        <ele>2180.0</ele>
        <time>2020-09-11T15:31:02Z</time>
      </trkpt>
      <trkpt lat="42.8779230" lon="-0.3190180">
        <ele>2180.0</ele>
        <time>2020-09-11T15:31:06Z</time>
      </trkpt>
      <trkpt lat="42.8779080" lon="-0.3189570">
        <ele>2180.6</ele>
        <time>2020-09-11T15:31:10Z</time>
      </trkpt>
      <trkpt lat="42.8779010" lon="-0.3189150">
        <ele>2181.2</ele>
        <time>2020-09-11T15:31:14Z</time>
      </trkpt>
      <trkpt lat="42.8778950" lon="-0.3188830">
        <ele>2181.6</ele>
        <time>2020-09-11T15:31:18Z</time>
      </trkpt>
      <trkpt lat="42.8778940" lon="-0.3188700">
        <ele>2181.8</ele>
        <time>2020-09-11T15:31:19Z</time>
      </trkpt>
      <trkpt lat="42.8778950" lon="-0.3188160">
        <ele>2182.4</ele>
        <time>2020-09-11T15:31:24Z</time>
      </trkpt>
      <trkpt lat="42.8778950" lon="-0.3188090">
        <ele>2182.8</ele>
        <time>2020-09-11T15:31:25Z</time>
      </trkpt>
      <trkpt lat="42.8778920" lon="-0.3187930">
        <ele>2183.2</ele>
        <time>2020-09-11T15:31:27Z</time>
      </trkpt>
      <trkpt lat="42.8778920" lon="-0.3186920">
        <ele>2183.4</ele>
        <time>2020-09-11T15:31:48Z</time>
      </trkpt>
      <trkpt lat="42.8778990" lon="-0.3186690">
        <ele>2183.4</ele>
        <time>2020-09-11T15:31:50Z</time>
      </trkpt>
      <trkpt lat="42.8779000" lon="-0.3186160">
        <ele>2183.8</ele>
        <time>2020-09-11T15:31:54Z</time>
      </trkpt>
      <trkpt lat="42.8779000" lon="-0.3186030">
        <ele>2183.8</ele>
        <time>2020-09-11T15:31:55Z</time>
      </trkpt>
      <trkpt lat="42.8778980" lon="-0.3185880">
        <ele>2184.0</ele>
        <time>2020-09-11T15:31:56Z</time>
      </trkpt>
      <trkpt lat="42.8779000" lon="-0.3185090">
        <ele>2184.6</ele>
        <time>2020-09-11T15:32:02Z</time>
      </trkpt>
      <trkpt lat="42.8779070" lon="-0.3184660">
        <ele>2184.8</ele>
        <time>2020-09-11T15:32:05Z</time>
      </trkpt>
      <trkpt lat="42.8779090" lon="-0.3183630">
        <ele>2185.8</ele>
        <time>2020-09-11T15:32:13Z</time>
      </trkpt>
      <trkpt lat="42.8779130" lon="-0.3183500">
        <ele>2186.0</ele>
        <time>2020-09-11T15:32:14Z</time>
      </trkpt>
      <trkpt lat="42.8779230" lon="-0.3182660">
        <ele>2186.6</ele>
        <time>2020-09-11T15:32:21Z</time>
      </trkpt>
      <trkpt lat="42.8779320" lon="-0.3182270">
        <ele>2187.2</ele>
        <time>2020-09-11T15:32:25Z</time>
      </trkpt>
      <trkpt lat="42.8779430" lon="-0.3181720">
        <ele>2188.0</ele>
        <time>2020-09-11T15:32:30Z</time>
      </trkpt>
      <trkpt lat="42.8779570" lon="-0.3181160">
        <ele>2188.0</ele>
        <time>2020-09-11T15:32:34Z</time>
      </trkpt>
      <trkpt lat="42.8779660" lon="-0.3180880">
        <ele>2188.2</ele>
        <time>2020-09-11T15:32:36Z</time>
      </trkpt>
      <trkpt lat="42.8779690" lon="-0.3180500">
        <ele>2188.2</ele>
        <time>2020-09-11T15:32:39Z</time>
      </trkpt>
      <trkpt lat="42.8779730" lon="-0.3180320">
        <ele>2188.4</ele>
        <time>2020-09-11T15:32:41Z</time>
      </trkpt>
      <trkpt lat="42.8780030" lon="-0.3177880">
        <ele>2189.0</ele>
        <time>2020-09-11T15:33:00Z</time>
      </trkpt>
      <trkpt lat="42.8780070" lon="-0.3177650">
        <ele>2189.2</ele>
        <time>2020-09-11T15:33:03Z</time>
      </trkpt>
      <trkpt lat="42.8780070" lon="-0.3177030">
        <ele>2189.0</ele>
        <time>2020-09-11T15:33:11Z</time>
      </trkpt>
      <trkpt lat="42.8780220" lon="-0.3176250">
        <ele>2190.2</ele>
        <time>2020-09-11T15:33:20Z</time>
      </trkpt>
      <trkpt lat="42.8779360" lon="-0.3174010">
        <ele>2190.8</ele>
        <time>2020-09-11T15:33:39Z</time>
      </trkpt>
      <trkpt lat="42.8779300" lon="-0.3173860">
        <ele>2190.8</ele>
        <time>2020-09-11T15:33:40Z</time>
      </trkpt>
      <trkpt lat="42.8779130" lon="-0.3173510">
        <ele>2191.2</ele>
        <time>2020-09-11T15:33:44Z</time>
      </trkpt>
      <trkpt lat="42.8779070" lon="-0.3173420">
        <ele>2191.8</ele>
        <time>2020-09-11T15:33:46Z</time>
      </trkpt>
      <trkpt lat="42.8778960" lon="-0.3173090">
        <ele>2192.0</ele>
        <time>2020-09-11T15:33:49Z</time>
      </trkpt>
      <trkpt lat="42.8778630" lon="-0.3172340">
        <ele>2192.2</ele>
        <time>2020-09-11T15:33:57Z</time>
      </trkpt>
      <trkpt lat="42.8778600" lon="-0.3172300">
        <ele>2192.4</ele>
        <time>2020-09-11T15:33:58Z</time>
      </trkpt>
      <trkpt lat="42.8778070" lon="-0.3171100">
        <ele>2193.4</ele>
        <time>2020-09-11T15:34:11Z</time>
      </trkpt>
      <trkpt lat="42.8778070" lon="-0.3170890">
        <ele>2193.8</ele>
        <time>2020-09-11T15:34:13Z</time>
      </trkpt>
      <trkpt lat="42.8777940" lon="-0.3170650">
        <ele>2194.0</ele>
        <time>2020-09-11T15:34:15Z</time>
      </trkpt>
      <trkpt lat="42.8777850" lon="-0.3170440">
        <ele>2194.2</ele>
        <time>2020-09-11T15:34:17Z</time>
      </trkpt>
      <trkpt lat="42.8777750" lon="-0.3170200">
        <ele>2194.4</ele>
        <time>2020-09-11T15:34:19Z</time>
      </trkpt>
      <trkpt lat="42.8777710" lon="-0.3170040">
        <ele>2194.6</ele>
        <time>2020-09-11T15:34:20Z</time>
      </trkpt>
      <trkpt lat="42.8777610" lon="-0.3169710">
        <ele>2195.0</ele>
        <time>2020-09-11T15:34:23Z</time>
      </trkpt>
      <trkpt lat="42.8777520" lon="-0.3169530">
        <ele>2195.2</ele>
        <time>2020-09-11T15:34:25Z</time>
      </trkpt>
      <trkpt lat="42.8777490" lon="-0.3169470">
        <ele>2195.4</ele>
        <time>2020-09-11T15:34:26Z</time>
      </trkpt>
      <trkpt lat="42.8777360" lon="-0.3169340">
        <ele>2195.8</ele>
        <time>2020-09-11T15:34:28Z</time>
      </trkpt>
      <trkpt lat="42.8777270" lon="-0.3169300">
        <ele>2196.4</ele>
        <time>2020-09-11T15:34:31Z</time>
      </trkpt>
      <trkpt lat="42.8777120" lon="-0.3167590">
        <ele>2197.2</ele>
        <time>2020-09-11T15:35:02Z</time>
      </trkpt>
      <trkpt lat="42.8777180" lon="-0.3167460">
        <ele>2197.2</ele>
        <time>2020-09-11T15:35:03Z</time>
      </trkpt>
      <trkpt lat="42.8777140" lon="-0.3166510">
        <ele>2197.0</ele>
        <time>2020-09-11T15:35:09Z</time>
      </trkpt>
      <trkpt lat="42.8777100" lon="-0.3165870">
        <ele>2196.4</ele>
        <time>2020-09-11T15:35:13Z</time>
      </trkpt>
      <trkpt lat="42.8777020" lon="-0.3164630">
        <ele>2196.2</ele>
        <time>2020-09-11T15:35:20Z</time>
      </trkpt>
      <trkpt lat="42.8777010" lon="-0.3164020">
        <ele>2196.2</ele>
        <time>2020-09-11T15:35:24Z</time>
      </trkpt>
      <trkpt lat="42.8776890" lon="-0.3163530">
        <ele>2196.6</ele>
        <time>2020-09-11T15:35:29Z</time>
      </trkpt>
      <trkpt lat="42.8776700" lon="-0.3163150">
        <ele>2197.4</ele>
        <time>2020-09-11T15:35:36Z</time>
      </trkpt>
      <trkpt lat="42.8776700" lon="-0.3163130">
        <ele>2197.4</ele>
        <time>2020-09-11T15:35:37Z</time>
      </trkpt>
      <trkpt lat="42.8776750" lon="-0.3162920">
        <ele>2198.0</ele>
        <time>2020-09-11T15:35:40Z</time>
      </trkpt>
      <trkpt lat="42.8776630" lon="-0.3162670">
        <ele>2198.8</ele>
        <time>2020-09-11T15:35:43Z</time>
      </trkpt>
      <trkpt lat="42.8776410" lon="-0.3162170">
        <ele>2199.4</ele>
        <time>2020-09-11T15:35:48Z</time>
      </trkpt>
      <trkpt lat="42.8776300" lon="-0.3161760">
        <ele>2199.8</ele>
        <time>2020-09-11T15:35:52Z</time>
      </trkpt>
      <trkpt lat="42.8776310" lon="-0.3161650">
        <ele>2200.0</ele>
        <time>2020-09-11T15:35:53Z</time>
      </trkpt>
      <trkpt lat="42.8776300" lon="-0.3161560">
        <ele>2200.2</ele>
        <time>2020-09-11T15:35:54Z</time>
      </trkpt>
      <trkpt lat="42.8776160" lon="-0.3161120">
        <ele>2201.0</ele>
        <time>2020-09-11T15:35:58Z</time>
      </trkpt>
      <trkpt lat="42.8775790" lon="-0.3160800">
        <ele>2202.2</ele>
        <time>2020-09-11T15:36:04Z</time>
      </trkpt>
      <trkpt lat="42.8775630" lon="-0.3160830">
        <ele>2202.4</ele>
        <time>2020-09-11T15:36:06Z</time>
      </trkpt>
      <trkpt lat="42.8775400" lon="-0.3160830">
        <ele>2202.8</ele>
        <time>2020-09-11T15:36:09Z</time>
      </trkpt>
      <trkpt lat="42.8775380" lon="-0.3160520">
        <ele>2203.4</ele>
        <time>2020-09-11T15:36:12Z</time>
      </trkpt>
      <trkpt lat="42.8775170" lon="-0.3160010">
        <ele>2204.4</ele>
        <time>2020-09-11T15:36:20Z</time>
      </trkpt>
      <trkpt lat="42.8774780" lon="-0.3159890">
        <ele>2205.6</ele>
        <time>2020-09-11T15:36:26Z</time>
      </trkpt>
      <trkpt lat="42.8774510" lon="-0.3159610">
        <ele>2206.6</ele>
        <time>2020-09-11T15:36:32Z</time>
      </trkpt>
      <trkpt lat="42.8774180" lon="-0.3159140">
        <ele>2207.8</ele>
        <time>2020-09-11T15:36:40Z</time>
      </trkpt>
      <trkpt lat="42.8773690" lon="-0.3158780">
        <ele>2208.8</ele>
        <time>2020-09-11T15:36:48Z</time>
      </trkpt>
      <trkpt lat="42.8773100" lon="-0.3158610">
        <ele>2210.0</ele>
        <time>2020-09-11T15:36:58Z</time>
      </trkpt>
      <trkpt lat="42.8772850" lon="-0.3158350">
        <ele>2211.0</ele>
        <time>2020-09-11T15:37:03Z</time>
      </trkpt>
      <trkpt lat="42.8772320" lon="-0.3158270">
        <ele>2212.2</ele>
        <time>2020-09-11T15:37:10Z</time>
      </trkpt>
      <trkpt lat="42.8772150" lon="-0.3157800">
        <ele>2213.4</ele>
        <time>2020-09-11T15:37:15Z</time>
      </trkpt>
      <trkpt lat="42.8771940" lon="-0.3157380">
        <ele>2214.4</ele>
        <time>2020-09-11T15:37:21Z</time>
      </trkpt>
      <trkpt lat="42.8771540" lon="-0.3156830">
        <ele>2215.6</ele>
        <time>2020-09-11T15:37:30Z</time>
      </trkpt>
      <trkpt lat="42.8771340" lon="-0.3156280">
        <ele>2216.6</ele>
        <time>2020-09-11T15:37:36Z</time>
      </trkpt>
      <trkpt lat="42.8770880" lon="-0.3155490">
        <ele>2217.8</ele>
        <time>2020-09-11T15:37:45Z</time>
      </trkpt>
      <trkpt lat="42.8770840" lon="-0.3154530">
        <ele>2218.8</ele>
        <time>2020-09-11T15:37:54Z</time>
      </trkpt>
      <trkpt lat="42.8770750" lon="-0.3154110">
        <ele>2219.8</ele>
        <time>2020-09-11T15:37:59Z</time>
      </trkpt>
      <trkpt lat="42.8770480" lon="-0.3153170">
        <ele>2221.0</ele>
        <time>2020-09-11T15:38:11Z</time>
      </trkpt>
      <trkpt lat="42.8770460" lon="-0.3152900">
        <ele>2222.0</ele>
        <time>2020-09-11T15:38:19Z</time>
      </trkpt>
      <trkpt lat="42.8770050" lon="-0.3152250">
        <ele>2223.2</ele>
        <time>2020-09-11T15:38:31Z</time>
      </trkpt>
      <trkpt lat="42.8769860" lon="-0.3151840">
        <ele>2224.2</ele>
        <time>2020-09-11T15:38:40Z</time>
      </trkpt>
      <trkpt lat="42.8769440" lon="-0.3151020">
        <ele>2225.4</ele>
        <time>2020-09-11T15:38:50Z</time>
      </trkpt>
      <trkpt lat="42.8769530" lon="-0.3150520">
        <ele>2226.4</ele>
        <time>2020-09-11T15:38:56Z</time>
      </trkpt>
      <trkpt lat="42.8769290" lon="-0.3149680">
        <ele>2227.4</ele>
        <time>2020-09-11T15:39:05Z</time>
      </trkpt>
      <trkpt lat="42.8769410" lon="-0.3148850">
        <ele>2228.6</ele>
        <time>2020-09-11T15:39:14Z</time>
      </trkpt>
      <trkpt lat="42.8769600" lon="-0.3148520">
        <ele>2229.6</ele>
        <time>2020-09-11T15:39:21Z</time>
      </trkpt>
      <trkpt lat="42.8769620" lon="-0.3148430">
        <ele>2229.6</ele>
        <time>2020-09-11T15:39:22Z</time>
      </trkpt>
      <trkpt lat="42.8769630" lon="-0.3147870">
        <ele>2230.6</ele>
        <time>2020-09-11T15:39:31Z</time>
      </trkpt>
      <trkpt lat="42.8769390" lon="-0.3147030">
        <ele>2231.6</ele>
        <time>2020-09-11T15:39:40Z</time>
      </trkpt>
      <trkpt lat="42.8768860" lon="-0.3147330">
        <ele>2232.4</ele>
        <time>2020-09-11T15:40:20Z</time>
      </trkpt>
      <trkpt lat="42.8768770" lon="-0.3146370">
        <ele>2232.8</ele>
        <time>2020-09-11T15:40:32Z</time>
      </trkpt>
      <trkpt lat="42.8768910" lon="-0.3146030">
        <ele>2233.2</ele>
        <time>2020-09-11T15:40:35Z</time>
      </trkpt>
      <trkpt lat="42.8769010" lon="-0.3145820">
        <ele>2234.0</ele>
        <time>2020-09-11T15:40:38Z</time>
      </trkpt>
      <trkpt lat="42.8769100" lon="-0.3145110">
        <ele>2235.0</ele>
        <time>2020-09-11T15:40:44Z</time>
      </trkpt>
      <trkpt lat="42.8769190" lon="-0.3144680">
        <ele>2236.2</ele>
        <time>2020-09-11T15:40:48Z</time>
      </trkpt>
      <trkpt lat="42.8769130" lon="-0.3144290">
        <ele>2237.2</ele>
        <time>2020-09-11T15:40:53Z</time>
      </trkpt>
      <trkpt lat="42.8768830" lon="-0.3144060">
        <ele>2238.4</ele>
        <time>2020-09-11T15:40:58Z</time>
      </trkpt>
      <trkpt lat="42.8768340" lon="-0.3143850">
        <ele>2239.4</ele>
        <time>2020-09-11T15:41:04Z</time>
      </trkpt>
      <trkpt lat="42.8767960" lon="-0.3143470">
        <ele>2240.4</ele>
        <time>2020-09-11T15:41:11Z</time>
      </trkpt>
      <trkpt lat="42.8767940" lon="-0.3142790">
        <ele>2241.4</ele>
        <time>2020-09-11T15:41:18Z</time>
      </trkpt>
      <trkpt lat="42.8767870" lon="-0.3142390">
        <ele>2242.6</ele>
        <time>2020-09-11T15:41:24Z</time>
      </trkpt>
      <trkpt lat="42.8767770" lon="-0.3141960">
        <ele>2243.8</ele>
        <time>2020-09-11T15:41:29Z</time>
      </trkpt>
      <trkpt lat="42.8767350" lon="-0.3141860">
        <ele>2244.8</ele>
        <time>2020-09-11T15:41:37Z</time>
      </trkpt>
      <trkpt lat="42.8767170" lon="-0.3141730">
        <ele>2246.2</ele>
        <time>2020-09-11T15:41:42Z</time>
      </trkpt>
      <trkpt lat="42.8766920" lon="-0.3141180">
        <ele>2247.2</ele>
        <time>2020-09-11T15:41:56Z</time>
      </trkpt>
      <trkpt lat="42.8766920" lon="-0.3141000">
        <ele>2248.2</ele>
        <time>2020-09-11T15:42:03Z</time>
      </trkpt>
      <trkpt lat="42.8766710" lon="-0.3140970">
        <ele>2249.4</ele>
        <time>2020-09-11T15:42:10Z</time>
      </trkpt>
      <trkpt lat="42.8766430" lon="-0.3140870">
        <ele>2250.6</ele>
        <time>2020-09-11T15:42:19Z</time>
      </trkpt>
      <trkpt lat="42.8766270" lon="-0.3140540">
        <ele>2251.6</ele>
        <time>2020-09-11T15:42:25Z</time>
      </trkpt>
      <trkpt lat="42.8765790" lon="-0.3139970">
        <ele>2252.8</ele>
        <time>2020-09-11T15:42:37Z</time>
      </trkpt>
      <trkpt lat="42.8765620" lon="-0.3139880">
        <ele>2253.8</ele>
        <time>2020-09-11T15:42:46Z</time>
      </trkpt>
      <trkpt lat="42.8765370" lon="-0.3139490">
        <ele>2254.8</ele>
        <time>2020-09-11T15:42:53Z</time>
      </trkpt>
      <trkpt lat="42.8764200" lon="-0.3137720">
        <ele>2255.4</ele>
        <time>2020-09-11T15:43:23Z</time>
      </trkpt>
      <trkpt lat="42.8764220" lon="-0.3137510">
        <ele>2255.8</ele>
        <time>2020-09-11T15:43:28Z</time>
      </trkpt>
      <trkpt lat="42.8764060" lon="-0.3136380">
        <ele>2256.8</ele>
        <time>2020-09-11T15:43:36Z</time>
      </trkpt>
      <trkpt lat="42.8763440" lon="-0.3134490">
        <ele>2258.0</ele>
        <time>2020-09-11T15:43:55Z</time>
      </trkpt>
      <trkpt lat="42.8763210" lon="-0.3133360">
        <ele>2258.4</ele>
        <time>2020-09-11T15:44:05Z</time>
      </trkpt>
      <trkpt lat="42.8762930" lon="-0.3132990">
        <ele>2258.4</ele>
        <time>2020-09-11T15:44:09Z</time>
      </trkpt>
      <trkpt lat="42.8762690" lon="-0.3132710">
        <ele>2258.8</ele>
        <time>2020-09-11T15:44:12Z</time>
      </trkpt>
      <trkpt lat="42.8762440" lon="-0.3132700">
        <ele>2259.2</ele>
        <time>2020-09-11T15:44:15Z</time>
      </trkpt>
      <trkpt lat="42.8762240" lon="-0.3132690">
        <ele>2259.4</ele>
        <time>2020-09-11T15:44:18Z</time>
      </trkpt>
      <trkpt lat="42.8761750" lon="-0.3132540">
        <ele>2260.2</ele>
        <time>2020-09-11T15:44:26Z</time>
      </trkpt>
      <trkpt lat="42.8761230" lon="-0.3132630">
        <ele>2261.2</ele>
        <time>2020-09-11T15:44:33Z</time>
      </trkpt>
      <trkpt lat="42.8760640" lon="-0.3132470">
        <ele>2262.4</ele>
        <time>2020-09-11T15:44:45Z</time>
      </trkpt>
      <trkpt lat="42.8760240" lon="-0.3132350">
        <ele>2263.0</ele>
        <time>2020-09-11T15:44:49Z</time>
      </trkpt>
      <trkpt lat="42.8759760" lon="-0.3132100">
        <ele>2263.6</ele>
        <time>2020-09-11T15:44:54Z</time>
      </trkpt>
      <trkpt lat="42.8759620" lon="-0.3132030">
        <ele>2263.8</ele>
        <time>2020-09-11T15:44:56Z</time>
      </trkpt>
      <trkpt lat="42.8759460" lon="-0.3131900">
        <ele>2264.2</ele>
        <time>2020-09-11T15:44:59Z</time>
      </trkpt>
      <trkpt lat="42.8759360" lon="-0.3131820">
        <ele>2264.6</ele>
        <time>2020-09-11T15:45:01Z</time>
      </trkpt>
      <trkpt lat="42.8759070" lon="-0.3131680">
        <ele>2265.8</ele>
        <time>2020-09-11T15:45:08Z</time>
      </trkpt>
      <trkpt lat="42.8758780" lon="-0.3131330">
        <ele>2266.8</ele>
        <time>2020-09-11T15:45:15Z</time>
      </trkpt>
      <trkpt lat="42.8758650" lon="-0.3130770">
        <ele>2267.8</ele>
        <time>2020-09-11T15:45:22Z</time>
      </trkpt>
      <trkpt lat="42.8758560" lon="-0.3130080">
        <ele>2268.8</ele>
        <time>2020-09-11T15:45:29Z</time>
      </trkpt>
      <trkpt lat="42.8758550" lon="-0.3129700">
        <ele>2270.0</ele>
        <time>2020-09-11T15:45:37Z</time>
      </trkpt>
      <trkpt lat="42.8758710" lon="-0.3129210">
        <ele>2271.2</ele>
        <time>2020-09-11T15:45:50Z</time>
      </trkpt>
      <trkpt lat="42.8759100" lon="-0.3130110">
        <ele>2270.8</ele>
        <time>2020-09-11T15:47:00Z</time>
      </trkpt>
      <trkpt lat="42.8759150" lon="-0.3130180">
        <ele>2272.2</ele>
        <time>2020-09-11T15:47:01Z</time>
      </trkpt>
      <trkpt lat="42.8759230" lon="-0.3130260">
        <ele>2273.8</ele>
        <time>2020-09-11T15:47:03Z</time>
      </trkpt>
      <trkpt lat="42.8759700" lon="-0.3130530">
        <ele>2275.2</ele>
        <time>2020-09-11T15:47:27Z</time>
      </trkpt>
      <trkpt lat="42.8759910" lon="-0.3130620">
        <ele>2275.8</ele>
        <time>2020-09-11T15:47:29Z</time>
      </trkpt>
      <trkpt lat="42.8760100" lon="-0.3130590">
        <ele>2276.4</ele>
        <time>2020-09-11T15:47:32Z</time>
      </trkpt>
      <trkpt lat="42.8759830" lon="-0.3130000">
        <ele>2277.6</ele>
        <time>2020-09-11T15:47:39Z</time>
      </trkpt>
      <trkpt lat="42.8759680" lon="-0.3129580">
        <ele>2279.0</ele>
        <time>2020-09-11T15:47:43Z</time>
      </trkpt>
      <trkpt lat="42.8759660" lon="-0.3129140">
        <ele>2280.0</ele>
        <time>2020-09-11T15:47:47Z</time>
      </trkpt>
      <trkpt lat="42.8759390" lon="-0.3128810">
        <ele>2281.0</ele>
        <time>2020-09-11T15:47:51Z</time>
      </trkpt>
      <trkpt lat="42.8759330" lon="-0.3128720">
        <ele>2281.2</ele>
        <time>2020-09-11T15:47:52Z</time>
      </trkpt>
      <trkpt lat="42.8759320" lon="-0.3128580">
        <ele>2281.6</ele>
        <time>2020-09-11T15:47:54Z</time>
      </trkpt>
      <trkpt lat="42.8759470" lon="-0.3128530">
        <ele>2282.2</ele>
        <time>2020-09-11T15:47:57Z</time>
      </trkpt>
      <trkpt lat="42.8759900" lon="-0.3128700">
        <ele>2283.2</ele>
        <time>2020-09-11T15:48:04Z</time>
      </trkpt>
      <trkpt lat="42.8760050" lon="-0.3128920">
        <ele>2284.4</ele>
        <time>2020-09-11T15:48:14Z</time>
      </trkpt>
      <trkpt lat="42.8760400" lon="-0.3129090">
        <ele>2285.4</ele>
        <time>2020-09-11T15:48:24Z</time>
      </trkpt>
      <trkpt lat="42.8760460" lon="-0.3128810">
        <ele>2286.6</ele>
        <time>2020-09-11T15:48:34Z</time>
      </trkpt>
      <trkpt lat="42.8760370" lon="-0.3128470">
        <ele>2287.6</ele>
        <time>2020-09-11T15:48:39Z</time>
      </trkpt>
      <trkpt lat="42.8760300" lon="-0.3128070">
        <ele>2288.6</ele>
        <time>2020-09-11T15:48:45Z</time>
      </trkpt>
      <trkpt lat="42.8760300" lon="-0.3128030">
        <ele>2289.8</ele>
        <time>2020-09-11T15:48:49Z</time>
      </trkpt>
      <trkpt lat="42.8760640" lon="-0.3127890">
        <ele>2290.8</ele>
        <time>2020-09-11T15:49:01Z</time>
      </trkpt>
      <trkpt lat="42.8760660" lon="-0.3128400">
        <ele>2291.8</ele>
        <time>2020-09-11T15:49:15Z</time>
      </trkpt>
      <trkpt lat="42.8760820" lon="-0.3128170">
        <ele>2292.8</ele>
        <time>2020-09-11T15:49:23Z</time>
      </trkpt>
      <trkpt lat="42.8760940" lon="-0.3128200">
        <ele>2294.0</ele>
        <time>2020-09-11T15:49:26Z</time>
      </trkpt>
      <trkpt lat="42.8761170" lon="-0.3127680">
        <ele>2295.2</ele>
        <time>2020-09-11T15:49:34Z</time>
      </trkpt>
      <trkpt lat="42.8761200" lon="-0.3127450">
        <ele>2296.2</ele>
        <time>2020-09-11T15:49:37Z</time>
      </trkpt>
      <trkpt lat="42.8761490" lon="-0.3127180">
        <ele>2297.4</ele>
        <time>2020-09-11T15:49:42Z</time>
      </trkpt>
      <trkpt lat="42.8761840" lon="-0.3127250">
        <ele>2298.6</ele>
        <time>2020-09-11T15:49:48Z</time>
      </trkpt>
      <trkpt lat="42.8761930" lon="-0.3127590">
        <ele>2299.8</ele>
        <time>2020-09-11T15:49:52Z</time>
      </trkpt>
      <trkpt lat="42.8762140" lon="-0.3127590">
        <ele>2301.0</ele>
        <time>2020-09-11T15:49:58Z</time>
      </trkpt>
      <trkpt lat="42.8762160" lon="-0.3127300">
        <ele>2302.2</ele>
        <time>2020-09-11T15:50:03Z</time>
      </trkpt>
      <trkpt lat="42.8762080" lon="-0.3127300">
        <ele>2303.2</ele>
        <time>2020-09-11T15:50:07Z</time>
      </trkpt>
      <trkpt lat="42.8761760" lon="-0.3126940">
        <ele>2304.4</ele>
        <time>2020-09-11T15:50:14Z</time>
      </trkpt>
      <trkpt lat="42.8761600" lon="-0.3126290">
        <ele>2305.4</ele>
        <time>2020-09-11T15:50:23Z</time>
      </trkpt>
      <trkpt lat="42.8761420" lon="-0.3126000">
        <ele>2306.6</ele>
        <time>2020-09-11T15:50:28Z</time>
      </trkpt>
      <trkpt lat="42.8761290" lon="-0.3125850">
        <ele>2307.8</ele>
        <time>2020-09-11T15:50:32Z</time>
      </trkpt>
      <trkpt lat="42.8760940" lon="-0.3125440">
        <ele>2309.0</ele>
        <time>2020-09-11T15:50:40Z</time>
      </trkpt>
      <trkpt lat="42.8760640" lon="-0.3125210">
        <ele>2310.0</ele>
        <time>2020-09-11T15:50:45Z</time>
      </trkpt>
      <trkpt lat="42.8760490" lon="-0.3124760">
        <ele>2311.2</ele>
        <time>2020-09-11T15:50:52Z</time>
      </trkpt>
      <trkpt lat="42.8760220" lon="-0.3124220">
        <ele>2312.4</ele>
        <time>2020-09-11T15:50:59Z</time>
      </trkpt>
      <trkpt lat="42.8759740" lon="-0.3124070">
        <ele>2313.4</ele>
        <time>2020-09-11T15:51:05Z</time>
      </trkpt>
      <trkpt lat="42.8759890" lon="-0.3123930">
        <ele>2314.6</ele>
        <time>2020-09-11T15:51:12Z</time>
      </trkpt>
      <trkpt lat="42.8760220" lon="-0.3123900">
        <ele>2315.6</ele>
        <time>2020-09-11T15:51:18Z</time>
      </trkpt>
      <trkpt lat="42.8760570" lon="-0.3124110">
        <ele>2316.6</ele>
        <time>2020-09-11T15:51:24Z</time>
      </trkpt>
      <trkpt lat="42.8761210" lon="-0.3124850">
        <ele>2317.8</ele>
        <time>2020-09-11T15:51:37Z</time>
      </trkpt>
      <trkpt lat="42.8761130" lon="-0.3124350">
        <ele>2319.0</ele>
        <time>2020-09-11T15:51:43Z</time>
      </trkpt>
      <trkpt lat="42.8760830" lon="-0.3123820">
        <ele>2320.0</ele>
        <time>2020-09-11T15:51:51Z</time>
      </trkpt>
      <trkpt lat="42.8760770" lon="-0.3122510">
        <ele>2321.2</ele>
        <time>2020-09-11T15:51:59Z</time>
      </trkpt>
      <trkpt lat="42.8760700" lon="-0.3122280">
        <ele>2321.4</ele>
        <time>2020-09-11T15:52:01Z</time>
      </trkpt>
      <trkpt lat="42.8760480" lon="-0.3121810">
        <ele>2322.2</ele>
        <time>2020-09-11T15:52:07Z</time>
      </trkpt>
      <trkpt lat="42.8760050" lon="-0.3121240">
        <ele>2323.2</ele>
        <time>2020-09-11T15:52:15Z</time>
      </trkpt>
      <trkpt lat="42.8759590" lon="-0.3121230">
        <ele>2324.2</ele>
        <time>2020-09-11T15:52:20Z</time>
      </trkpt>
      <trkpt lat="42.8759050" lon="-0.3121010">
        <ele>2325.6</ele>
        <time>2020-09-11T15:52:30Z</time>
      </trkpt>
      <trkpt lat="42.8758750" lon="-0.3120900">
        <ele>2326.8</ele>
        <time>2020-09-11T15:52:35Z</time>
      </trkpt>
      <trkpt lat="42.8758430" lon="-0.3120340">
        <ele>2328.0</ele>
        <time>2020-09-11T15:52:42Z</time>
      </trkpt>
      <trkpt lat="42.8758200" lon="-0.3120020">
        <ele>2328.4</ele>
        <time>2020-09-11T15:52:46Z</time>
      </trkpt>
      <trkpt lat="42.8758060" lon="-0.3119840">
        <ele>2329.2</ele>
        <time>2020-09-11T15:52:49Z</time>
      </trkpt>
      <trkpt lat="42.8757630" lon="-0.3119500">
        <ele>2330.2</ele>
        <time>2020-09-11T15:52:56Z</time>
      </trkpt>
      <trkpt lat="42.8757370" lon="-0.3119220">
        <ele>2331.4</ele>
        <time>2020-09-11T15:53:01Z</time>
      </trkpt>
      <trkpt lat="42.8757060" lon="-0.3119030">
        <ele>2332.6</ele>
        <time>2020-09-11T15:53:07Z</time>
      </trkpt>
      <trkpt lat="42.8756920" lon="-0.3119100">
        <ele>2333.6</ele>
        <time>2020-09-11T15:53:13Z</time>
      </trkpt>
      <trkpt lat="42.8756880" lon="-0.3118650">
        <ele>2334.6</ele>
        <time>2020-09-11T15:53:30Z</time>
      </trkpt>
      <trkpt lat="42.8757280" lon="-0.3118910">
        <ele>2335.8</ele>
        <time>2020-09-11T15:53:37Z</time>
      </trkpt>
      <trkpt lat="42.8757580" lon="-0.3119120">
        <ele>2337.0</ele>
        <time>2020-09-11T15:53:44Z</time>
      </trkpt>
      <trkpt lat="42.8757780" lon="-0.3118890">
        <ele>2338.0</ele>
        <time>2020-09-11T15:53:52Z</time>
      </trkpt>
      <trkpt lat="42.8757480" lon="-0.3118200">
        <ele>2339.0</ele>
        <time>2020-09-11T15:54:02Z</time>
      </trkpt>
      <trkpt lat="42.8757180" lon="-0.3117770">
        <ele>2340.2</ele>
        <time>2020-09-11T15:54:12Z</time>
      </trkpt>
      <trkpt lat="42.8756990" lon="-0.3117620">
        <ele>2341.2</ele>
        <time>2020-09-11T15:54:18Z</time>
      </trkpt>
      <trkpt lat="42.8756790" lon="-0.3117080">
        <ele>2342.4</ele>
        <time>2020-09-11T15:54:25Z</time>
      </trkpt>
      <trkpt lat="42.8756930" lon="-0.3117050">
        <ele>2343.4</ele>
        <time>2020-09-11T15:54:30Z</time>
      </trkpt>
      <trkpt lat="42.8756730" lon="-0.3116950">
        <ele>2344.4</ele>
        <time>2020-09-11T15:54:36Z</time>
      </trkpt>
      <trkpt lat="42.8756800" lon="-0.3116610">
        <ele>2345.8</ele>
        <time>2020-09-11T15:54:40Z</time>
      </trkpt>
      <trkpt lat="42.8756760" lon="-0.3116610">
        <ele>2346.8</ele>
        <time>2020-09-11T15:54:44Z</time>
      </trkpt>
      <trkpt lat="42.8756310" lon="-0.3116310">
        <ele>2348.0</ele>
        <time>2020-09-11T15:54:57Z</time>
      </trkpt>
      <trkpt lat="42.8756180" lon="-0.3116100">
        <ele>2349.2</ele>
        <time>2020-09-11T15:55:00Z</time>
      </trkpt>
      <trkpt lat="42.8755940" lon="-0.3115580">
        <ele>2350.4</ele>
        <time>2020-09-11T15:55:07Z</time>
      </trkpt>
      <trkpt lat="42.8755860" lon="-0.3115200">
        <ele>2351.6</ele>
        <time>2020-09-11T15:55:11Z</time>
      </trkpt>
      <trkpt lat="42.8755780" lon="-0.3114600">
        <ele>2352.8</ele>
        <time>2020-09-11T15:55:23Z</time>
      </trkpt>
      <trkpt lat="42.8755820" lon="-0.3114050">
        <ele>2353.8</ele>
        <time>2020-09-11T15:55:29Z</time>
      </trkpt>
      <trkpt lat="42.8755560" lon="-0.3113600">
        <ele>2355.0</ele>
        <time>2020-09-11T15:55:39Z</time>
      </trkpt>
      <trkpt lat="42.8755490" lon="-0.3113540">
        <ele>2356.0</ele>
        <time>2020-09-11T15:55:42Z</time>
      </trkpt>
      <trkpt lat="42.8755440" lon="-0.3113570">
        <ele>2357.2</ele>
        <time>2020-09-11T15:55:46Z</time>
      </trkpt>
      <trkpt lat="42.8755800" lon="-0.3114150">
        <ele>2358.2</ele>
        <time>2020-09-11T15:55:57Z</time>
      </trkpt>
      <trkpt lat="42.8756000" lon="-0.3114070">
        <ele>2359.2</ele>
        <time>2020-09-11T15:56:04Z</time>
      </trkpt>
      <trkpt lat="42.8756330" lon="-0.3114400">
        <ele>2360.2</ele>
        <time>2020-09-11T15:56:39Z</time>
      </trkpt>
      <trkpt lat="42.8756640" lon="-0.3114830">
        <ele>2361.4</ele>
        <time>2020-09-11T15:56:49Z</time>
      </trkpt>
      <trkpt lat="42.8756870" lon="-0.3114990">
        <ele>2362.4</ele>
        <time>2020-09-11T15:56:54Z</time>
      </trkpt>
      <trkpt lat="42.8757210" lon="-0.3114980">
        <ele>2363.4</ele>
        <time>2020-09-11T15:57:00Z</time>
      </trkpt>
      <trkpt lat="42.8757470" lon="-0.3114970">
        <ele>2364.6</ele>
        <time>2020-09-11T15:57:07Z</time>
      </trkpt>
      <trkpt lat="42.8757820" lon="-0.3114990">
        <ele>2365.8</ele>
        <time>2020-09-11T15:57:13Z</time>
      </trkpt>
      <trkpt lat="42.8758120" lon="-0.3115070">
        <ele>2366.8</ele>
        <time>2020-09-11T15:57:19Z</time>
      </trkpt>
      <trkpt lat="42.8758300" lon="-0.3115230">
        <ele>2367.8</ele>
        <time>2020-09-11T15:57:24Z</time>
      </trkpt>
      <trkpt lat="42.8758820" lon="-0.3115320">
        <ele>2368.8</ele>
        <time>2020-09-11T15:57:31Z</time>
      </trkpt>
      <trkpt lat="42.8759170" lon="-0.3114990">
        <ele>2370.0</ele>
        <time>2020-09-11T15:57:40Z</time>
      </trkpt>
      <trkpt lat="42.8759400" lon="-0.3115030">
        <ele>2371.0</ele>
        <time>2020-09-11T15:57:45Z</time>
      </trkpt>
      <trkpt lat="42.8759840" lon="-0.3115030">
        <ele>2372.2</ele>
        <time>2020-09-11T15:57:53Z</time>
      </trkpt>
      <trkpt lat="42.8760380" lon="-0.3115170">
        <ele>2373.2</ele>
        <time>2020-09-11T15:58:00Z</time>
      </trkpt>
      <trkpt lat="42.8760900" lon="-0.3115620">
        <ele>2374.4</ele>
        <time>2020-09-11T15:58:09Z</time>
      </trkpt>
      <trkpt lat="42.8761110" lon="-0.3115830">
        <ele>2375.4</ele>
        <time>2020-09-11T15:58:15Z</time>
      </trkpt>
      <trkpt lat="42.8761720" lon="-0.3115990">
        <ele>2376.6</ele>
        <time>2020-09-11T15:58:24Z</time>
      </trkpt>
      <trkpt lat="42.8762220" lon="-0.3115990">
        <ele>2377.6</ele>
        <time>2020-09-11T15:58:32Z</time>
      </trkpt>
      <trkpt lat="42.8762200" lon="-0.3114970">
        <ele>2378.6</ele>
        <time>2020-09-11T15:58:42Z</time>
      </trkpt>
      <trkpt lat="42.8761900" lon="-0.3114780">
        <ele>2379.8</ele>
        <time>2020-09-11T15:58:46Z</time>
      </trkpt>
      <trkpt lat="42.8761450" lon="-0.3114380">
        <ele>2380.8</ele>
        <time>2020-09-11T15:58:54Z</time>
      </trkpt>
      <trkpt lat="42.8760820" lon="-0.3113880">
        <ele>2382.0</ele>
        <time>2020-09-11T15:59:05Z</time>
      </trkpt>
      <trkpt lat="42.8760530" lon="-0.3113490">
        <ele>2383.0</ele>
        <time>2020-09-11T15:59:11Z</time>
      </trkpt>
      <trkpt lat="42.8760040" lon="-0.3112860">
        <ele>2384.2</ele>
        <time>2020-09-11T15:59:22Z</time>
      </trkpt>
      <trkpt lat="42.8759830" lon="-0.3111930">
        <ele>2385.2</ele>
        <time>2020-09-11T15:59:30Z</time>
      </trkpt>
      <trkpt lat="42.8759630" lon="-0.3111480">
        <ele>2385.2</ele>
        <time>2020-09-11T15:59:34Z</time>
      </trkpt>
      <trkpt lat="42.8759520" lon="-0.3111270">
        <ele>2386.2</ele>
        <time>2020-09-11T15:59:41Z</time>
      </trkpt>
      <trkpt lat="42.8759270" lon="-0.3110850">
        <ele>2387.2</ele>
        <time>2020-09-11T15:59:49Z</time>
      </trkpt>
      <trkpt lat="42.8758980" lon="-0.3110240">
        <ele>2388.2</ele>
        <time>2020-09-11T15:59:55Z</time>
      </trkpt>
      <trkpt lat="42.8758380" lon="-0.3109030">
        <ele>2389.4</ele>
        <time>2020-09-11T16:00:08Z</time>
      </trkpt>
      <trkpt lat="42.8758020" lon="-0.3108900">
        <ele>2390.4</ele>
        <time>2020-09-11T16:00:16Z</time>
      </trkpt>
      <trkpt lat="42.8757580" lon="-0.3108630">
        <ele>2391.6</ele>
        <time>2020-09-11T16:00:24Z</time>
      </trkpt>
      <trkpt lat="42.8757480" lon="-0.3108310">
        <ele>2392.8</ele>
        <time>2020-09-11T16:00:30Z</time>
      </trkpt>
      <trkpt lat="42.8757170" lon="-0.3107790">
        <ele>2394.0</ele>
        <time>2020-09-11T16:00:37Z</time>
      </trkpt>
      <trkpt lat="42.8757020" lon="-0.3107500">
        <ele>2395.0</ele>
        <time>2020-09-11T16:00:43Z</time>
      </trkpt>
      <trkpt lat="42.8756810" lon="-0.3107030">
        <ele>2396.0</ele>
        <time>2020-09-11T16:00:50Z</time>
      </trkpt>
      <trkpt lat="42.8756570" lon="-0.3106780">
        <ele>2397.2</ele>
        <time>2020-09-11T16:00:55Z</time>
      </trkpt>
      <trkpt lat="42.8756340" lon="-0.3106340">
        <ele>2398.2</ele>
        <time>2020-09-11T16:01:00Z</time>
      </trkpt>
      <trkpt lat="42.8756060" lon="-0.3105710">
        <ele>2399.4</ele>
        <time>2020-09-11T16:01:08Z</time>
      </trkpt>
      <trkpt lat="42.8755620" lon="-0.3105050">
        <ele>2400.4</ele>
        <time>2020-09-11T16:01:17Z</time>
      </trkpt>
      <trkpt lat="42.8755190" lon="-0.3104200">
        <ele>2401.6</ele>
        <time>2020-09-11T16:01:26Z</time>
      </trkpt>
      <trkpt lat="42.8755170" lon="-0.3103750">
        <ele>2402.8</ele>
        <time>2020-09-11T16:01:35Z</time>
      </trkpt>
      <trkpt lat="42.8754950" lon="-0.3103560">
        <ele>2403.8</ele>
        <time>2020-09-11T16:01:39Z</time>
      </trkpt>
      <trkpt lat="42.8754800" lon="-0.3103460">
        <ele>2404.8</ele>
        <time>2020-09-11T16:01:47Z</time>
      </trkpt>
      <trkpt lat="42.8754700" lon="-0.3102760">
        <ele>2406.0</ele>
        <time>2020-09-11T16:01:57Z</time>
      </trkpt>
      <trkpt lat="42.8754500" lon="-0.3102590">
        <ele>2407.0</ele>
        <time>2020-09-11T16:02:01Z</time>
      </trkpt>
      <trkpt lat="42.8753430" lon="-0.3101840">
        <ele>2408.2</ele>
        <time>2020-09-11T16:02:21Z</time>
      </trkpt>
      <trkpt lat="42.8753250" lon="-0.3101630">
        <ele>2409.2</ele>
        <time>2020-09-11T16:02:25Z</time>
      </trkpt>
      <trkpt lat="42.8752970" lon="-0.3101040">
        <ele>2410.2</ele>
        <time>2020-09-11T16:02:32Z</time>
      </trkpt>
      <trkpt lat="42.8752890" lon="-0.3100670">
        <ele>2411.4</ele>
        <time>2020-09-11T16:02:38Z</time>
      </trkpt>
      <trkpt lat="42.8752790" lon="-0.3099990">
        <ele>2412.6</ele>
        <time>2020-09-11T16:02:44Z</time>
      </trkpt>
      <trkpt lat="42.8752620" lon="-0.3100000">
        <ele>2413.0</ele>
        <time>2020-09-11T16:02:46Z</time>
      </trkpt>
      <trkpt lat="42.8752590" lon="-0.3099900">
        <ele>2413.6</ele>
        <time>2020-09-11T16:02:49Z</time>
      </trkpt>
      <trkpt lat="42.8752500" lon="-0.3099670">
        <ele>2414.6</ele>
        <time>2020-09-11T16:02:55Z</time>
      </trkpt>
      <trkpt lat="42.8752330" lon="-0.3099060">
        <ele>2415.8</ele>
        <time>2020-09-11T16:03:02Z</time>
      </trkpt>
      <trkpt lat="42.8752490" lon="-0.3098950">
        <ele>2416.8</ele>
        <time>2020-09-11T16:03:09Z</time>
      </trkpt>
      <trkpt lat="42.8753080" lon="-0.3099810">
        <ele>2418.0</ele>
        <time>2020-09-11T16:03:22Z</time>
      </trkpt>
      <trkpt lat="42.8753520" lon="-0.3100210">
        <ele>2419.2</ele>
        <time>2020-09-11T16:03:31Z</time>
      </trkpt>
      <trkpt lat="42.8753980" lon="-0.3100520">
        <ele>2420.4</ele>
        <time>2020-09-11T16:03:38Z</time>
      </trkpt>
      <trkpt lat="42.8754350" lon="-0.3100670">
        <ele>2421.6</ele>
        <time>2020-09-11T16:03:43Z</time>
      </trkpt>
      <trkpt lat="42.8754980" lon="-0.3101040">
        <ele>2422.8</ele>
        <time>2020-09-11T16:03:51Z</time>
      </trkpt>
      <trkpt lat="42.8754790" lon="-0.3100660">
        <ele>2423.8</ele>
        <time>2020-09-11T16:03:58Z</time>
      </trkpt>
      <trkpt lat="42.8754520" lon="-0.3100210">
        <ele>2424.8</ele>
        <time>2020-09-11T16:04:03Z</time>
      </trkpt>
      <trkpt lat="42.8754260" lon="-0.3099710">
        <ele>2426.0</ele>
        <time>2020-09-11T16:04:13Z</time>
      </trkpt>
      <trkpt lat="42.8754620" lon="-0.3100030">
        <ele>2427.0</ele>
        <time>2020-09-11T16:04:24Z</time>
      </trkpt>
      <trkpt lat="42.8755010" lon="-0.3100310">
        <ele>2428.0</ele>
        <time>2020-09-11T16:04:40Z</time>
      </trkpt>
      <trkpt lat="42.8755350" lon="-0.3100480">
        <ele>2429.0</ele>
        <time>2020-09-11T16:04:47Z</time>
      </trkpt>
      <trkpt lat="42.8755850" lon="-0.3100940">
        <ele>2430.2</ele>
        <time>2020-09-11T16:04:55Z</time>
      </trkpt>
      <trkpt lat="42.8755870" lon="-0.3101230">
        <ele>2431.2</ele>
        <time>2020-09-11T16:05:00Z</time>
      </trkpt>
      <trkpt lat="42.8756160" lon="-0.3100730">
        <ele>2432.2</ele>
        <time>2020-09-11T16:05:06Z</time>
      </trkpt>
      <trkpt lat="42.8756330" lon="-0.3100340">
        <ele>2433.4</ele>
        <time>2020-09-11T16:05:11Z</time>
      </trkpt>
      <trkpt lat="42.8756100" lon="-0.3099530">
        <ele>2434.4</ele>
        <time>2020-09-11T16:05:58Z</time>
      </trkpt>
      <trkpt lat="42.8756790" lon="-0.3100120">
        <ele>2434.0</ele>
        <time>2020-09-11T16:07:35Z</time>
      </trkpt>
      <trkpt lat="42.8756960" lon="-0.3100200">
        <ele>2434.0</ele>
        <time>2020-09-11T16:07:36Z</time>
      </trkpt>
      <trkpt lat="42.8757380" lon="-0.3100440">
        <ele>2433.2</ele>
        <time>2020-09-11T16:07:39Z</time>
      </trkpt>
      <trkpt lat="42.8757580" lon="-0.3100520">
        <ele>2432.4</ele>
        <time>2020-09-11T16:07:41Z</time>
      </trkpt>
      <trkpt lat="42.8757660" lon="-0.3100450">
        <ele>2431.4</ele>
        <time>2020-09-11T16:07:42Z</time>
      </trkpt>
      <trkpt lat="42.8757680" lon="-0.3100350">
        <ele>2431.0</ele>
        <time>2020-09-11T16:07:43Z</time>
      </trkpt>
      <trkpt lat="42.8757230" lon="-0.3099610">
        <ele>2430.2</ele>
        <time>2020-09-11T16:07:49Z</time>
      </trkpt>
      <trkpt lat="42.8757020" lon="-0.3099100">
        <ele>2429.0</ele>
        <time>2020-09-11T16:07:52Z</time>
      </trkpt>
      <trkpt lat="42.8756660" lon="-0.3098380">
        <ele>2427.8</ele>
        <time>2020-09-11T16:07:57Z</time>
      </trkpt>
      <trkpt lat="42.8756510" lon="-0.3097920">
        <ele>2426.8</ele>
        <time>2020-09-11T16:08:00Z</time>
      </trkpt>
      <trkpt lat="42.8756390" lon="-0.3097280">
        <ele>2425.8</ele>
        <time>2020-09-11T16:08:04Z</time>
      </trkpt>
      <trkpt lat="42.8756500" lon="-0.3097110">
        <ele>2425.0</ele>
        <time>2020-09-11T16:08:06Z</time>
      </trkpt>
      <trkpt lat="42.8756590" lon="-0.3097110">
        <ele>2424.6</ele>
        <time>2020-09-11T16:08:07Z</time>
      </trkpt>
      <trkpt lat="42.8756800" lon="-0.3097410">
        <ele>2423.8</ele>
        <time>2020-09-11T16:08:10Z</time>
      </trkpt>
      <trkpt lat="42.8756910" lon="-0.3097540">
        <ele>2423.2</ele>
        <time>2020-09-11T16:08:11Z</time>
      </trkpt>
      <trkpt lat="42.8757050" lon="-0.3097680">
        <ele>2422.8</ele>
        <time>2020-09-11T16:08:12Z</time>
      </trkpt>
      <trkpt lat="42.8757300" lon="-0.3097930">
        <ele>2422.2</ele>
        <time>2020-09-11T16:08:14Z</time>
      </trkpt>
      <trkpt lat="42.8757680" lon="-0.3098420">
        <ele>2421.0</ele>
        <time>2020-09-11T16:08:18Z</time>
      </trkpt>
      <trkpt lat="42.8757770" lon="-0.3098520">
        <ele>2420.6</ele>
        <time>2020-09-11T16:08:19Z</time>
      </trkpt>
      <trkpt lat="42.8757810" lon="-0.3098370">
        <ele>2419.8</ele>
        <time>2020-09-11T16:08:21Z</time>
      </trkpt>
      <trkpt lat="42.8757650" lon="-0.3098100">
        <ele>2418.8</ele>
        <time>2020-09-11T16:08:23Z</time>
      </trkpt>
      <trkpt lat="42.8757480" lon="-0.3097800">
        <ele>2417.8</ele>
        <time>2020-09-11T16:08:25Z</time>
      </trkpt>
      <trkpt lat="42.8757210" lon="-0.3096870">
        <ele>2416.6</ele>
        <time>2020-09-11T16:08:30Z</time>
      </trkpt>
      <trkpt lat="42.8757250" lon="-0.3096740">
        <ele>2416.4</ele>
        <time>2020-09-11T16:08:31Z</time>
      </trkpt>
      <trkpt lat="42.8757410" lon="-0.3096450">
        <ele>2415.8</ele>
        <time>2020-09-11T16:08:33Z</time>
      </trkpt>
      <trkpt lat="42.8757540" lon="-0.3096370">
        <ele>2415.6</ele>
        <time>2020-09-11T16:08:34Z</time>
      </trkpt>
      <trkpt lat="42.8757740" lon="-0.3096510">
        <ele>2414.8</ele>
        <time>2020-09-11T16:08:36Z</time>
      </trkpt>
      <trkpt lat="42.8757840" lon="-0.3096620">
        <ele>2414.4</ele>
        <time>2020-09-11T16:08:37Z</time>
      </trkpt>
      <trkpt lat="42.8757940" lon="-0.3096700">
        <ele>2414.2</ele>
        <time>2020-09-11T16:08:38Z</time>
      </trkpt>
      <trkpt lat="42.8758280" lon="-0.3096970">
        <ele>2413.0</ele>
        <time>2020-09-11T16:08:41Z</time>
      </trkpt>
      <trkpt lat="42.8758410" lon="-0.3097020">
        <ele>2412.6</ele>
        <time>2020-09-11T16:08:42Z</time>
      </trkpt>
      <trkpt lat="42.8758510" lon="-0.3097100">
        <ele>2412.2</ele>
        <time>2020-09-11T16:08:43Z</time>
      </trkpt>
      <trkpt lat="42.8758620" lon="-0.3097210">
        <ele>2411.8</ele>
        <time>2020-09-11T16:08:44Z</time>
      </trkpt>
      <trkpt lat="42.8759030" lon="-0.3097560">
        <ele>2410.6</ele>
        <time>2020-09-11T16:08:48Z</time>
      </trkpt>
      <trkpt lat="42.8759340" lon="-0.3097770">
        <ele>2409.4</ele>
        <time>2020-09-11T16:08:51Z</time>
      </trkpt>
      <trkpt lat="42.8759800" lon="-0.3097970">
        <ele>2408.0</ele>
        <time>2020-09-11T16:08:55Z</time>
      </trkpt>
      <trkpt lat="42.8759690" lon="-0.3097490">
        <ele>2407.0</ele>
        <time>2020-09-11T16:08:58Z</time>
      </trkpt>
      <trkpt lat="42.8759430" lon="-0.3097040">
        <ele>2405.6</ele>
        <time>2020-09-11T16:09:01Z</time>
      </trkpt>
      <trkpt lat="42.8759120" lon="-0.3096440">
        <ele>2404.6</ele>
        <time>2020-09-11T16:09:05Z</time>
      </trkpt>
      <trkpt lat="42.8758890" lon="-0.3095750">
        <ele>2403.4</ele>
        <time>2020-09-11T16:09:09Z</time>
      </trkpt>
      <trkpt lat="42.8758710" lon="-0.3095060">
        <ele>2402.2</ele>
        <time>2020-09-11T16:09:13Z</time>
      </trkpt>
      <trkpt lat="42.8758580" lon="-0.3094530">
        <ele>2401.0</ele>
        <time>2020-09-11T16:09:16Z</time>
      </trkpt>
      <trkpt lat="42.8758590" lon="-0.3094220">
        <ele>2400.0</ele>
        <time>2020-09-11T16:09:19Z</time>
      </trkpt>
      <trkpt lat="42.8758680" lon="-0.3094230">
        <ele>2399.8</ele>
        <time>2020-09-11T16:09:20Z</time>
      </trkpt>
      <trkpt lat="42.8759140" lon="-0.3094530">
        <ele>2398.8</ele>
        <time>2020-09-11T16:09:24Z</time>
      </trkpt>
      <trkpt lat="42.8759530" lon="-0.3094910">
        <ele>2397.6</ele>
        <time>2020-09-11T16:09:28Z</time>
      </trkpt>
      <trkpt lat="42.8759830" lon="-0.3095070">
        <ele>2396.4</ele>
        <time>2020-09-11T16:09:31Z</time>
      </trkpt>
      <trkpt lat="42.8760150" lon="-0.3095310">
        <ele>2395.4</ele>
        <time>2020-09-11T16:09:34Z</time>
      </trkpt>
      <trkpt lat="42.8760540" lon="-0.3095490">
        <ele>2394.2</ele>
        <time>2020-09-11T16:09:37Z</time>
      </trkpt>
      <trkpt lat="42.8760720" lon="-0.3095500">
        <ele>2393.2</ele>
        <time>2020-09-11T16:09:39Z</time>
      </trkpt>
      <trkpt lat="42.8760620" lon="-0.3095170">
        <ele>2392.0</ele>
        <time>2020-09-11T16:09:42Z</time>
      </trkpt>
      <trkpt lat="42.8760300" lon="-0.3094510">
        <ele>2390.8</ele>
        <time>2020-09-11T16:09:46Z</time>
      </trkpt>
      <trkpt lat="42.8760200" lon="-0.3094070">
        <ele>2389.8</ele>
        <time>2020-09-11T16:09:49Z</time>
      </trkpt>
      <trkpt lat="42.8760250" lon="-0.3093990">
        <ele>2389.4</ele>
        <time>2020-09-11T16:09:50Z</time>
      </trkpt>
      <trkpt lat="42.8760470" lon="-0.3094080">
        <ele>2388.8</ele>
        <time>2020-09-11T16:09:52Z</time>
      </trkpt>
      <trkpt lat="42.8760740" lon="-0.3094250">
        <ele>2388.2</ele>
        <time>2020-09-11T16:09:54Z</time>
      </trkpt>
      <trkpt lat="42.8761010" lon="-0.3094440">
        <ele>2387.4</ele>
        <time>2020-09-11T16:09:56Z</time>
      </trkpt>
      <trkpt lat="42.8761620" lon="-0.3094670">
        <ele>2386.2</ele>
        <time>2020-09-11T16:10:00Z</time>
      </trkpt>
      <trkpt lat="42.8762010" lon="-0.3094800">
        <ele>2385.0</ele>
        <time>2020-09-11T16:10:03Z</time>
      </trkpt>
      <trkpt lat="42.8762220" lon="-0.3094860">
        <ele>2383.8</ele>
        <time>2020-09-11T16:10:05Z</time>
      </trkpt>
      <trkpt lat="42.8762700" lon="-0.3094860">
        <ele>2382.8</ele>
        <time>2020-09-11T16:10:09Z</time>
      </trkpt>
      <trkpt lat="42.8763200" lon="-0.3094870">
        <ele>2381.4</ele>
        <time>2020-09-11T16:10:13Z</time>
      </trkpt>
      <trkpt lat="42.8763610" lon="-0.3094860">
        <ele>2380.2</ele>
        <time>2020-09-11T16:10:16Z</time>
      </trkpt>
      <trkpt lat="42.8763830" lon="-0.3094880">
        <ele>2379.6</ele>
        <time>2020-09-11T16:10:18Z</time>
      </trkpt>
      <trkpt lat="42.8763840" lon="-0.3094690">
        <ele>2379.0</ele>
        <time>2020-09-11T16:10:20Z</time>
      </trkpt>
      <trkpt lat="42.8763440" lon="-0.3094190">
        <ele>2378.0</ele>
        <time>2020-09-11T16:10:24Z</time>
      </trkpt>
      <trkpt lat="42.8763050" lon="-0.3093820">
        <ele>2376.4</ele>
        <time>2020-09-11T16:10:28Z</time>
      </trkpt>
      <trkpt lat="42.8762730" lon="-0.3093440">
        <ele>2375.4</ele>
        <time>2020-09-11T16:10:31Z</time>
      </trkpt>
      <trkpt lat="42.8762450" lon="-0.3093010">
        <ele>2374.2</ele>
        <time>2020-09-11T16:10:35Z</time>
      </trkpt>
      <trkpt lat="42.8762370" lon="-0.3092780">
        <ele>2373.8</ele>
        <time>2020-09-11T16:10:41Z</time>
      </trkpt>
      <trkpt lat="42.8762300" lon="-0.3092990">
        <ele>2373.2</ele>
        <time>2020-09-11T16:11:01Z</time>
      </trkpt>
      <trkpt lat="42.8761760" lon="-0.3092180">
        <ele>2372.2</ele>
        <time>2020-09-11T16:11:09Z</time>
      </trkpt>
      <trkpt lat="42.8761400" lon="-0.3091820">
        <ele>2371.0</ele>
        <time>2020-09-11T16:11:12Z</time>
      </trkpt>
      <trkpt lat="42.8761320" lon="-0.3091500">
        <ele>2370.4</ele>
        <time>2020-09-11T16:11:14Z</time>
      </trkpt>
      <trkpt lat="42.8761270" lon="-0.3091240">
        <ele>2369.8</ele>
        <time>2020-09-11T16:11:16Z</time>
      </trkpt>
      <trkpt lat="42.8761330" lon="-0.3091140">
        <ele>2369.4</ele>
        <time>2020-09-11T16:11:17Z</time>
      </trkpt>
      <trkpt lat="42.8761730" lon="-0.3091310">
        <ele>2368.6</ele>
        <time>2020-09-11T16:11:21Z</time>
      </trkpt>
      <trkpt lat="42.8761840" lon="-0.3091370">
        <ele>2368.2</ele>
        <time>2020-09-11T16:11:22Z</time>
      </trkpt>
      <trkpt lat="42.8762030" lon="-0.3091340">
        <ele>2367.4</ele>
        <time>2020-09-11T16:11:24Z</time>
      </trkpt>
      <trkpt lat="42.8762120" lon="-0.3091310">
        <ele>2367.0</ele>
        <time>2020-09-11T16:11:25Z</time>
      </trkpt>
      <trkpt lat="42.8762340" lon="-0.3091310">
        <ele>2366.2</ele>
        <time>2020-09-11T16:11:27Z</time>
      </trkpt>
      <trkpt lat="42.8762750" lon="-0.3091310">
        <ele>2365.2</ele>
        <time>2020-09-11T16:11:30Z</time>
      </trkpt>
      <trkpt lat="42.8763340" lon="-0.3091300">
        <ele>2364.0</ele>
        <time>2020-09-11T16:11:34Z</time>
      </trkpt>
      <trkpt lat="42.8763830" lon="-0.3091290">
        <ele>2362.6</ele>
        <time>2020-09-11T16:11:38Z</time>
      </trkpt>
      <trkpt lat="42.8764200" lon="-0.3091300">
        <ele>2361.6</ele>
        <time>2020-09-11T16:11:41Z</time>
      </trkpt>
      <trkpt lat="42.8765090" lon="-0.3091130">
        <ele>2360.4</ele>
        <time>2020-09-11T16:11:49Z</time>
      </trkpt>
      <trkpt lat="42.8765370" lon="-0.3090760">
        <ele>2359.2</ele>
        <time>2020-09-11T16:11:53Z</time>
      </trkpt>
      <trkpt lat="42.8765480" lon="-0.3090570">
        <ele>2358.8</ele>
        <time>2020-09-11T16:11:55Z</time>
      </trkpt>
      <trkpt lat="42.8765680" lon="-0.3090490">
        <ele>2358.0</ele>
        <time>2020-09-11T16:11:57Z</time>
      </trkpt>
      <trkpt lat="42.8766130" lon="-0.3090460">
        <ele>2356.8</ele>
        <time>2020-09-11T16:12:00Z</time>
      </trkpt>
      <trkpt lat="42.8766610" lon="-0.3090440">
        <ele>2355.4</ele>
        <time>2020-09-11T16:12:04Z</time>
      </trkpt>
      <trkpt lat="42.8766620" lon="-0.3090310">
        <ele>2355.2</ele>
        <time>2020-09-11T16:12:05Z</time>
      </trkpt>
      <trkpt lat="42.8766430" lon="-0.3089940">
        <ele>2354.4</ele>
        <time>2020-09-11T16:12:08Z</time>
      </trkpt>
      <trkpt lat="42.8766290" lon="-0.3089610">
        <ele>2354.0</ele>
        <time>2020-09-11T16:12:10Z</time>
      </trkpt>
      <trkpt lat="42.8766200" lon="-0.3089480">
        <ele>2353.6</ele>
        <time>2020-09-11T16:12:12Z</time>
      </trkpt>
      <trkpt lat="42.8766250" lon="-0.3089420">
        <ele>2353.4</ele>
        <time>2020-09-11T16:12:13Z</time>
      </trkpt>
      <trkpt lat="42.8766300" lon="-0.3089380">
        <ele>2353.0</ele>
        <time>2020-09-11T16:12:14Z</time>
      </trkpt>
      <trkpt lat="42.8766320" lon="-0.3089250">
        <ele>2352.6</ele>
        <time>2020-09-11T16:12:16Z</time>
      </trkpt>
      <trkpt lat="42.8766330" lon="-0.3089190">
        <ele>2352.2</ele>
        <time>2020-09-11T16:12:17Z</time>
      </trkpt>
      <trkpt lat="42.8766620" lon="-0.3089270">
        <ele>2351.2</ele>
        <time>2020-09-11T16:12:21Z</time>
      </trkpt>
      <trkpt lat="42.8766740" lon="-0.3089270">
        <ele>2351.0</ele>
        <time>2020-09-11T16:12:22Z</time>
      </trkpt>
      <trkpt lat="42.8767150" lon="-0.3089120">
        <ele>2350.0</ele>
        <time>2020-09-11T16:12:25Z</time>
      </trkpt>
      <trkpt lat="42.8767340" lon="-0.3089230">
        <ele>2349.4</ele>
        <time>2020-09-11T16:12:27Z</time>
      </trkpt>
      <trkpt lat="42.8767410" lon="-0.3089330">
        <ele>2349.0</ele>
        <time>2020-09-11T16:12:29Z</time>
      </trkpt>
      <trkpt lat="42.8767380" lon="-0.3089390">
        <ele>2348.4</ele>
        <time>2020-09-11T16:12:31Z</time>
      </trkpt>
      <trkpt lat="42.8767410" lon="-0.3089480">
        <ele>2348.2</ele>
        <time>2020-09-11T16:12:32Z</time>
      </trkpt>
      <trkpt lat="42.8767510" lon="-0.3089610">
        <ele>2347.8</ele>
        <time>2020-09-11T16:12:34Z</time>
      </trkpt>
      <trkpt lat="42.8767790" lon="-0.3089570">
        <ele>2347.4</ele>
        <time>2020-09-11T16:12:36Z</time>
      </trkpt>
      <trkpt lat="42.8767920" lon="-0.3089780">
        <ele>2346.8</ele>
        <time>2020-09-11T16:12:38Z</time>
      </trkpt>
      <trkpt lat="42.8767960" lon="-0.3089910">
        <ele>2346.6</ele>
        <time>2020-09-11T16:12:39Z</time>
      </trkpt>
      <trkpt lat="42.8768490" lon="-0.3090270">
        <ele>2345.6</ele>
        <time>2020-09-11T16:12:43Z</time>
      </trkpt>
      <trkpt lat="42.8768550" lon="-0.3090270">
        <ele>2345.4</ele>
        <time>2020-09-11T16:12:44Z</time>
      </trkpt>
      <trkpt lat="42.8768530" lon="-0.3090030">
        <ele>2344.6</ele>
        <time>2020-09-11T16:12:46Z</time>
      </trkpt>
      <trkpt lat="42.8768510" lon="-0.3089970">
        <ele>2344.6</ele>
        <time>2020-09-11T16:12:47Z</time>
      </trkpt>
      <trkpt lat="42.8768520" lon="-0.3089820">
        <ele>2343.8</ele>
        <time>2020-09-11T16:12:50Z</time>
      </trkpt>
      <trkpt lat="42.8768490" lon="-0.3089670">
        <ele>2343.4</ele>
        <time>2020-09-11T16:12:51Z</time>
      </trkpt>
      <trkpt lat="42.8768440" lon="-0.3089340">
        <ele>2342.0</ele>
        <time>2020-09-11T16:12:54Z</time>
      </trkpt>
      <trkpt lat="42.8768380" lon="-0.3089050">
        <ele>2341.0</ele>
        <time>2020-09-11T16:12:57Z</time>
      </trkpt>
      <trkpt lat="42.8768280" lon="-0.3088650">
        <ele>2340.0</ele>
        <time>2020-09-11T16:13:02Z</time>
      </trkpt>
      <trkpt lat="42.8767670" lon="-0.3088120">
        <ele>2339.0</ele>
        <time>2020-09-11T16:13:07Z</time>
      </trkpt>
      <trkpt lat="42.8767660" lon="-0.3088050">
        <ele>2338.6</ele>
        <time>2020-09-11T16:13:09Z</time>
      </trkpt>
      <trkpt lat="42.8767790" lon="-0.3087650">
        <ele>2337.8</ele>
        <time>2020-09-11T16:13:14Z</time>
      </trkpt>
      <trkpt lat="42.8767930" lon="-0.3087510">
        <ele>2337.0</ele>
        <time>2020-09-11T16:13:16Z</time>
      </trkpt>
      <trkpt lat="42.8767990" lon="-0.3087470">
        <ele>2336.8</ele>
        <time>2020-09-11T16:13:17Z</time>
      </trkpt>
      <trkpt lat="42.8768130" lon="-0.3087280">
        <ele>2335.6</ele>
        <time>2020-09-11T16:13:20Z</time>
      </trkpt>
      <trkpt lat="42.8768360" lon="-0.3086990">
        <ele>2334.6</ele>
        <time>2020-09-11T16:13:23Z</time>
      </trkpt>
      <trkpt lat="42.8768440" lon="-0.3086930">
        <ele>2334.2</ele>
        <time>2020-09-11T16:13:24Z</time>
      </trkpt>
      <trkpt lat="42.8768530" lon="-0.3086910">
        <ele>2334.0</ele>
        <time>2020-09-11T16:13:25Z</time>
      </trkpt>
      <trkpt lat="42.8769090" lon="-0.3086970">
        <ele>2333.2</ele>
        <time>2020-09-11T16:13:28Z</time>
      </trkpt>
      <trkpt lat="42.8769430" lon="-0.3087040">
        <ele>2333.0</ele>
        <time>2020-09-11T16:13:31Z</time>
      </trkpt>
      <trkpt lat="42.8769820" lon="-0.3087180">
        <ele>2332.2</ele>
        <time>2020-09-11T16:13:35Z</time>
      </trkpt>
      <trkpt lat="42.8770060" lon="-0.3087020">
        <ele>2331.2</ele>
        <time>2020-09-11T16:13:38Z</time>
      </trkpt>
      <trkpt lat="42.8770080" lon="-0.3086880">
        <ele>2330.8</ele>
        <time>2020-09-11T16:13:39Z</time>
      </trkpt>
      <trkpt lat="42.8770040" lon="-0.3086720">
        <ele>2330.2</ele>
        <time>2020-09-11T16:13:40Z</time>
      </trkpt>
      <trkpt lat="42.8769960" lon="-0.3086600">
        <ele>2329.8</ele>
        <time>2020-09-11T16:13:41Z</time>
      </trkpt>
      <trkpt lat="42.8769920" lon="-0.3086300">
        <ele>2329.2</ele>
        <time>2020-09-11T16:13:43Z</time>
      </trkpt>
      <trkpt lat="42.8770280" lon="-0.3086250">
        <ele>2328.6</ele>
        <time>2020-09-11T16:13:46Z</time>
      </trkpt>
      <trkpt lat="42.8770430" lon="-0.3086290">
        <ele>2328.4</ele>
        <time>2020-09-11T16:13:47Z</time>
      </trkpt>
      <trkpt lat="42.8770550" lon="-0.3086360">
        <ele>2328.0</ele>
        <time>2020-09-11T16:13:48Z</time>
      </trkpt>
      <trkpt lat="42.8770710" lon="-0.3086460">
        <ele>2327.2</ele>
        <time>2020-09-11T16:13:50Z</time>
      </trkpt>
      <trkpt lat="42.8770850" lon="-0.3086670">
        <ele>2326.2</ele>
        <time>2020-09-11T16:13:53Z</time>
      </trkpt>
      <trkpt lat="42.8771030" lon="-0.3086810">
        <ele>2325.8</ele>
        <time>2020-09-11T16:13:55Z</time>
      </trkpt>
      <trkpt lat="42.8771160" lon="-0.3087330">
        <ele>2325.6</ele>
        <time>2020-09-11T16:13:58Z</time>
      </trkpt>
      <trkpt lat="42.8771240" lon="-0.3087280">
        <ele>2325.0</ele>
        <time>2020-09-11T16:14:00Z</time>
      </trkpt>
      <trkpt lat="42.8771310" lon="-0.3086660">
        <ele>2323.6</ele>
        <time>2020-09-11T16:14:04Z</time>
      </trkpt>
      <trkpt lat="42.8771450" lon="-0.3086110">
        <ele>2322.2</ele>
        <time>2020-09-11T16:14:07Z</time>
      </trkpt>
      <trkpt lat="42.8771650" lon="-0.3085500">
        <ele>2320.8</ele>
        <time>2020-09-11T16:14:11Z</time>
      </trkpt>
      <trkpt lat="42.8771750" lon="-0.3085100">
        <ele>2319.8</ele>
        <time>2020-09-11T16:14:14Z</time>
      </trkpt>
      <trkpt lat="42.8771810" lon="-0.3085030">
        <ele>2319.4</ele>
        <time>2020-09-11T16:14:15Z</time>
      </trkpt>
      <trkpt lat="42.8771970" lon="-0.3085090">
        <ele>2318.6</ele>
        <time>2020-09-11T16:14:17Z</time>
      </trkpt>
      <trkpt lat="42.8772130" lon="-0.3085150">
        <ele>2318.4</ele>
        <time>2020-09-11T16:14:18Z</time>
      </trkpt>
      <trkpt lat="42.8772310" lon="-0.3085370">
        <ele>2317.6</ele>
        <time>2020-09-11T16:14:21Z</time>
      </trkpt>
      <trkpt lat="42.8772650" lon="-0.3085730">
        <ele>2316.2</ele>
        <time>2020-09-11T16:14:25Z</time>
      </trkpt>
      <trkpt lat="42.8772890" lon="-0.3086060">
        <ele>2315.6</ele>
        <time>2020-09-11T16:14:28Z</time>
      </trkpt>
      <trkpt lat="42.8772990" lon="-0.3086140">
        <ele>2315.2</ele>
        <time>2020-09-11T16:14:29Z</time>
      </trkpt>
      <trkpt lat="42.8773270" lon="-0.3086490">
        <ele>2314.2</ele>
        <time>2020-09-11T16:14:33Z</time>
      </trkpt>
      <trkpt lat="42.8773510" lon="-0.3086810">
        <ele>2313.0</ele>
        <time>2020-09-11T16:14:36Z</time>
      </trkpt>
      <trkpt lat="42.8773550" lon="-0.3086860">
        <ele>2312.8</ele>
        <time>2020-09-11T16:14:37Z</time>
      </trkpt>
      <trkpt lat="42.8773630" lon="-0.3086710">
        <ele>2312.0</ele>
        <time>2020-09-11T16:14:43Z</time>
      </trkpt>
      <trkpt lat="42.8773840" lon="-0.3086750">
        <ele>2311.8</ele>
        <time>2020-09-11T16:14:45Z</time>
      </trkpt>
      <trkpt lat="42.8774030" lon="-0.3086720">
        <ele>2311.4</ele>
        <time>2020-09-11T16:14:47Z</time>
      </trkpt>
      <trkpt lat="42.8774140" lon="-0.3086580">
        <ele>2310.6</ele>
        <time>2020-09-11T16:14:50Z</time>
      </trkpt>
      <trkpt lat="42.8774170" lon="-0.3086530">
        <ele>2310.2</ele>
        <time>2020-09-11T16:14:51Z</time>
      </trkpt>
      <trkpt lat="42.8774660" lon="-0.3086520">
        <ele>2309.4</ele>
        <time>2020-09-11T16:14:54Z</time>
      </trkpt>
      <trkpt lat="42.8774700" lon="-0.3086410">
        <ele>2309.2</ele>
        <time>2020-09-11T16:14:55Z</time>
      </trkpt>
      <trkpt lat="42.8774630" lon="-0.3085760">
        <ele>2308.4</ele>
        <time>2020-09-11T16:14:58Z</time>
      </trkpt>
      <trkpt lat="42.8774350" lon="-0.3085320">
        <ele>2307.2</ele>
        <time>2020-09-11T16:15:03Z</time>
      </trkpt>
      <trkpt lat="42.8774340" lon="-0.3085270">
        <ele>2306.0</ele>
        <time>2020-09-11T16:15:08Z</time>
      </trkpt>
      <trkpt lat="42.8774160" lon="-0.3084850">
        <ele>2305.0</ele>
        <time>2020-09-11T16:15:12Z</time>
      </trkpt>
      <trkpt lat="42.8774190" lon="-0.3084340">
        <ele>2304.6</ele>
        <time>2020-09-11T16:15:16Z</time>
      </trkpt>
      <trkpt lat="42.8774330" lon="-0.3083370">
        <ele>2303.8</ele>
        <time>2020-09-11T16:15:24Z</time>
      </trkpt>
      <trkpt lat="42.8774300" lon="-0.3083170">
        <ele>2302.4</ele>
        <time>2020-09-11T16:15:27Z</time>
      </trkpt>
      <trkpt lat="42.8774160" lon="-0.3083050">
        <ele>2301.4</ele>
        <time>2020-09-11T16:15:30Z</time>
      </trkpt>
      <trkpt lat="42.8773870" lon="-0.3082620">
        <ele>2300.2</ele>
        <time>2020-09-11T16:15:35Z</time>
      </trkpt>
      <trkpt lat="42.8774240" lon="-0.3082630">
        <ele>2299.2</ele>
        <time>2020-09-11T16:15:41Z</time>
      </trkpt>
      <trkpt lat="42.8774820" lon="-0.3083390">
        <ele>2298.0</ele>
        <time>2020-09-11T16:15:50Z</time>
      </trkpt>
      <trkpt lat="42.8775230" lon="-0.3083500">
        <ele>2297.0</ele>
        <time>2020-09-11T16:15:59Z</time>
      </trkpt>
      <trkpt lat="42.8776350" lon="-0.3083860">
        <ele>2296.0</ele>
        <time>2020-09-11T16:16:12Z</time>
      </trkpt>
      <trkpt lat="42.8777060" lon="-0.3084580">
        <ele>2294.8</ele>
        <time>2020-09-11T16:16:23Z</time>
      </trkpt>
      <trkpt lat="42.8777480" lon="-0.3084530">
        <ele>2294.0</ele>
        <time>2020-09-11T16:16:28Z</time>
      </trkpt>
      <trkpt lat="42.8777710" lon="-0.3084440">
        <ele>2293.6</ele>
        <time>2020-09-11T16:16:30Z</time>
      </trkpt>
      <trkpt lat="42.8777860" lon="-0.3084530">
        <ele>2293.4</ele>
        <time>2020-09-11T16:16:31Z</time>
      </trkpt>
      <trkpt lat="42.8778790" lon="-0.3084960">
        <ele>2292.6</ele>
        <time>2020-09-11T16:16:37Z</time>
      </trkpt>
      <trkpt lat="42.8778930" lon="-0.3084920">
        <ele>2292.4</ele>
        <time>2020-09-11T16:16:38Z</time>
      </trkpt>
      <trkpt lat="42.8779660" lon="-0.3084720">
        <ele>2291.2</ele>
        <time>2020-09-11T16:16:43Z</time>
      </trkpt>
      <trkpt lat="42.8780120" lon="-0.3084430">
        <ele>2290.0</ele>
        <time>2020-09-11T16:16:47Z</time>
      </trkpt>
      <trkpt lat="42.8780990" lon="-0.3083670">
        <ele>2289.2</ele>
        <time>2020-09-11T16:16:56Z</time>
      </trkpt>
      <trkpt lat="42.8781130" lon="-0.3083580">
        <ele>2288.8</ele>
        <time>2020-09-11T16:16:58Z</time>
      </trkpt>
      <trkpt lat="42.8781650" lon="-0.3083420">
        <ele>2287.6</ele>
        <time>2020-09-11T16:17:02Z</time>
      </trkpt>
      <trkpt lat="42.8781780" lon="-0.3083350">
        <ele>2286.4</ele>
        <time>2020-09-11T16:17:05Z</time>
      </trkpt>
      <trkpt lat="42.8781830" lon="-0.3083360">
        <ele>2285.2</ele>
        <time>2020-09-11T16:17:08Z</time>
      </trkpt>
      <trkpt lat="42.8782730" lon="-0.3082230">
        <ele>2284.4</ele>
        <time>2020-09-11T16:17:21Z</time>
      </trkpt>
      <trkpt lat="42.8782680" lon="-0.3082000">
        <ele>2284.2</ele>
        <time>2020-09-11T16:17:22Z</time>
      </trkpt>
      <trkpt lat="42.8782740" lon="-0.3081520">
        <ele>2283.2</ele>
        <time>2020-09-11T16:17:25Z</time>
      </trkpt>
      <trkpt lat="42.8783020" lon="-0.3081000">
        <ele>2282.0</ele>
        <time>2020-09-11T16:17:29Z</time>
      </trkpt>
      <trkpt lat="42.8783070" lon="-0.3080700">
        <ele>2281.6</ele>
        <time>2020-09-11T16:17:31Z</time>
      </trkpt>
      <trkpt lat="42.8783130" lon="-0.3079930">
        <ele>2280.6</ele>
        <time>2020-09-11T16:17:35Z</time>
      </trkpt>
      <trkpt lat="42.8783110" lon="-0.3079070">
        <ele>2279.6</ele>
        <time>2020-09-11T16:17:39Z</time>
      </trkpt>
      <trkpt lat="42.8783250" lon="-0.3078920">
        <ele>2279.4</ele>
        <time>2020-09-11T16:17:40Z</time>
      </trkpt>
      <trkpt lat="42.8783730" lon="-0.3078350">
        <ele>2279.2</ele>
        <time>2020-09-11T16:17:45Z</time>
      </trkpt>
      <trkpt lat="42.8783920" lon="-0.3078110">
        <ele>2278.6</ele>
        <time>2020-09-11T16:17:48Z</time>
      </trkpt>
      <trkpt lat="42.8783900" lon="-0.3077980">
        <ele>2278.4</ele>
        <time>2020-09-11T16:17:49Z</time>
      </trkpt>
      <trkpt lat="42.8783880" lon="-0.3077850">
        <ele>2278.2</ele>
        <time>2020-09-11T16:17:50Z</time>
      </trkpt>
      <trkpt lat="42.8784050" lon="-0.3077800">
        <ele>2277.4</ele>
        <time>2020-09-11T16:17:56Z</time>
      </trkpt>
      <trkpt lat="42.8784080" lon="-0.3077550">
        <ele>2277.2</ele>
        <time>2020-09-11T16:17:59Z</time>
      </trkpt>
      <trkpt lat="42.8784000" lon="-0.3077430">
        <ele>2277.2</ele>
        <time>2020-09-11T16:18:01Z</time>
      </trkpt>
      <trkpt lat="42.8783670" lon="-0.3077160">
        <ele>2276.2</ele>
        <time>2020-09-11T16:18:11Z</time>
      </trkpt>
      <trkpt lat="42.8783490" lon="-0.3076780">
        <ele>2275.2</ele>
        <time>2020-09-11T16:18:19Z</time>
      </trkpt>
      <trkpt lat="42.8782880" lon="-0.3076160">
        <ele>2274.2</ele>
        <time>2020-09-11T16:18:26Z</time>
      </trkpt>
      <trkpt lat="42.8782760" lon="-0.3075960">
        <ele>2274.2</ele>
        <time>2020-09-11T16:18:27Z</time>
      </trkpt>
      <trkpt lat="42.8782330" lon="-0.3075630">
        <ele>2273.0</ele>
        <time>2020-09-11T16:18:31Z</time>
      </trkpt>
      <trkpt lat="42.8782320" lon="-0.3075670">
        <ele>2273.0</ele>
        <time>2020-09-11T16:18:32Z</time>
      </trkpt>
      <trkpt lat="42.8782310" lon="-0.3075570">
        <ele>2272.8</ele>
        <time>2020-09-11T16:18:34Z</time>
      </trkpt>
      <trkpt lat="42.8782180" lon="-0.3075370">
        <ele>2272.6</ele>
        <time>2020-09-11T16:18:36Z</time>
      </trkpt>
      <trkpt lat="42.8781980" lon="-0.3075170">
        <ele>2272.6</ele>
        <time>2020-09-11T16:18:38Z</time>
      </trkpt>
      <trkpt lat="42.8781650" lon="-0.3075090">
        <ele>2271.8</ele>
        <time>2020-09-11T16:18:42Z</time>
      </trkpt>
      <trkpt lat="42.8781570" lon="-0.3074550">
        <ele>2270.8</ele>
        <time>2020-09-11T16:18:47Z</time>
      </trkpt>
      <trkpt lat="42.8781610" lon="-0.3074430">
        <ele>2270.6</ele>
        <time>2020-09-11T16:18:48Z</time>
      </trkpt>
      <trkpt lat="42.8781790" lon="-0.3073910">
        <ele>2269.8</ele>
        <time>2020-09-11T16:18:51Z</time>
      </trkpt>
      <trkpt lat="42.8782000" lon="-0.3071520">
        <ele>2269.4</ele>
        <time>2020-09-11T16:19:05Z</time>
      </trkpt>
      <trkpt lat="42.8782140" lon="-0.3071270">
        <ele>2269.4</ele>
        <time>2020-09-11T16:19:07Z</time>
      </trkpt>
      <trkpt lat="42.8782630" lon="-0.3070910">
        <ele>2268.8</ele>
        <time>2020-09-11T16:19:11Z</time>
      </trkpt>
      <trkpt lat="42.8782890" lon="-0.3070720">
        <ele>2268.4</ele>
        <time>2020-09-11T16:19:13Z</time>
      </trkpt>
      <trkpt lat="42.8783160" lon="-0.3070320">
        <ele>2267.6</ele>
        <time>2020-09-11T16:19:16Z</time>
      </trkpt>
      <trkpt lat="42.8783320" lon="-0.3069080">
        <ele>2266.6</ele>
        <time>2020-09-11T16:19:23Z</time>
      </trkpt>
      <trkpt lat="42.8783680" lon="-0.3067850">
        <ele>2266.0</ele>
        <time>2020-09-11T16:19:31Z</time>
      </trkpt>
      <trkpt lat="42.8783620" lon="-0.3067160">
        <ele>2266.0</ele>
        <time>2020-09-11T16:19:35Z</time>
      </trkpt>
      <trkpt lat="42.8783480" lon="-0.3066890">
        <ele>2265.8</ele>
        <time>2020-09-11T16:19:38Z</time>
      </trkpt>
      <trkpt lat="42.8783600" lon="-0.3066520">
        <ele>2265.6</ele>
        <time>2020-09-11T16:19:41Z</time>
      </trkpt>
      <trkpt lat="42.8783640" lon="-0.3066360">
        <ele>2265.6</ele>
        <time>2020-09-11T16:19:42Z</time>
      </trkpt>
      <trkpt lat="42.8783850" lon="-0.3065800">
        <ele>2265.6</ele>
        <time>2020-09-11T16:19:46Z</time>
      </trkpt>
      <trkpt lat="42.8784340" lon="-0.3065280">
        <ele>2265.4</ele>
        <time>2020-09-11T16:19:52Z</time>
      </trkpt>
      <trkpt lat="42.8785000" lon="-0.3064480">
        <ele>2265.8</ele>
        <time>2020-09-11T16:20:00Z</time>
      </trkpt>
      <trkpt lat="42.8785510" lon="-0.3063920">
        <ele>2265.6</ele>
        <time>2020-09-11T16:20:06Z</time>
      </trkpt>
      <trkpt lat="42.8786490" lon="-0.3063850">
        <ele>2264.4</ele>
        <time>2020-09-11T16:20:13Z</time>
      </trkpt>
      <trkpt lat="42.8787510" lon="-0.3063990">
        <ele>2263.6</ele>
        <time>2020-09-11T16:20:21Z</time>
      </trkpt>
      <trkpt lat="42.8787730" lon="-0.3063950">
        <ele>2263.6</ele>
        <time>2020-09-11T16:20:23Z</time>
      </trkpt>
      <trkpt lat="42.8787970" lon="-0.3063600">
        <ele>2263.6</ele>
        <time>2020-09-11T16:20:26Z</time>
      </trkpt>
      <trkpt lat="42.8788000" lon="-0.3063340">
        <ele>2263.4</ele>
        <time>2020-09-11T16:20:28Z</time>
      </trkpt>
      <trkpt lat="42.8787300" lon="-0.3060940">
        <ele>2263.8</ele>
        <time>2020-09-11T16:20:46Z</time>
      </trkpt>
      <trkpt lat="42.8787050" lon="-0.3060480">
        <ele>2263.6</ele>
        <time>2020-09-11T16:20:50Z</time>
      </trkpt>
      <trkpt lat="42.8787010" lon="-0.3060500">
        <ele>2263.6</ele>
        <time>2020-09-11T16:20:52Z</time>
      </trkpt>
      <trkpt lat="42.8786570" lon="-0.3059920">
        <ele>2264.6</ele>
        <time>2020-09-11T16:21:07Z</time>
      </trkpt>
      <trkpt lat="42.8786280" lon="-0.3059540">
        <ele>2265.8</ele>
        <time>2020-09-11T16:21:12Z</time>
      </trkpt>
      <trkpt lat="42.8786190" lon="-0.3059320">
        <ele>2266.2</ele>
        <time>2020-09-11T16:21:14Z</time>
      </trkpt>
      <trkpt lat="42.8785730" lon="-0.3058560">
        <ele>2266.4</ele>
        <time>2020-09-11T16:21:19Z</time>
      </trkpt>
      <trkpt lat="42.8785370" lon="-0.3057710">
        <ele>2267.0</ele>
        <time>2020-09-11T16:21:25Z</time>
      </trkpt>
      <trkpt lat="42.8784870" lon="-0.3057270">
        <ele>2267.4</ele>
        <time>2020-09-11T16:21:32Z</time>
      </trkpt>
      <trkpt lat="42.8784710" lon="-0.3057320">
        <ele>2267.6</ele>
        <time>2020-09-11T16:21:34Z</time>
      </trkpt>
      <trkpt lat="42.8784430" lon="-0.3057110">
        <ele>2268.0</ele>
        <time>2020-09-11T16:21:37Z</time>
      </trkpt>
      <trkpt lat="42.8784320" lon="-0.3057050">
        <ele>2268.0</ele>
        <time>2020-09-11T16:21:38Z</time>
      </trkpt>
      <trkpt lat="42.8783790" lon="-0.3057220">
        <ele>2268.4</ele>
        <time>2020-09-11T16:21:43Z</time>
      </trkpt>
      <trkpt lat="42.8783550" lon="-0.3056940">
        <ele>2268.6</ele>
        <time>2020-09-11T16:21:46Z</time>
      </trkpt>
      <trkpt lat="42.8783600" lon="-0.3056480">
        <ele>2268.8</ele>
        <time>2020-09-11T16:21:50Z</time>
      </trkpt>
      <trkpt lat="42.8783380" lon="-0.3056080">
        <ele>2269.2</ele>
        <time>2020-09-11T16:21:54Z</time>
      </trkpt>
      <trkpt lat="42.8783210" lon="-0.3055880">
        <ele>2269.2</ele>
        <time>2020-09-11T16:21:56Z</time>
      </trkpt>
      <trkpt lat="42.8782920" lon="-0.3055420">
        <ele>2269.0</ele>
        <time>2020-09-11T16:22:00Z</time>
      </trkpt>
      <trkpt lat="42.8782900" lon="-0.3054950">
        <ele>2268.8</ele>
        <time>2020-09-11T16:22:03Z</time>
      </trkpt>
      <trkpt lat="42.8782510" lon="-0.3054650">
        <ele>2268.8</ele>
        <time>2020-09-11T16:22:07Z</time>
      </trkpt>
      <trkpt lat="42.8781260" lon="-0.3053310">
        <ele>2270.2</ele>
        <time>2020-09-11T16:22:20Z</time>
      </trkpt>
      <trkpt lat="42.8780430" lon="-0.3052860">
        <ele>2271.0</ele>
        <time>2020-09-11T16:22:27Z</time>
      </trkpt>
      <trkpt lat="42.8780110" lon="-0.3052890">
        <ele>2271.4</ele>
        <time>2020-09-11T16:22:30Z</time>
      </trkpt>
      <trkpt lat="42.8780010" lon="-0.3052860">
        <ele>2271.4</ele>
        <time>2020-09-11T16:22:31Z</time>
      </trkpt>
      <trkpt lat="42.8779900" lon="-0.3052830">
        <ele>2271.6</ele>
        <time>2020-09-11T16:22:33Z</time>
      </trkpt>
      <trkpt lat="42.8779940" lon="-0.3052600">
        <ele>2272.4</ele>
        <time>2020-09-11T16:22:38Z</time>
      </trkpt>
      <trkpt lat="42.8780440" lon="-0.3052380">
        <ele>2273.4</ele>
        <time>2020-09-11T16:22:48Z</time>
      </trkpt>
      <trkpt lat="42.8779550" lon="-0.3051940">
        <ele>2274.4</ele>
        <time>2020-09-11T16:23:02Z</time>
      </trkpt>
      <trkpt lat="42.8779510" lon="-0.3051420">
        <ele>2275.0</ele>
        <time>2020-09-11T16:23:06Z</time>
      </trkpt>
      <trkpt lat="42.8779510" lon="-0.3051180">
        <ele>2275.6</ele>
        <time>2020-09-11T16:23:08Z</time>
      </trkpt>
      <trkpt lat="42.8779570" lon="-0.3050830">
        <ele>2276.0</ele>
        <time>2020-09-11T16:23:11Z</time>
      </trkpt>
      <trkpt lat="42.8779650" lon="-0.3050590">
        <ele>2276.4</ele>
        <time>2020-09-11T16:23:13Z</time>
      </trkpt>
      <trkpt lat="42.8779670" lon="-0.3050470">
        <ele>2276.6</ele>
        <time>2020-09-11T16:23:14Z</time>
      </trkpt>
      <trkpt lat="42.8779640" lon="-0.3050230">
        <ele>2276.8</ele>
        <time>2020-09-11T16:23:16Z</time>
      </trkpt>
      <trkpt lat="42.8779610" lon="-0.3049760">
        <ele>2277.4</ele>
        <time>2020-09-11T16:23:19Z</time>
      </trkpt>
      <trkpt lat="42.8779560" lon="-0.3049660">
        <ele>2277.6</ele>
        <time>2020-09-11T16:23:20Z</time>
      </trkpt>
      <trkpt lat="42.8779060" lon="-0.3048970">
        <ele>2278.4</ele>
        <time>2020-09-11T16:23:26Z</time>
      </trkpt>
      <trkpt lat="42.8779090" lon="-0.3048740">
        <ele>2278.8</ele>
        <time>2020-09-11T16:23:29Z</time>
      </trkpt>
      <trkpt lat="42.8779250" lon="-0.3048320">
        <ele>2279.4</ele>
        <time>2020-09-11T16:23:34Z</time>
      </trkpt>
      <trkpt lat="42.8779210" lon="-0.3047820">
        <ele>2279.8</ele>
        <time>2020-09-11T16:23:38Z</time>
      </trkpt>
      <trkpt lat="42.8779220" lon="-0.3047580">
        <ele>2280.0</ele>
        <time>2020-09-11T16:23:40Z</time>
      </trkpt>
      <trkpt lat="42.8779250" lon="-0.3047320">
        <ele>2280.4</ele>
        <time>2020-09-11T16:23:42Z</time>
      </trkpt>
      <trkpt lat="42.8779200" lon="-0.3047050">
        <ele>2281.0</ele>
        <time>2020-09-11T16:23:44Z</time>
      </trkpt>
      <trkpt lat="42.8779140" lon="-0.3046370">
        <ele>2282.0</ele>
        <time>2020-09-11T16:23:49Z</time>
      </trkpt>
      <trkpt lat="42.8779690" lon="-0.3043910">
        <ele>2282.4</ele>
        <time>2020-09-11T16:24:06Z</time>
      </trkpt>
      <trkpt lat="42.8779800" lon="-0.3043040">
        <ele>2282.0</ele>
        <time>2020-09-11T16:24:13Z</time>
      </trkpt>
      <trkpt lat="42.8779930" lon="-0.3043060">
        <ele>2281.8</ele>
        <time>2020-09-11T16:24:16Z</time>
      </trkpt>
      <trkpt lat="42.8780730" lon="-0.3041030">
        <ele>2282.0</ele>
        <time>2020-09-11T16:24:48Z</time>
      </trkpt>
      <trkpt lat="42.8780850" lon="-0.3040720">
        <ele>2282.4</ele>
        <time>2020-09-11T16:24:50Z</time>
      </trkpt>
      <trkpt lat="42.8781020" lon="-0.3040460">
        <ele>2282.8</ele>
        <time>2020-09-11T16:24:52Z</time>
      </trkpt>
      <trkpt lat="42.8781260" lon="-0.3040080">
        <ele>2283.0</ele>
        <time>2020-09-11T16:24:55Z</time>
      </trkpt>
      <trkpt lat="42.8781840" lon="-0.3038920">
        <ele>2282.6</ele>
        <time>2020-09-11T16:25:03Z</time>
      </trkpt>
      <trkpt lat="42.8782000" lon="-0.3037910">
        <ele>2283.0</ele>
        <time>2020-09-11T16:25:10Z</time>
      </trkpt>
      <trkpt lat="42.8782140" lon="-0.3037470">
        <ele>2283.4</ele>
        <time>2020-09-11T16:25:14Z</time>
      </trkpt>
      <trkpt lat="42.8782160" lon="-0.3037140">
        <ele>2283.8</ele>
        <time>2020-09-11T16:25:17Z</time>
      </trkpt>
      <trkpt lat="42.8782240" lon="-0.3036910">
        <ele>2284.0</ele>
        <time>2020-09-11T16:25:19Z</time>
      </trkpt>
      <trkpt lat="42.8782270" lon="-0.3036780">
        <ele>2284.2</ele>
        <time>2020-09-11T16:25:20Z</time>
      </trkpt>
      <trkpt lat="42.8782480" lon="-0.3036490">
        <ele>2284.8</ele>
        <time>2020-09-11T16:25:23Z</time>
      </trkpt>
      <trkpt lat="42.8782800" lon="-0.3036510">
        <ele>2285.0</ele>
        <time>2020-09-11T16:25:25Z</time>
      </trkpt>
      <trkpt lat="42.8783190" lon="-0.3036560">
        <ele>2285.2</ele>
        <time>2020-09-11T16:25:28Z</time>
      </trkpt>
      <trkpt lat="42.8783260" lon="-0.3036460">
        <ele>2285.2</ele>
        <time>2020-09-11T16:25:29Z</time>
      </trkpt>
      <trkpt lat="42.8783340" lon="-0.3036290">
        <ele>2285.2</ele>
        <time>2020-09-11T16:25:30Z</time>
      </trkpt>
      <trkpt lat="42.8783860" lon="-0.3035490">
        <ele>2286.0</ele>
        <time>2020-09-11T16:25:37Z</time>
      </trkpt>
      <trkpt lat="42.8783850" lon="-0.3035320">
        <ele>2286.2</ele>
        <time>2020-09-11T16:25:38Z</time>
      </trkpt>
      <trkpt lat="42.8783480" lon="-0.3033280">
        <ele>2287.0</ele>
        <time>2020-09-11T16:25:51Z</time>
      </trkpt>
      <trkpt lat="42.8783450" lon="-0.3032810">
        <ele>2287.4</ele>
        <time>2020-09-11T16:25:55Z</time>
      </trkpt>
      <trkpt lat="42.8783420" lon="-0.3032630">
        <ele>2287.4</ele>
        <time>2020-09-11T16:25:56Z</time>
      </trkpt>
      <trkpt lat="42.8783430" lon="-0.3032260">
        <ele>2287.8</ele>
        <time>2020-09-11T16:25:59Z</time>
      </trkpt>
      <trkpt lat="42.8783440" lon="-0.3032110">
        <ele>2288.2</ele>
        <time>2020-09-11T16:26:01Z</time>
      </trkpt>
      <trkpt lat="42.8783400" lon="-0.3031890">
        <ele>2288.4</ele>
        <time>2020-09-11T16:26:03Z</time>
      </trkpt>
      <trkpt lat="42.8783400" lon="-0.3031640">
        <ele>2288.8</ele>
        <time>2020-09-11T16:26:05Z</time>
      </trkpt>
      <trkpt lat="42.8783340" lon="-0.3031590">
        <ele>2289.0</ele>
        <time>2020-09-11T16:26:06Z</time>
      </trkpt>
      <trkpt lat="42.8783310" lon="-0.3031560">
        <ele>2289.6</ele>
        <time>2020-09-11T16:26:08Z</time>
      </trkpt>
      <trkpt lat="42.8783530" lon="-0.3029570">
        <ele>2290.6</ele>
        <time>2020-09-11T16:26:34Z</time>
      </trkpt>
      <trkpt lat="42.8783660" lon="-0.3029530">
        <ele>2290.8</ele>
        <time>2020-09-11T16:26:36Z</time>
      </trkpt>
      <trkpt lat="42.8783740" lon="-0.3029510">
        <ele>2291.0</ele>
        <time>2020-09-11T16:26:38Z</time>
      </trkpt>
      <trkpt lat="42.8784000" lon="-0.3029210">
        <ele>2291.8</ele>
        <time>2020-09-11T16:26:42Z</time>
      </trkpt>
      <trkpt lat="42.8784300" lon="-0.3029060">
        <ele>2292.6</ele>
        <time>2020-09-11T16:26:46Z</time>
      </trkpt>
      <trkpt lat="42.8784350" lon="-0.3029050">
        <ele>2292.8</ele>
        <time>2020-09-11T16:26:47Z</time>
      </trkpt>
      <trkpt lat="42.8784440" lon="-0.3029020">
        <ele>2293.0</ele>
        <time>2020-09-11T16:26:48Z</time>
      </trkpt>
      <trkpt lat="42.8784590" lon="-0.3028980">
        <ele>2293.4</ele>
        <time>2020-09-11T16:26:50Z</time>
      </trkpt>
      <trkpt lat="42.8784640" lon="-0.3028790">
        <ele>2293.8</ele>
        <time>2020-09-11T16:26:52Z</time>
      </trkpt>
      <trkpt lat="42.8784600" lon="-0.3028760">
        <ele>2294.0</ele>
        <time>2020-09-11T16:26:53Z</time>
      </trkpt>
      <trkpt lat="42.8784420" lon="-0.3028450">
        <ele>2295.2</ele>
        <time>2020-09-11T16:26:57Z</time>
      </trkpt>
      <trkpt lat="42.8784150" lon="-0.3028200">
        <ele>2296.2</ele>
        <time>2020-09-11T16:27:01Z</time>
      </trkpt>
      <trkpt lat="42.8784070" lon="-0.3028210">
        <ele>2296.4</ele>
        <time>2020-09-11T16:27:02Z</time>
      </trkpt>
      <trkpt lat="42.8783950" lon="-0.3028330">
        <ele>2296.6</ele>
        <time>2020-09-11T16:27:04Z</time>
      </trkpt>
      <trkpt lat="42.8783780" lon="-0.3028340">
        <ele>2297.4</ele>
        <time>2020-09-11T16:27:08Z</time>
      </trkpt>
      <trkpt lat="42.8783860" lon="-0.3027910">
        <ele>2297.8</ele>
        <time>2020-09-11T16:27:11Z</time>
      </trkpt>
      <trkpt lat="42.8783840" lon="-0.3027770">
        <ele>2298.2</ele>
        <time>2020-09-11T16:27:13Z</time>
      </trkpt>
      <trkpt lat="42.8783850" lon="-0.3027690">
        <ele>2298.6</ele>
        <time>2020-09-11T16:27:14Z</time>
      </trkpt>
      <trkpt lat="42.8784220" lon="-0.3027110">
        <ele>2299.6</ele>
        <time>2020-09-11T16:27:20Z</time>
      </trkpt>
      <trkpt lat="42.8784300" lon="-0.3026620">
        <ele>2300.6</ele>
        <time>2020-09-11T16:27:26Z</time>
      </trkpt>
      <trkpt lat="42.8784340" lon="-0.3026370">
        <ele>2301.0</ele>
        <time>2020-09-11T16:27:29Z</time>
      </trkpt>
      <trkpt lat="42.8784440" lon="-0.3026320">
        <ele>2301.2</ele>
        <time>2020-09-11T16:27:31Z</time>
      </trkpt>
      <trkpt lat="42.8784500" lon="-0.3026270">
        <ele>2301.8</ele>
        <time>2020-09-11T16:27:33Z</time>
      </trkpt>
      <trkpt lat="42.8784550" lon="-0.3025960">
        <ele>2303.0</ele>
        <time>2020-09-11T16:27:37Z</time>
      </trkpt>
      <trkpt lat="42.8784670" lon="-0.3025680">
        <ele>2303.6</ele>
        <time>2020-09-11T16:27:40Z</time>
      </trkpt>
      <trkpt lat="42.8784650" lon="-0.3025530">
        <ele>2304.0</ele>
        <time>2020-09-11T16:27:42Z</time>
      </trkpt>
      <trkpt lat="42.8784800" lon="-0.3025200">
        <ele>2305.0</ele>
        <time>2020-09-11T16:27:47Z</time>
      </trkpt>
      <trkpt lat="42.8784750" lon="-0.3024530">
        <ele>2306.2</ele>
        <time>2020-09-11T16:27:55Z</time>
      </trkpt>
      <trkpt lat="42.8784440" lon="-0.3023900">
        <ele>2307.4</ele>
        <time>2020-09-11T16:28:01Z</time>
      </trkpt>
      <trkpt lat="42.8783920" lon="-0.3023060">
        <ele>2308.6</ele>
        <time>2020-09-11T16:28:10Z</time>
      </trkpt>
      <trkpt lat="42.8783890" lon="-0.3022010">
        <ele>2309.6</ele>
        <time>2020-09-11T16:28:23Z</time>
      </trkpt>
      <trkpt lat="42.8784240" lon="-0.3021570">
        <ele>2310.8</ele>
        <time>2020-09-11T16:28:31Z</time>
      </trkpt>
      <trkpt lat="42.8784910" lon="-0.3021230">
        <ele>2311.8</ele>
        <time>2020-09-11T16:28:44Z</time>
      </trkpt>
      <trkpt lat="42.8785430" lon="-0.3021250">
        <ele>2313.0</ele>
        <time>2020-09-11T16:29:01Z</time>
      </trkpt>
      <trkpt lat="42.8785970" lon="-0.3021170">
        <ele>2314.0</ele>
        <time>2020-09-11T16:29:12Z</time>
      </trkpt>
      <trkpt lat="42.8787270" lon="-0.3020100">
        <ele>2313.8</ele>
        <time>2020-09-11T16:29:30Z</time>
      </trkpt>
      <trkpt lat="42.8787970" lon="-0.3019810">
        <ele>2314.6</ele>
        <time>2020-09-11T16:29:37Z</time>
      </trkpt>
      <trkpt lat="42.8788170" lon="-0.3019750">
        <ele>2315.0</ele>
        <time>2020-09-11T16:29:39Z</time>
      </trkpt>
      <trkpt lat="42.8789060" lon="-0.3019420">
        <ele>2316.0</ele>
        <time>2020-09-11T16:29:50Z</time>
      </trkpt>
      <trkpt lat="42.8789140" lon="-0.3019410">
        <ele>2316.2</ele>
        <time>2020-09-11T16:29:51Z</time>
      </trkpt>
      <trkpt lat="42.8789320" lon="-0.3019420">
        <ele>2316.2</ele>
        <time>2020-09-11T16:29:54Z</time>
      </trkpt>
      <trkpt lat="42.8789460" lon="-0.3019400">
        <ele>2316.6</ele>
        <time>2020-09-11T16:29:56Z</time>
      </trkpt>
      <trkpt lat="42.8789550" lon="-0.3019180">
        <ele>2316.8</ele>
        <time>2020-09-11T16:29:58Z</time>
      </trkpt>
      <trkpt lat="42.8789620" lon="-0.3019060">
        <ele>2317.2</ele>
        <time>2020-09-11T16:30:00Z</time>
      </trkpt>
      <trkpt lat="42.8790270" lon="-0.3018510">
        <ele>2318.2</ele>
        <time>2020-09-11T16:30:08Z</time>
      </trkpt>
      <trkpt lat="42.8790450" lon="-0.3018450">
        <ele>2318.0</ele>
        <time>2020-09-11T16:30:09Z</time>
      </trkpt>
      <trkpt lat="42.8790710" lon="-0.3018330">
        <ele>2318.4</ele>
        <time>2020-09-11T16:30:13Z</time>
      </trkpt>
      <trkpt lat="42.8790850" lon="-0.3018330">
        <ele>2318.6</ele>
        <time>2020-09-11T16:30:15Z</time>
      </trkpt>
      <trkpt lat="42.8791040" lon="-0.3018160">
        <ele>2318.6</ele>
        <time>2020-09-11T16:30:18Z</time>
      </trkpt>
      <trkpt lat="42.8791610" lon="-0.3017530">
        <ele>2318.4</ele>
        <time>2020-09-11T16:31:04Z</time>
      </trkpt>
      <trkpt lat="42.8792900" lon="-0.3017520">
        <ele>2318.4</ele>
        <time>2020-09-11T16:31:13Z</time>
      </trkpt>
      <trkpt lat="42.8793140" lon="-0.3017730">
        <ele>2318.2</ele>
        <time>2020-09-11T16:31:16Z</time>
      </trkpt>
      <trkpt lat="42.8794100" lon="-0.3017400">
        <ele>2317.0</ele>
        <time>2020-09-11T16:31:23Z</time>
      </trkpt>
      <trkpt lat="42.8794250" lon="-0.3017250">
        <ele>2316.6</ele>
        <time>2020-09-11T16:31:25Z</time>
      </trkpt>
      <trkpt lat="42.8794450" lon="-0.3017300">
        <ele>2316.6</ele>
        <time>2020-09-11T16:31:28Z</time>
      </trkpt>
      <trkpt lat="42.8794890" lon="-0.3017480">
        <ele>2318.0</ele>
        <time>2020-09-11T16:31:36Z</time>
      </trkpt>
      <trkpt lat="42.8795090" lon="-0.3017490">
        <ele>2318.0</ele>
        <time>2020-09-11T16:31:38Z</time>
      </trkpt>
      <trkpt lat="42.8795230" lon="-0.3017510">
        <ele>2317.8</ele>
        <time>2020-09-11T16:31:40Z</time>
      </trkpt>
      <trkpt lat="42.8795470" lon="-0.3017530">
        <ele>2316.4</ele>
        <time>2020-09-11T16:31:44Z</time>
      </trkpt>
      <trkpt lat="42.8795790" lon="-0.3017370">
        <ele>2315.2</ele>
        <time>2020-09-11T16:31:48Z</time>
      </trkpt>
      <trkpt lat="42.8795990" lon="-0.3017290">
        <ele>2314.6</ele>
        <time>2020-09-11T16:31:50Z</time>
      </trkpt>
      <trkpt lat="42.8796290" lon="-0.3017160">
        <ele>2313.8</ele>
        <time>2020-09-11T16:31:52Z</time>
      </trkpt>
      <trkpt lat="42.8797100" lon="-0.3016720">
        <ele>2312.8</ele>
        <time>2020-09-11T16:31:59Z</time>
      </trkpt>
      <trkpt lat="42.8797700" lon="-0.3016400">
        <ele>2311.8</ele>
        <time>2020-09-11T16:32:04Z</time>
      </trkpt>
      <trkpt lat="42.8798080" lon="-0.3016190">
        <ele>2311.6</ele>
        <time>2020-09-11T16:32:07Z</time>
      </trkpt>
      <trkpt lat="42.8798570" lon="-0.3016080">
        <ele>2310.6</ele>
        <time>2020-09-11T16:32:12Z</time>
      </trkpt>
      <trkpt lat="42.8799220" lon="-0.3015510">
        <ele>2309.6</ele>
        <time>2020-09-11T16:32:19Z</time>
      </trkpt>
      <trkpt lat="42.8800420" lon="-0.3014140">
        <ele>2309.0</ele>
        <time>2020-09-11T16:32:35Z</time>
      </trkpt>
      <trkpt lat="42.8800550" lon="-0.3013530">
        <ele>2308.6</ele>
        <time>2020-09-11T16:32:39Z</time>
      </trkpt>
      <trkpt lat="42.8801320" lon="-0.3013080">
        <ele>2307.4</ele>
        <time>2020-09-11T16:32:46Z</time>
      </trkpt>
      <trkpt lat="42.8802010" lon="-0.3012650">
        <ele>2307.0</ele>
        <time>2020-09-11T16:32:53Z</time>
      </trkpt>
      <trkpt lat="42.8802730" lon="-0.3012280">
        <ele>2307.0</ele>
        <time>2020-09-11T16:33:00Z</time>
      </trkpt>
      <trkpt lat="42.8802870" lon="-0.3011850">
        <ele>2307.2</ele>
        <time>2020-09-11T16:33:04Z</time>
      </trkpt>
      <trkpt lat="42.8802980" lon="-0.3011710">
        <ele>2307.6</ele>
        <time>2020-09-11T16:33:06Z</time>
      </trkpt>
      <trkpt lat="42.8803060" lon="-0.3011520">
        <ele>2307.8</ele>
        <time>2020-09-11T16:33:08Z</time>
      </trkpt>
      <trkpt lat="42.8803100" lon="-0.3011320">
        <ele>2307.8</ele>
        <time>2020-09-11T16:33:10Z</time>
      </trkpt>
      <trkpt lat="42.8803660" lon="-0.3010720">
        <ele>2308.2</ele>
        <time>2020-09-11T16:33:17Z</time>
      </trkpt>
      <trkpt lat="42.8803960" lon="-0.3010030">
        <ele>2307.6</ele>
        <time>2020-09-11T16:33:24Z</time>
      </trkpt>
      <trkpt lat="42.8804110" lon="-0.3009760">
        <ele>2307.6</ele>
        <time>2020-09-11T16:33:26Z</time>
      </trkpt>
      <trkpt lat="42.8804510" lon="-0.3009390">
        <ele>2308.6</ele>
        <time>2020-09-11T16:33:32Z</time>
      </trkpt>
      <trkpt lat="42.8804680" lon="-0.3009280">
        <ele>2309.2</ele>
        <time>2020-09-11T16:33:34Z</time>
      </trkpt>
      <trkpt lat="42.8804860" lon="-0.3009020">
        <ele>2309.8</ele>
        <time>2020-09-11T16:33:36Z</time>
      </trkpt>
      <trkpt lat="42.8805300" lon="-0.3008760">
        <ele>2310.6</ele>
        <time>2020-09-11T16:33:39Z</time>
      </trkpt>
      <trkpt lat="42.8805700" lon="-0.3008830">
        <ele>2310.8</ele>
        <time>2020-09-11T16:33:42Z</time>
      </trkpt>
      <trkpt lat="42.8806240" lon="-0.3008950">
        <ele>2311.6</ele>
        <time>2020-09-11T16:33:47Z</time>
      </trkpt>
      <trkpt lat="42.8806330" lon="-0.3008910">
        <ele>2311.8</ele>
        <time>2020-09-11T16:33:48Z</time>
      </trkpt>
      <trkpt lat="42.8806850" lon="-0.3008430">
        <ele>2312.8</ele>
        <time>2020-09-11T16:33:54Z</time>
      </trkpt>
      <trkpt lat="42.8806970" lon="-0.3008280">
        <ele>2313.0</ele>
        <time>2020-09-11T16:33:56Z</time>
      </trkpt>
      <trkpt lat="42.8807300" lon="-0.3007740">
        <ele>2313.4</ele>
        <time>2020-09-11T16:34:02Z</time>
      </trkpt>
      <trkpt lat="42.8807510" lon="-0.3007670">
        <ele>2313.0</ele>
        <time>2020-09-11T16:34:04Z</time>
      </trkpt>
      <trkpt lat="42.8807660" lon="-0.3007700">
        <ele>2312.6</ele>
        <time>2020-09-11T16:34:06Z</time>
      </trkpt>
      <trkpt lat="42.8808070" lon="-0.3007930">
        <ele>2312.0</ele>
        <time>2020-09-11T16:34:09Z</time>
      </trkpt>
      <trkpt lat="42.8808220" lon="-0.3008040">
        <ele>2311.8</ele>
        <time>2020-09-11T16:34:10Z</time>
      </trkpt>
      <trkpt lat="42.8808490" lon="-0.3008230">
        <ele>2310.8</ele>
        <time>2020-09-11T16:34:13Z</time>
      </trkpt>
      <trkpt lat="42.8808780" lon="-0.3007670">
        <ele>2309.8</ele>
        <time>2020-09-11T16:34:17Z</time>
      </trkpt>
      <trkpt lat="42.8808910" lon="-0.3007410">
        <ele>2309.4</ele>
        <time>2020-09-11T16:34:20Z</time>
      </trkpt>
      <trkpt lat="42.8809040" lon="-0.3007360">
        <ele>2309.0</ele>
        <time>2020-09-11T16:34:23Z</time>
      </trkpt>
      <trkpt lat="42.8809080" lon="-0.3007450">
        <ele>2308.6</ele>
        <time>2020-09-11T16:34:24Z</time>
      </trkpt>
      <trkpt lat="42.8809170" lon="-0.3007440">
        <ele>2308.4</ele>
        <time>2020-09-11T16:34:25Z</time>
      </trkpt>
      <trkpt lat="42.8809420" lon="-0.3007270">
        <ele>2307.4</ele>
        <time>2020-09-11T16:34:28Z</time>
      </trkpt>
      <trkpt lat="42.8809830" lon="-0.3006880">
        <ele>2306.2</ele>
        <time>2020-09-11T16:34:32Z</time>
      </trkpt>
      <trkpt lat="42.8810030" lon="-0.3007010">
        <ele>2306.0</ele>
        <time>2020-09-11T16:34:34Z</time>
      </trkpt>
      <trkpt lat="42.8810210" lon="-0.3007240">
        <ele>2305.6</ele>
        <time>2020-09-11T16:34:36Z</time>
      </trkpt>
      <trkpt lat="42.8810340" lon="-0.3007150">
        <ele>2305.2</ele>
        <time>2020-09-11T16:34:38Z</time>
      </trkpt>
      <trkpt lat="42.8810960" lon="-0.3006880">
        <ele>2304.0</ele>
        <time>2020-09-11T16:34:44Z</time>
      </trkpt>
      <trkpt lat="42.8811590" lon="-0.3007040">
        <ele>2303.0</ele>
        <time>2020-09-11T16:34:49Z</time>
      </trkpt>
      <trkpt lat="42.8812170" lon="-0.3006910">
        <ele>2302.0</ele>
        <time>2020-09-11T16:34:54Z</time>
      </trkpt>
      <trkpt lat="42.8812250" lon="-0.3006870">
        <ele>2301.8</ele>
        <time>2020-09-11T16:34:55Z</time>
      </trkpt>
      <trkpt lat="42.8812530" lon="-0.3006660">
        <ele>2301.2</ele>
        <time>2020-09-11T16:34:59Z</time>
      </trkpt>
      <trkpt lat="42.8813350" lon="-0.3006960">
        <ele>2302.0</ele>
        <time>2020-09-11T16:35:08Z</time>
      </trkpt>
      <trkpt lat="42.8813690" lon="-0.3006780">
        <ele>2302.4</ele>
        <time>2020-09-11T16:35:10Z</time>
      </trkpt>
      <trkpt lat="42.8813990" lon="-0.3006230">
        <ele>2302.2</ele>
        <time>2020-09-11T16:35:14Z</time>
      </trkpt>
      <trkpt lat="42.8814600" lon="-0.3005720">
        <ele>2301.2</ele>
        <time>2020-09-11T16:35:20Z</time>
      </trkpt>
      <trkpt lat="42.8814760" lon="-0.3005730">
        <ele>2300.8</ele>
        <time>2020-09-11T16:35:21Z</time>
      </trkpt>
      <trkpt lat="42.8815900" lon="-0.3005280">
        <ele>2300.4</ele>
        <time>2020-09-11T16:35:29Z</time>
      </trkpt>
      <trkpt lat="42.8816200" lon="-0.3005170">
        <ele>2300.4</ele>
        <time>2020-09-11T16:35:33Z</time>
      </trkpt>
      <trkpt lat="42.8816210" lon="-0.3005070">
        <ele>2300.6</ele>
        <time>2020-09-11T16:35:35Z</time>
      </trkpt>
      <trkpt lat="42.8816540" lon="-0.3004090">
        <ele>2301.0</ele>
        <time>2020-09-11T16:36:55Z</time>
      </trkpt>
      <trkpt lat="42.8816780" lon="-0.3003720">
        <ele>2301.8</ele>
        <time>2020-09-11T16:37:00Z</time>
      </trkpt>
      <trkpt lat="42.8816940" lon="-0.3003570">
        <ele>2302.4</ele>
        <time>2020-09-11T16:37:02Z</time>
      </trkpt>
      <trkpt lat="42.8817200" lon="-0.3003180">
        <ele>2302.8</ele>
        <time>2020-09-11T16:37:06Z</time>
      </trkpt>
      <trkpt lat="42.8817790" lon="-0.3002850">
        <ele>2304.0</ele>
        <time>2020-09-11T16:37:12Z</time>
      </trkpt>
      <trkpt lat="42.8818700" lon="-0.3002490">
        <ele>2304.4</ele>
        <time>2020-09-11T16:37:19Z</time>
      </trkpt>
      <trkpt lat="42.8818930" lon="-0.3002430">
        <ele>2304.8</ele>
        <time>2020-09-11T16:37:22Z</time>
      </trkpt>
      <trkpt lat="42.8819000" lon="-0.3002370">
        <ele>2305.0</ele>
        <time>2020-09-11T16:37:23Z</time>
      </trkpt>
      <trkpt lat="42.8819360" lon="-0.3002170">
        <ele>2305.0</ele>
        <time>2020-09-11T16:37:26Z</time>
      </trkpt>
      <trkpt lat="42.8820010" lon="-0.3002030">
        <ele>2305.0</ele>
        <time>2020-09-11T16:37:31Z</time>
      </trkpt>
      <trkpt lat="42.8820880" lon="-0.3001570">
        <ele>2304.6</ele>
        <time>2020-09-11T16:37:38Z</time>
      </trkpt>
      <trkpt lat="42.8821270" lon="-0.3001470">
        <ele>2303.8</ele>
        <time>2020-09-11T16:37:42Z</time>
      </trkpt>
      <trkpt lat="42.8821750" lon="-0.3001590">
        <ele>2302.6</ele>
        <time>2020-09-11T16:37:46Z</time>
      </trkpt>
      <trkpt lat="42.8822240" lon="-0.3001830">
        <ele>2301.4</ele>
        <time>2020-09-11T16:37:51Z</time>
      </trkpt>
      <trkpt lat="42.8822310" lon="-0.3001820">
        <ele>2301.2</ele>
        <time>2020-09-11T16:37:52Z</time>
      </trkpt>
      <trkpt lat="42.8822590" lon="-0.3001850">
        <ele>2300.4</ele>
        <time>2020-09-11T16:37:55Z</time>
      </trkpt>
      <trkpt lat="42.8822630" lon="-0.3001870">
        <ele>2300.2</ele>
        <time>2020-09-11T16:37:56Z</time>
      </trkpt>
      <trkpt lat="42.8822680" lon="-0.3001920">
        <ele>2299.8</ele>
        <time>2020-09-11T16:37:57Z</time>
      </trkpt>
      <trkpt lat="42.8822810" lon="-0.3002150">
        <ele>2299.0</ele>
        <time>2020-09-11T16:38:01Z</time>
      </trkpt>
      <trkpt lat="42.8822840" lon="-0.3002250">
        <ele>2298.8</ele>
        <time>2020-09-11T16:38:02Z</time>
      </trkpt>
      <trkpt lat="42.8822960" lon="-0.3002560">
        <ele>2297.8</ele>
        <time>2020-09-11T16:38:05Z</time>
      </trkpt>
      <trkpt lat="42.8823040" lon="-0.3002570">
        <ele>2297.4</ele>
        <time>2020-09-11T16:38:06Z</time>
      </trkpt>
      <trkpt lat="42.8823150" lon="-0.3002580">
        <ele>2296.6</ele>
        <time>2020-09-11T16:38:08Z</time>
      </trkpt>
      <trkpt lat="42.8823320" lon="-0.3002630">
        <ele>2296.0</ele>
        <time>2020-09-11T16:38:10Z</time>
      </trkpt>
      <trkpt lat="42.8823390" lon="-0.3002600">
        <ele>2295.4</ele>
        <time>2020-09-11T16:38:11Z</time>
      </trkpt>
      <trkpt lat="42.8823420" lon="-0.3002540">
        <ele>2295.0</ele>
        <time>2020-09-11T16:38:12Z</time>
      </trkpt>
      <trkpt lat="42.8823590" lon="-0.3002440">
        <ele>2294.2</ele>
        <time>2020-09-11T16:38:15Z</time>
      </trkpt>
      <trkpt lat="42.8823840" lon="-0.3002280">
        <ele>2293.2</ele>
        <time>2020-09-11T16:38:18Z</time>
      </trkpt>
      <trkpt lat="42.8824100" lon="-0.3002070">
        <ele>2292.4</ele>
        <time>2020-09-11T16:38:21Z</time>
      </trkpt>
      <trkpt lat="42.8824170" lon="-0.3002030">
        <ele>2292.0</ele>
        <time>2020-09-11T16:38:22Z</time>
      </trkpt>
      <trkpt lat="42.8824350" lon="-0.3002160">
        <ele>2291.2</ele>
        <time>2020-09-11T16:38:26Z</time>
      </trkpt>
      <trkpt lat="42.8824300" lon="-0.3002360">
        <ele>2290.8</ele>
        <time>2020-09-11T16:38:27Z</time>
      </trkpt>
      <trkpt lat="42.8824290" lon="-0.3002470">
        <ele>2290.6</ele>
        <time>2020-09-11T16:38:28Z</time>
      </trkpt>
      <trkpt lat="42.8824420" lon="-0.3002720">
        <ele>2289.6</ele>
        <time>2020-09-11T16:38:31Z</time>
      </trkpt>
      <trkpt lat="42.8824480" lon="-0.3002680">
        <ele>2289.2</ele>
        <time>2020-09-11T16:38:32Z</time>
      </trkpt>
      <trkpt lat="42.8824580" lon="-0.3002670">
        <ele>2288.4</ele>
        <time>2020-09-11T16:38:35Z</time>
      </trkpt>
      <trkpt lat="42.8824810" lon="-0.3002470">
        <ele>2287.4</ele>
        <time>2020-09-11T16:38:39Z</time>
      </trkpt>
      <trkpt lat="42.8825290" lon="-0.3001960">
        <ele>2286.0</ele>
        <time>2020-09-11T16:38:43Z</time>
      </trkpt>
      <trkpt lat="42.8825580" lon="-0.3001950">
        <ele>2285.4</ele>
        <time>2020-09-11T16:38:47Z</time>
      </trkpt>
      <trkpt lat="42.8825640" lon="-0.3001740">
        <ele>2285.8</ele>
        <time>2020-09-11T16:38:50Z</time>
      </trkpt>
      <trkpt lat="42.8826030" lon="-0.3001710">
        <ele>2287.2</ele>
        <time>2020-09-11T16:38:54Z</time>
      </trkpt>
      <trkpt lat="42.8826450" lon="-0.3001740">
        <ele>2288.4</ele>
        <time>2020-09-11T16:38:58Z</time>
      </trkpt>
      <trkpt lat="42.8826810" lon="-0.3001500">
        <ele>2289.0</ele>
        <time>2020-09-11T16:39:02Z</time>
      </trkpt>
      <trkpt lat="42.8826910" lon="-0.3001220">
        <ele>2289.2</ele>
        <time>2020-09-11T16:39:04Z</time>
      </trkpt>
      <trkpt lat="42.8826950" lon="-0.3001110">
        <ele>2289.4</ele>
        <time>2020-09-11T16:39:05Z</time>
      </trkpt>
      <trkpt lat="42.8826960" lon="-0.3000990">
        <ele>2289.6</ele>
        <time>2020-09-11T16:39:06Z</time>
      </trkpt>
      <trkpt lat="42.8827040" lon="-0.3000770">
        <ele>2289.8</ele>
        <time>2020-09-11T16:39:09Z</time>
      </trkpt>
      <trkpt lat="42.8828120" lon="-0.3000630">
        <ele>2288.4</ele>
        <time>2020-09-11T16:39:24Z</time>
      </trkpt>
      <trkpt lat="42.8828380" lon="-0.3000730">
        <ele>2287.2</ele>
        <time>2020-09-11T16:39:27Z</time>
      </trkpt>
      <trkpt lat="42.8828950" lon="-0.3000350">
        <ele>2286.4</ele>
        <time>2020-09-11T16:39:32Z</time>
      </trkpt>
      <trkpt lat="42.8829810" lon="-0.2999460">
        <ele>2286.8</ele>
        <time>2020-09-11T16:39:40Z</time>
      </trkpt>
      <trkpt lat="42.8830140" lon="-0.2999370">
        <ele>2287.0</ele>
        <time>2020-09-11T16:39:43Z</time>
      </trkpt>
      <trkpt lat="42.8830300" lon="-0.2999380">
        <ele>2287.2</ele>
        <time>2020-09-11T16:39:46Z</time>
      </trkpt>
      <trkpt lat="42.8830490" lon="-0.2999390">
        <ele>2287.2</ele>
        <time>2020-09-11T16:39:48Z</time>
      </trkpt>
      <trkpt lat="42.8830660" lon="-0.2999390">
        <ele>2286.0</ele>
        <time>2020-09-11T16:39:54Z</time>
      </trkpt>
      <trkpt lat="42.8830850" lon="-0.2998730">
        <ele>2285.4</ele>
        <time>2020-09-11T16:40:08Z</time>
      </trkpt>
      <trkpt lat="42.8831090" lon="-0.2998690">
        <ele>2285.0</ele>
        <time>2020-09-11T16:40:10Z</time>
      </trkpt>
      <trkpt lat="42.8831230" lon="-0.2998560">
        <ele>2284.6</ele>
        <time>2020-09-11T16:40:12Z</time>
      </trkpt>
      <trkpt lat="42.8831350" lon="-0.2998470">
        <ele>2284.4</ele>
        <time>2020-09-11T16:40:13Z</time>
      </trkpt>
      <trkpt lat="42.8831580" lon="-0.2998440">
        <ele>2283.6</ele>
        <time>2020-09-11T16:40:15Z</time>
      </trkpt>
      <trkpt lat="42.8831940" lon="-0.2998370">
        <ele>2282.6</ele>
        <time>2020-09-11T16:40:18Z</time>
      </trkpt>
      <trkpt lat="42.8832540" lon="-0.2998330">
        <ele>2281.4</ele>
        <time>2020-09-11T16:40:23Z</time>
      </trkpt>
      <trkpt lat="42.8832870" lon="-0.2998190">
        <ele>2280.8</ele>
        <time>2020-09-11T16:40:26Z</time>
      </trkpt>
      <trkpt lat="42.8833210" lon="-0.2998330">
        <ele>2280.2</ele>
        <time>2020-09-11T16:40:29Z</time>
      </trkpt>
      <trkpt lat="42.8833500" lon="-0.2998460">
        <ele>2279.8</ele>
        <time>2020-09-11T16:40:31Z</time>
      </trkpt>
      <trkpt lat="42.8833730" lon="-0.2998530">
        <ele>2279.4</ele>
        <time>2020-09-11T16:40:33Z</time>
      </trkpt>
      <trkpt lat="42.8833960" lon="-0.2998560">
        <ele>2279.0</ele>
        <time>2020-09-11T16:40:35Z</time>
      </trkpt>
      <trkpt lat="42.8834290" lon="-0.2998340">
        <ele>2277.8</ele>
        <time>2020-09-11T16:40:39Z</time>
      </trkpt>
      <trkpt lat="42.8834540" lon="-0.2998110">
        <ele>2276.8</ele>
        <time>2020-09-11T16:40:42Z</time>
      </trkpt>
      <trkpt lat="42.8834820" lon="-0.2998120">
        <ele>2275.8</ele>
        <time>2020-09-11T16:40:46Z</time>
      </trkpt>
      <trkpt lat="42.8834880" lon="-0.2998090">
        <ele>2275.6</ele>
        <time>2020-09-11T16:40:47Z</time>
      </trkpt>
      <trkpt lat="42.8835300" lon="-0.2997980">
        <ele>2274.6</ele>
        <time>2020-09-11T16:40:51Z</time>
      </trkpt>
      <trkpt lat="42.8835470" lon="-0.2997980">
        <ele>2274.0</ele>
        <time>2020-09-11T16:40:53Z</time>
      </trkpt>
      <trkpt lat="42.8835780" lon="-0.2997970">
        <ele>2273.6</ele>
        <time>2020-09-11T16:40:55Z</time>
      </trkpt>
      <trkpt lat="42.8836200" lon="-0.2998340">
        <ele>2272.8</ele>
        <time>2020-09-11T16:40:58Z</time>
      </trkpt>
      <trkpt lat="42.8836420" lon="-0.2998450">
        <ele>2272.6</ele>
        <time>2020-09-11T16:40:59Z</time>
      </trkpt>
      <trkpt lat="42.8837230" lon="-0.2998520">
        <ele>2271.8</ele>
        <time>2020-09-11T16:41:04Z</time>
      </trkpt>
      <trkpt lat="42.8837800" lon="-0.2998750">
        <ele>2271.4</ele>
        <time>2020-09-11T16:41:08Z</time>
      </trkpt>
      <trkpt lat="42.8837740" lon="-0.2999440">
        <ele>2270.4</ele>
        <time>2020-09-11T16:41:16Z</time>
      </trkpt>
      <trkpt lat="42.8837730" lon="-0.2999680">
        <ele>2270.0</ele>
        <time>2020-09-11T16:41:18Z</time>
      </trkpt>
      <trkpt lat="42.8837630" lon="-0.2999920">
        <ele>2269.2</ele>
        <time>2020-09-11T16:41:21Z</time>
      </trkpt>
      <trkpt lat="42.8837330" lon="-0.3000330">
        <ele>2268.2</ele>
        <time>2020-09-11T16:41:26Z</time>
      </trkpt>
      <trkpt lat="42.8837310" lon="-0.3000420">
        <ele>2268.0</ele>
        <time>2020-09-11T16:41:27Z</time>
      </trkpt>
      <trkpt lat="42.8837190" lon="-0.3000750">
        <ele>2267.4</ele>
        <time>2020-09-11T16:41:31Z</time>
      </trkpt>
      <trkpt lat="42.8837280" lon="-0.3000950">
        <ele>2267.0</ele>
        <time>2020-09-11T16:41:34Z</time>
      </trkpt>
      <trkpt lat="42.8837290" lon="-0.3001070">
        <ele>2267.0</ele>
        <time>2020-09-11T16:41:35Z</time>
      </trkpt>
      <trkpt lat="42.8837300" lon="-0.3001640">
        <ele>2265.6</ele>
        <time>2020-09-11T16:41:40Z</time>
      </trkpt>
      <trkpt lat="42.8837330" lon="-0.3001780">
        <ele>2264.6</ele>
        <time>2020-09-11T16:41:43Z</time>
      </trkpt>
      <trkpt lat="42.8837390" lon="-0.3002730">
        <ele>2263.6</ele>
        <time>2020-09-11T16:42:18Z</time>
      </trkpt>
      <trkpt lat="42.8837650" lon="-0.3002880">
        <ele>2262.4</ele>
        <time>2020-09-11T16:42:21Z</time>
      </trkpt>
      <trkpt lat="42.8838410" lon="-0.3001540">
        <ele>2261.8</ele>
        <time>2020-09-11T16:42:29Z</time>
      </trkpt>
      <trkpt lat="42.8838570" lon="-0.3001440">
        <ele>2262.0</ele>
        <time>2020-09-11T16:42:31Z</time>
      </trkpt>
      <trkpt lat="42.8838860" lon="-0.3000820">
        <ele>2262.0</ele>
        <time>2020-09-11T16:42:37Z</time>
      </trkpt>
      <trkpt lat="42.8838930" lon="-0.3000320">
        <ele>2261.8</ele>
        <time>2020-09-11T16:42:41Z</time>
      </trkpt>
      <trkpt lat="42.8839590" lon="-0.2999640">
        <ele>2261.4</ele>
        <time>2020-09-11T16:42:48Z</time>
      </trkpt>
      <trkpt lat="42.8840150" lon="-0.2999440">
        <ele>2260.2</ele>
        <time>2020-09-11T16:42:53Z</time>
      </trkpt>
      <trkpt lat="42.8840640" lon="-0.2999530">
        <ele>2259.6</ele>
        <time>2020-09-11T16:42:56Z</time>
      </trkpt>
      <trkpt lat="42.8840970" lon="-0.2999960">
        <ele>2259.4</ele>
        <time>2020-09-11T16:42:59Z</time>
      </trkpt>
      <trkpt lat="42.8841700" lon="-0.2999540">
        <ele>2259.6</ele>
        <time>2020-09-11T16:43:05Z</time>
      </trkpt>
      <trkpt lat="42.8842040" lon="-0.2999530">
        <ele>2260.2</ele>
        <time>2020-09-11T16:43:07Z</time>
      </trkpt>
      <trkpt lat="42.8842750" lon="-0.2999310">
        <ele>2261.0</ele>
        <time>2020-09-11T16:43:14Z</time>
      </trkpt>
      <trkpt lat="42.8843060" lon="-0.2999360">
        <ele>2261.2</ele>
        <time>2020-09-11T16:43:16Z</time>
      </trkpt>
      <trkpt lat="42.8843330" lon="-0.2999330">
        <ele>2261.4</ele>
        <time>2020-09-11T16:43:18Z</time>
      </trkpt>
      <trkpt lat="42.8844800" lon="-0.2998930">
        <ele>2260.2</ele>
        <time>2020-09-11T16:43:28Z</time>
      </trkpt>
      <trkpt lat="42.8845270" lon="-0.2998570">
        <ele>2259.4</ele>
        <time>2020-09-11T16:43:31Z</time>
      </trkpt>
      <trkpt lat="42.8845420" lon="-0.2998530">
        <ele>2259.2</ele>
        <time>2020-09-11T16:43:32Z</time>
      </trkpt>
      <trkpt lat="42.8845830" lon="-0.2998670">
        <ele>2258.0</ele>
        <time>2020-09-11T16:43:36Z</time>
      </trkpt>
      <trkpt lat="42.8846080" lon="-0.2998800">
        <ele>2257.8</ele>
        <time>2020-09-11T16:43:40Z</time>
      </trkpt>
      <trkpt lat="42.8846420" lon="-0.2999180">
        <ele>2258.0</ele>
        <time>2020-09-11T16:43:45Z</time>
      </trkpt>
      <trkpt lat="42.8846410" lon="-0.2998510">
        <ele>2258.0</ele>
        <time>2020-09-11T16:43:49Z</time>
      </trkpt>
      <trkpt lat="42.8846480" lon="-0.2998480">
        <ele>2258.0</ele>
        <time>2020-09-11T16:43:50Z</time>
      </trkpt>
      <trkpt lat="42.8847110" lon="-0.2998420">
        <ele>2257.8</ele>
        <time>2020-09-11T16:43:53Z</time>
      </trkpt>
      <trkpt lat="42.8847220" lon="-0.2998560">
        <ele>2257.6</ele>
        <time>2020-09-11T16:43:55Z</time>
      </trkpt>
      <trkpt lat="42.8847370" lon="-0.2998100">
        <ele>2257.0</ele>
        <time>2020-09-11T16:43:59Z</time>
      </trkpt>
      <trkpt lat="42.8847470" lon="-0.2998020">
        <ele>2257.0</ele>
        <time>2020-09-11T16:44:00Z</time>
      </trkpt>
      <trkpt lat="42.8847650" lon="-0.2997820">
        <ele>2256.6</ele>
        <time>2020-09-11T16:44:03Z</time>
      </trkpt>
      <trkpt lat="42.8847610" lon="-0.2997730">
        <ele>2256.4</ele>
        <time>2020-09-11T16:44:08Z</time>
      </trkpt>
      <trkpt lat="42.8848770" lon="-0.2998060">
        <ele>2256.4</ele>
        <time>2020-09-11T16:44:39Z</time>
      </trkpt>
      <trkpt lat="42.8848510" lon="-0.2997520">
        <ele>2255.6</ele>
        <time>2020-09-11T16:44:45Z</time>
      </trkpt>
      <trkpt lat="42.8848590" lon="-0.2997430">
        <ele>2254.6</ele>
        <time>2020-09-11T16:44:50Z</time>
      </trkpt>
      <trkpt lat="42.8848710" lon="-0.2997430">
        <ele>2253.4</ele>
        <time>2020-09-11T16:44:54Z</time>
      </trkpt>
      <trkpt lat="42.8849130" lon="-0.2997320">
        <ele>2252.0</ele>
        <time>2020-09-11T16:45:00Z</time>
      </trkpt>
      <trkpt lat="42.8849310" lon="-0.2997160">
        <ele>2251.4</ele>
        <time>2020-09-11T16:45:02Z</time>
      </trkpt>
      <trkpt lat="42.8849460" lon="-0.2996950">
        <ele>2251.0</ele>
        <time>2020-09-11T16:45:04Z</time>
      </trkpt>
      <trkpt lat="42.8849570" lon="-0.2996670">
        <ele>2250.6</ele>
        <time>2020-09-11T16:45:07Z</time>
      </trkpt>
      <trkpt lat="42.8850520" lon="-0.2995580">
        <ele>2252.0</ele>
        <time>2020-09-11T16:45:19Z</time>
      </trkpt>
      <trkpt lat="42.8850720" lon="-0.2995380">
        <ele>2252.4</ele>
        <time>2020-09-11T16:45:22Z</time>
      </trkpt>
      <trkpt lat="42.8851110" lon="-0.2995250">
        <ele>2252.2</ele>
        <time>2020-09-11T16:45:27Z</time>
      </trkpt>
      <trkpt lat="42.8851860" lon="-0.2994370">
        <ele>2251.4</ele>
        <time>2020-09-11T16:45:36Z</time>
      </trkpt>
      <trkpt lat="42.8852220" lon="-0.2993170">
        <ele>2252.4</ele>
        <time>2020-09-11T16:45:44Z</time>
      </trkpt>
      <trkpt lat="42.8853660" lon="-0.2991570">
        <ele>2252.6</ele>
        <time>2020-09-11T16:46:00Z</time>
      </trkpt>
      <trkpt lat="42.8853880" lon="-0.2991110">
        <ele>2253.0</ele>
        <time>2020-09-11T16:46:04Z</time>
      </trkpt>
      <trkpt lat="42.8853930" lon="-0.2991010">
        <ele>2253.0</ele>
        <time>2020-09-11T16:46:05Z</time>
      </trkpt>
      <trkpt lat="42.8854010" lon="-0.2990710">
        <ele>2253.2</ele>
        <time>2020-09-11T16:46:08Z</time>
      </trkpt>
      <trkpt lat="42.8854170" lon="-0.2990290">
        <ele>2253.6</ele>
        <time>2020-09-11T16:46:12Z</time>
      </trkpt>
      <trkpt lat="42.8854410" lon="-0.2990140">
        <ele>2253.8</ele>
        <time>2020-09-11T16:46:14Z</time>
      </trkpt>
      <trkpt lat="42.8855080" lon="-0.2989710">
        <ele>2253.8</ele>
        <time>2020-09-11T16:46:19Z</time>
      </trkpt>
      <trkpt lat="42.8855540" lon="-0.2989880">
        <ele>2253.6</ele>
        <time>2020-09-11T16:46:23Z</time>
      </trkpt>
      <trkpt lat="42.8855680" lon="-0.2990040">
        <ele>2253.4</ele>
        <time>2020-09-11T16:46:25Z</time>
      </trkpt>
      <trkpt lat="42.8855790" lon="-0.2990590">
        <ele>2253.2</ele>
        <time>2020-09-11T16:46:29Z</time>
      </trkpt>
      <trkpt lat="42.8855880" lon="-0.2990380">
        <ele>2254.2</ele>
        <time>2020-09-11T16:46:34Z</time>
      </trkpt>
      <trkpt lat="42.8855940" lon="-0.2990000">
        <ele>2254.4</ele>
        <time>2020-09-11T16:46:37Z</time>
      </trkpt>
      <trkpt lat="42.8855970" lon="-0.2989790">
        <ele>2254.6</ele>
        <time>2020-09-11T16:46:39Z</time>
      </trkpt>
      <trkpt lat="42.8856030" lon="-0.2989420">
        <ele>2254.8</ele>
        <time>2020-09-11T16:46:42Z</time>
      </trkpt>
      <trkpt lat="42.8856170" lon="-0.2989150">
        <ele>2255.0</ele>
        <time>2020-09-11T16:46:45Z</time>
      </trkpt>
      <trkpt lat="42.8856320" lon="-0.2989060">
        <ele>2255.2</ele>
        <time>2020-09-11T16:46:47Z</time>
      </trkpt>
      <trkpt lat="42.8856600" lon="-0.2989010">
        <ele>2256.0</ele>
        <time>2020-09-11T16:46:50Z</time>
      </trkpt>
      <trkpt lat="42.8856730" lon="-0.2988770">
        <ele>2256.4</ele>
        <time>2020-09-11T16:46:52Z</time>
      </trkpt>
      <trkpt lat="42.8856800" lon="-0.2988600">
        <ele>2256.6</ele>
        <time>2020-09-11T16:46:54Z</time>
      </trkpt>
      <trkpt lat="42.8856960" lon="-0.2988590">
        <ele>2256.8</ele>
        <time>2020-09-11T16:46:56Z</time>
      </trkpt>
      <trkpt lat="42.8857180" lon="-0.2988700">
        <ele>2257.0</ele>
        <time>2020-09-11T16:46:58Z</time>
      </trkpt>
      <trkpt lat="42.8857280" lon="-0.2988930">
        <ele>2257.4</ele>
        <time>2020-09-11T16:47:01Z</time>
      </trkpt>
      <trkpt lat="42.8857320" lon="-0.2989010">
        <ele>2257.4</ele>
        <time>2020-09-11T16:47:02Z</time>
      </trkpt>
      <trkpt lat="42.8857500" lon="-0.2989150">
        <ele>2257.6</ele>
        <time>2020-09-11T16:47:04Z</time>
      </trkpt>
      <trkpt lat="42.8856770" lon="-0.2988590">
        <ele>2258.4</ele>
        <time>2020-09-11T16:47:25Z</time>
      </trkpt>
      <trkpt lat="42.8856650" lon="-0.2988800">
        <ele>2258.4</ele>
        <time>2020-09-11T16:47:34Z</time>
      </trkpt>
      <trkpt lat="42.8857120" lon="-0.2989560">
        <ele>2258.2</ele>
        <time>2020-09-11T16:47:51Z</time>
      </trkpt>
      <trkpt lat="42.8857470" lon="-0.2990210">
        <ele>2258.4</ele>
        <time>2020-09-11T16:48:03Z</time>
      </trkpt>
      <trkpt lat="42.8856790" lon="-0.2986630">
        <ele>2255.4</ele>
        <time>2020-09-12T05:56:47Z</time>
      </trkpt>
      <trkpt lat="42.8857010" lon="-0.2989260">
        <ele>2254.4</ele>
        <time>2020-09-12T05:57:01Z</time>
      </trkpt>
      <trkpt lat="42.8857370" lon="-0.2988430">
        <ele>2254.4</ele>
        <time>2020-09-12T05:57:17Z</time>
      </trkpt>
      <trkpt lat="42.8857590" lon="-0.2987860">
        <ele>2253.4</ele>
        <time>2020-09-12T05:57:26Z</time>
      </trkpt>
      <trkpt lat="42.8858110" lon="-0.2987960">
        <ele>2252.4</ele>
        <time>2020-09-12T05:57:36Z</time>
      </trkpt>
      <trkpt lat="42.8858860" lon="-0.2988010">
        <ele>2251.2</ele>
        <time>2020-09-12T05:57:47Z</time>
      </trkpt>
      <trkpt lat="42.8858980" lon="-0.2987940">
        <ele>2250.0</ele>
        <time>2020-09-12T05:57:52Z</time>
      </trkpt>
      <trkpt lat="42.8858900" lon="-0.2988440">
        <ele>2249.0</ele>
        <time>2020-09-12T05:58:06Z</time>
      </trkpt>
      <trkpt lat="42.8858890" lon="-0.2988130">
        <ele>2248.0</ele>
        <time>2020-09-12T05:58:20Z</time>
      </trkpt>
      <trkpt lat="42.8858930" lon="-0.2988010">
        <ele>2246.8</ele>
        <time>2020-09-12T05:58:24Z</time>
      </trkpt>
      <trkpt lat="42.8859140" lon="-0.2987380">
        <ele>2246.2</ele>
        <time>2020-09-12T05:58:29Z</time>
      </trkpt>
      <trkpt lat="42.8859270" lon="-0.2987260">
        <ele>2245.8</ele>
        <time>2020-09-12T05:58:31Z</time>
      </trkpt>
      <trkpt lat="42.8859170" lon="-0.2987150">
        <ele>2244.6</ele>
        <time>2020-09-12T05:58:36Z</time>
      </trkpt>
      <trkpt lat="42.8859840" lon="-0.2987500">
        <ele>2243.4</ele>
        <time>2020-09-12T05:58:43Z</time>
      </trkpt>
      <trkpt lat="42.8861650" lon="-0.2987670">
        <ele>2242.2</ele>
        <time>2020-09-12T05:58:58Z</time>
      </trkpt>
      <trkpt lat="42.8862520" lon="-0.2987910">
        <ele>2241.0</ele>
        <time>2020-09-12T05:59:04Z</time>
      </trkpt>
      <trkpt lat="42.8863110" lon="-0.2988360">
        <ele>2239.8</ele>
        <time>2020-09-12T05:59:08Z</time>
      </trkpt>
      <trkpt lat="42.8863670" lon="-0.2988410">
        <ele>2238.6</ele>
        <time>2020-09-12T05:59:12Z</time>
      </trkpt>
      <trkpt lat="42.8863750" lon="-0.2988280">
        <ele>2238.4</ele>
        <time>2020-09-12T05:59:13Z</time>
      </trkpt>
      <trkpt lat="42.8863950" lon="-0.2988090">
        <ele>2237.4</ele>
        <time>2020-09-12T05:59:16Z</time>
      </trkpt>
      <trkpt lat="42.8864300" lon="-0.2987690">
        <ele>2236.4</ele>
        <time>2020-09-12T05:59:22Z</time>
      </trkpt>
      <trkpt lat="42.8864170" lon="-0.2987580">
        <ele>2236.0</ele>
        <time>2020-09-12T05:59:23Z</time>
      </trkpt>
      <trkpt lat="42.8864280" lon="-0.2987270">
        <ele>2235.2</ele>
        <time>2020-09-12T05:59:26Z</time>
      </trkpt>
      <trkpt lat="42.8864470" lon="-0.2986750">
        <ele>2234.8</ele>
        <time>2020-09-12T05:59:29Z</time>
      </trkpt>
      <trkpt lat="42.8864640" lon="-0.2986520">
        <ele>2234.8</ele>
        <time>2020-09-12T05:59:31Z</time>
      </trkpt>
      <trkpt lat="42.8866340" lon="-0.2985830">
        <ele>2234.4</ele>
        <time>2020-09-12T05:59:43Z</time>
      </trkpt>
      <trkpt lat="42.8866450" lon="-0.2986030">
        <ele>2234.2</ele>
        <time>2020-09-12T05:59:45Z</time>
      </trkpt>
      <trkpt lat="42.8866500" lon="-0.2987420">
        <ele>2233.8</ele>
        <time>2020-09-12T05:59:57Z</time>
      </trkpt>
      <trkpt lat="42.8866580" lon="-0.2987480">
        <ele>2233.8</ele>
        <time>2020-09-12T05:59:59Z</time>
      </trkpt>
      <trkpt lat="42.8867220" lon="-0.2986730">
        <ele>2233.6</ele>
        <time>2020-09-12T06:00:04Z</time>
      </trkpt>
      <trkpt lat="42.8868000" lon="-0.2984480">
        <ele>2234.2</ele>
        <time>2020-09-12T06:00:18Z</time>
      </trkpt>
      <trkpt lat="42.8868240" lon="-0.2983940">
        <ele>2234.2</ele>
        <time>2020-09-12T06:00:25Z</time>
      </trkpt>
      <trkpt lat="42.8868300" lon="-0.2983850">
        <ele>2234.2</ele>
        <time>2020-09-12T06:00:27Z</time>
      </trkpt>
      <trkpt lat="42.8868410" lon="-0.2983650">
        <ele>2234.4</ele>
        <time>2020-09-12T06:00:29Z</time>
      </trkpt>
      <trkpt lat="42.8868600" lon="-0.2983500">
        <ele>2234.2</ele>
        <time>2020-09-12T06:00:32Z</time>
      </trkpt>
      <trkpt lat="42.8869560" lon="-0.2984390">
        <ele>2233.4</ele>
        <time>2020-09-12T06:00:48Z</time>
      </trkpt>
      <trkpt lat="42.8868980" lon="-0.2986070">
        <ele>2234.6</ele>
        <time>2020-09-12T06:00:58Z</time>
      </trkpt>
      <trkpt lat="42.8869230" lon="-0.2986180">
        <ele>2235.4</ele>
        <time>2020-09-12T06:01:01Z</time>
      </trkpt>
      <trkpt lat="42.8869530" lon="-0.2986350">
        <ele>2236.2</ele>
        <time>2020-09-12T06:01:04Z</time>
      </trkpt>
      <trkpt lat="42.8869580" lon="-0.2986490">
        <ele>2236.4</ele>
        <time>2020-09-12T06:01:05Z</time>
      </trkpt>
      <trkpt lat="42.8869900" lon="-0.2987130">
        <ele>2237.2</ele>
        <time>2020-09-12T06:01:10Z</time>
      </trkpt>
      <trkpt lat="42.8871290" lon="-0.2986870">
        <ele>2236.2</ele>
        <time>2020-09-12T06:01:21Z</time>
      </trkpt>
      <trkpt lat="42.8871590" lon="-0.2986930">
        <ele>2236.0</ele>
        <time>2020-09-12T06:01:23Z</time>
      </trkpt>
      <trkpt lat="42.8871780" lon="-0.2986990">
        <ele>2235.6</ele>
        <time>2020-09-12T06:01:25Z</time>
      </trkpt>
      <trkpt lat="42.8871770" lon="-0.2987150">
        <ele>2235.2</ele>
        <time>2020-09-12T06:01:26Z</time>
      </trkpt>
      <trkpt lat="42.8873210" lon="-0.2988750">
        <ele>2234.2</ele>
        <time>2020-09-12T06:01:43Z</time>
      </trkpt>
      <trkpt lat="42.8874100" lon="-0.2988390">
        <ele>2233.8</ele>
        <time>2020-09-12T06:01:49Z</time>
      </trkpt>
      <trkpt lat="42.8874360" lon="-0.2988240">
        <ele>2233.8</ele>
        <time>2020-09-12T06:01:52Z</time>
      </trkpt>
      <trkpt lat="42.8874800" lon="-0.2988050">
        <ele>2233.6</ele>
        <time>2020-09-12T06:01:57Z</time>
      </trkpt>
      <trkpt lat="42.8876090" lon="-0.2988200">
        <ele>2233.8</ele>
        <time>2020-09-12T06:02:12Z</time>
      </trkpt>
      <trkpt lat="42.8876660" lon="-0.2987870">
        <ele>2234.0</ele>
        <time>2020-09-12T06:02:16Z</time>
      </trkpt>
      <trkpt lat="42.8878480" lon="-0.2987320">
        <ele>2233.6</ele>
        <time>2020-09-12T06:02:29Z</time>
      </trkpt>
      <trkpt lat="42.8879630" lon="-0.2987070">
        <ele>2233.4</ele>
        <time>2020-09-12T06:02:37Z</time>
      </trkpt>
      <trkpt lat="42.8880310" lon="-0.2987150">
        <ele>2233.4</ele>
        <time>2020-09-12T06:02:43Z</time>
      </trkpt>
      <trkpt lat="42.8880340" lon="-0.2987200">
        <ele>2233.4</ele>
        <time>2020-09-12T06:02:45Z</time>
      </trkpt>
      <trkpt lat="42.8881100" lon="-0.2987020">
        <ele>2234.0</ele>
        <time>2020-09-12T06:02:53Z</time>
      </trkpt>
      <trkpt lat="42.8881310" lon="-0.2986720">
        <ele>2234.0</ele>
        <time>2020-09-12T06:02:55Z</time>
      </trkpt>
      <trkpt lat="42.8881740" lon="-0.2986030">
        <ele>2233.0</ele>
        <time>2020-09-12T06:03:00Z</time>
      </trkpt>
      <trkpt lat="42.8881940" lon="-0.2985820">
        <ele>2232.6</ele>
        <time>2020-09-12T06:03:02Z</time>
      </trkpt>
      <trkpt lat="42.8882120" lon="-0.2985800">
        <ele>2232.0</ele>
        <time>2020-09-12T06:03:05Z</time>
      </trkpt>
      <trkpt lat="42.8882190" lon="-0.2985800">
        <ele>2231.8</ele>
        <time>2020-09-12T06:03:07Z</time>
      </trkpt>
      <trkpt lat="42.8882280" lon="-0.2985830">
        <ele>2231.6</ele>
        <time>2020-09-12T06:03:09Z</time>
      </trkpt>
      <trkpt lat="42.8882740" lon="-0.2985900">
        <ele>2230.8</ele>
        <time>2020-09-12T06:03:16Z</time>
      </trkpt>
      <trkpt lat="42.8883010" lon="-0.2985880">
        <ele>2229.8</ele>
        <time>2020-09-12T06:03:20Z</time>
      </trkpt>
      <trkpt lat="42.8883120" lon="-0.2985890">
        <ele>2229.6</ele>
        <time>2020-09-12T06:03:21Z</time>
      </trkpt>
      <trkpt lat="42.8883150" lon="-0.2986260">
        <ele>2228.6</ele>
        <time>2020-09-12T06:03:25Z</time>
      </trkpt>
      <trkpt lat="42.8883350" lon="-0.2986620">
        <ele>2227.8</ele>
        <time>2020-09-12T06:03:29Z</time>
      </trkpt>
      <trkpt lat="42.8883390" lon="-0.2986670">
        <ele>2227.6</ele>
        <time>2020-09-12T06:03:30Z</time>
      </trkpt>
      <trkpt lat="42.8883510" lon="-0.2986620">
        <ele>2227.0</ele>
        <time>2020-09-12T06:03:32Z</time>
      </trkpt>
      <trkpt lat="42.8883800" lon="-0.2986320">
        <ele>2226.6</ele>
        <time>2020-09-12T06:03:35Z</time>
      </trkpt>
      <trkpt lat="42.8883900" lon="-0.2986230">
        <ele>2226.6</ele>
        <time>2020-09-12T06:03:36Z</time>
      </trkpt>
      <trkpt lat="42.8884250" lon="-0.2986070">
        <ele>2226.2</ele>
        <time>2020-09-12T06:03:39Z</time>
      </trkpt>
      <trkpt lat="42.8884450" lon="-0.2985960">
        <ele>2225.2</ele>
        <time>2020-09-12T06:03:42Z</time>
      </trkpt>
      <trkpt lat="42.8884710" lon="-0.2986130">
        <ele>2223.8</ele>
        <time>2020-09-12T06:03:46Z</time>
      </trkpt>
      <trkpt lat="42.8884920" lon="-0.2986390">
        <ele>2222.6</ele>
        <time>2020-09-12T06:03:49Z</time>
      </trkpt>
      <trkpt lat="42.8885340" lon="-0.2986720">
        <ele>2221.6</ele>
        <time>2020-09-12T06:03:53Z</time>
      </trkpt>
      <trkpt lat="42.8885420" lon="-0.2986920">
        <ele>2221.4</ele>
        <time>2020-09-12T06:03:55Z</time>
      </trkpt>
      <trkpt lat="42.8885360" lon="-0.2987370">
        <ele>2221.2</ele>
        <time>2020-09-12T06:03:59Z</time>
      </trkpt>
      <trkpt lat="42.8885950" lon="-0.2987990">
        <ele>2222.2</ele>
        <time>2020-09-12T06:04:07Z</time>
      </trkpt>
      <trkpt lat="42.8886110" lon="-0.2988010">
        <ele>2222.4</ele>
        <time>2020-09-12T06:04:09Z</time>
      </trkpt>
      <trkpt lat="42.8886170" lon="-0.2987950">
        <ele>2222.6</ele>
        <time>2020-09-12T06:04:10Z</time>
      </trkpt>
      <trkpt lat="42.8886950" lon="-0.2987060">
        <ele>2221.4</ele>
        <time>2020-09-12T06:04:16Z</time>
      </trkpt>
      <trkpt lat="42.8887770" lon="-0.2986880">
        <ele>2220.2</ele>
        <time>2020-09-12T06:04:21Z</time>
      </trkpt>
      <trkpt lat="42.8887880" lon="-0.2986820">
        <ele>2220.2</ele>
        <time>2020-09-12T06:04:22Z</time>
      </trkpt>
      <trkpt lat="42.8888430" lon="-0.2986640">
        <ele>2220.0</ele>
        <time>2020-09-12T06:04:25Z</time>
      </trkpt>
      <trkpt lat="42.8888760" lon="-0.2986450">
        <ele>2219.6</ele>
        <time>2020-09-12T06:04:28Z</time>
      </trkpt>
      <trkpt lat="42.8888860" lon="-0.2986310">
        <ele>2219.4</ele>
        <time>2020-09-12T06:04:30Z</time>
      </trkpt>
      <trkpt lat="42.8888910" lon="-0.2986260">
        <ele>2219.2</ele>
        <time>2020-09-12T06:04:31Z</time>
      </trkpt>
      <trkpt lat="42.8889010" lon="-0.2986120">
        <ele>2218.6</ele>
        <time>2020-09-12T06:04:33Z</time>
      </trkpt>
      <trkpt lat="42.8889120" lon="-0.2986000">
        <ele>2218.0</ele>
        <time>2020-09-12T06:04:35Z</time>
      </trkpt>
      <trkpt lat="42.8889330" lon="-0.2985690">
        <ele>2217.0</ele>
        <time>2020-09-12T06:04:39Z</time>
      </trkpt>
      <trkpt lat="42.8889540" lon="-0.2985580">
        <ele>2216.0</ele>
        <time>2020-09-12T06:04:41Z</time>
      </trkpt>
      <trkpt lat="42.8889590" lon="-0.2985570">
        <ele>2215.4</ele>
        <time>2020-09-12T06:04:42Z</time>
      </trkpt>
      <trkpt lat="42.8889710" lon="-0.2985550">
        <ele>2214.6</ele>
        <time>2020-09-12T06:04:44Z</time>
      </trkpt>
      <trkpt lat="42.8889720" lon="-0.2985520">
        <ele>2214.4</ele>
        <time>2020-09-12T06:04:45Z</time>
      </trkpt>
      <trkpt lat="42.8889770" lon="-0.2985500">
        <ele>2214.4</ele>
        <time>2020-09-12T06:04:46Z</time>
      </trkpt>
      <trkpt lat="42.8890110" lon="-0.2985590">
        <ele>2214.2</ele>
        <time>2020-09-12T06:04:49Z</time>
      </trkpt>
      <trkpt lat="42.8890470" lon="-0.2985710">
        <ele>2213.2</ele>
        <time>2020-09-12T06:04:53Z</time>
      </trkpt>
      <trkpt lat="42.8890810" lon="-0.2985760">
        <ele>2212.0</ele>
        <time>2020-09-12T06:04:57Z</time>
      </trkpt>
      <trkpt lat="42.8890950" lon="-0.2985830">
        <ele>2211.8</ele>
        <time>2020-09-12T06:04:59Z</time>
      </trkpt>
      <trkpt lat="42.8891220" lon="-0.2985740">
        <ele>2211.8</ele>
        <time>2020-09-12T06:05:02Z</time>
      </trkpt>
      <trkpt lat="42.8892050" lon="-0.2985000">
        <ele>2212.0</ele>
        <time>2020-09-12T06:05:10Z</time>
      </trkpt>
      <trkpt lat="42.8892340" lon="-0.2984880">
        <ele>2212.0</ele>
        <time>2020-09-12T06:05:13Z</time>
      </trkpt>
      <trkpt lat="42.8892740" lon="-0.2984390">
        <ele>2211.4</ele>
        <time>2020-09-12T06:05:18Z</time>
      </trkpt>
      <trkpt lat="42.8892930" lon="-0.2984410">
        <ele>2211.0</ele>
        <time>2020-09-12T06:05:21Z</time>
      </trkpt>
      <trkpt lat="42.8892960" lon="-0.2984410">
        <ele>2211.0</ele>
        <time>2020-09-12T06:05:22Z</time>
      </trkpt>
      <trkpt lat="42.8892980" lon="-0.2984330">
        <ele>2211.0</ele>
        <time>2020-09-12T06:05:26Z</time>
      </trkpt>
      <trkpt lat="42.8893070" lon="-0.2984250">
        <ele>2211.0</ele>
        <time>2020-09-12T06:05:28Z</time>
      </trkpt>
      <trkpt lat="42.8893200" lon="-0.2984210">
        <ele>2211.0</ele>
        <time>2020-09-12T06:05:32Z</time>
      </trkpt>
      <trkpt lat="42.8893240" lon="-0.2983390">
        <ele>2211.0</ele>
        <time>2020-09-12T06:05:44Z</time>
      </trkpt>
      <trkpt lat="42.8894360" lon="-0.2982470">
        <ele>2210.4</ele>
        <time>2020-09-12T06:05:50Z</time>
      </trkpt>
      <trkpt lat="42.8894640" lon="-0.2982180">
        <ele>2209.8</ele>
        <time>2020-09-12T06:05:52Z</time>
      </trkpt>
      <trkpt lat="42.8895040" lon="-0.2981630">
        <ele>2209.4</ele>
        <time>2020-09-12T06:05:55Z</time>
      </trkpt>
      <trkpt lat="42.8895060" lon="-0.2981290">
        <ele>2209.2</ele>
        <time>2020-09-12T06:05:57Z</time>
      </trkpt>
      <trkpt lat="42.8895590" lon="-0.2980690">
        <ele>2208.8</ele>
        <time>2020-09-12T06:06:01Z</time>
      </trkpt>
      <trkpt lat="42.8897290" lon="-0.2979870">
        <ele>2207.8</ele>
        <time>2020-09-12T06:06:07Z</time>
      </trkpt>
      <trkpt lat="42.8898490" lon="-0.2979370">
        <ele>2206.6</ele>
        <time>2020-09-12T06:06:11Z</time>
      </trkpt>
      <trkpt lat="42.8899270" lon="-0.2978210">
        <ele>2206.0</ele>
        <time>2020-09-12T06:06:20Z</time>
      </trkpt>
      <trkpt lat="42.8899240" lon="-0.2977810">
        <ele>2206.0</ele>
        <time>2020-09-12T06:06:25Z</time>
      </trkpt>
      <trkpt lat="42.8899150" lon="-0.2977340">
        <ele>2206.0</ele>
        <time>2020-09-12T06:06:30Z</time>
      </trkpt>
      <trkpt lat="42.8899140" lon="-0.2976860">
        <ele>2205.6</ele>
        <time>2020-09-12T06:06:33Z</time>
      </trkpt>
      <trkpt lat="42.8899130" lon="-0.2976570">
        <ele>2205.4</ele>
        <time>2020-09-12T06:06:35Z</time>
      </trkpt>
      <trkpt lat="42.8899200" lon="-0.2975880">
        <ele>2205.6</ele>
        <time>2020-09-12T06:06:40Z</time>
      </trkpt>
      <trkpt lat="42.8899230" lon="-0.2975480">
        <ele>2206.6</ele>
        <time>2020-09-12T06:06:43Z</time>
      </trkpt>
      <trkpt lat="42.8899150" lon="-0.2975340">
        <ele>2206.8</ele>
        <time>2020-09-12T06:06:44Z</time>
      </trkpt>
      <trkpt lat="42.8898870" lon="-0.2975180">
        <ele>2207.4</ele>
        <time>2020-09-12T06:06:48Z</time>
      </trkpt>
      <trkpt lat="42.8898840" lon="-0.2975040">
        <ele>2207.6</ele>
        <time>2020-09-12T06:06:51Z</time>
      </trkpt>
      <trkpt lat="42.8898830" lon="-0.2974620">
        <ele>2207.6</ele>
        <time>2020-09-12T06:06:54Z</time>
      </trkpt>
      <trkpt lat="42.8898850" lon="-0.2974470">
        <ele>2207.8</ele>
        <time>2020-09-12T06:06:55Z</time>
      </trkpt>
      <trkpt lat="42.8898730" lon="-0.2972900">
        <ele>2206.6</ele>
        <time>2020-09-12T06:07:07Z</time>
      </trkpt>
      <trkpt lat="42.8898540" lon="-0.2971850">
        <ele>2205.4</ele>
        <time>2020-09-12T06:07:13Z</time>
      </trkpt>
      <trkpt lat="42.8898530" lon="-0.2971440">
        <ele>2204.8</ele>
        <time>2020-09-12T06:07:15Z</time>
      </trkpt>
      <trkpt lat="42.8898530" lon="-0.2971130">
        <ele>2204.2</ele>
        <time>2020-09-12T06:07:16Z</time>
      </trkpt>
      <trkpt lat="42.8898640" lon="-0.2970440">
        <ele>2203.0</ele>
        <time>2020-09-12T06:07:19Z</time>
      </trkpt>
      <trkpt lat="42.8899070" lon="-0.2968200">
        <ele>2202.0</ele>
        <time>2020-09-12T06:07:31Z</time>
      </trkpt>
      <trkpt lat="42.8899270" lon="-0.2967410">
        <ele>2200.8</ele>
        <time>2020-09-12T06:07:36Z</time>
      </trkpt>
      <trkpt lat="42.8899540" lon="-0.2966770">
        <ele>2200.6</ele>
        <time>2020-09-12T06:07:41Z</time>
      </trkpt>
      <trkpt lat="42.8900030" lon="-0.2965110">
        <ele>2199.8</ele>
        <time>2020-09-12T06:07:51Z</time>
      </trkpt>
      <trkpt lat="42.8900240" lon="-0.2963940">
        <ele>2198.8</ele>
        <time>2020-09-12T06:07:58Z</time>
      </trkpt>
      <trkpt lat="42.8900750" lon="-0.2962150">
        <ele>2198.8</ele>
        <time>2020-09-12T06:08:09Z</time>
      </trkpt>
      <trkpt lat="42.8900680" lon="-0.2962060">
        <ele>2198.8</ele>
        <time>2020-09-12T06:08:11Z</time>
      </trkpt>
      <trkpt lat="42.8900680" lon="-0.2962080">
        <ele>2198.4</ele>
        <time>2020-09-12T06:08:13Z</time>
      </trkpt>
      <trkpt lat="42.8900750" lon="-0.2962000">
        <ele>2197.8</ele>
        <time>2020-09-12T06:08:16Z</time>
      </trkpt>
      <trkpt lat="42.8900430" lon="-0.2962220">
        <ele>2196.6</ele>
        <time>2020-09-12T06:08:44Z</time>
      </trkpt>
      <trkpt lat="42.8900530" lon="-0.2962150">
        <ele>2197.8</ele>
        <time>2020-09-12T06:08:46Z</time>
      </trkpt>
      <trkpt lat="42.8900250" lon="-0.2962440">
        <ele>2197.8</ele>
        <time>2020-09-12T06:09:46Z</time>
      </trkpt>
      <trkpt lat="42.8900620" lon="-0.2962950">
        <ele>2197.8</ele>
        <time>2020-09-12T06:10:18Z</time>
      </trkpt>
      <trkpt lat="42.8900680" lon="-0.2962020">
        <ele>2197.6</ele>
        <time>2020-09-12T06:10:46Z</time>
      </trkpt>
      <trkpt lat="42.8900850" lon="-0.2961470">
        <ele>2196.6</ele>
        <time>2020-09-12T06:10:49Z</time>
      </trkpt>
      <trkpt lat="42.8901450" lon="-0.2960130">
        <ele>2196.4</ele>
        <time>2020-09-12T06:10:58Z</time>
      </trkpt>
      <trkpt lat="42.8901780" lon="-0.2959480">
        <ele>2195.4</ele>
        <time>2020-09-12T06:11:02Z</time>
      </trkpt>
      <trkpt lat="42.8902560" lon="-0.2957380">
        <ele>2194.2</ele>
        <time>2020-09-12T06:11:14Z</time>
      </trkpt>
      <trkpt lat="42.8902590" lon="-0.2957260">
        <ele>2194.0</ele>
        <time>2020-09-12T06:11:15Z</time>
      </trkpt>
      <trkpt lat="42.8902750" lon="-0.2956920">
        <ele>2193.0</ele>
        <time>2020-09-12T06:11:18Z</time>
      </trkpt>
      <trkpt lat="42.8902880" lon="-0.2956540">
        <ele>2192.0</ele>
        <time>2020-09-12T06:11:21Z</time>
      </trkpt>
      <trkpt lat="42.8903070" lon="-0.2955990">
        <ele>2191.8</ele>
        <time>2020-09-12T06:11:25Z</time>
      </trkpt>
      <trkpt lat="42.8903220" lon="-0.2955720">
        <ele>2191.8</ele>
        <time>2020-09-12T06:11:27Z</time>
      </trkpt>
      <trkpt lat="42.8903270" lon="-0.2955090">
        <ele>2190.8</ele>
        <time>2020-09-12T06:11:31Z</time>
      </trkpt>
      <trkpt lat="42.8903400" lon="-0.2954420">
        <ele>2189.8</ele>
        <time>2020-09-12T06:11:35Z</time>
      </trkpt>
      <trkpt lat="42.8903940" lon="-0.2952880">
        <ele>2188.8</ele>
        <time>2020-09-12T06:11:44Z</time>
      </trkpt>
      <trkpt lat="42.8904040" lon="-0.2952760">
        <ele>2188.6</ele>
        <time>2020-09-12T06:11:45Z</time>
      </trkpt>
      <trkpt lat="42.8904080" lon="-0.2952610">
        <ele>2188.2</ele>
        <time>2020-09-12T06:11:46Z</time>
      </trkpt>
      <trkpt lat="42.8904180" lon="-0.2952270">
        <ele>2187.2</ele>
        <time>2020-09-12T06:11:48Z</time>
      </trkpt>
      <trkpt lat="42.8904220" lon="-0.2951770">
        <ele>2185.8</ele>
        <time>2020-09-12T06:11:51Z</time>
      </trkpt>
      <trkpt lat="42.8904230" lon="-0.2951610">
        <ele>2185.4</ele>
        <time>2020-09-12T06:11:52Z</time>
      </trkpt>
      <trkpt lat="42.8904570" lon="-0.2950630">
        <ele>2184.6</ele>
        <time>2020-09-12T06:11:59Z</time>
      </trkpt>
      <trkpt lat="42.8904670" lon="-0.2950370">
        <ele>2183.8</ele>
        <time>2020-09-12T06:12:02Z</time>
      </trkpt>
      <trkpt lat="42.8904790" lon="-0.2949810">
        <ele>2183.8</ele>
        <time>2020-09-12T06:12:06Z</time>
      </trkpt>
      <trkpt lat="42.8904850" lon="-0.2949690">
        <ele>2183.6</ele>
        <time>2020-09-12T06:12:07Z</time>
      </trkpt>
      <trkpt lat="42.8904910" lon="-0.2949570">
        <ele>2183.2</ele>
        <time>2020-09-12T06:12:09Z</time>
      </trkpt>
      <trkpt lat="42.8905210" lon="-0.2949160">
        <ele>2182.4</ele>
        <time>2020-09-12T06:12:13Z</time>
      </trkpt>
      <trkpt lat="42.8905770" lon="-0.2948470">
        <ele>2181.6</ele>
        <time>2020-09-12T06:12:19Z</time>
      </trkpt>
      <trkpt lat="42.8905880" lon="-0.2947940">
        <ele>2181.0</ele>
        <time>2020-09-12T06:12:22Z</time>
      </trkpt>
      <trkpt lat="42.8906060" lon="-0.2947500">
        <ele>2179.8</ele>
        <time>2020-09-12T06:12:25Z</time>
      </trkpt>
      <trkpt lat="42.8906320" lon="-0.2946760">
        <ele>2178.8</ele>
        <time>2020-09-12T06:12:29Z</time>
      </trkpt>
      <trkpt lat="42.8906440" lon="-0.2946270">
        <ele>2177.4</ele>
        <time>2020-09-12T06:12:32Z</time>
      </trkpt>
      <trkpt lat="42.8906690" lon="-0.2945830">
        <ele>2176.0</ele>
        <time>2020-09-12T06:12:35Z</time>
      </trkpt>
      <trkpt lat="42.8907120" lon="-0.2945100">
        <ele>2174.8</ele>
        <time>2020-09-12T06:12:40Z</time>
      </trkpt>
      <trkpt lat="42.8907320" lon="-0.2944800">
        <ele>2173.8</ele>
        <time>2020-09-12T06:12:43Z</time>
      </trkpt>
      <trkpt lat="42.8907600" lon="-0.2944460">
        <ele>2172.8</ele>
        <time>2020-09-12T06:12:46Z</time>
      </trkpt>
      <trkpt lat="42.8907970" lon="-0.2944000">
        <ele>2171.8</ele>
        <time>2020-09-12T06:12:50Z</time>
      </trkpt>
      <trkpt lat="42.8908490" lon="-0.2943080">
        <ele>2170.6</ele>
        <time>2020-09-12T06:12:56Z</time>
      </trkpt>
      <trkpt lat="42.8909080" lon="-0.2942260">
        <ele>2169.4</ele>
        <time>2020-09-12T06:13:03Z</time>
      </trkpt>
      <trkpt lat="42.8909440" lon="-0.2941900">
        <ele>2168.4</ele>
        <time>2020-09-12T06:13:06Z</time>
      </trkpt>
      <trkpt lat="42.8909610" lon="-0.2941550">
        <ele>2168.2</ele>
        <time>2020-09-12T06:13:09Z</time>
      </trkpt>
      <trkpt lat="42.8909750" lon="-0.2940790">
        <ele>2167.4</ele>
        <time>2020-09-12T06:13:14Z</time>
      </trkpt>
      <trkpt lat="42.8909730" lon="-0.2939760">
        <ele>2166.4</ele>
        <time>2020-09-12T06:13:19Z</time>
      </trkpt>
      <trkpt lat="42.8909760" lon="-0.2939440">
        <ele>2165.8</ele>
        <time>2020-09-12T06:13:21Z</time>
      </trkpt>
      <trkpt lat="42.8909740" lon="-0.2939220">
        <ele>2165.4</ele>
        <time>2020-09-12T06:13:22Z</time>
      </trkpt>
      <trkpt lat="42.8909650" lon="-0.2938040">
        <ele>2164.2</ele>
        <time>2020-09-12T06:13:28Z</time>
      </trkpt>
      <trkpt lat="42.8909650" lon="-0.2937850">
        <ele>2163.8</ele>
        <time>2020-09-12T06:13:29Z</time>
      </trkpt>
      <trkpt lat="42.8909850" lon="-0.2937310">
        <ele>2163.0</ele>
        <time>2020-09-12T06:13:32Z</time>
      </trkpt>
      <trkpt lat="42.8909930" lon="-0.2936590">
        <ele>2161.6</ele>
        <time>2020-09-12T06:13:36Z</time>
      </trkpt>
      <trkpt lat="42.8909920" lon="-0.2936180">
        <ele>2161.2</ele>
        <time>2020-09-12T06:13:38Z</time>
      </trkpt>
      <trkpt lat="42.8910030" lon="-0.2935830">
        <ele>2160.4</ele>
        <time>2020-09-12T06:13:40Z</time>
      </trkpt>
      <trkpt lat="42.8910470" lon="-0.2934760">
        <ele>2159.2</ele>
        <time>2020-09-12T06:13:47Z</time>
      </trkpt>
      <trkpt lat="42.8910620" lon="-0.2934130">
        <ele>2158.2</ele>
        <time>2020-09-12T06:13:50Z</time>
      </trkpt>
      <trkpt lat="42.8910750" lon="-0.2933570">
        <ele>2157.0</ele>
        <time>2020-09-12T06:13:53Z</time>
      </trkpt>
      <trkpt lat="42.8910750" lon="-0.2933440">
        <ele>2156.0</ele>
        <time>2020-09-12T06:13:55Z</time>
      </trkpt>
      <trkpt lat="42.8910870" lon="-0.2932970">
        <ele>2155.4</ele>
        <time>2020-09-12T06:14:00Z</time>
      </trkpt>
      <trkpt lat="42.8911000" lon="-0.2932540">
        <ele>2154.8</ele>
        <time>2020-09-12T06:14:03Z</time>
      </trkpt>
      <trkpt lat="42.8911220" lon="-0.2931530">
        <ele>2153.8</ele>
        <time>2020-09-12T06:14:10Z</time>
      </trkpt>
      <trkpt lat="42.8911270" lon="-0.2931380">
        <ele>2153.8</ele>
        <time>2020-09-12T06:14:11Z</time>
      </trkpt>
      <trkpt lat="42.8911400" lon="-0.2930710">
        <ele>2153.2</ele>
        <time>2020-09-12T06:14:15Z</time>
      </trkpt>
      <trkpt lat="42.8911470" lon="-0.2930350">
        <ele>2152.6</ele>
        <time>2020-09-12T06:14:18Z</time>
      </trkpt>
      <trkpt lat="42.8911690" lon="-0.2929750">
        <ele>2152.4</ele>
        <time>2020-09-12T06:14:22Z</time>
      </trkpt>
      <trkpt lat="42.8911710" lon="-0.2929180">
        <ele>2151.2</ele>
        <time>2020-09-12T06:14:25Z</time>
      </trkpt>
      <trkpt lat="42.8911900" lon="-0.2928440">
        <ele>2150.0</ele>
        <time>2020-09-12T06:14:29Z</time>
      </trkpt>
      <trkpt lat="42.8912000" lon="-0.2927950">
        <ele>2149.0</ele>
        <time>2020-09-12T06:14:32Z</time>
      </trkpt>
      <trkpt lat="42.8912000" lon="-0.2927450">
        <ele>2148.0</ele>
        <time>2020-09-12T06:14:35Z</time>
      </trkpt>
      <trkpt lat="42.8912130" lon="-0.2926940">
        <ele>2146.8</ele>
        <time>2020-09-12T06:14:39Z</time>
      </trkpt>
      <trkpt lat="42.8912340" lon="-0.2926570">
        <ele>2145.8</ele>
        <time>2020-09-12T06:14:42Z</time>
      </trkpt>
      <trkpt lat="42.8912610" lon="-0.2926170">
        <ele>2144.8</ele>
        <time>2020-09-12T06:14:45Z</time>
      </trkpt>
      <trkpt lat="42.8912840" lon="-0.2925790">
        <ele>2143.6</ele>
        <time>2020-09-12T06:14:48Z</time>
      </trkpt>
      <trkpt lat="42.8912880" lon="-0.2925660">
        <ele>2143.2</ele>
        <time>2020-09-12T06:14:49Z</time>
      </trkpt>
      <trkpt lat="42.8912880" lon="-0.2925350">
        <ele>2142.6</ele>
        <time>2020-09-12T06:14:51Z</time>
      </trkpt>
      <trkpt lat="42.8913000" lon="-0.2925110">
        <ele>2142.0</ele>
        <time>2020-09-12T06:14:53Z</time>
      </trkpt>
      <trkpt lat="42.8913180" lon="-0.2924870">
        <ele>2141.4</ele>
        <time>2020-09-12T06:14:55Z</time>
      </trkpt>
      <trkpt lat="42.8913580" lon="-0.2924350">
        <ele>2140.4</ele>
        <time>2020-09-12T06:15:00Z</time>
      </trkpt>
      <trkpt lat="42.8913730" lon="-0.2924210">
        <ele>2139.8</ele>
        <time>2020-09-12T06:15:02Z</time>
      </trkpt>
      <trkpt lat="42.8913810" lon="-0.2923910">
        <ele>2139.2</ele>
        <time>2020-09-12T06:15:04Z</time>
      </trkpt>
      <trkpt lat="42.8914430" lon="-0.2922930">
        <ele>2138.2</ele>
        <time>2020-09-12T06:15:11Z</time>
      </trkpt>
      <trkpt lat="42.8914880" lon="-0.2922030">
        <ele>2137.2</ele>
        <time>2020-09-12T06:15:17Z</time>
      </trkpt>
      <trkpt lat="42.8915260" lon="-0.2921400">
        <ele>2135.6</ele>
        <time>2020-09-12T06:15:21Z</time>
      </trkpt>
      <trkpt lat="42.8915540" lon="-0.2920990">
        <ele>2134.4</ele>
        <time>2020-09-12T06:15:24Z</time>
      </trkpt>
      <trkpt lat="42.8916330" lon="-0.2920000">
        <ele>2133.2</ele>
        <time>2020-09-12T06:15:32Z</time>
      </trkpt>
      <trkpt lat="42.8916720" lon="-0.2919660">
        <ele>2132.0</ele>
        <time>2020-09-12T06:15:36Z</time>
      </trkpt>
      <trkpt lat="42.8917030" lon="-0.2919300">
        <ele>2131.8</ele>
        <time>2020-09-12T06:15:39Z</time>
      </trkpt>
      <trkpt lat="42.8917690" lon="-0.2918800">
        <ele>2130.8</ele>
        <time>2020-09-12T06:15:45Z</time>
      </trkpt>
      <trkpt lat="42.8918200" lon="-0.2918600">
        <ele>2129.6</ele>
        <time>2020-09-12T06:15:49Z</time>
      </trkpt>
      <trkpt lat="42.8919710" lon="-0.2917490">
        <ele>2130.0</ele>
        <time>2020-09-12T06:16:02Z</time>
      </trkpt>
      <trkpt lat="42.8919820" lon="-0.2917290">
        <ele>2129.4</ele>
        <time>2020-09-12T06:16:04Z</time>
      </trkpt>
      <trkpt lat="42.8919950" lon="-0.2917100">
        <ele>2128.8</ele>
        <time>2020-09-12T06:16:06Z</time>
      </trkpt>
      <trkpt lat="42.8920130" lon="-0.2916830">
        <ele>2128.4</ele>
        <time>2020-09-12T06:16:08Z</time>
      </trkpt>
      <trkpt lat="42.8920440" lon="-0.2916400">
        <ele>2127.2</ele>
        <time>2020-09-12T06:16:11Z</time>
      </trkpt>
      <trkpt lat="42.8921350" lon="-0.2915600">
        <ele>2126.6</ele>
        <time>2020-09-12T06:16:18Z</time>
      </trkpt>
      <trkpt lat="42.8921680" lon="-0.2915230">
        <ele>2126.0</ele>
        <time>2020-09-12T06:16:21Z</time>
      </trkpt>
      <trkpt lat="42.8922000" lon="-0.2914800">
        <ele>2124.8</ele>
        <time>2020-09-12T06:16:24Z</time>
      </trkpt>
      <trkpt lat="42.8922070" lon="-0.2914640">
        <ele>2124.6</ele>
        <time>2020-09-12T06:16:25Z</time>
      </trkpt>
      <trkpt lat="42.8922810" lon="-0.2913670">
        <ele>2124.2</ele>
        <time>2020-09-12T06:16:32Z</time>
      </trkpt>
      <trkpt lat="42.8922780" lon="-0.2912620">
        <ele>2125.2</ele>
        <time>2020-09-12T06:16:38Z</time>
      </trkpt>
      <trkpt lat="42.8922300" lon="-0.2910840">
        <ele>2125.8</ele>
        <time>2020-09-12T06:16:45Z</time>
      </trkpt>
      <trkpt lat="42.8922320" lon="-0.2910650">
        <ele>2126.0</ele>
        <time>2020-09-12T06:16:46Z</time>
      </trkpt>
      <trkpt lat="42.8922340" lon="-0.2909490">
        <ele>2126.4</ele>
        <time>2020-09-12T06:16:53Z</time>
      </trkpt>
      <trkpt lat="42.8922580" lon="-0.2907110">
        <ele>2126.4</ele>
        <time>2020-09-12T06:17:08Z</time>
      </trkpt>
      <trkpt lat="42.8922780" lon="-0.2906350">
        <ele>2127.0</ele>
        <time>2020-09-12T06:17:13Z</time>
      </trkpt>
      <trkpt lat="42.8922940" lon="-0.2905130">
        <ele>2127.6</ele>
        <time>2020-09-12T06:17:19Z</time>
      </trkpt>
      <trkpt lat="42.8923830" lon="-0.2902920">
        <ele>2127.6</ele>
        <time>2020-09-12T06:17:34Z</time>
      </trkpt>
      <trkpt lat="42.8924460" lon="-0.2902020">
        <ele>2128.0</ele>
        <time>2020-09-12T06:17:41Z</time>
      </trkpt>
      <trkpt lat="42.8924910" lon="-0.2901350">
        <ele>2129.2</ele>
        <time>2020-09-12T06:17:46Z</time>
      </trkpt>
      <trkpt lat="42.8926130" lon="-0.2899930">
        <ele>2128.6</ele>
        <time>2020-09-12T06:17:58Z</time>
      </trkpt>
      <trkpt lat="42.8926650" lon="-0.2899320">
        <ele>2130.4</ele>
        <time>2020-09-12T06:18:05Z</time>
      </trkpt>
      <trkpt lat="42.8927940" lon="-0.2897670">
        <ele>2129.8</ele>
        <time>2020-09-12T06:18:22Z</time>
      </trkpt>
      <trkpt lat="42.8927920" lon="-0.2897710">
        <ele>2129.6</ele>
        <time>2020-09-12T06:18:23Z</time>
      </trkpt>
      <trkpt lat="42.8927910" lon="-0.2897820">
        <ele>2129.2</ele>
        <time>2020-09-12T06:18:27Z</time>
      </trkpt>
      <trkpt lat="42.8927920" lon="-0.2897830">
        <ele>2129.0</ele>
        <time>2020-09-12T06:18:28Z</time>
      </trkpt>
      <trkpt lat="42.8928940" lon="-0.2895690">
        <ele>2129.4</ele>
        <time>2020-09-12T06:18:40Z</time>
      </trkpt>
      <trkpt lat="42.8930060" lon="-0.2893790">
        <ele>2128.4</ele>
        <time>2020-09-12T06:18:53Z</time>
      </trkpt>
      <trkpt lat="42.8930410" lon="-0.2892960">
        <ele>2128.2</ele>
        <time>2020-09-12T06:18:58Z</time>
      </trkpt>
      <trkpt lat="42.8930510" lon="-0.2890500">
        <ele>2127.4</ele>
        <time>2020-09-12T06:19:10Z</time>
      </trkpt>
      <trkpt lat="42.8930370" lon="-0.2890320">
        <ele>2126.8</ele>
        <time>2020-09-12T06:19:14Z</time>
      </trkpt>
      <trkpt lat="42.8930370" lon="-0.2889700">
        <ele>2125.8</ele>
        <time>2020-09-12T06:19:18Z</time>
      </trkpt>
      <trkpt lat="42.8930590" lon="-0.2887490">
        <ele>2126.0</ele>
        <time>2020-09-12T06:19:30Z</time>
      </trkpt>
      <trkpt lat="42.8930510" lon="-0.2887120">
        <ele>2125.6</ele>
        <time>2020-09-12T06:19:33Z</time>
      </trkpt>
      <trkpt lat="42.8930340" lon="-0.2886870">
        <ele>2125.2</ele>
        <time>2020-09-12T06:19:36Z</time>
      </trkpt>
      <trkpt lat="42.8930250" lon="-0.2886760">
        <ele>2124.8</ele>
        <time>2020-09-12T06:19:37Z</time>
      </trkpt>
      <trkpt lat="42.8930090" lon="-0.2886510">
        <ele>2124.0</ele>
        <time>2020-09-12T06:19:39Z</time>
      </trkpt>
      <trkpt lat="42.8930020" lon="-0.2886340">
        <ele>2123.8</ele>
        <time>2020-09-12T06:19:40Z</time>
      </trkpt>
      <trkpt lat="42.8929550" lon="-0.2885340">
        <ele>2122.8</ele>
        <time>2020-09-12T06:19:47Z</time>
      </trkpt>
      <trkpt lat="42.8929470" lon="-0.2885180">
        <ele>2122.6</ele>
        <time>2020-09-12T06:19:48Z</time>
      </trkpt>
      <trkpt lat="42.8929430" lon="-0.2885030">
        <ele>2122.4</ele>
        <time>2020-09-12T06:19:49Z</time>
      </trkpt>
      <trkpt lat="42.8929370" lon="-0.2884370">
        <ele>2121.6</ele>
        <time>2020-09-12T06:19:54Z</time>
      </trkpt>
      <trkpt lat="42.8929230" lon="-0.2883850">
        <ele>2120.2</ele>
        <time>2020-09-12T06:19:58Z</time>
      </trkpt>
      <trkpt lat="42.8929120" lon="-0.2883620">
        <ele>2119.4</ele>
        <time>2020-09-12T06:20:01Z</time>
      </trkpt>
      <trkpt lat="42.8929090" lon="-0.2883550">
        <ele>2119.0</ele>
        <time>2020-09-12T06:20:02Z</time>
      </trkpt>
      <trkpt lat="42.8929050" lon="-0.2883490">
        <ele>2118.8</ele>
        <time>2020-09-12T06:20:03Z</time>
      </trkpt>
      <trkpt lat="42.8928940" lon="-0.2883320">
        <ele>2117.8</ele>
        <time>2020-09-12T06:20:06Z</time>
      </trkpt>
      <trkpt lat="42.8928880" lon="-0.2883110">
        <ele>2117.4</ele>
        <time>2020-09-12T06:20:08Z</time>
      </trkpt>
      <trkpt lat="42.8928790" lon="-0.2883030">
        <ele>2117.0</ele>
        <time>2020-09-12T06:20:10Z</time>
      </trkpt>
      <trkpt lat="42.8928660" lon="-0.2882840">
        <ele>2116.8</ele>
        <time>2020-09-12T06:20:12Z</time>
      </trkpt>
      <trkpt lat="42.8928440" lon="-0.2882590">
        <ele>2116.6</ele>
        <time>2020-09-12T06:20:14Z</time>
      </trkpt>
      <trkpt lat="42.8927800" lon="-0.2882390">
        <ele>2115.6</ele>
        <time>2020-09-12T06:20:20Z</time>
      </trkpt>
      <trkpt lat="42.8927270" lon="-0.2882460">
        <ele>2114.4</ele>
        <time>2020-09-12T06:20:24Z</time>
      </trkpt>
      <trkpt lat="42.8926990" lon="-0.2882470">
        <ele>2113.4</ele>
        <time>2020-09-12T06:20:27Z</time>
      </trkpt>
      <trkpt lat="42.8926920" lon="-0.2882420">
        <ele>2113.0</ele>
        <time>2020-09-12T06:20:28Z</time>
      </trkpt>
      <trkpt lat="42.8926790" lon="-0.2882310">
        <ele>2112.0</ele>
        <time>2020-09-12T06:20:30Z</time>
      </trkpt>
      <trkpt lat="42.8926550" lon="-0.2882330">
        <ele>2111.0</ele>
        <time>2020-09-12T06:20:33Z</time>
      </trkpt>
      <trkpt lat="42.8926470" lon="-0.2882450">
        <ele>2110.8</ele>
        <time>2020-09-12T06:20:34Z</time>
      </trkpt>
      <trkpt lat="42.8926340" lon="-0.2882550">
        <ele>2110.4</ele>
        <time>2020-09-12T06:20:36Z</time>
      </trkpt>
      <trkpt lat="42.8926350" lon="-0.2882450">
        <ele>2109.6</ele>
        <time>2020-09-12T06:20:38Z</time>
      </trkpt>
      <trkpt lat="42.8926440" lon="-0.2882360">
        <ele>2108.2</ele>
        <time>2020-09-12T06:20:40Z</time>
      </trkpt>
      <trkpt lat="42.8926480" lon="-0.2882290">
        <ele>2107.8</ele>
        <time>2020-09-12T06:20:41Z</time>
      </trkpt>
      <trkpt lat="42.8926530" lon="-0.2882100">
        <ele>2107.4</ele>
        <time>2020-09-12T06:20:43Z</time>
      </trkpt>
      <trkpt lat="42.8926560" lon="-0.2882060">
        <ele>2107.0</ele>
        <time>2020-09-12T06:20:45Z</time>
      </trkpt>
      <trkpt lat="42.8926970" lon="-0.2880750">
        <ele>2106.0</ele>
        <time>2020-09-12T06:20:54Z</time>
      </trkpt>
      <trkpt lat="42.8927170" lon="-0.2880280">
        <ele>2104.6</ele>
        <time>2020-09-12T06:20:57Z</time>
      </trkpt>
      <trkpt lat="42.8927580" lon="-0.2878820">
        <ele>2103.6</ele>
        <time>2020-09-12T06:21:06Z</time>
      </trkpt>
      <trkpt lat="42.8927600" lon="-0.2878660">
        <ele>2103.2</ele>
        <time>2020-09-12T06:21:07Z</time>
      </trkpt>
      <trkpt lat="42.8927630" lon="-0.2878260">
        <ele>2102.8</ele>
        <time>2020-09-12T06:21:10Z</time>
      </trkpt>
      <trkpt lat="42.8927480" lon="-0.2877630">
        <ele>2102.0</ele>
        <time>2020-09-12T06:21:14Z</time>
      </trkpt>
      <trkpt lat="42.8927520" lon="-0.2877230">
        <ele>2100.8</ele>
        <time>2020-09-12T06:21:16Z</time>
      </trkpt>
      <trkpt lat="42.8927500" lon="-0.2876910">
        <ele>2099.4</ele>
        <time>2020-09-12T06:21:18Z</time>
      </trkpt>
      <trkpt lat="42.8927500" lon="-0.2875470">
        <ele>2098.2</ele>
        <time>2020-09-12T06:21:26Z</time>
      </trkpt>
      <trkpt lat="42.8927710" lon="-0.2874450">
        <ele>2097.8</ele>
        <time>2020-09-12T06:21:31Z</time>
      </trkpt>
      <trkpt lat="42.8927620" lon="-0.2874260">
        <ele>2097.2</ele>
        <time>2020-09-12T06:21:33Z</time>
      </trkpt>
      <trkpt lat="42.8927560" lon="-0.2874140">
        <ele>2096.8</ele>
        <time>2020-09-12T06:21:34Z</time>
      </trkpt>
      <trkpt lat="42.8927410" lon="-0.2873810">
        <ele>2096.0</ele>
        <time>2020-09-12T06:21:36Z</time>
      </trkpt>
      <trkpt lat="42.8927320" lon="-0.2873590">
        <ele>2095.2</ele>
        <time>2020-09-12T06:21:38Z</time>
      </trkpt>
      <trkpt lat="42.8927220" lon="-0.2873530">
        <ele>2094.8</ele>
        <time>2020-09-12T06:21:39Z</time>
      </trkpt>
      <trkpt lat="42.8927140" lon="-0.2873450">
        <ele>2094.4</ele>
        <time>2020-09-12T06:21:40Z</time>
      </trkpt>
      <trkpt lat="42.8927190" lon="-0.2873260">
        <ele>2093.8</ele>
        <time>2020-09-12T06:21:42Z</time>
      </trkpt>
      <trkpt lat="42.8927080" lon="-0.2872970">
        <ele>2092.4</ele>
        <time>2020-09-12T06:21:45Z</time>
      </trkpt>
      <trkpt lat="42.8927000" lon="-0.2872910">
        <ele>2092.0</ele>
        <time>2020-09-12T06:21:46Z</time>
      </trkpt>
      <trkpt lat="42.8926940" lon="-0.2872830">
        <ele>2091.6</ele>
        <time>2020-09-12T06:21:47Z</time>
      </trkpt>
      <trkpt lat="42.8926880" lon="-0.2872740">
        <ele>2091.0</ele>
        <time>2020-09-12T06:21:48Z</time>
      </trkpt>
      <trkpt lat="42.8926780" lon="-0.2872730">
        <ele>2090.6</ele>
        <time>2020-09-12T06:21:49Z</time>
      </trkpt>
      <trkpt lat="42.8926620" lon="-0.2872680">
        <ele>2089.8</ele>
        <time>2020-09-12T06:21:51Z</time>
      </trkpt>
      <trkpt lat="42.8926590" lon="-0.2872460">
        <ele>2088.6</ele>
        <time>2020-09-12T06:21:54Z</time>
      </trkpt>
      <trkpt lat="42.8926590" lon="-0.2872320">
        <ele>2088.2</ele>
        <time>2020-09-12T06:21:55Z</time>
      </trkpt>
      <trkpt lat="42.8926510" lon="-0.2872170">
        <ele>2087.6</ele>
        <time>2020-09-12T06:21:57Z</time>
      </trkpt>
      <trkpt lat="42.8926500" lon="-0.2872220">
        <ele>2086.8</ele>
        <time>2020-09-12T06:21:59Z</time>
      </trkpt>
      <trkpt lat="42.8926520" lon="-0.2872270">
        <ele>2086.6</ele>
        <time>2020-09-12T06:22:00Z</time>
      </trkpt>
      <trkpt lat="42.8926630" lon="-0.2872190">
        <ele>2085.8</ele>
        <time>2020-09-12T06:22:03Z</time>
      </trkpt>
      <trkpt lat="42.8926630" lon="-0.2872080">
        <ele>2085.6</ele>
        <time>2020-09-12T06:22:04Z</time>
      </trkpt>
      <trkpt lat="42.8926560" lon="-0.2871990">
        <ele>2085.2</ele>
        <time>2020-09-12T06:22:05Z</time>
      </trkpt>
      <trkpt lat="42.8926450" lon="-0.2871830">
        <ele>2084.4</ele>
        <time>2020-09-12T06:22:07Z</time>
      </trkpt>
      <trkpt lat="42.8926300" lon="-0.2871370">
        <ele>2083.4</ele>
        <time>2020-09-12T06:22:12Z</time>
      </trkpt>
      <trkpt lat="42.8926100" lon="-0.2871000">
        <ele>2082.4</ele>
        <time>2020-09-12T06:22:16Z</time>
      </trkpt>
      <trkpt lat="42.8926090" lon="-0.2870910">
        <ele>2082.0</ele>
        <time>2020-09-12T06:22:17Z</time>
      </trkpt>
      <trkpt lat="42.8926160" lon="-0.2870660">
        <ele>2081.0</ele>
        <time>2020-09-12T06:22:19Z</time>
      </trkpt>
      <trkpt lat="42.8926230" lon="-0.2870560">
        <ele>2080.6</ele>
        <time>2020-09-12T06:22:20Z</time>
      </trkpt>
      <trkpt lat="42.8926280" lon="-0.2870460">
        <ele>2080.0</ele>
        <time>2020-09-12T06:22:21Z</time>
      </trkpt>
      <trkpt lat="42.8926140" lon="-0.2870310">
        <ele>2078.8</ele>
        <time>2020-09-12T06:22:24Z</time>
      </trkpt>
      <trkpt lat="42.8926110" lon="-0.2870200">
        <ele>2078.4</ele>
        <time>2020-09-12T06:22:26Z</time>
      </trkpt>
      <trkpt lat="42.8925990" lon="-0.2870050">
        <ele>2077.8</ele>
        <time>2020-09-12T06:22:28Z</time>
      </trkpt>
      <trkpt lat="42.8925970" lon="-0.2869380">
        <ele>2076.4</ele>
        <time>2020-09-12T06:22:33Z</time>
      </trkpt>
      <trkpt lat="42.8925720" lon="-0.2869230">
        <ele>2075.2</ele>
        <time>2020-09-12T06:22:36Z</time>
      </trkpt>
      <trkpt lat="42.8925660" lon="-0.2869120">
        <ele>2074.6</ele>
        <time>2020-09-12T06:22:37Z</time>
      </trkpt>
      <trkpt lat="42.8925650" lon="-0.2868840">
        <ele>2074.0</ele>
        <time>2020-09-12T06:22:39Z</time>
      </trkpt>
      <trkpt lat="42.8925620" lon="-0.2868770">
        <ele>2073.8</ele>
        <time>2020-09-12T06:22:40Z</time>
      </trkpt>
      <trkpt lat="42.8925570" lon="-0.2868570">
        <ele>2073.0</ele>
        <time>2020-09-12T06:22:42Z</time>
      </trkpt>
      <trkpt lat="42.8925540" lon="-0.2868480">
        <ele>2072.6</ele>
        <time>2020-09-12T06:22:43Z</time>
      </trkpt>
      <trkpt lat="42.8925460" lon="-0.2868430">
        <ele>2072.4</ele>
        <time>2020-09-12T06:22:44Z</time>
      </trkpt>
      <trkpt lat="42.8925360" lon="-0.2868310">
        <ele>2071.6</ele>
        <time>2020-09-12T06:22:46Z</time>
      </trkpt>
      <trkpt lat="42.8925380" lon="-0.2868220">
        <ele>2071.0</ele>
        <time>2020-09-12T06:22:47Z</time>
      </trkpt>
      <trkpt lat="42.8925460" lon="-0.2867940">
        <ele>2070.4</ele>
        <time>2020-09-12T06:22:49Z</time>
      </trkpt>
      <trkpt lat="42.8925430" lon="-0.2867810">
        <ele>2070.0</ele>
        <time>2020-09-12T06:22:50Z</time>
      </trkpt>
      <trkpt lat="42.8925240" lon="-0.2867420">
        <ele>2069.0</ele>
        <time>2020-09-12T06:22:53Z</time>
      </trkpt>
      <trkpt lat="42.8925200" lon="-0.2867300">
        <ele>2068.6</ele>
        <time>2020-09-12T06:22:54Z</time>
      </trkpt>
      <trkpt lat="42.8925210" lon="-0.2867000">
        <ele>2067.8</ele>
        <time>2020-09-12T06:22:56Z</time>
      </trkpt>
      <trkpt lat="42.8925100" lon="-0.2866560">
        <ele>2067.6</ele>
        <time>2020-09-12T06:23:00Z</time>
      </trkpt>
      <trkpt lat="42.8924750" lon="-0.2866670">
        <ele>2066.6</ele>
        <time>2020-09-12T06:23:04Z</time>
      </trkpt>
      <trkpt lat="42.8924640" lon="-0.2866530">
        <ele>2065.4</ele>
        <time>2020-09-12T06:23:06Z</time>
      </trkpt>
      <trkpt lat="42.8924530" lon="-0.2866220">
        <ele>2064.2</ele>
        <time>2020-09-12T06:23:09Z</time>
      </trkpt>
      <trkpt lat="42.8924520" lon="-0.2866010">
        <ele>2063.6</ele>
        <time>2020-09-12T06:23:11Z</time>
      </trkpt>
      <trkpt lat="42.8924450" lon="-0.2865990">
        <ele>2063.0</ele>
        <time>2020-09-12T06:23:13Z</time>
      </trkpt>
      <trkpt lat="42.8924380" lon="-0.2865870">
        <ele>2061.8</ele>
        <time>2020-09-12T06:23:16Z</time>
      </trkpt>
      <trkpt lat="42.8924100" lon="-0.2865880">
        <ele>2060.6</ele>
        <time>2020-09-12T06:23:20Z</time>
      </trkpt>
      <trkpt lat="42.8923860" lon="-0.2866060">
        <ele>2059.4</ele>
        <time>2020-09-12T06:23:23Z</time>
      </trkpt>
      <trkpt lat="42.8923630" lon="-0.2866140">
        <ele>2058.0</ele>
        <time>2020-09-12T06:23:28Z</time>
      </trkpt>
      <trkpt lat="42.8923550" lon="-0.2866050">
        <ele>2057.0</ele>
        <time>2020-09-12T06:23:30Z</time>
      </trkpt>
      <trkpt lat="42.8923300" lon="-0.2865680">
        <ele>2055.8</ele>
        <time>2020-09-12T06:23:35Z</time>
      </trkpt>
      <trkpt lat="42.8923100" lon="-0.2865300">
        <ele>2054.6</ele>
        <time>2020-09-12T06:23:39Z</time>
      </trkpt>
      <trkpt lat="42.8923090" lon="-0.2865060">
        <ele>2053.2</ele>
        <time>2020-09-12T06:23:42Z</time>
      </trkpt>
      <trkpt lat="42.8922830" lon="-0.2864880">
        <ele>2052.0</ele>
        <time>2020-09-12T06:23:45Z</time>
      </trkpt>
      <trkpt lat="42.8922580" lon="-0.2864560">
        <ele>2050.6</ele>
        <time>2020-09-12T06:23:48Z</time>
      </trkpt>
      <trkpt lat="42.8922430" lon="-0.2864210">
        <ele>2049.2</ele>
        <time>2020-09-12T06:23:51Z</time>
      </trkpt>
      <trkpt lat="42.8922360" lon="-0.2864080">
        <ele>2048.2</ele>
        <time>2020-09-12T06:23:53Z</time>
      </trkpt>
      <trkpt lat="42.8922070" lon="-0.2863870">
        <ele>2047.0</ele>
        <time>2020-09-12T06:23:57Z</time>
      </trkpt>
      <trkpt lat="42.8922050" lon="-0.2863730">
        <ele>2045.8</ele>
        <time>2020-09-12T06:24:00Z</time>
      </trkpt>
      <trkpt lat="42.8921920" lon="-0.2863610">
        <ele>2044.8</ele>
        <time>2020-09-12T06:24:04Z</time>
      </trkpt>
      <trkpt lat="42.8921710" lon="-0.2863400">
        <ele>2043.6</ele>
        <time>2020-09-12T06:24:08Z</time>
      </trkpt>
      <trkpt lat="42.8921430" lon="-0.2863380">
        <ele>2042.4</ele>
        <time>2020-09-12T06:24:11Z</time>
      </trkpt>
      <trkpt lat="42.8921280" lon="-0.2863260">
        <ele>2041.2</ele>
        <time>2020-09-12T06:24:13Z</time>
      </trkpt>
      <trkpt lat="42.8921180" lon="-0.2863070">
        <ele>2040.2</ele>
        <time>2020-09-12T06:24:16Z</time>
      </trkpt>
      <trkpt lat="42.8921020" lon="-0.2863000">
        <ele>2038.8</ele>
        <time>2020-09-12T06:24:21Z</time>
      </trkpt>
      <trkpt lat="42.8921070" lon="-0.2862510">
        <ele>2037.8</ele>
        <time>2020-09-12T06:24:25Z</time>
      </trkpt>
      <trkpt lat="42.8920880" lon="-0.2861570">
        <ele>2036.6</ele>
        <time>2020-09-12T06:24:31Z</time>
      </trkpt>
      <trkpt lat="42.8920660" lon="-0.2861020">
        <ele>2035.4</ele>
        <time>2020-09-12T06:24:35Z</time>
      </trkpt>
      <trkpt lat="42.8920530" lon="-0.2860690">
        <ele>2034.8</ele>
        <time>2020-09-12T06:24:38Z</time>
      </trkpt>
      <trkpt lat="42.8920530" lon="-0.2860550">
        <ele>2034.4</ele>
        <time>2020-09-12T06:24:40Z</time>
      </trkpt>
      <trkpt lat="42.8920420" lon="-0.2859870">
        <ele>2033.2</ele>
        <time>2020-09-12T06:24:45Z</time>
      </trkpt>
      <trkpt lat="42.8920380" lon="-0.2859600">
        <ele>2032.2</ele>
        <time>2020-09-12T06:24:48Z</time>
      </trkpt>
      <trkpt lat="42.8920360" lon="-0.2859480">
        <ele>2032.0</ele>
        <time>2020-09-12T06:24:49Z</time>
      </trkpt>
      <trkpt lat="42.8920350" lon="-0.2859030">
        <ele>2031.0</ele>
        <time>2020-09-12T06:24:52Z</time>
      </trkpt>
      <trkpt lat="42.8920270" lon="-0.2858360">
        <ele>2030.0</ele>
        <time>2020-09-12T06:24:56Z</time>
      </trkpt>
      <trkpt lat="42.8920200" lon="-0.2857870">
        <ele>2029.0</ele>
        <time>2020-09-12T06:25:00Z</time>
      </trkpt>
      <trkpt lat="42.8920140" lon="-0.2857860">
        <ele>2028.6</ele>
        <time>2020-09-12T06:25:01Z</time>
      </trkpt>
      <trkpt lat="42.8920070" lon="-0.2857840">
        <ele>2028.4</ele>
        <time>2020-09-12T06:25:02Z</time>
      </trkpt>
      <trkpt lat="42.8919850" lon="-0.2857430">
        <ele>2027.2</ele>
        <time>2020-09-12T06:25:06Z</time>
      </trkpt>
      <trkpt lat="42.8919760" lon="-0.2857090">
        <ele>2026.0</ele>
        <time>2020-09-12T06:25:09Z</time>
      </trkpt>
      <trkpt lat="42.8919620" lon="-0.2856910">
        <ele>2025.0</ele>
        <time>2020-09-12T06:25:12Z</time>
      </trkpt>
      <trkpt lat="42.8919520" lon="-0.2856490">
        <ele>2023.8</ele>
        <time>2020-09-12T06:25:15Z</time>
      </trkpt>
      <trkpt lat="42.8919410" lon="-0.2856050">
        <ele>2022.8</ele>
        <time>2020-09-12T06:25:19Z</time>
      </trkpt>
      <trkpt lat="42.8919210" lon="-0.2855740">
        <ele>2021.8</ele>
        <time>2020-09-12T06:25:23Z</time>
      </trkpt>
      <trkpt lat="42.8919080" lon="-0.2855120">
        <ele>2020.6</ele>
        <time>2020-09-12T06:25:28Z</time>
      </trkpt>
      <trkpt lat="42.8918920" lon="-0.2854700">
        <ele>2019.2</ele>
        <time>2020-09-12T06:25:33Z</time>
      </trkpt>
      <trkpt lat="42.8918840" lon="-0.2854500">
        <ele>2018.2</ele>
        <time>2020-09-12T06:25:35Z</time>
      </trkpt>
      <trkpt lat="42.8918770" lon="-0.2854150">
        <ele>2017.0</ele>
        <time>2020-09-12T06:25:38Z</time>
      </trkpt>
      <trkpt lat="42.8918630" lon="-0.2853730">
        <ele>2016.0</ele>
        <time>2020-09-12T06:25:42Z</time>
      </trkpt>
      <trkpt lat="42.8918580" lon="-0.2853630">
        <ele>2015.8</ele>
        <time>2020-09-12T06:25:43Z</time>
      </trkpt>
      <trkpt lat="42.8918430" lon="-0.2853370">
        <ele>2015.2</ele>
        <time>2020-09-12T06:25:45Z</time>
      </trkpt>
      <trkpt lat="42.8918360" lon="-0.2853250">
        <ele>2014.8</ele>
        <time>2020-09-12T06:25:46Z</time>
      </trkpt>
      <trkpt lat="42.8918220" lon="-0.2852730">
        <ele>2013.8</ele>
        <time>2020-09-12T06:25:50Z</time>
      </trkpt>
      <trkpt lat="42.8918140" lon="-0.2852270">
        <ele>2013.0</ele>
        <time>2020-09-12T06:25:54Z</time>
      </trkpt>
      <trkpt lat="42.8918140" lon="-0.2852150">
        <ele>2012.6</ele>
        <time>2020-09-12T06:25:55Z</time>
      </trkpt>
      <trkpt lat="42.8918170" lon="-0.2851960">
        <ele>2011.8</ele>
        <time>2020-09-12T06:25:57Z</time>
      </trkpt>
      <trkpt lat="42.8918190" lon="-0.2851830">
        <ele>2011.4</ele>
        <time>2020-09-12T06:25:58Z</time>
      </trkpt>
      <trkpt lat="42.8918160" lon="-0.2850670">
        <ele>2010.6</ele>
        <time>2020-09-12T06:26:04Z</time>
      </trkpt>
      <trkpt lat="42.8918200" lon="-0.2850540">
        <ele>2010.2</ele>
        <time>2020-09-12T06:26:05Z</time>
      </trkpt>
      <trkpt lat="42.8918240" lon="-0.2850210">
        <ele>2009.2</ele>
        <time>2020-09-12T06:26:08Z</time>
      </trkpt>
      <trkpt lat="42.8918030" lon="-0.2850240">
        <ele>2008.4</ele>
        <time>2020-09-12T06:26:11Z</time>
      </trkpt>
      <trkpt lat="42.8918010" lon="-0.2850150">
        <ele>2008.2</ele>
        <time>2020-09-12T06:26:12Z</time>
      </trkpt>
      <trkpt lat="42.8918110" lon="-0.2849490">
        <ele>2006.8</ele>
        <time>2020-09-12T06:26:16Z</time>
      </trkpt>
      <trkpt lat="42.8917880" lon="-0.2849300">
        <ele>2005.6</ele>
        <time>2020-09-12T06:26:20Z</time>
      </trkpt>
      <trkpt lat="42.8917500" lon="-0.2849420">
        <ele>2004.6</ele>
        <time>2020-09-12T06:26:24Z</time>
      </trkpt>
      <trkpt lat="42.8917310" lon="-0.2849340">
        <ele>2004.2</ele>
        <time>2020-09-12T06:26:26Z</time>
      </trkpt>
      <trkpt lat="42.8917290" lon="-0.2849130">
        <ele>2003.4</ele>
        <time>2020-09-12T06:26:28Z</time>
      </trkpt>
      <trkpt lat="42.8917450" lon="-0.2848840">
        <ele>2002.2</ele>
        <time>2020-09-12T06:26:31Z</time>
      </trkpt>
      <trkpt lat="42.8917950" lon="-0.2848540">
        <ele>2001.2</ele>
        <time>2020-09-12T06:26:35Z</time>
      </trkpt>
      <trkpt lat="42.8918070" lon="-0.2848410">
        <ele>2000.8</ele>
        <time>2020-09-12T06:26:37Z</time>
      </trkpt>
      <trkpt lat="42.8918090" lon="-0.2848370">
        <ele>2000.4</ele>
        <time>2020-09-12T06:26:39Z</time>
      </trkpt>
      <trkpt lat="42.8917950" lon="-0.2848260">
        <ele>1999.8</ele>
        <time>2020-09-12T06:26:41Z</time>
      </trkpt>
      <trkpt lat="42.8917760" lon="-0.2848230">
        <ele>1999.4</ele>
        <time>2020-09-12T06:26:43Z</time>
      </trkpt>
      <trkpt lat="42.8917420" lon="-0.2848250">
        <ele>1998.6</ele>
        <time>2020-09-12T06:26:46Z</time>
      </trkpt>
      <trkpt lat="42.8917060" lon="-0.2848300">
        <ele>1997.4</ele>
        <time>2020-09-12T06:26:49Z</time>
      </trkpt>
      <trkpt lat="42.8916590" lon="-0.2848420">
        <ele>1996.4</ele>
        <time>2020-09-12T06:26:54Z</time>
      </trkpt>
      <trkpt lat="42.8916530" lon="-0.2848330">
        <ele>1996.2</ele>
        <time>2020-09-12T06:26:55Z</time>
      </trkpt>
      <trkpt lat="42.8916370" lon="-0.2847770">
        <ele>1995.0</ele>
        <time>2020-09-12T06:27:00Z</time>
      </trkpt>
      <trkpt lat="42.8916420" lon="-0.2847480">
        <ele>1994.0</ele>
        <time>2020-09-12T06:27:03Z</time>
      </trkpt>
      <trkpt lat="42.8916450" lon="-0.2847380">
        <ele>1993.8</ele>
        <time>2020-09-12T06:27:04Z</time>
      </trkpt>
      <trkpt lat="42.8916450" lon="-0.2847240">
        <ele>1993.6</ele>
        <time>2020-09-12T06:27:05Z</time>
      </trkpt>
      <trkpt lat="42.8916380" lon="-0.2847100">
        <ele>1992.8</ele>
        <time>2020-09-12T06:27:08Z</time>
      </trkpt>
      <trkpt lat="42.8916290" lon="-0.2847140">
        <ele>1992.6</ele>
        <time>2020-09-12T06:27:09Z</time>
      </trkpt>
      <trkpt lat="42.8916210" lon="-0.2847230">
        <ele>1992.2</ele>
        <time>2020-09-12T06:27:10Z</time>
      </trkpt>
      <trkpt lat="42.8916020" lon="-0.2847490">
        <ele>1991.6</ele>
        <time>2020-09-12T06:27:13Z</time>
      </trkpt>
      <trkpt lat="42.8915920" lon="-0.2847360">
        <ele>1991.4</ele>
        <time>2020-09-12T06:27:14Z</time>
      </trkpt>
      <trkpt lat="42.8915700" lon="-0.2846580">
        <ele>1990.2</ele>
        <time>2020-09-12T06:27:18Z</time>
      </trkpt>
      <trkpt lat="42.8915670" lon="-0.2846070">
        <ele>1989.0</ele>
        <time>2020-09-12T06:27:21Z</time>
      </trkpt>
      <trkpt lat="42.8915530" lon="-0.2845350">
        <ele>1987.8</ele>
        <time>2020-09-12T06:27:25Z</time>
      </trkpt>
      <trkpt lat="42.8915310" lon="-0.2845510">
        <ele>1987.4</ele>
        <time>2020-09-12T06:27:27Z</time>
      </trkpt>
      <trkpt lat="42.8915100" lon="-0.2846040">
        <ele>1986.4</ele>
        <time>2020-09-12T06:27:30Z</time>
      </trkpt>
      <trkpt lat="42.8915000" lon="-0.2846070">
        <ele>1986.0</ele>
        <time>2020-09-12T06:27:31Z</time>
      </trkpt>
      <trkpt lat="42.8914840" lon="-0.2845880">
        <ele>1985.2</ele>
        <time>2020-09-12T06:27:33Z</time>
      </trkpt>
      <trkpt lat="42.8914800" lon="-0.2845790">
        <ele>1984.6</ele>
        <time>2020-09-12T06:27:36Z</time>
      </trkpt>
      <trkpt lat="42.8914740" lon="-0.2845060">
        <ele>1984.2</ele>
        <time>2020-09-12T06:27:41Z</time>
      </trkpt>
      <trkpt lat="42.8914780" lon="-0.2844450">
        <ele>1982.8</ele>
        <time>2020-09-12T06:27:45Z</time>
      </trkpt>
      <trkpt lat="42.8914940" lon="-0.2844110">
        <ele>1982.0</ele>
        <time>2020-09-12T06:27:48Z</time>
      </trkpt>
      <trkpt lat="42.8914990" lon="-0.2844010">
        <ele>1981.8</ele>
        <time>2020-09-12T06:27:49Z</time>
      </trkpt>
      <trkpt lat="42.8915030" lon="-0.2843940">
        <ele>1981.4</ele>
        <time>2020-09-12T06:27:50Z</time>
      </trkpt>
      <trkpt lat="42.8914800" lon="-0.2843960">
        <ele>1980.6</ele>
        <time>2020-09-12T06:27:55Z</time>
      </trkpt>
      <trkpt lat="42.8914460" lon="-0.2843930">
        <ele>1979.4</ele>
        <time>2020-09-12T06:28:01Z</time>
      </trkpt>
      <trkpt lat="42.8914310" lon="-0.2843690">
        <ele>1978.2</ele>
        <time>2020-09-12T06:28:05Z</time>
      </trkpt>
      <trkpt lat="42.8914070" lon="-0.2843810">
        <ele>1976.8</ele>
        <time>2020-09-12T06:28:09Z</time>
      </trkpt>
      <trkpt lat="42.8913830" lon="-0.2843680">
        <ele>1975.6</ele>
        <time>2020-09-12T06:28:12Z</time>
      </trkpt>
      <trkpt lat="42.8913650" lon="-0.2843960">
        <ele>1974.4</ele>
        <time>2020-09-12T06:28:15Z</time>
      </trkpt>
      <trkpt lat="42.8913520" lon="-0.2844170">
        <ele>1973.8</ele>
        <time>2020-09-12T06:28:17Z</time>
      </trkpt>
      <trkpt lat="42.8913390" lon="-0.2844240">
        <ele>1973.2</ele>
        <time>2020-09-12T06:28:19Z</time>
      </trkpt>
      <trkpt lat="42.8913150" lon="-0.2843670">
        <ele>1972.0</ele>
        <time>2020-09-12T06:28:23Z</time>
      </trkpt>
      <trkpt lat="42.8913150" lon="-0.2843520">
        <ele>1971.8</ele>
        <time>2020-09-12T06:28:24Z</time>
      </trkpt>
      <trkpt lat="42.8912980" lon="-0.2843410">
        <ele>1971.2</ele>
        <time>2020-09-12T06:28:27Z</time>
      </trkpt>
      <trkpt lat="42.8912910" lon="-0.2843510">
        <ele>1970.8</ele>
        <time>2020-09-12T06:28:28Z</time>
      </trkpt>
      <trkpt lat="42.8912550" lon="-0.2844300">
        <ele>1969.6</ele>
        <time>2020-09-12T06:28:34Z</time>
      </trkpt>
      <trkpt lat="42.8912430" lon="-0.2844780">
        <ele>1968.6</ele>
        <time>2020-09-12T06:28:37Z</time>
      </trkpt>
      <trkpt lat="42.8912260" lon="-0.2845310">
        <ele>1967.6</ele>
        <time>2020-09-12T06:28:41Z</time>
      </trkpt>
      <trkpt lat="42.8912100" lon="-0.2845740">
        <ele>1966.4</ele>
        <time>2020-09-12T06:28:44Z</time>
      </trkpt>
      <trkpt lat="42.8911850" lon="-0.2846420">
        <ele>1965.4</ele>
        <time>2020-09-12T06:28:48Z</time>
      </trkpt>
      <trkpt lat="42.8911630" lon="-0.2847170">
        <ele>1964.4</ele>
        <time>2020-09-12T06:28:52Z</time>
      </trkpt>
      <trkpt lat="42.8911520" lon="-0.2847400">
        <ele>1963.8</ele>
        <time>2020-09-12T06:28:54Z</time>
      </trkpt>
      <trkpt lat="42.8911410" lon="-0.2847310">
        <ele>1963.4</ele>
        <time>2020-09-12T06:28:56Z</time>
      </trkpt>
      <trkpt lat="42.8911310" lon="-0.2846830">
        <ele>1962.2</ele>
        <time>2020-09-12T06:28:59Z</time>
      </trkpt>
      <trkpt lat="42.8911120" lon="-0.2845790">
        <ele>1960.8</ele>
        <time>2020-09-12T06:29:04Z</time>
      </trkpt>
      <trkpt lat="42.8911070" lon="-0.2845350">
        <ele>1960.0</ele>
        <time>2020-09-12T06:29:07Z</time>
      </trkpt>
      <trkpt lat="42.8910950" lon="-0.2845320">
        <ele>1959.8</ele>
        <time>2020-09-12T06:29:09Z</time>
      </trkpt>
      <trkpt lat="42.8910900" lon="-0.2845260">
        <ele>1959.4</ele>
        <time>2020-09-12T06:29:10Z</time>
      </trkpt>
      <trkpt lat="42.8910810" lon="-0.2844880">
        <ele>1958.6</ele>
        <time>2020-09-12T06:29:13Z</time>
      </trkpt>
      <trkpt lat="42.8910670" lon="-0.2844600">
        <ele>1957.6</ele>
        <time>2020-09-12T06:29:15Z</time>
      </trkpt>
      <trkpt lat="42.8910610" lon="-0.2844450">
        <ele>1957.2</ele>
        <time>2020-09-12T06:29:16Z</time>
      </trkpt>
      <trkpt lat="42.8910500" lon="-0.2844300">
        <ele>1956.4</ele>
        <time>2020-09-12T06:29:18Z</time>
      </trkpt>
      <trkpt lat="42.8910370" lon="-0.2844420">
        <ele>1955.8</ele>
        <time>2020-09-12T06:29:20Z</time>
      </trkpt>
      <trkpt lat="42.8910190" lon="-0.2844390">
        <ele>1955.0</ele>
        <time>2020-09-12T06:29:22Z</time>
      </trkpt>
      <trkpt lat="42.8910150" lon="-0.2844290">
        <ele>1954.4</ele>
        <time>2020-09-12T06:29:23Z</time>
      </trkpt>
      <trkpt lat="42.8910080" lon="-0.2843940">
        <ele>1953.6</ele>
        <time>2020-09-12T06:29:25Z</time>
      </trkpt>
      <trkpt lat="42.8910020" lon="-0.2843800">
        <ele>1953.2</ele>
        <time>2020-09-12T06:29:26Z</time>
      </trkpt>
      <trkpt lat="42.8909800" lon="-0.2843090">
        <ele>1952.0</ele>
        <time>2020-09-12T06:29:30Z</time>
      </trkpt>
      <trkpt lat="42.8909710" lon="-0.2842670">
        <ele>1950.8</ele>
        <time>2020-09-12T06:29:33Z</time>
      </trkpt>
      <trkpt lat="42.8909620" lon="-0.2842300">
        <ele>1949.4</ele>
        <time>2020-09-12T06:29:36Z</time>
      </trkpt>
      <trkpt lat="42.8909550" lon="-0.2842270">
        <ele>1948.8</ele>
        <time>2020-09-12T06:29:37Z</time>
      </trkpt>
      <trkpt lat="42.8909390" lon="-0.2842270">
        <ele>1947.8</ele>
        <time>2020-09-12T06:29:39Z</time>
      </trkpt>
      <trkpt lat="42.8909310" lon="-0.2842230">
        <ele>1947.4</ele>
        <time>2020-09-12T06:29:40Z</time>
      </trkpt>
      <trkpt lat="42.8909230" lon="-0.2842000">
        <ele>1946.6</ele>
        <time>2020-09-12T06:29:42Z</time>
      </trkpt>
      <trkpt lat="42.8909210" lon="-0.2841480">
        <ele>1945.6</ele>
        <time>2020-09-12T06:29:46Z</time>
      </trkpt>
      <trkpt lat="42.8909080" lon="-0.2841200">
        <ele>1944.2</ele>
        <time>2020-09-12T06:29:50Z</time>
      </trkpt>
      <trkpt lat="42.8908910" lon="-0.2841370">
        <ele>1943.6</ele>
        <time>2020-09-12T06:29:52Z</time>
      </trkpt>
      <trkpt lat="42.8908630" lon="-0.2841490">
        <ele>1942.8</ele>
        <time>2020-09-12T06:29:55Z</time>
      </trkpt>
      <trkpt lat="42.8908480" lon="-0.2841320">
        <ele>1942.0</ele>
        <time>2020-09-12T06:29:57Z</time>
      </trkpt>
      <trkpt lat="42.8908400" lon="-0.2841180">
        <ele>1941.6</ele>
        <time>2020-09-12T06:29:58Z</time>
      </trkpt>
      <trkpt lat="42.8908380" lon="-0.2841050">
        <ele>1941.2</ele>
        <time>2020-09-12T06:29:59Z</time>
      </trkpt>
      <trkpt lat="42.8908400" lon="-0.2840750">
        <ele>1940.2</ele>
        <time>2020-09-12T06:30:01Z</time>
      </trkpt>
      <trkpt lat="42.8908460" lon="-0.2840490">
        <ele>1939.6</ele>
        <time>2020-09-12T06:30:03Z</time>
      </trkpt>
      <trkpt lat="42.8908430" lon="-0.2840410">
        <ele>1939.2</ele>
        <time>2020-09-12T06:30:04Z</time>
      </trkpt>
      <trkpt lat="42.8908300" lon="-0.2840280">
        <ele>1938.2</ele>
        <time>2020-09-12T06:30:06Z</time>
      </trkpt>
      <trkpt lat="42.8908270" lon="-0.2840130">
        <ele>1937.8</ele>
        <time>2020-09-12T06:30:07Z</time>
      </trkpt>
      <trkpt lat="42.8908270" lon="-0.2840010">
        <ele>1937.0</ele>
        <time>2020-09-12T06:30:09Z</time>
      </trkpt>
      <trkpt lat="42.8908240" lon="-0.2839970">
        <ele>1936.6</ele>
        <time>2020-09-12T06:30:10Z</time>
      </trkpt>
      <trkpt lat="42.8908210" lon="-0.2839900">
        <ele>1936.4</ele>
        <time>2020-09-12T06:30:11Z</time>
      </trkpt>
      <trkpt lat="42.8908260" lon="-0.2839760">
        <ele>1935.6</ele>
        <time>2020-09-12T06:30:13Z</time>
      </trkpt>
      <trkpt lat="42.8908180" lon="-0.2839560">
        <ele>1934.4</ele>
        <time>2020-09-12T06:30:16Z</time>
      </trkpt>
      <trkpt lat="42.8907960" lon="-0.2839410">
        <ele>1933.2</ele>
        <time>2020-09-12T06:30:19Z</time>
      </trkpt>
      <trkpt lat="42.8907840" lon="-0.2839270">
        <ele>1932.2</ele>
        <time>2020-09-12T06:30:22Z</time>
      </trkpt>
      <trkpt lat="42.8908030" lon="-0.2838750">
        <ele>1930.8</ele>
        <time>2020-09-12T06:30:26Z</time>
      </trkpt>
      <trkpt lat="42.8907930" lon="-0.2838570">
        <ele>1930.2</ele>
        <time>2020-09-12T06:30:28Z</time>
      </trkpt>
      <trkpt lat="42.8907660" lon="-0.2838800">
        <ele>1929.8</ele>
        <time>2020-09-12T06:30:31Z</time>
      </trkpt>
      <trkpt lat="42.8907520" lon="-0.2838720">
        <ele>1929.4</ele>
        <time>2020-09-12T06:30:33Z</time>
      </trkpt>
      <trkpt lat="42.8907450" lon="-0.2838570">
        <ele>1929.0</ele>
        <time>2020-09-12T06:30:35Z</time>
      </trkpt>
      <trkpt lat="42.8907350" lon="-0.2838430">
        <ele>1928.4</ele>
        <time>2020-09-12T06:30:37Z</time>
      </trkpt>
      <trkpt lat="42.8907110" lon="-0.2838140">
        <ele>1927.2</ele>
        <time>2020-09-12T06:30:41Z</time>
      </trkpt>
      <trkpt lat="42.8907120" lon="-0.2837820">
        <ele>1926.0</ele>
        <time>2020-09-12T06:30:44Z</time>
      </trkpt>
      <trkpt lat="42.8907170" lon="-0.2837650">
        <ele>1925.0</ele>
        <time>2020-09-12T06:30:47Z</time>
      </trkpt>
      <trkpt lat="42.8907300" lon="-0.2837410">
        <ele>1924.0</ele>
        <time>2020-09-12T06:30:51Z</time>
      </trkpt>
      <trkpt lat="42.8906880" lon="-0.2837550">
        <ele>1922.8</ele>
        <time>2020-09-12T06:30:56Z</time>
      </trkpt>
      <trkpt lat="42.8906440" lon="-0.2837710">
        <ele>1921.8</ele>
        <time>2020-09-12T06:31:01Z</time>
      </trkpt>
      <trkpt lat="42.8906450" lon="-0.2837630">
        <ele>1921.6</ele>
        <time>2020-09-12T06:31:02Z</time>
      </trkpt>
      <trkpt lat="42.8906690" lon="-0.2837010">
        <ele>1920.4</ele>
        <time>2020-09-12T06:31:06Z</time>
      </trkpt>
      <trkpt lat="42.8906760" lon="-0.2836840">
        <ele>1919.4</ele>
        <time>2020-09-12T06:31:09Z</time>
      </trkpt>
      <trkpt lat="42.8907030" lon="-0.2836590">
        <ele>1918.4</ele>
        <time>2020-09-12T06:31:12Z</time>
      </trkpt>
      <trkpt lat="42.8907530" lon="-0.2836230">
        <ele>1917.2</ele>
        <time>2020-09-12T06:31:17Z</time>
      </trkpt>
      <trkpt lat="42.8907850" lon="-0.2835780">
        <ele>1916.2</ele>
        <time>2020-09-12T06:31:20Z</time>
      </trkpt>
      <trkpt lat="42.8907840" lon="-0.2835660">
        <ele>1915.8</ele>
        <time>2020-09-12T06:31:21Z</time>
      </trkpt>
      <trkpt lat="42.8907510" lon="-0.2835410">
        <ele>1914.8</ele>
        <time>2020-09-12T06:31:24Z</time>
      </trkpt>
      <trkpt lat="42.8907140" lon="-0.2835190">
        <ele>1914.0</ele>
        <time>2020-09-12T06:31:27Z</time>
      </trkpt>
      <trkpt lat="42.8907030" lon="-0.2835160">
        <ele>1913.6</ele>
        <time>2020-09-12T06:31:28Z</time>
      </trkpt>
      <trkpt lat="42.8906510" lon="-0.2835140">
        <ele>1912.4</ele>
        <time>2020-09-12T06:31:32Z</time>
      </trkpt>
      <trkpt lat="42.8906150" lon="-0.2834880">
        <ele>1911.2</ele>
        <time>2020-09-12T06:31:35Z</time>
      </trkpt>
      <trkpt lat="42.8905700" lon="-0.2834740">
        <ele>1909.8</ele>
        <time>2020-09-12T06:31:39Z</time>
      </trkpt>
      <trkpt lat="42.8905980" lon="-0.2834310">
        <ele>1908.6</ele>
        <time>2020-09-12T06:31:43Z</time>
      </trkpt>
      <trkpt lat="42.8906050" lon="-0.2834210">
        <ele>1908.2</ele>
        <time>2020-09-12T06:31:44Z</time>
      </trkpt>
      <trkpt lat="42.8906270" lon="-0.2833920">
        <ele>1907.2</ele>
        <time>2020-09-12T06:31:47Z</time>
      </trkpt>
      <trkpt lat="42.8906490" lon="-0.2833650">
        <ele>1906.0</ele>
        <time>2020-09-12T06:31:50Z</time>
      </trkpt>
      <trkpt lat="42.8906930" lon="-0.2833280">
        <ele>1904.8</ele>
        <time>2020-09-12T06:31:54Z</time>
      </trkpt>
      <trkpt lat="42.8907020" lon="-0.2833190">
        <ele>1904.6</ele>
        <time>2020-09-12T06:31:55Z</time>
      </trkpt>
      <trkpt lat="42.8907220" lon="-0.2833070">
        <ele>1904.2</ele>
        <time>2020-09-12T06:31:57Z</time>
      </trkpt>
      <trkpt lat="42.8907300" lon="-0.2832830">
        <ele>1903.4</ele>
        <time>2020-09-12T06:31:59Z</time>
      </trkpt>
      <trkpt lat="42.8906950" lon="-0.2832900">
        <ele>1902.4</ele>
        <time>2020-09-12T06:32:02Z</time>
      </trkpt>
      <trkpt lat="42.8906590" lon="-0.2833020">
        <ele>1901.4</ele>
        <time>2020-09-12T06:32:05Z</time>
      </trkpt>
      <trkpt lat="42.8906390" lon="-0.2832900">
        <ele>1900.2</ele>
        <time>2020-09-12T06:32:08Z</time>
      </trkpt>
      <trkpt lat="42.8906380" lon="-0.2832560">
        <ele>1899.2</ele>
        <time>2020-09-12T06:32:11Z</time>
      </trkpt>
      <trkpt lat="42.8906420" lon="-0.2832260">
        <ele>1897.8</ele>
        <time>2020-09-12T06:32:14Z</time>
      </trkpt>
      <trkpt lat="42.8906370" lon="-0.2832140">
        <ele>1897.0</ele>
        <time>2020-09-12T06:32:16Z</time>
      </trkpt>
      <trkpt lat="42.8906270" lon="-0.2832030">
        <ele>1896.4</ele>
        <time>2020-09-12T06:32:18Z</time>
      </trkpt>
      <trkpt lat="42.8906160" lon="-0.2831450">
        <ele>1895.4</ele>
        <time>2020-09-12T06:32:22Z</time>
      </trkpt>
      <trkpt lat="42.8905890" lon="-0.2831310">
        <ele>1893.8</ele>
        <time>2020-09-12T06:32:25Z</time>
      </trkpt>
      <trkpt lat="42.8905580" lon="-0.2831190">
        <ele>1892.8</ele>
        <time>2020-09-12T06:32:28Z</time>
      </trkpt>
      <trkpt lat="42.8905510" lon="-0.2831110">
        <ele>1892.4</ele>
        <time>2020-09-12T06:32:29Z</time>
      </trkpt>
      <trkpt lat="42.8905380" lon="-0.2830730">
        <ele>1891.6</ele>
        <time>2020-09-12T06:32:31Z</time>
      </trkpt>
      <trkpt lat="42.8905250" lon="-0.2830440">
        <ele>1890.6</ele>
        <time>2020-09-12T06:32:33Z</time>
      </trkpt>
      <trkpt lat="42.8905140" lon="-0.2830380">
        <ele>1890.2</ele>
        <time>2020-09-12T06:32:34Z</time>
      </trkpt>
      <trkpt lat="42.8904910" lon="-0.2830510">
        <ele>1889.2</ele>
        <time>2020-09-12T06:32:36Z</time>
      </trkpt>
      <trkpt lat="42.8904690" lon="-0.2830740">
        <ele>1888.0</ele>
        <time>2020-09-12T06:32:38Z</time>
      </trkpt>
      <trkpt lat="42.8904320" lon="-0.2830860">
        <ele>1886.4</ele>
        <time>2020-09-12T06:32:41Z</time>
      </trkpt>
      <trkpt lat="42.8904180" lon="-0.2830610">
        <ele>1885.4</ele>
        <time>2020-09-12T06:32:43Z</time>
      </trkpt>
      <trkpt lat="42.8904150" lon="-0.2830260">
        <ele>1884.6</ele>
        <time>2020-09-12T06:32:45Z</time>
      </trkpt>
      <trkpt lat="42.8904030" lon="-0.2830130">
        <ele>1884.2</ele>
        <time>2020-09-12T06:32:46Z</time>
      </trkpt>
      <trkpt lat="42.8903460" lon="-0.2830080">
        <ele>1883.2</ele>
        <time>2020-09-12T06:32:51Z</time>
      </trkpt>
      <trkpt lat="42.8903140" lon="-0.2829960">
        <ele>1881.8</ele>
        <time>2020-09-12T06:32:54Z</time>
      </trkpt>
      <trkpt lat="42.8902470" lon="-0.2829760">
        <ele>1881.2</ele>
        <time>2020-09-12T06:33:01Z</time>
      </trkpt>
      <trkpt lat="42.8902410" lon="-0.2829730">
        <ele>1881.0</ele>
        <time>2020-09-12T06:33:03Z</time>
      </trkpt>
      <trkpt lat="42.8902320" lon="-0.2829880">
        <ele>1880.6</ele>
        <time>2020-09-12T06:33:08Z</time>
      </trkpt>
      <trkpt lat="42.8902630" lon="-0.2829830">
        <ele>1880.4</ele>
        <time>2020-09-12T06:34:43Z</time>
      </trkpt>
      <trkpt lat="42.8902580" lon="-0.2829580">
        <ele>1880.4</ele>
        <time>2020-09-12T06:36:57Z</time>
      </trkpt>
      <trkpt lat="42.8902110" lon="-0.2829330">
        <ele>1880.4</ele>
        <time>2020-09-12T06:37:42Z</time>
      </trkpt>
      <trkpt lat="42.8902000" lon="-0.2829220">
        <ele>1879.8</ele>
        <time>2020-09-12T06:37:44Z</time>
      </trkpt>
      <trkpt lat="42.8901930" lon="-0.2829130">
        <ele>1879.6</ele>
        <time>2020-09-12T06:37:48Z</time>
      </trkpt>
      <trkpt lat="42.8901960" lon="-0.2828020">
        <ele>1879.0</ele>
        <time>2020-09-12T06:38:14Z</time>
      </trkpt>
      <trkpt lat="42.8901920" lon="-0.2827840">
        <ele>1878.6</ele>
        <time>2020-09-12T06:38:17Z</time>
      </trkpt>
      <trkpt lat="42.8901610" lon="-0.2827040">
        <ele>1877.4</ele>
        <time>2020-09-12T06:38:36Z</time>
      </trkpt>
      <trkpt lat="42.8901740" lon="-0.2826740">
        <ele>1876.4</ele>
        <time>2020-09-12T06:38:40Z</time>
      </trkpt>
      <trkpt lat="42.8901930" lon="-0.2826590">
        <ele>1875.8</ele>
        <time>2020-09-12T06:38:42Z</time>
      </trkpt>
      <trkpt lat="42.8902050" lon="-0.2826290">
        <ele>1875.0</ele>
        <time>2020-09-12T06:38:44Z</time>
      </trkpt>
      <trkpt lat="42.8902050" lon="-0.2826050">
        <ele>1874.6</ele>
        <time>2020-09-12T06:38:45Z</time>
      </trkpt>
      <trkpt lat="42.8902000" lon="-0.2825690">
        <ele>1874.0</ele>
        <time>2020-09-12T06:38:47Z</time>
      </trkpt>
      <trkpt lat="42.8901930" lon="-0.2825530">
        <ele>1873.8</ele>
        <time>2020-09-12T06:38:48Z</time>
      </trkpt>
      <trkpt lat="42.8901750" lon="-0.2825490">
        <ele>1873.2</ele>
        <time>2020-09-12T06:38:50Z</time>
      </trkpt>
      <trkpt lat="42.8901730" lon="-0.2825420">
        <ele>1873.0</ele>
        <time>2020-09-12T06:38:51Z</time>
      </trkpt>
      <trkpt lat="42.8901890" lon="-0.2825170">
        <ele>1872.0</ele>
        <time>2020-09-12T06:38:54Z</time>
      </trkpt>
      <trkpt lat="42.8901970" lon="-0.2824950">
        <ele>1871.2</ele>
        <time>2020-09-12T06:38:56Z</time>
      </trkpt>
      <trkpt lat="42.8901940" lon="-0.2824870">
        <ele>1870.8</ele>
        <time>2020-09-12T06:38:57Z</time>
      </trkpt>
      <trkpt lat="42.8901920" lon="-0.2824800">
        <ele>1870.4</ele>
        <time>2020-09-12T06:38:58Z</time>
      </trkpt>
      <trkpt lat="42.8901970" lon="-0.2824690">
        <ele>1869.4</ele>
        <time>2020-09-12T06:39:00Z</time>
      </trkpt>
      <trkpt lat="42.8901970" lon="-0.2824590">
        <ele>1868.4</ele>
        <time>2020-09-12T06:39:03Z</time>
      </trkpt>
      <trkpt lat="42.8901660" lon="-0.2824110">
        <ele>1867.6</ele>
        <time>2020-09-12T06:39:08Z</time>
      </trkpt>
      <trkpt lat="42.8901670" lon="-0.2823950">
        <ele>1867.2</ele>
        <time>2020-09-12T06:39:09Z</time>
      </trkpt>
      <trkpt lat="42.8901670" lon="-0.2823370">
        <ele>1866.0</ele>
        <time>2020-09-12T06:39:13Z</time>
      </trkpt>
      <trkpt lat="42.8901860" lon="-0.2823000">
        <ele>1864.6</ele>
        <time>2020-09-12T06:39:16Z</time>
      </trkpt>
      <trkpt lat="42.8902030" lon="-0.2822350">
        <ele>1863.6</ele>
        <time>2020-09-12T06:39:20Z</time>
      </trkpt>
      <trkpt lat="42.8901980" lon="-0.2822230">
        <ele>1863.6</ele>
        <time>2020-09-12T06:39:21Z</time>
      </trkpt>
      <trkpt lat="42.8901900" lon="-0.2821890">
        <ele>1863.2</ele>
        <time>2020-09-12T06:39:23Z</time>
      </trkpt>
      <trkpt lat="42.8901970" lon="-0.2821430">
        <ele>1862.4</ele>
        <time>2020-09-12T06:39:25Z</time>
      </trkpt>
      <trkpt lat="42.8902170" lon="-0.2820630">
        <ele>1861.2</ele>
        <time>2020-09-12T06:39:29Z</time>
      </trkpt>
      <trkpt lat="42.8902440" lon="-0.2820090">
        <ele>1860.4</ele>
        <time>2020-09-12T06:39:33Z</time>
      </trkpt>
      <trkpt lat="42.8902370" lon="-0.2819940">
        <ele>1860.2</ele>
        <time>2020-09-12T06:39:34Z</time>
      </trkpt>
      <trkpt lat="42.8902100" lon="-0.2819150">
        <ele>1859.0</ele>
        <time>2020-09-12T06:39:39Z</time>
      </trkpt>
      <trkpt lat="42.8901660" lon="-0.2818450">
        <ele>1858.0</ele>
        <time>2020-09-12T06:39:45Z</time>
      </trkpt>
      <trkpt lat="42.8901630" lon="-0.2818410">
        <ele>1857.6</ele>
        <time>2020-09-12T06:39:46Z</time>
      </trkpt>
      <trkpt lat="42.8901650" lon="-0.2818180">
        <ele>1856.8</ele>
        <time>2020-09-12T06:39:48Z</time>
      </trkpt>
      <trkpt lat="42.8901460" lon="-0.2818040">
        <ele>1856.2</ele>
        <time>2020-09-12T06:39:50Z</time>
      </trkpt>
      <trkpt lat="42.8901300" lon="-0.2817880">
        <ele>1855.8</ele>
        <time>2020-09-12T06:39:53Z</time>
      </trkpt>
      <trkpt lat="42.8901310" lon="-0.2817770">
        <ele>1855.6</ele>
        <time>2020-09-12T06:39:54Z</time>
      </trkpt>
      <trkpt lat="42.8901360" lon="-0.2817500">
        <ele>1854.8</ele>
        <time>2020-09-12T06:39:57Z</time>
      </trkpt>
      <trkpt lat="42.8901450" lon="-0.2817320">
        <ele>1854.4</ele>
        <time>2020-09-12T06:39:58Z</time>
      </trkpt>
      <trkpt lat="42.8901210" lon="-0.2816980">
        <ele>1853.4</ele>
        <time>2020-09-12T06:40:01Z</time>
      </trkpt>
      <trkpt lat="42.8900940" lon="-0.2816900">
        <ele>1852.6</ele>
        <time>2020-09-12T06:40:03Z</time>
      </trkpt>
      <trkpt lat="42.8900700" lon="-0.2816920">
        <ele>1852.2</ele>
        <time>2020-09-12T06:40:05Z</time>
      </trkpt>
      <trkpt lat="42.8900420" lon="-0.2816770">
        <ele>1851.2</ele>
        <time>2020-09-12T06:40:08Z</time>
      </trkpt>
      <trkpt lat="42.8900360" lon="-0.2816710">
        <ele>1851.0</ele>
        <time>2020-09-12T06:40:09Z</time>
      </trkpt>
      <trkpt lat="42.8900090" lon="-0.2816600">
        <ele>1849.8</ele>
        <time>2020-09-12T06:40:13Z</time>
      </trkpt>
      <trkpt lat="42.8899980" lon="-0.2816670">
        <ele>1848.6</ele>
        <time>2020-09-12T06:40:16Z</time>
      </trkpt>
      <trkpt lat="42.8899900" lon="-0.2816620">
        <ele>1848.2</ele>
        <time>2020-09-12T06:40:17Z</time>
      </trkpt>
      <trkpt lat="42.8899760" lon="-0.2816380">
        <ele>1847.6</ele>
        <time>2020-09-12T06:40:19Z</time>
      </trkpt>
      <trkpt lat="42.8899680" lon="-0.2816250">
        <ele>1847.4</ele>
        <time>2020-09-12T06:40:20Z</time>
      </trkpt>
      <trkpt lat="42.8899460" lon="-0.2816140">
        <ele>1847.0</ele>
        <time>2020-09-12T06:40:22Z</time>
      </trkpt>
      <trkpt lat="42.8899250" lon="-0.2816360">
        <ele>1846.2</ele>
        <time>2020-09-12T06:40:24Z</time>
      </trkpt>
      <trkpt lat="42.8898990" lon="-0.2816880">
        <ele>1845.2</ele>
        <time>2020-09-12T06:40:27Z</time>
      </trkpt>
      <trkpt lat="42.8898840" lon="-0.2817430">
        <ele>1844.2</ele>
        <time>2020-09-12T06:40:31Z</time>
      </trkpt>
      <trkpt lat="42.8898660" lon="-0.2817290">
        <ele>1843.6</ele>
        <time>2020-09-12T06:40:34Z</time>
      </trkpt>
      <trkpt lat="42.8898500" lon="-0.2817190">
        <ele>1842.8</ele>
        <time>2020-09-12T06:40:36Z</time>
      </trkpt>
      <trkpt lat="42.8898290" lon="-0.2817360">
        <ele>1841.6</ele>
        <time>2020-09-12T06:40:39Z</time>
      </trkpt>
      <trkpt lat="42.8898160" lon="-0.2817650">
        <ele>1840.4</ele>
        <time>2020-09-12T06:40:41Z</time>
      </trkpt>
      <trkpt lat="42.8898060" lon="-0.2817710">
        <ele>1840.0</ele>
        <time>2020-09-12T06:40:42Z</time>
      </trkpt>
      <trkpt lat="42.8897880" lon="-0.2817840">
        <ele>1839.4</ele>
        <time>2020-09-12T06:40:44Z</time>
      </trkpt>
      <trkpt lat="42.8897790" lon="-0.2817890">
        <ele>1839.2</ele>
        <time>2020-09-12T06:40:45Z</time>
      </trkpt>
      <trkpt lat="42.8897610" lon="-0.2817810">
        <ele>1838.0</ele>
        <time>2020-09-12T06:40:48Z</time>
      </trkpt>
      <trkpt lat="42.8897350" lon="-0.2817810">
        <ele>1836.8</ele>
        <time>2020-09-12T06:40:51Z</time>
      </trkpt>
      <trkpt lat="42.8897190" lon="-0.2817530">
        <ele>1835.4</ele>
        <time>2020-09-12T06:40:54Z</time>
      </trkpt>
      <trkpt lat="42.8897120" lon="-0.2817190">
        <ele>1834.4</ele>
        <time>2020-09-12T06:40:57Z</time>
      </trkpt>
      <trkpt lat="42.8897210" lon="-0.2816620">
        <ele>1834.0</ele>
        <time>2020-09-12T06:41:01Z</time>
      </trkpt>
      <trkpt lat="42.8897150" lon="-0.2816300">
        <ele>1833.2</ele>
        <time>2020-09-12T06:41:04Z</time>
      </trkpt>
      <trkpt lat="42.8897070" lon="-0.2815570">
        <ele>1832.0</ele>
        <time>2020-09-12T06:41:09Z</time>
      </trkpt>
      <trkpt lat="42.8897160" lon="-0.2814850">
        <ele>1830.8</ele>
        <time>2020-09-12T06:41:13Z</time>
      </trkpt>
      <trkpt lat="42.8897160" lon="-0.2814380">
        <ele>1829.6</ele>
        <time>2020-09-12T06:41:16Z</time>
      </trkpt>
      <trkpt lat="42.8897150" lon="-0.2813990">
        <ele>1828.8</ele>
        <time>2020-09-12T06:41:19Z</time>
      </trkpt>
      <trkpt lat="42.8897200" lon="-0.2813830">
        <ele>1828.4</ele>
        <time>2020-09-12T06:41:20Z</time>
      </trkpt>
      <trkpt lat="42.8897300" lon="-0.2813280">
        <ele>1827.4</ele>
        <time>2020-09-12T06:41:23Z</time>
      </trkpt>
      <trkpt lat="42.8897360" lon="-0.2812920">
        <ele>1826.4</ele>
        <time>2020-09-12T06:41:26Z</time>
      </trkpt>
      <trkpt lat="42.8897360" lon="-0.2812920">
        <ele>1825.8</ele>
        <time>2020-09-12T06:41:28Z</time>
      </trkpt>
      <trkpt lat="42.8897380" lon="-0.2812860">
        <ele>1825.2</ele>
        <time>2020-09-12T06:41:30Z</time>
      </trkpt>
      <trkpt lat="42.8897740" lon="-0.2812280">
        <ele>1824.2</ele>
        <time>2020-09-12T06:41:36Z</time>
      </trkpt>
      <trkpt lat="42.8897840" lon="-0.2812120">
        <ele>1824.0</ele>
        <time>2020-09-12T06:41:37Z</time>
      </trkpt>
      <trkpt lat="42.8898180" lon="-0.2811730">
        <ele>1823.0</ele>
        <time>2020-09-12T06:41:41Z</time>
      </trkpt>
      <trkpt lat="42.8898550" lon="-0.2811550">
        <ele>1821.6</ele>
        <time>2020-09-12T06:41:44Z</time>
      </trkpt>
      <trkpt lat="42.8898880" lon="-0.2811190">
        <ele>1820.2</ele>
        <time>2020-09-12T06:41:47Z</time>
      </trkpt>
      <trkpt lat="42.8898990" lon="-0.2811050">
        <ele>1819.8</ele>
        <time>2020-09-12T06:41:48Z</time>
      </trkpt>
      <trkpt lat="42.8899260" lon="-0.2810950">
        <ele>1819.2</ele>
        <time>2020-09-12T06:41:50Z</time>
      </trkpt>
      <trkpt lat="42.8899290" lon="-0.2810940">
        <ele>1819.0</ele>
        <time>2020-09-12T06:41:51Z</time>
      </trkpt>
      <trkpt lat="42.8899570" lon="-0.2810630">
        <ele>1818.2</ele>
        <time>2020-09-12T06:41:55Z</time>
      </trkpt>
      <trkpt lat="42.8899630" lon="-0.2810470">
        <ele>1818.0</ele>
        <time>2020-09-12T06:41:56Z</time>
      </trkpt>
      <trkpt lat="42.8899870" lon="-0.2810080">
        <ele>1817.2</ele>
        <time>2020-09-12T06:41:59Z</time>
      </trkpt>
      <trkpt lat="42.8899750" lon="-0.2809950">
        <ele>1816.8</ele>
        <time>2020-09-12T06:42:01Z</time>
      </trkpt>
      <trkpt lat="42.8899230" lon="-0.2810210">
        <ele>1815.6</ele>
        <time>2020-09-12T06:42:05Z</time>
      </trkpt>
      <trkpt lat="42.8898810" lon="-0.2810170">
        <ele>1814.4</ele>
        <time>2020-09-12T06:42:08Z</time>
      </trkpt>
      <trkpt lat="42.8898260" lon="-0.2809820">
        <ele>1813.0</ele>
        <time>2020-09-12T06:42:12Z</time>
      </trkpt>
      <trkpt lat="42.8897990" lon="-0.2809820">
        <ele>1812.0</ele>
        <time>2020-09-12T06:42:14Z</time>
      </trkpt>
      <trkpt lat="42.8897840" lon="-0.2809760">
        <ele>1811.2</ele>
        <time>2020-09-12T06:42:16Z</time>
      </trkpt>
      <trkpt lat="42.8897800" lon="-0.2809710">
        <ele>1810.8</ele>
        <time>2020-09-12T06:42:17Z</time>
      </trkpt>
      <trkpt lat="42.8897210" lon="-0.2809940">
        <ele>1809.6</ele>
        <time>2020-09-12T06:42:22Z</time>
      </trkpt>
      <trkpt lat="42.8896860" lon="-0.2809900">
        <ele>1809.2</ele>
        <time>2020-09-12T06:42:25Z</time>
      </trkpt>
      <trkpt lat="42.8896620" lon="-0.2809900">
        <ele>1808.6</ele>
        <time>2020-09-12T06:42:28Z</time>
      </trkpt>
      <trkpt lat="42.8896550" lon="-0.2809850">
        <ele>1808.4</ele>
        <time>2020-09-12T06:42:29Z</time>
      </trkpt>
      <trkpt lat="42.8896560" lon="-0.2809600">
        <ele>1807.6</ele>
        <time>2020-09-12T06:42:31Z</time>
      </trkpt>
      <trkpt lat="42.8896690" lon="-0.2809350">
        <ele>1807.0</ele>
        <time>2020-09-12T06:42:33Z</time>
      </trkpt>
      <trkpt lat="42.8896770" lon="-0.2809100">
        <ele>1806.2</ele>
        <time>2020-09-12T06:42:35Z</time>
      </trkpt>
      <trkpt lat="42.8897060" lon="-0.2808780">
        <ele>1805.0</ele>
        <time>2020-09-12T06:42:39Z</time>
      </trkpt>
      <trkpt lat="42.8897100" lon="-0.2808740">
        <ele>1804.6</ele>
        <time>2020-09-12T06:42:40Z</time>
      </trkpt>
      <trkpt lat="42.8897070" lon="-0.2808610">
        <ele>1803.8</ele>
        <time>2020-09-12T06:42:43Z</time>
      </trkpt>
      <trkpt lat="42.8897070" lon="-0.2808570">
        <ele>1803.6</ele>
        <time>2020-09-12T06:42:44Z</time>
      </trkpt>
      <trkpt lat="42.8897020" lon="-0.2808430">
        <ele>1802.8</ele>
        <time>2020-09-12T06:42:46Z</time>
      </trkpt>
      <trkpt lat="42.8896870" lon="-0.2808350">
        <ele>1802.2</ele>
        <time>2020-09-12T06:42:48Z</time>
      </trkpt>
      <trkpt lat="42.8896740" lon="-0.2808180">
        <ele>1801.6</ele>
        <time>2020-09-12T06:42:50Z</time>
      </trkpt>
      <trkpt lat="42.8896730" lon="-0.2807800">
        <ele>1800.6</ele>
        <time>2020-09-12T06:42:53Z</time>
      </trkpt>
      <trkpt lat="42.8896450" lon="-0.2807530">
        <ele>1799.6</ele>
        <time>2020-09-12T06:42:56Z</time>
      </trkpt>
      <trkpt lat="42.8896170" lon="-0.2806990">
        <ele>1798.2</ele>
        <time>2020-09-12T06:43:00Z</time>
      </trkpt>
      <trkpt lat="42.8896280" lon="-0.2806610">
        <ele>1797.2</ele>
        <time>2020-09-12T06:43:03Z</time>
      </trkpt>
      <trkpt lat="42.8896410" lon="-0.2806240">
        <ele>1796.2</ele>
        <time>2020-09-12T06:43:06Z</time>
      </trkpt>
      <trkpt lat="42.8896490" lon="-0.2806200">
        <ele>1796.0</ele>
        <time>2020-09-12T06:43:07Z</time>
      </trkpt>
      <trkpt lat="42.8896860" lon="-0.2806510">
        <ele>1795.0</ele>
        <time>2020-09-12T06:43:11Z</time>
      </trkpt>
      <trkpt lat="42.8897440" lon="-0.2806640">
        <ele>1793.8</ele>
        <time>2020-09-12T06:43:16Z</time>
      </trkpt>
      <trkpt lat="42.8897560" lon="-0.2806730">
        <ele>1793.2</ele>
        <time>2020-09-12T06:43:17Z</time>
      </trkpt>
      <trkpt lat="42.8897610" lon="-0.2806850">
        <ele>1792.6</ele>
        <time>2020-09-12T06:43:19Z</time>
      </trkpt>
      <trkpt lat="42.8897820" lon="-0.2806800">
        <ele>1792.2</ele>
        <time>2020-09-12T06:43:21Z</time>
      </trkpt>
      <trkpt lat="42.8897990" lon="-0.2806480">
        <ele>1791.8</ele>
        <time>2020-09-12T06:43:23Z</time>
      </trkpt>
      <trkpt lat="42.8898100" lon="-0.2806410">
        <ele>1791.6</ele>
        <time>2020-09-12T06:43:24Z</time>
      </trkpt>
      <trkpt lat="42.8898400" lon="-0.2806360">
        <ele>1790.4</ele>
        <time>2020-09-12T06:43:27Z</time>
      </trkpt>
      <trkpt lat="42.8898580" lon="-0.2806050">
        <ele>1789.4</ele>
        <time>2020-09-12T06:43:31Z</time>
      </trkpt>
      <trkpt lat="42.8898690" lon="-0.2805910">
        <ele>1788.8</ele>
        <time>2020-09-12T06:43:33Z</time>
      </trkpt>
      <trkpt lat="42.8898690" lon="-0.2805770">
        <ele>1788.2</ele>
        <time>2020-09-12T06:43:35Z</time>
      </trkpt>
      <trkpt lat="42.8898780" lon="-0.2805740">
        <ele>1787.4</ele>
        <time>2020-09-12T06:43:37Z</time>
      </trkpt>
      <trkpt lat="42.8898880" lon="-0.2805670">
        <ele>1787.0</ele>
        <time>2020-09-12T06:43:38Z</time>
      </trkpt>
      <trkpt lat="42.8899040" lon="-0.2805350">
        <ele>1786.2</ele>
        <time>2020-09-12T06:43:40Z</time>
      </trkpt>
      <trkpt lat="42.8899010" lon="-0.2805230">
        <ele>1785.8</ele>
        <time>2020-09-12T06:43:41Z</time>
      </trkpt>
      <trkpt lat="42.8898680" lon="-0.2805020">
        <ele>1785.0</ele>
        <time>2020-09-12T06:43:44Z</time>
      </trkpt>
      <trkpt lat="42.8898540" lon="-0.2804970">
        <ele>1784.8</ele>
        <time>2020-09-12T06:43:45Z</time>
      </trkpt>
      <trkpt lat="42.8898240" lon="-0.2804950">
        <ele>1783.6</ele>
        <time>2020-09-12T06:43:49Z</time>
      </trkpt>
      <trkpt lat="42.8898540" lon="-0.2804600">
        <ele>1782.6</ele>
        <time>2020-09-12T06:43:53Z</time>
      </trkpt>
      <trkpt lat="42.8898610" lon="-0.2804530">
        <ele>1782.4</ele>
        <time>2020-09-12T06:43:54Z</time>
      </trkpt>
      <trkpt lat="42.8898990" lon="-0.2804340">
        <ele>1781.6</ele>
        <time>2020-09-12T06:43:58Z</time>
      </trkpt>
      <trkpt lat="42.8899500" lon="-0.2804150">
        <ele>1780.6</ele>
        <time>2020-09-12T06:44:04Z</time>
      </trkpt>
      <trkpt lat="42.8899740" lon="-0.2804240">
        <ele>1780.0</ele>
        <time>2020-09-12T06:44:07Z</time>
      </trkpt>
      <trkpt lat="42.8899980" lon="-0.2804310">
        <ele>1779.8</ele>
        <time>2020-09-12T06:44:09Z</time>
      </trkpt>
      <trkpt lat="42.8900130" lon="-0.2804260">
        <ele>1779.6</ele>
        <time>2020-09-12T06:44:11Z</time>
      </trkpt>
      <trkpt lat="42.8900200" lon="-0.2804300">
        <ele>1779.4</ele>
        <time>2020-09-12T06:44:12Z</time>
      </trkpt>
      <trkpt lat="42.8900290" lon="-0.2804340">
        <ele>1779.4</ele>
        <time>2020-09-12T06:44:13Z</time>
      </trkpt>
      <trkpt lat="42.8900730" lon="-0.2804330">
        <ele>1778.6</ele>
        <time>2020-09-12T06:44:17Z</time>
      </trkpt>
      <trkpt lat="42.8900800" lon="-0.2804290">
        <ele>1778.2</ele>
        <time>2020-09-12T06:44:18Z</time>
      </trkpt>
      <trkpt lat="42.8901140" lon="-0.2804140">
        <ele>1777.6</ele>
        <time>2020-09-12T06:44:21Z</time>
      </trkpt>
      <trkpt lat="42.8901080" lon="-0.2804070">
        <ele>1777.0</ele>
        <time>2020-09-12T06:44:23Z</time>
      </trkpt>
      <trkpt lat="42.8900590" lon="-0.2803720">
        <ele>1775.8</ele>
        <time>2020-09-12T06:44:27Z</time>
      </trkpt>
      <trkpt lat="42.8899900" lon="-0.2803280">
        <ele>1774.8</ele>
        <time>2020-09-12T06:44:32Z</time>
      </trkpt>
      <trkpt lat="42.8899330" lon="-0.2802930">
        <ele>1773.6</ele>
        <time>2020-09-12T06:44:37Z</time>
      </trkpt>
      <trkpt lat="42.8898330" lon="-0.2802990">
        <ele>1772.6</ele>
        <time>2020-09-12T06:44:45Z</time>
      </trkpt>
      <trkpt lat="42.8897940" lon="-0.2802920">
        <ele>1771.8</ele>
        <time>2020-09-12T06:44:48Z</time>
      </trkpt>
      <trkpt lat="42.8897940" lon="-0.2802760">
        <ele>1771.4</ele>
        <time>2020-09-12T06:44:49Z</time>
      </trkpt>
      <trkpt lat="42.8898210" lon="-0.2802420">
        <ele>1770.2</ele>
        <time>2020-09-12T06:44:52Z</time>
      </trkpt>
      <trkpt lat="42.8898450" lon="-0.2801800">
        <ele>1769.0</ele>
        <time>2020-09-12T06:44:56Z</time>
      </trkpt>
      <trkpt lat="42.8898290" lon="-0.2801780">
        <ele>1768.0</ele>
        <time>2020-09-12T06:44:59Z</time>
      </trkpt>
      <trkpt lat="42.8897690" lon="-0.2801660">
        <ele>1766.8</ele>
        <time>2020-09-12T06:45:04Z</time>
      </trkpt>
      <trkpt lat="42.8897470" lon="-0.2801270">
        <ele>1766.0</ele>
        <time>2020-09-12T06:45:07Z</time>
      </trkpt>
      <trkpt lat="42.8897480" lon="-0.2801180">
        <ele>1765.6</ele>
        <time>2020-09-12T06:45:08Z</time>
      </trkpt>
      <trkpt lat="42.8897620" lon="-0.2800990">
        <ele>1764.8</ele>
        <time>2020-09-12T06:45:10Z</time>
      </trkpt>
      <trkpt lat="42.8897690" lon="-0.2800920">
        <ele>1764.6</ele>
        <time>2020-09-12T06:45:11Z</time>
      </trkpt>
      <trkpt lat="42.8898130" lon="-0.2800510">
        <ele>1763.4</ele>
        <time>2020-09-12T06:45:17Z</time>
      </trkpt>
      <trkpt lat="42.8898360" lon="-0.2800350">
        <ele>1762.8</ele>
        <time>2020-09-12T06:45:19Z</time>
      </trkpt>
      <trkpt lat="42.8898620" lon="-0.2800270">
        <ele>1762.2</ele>
        <time>2020-09-12T06:45:21Z</time>
      </trkpt>
      <trkpt lat="42.8898970" lon="-0.2800160">
        <ele>1761.6</ele>
        <time>2020-09-12T06:45:24Z</time>
      </trkpt>
      <trkpt lat="42.8898830" lon="-0.2800110">
        <ele>1761.0</ele>
        <time>2020-09-12T06:45:27Z</time>
      </trkpt>
      <trkpt lat="42.8898500" lon="-0.2800170">
        <ele>1760.0</ele>
        <time>2020-09-12T06:45:30Z</time>
      </trkpt>
      <trkpt lat="42.8898110" lon="-0.2800060">
        <ele>1759.0</ele>
        <time>2020-09-12T06:45:34Z</time>
      </trkpt>
      <trkpt lat="42.8897690" lon="-0.2800120">
        <ele>1758.0</ele>
        <time>2020-09-12T06:45:37Z</time>
      </trkpt>
      <trkpt lat="42.8897590" lon="-0.2800140">
        <ele>1757.8</ele>
        <time>2020-09-12T06:45:38Z</time>
      </trkpt>
      <trkpt lat="42.8897430" lon="-0.2800150">
        <ele>1757.4</ele>
        <time>2020-09-12T06:45:40Z</time>
      </trkpt>
      <trkpt lat="42.8897610" lon="-0.2799860">
        <ele>1756.6</ele>
        <time>2020-09-12T06:45:43Z</time>
      </trkpt>
      <trkpt lat="42.8897700" lon="-0.2799800">
        <ele>1756.4</ele>
        <time>2020-09-12T06:45:44Z</time>
      </trkpt>
      <trkpt lat="42.8897910" lon="-0.2799630">
        <ele>1755.6</ele>
        <time>2020-09-12T06:45:47Z</time>
      </trkpt>
      <trkpt lat="42.8898000" lon="-0.2799620">
        <ele>1755.4</ele>
        <time>2020-09-12T06:45:48Z</time>
      </trkpt>
      <trkpt lat="42.8898090" lon="-0.2799530">
        <ele>1755.0</ele>
        <time>2020-09-12T06:45:50Z</time>
      </trkpt>
      <trkpt lat="42.8898150" lon="-0.2799480">
        <ele>1754.6</ele>
        <time>2020-09-12T06:45:52Z</time>
      </trkpt>
      <trkpt lat="42.8898260" lon="-0.2799330">
        <ele>1754.0</ele>
        <time>2020-09-12T06:45:54Z</time>
      </trkpt>
      <trkpt lat="42.8898420" lon="-0.2799210">
        <ele>1753.6</ele>
        <time>2020-09-12T06:45:56Z</time>
      </trkpt>
      <trkpt lat="42.8898640" lon="-0.2799060">
        <ele>1753.4</ele>
        <time>2020-09-12T06:45:58Z</time>
      </trkpt>
      <trkpt lat="42.8898890" lon="-0.2798870">
        <ele>1753.0</ele>
        <time>2020-09-12T06:46:01Z</time>
      </trkpt>
      <trkpt lat="42.8899070" lon="-0.2798720">
        <ele>1752.0</ele>
        <time>2020-09-12T06:46:04Z</time>
      </trkpt>
      <trkpt lat="42.8899190" lon="-0.2798740">
        <ele>1751.8</ele>
        <time>2020-09-12T06:46:05Z</time>
      </trkpt>
      <trkpt lat="42.8899370" lon="-0.2798740">
        <ele>1751.0</ele>
        <time>2020-09-12T06:46:07Z</time>
      </trkpt>
      <trkpt lat="42.8899410" lon="-0.2798740">
        <ele>1750.6</ele>
        <time>2020-09-12T06:46:08Z</time>
      </trkpt>
      <trkpt lat="42.8899480" lon="-0.2798750">
        <ele>1750.2</ele>
        <time>2020-09-12T06:46:10Z</time>
      </trkpt>
      <trkpt lat="42.8899490" lon="-0.2798720">
        <ele>1750.0</ele>
        <time>2020-09-12T06:46:11Z</time>
      </trkpt>
      <trkpt lat="42.8900490" lon="-0.2798440">
        <ele>1749.0</ele>
        <time>2020-09-12T06:46:23Z</time>
      </trkpt>
      <trkpt lat="42.8900590" lon="-0.2798470">
        <ele>1749.0</ele>
        <time>2020-09-12T06:46:24Z</time>
      </trkpt>
      <trkpt lat="42.8900720" lon="-0.2798460">
        <ele>1748.8</ele>
        <time>2020-09-12T06:46:25Z</time>
      </trkpt>
      <trkpt lat="42.8900890" lon="-0.2798590">
        <ele>1748.4</ele>
        <time>2020-09-12T06:46:27Z</time>
      </trkpt>
      <trkpt lat="42.8901110" lon="-0.2798620">
        <ele>1747.8</ele>
        <time>2020-09-12T06:46:29Z</time>
      </trkpt>
      <trkpt lat="42.8901430" lon="-0.2798870">
        <ele>1746.6</ele>
        <time>2020-09-12T06:46:33Z</time>
      </trkpt>
      <trkpt lat="42.8901630" lon="-0.2798890">
        <ele>1745.6</ele>
        <time>2020-09-12T06:46:36Z</time>
      </trkpt>
      <trkpt lat="42.8901780" lon="-0.2798400">
        <ele>1744.4</ele>
        <time>2020-09-12T06:46:46Z</time>
      </trkpt>
      <trkpt lat="42.8901700" lon="-0.2798310">
        <ele>1744.2</ele>
        <time>2020-09-12T06:46:47Z</time>
      </trkpt>
      <trkpt lat="42.8901450" lon="-0.2797810">
        <ele>1743.4</ele>
        <time>2020-09-12T06:46:50Z</time>
      </trkpt>
      <trkpt lat="42.8901040" lon="-0.2797220">
        <ele>1742.4</ele>
        <time>2020-09-12T06:46:54Z</time>
      </trkpt>
      <trkpt lat="42.8900910" lon="-0.2796950">
        <ele>1741.6</ele>
        <time>2020-09-12T06:46:56Z</time>
      </trkpt>
      <trkpt lat="42.8900880" lon="-0.2796860">
        <ele>1741.0</ele>
        <time>2020-09-12T06:46:57Z</time>
      </trkpt>
      <trkpt lat="42.8900880" lon="-0.2796900">
        <ele>1740.8</ele>
        <time>2020-09-12T06:46:58Z</time>
      </trkpt>
      <trkpt lat="42.8901030" lon="-0.2797050">
        <ele>1739.8</ele>
        <time>2020-09-12T06:47:01Z</time>
      </trkpt>
      <trkpt lat="42.8901180" lon="-0.2797130">
        <ele>1739.2</ele>
        <time>2020-09-12T06:47:03Z</time>
      </trkpt>
      <trkpt lat="42.8901390" lon="-0.2797310">
        <ele>1738.8</ele>
        <time>2020-09-12T06:47:05Z</time>
      </trkpt>
      <trkpt lat="42.8901620" lon="-0.2797500">
        <ele>1738.6</ele>
        <time>2020-09-12T06:47:07Z</time>
      </trkpt>
      <trkpt lat="42.8902220" lon="-0.2797490">
        <ele>1737.8</ele>
        <time>2020-09-12T06:47:11Z</time>
      </trkpt>
      <trkpt lat="42.8902610" lon="-0.2797320">
        <ele>1736.4</ele>
        <time>2020-09-12T06:47:14Z</time>
      </trkpt>
      <trkpt lat="42.8903200" lon="-0.2797190">
        <ele>1735.2</ele>
        <time>2020-09-12T06:47:18Z</time>
      </trkpt>
      <trkpt lat="42.8903590" lon="-0.2797100">
        <ele>1734.2</ele>
        <time>2020-09-12T06:47:21Z</time>
      </trkpt>
      <trkpt lat="42.8903260" lon="-0.2797170">
        <ele>1733.4</ele>
        <time>2020-09-12T06:47:25Z</time>
      </trkpt>
      <trkpt lat="42.8903020" lon="-0.2797080">
        <ele>1733.0</ele>
        <time>2020-09-12T06:47:27Z</time>
      </trkpt>
      <trkpt lat="42.8902610" lon="-0.2796720">
        <ele>1731.8</ele>
        <time>2020-09-12T06:47:31Z</time>
      </trkpt>
      <trkpt lat="42.8902490" lon="-0.2796660">
        <ele>1731.6</ele>
        <time>2020-09-12T06:47:33Z</time>
      </trkpt>
      <trkpt lat="42.8902690" lon="-0.2796790">
        <ele>1730.4</ele>
        <time>2020-09-12T06:47:36Z</time>
      </trkpt>
      <trkpt lat="42.8902920" lon="-0.2796760">
        <ele>1730.0</ele>
        <time>2020-09-12T06:47:38Z</time>
      </trkpt>
      <trkpt lat="42.8903240" lon="-0.2796650">
        <ele>1729.6</ele>
        <time>2020-09-12T06:47:40Z</time>
      </trkpt>
      <trkpt lat="42.8903490" lon="-0.2796400">
        <ele>1729.4</ele>
        <time>2020-09-12T06:47:42Z</time>
      </trkpt>
      <trkpt lat="42.8903600" lon="-0.2796240">
        <ele>1729.2</ele>
        <time>2020-09-12T06:47:43Z</time>
      </trkpt>
      <trkpt lat="42.8903460" lon="-0.2796020">
        <ele>1728.2</ele>
        <time>2020-09-12T06:47:46Z</time>
      </trkpt>
      <trkpt lat="42.8903420" lon="-0.2795910">
        <ele>1728.0</ele>
        <time>2020-09-12T06:47:47Z</time>
      </trkpt>
      <trkpt lat="42.8903330" lon="-0.2795580">
        <ele>1727.6</ele>
        <time>2020-09-12T06:47:49Z</time>
      </trkpt>
      <trkpt lat="42.8903430" lon="-0.2795390">
        <ele>1726.8</ele>
        <time>2020-09-12T06:47:51Z</time>
      </trkpt>
      <trkpt lat="42.8903700" lon="-0.2795270">
        <ele>1725.6</ele>
        <time>2020-09-12T06:47:54Z</time>
      </trkpt>
      <trkpt lat="42.8903860" lon="-0.2795190">
        <ele>1725.2</ele>
        <time>2020-09-12T06:47:56Z</time>
      </trkpt>
      <trkpt lat="42.8903970" lon="-0.2794860">
        <ele>1724.6</ele>
        <time>2020-09-12T06:47:59Z</time>
      </trkpt>
      <trkpt lat="42.8903620" lon="-0.2794620">
        <ele>1723.4</ele>
        <time>2020-09-12T06:48:02Z</time>
      </trkpt>
      <trkpt lat="42.8903110" lon="-0.2794480">
        <ele>1722.4</ele>
        <time>2020-09-12T06:48:06Z</time>
      </trkpt>
      <trkpt lat="42.8903010" lon="-0.2794390">
        <ele>1722.2</ele>
        <time>2020-09-12T06:48:07Z</time>
      </trkpt>
      <trkpt lat="42.8902990" lon="-0.2794230">
        <ele>1721.6</ele>
        <time>2020-09-12T06:48:09Z</time>
      </trkpt>
      <trkpt lat="42.8903060" lon="-0.2794190">
        <ele>1721.2</ele>
        <time>2020-09-12T06:48:10Z</time>
      </trkpt>
      <trkpt lat="42.8903350" lon="-0.2794020">
        <ele>1720.4</ele>
        <time>2020-09-12T06:48:13Z</time>
      </trkpt>
      <trkpt lat="42.8903400" lon="-0.2793970">
        <ele>1720.2</ele>
        <time>2020-09-12T06:48:14Z</time>
      </trkpt>
      <trkpt lat="42.8903340" lon="-0.2793610">
        <ele>1719.6</ele>
        <time>2020-09-12T06:48:17Z</time>
      </trkpt>
      <trkpt lat="42.8903120" lon="-0.2793380">
        <ele>1719.0</ele>
        <time>2020-09-12T06:48:19Z</time>
      </trkpt>
      <trkpt lat="42.8902880" lon="-0.2793210">
        <ele>1718.0</ele>
        <time>2020-09-12T06:48:22Z</time>
      </trkpt>
      <trkpt lat="42.8902980" lon="-0.2793020">
        <ele>1716.6</ele>
        <time>2020-09-12T06:48:25Z</time>
      </trkpt>
      <trkpt lat="42.8903270" lon="-0.2793040">
        <ele>1715.4</ele>
        <time>2020-09-12T06:48:28Z</time>
      </trkpt>
      <trkpt lat="42.8903370" lon="-0.2793040">
        <ele>1715.0</ele>
        <time>2020-09-12T06:48:29Z</time>
      </trkpt>
      <trkpt lat="42.8903770" lon="-0.2793080">
        <ele>1714.2</ele>
        <time>2020-09-12T06:48:33Z</time>
      </trkpt>
      <trkpt lat="42.8903850" lon="-0.2793100">
        <ele>1714.0</ele>
        <time>2020-09-12T06:48:34Z</time>
      </trkpt>
      <trkpt lat="42.8904110" lon="-0.2792910">
        <ele>1713.6</ele>
        <time>2020-09-12T06:48:37Z</time>
      </trkpt>
      <trkpt lat="42.8904030" lon="-0.2792550">
        <ele>1713.2</ele>
        <time>2020-09-12T06:48:40Z</time>
      </trkpt>
      <trkpt lat="42.8903930" lon="-0.2792540">
        <ele>1713.0</ele>
        <time>2020-09-12T06:48:41Z</time>
      </trkpt>
      <trkpt lat="42.8903680" lon="-0.2792320">
        <ele>1712.0</ele>
        <time>2020-09-12T06:48:44Z</time>
      </trkpt>
      <trkpt lat="42.8903450" lon="-0.2792140">
        <ele>1711.0</ele>
        <time>2020-09-12T06:48:47Z</time>
      </trkpt>
      <trkpt lat="42.8903420" lon="-0.2792050">
        <ele>1710.8</ele>
        <time>2020-09-12T06:48:48Z</time>
      </trkpt>
      <trkpt lat="42.8903840" lon="-0.2791790">
        <ele>1709.6</ele>
        <time>2020-09-12T06:48:53Z</time>
      </trkpt>
      <trkpt lat="42.8904310" lon="-0.2791600">
        <ele>1708.4</ele>
        <time>2020-09-12T06:48:57Z</time>
      </trkpt>
      <trkpt lat="42.8904730" lon="-0.2791220">
        <ele>1707.4</ele>
        <time>2020-09-12T06:49:01Z</time>
      </trkpt>
      <trkpt lat="42.8905110" lon="-0.2790550">
        <ele>1706.2</ele>
        <time>2020-09-12T06:49:06Z</time>
      </trkpt>
      <trkpt lat="42.8905370" lon="-0.2790180">
        <ele>1705.0</ele>
        <time>2020-09-12T06:49:09Z</time>
      </trkpt>
      <trkpt lat="42.8905420" lon="-0.2790010">
        <ele>1704.4</ele>
        <time>2020-09-12T06:49:11Z</time>
      </trkpt>
      <trkpt lat="42.8905230" lon="-0.2790060">
        <ele>1704.0</ele>
        <time>2020-09-12T06:49:13Z</time>
      </trkpt>
      <trkpt lat="42.8904900" lon="-0.2790040">
        <ele>1703.6</ele>
        <time>2020-09-12T06:49:16Z</time>
      </trkpt>
      <trkpt lat="42.8904420" lon="-0.2790020">
        <ele>1702.8</ele>
        <time>2020-09-12T06:49:20Z</time>
      </trkpt>
      <trkpt lat="42.8903880" lon="-0.2789840">
        <ele>1701.8</ele>
        <time>2020-09-12T06:49:25Z</time>
      </trkpt>
      <trkpt lat="42.8904190" lon="-0.2789550">
        <ele>1700.6</ele>
        <time>2020-09-12T06:49:30Z</time>
      </trkpt>
      <trkpt lat="42.8904650" lon="-0.2789440">
        <ele>1699.4</ele>
        <time>2020-09-12T06:49:34Z</time>
      </trkpt>
      <trkpt lat="42.8905030" lon="-0.2789110">
        <ele>1698.6</ele>
        <time>2020-09-12T06:49:38Z</time>
      </trkpt>
      <trkpt lat="42.8905120" lon="-0.2788970">
        <ele>1698.4</ele>
        <time>2020-09-12T06:49:39Z</time>
      </trkpt>
      <trkpt lat="42.8905230" lon="-0.2788840">
        <ele>1698.0</ele>
        <time>2020-09-12T06:49:40Z</time>
      </trkpt>
      <trkpt lat="42.8905020" lon="-0.2788770">
        <ele>1697.4</ele>
        <time>2020-09-12T06:49:43Z</time>
      </trkpt>
      <trkpt lat="42.8904830" lon="-0.2788750">
        <ele>1696.6</ele>
        <time>2020-09-12T06:49:45Z</time>
      </trkpt>
      <trkpt lat="42.8904680" lon="-0.2788640">
        <ele>1696.2</ele>
        <time>2020-09-12T06:49:47Z</time>
      </trkpt>
      <trkpt lat="42.8904570" lon="-0.2788610">
        <ele>1696.2</ele>
        <time>2020-09-12T06:49:48Z</time>
      </trkpt>
      <trkpt lat="42.8904300" lon="-0.2788590">
        <ele>1695.4</ele>
        <time>2020-09-12T06:49:51Z</time>
      </trkpt>
      <trkpt lat="42.8904190" lon="-0.2788420">
        <ele>1695.2</ele>
        <time>2020-09-12T06:49:53Z</time>
      </trkpt>
      <trkpt lat="42.8904250" lon="-0.2788310">
        <ele>1694.8</ele>
        <time>2020-09-12T06:49:55Z</time>
      </trkpt>
      <trkpt lat="42.8904590" lon="-0.2788280">
        <ele>1694.0</ele>
        <time>2020-09-12T06:49:58Z</time>
      </trkpt>
      <trkpt lat="42.8905010" lon="-0.2787950">
        <ele>1693.4</ele>
        <time>2020-09-12T06:50:02Z</time>
      </trkpt>
      <trkpt lat="42.8905260" lon="-0.2787770">
        <ele>1692.8</ele>
        <time>2020-09-12T06:50:04Z</time>
      </trkpt>
      <trkpt lat="42.8905600" lon="-0.2787450">
        <ele>1691.6</ele>
        <time>2020-09-12T06:50:08Z</time>
      </trkpt>
      <trkpt lat="42.8905840" lon="-0.2787310">
        <ele>1691.2</ele>
        <time>2020-09-12T06:50:10Z</time>
      </trkpt>
      <trkpt lat="42.8906120" lon="-0.2787300">
        <ele>1690.6</ele>
        <time>2020-09-12T06:50:12Z</time>
      </trkpt>
      <trkpt lat="42.8906300" lon="-0.2787210">
        <ele>1690.2</ele>
        <time>2020-09-12T06:50:13Z</time>
      </trkpt>
      <trkpt lat="42.8906320" lon="-0.2787070">
        <ele>1690.0</ele>
        <time>2020-09-12T06:50:14Z</time>
      </trkpt>
      <trkpt lat="42.8906010" lon="-0.2787000">
        <ele>1689.0</ele>
        <time>2020-09-12T06:50:17Z</time>
      </trkpt>
      <trkpt lat="42.8905840" lon="-0.2786940">
        <ele>1688.8</ele>
        <time>2020-09-12T06:50:19Z</time>
      </trkpt>
      <trkpt lat="42.8905620" lon="-0.2786560">
        <ele>1688.4</ele>
        <time>2020-09-12T06:50:22Z</time>
      </trkpt>
      <trkpt lat="42.8905470" lon="-0.2786250">
        <ele>1688.0</ele>
        <time>2020-09-12T06:50:25Z</time>
      </trkpt>
      <trkpt lat="42.8905720" lon="-0.2786100">
        <ele>1687.0</ele>
        <time>2020-09-12T06:50:28Z</time>
      </trkpt>
      <trkpt lat="42.8905780" lon="-0.2786080">
        <ele>1686.6</ele>
        <time>2020-09-12T06:50:29Z</time>
      </trkpt>
      <trkpt lat="42.8906020" lon="-0.2786150">
        <ele>1685.4</ele>
        <time>2020-09-12T06:50:32Z</time>
      </trkpt>
      <trkpt lat="42.8906630" lon="-0.2786030">
        <ele>1684.2</ele>
        <time>2020-09-12T06:50:37Z</time>
      </trkpt>
      <trkpt lat="42.8907080" lon="-0.2785780">
        <ele>1683.2</ele>
        <time>2020-09-12T06:50:41Z</time>
      </trkpt>
      <trkpt lat="42.8907120" lon="-0.2785670">
        <ele>1683.0</ele>
        <time>2020-09-12T06:50:42Z</time>
      </trkpt>
      <trkpt lat="42.8906300" lon="-0.2785420">
        <ele>1682.0</ele>
        <time>2020-09-12T06:50:49Z</time>
      </trkpt>
      <trkpt lat="42.8905690" lon="-0.2785210">
        <ele>1680.8</ele>
        <time>2020-09-12T06:50:53Z</time>
      </trkpt>
      <trkpt lat="42.8905080" lon="-0.2784850">
        <ele>1679.6</ele>
        <time>2020-09-12T06:50:57Z</time>
      </trkpt>
      <trkpt lat="42.8905000" lon="-0.2784750">
        <ele>1679.4</ele>
        <time>2020-09-12T06:50:58Z</time>
      </trkpt>
      <trkpt lat="42.8905140" lon="-0.2784570">
        <ele>1678.6</ele>
        <time>2020-09-12T06:51:01Z</time>
      </trkpt>
      <trkpt lat="42.8905220" lon="-0.2784480">
        <ele>1678.2</ele>
        <time>2020-09-12T06:51:02Z</time>
      </trkpt>
      <trkpt lat="42.8905330" lon="-0.2784450">
        <ele>1677.8</ele>
        <time>2020-09-12T06:51:03Z</time>
      </trkpt>
      <trkpt lat="42.8905440" lon="-0.2784420">
        <ele>1677.4</ele>
        <time>2020-09-12T06:51:04Z</time>
      </trkpt>
      <trkpt lat="42.8905880" lon="-0.2784170">
        <ele>1676.4</ele>
        <time>2020-09-12T06:51:08Z</time>
      </trkpt>
      <trkpt lat="42.8906210" lon="-0.2784010">
        <ele>1676.0</ele>
        <time>2020-09-12T06:51:11Z</time>
      </trkpt>
      <trkpt lat="42.8906220" lon="-0.2783680">
        <ele>1675.4</ele>
        <time>2020-09-12T06:51:14Z</time>
      </trkpt>
      <trkpt lat="42.8905780" lon="-0.2783400">
        <ele>1674.2</ele>
        <time>2020-09-12T06:51:18Z</time>
      </trkpt>
      <trkpt lat="42.8905320" lon="-0.2783140">
        <ele>1673.2</ele>
        <time>2020-09-12T06:51:22Z</time>
      </trkpt>
      <trkpt lat="42.8905240" lon="-0.2783080">
        <ele>1673.0</ele>
        <time>2020-09-12T06:51:23Z</time>
      </trkpt>
      <trkpt lat="42.8905420" lon="-0.2783020">
        <ele>1671.8</ele>
        <time>2020-09-12T06:51:27Z</time>
      </trkpt>
      <trkpt lat="42.8905860" lon="-0.2782950">
        <ele>1670.8</ele>
        <time>2020-09-12T06:51:31Z</time>
      </trkpt>
      <trkpt lat="42.8906160" lon="-0.2782810">
        <ele>1669.6</ele>
        <time>2020-09-12T06:51:34Z</time>
      </trkpt>
      <trkpt lat="42.8906600" lon="-0.2782590">
        <ele>1668.6</ele>
        <time>2020-09-12T06:51:38Z</time>
      </trkpt>
      <trkpt lat="42.8906870" lon="-0.2782240">
        <ele>1667.8</ele>
        <time>2020-09-12T06:51:41Z</time>
      </trkpt>
      <trkpt lat="42.8906830" lon="-0.2782130">
        <ele>1667.6</ele>
        <time>2020-09-12T06:51:42Z</time>
      </trkpt>
      <trkpt lat="42.8906310" lon="-0.2781810">
        <ele>1666.6</ele>
        <time>2020-09-12T06:51:46Z</time>
      </trkpt>
      <trkpt lat="42.8905820" lon="-0.2781560">
        <ele>1665.6</ele>
        <time>2020-09-12T06:51:50Z</time>
      </trkpt>
      <trkpt lat="42.8905780" lon="-0.2781470">
        <ele>1665.4</ele>
        <time>2020-09-12T06:51:51Z</time>
      </trkpt>
      <trkpt lat="42.8905860" lon="-0.2781380">
        <ele>1664.8</ele>
        <time>2020-09-12T06:51:53Z</time>
      </trkpt>
      <trkpt lat="42.8906070" lon="-0.2781310">
        <ele>1664.2</ele>
        <time>2020-09-12T06:51:55Z</time>
      </trkpt>
      <trkpt lat="42.8906640" lon="-0.2781140">
        <ele>1663.2</ele>
        <time>2020-09-12T06:52:00Z</time>
      </trkpt>
      <trkpt lat="42.8906810" lon="-0.2781010">
        <ele>1663.0</ele>
        <time>2020-09-12T06:52:02Z</time>
      </trkpt>
      <trkpt lat="42.8906550" lon="-0.2780610">
        <ele>1662.0</ele>
        <time>2020-09-12T06:52:06Z</time>
      </trkpt>
      <trkpt lat="42.8906020" lon="-0.2780380">
        <ele>1660.8</ele>
        <time>2020-09-12T06:52:10Z</time>
      </trkpt>
      <trkpt lat="42.8905710" lon="-0.2780180">
        <ele>1659.8</ele>
        <time>2020-09-12T06:52:13Z</time>
      </trkpt>
      <trkpt lat="42.8905590" lon="-0.2780100">
        <ele>1659.8</ele>
        <time>2020-09-12T06:52:14Z</time>
      </trkpt>
      <trkpt lat="42.8905520" lon="-0.2780000">
        <ele>1659.6</ele>
        <time>2020-09-12T06:52:15Z</time>
      </trkpt>
      <trkpt lat="42.8905470" lon="-0.2779840">
        <ele>1659.4</ele>
        <time>2020-09-12T06:52:17Z</time>
      </trkpt>
      <trkpt lat="42.8905660" lon="-0.2779870">
        <ele>1658.8</ele>
        <time>2020-09-12T06:52:19Z</time>
      </trkpt>
      <trkpt lat="42.8905980" lon="-0.2779950">
        <ele>1657.6</ele>
        <time>2020-09-12T06:52:22Z</time>
      </trkpt>
      <trkpt lat="42.8906230" lon="-0.2779970">
        <ele>1657.2</ele>
        <time>2020-09-12T06:52:24Z</time>
      </trkpt>
      <trkpt lat="42.8906660" lon="-0.2780140">
        <ele>1657.0</ele>
        <time>2020-09-12T06:52:28Z</time>
      </trkpt>
      <trkpt lat="42.8906810" lon="-0.2779930">
        <ele>1656.4</ele>
        <time>2020-09-12T06:52:30Z</time>
      </trkpt>
      <trkpt lat="42.8906800" lon="-0.2779630">
        <ele>1655.8</ele>
        <time>2020-09-12T06:52:32Z</time>
      </trkpt>
      <trkpt lat="42.8906530" lon="-0.2779440">
        <ele>1655.2</ele>
        <time>2020-09-12T06:52:34Z</time>
      </trkpt>
      <trkpt lat="42.8905660" lon="-0.2778810">
        <ele>1654.2</ele>
        <time>2020-09-12T06:52:41Z</time>
      </trkpt>
      <trkpt lat="42.8905530" lon="-0.2778770">
        <ele>1653.8</ele>
        <time>2020-09-12T06:52:43Z</time>
      </trkpt>
      <trkpt lat="42.8905620" lon="-0.2778720">
        <ele>1653.2</ele>
        <time>2020-09-12T06:52:46Z</time>
      </trkpt>
      <trkpt lat="42.8905700" lon="-0.2778740">
        <ele>1652.8</ele>
        <time>2020-09-12T06:52:47Z</time>
      </trkpt>
      <trkpt lat="42.8906000" lon="-0.2778690">
        <ele>1652.2</ele>
        <time>2020-09-12T06:52:50Z</time>
      </trkpt>
      <trkpt lat="42.8906090" lon="-0.2778660">
        <ele>1652.0</ele>
        <time>2020-09-12T06:52:51Z</time>
      </trkpt>
      <trkpt lat="42.8906180" lon="-0.2778610">
        <ele>1651.8</ele>
        <time>2020-09-12T06:52:52Z</time>
      </trkpt>
      <trkpt lat="42.8906380" lon="-0.2778570">
        <ele>1651.6</ele>
        <time>2020-09-12T06:52:54Z</time>
      </trkpt>
      <trkpt lat="42.8906650" lon="-0.2778600">
        <ele>1650.8</ele>
        <time>2020-09-12T06:52:57Z</time>
      </trkpt>
      <trkpt lat="42.8906730" lon="-0.2778550">
        <ele>1650.8</ele>
        <time>2020-09-12T06:52:58Z</time>
      </trkpt>
      <trkpt lat="42.8907040" lon="-0.2778340">
        <ele>1650.2</ele>
        <time>2020-09-12T06:53:01Z</time>
      </trkpt>
      <trkpt lat="42.8907270" lon="-0.2778330">
        <ele>1649.6</ele>
        <time>2020-09-12T06:53:03Z</time>
      </trkpt>
      <trkpt lat="42.8907610" lon="-0.2778310">
        <ele>1649.4</ele>
        <time>2020-09-12T06:53:06Z</time>
      </trkpt>
      <trkpt lat="42.8907290" lon="-0.2777720">
        <ele>1648.6</ele>
        <time>2020-09-12T06:53:12Z</time>
      </trkpt>
      <trkpt lat="42.8907000" lon="-0.2777500">
        <ele>1647.2</ele>
        <time>2020-09-12T06:53:15Z</time>
      </trkpt>
      <trkpt lat="42.8906760" lon="-0.2777220">
        <ele>1646.2</ele>
        <time>2020-09-12T06:53:19Z</time>
      </trkpt>
      <trkpt lat="42.8907020" lon="-0.2777170">
        <ele>1645.0</ele>
        <time>2020-09-12T06:53:22Z</time>
      </trkpt>
      <trkpt lat="42.8907140" lon="-0.2777160">
        <ele>1644.6</ele>
        <time>2020-09-12T06:53:23Z</time>
      </trkpt>
      <trkpt lat="42.8907370" lon="-0.2777160">
        <ele>1644.0</ele>
        <time>2020-09-12T06:53:25Z</time>
      </trkpt>
      <trkpt lat="42.8907470" lon="-0.2777140">
        <ele>1643.8</ele>
        <time>2020-09-12T06:53:26Z</time>
      </trkpt>
      <trkpt lat="42.8907350" lon="-0.2776730">
        <ele>1643.0</ele>
        <time>2020-09-12T06:53:30Z</time>
      </trkpt>
      <trkpt lat="42.8906940" lon="-0.2776320">
        <ele>1642.0</ele>
        <time>2020-09-12T06:53:34Z</time>
      </trkpt>
      <trkpt lat="42.8906770" lon="-0.2776030">
        <ele>1641.2</ele>
        <time>2020-09-12T06:53:37Z</time>
      </trkpt>
      <trkpt lat="42.8906970" lon="-0.2775960">
        <ele>1640.8</ele>
        <time>2020-09-12T06:53:39Z</time>
      </trkpt>
      <trkpt lat="42.8907460" lon="-0.2776070">
        <ele>1639.6</ele>
        <time>2020-09-12T06:53:43Z</time>
      </trkpt>
      <trkpt lat="42.8908010" lon="-0.2776230">
        <ele>1638.6</ele>
        <time>2020-09-12T06:53:48Z</time>
      </trkpt>
      <trkpt lat="42.8908210" lon="-0.2776090">
        <ele>1638.2</ele>
        <time>2020-09-12T06:53:50Z</time>
      </trkpt>
      <trkpt lat="42.8907940" lon="-0.2775740">
        <ele>1637.4</ele>
        <time>2020-09-12T06:53:54Z</time>
      </trkpt>
      <trkpt lat="42.8907490" lon="-0.2775290">
        <ele>1636.6</ele>
        <time>2020-09-12T06:53:59Z</time>
      </trkpt>
      <trkpt lat="42.8907410" lon="-0.2775060">
        <ele>1636.2</ele>
        <time>2020-09-12T06:54:01Z</time>
      </trkpt>
      <trkpt lat="42.8907440" lon="-0.2774780">
        <ele>1635.2</ele>
        <time>2020-09-12T06:54:04Z</time>
      </trkpt>
      <trkpt lat="42.8907520" lon="-0.2774730">
        <ele>1634.8</ele>
        <time>2020-09-12T06:54:05Z</time>
      </trkpt>
      <trkpt lat="42.8907750" lon="-0.2774560">
        <ele>1633.8</ele>
        <time>2020-09-12T06:54:08Z</time>
      </trkpt>
      <trkpt lat="42.8907940" lon="-0.2774520">
        <ele>1633.4</ele>
        <time>2020-09-12T06:54:10Z</time>
      </trkpt>
      <trkpt lat="42.8908340" lon="-0.2774620">
        <ele>1632.6</ele>
        <time>2020-09-12T06:54:13Z</time>
      </trkpt>
      <trkpt lat="42.8908920" lon="-0.2774740">
        <ele>1631.6</ele>
        <time>2020-09-12T06:54:17Z</time>
      </trkpt>
      <trkpt lat="42.8909040" lon="-0.2774740">
        <ele>1631.4</ele>
        <time>2020-09-12T06:54:18Z</time>
      </trkpt>
      <trkpt lat="42.8908750" lon="-0.2774240">
        <ele>1630.4</ele>
        <time>2020-09-12T06:54:23Z</time>
      </trkpt>
      <trkpt lat="42.8908380" lon="-0.2773830">
        <ele>1629.2</ele>
        <time>2020-09-12T06:54:28Z</time>
      </trkpt>
      <trkpt lat="42.8908690" lon="-0.2773900">
        <ele>1628.4</ele>
        <time>2020-09-12T06:54:31Z</time>
      </trkpt>
      <trkpt lat="42.8908780" lon="-0.2773900">
        <ele>1628.0</ele>
        <time>2020-09-12T06:54:32Z</time>
      </trkpt>
      <trkpt lat="42.8908820" lon="-0.2773930">
        <ele>1627.8</ele>
        <time>2020-09-12T06:54:33Z</time>
      </trkpt>
      <trkpt lat="42.8908930" lon="-0.2773860">
        <ele>1627.2</ele>
        <time>2020-09-12T06:54:35Z</time>
      </trkpt>
      <trkpt lat="42.8908990" lon="-0.2773730">
        <ele>1627.0</ele>
        <time>2020-09-12T06:54:36Z</time>
      </trkpt>
      <trkpt lat="42.8908870" lon="-0.2773510">
        <ele>1626.8</ele>
        <time>2020-09-12T06:54:38Z</time>
      </trkpt>
      <trkpt lat="42.8908510" lon="-0.2773300">
        <ele>1625.8</ele>
        <time>2020-09-12T06:54:41Z</time>
      </trkpt>
      <trkpt lat="42.8908340" lon="-0.2773150">
        <ele>1625.4</ele>
        <time>2020-09-12T06:54:43Z</time>
      </trkpt>
      <trkpt lat="42.8907920" lon="-0.2772700">
        <ele>1624.6</ele>
        <time>2020-09-12T06:54:47Z</time>
      </trkpt>
      <trkpt lat="42.8907870" lon="-0.2772630">
        <ele>1624.4</ele>
        <time>2020-09-12T06:54:48Z</time>
      </trkpt>
      <trkpt lat="42.8908060" lon="-0.2772430">
        <ele>1623.6</ele>
        <time>2020-09-12T06:54:51Z</time>
      </trkpt>
      <trkpt lat="42.8908420" lon="-0.2772250">
        <ele>1622.2</ele>
        <time>2020-09-12T06:54:54Z</time>
      </trkpt>
      <trkpt lat="42.8908840" lon="-0.2772220">
        <ele>1621.0</ele>
        <time>2020-09-12T06:54:58Z</time>
      </trkpt>
      <trkpt lat="42.8908970" lon="-0.2771940">
        <ele>1620.0</ele>
        <time>2020-09-12T06:55:01Z</time>
      </trkpt>
      <trkpt lat="42.8908900" lon="-0.2771900">
        <ele>1619.8</ele>
        <time>2020-09-12T06:55:02Z</time>
      </trkpt>
      <trkpt lat="42.8908480" lon="-0.2771670">
        <ele>1618.8</ele>
        <time>2020-09-12T06:55:06Z</time>
      </trkpt>
      <trkpt lat="42.8908120" lon="-0.2771350">
        <ele>1618.4</ele>
        <time>2020-09-12T06:55:10Z</time>
      </trkpt>
      <trkpt lat="42.8907960" lon="-0.2771050">
        <ele>1617.6</ele>
        <time>2020-09-12T06:55:13Z</time>
      </trkpt>
      <trkpt lat="42.8908000" lon="-0.2771040">
        <ele>1616.8</ele>
        <time>2020-09-12T06:55:16Z</time>
      </trkpt>
      <trkpt lat="42.8908070" lon="-0.2771040">
        <ele>1616.4</ele>
        <time>2020-09-12T06:55:17Z</time>
      </trkpt>
      <trkpt lat="42.8908640" lon="-0.2770950">
        <ele>1615.4</ele>
        <time>2020-09-12T06:55:22Z</time>
      </trkpt>
      <trkpt lat="42.8908730" lon="-0.2770910">
        <ele>1615.2</ele>
        <time>2020-09-12T06:55:23Z</time>
      </trkpt>
      <trkpt lat="42.8908920" lon="-0.2770910">
        <ele>1614.8</ele>
        <time>2020-09-12T06:55:25Z</time>
      </trkpt>
      <trkpt lat="42.8908770" lon="-0.2770580">
        <ele>1614.0</ele>
        <time>2020-09-12T06:55:29Z</time>
      </trkpt>
      <trkpt lat="42.8908390" lon="-0.2770090">
        <ele>1612.8</ele>
        <time>2020-09-12T06:55:34Z</time>
      </trkpt>
      <trkpt lat="42.8908250" lon="-0.2769900">
        <ele>1612.0</ele>
        <time>2020-09-12T06:55:37Z</time>
      </trkpt>
      <trkpt lat="42.8908210" lon="-0.2769850">
        <ele>1611.8</ele>
        <time>2020-09-12T06:55:38Z</time>
      </trkpt>
      <trkpt lat="42.8908180" lon="-0.2769640">
        <ele>1611.2</ele>
        <time>2020-09-12T06:55:40Z</time>
      </trkpt>
      <trkpt lat="42.8908310" lon="-0.2769610">
        <ele>1610.6</ele>
        <time>2020-09-12T06:55:42Z</time>
      </trkpt>
      <trkpt lat="42.8908390" lon="-0.2769610">
        <ele>1610.2</ele>
        <time>2020-09-12T06:55:43Z</time>
      </trkpt>
      <trkpt lat="42.8908550" lon="-0.2769550">
        <ele>1609.4</ele>
        <time>2020-09-12T06:55:45Z</time>
      </trkpt>
      <trkpt lat="42.8908670" lon="-0.2769290">
        <ele>1609.2</ele>
        <time>2020-09-12T06:55:47Z</time>
      </trkpt>
      <trkpt lat="42.8908630" lon="-0.2769010">
        <ele>1609.0</ele>
        <time>2020-09-12T06:55:49Z</time>
      </trkpt>
      <trkpt lat="42.8908460" lon="-0.2768760">
        <ele>1608.2</ele>
        <time>2020-09-12T06:55:52Z</time>
      </trkpt>
      <trkpt lat="42.8908410" lon="-0.2768650">
        <ele>1607.8</ele>
        <time>2020-09-12T06:55:54Z</time>
      </trkpt>
      <trkpt lat="42.8908450" lon="-0.2768410">
        <ele>1607.6</ele>
        <time>2020-09-12T06:55:56Z</time>
      </trkpt>
      <trkpt lat="42.8908630" lon="-0.2768320">
        <ele>1607.0</ele>
        <time>2020-09-12T06:55:58Z</time>
      </trkpt>
      <trkpt lat="42.8908950" lon="-0.2768380">
        <ele>1606.0</ele>
        <time>2020-09-12T06:56:01Z</time>
      </trkpt>
      <trkpt lat="42.8909010" lon="-0.2768360">
        <ele>1605.8</ele>
        <time>2020-09-12T06:56:02Z</time>
      </trkpt>
      <trkpt lat="42.8909040" lon="-0.2768290">
        <ele>1605.6</ele>
        <time>2020-09-12T06:56:03Z</time>
      </trkpt>
      <trkpt lat="42.8908730" lon="-0.2767870">
        <ele>1604.4</ele>
        <time>2020-09-12T06:56:08Z</time>
      </trkpt>
      <trkpt lat="42.8908350" lon="-0.2767680">
        <ele>1603.2</ele>
        <time>2020-09-12T06:56:12Z</time>
      </trkpt>
      <trkpt lat="42.8908360" lon="-0.2767680">
        <ele>1603.2</ele>
        <time>2020-09-12T06:56:13Z</time>
      </trkpt>
      <trkpt lat="42.8908520" lon="-0.2767700">
        <ele>1602.4</ele>
        <time>2020-09-12T06:56:15Z</time>
      </trkpt>
      <trkpt lat="42.8908650" lon="-0.2767720">
        <ele>1602.0</ele>
        <time>2020-09-12T06:56:16Z</time>
      </trkpt>
      <trkpt lat="42.8908750" lon="-0.2767700">
        <ele>1601.8</ele>
        <time>2020-09-12T06:56:17Z</time>
      </trkpt>
      <trkpt lat="42.8909050" lon="-0.2767570">
        <ele>1601.2</ele>
        <time>2020-09-12T06:56:20Z</time>
      </trkpt>
      <trkpt lat="42.8909180" lon="-0.2767400">
        <ele>1601.0</ele>
        <time>2020-09-12T06:56:22Z</time>
      </trkpt>
      <trkpt lat="42.8908950" lon="-0.2767170">
        <ele>1600.4</ele>
        <time>2020-09-12T06:56:25Z</time>
      </trkpt>
      <trkpt lat="42.8908760" lon="-0.2767060">
        <ele>1599.8</ele>
        <time>2020-09-12T06:56:27Z</time>
      </trkpt>
      <trkpt lat="42.8908350" lon="-0.2766420">
        <ele>1598.8</ele>
        <time>2020-09-12T06:56:32Z</time>
      </trkpt>
      <trkpt lat="42.8908310" lon="-0.2766300">
        <ele>1598.0</ele>
        <time>2020-09-12T06:56:34Z</time>
      </trkpt>
      <trkpt lat="42.8908390" lon="-0.2766350">
        <ele>1597.6</ele>
        <time>2020-09-12T06:56:35Z</time>
      </trkpt>
      <trkpt lat="42.8908660" lon="-0.2766430">
        <ele>1596.6</ele>
        <time>2020-09-12T06:56:37Z</time>
      </trkpt>
      <trkpt lat="42.8908780" lon="-0.2766390">
        <ele>1596.2</ele>
        <time>2020-09-12T06:56:38Z</time>
      </trkpt>
      <trkpt lat="42.8909290" lon="-0.2766210">
        <ele>1595.2</ele>
        <time>2020-09-12T06:56:42Z</time>
      </trkpt>
      <trkpt lat="42.8909480" lon="-0.2766080">
        <ele>1595.0</ele>
        <time>2020-09-12T06:56:44Z</time>
      </trkpt>
      <trkpt lat="42.8909020" lon="-0.2765790">
        <ele>1593.8</ele>
        <time>2020-09-12T06:56:50Z</time>
      </trkpt>
      <trkpt lat="42.8908750" lon="-0.2765380">
        <ele>1593.2</ele>
        <time>2020-09-12T06:56:54Z</time>
      </trkpt>
      <trkpt lat="42.8908740" lon="-0.2765310">
        <ele>1592.8</ele>
        <time>2020-09-12T06:56:55Z</time>
      </trkpt>
      <trkpt lat="42.8908950" lon="-0.2765210">
        <ele>1592.0</ele>
        <time>2020-09-12T06:56:58Z</time>
      </trkpt>
      <trkpt lat="42.8909070" lon="-0.2765140">
        <ele>1591.6</ele>
        <time>2020-09-12T06:56:59Z</time>
      </trkpt>
      <trkpt lat="42.8909220" lon="-0.2764960">
        <ele>1591.4</ele>
        <time>2020-09-12T06:57:00Z</time>
      </trkpt>
      <trkpt lat="42.8909300" lon="-0.2764730">
        <ele>1590.8</ele>
        <time>2020-09-12T06:57:02Z</time>
      </trkpt>
      <trkpt lat="42.8909290" lon="-0.2764620">
        <ele>1590.6</ele>
        <time>2020-09-12T06:57:03Z</time>
      </trkpt>
      <trkpt lat="42.8909270" lon="-0.2764120">
        <ele>1589.6</ele>
        <time>2020-09-12T06:57:07Z</time>
      </trkpt>
      <trkpt lat="42.8909320" lon="-0.2763840">
        <ele>1588.6</ele>
        <time>2020-09-12T06:57:09Z</time>
      </trkpt>
      <trkpt lat="42.8909510" lon="-0.2763640">
        <ele>1587.0</ele>
        <time>2020-09-12T06:57:12Z</time>
      </trkpt>
      <trkpt lat="42.8909680" lon="-0.2763490">
        <ele>1585.8</ele>
        <time>2020-09-12T06:57:14Z</time>
      </trkpt>
      <trkpt lat="42.8910020" lon="-0.2763320">
        <ele>1584.8</ele>
        <time>2020-09-12T06:57:17Z</time>
      </trkpt>
      <trkpt lat="42.8910180" lon="-0.2763140">
        <ele>1584.4</ele>
        <time>2020-09-12T06:57:19Z</time>
      </trkpt>
      <trkpt lat="42.8910420" lon="-0.2762680">
        <ele>1583.6</ele>
        <time>2020-09-12T06:57:23Z</time>
      </trkpt>
      <trkpt lat="42.8911110" lon="-0.2761990">
        <ele>1582.6</ele>
        <time>2020-09-12T06:57:30Z</time>
      </trkpt>
      <trkpt lat="42.8910770" lon="-0.2761910">
        <ele>1581.4</ele>
        <time>2020-09-12T06:57:34Z</time>
      </trkpt>
      <trkpt lat="42.8910360" lon="-0.2762130">
        <ele>1580.2</ele>
        <time>2020-09-12T06:57:37Z</time>
      </trkpt>
      <trkpt lat="42.8909370" lon="-0.2761820">
        <ele>1579.2</ele>
        <time>2020-09-12T06:57:44Z</time>
      </trkpt>
      <trkpt lat="42.8908840" lon="-0.2761520">
        <ele>1578.6</ele>
        <time>2020-09-12T06:57:48Z</time>
      </trkpt>
      <trkpt lat="42.8908820" lon="-0.2761340">
        <ele>1578.0</ele>
        <time>2020-09-12T06:57:50Z</time>
      </trkpt>
      <trkpt lat="42.8909250" lon="-0.2761290">
        <ele>1577.0</ele>
        <time>2020-09-12T06:57:54Z</time>
      </trkpt>
      <trkpt lat="42.8909830" lon="-0.2761190">
        <ele>1575.6</ele>
        <time>2020-09-12T06:57:59Z</time>
      </trkpt>
      <trkpt lat="42.8910610" lon="-0.2760370">
        <ele>1574.6</ele>
        <time>2020-09-12T06:58:07Z</time>
      </trkpt>
      <trkpt lat="42.8911070" lon="-0.2759690">
        <ele>1573.4</ele>
        <time>2020-09-12T06:58:12Z</time>
      </trkpt>
      <trkpt lat="42.8911670" lon="-0.2759220">
        <ele>1572.2</ele>
        <time>2020-09-12T06:58:17Z</time>
      </trkpt>
      <trkpt lat="42.8912650" lon="-0.2758920">
        <ele>1571.2</ele>
        <time>2020-09-12T06:58:24Z</time>
      </trkpt>
      <trkpt lat="42.8913100" lon="-0.2758650">
        <ele>1570.0</ele>
        <time>2020-09-12T06:58:28Z</time>
      </trkpt>
      <trkpt lat="42.8913590" lon="-0.2758420">
        <ele>1569.0</ele>
        <time>2020-09-12T06:58:33Z</time>
      </trkpt>
      <trkpt lat="42.8913940" lon="-0.2758280">
        <ele>1568.4</ele>
        <time>2020-09-12T06:58:36Z</time>
      </trkpt>
      <trkpt lat="42.8914000" lon="-0.2758080">
        <ele>1567.8</ele>
        <time>2020-09-12T06:58:38Z</time>
      </trkpt>
      <trkpt lat="42.8913980" lon="-0.2758040">
        <ele>1567.6</ele>
        <time>2020-09-12T06:58:39Z</time>
      </trkpt>
      <trkpt lat="42.8913390" lon="-0.2757920">
        <ele>1566.8</ele>
        <time>2020-09-12T06:58:44Z</time>
      </trkpt>
      <trkpt lat="42.8912510" lon="-0.2757880">
        <ele>1565.6</ele>
        <time>2020-09-12T06:58:50Z</time>
      </trkpt>
      <trkpt lat="42.8911910" lon="-0.2757690">
        <ele>1564.6</ele>
        <time>2020-09-12T06:58:54Z</time>
      </trkpt>
      <trkpt lat="42.8911440" lon="-0.2757590">
        <ele>1563.4</ele>
        <time>2020-09-12T06:58:58Z</time>
      </trkpt>
      <trkpt lat="42.8910800" lon="-0.2757700">
        <ele>1562.4</ele>
        <time>2020-09-12T06:59:04Z</time>
      </trkpt>
      <trkpt lat="42.8910350" lon="-0.2758070">
        <ele>1561.8</ele>
        <time>2020-09-12T06:59:08Z</time>
      </trkpt>
      <trkpt lat="42.8909890" lon="-0.2758320">
        <ele>1561.6</ele>
        <time>2020-09-12T06:59:13Z</time>
      </trkpt>
      <trkpt lat="42.8910010" lon="-0.2757940">
        <ele>1561.0</ele>
        <time>2020-09-12T06:59:16Z</time>
      </trkpt>
      <trkpt lat="42.8910190" lon="-0.2757710">
        <ele>1560.0</ele>
        <time>2020-09-12T06:59:18Z</time>
      </trkpt>
      <trkpt lat="42.8910510" lon="-0.2757280">
        <ele>1558.8</ele>
        <time>2020-09-12T06:59:21Z</time>
      </trkpt>
      <trkpt lat="42.8910790" lon="-0.2756870">
        <ele>1557.8</ele>
        <time>2020-09-12T06:59:25Z</time>
      </trkpt>
      <trkpt lat="42.8910910" lon="-0.2756810">
        <ele>1557.6</ele>
        <time>2020-09-12T06:59:26Z</time>
      </trkpt>
      <trkpt lat="42.8911450" lon="-0.2756320">
        <ele>1556.6</ele>
        <time>2020-09-12T06:59:30Z</time>
      </trkpt>
      <trkpt lat="42.8912020" lon="-0.2755960">
        <ele>1555.4</ele>
        <time>2020-09-12T06:59:34Z</time>
      </trkpt>
      <trkpt lat="42.8912410" lon="-0.2755820">
        <ele>1554.4</ele>
        <time>2020-09-12T06:59:38Z</time>
      </trkpt>
      <trkpt lat="42.8913020" lon="-0.2755410">
        <ele>1553.2</ele>
        <time>2020-09-12T06:59:43Z</time>
      </trkpt>
      <trkpt lat="42.8913570" lon="-0.2755200">
        <ele>1552.2</ele>
        <time>2020-09-12T06:59:48Z</time>
      </trkpt>
      <trkpt lat="42.8913320" lon="-0.2754930">
        <ele>1550.8</ele>
        <time>2020-09-12T06:59:52Z</time>
      </trkpt>
      <trkpt lat="42.8912880" lon="-0.2754910">
        <ele>1549.8</ele>
        <time>2020-09-12T06:59:56Z</time>
      </trkpt>
      <trkpt lat="42.8912610" lon="-0.2754760">
        <ele>1549.0</ele>
        <time>2020-09-12T06:59:59Z</time>
      </trkpt>
      <trkpt lat="42.8912540" lon="-0.2754680">
        <ele>1548.6</ele>
        <time>2020-09-12T07:00:01Z</time>
      </trkpt>
      <trkpt lat="42.8912580" lon="-0.2754580">
        <ele>1548.4</ele>
        <time>2020-09-12T07:00:03Z</time>
      </trkpt>
      <trkpt lat="42.8912590" lon="-0.2754770">
        <ele>1548.4</ele>
        <time>2020-09-12T07:00:33Z</time>
      </trkpt>
      <trkpt lat="42.8911730" lon="-0.2754590">
        <ele>1547.4</ele>
        <time>2020-09-12T07:00:39Z</time>
      </trkpt>
      <trkpt lat="42.8910950" lon="-0.2754520">
        <ele>1546.4</ele>
        <time>2020-09-12T07:00:44Z</time>
      </trkpt>
      <trkpt lat="42.8910300" lon="-0.2754580">
        <ele>1545.2</ele>
        <time>2020-09-12T07:00:48Z</time>
      </trkpt>
      <trkpt lat="42.8909570" lon="-0.2754770">
        <ele>1543.8</ele>
        <time>2020-09-12T07:00:53Z</time>
      </trkpt>
      <trkpt lat="42.8909360" lon="-0.2754980">
        <ele>1543.4</ele>
        <time>2020-09-12T07:00:55Z</time>
      </trkpt>
      <trkpt lat="42.8909040" lon="-0.2754950">
        <ele>1542.8</ele>
        <time>2020-09-12T07:00:58Z</time>
      </trkpt>
      <trkpt lat="42.8909020" lon="-0.2754850">
        <ele>1542.6</ele>
        <time>2020-09-12T07:00:59Z</time>
      </trkpt>
      <trkpt lat="42.8909320" lon="-0.2754370">
        <ele>1541.2</ele>
        <time>2020-09-12T07:01:03Z</time>
      </trkpt>
      <trkpt lat="42.8909510" lon="-0.2754040">
        <ele>1540.2</ele>
        <time>2020-09-12T07:01:06Z</time>
      </trkpt>
      <trkpt lat="42.8909900" lon="-0.2753420">
        <ele>1539.2</ele>
        <time>2020-09-12T07:01:11Z</time>
      </trkpt>
      <trkpt lat="42.8910340" lon="-0.2753130">
        <ele>1538.0</ele>
        <time>2020-09-12T07:01:15Z</time>
      </trkpt>
      <trkpt lat="42.8910630" lon="-0.2753040">
        <ele>1537.0</ele>
        <time>2020-09-12T07:01:18Z</time>
      </trkpt>
      <trkpt lat="42.8910800" lon="-0.2752880">
        <ele>1536.8</ele>
        <time>2020-09-12T07:01:20Z</time>
      </trkpt>
      <trkpt lat="42.8911090" lon="-0.2752600">
        <ele>1536.4</ele>
        <time>2020-09-12T07:01:22Z</time>
      </trkpt>
      <trkpt lat="42.8911500" lon="-0.2752350">
        <ele>1535.8</ele>
        <time>2020-09-12T07:01:25Z</time>
      </trkpt>
      <trkpt lat="42.8912020" lon="-0.2752040">
        <ele>1534.6</ele>
        <time>2020-09-12T07:01:28Z</time>
      </trkpt>
      <trkpt lat="42.8911590" lon="-0.2751840">
        <ele>1533.6</ele>
        <time>2020-09-12T07:01:33Z</time>
      </trkpt>
      <trkpt lat="42.8910920" lon="-0.2751820">
        <ele>1532.6</ele>
        <time>2020-09-12T07:01:38Z</time>
      </trkpt>
      <trkpt lat="42.8910290" lon="-0.2751650">
        <ele>1531.6</ele>
        <time>2020-09-12T07:01:43Z</time>
      </trkpt>
      <trkpt lat="42.8909920" lon="-0.2751610">
        <ele>1530.4</ele>
        <time>2020-09-12T07:01:46Z</time>
      </trkpt>
      <trkpt lat="42.8909180" lon="-0.2751740">
        <ele>1529.2</ele>
        <time>2020-09-12T07:01:51Z</time>
      </trkpt>
      <trkpt lat="42.8908910" lon="-0.2751750">
        <ele>1528.6</ele>
        <time>2020-09-12T07:01:53Z</time>
      </trkpt>
      <trkpt lat="42.8908400" lon="-0.2751720">
        <ele>1528.0</ele>
        <time>2020-09-12T07:01:57Z</time>
      </trkpt>
      <trkpt lat="42.8908010" lon="-0.2751550">
        <ele>1527.2</ele>
        <time>2020-09-12T07:02:00Z</time>
      </trkpt>
      <trkpt lat="42.8907990" lon="-0.2751480">
        <ele>1527.0</ele>
        <time>2020-09-12T07:02:01Z</time>
      </trkpt>
      <trkpt lat="42.8908080" lon="-0.2751330">
        <ele>1526.4</ele>
        <time>2020-09-12T07:02:03Z</time>
      </trkpt>
      <trkpt lat="42.8908230" lon="-0.2751220">
        <ele>1525.6</ele>
        <time>2020-09-12T07:02:05Z</time>
      </trkpt>
      <trkpt lat="42.8908320" lon="-0.2751120">
        <ele>1525.2</ele>
        <time>2020-09-12T07:02:06Z</time>
      </trkpt>
      <trkpt lat="42.8908560" lon="-0.2750780">
        <ele>1524.4</ele>
        <time>2020-09-12T07:02:09Z</time>
      </trkpt>
      <trkpt lat="42.8909320" lon="-0.2750160">
        <ele>1523.2</ele>
        <time>2020-09-12T07:02:16Z</time>
      </trkpt>
      <trkpt lat="42.8909660" lon="-0.2749870">
        <ele>1522.2</ele>
        <time>2020-09-12T07:02:19Z</time>
      </trkpt>
      <trkpt lat="42.8910260" lon="-0.2749380">
        <ele>1521.0</ele>
        <time>2020-09-12T07:02:24Z</time>
      </trkpt>
      <trkpt lat="42.8910910" lon="-0.2748850">
        <ele>1519.8</ele>
        <time>2020-09-12T07:02:29Z</time>
      </trkpt>
      <trkpt lat="42.8911320" lon="-0.2748470">
        <ele>1519.0</ele>
        <time>2020-09-12T07:02:33Z</time>
      </trkpt>
      <trkpt lat="42.8911450" lon="-0.2748300">
        <ele>1519.0</ele>
        <time>2020-09-12T07:02:35Z</time>
      </trkpt>
      <trkpt lat="42.8911370" lon="-0.2748180">
        <ele>1518.8</ele>
        <time>2020-09-12T07:02:37Z</time>
      </trkpt>
      <trkpt lat="42.8911350" lon="-0.2748240">
        <ele>1518.4</ele>
        <time>2020-09-12T07:02:39Z</time>
      </trkpt>
      <trkpt lat="42.8911050" lon="-0.2748440">
        <ele>1517.6</ele>
        <time>2020-09-12T07:02:43Z</time>
      </trkpt>
      <trkpt lat="42.8910240" lon="-0.2748580">
        <ele>1516.6</ele>
        <time>2020-09-12T07:02:50Z</time>
      </trkpt>
      <trkpt lat="42.8909680" lon="-0.2748600">
        <ele>1515.4</ele>
        <time>2020-09-12T07:02:54Z</time>
      </trkpt>
      <trkpt lat="42.8909220" lon="-0.2748470">
        <ele>1514.4</ele>
        <time>2020-09-12T07:02:58Z</time>
      </trkpt>
      <trkpt lat="42.8908900" lon="-0.2748480">
        <ele>1513.6</ele>
        <time>2020-09-12T07:03:01Z</time>
      </trkpt>
      <trkpt lat="42.8908850" lon="-0.2748530">
        <ele>1513.4</ele>
        <time>2020-09-12T07:03:02Z</time>
      </trkpt>
      <trkpt lat="42.8908790" lon="-0.2748540">
        <ele>1513.0</ele>
        <time>2020-09-12T07:03:03Z</time>
      </trkpt>
      <trkpt lat="42.8908610" lon="-0.2748550">
        <ele>1512.6</ele>
        <time>2020-09-12T07:03:05Z</time>
      </trkpt>
      <trkpt lat="42.8907870" lon="-0.2748660">
        <ele>1512.4</ele>
        <time>2020-09-12T07:03:10Z</time>
      </trkpt>
      <trkpt lat="42.8907410" lon="-0.2748570">
        <ele>1511.4</ele>
        <time>2020-09-12T07:03:14Z</time>
      </trkpt>
      <trkpt lat="42.8907690" lon="-0.2748160">
        <ele>1510.2</ele>
        <time>2020-09-12T07:03:19Z</time>
      </trkpt>
      <trkpt lat="42.8908020" lon="-0.2747570">
        <ele>1509.0</ele>
        <time>2020-09-12T07:03:23Z</time>
      </trkpt>
      <trkpt lat="42.8908270" lon="-0.2747210">
        <ele>1507.8</ele>
        <time>2020-09-12T07:03:26Z</time>
      </trkpt>
      <trkpt lat="42.8908840" lon="-0.2746670">
        <ele>1506.6</ele>
        <time>2020-09-12T07:03:31Z</time>
      </trkpt>
      <trkpt lat="42.8909160" lon="-0.2746490">
        <ele>1506.0</ele>
        <time>2020-09-12T07:03:34Z</time>
      </trkpt>
      <trkpt lat="42.8909390" lon="-0.2746110">
        <ele>1505.4</ele>
        <time>2020-09-12T07:03:37Z</time>
      </trkpt>
      <trkpt lat="42.8909220" lon="-0.2745880">
        <ele>1504.6</ele>
        <time>2020-09-12T07:03:40Z</time>
      </trkpt>
      <trkpt lat="42.8909190" lon="-0.2745790">
        <ele>1504.2</ele>
        <time>2020-09-12T07:03:41Z</time>
      </trkpt>
      <trkpt lat="42.8909020" lon="-0.2745510">
        <ele>1503.0</ele>
        <time>2020-09-12T07:03:44Z</time>
      </trkpt>
      <trkpt lat="42.8908830" lon="-0.2745340">
        <ele>1502.4</ele>
        <time>2020-09-12T07:03:46Z</time>
      </trkpt>
      <trkpt lat="42.8908760" lon="-0.2745270">
        <ele>1501.8</ele>
        <time>2020-09-12T07:03:47Z</time>
      </trkpt>
      <trkpt lat="42.8908670" lon="-0.2745290">
        <ele>1501.4</ele>
        <time>2020-09-12T07:03:48Z</time>
      </trkpt>
      <trkpt lat="42.8908430" lon="-0.2745340">
        <ele>1500.8</ele>
        <time>2020-09-12T07:03:50Z</time>
      </trkpt>
      <trkpt lat="42.8908300" lon="-0.2745310">
        <ele>1500.6</ele>
        <time>2020-09-12T07:03:51Z</time>
      </trkpt>
      <trkpt lat="42.8907780" lon="-0.2745420">
        <ele>1499.6</ele>
        <time>2020-09-12T07:03:55Z</time>
      </trkpt>
      <trkpt lat="42.8907040" lon="-0.2745860">
        <ele>1498.6</ele>
        <time>2020-09-12T07:04:01Z</time>
      </trkpt>
      <trkpt lat="42.8906520" lon="-0.2745670">
        <ele>1497.8</ele>
        <time>2020-09-12T07:04:06Z</time>
      </trkpt>
      <trkpt lat="42.8906550" lon="-0.2745500">
        <ele>1497.4</ele>
        <time>2020-09-12T07:04:08Z</time>
      </trkpt>
      <trkpt lat="42.8906970" lon="-0.2745140">
        <ele>1496.2</ele>
        <time>2020-09-12T07:04:12Z</time>
      </trkpt>
      <trkpt lat="42.8907410" lon="-0.2744640">
        <ele>1495.0</ele>
        <time>2020-09-12T07:04:16Z</time>
      </trkpt>
      <trkpt lat="42.8908120" lon="-0.2744010">
        <ele>1494.0</ele>
        <time>2020-09-12T07:04:22Z</time>
      </trkpt>
      <trkpt lat="42.8908220" lon="-0.2743880">
        <ele>1493.6</ele>
        <time>2020-09-12T07:04:23Z</time>
      </trkpt>
      <trkpt lat="42.8908490" lon="-0.2743490">
        <ele>1492.8</ele>
        <time>2020-09-12T07:04:26Z</time>
      </trkpt>
      <trkpt lat="42.8908560" lon="-0.2743360">
        <ele>1492.6</ele>
        <time>2020-09-12T07:04:27Z</time>
      </trkpt>
      <trkpt lat="42.8908550" lon="-0.2742580">
        <ele>1491.4</ele>
        <time>2020-09-12T07:04:32Z</time>
      </trkpt>
      <trkpt lat="42.8908510" lon="-0.2742370">
        <ele>1490.6</ele>
        <time>2020-09-12T07:04:34Z</time>
      </trkpt>
      <trkpt lat="42.8908530" lon="-0.2742260">
        <ele>1490.2</ele>
        <time>2020-09-12T07:04:35Z</time>
      </trkpt>
      <trkpt lat="42.8908520" lon="-0.2742050">
        <ele>1489.0</ele>
        <time>2020-09-12T07:04:37Z</time>
      </trkpt>
      <trkpt lat="42.8908370" lon="-0.2741950">
        <ele>1488.0</ele>
        <time>2020-09-12T07:04:39Z</time>
      </trkpt>
      <trkpt lat="42.8908140" lon="-0.2741760">
        <ele>1487.0</ele>
        <time>2020-09-12T07:04:42Z</time>
      </trkpt>
      <trkpt lat="42.8907950" lon="-0.2741580">
        <ele>1485.8</ele>
        <time>2020-09-12T07:04:44Z</time>
      </trkpt>
      <trkpt lat="42.8907800" lon="-0.2741430">
        <ele>1484.8</ele>
        <time>2020-09-12T07:04:46Z</time>
      </trkpt>
      <trkpt lat="42.8907550" lon="-0.2741240">
        <ele>1483.4</ele>
        <time>2020-09-12T07:04:49Z</time>
      </trkpt>
      <trkpt lat="42.8907510" lon="-0.2741140">
        <ele>1483.0</ele>
        <time>2020-09-12T07:04:50Z</time>
      </trkpt>
      <trkpt lat="42.8907380" lon="-0.2740980">
        <ele>1482.0</ele>
        <time>2020-09-12T07:04:52Z</time>
      </trkpt>
      <trkpt lat="42.8907330" lon="-0.2740860">
        <ele>1481.6</ele>
        <time>2020-09-12T07:04:53Z</time>
      </trkpt>
      <trkpt lat="42.8907290" lon="-0.2740570">
        <ele>1480.6</ele>
        <time>2020-09-12T07:04:55Z</time>
      </trkpt>
      <trkpt lat="42.8907260" lon="-0.2740240">
        <ele>1479.6</ele>
        <time>2020-09-12T07:04:57Z</time>
      </trkpt>
      <trkpt lat="42.8907210" lon="-0.2739950">
        <ele>1478.6</ele>
        <time>2020-09-12T07:04:59Z</time>
      </trkpt>
      <trkpt lat="42.8907140" lon="-0.2739650">
        <ele>1477.2</ele>
        <time>2020-09-12T07:05:02Z</time>
      </trkpt>
      <trkpt lat="42.8907150" lon="-0.2739610">
        <ele>1476.6</ele>
        <time>2020-09-12T07:05:03Z</time>
      </trkpt>
      <trkpt lat="42.8907160" lon="-0.2739520">
        <ele>1476.2</ele>
        <time>2020-09-12T07:05:04Z</time>
      </trkpt>
      <trkpt lat="42.8907100" lon="-0.2739230">
        <ele>1475.0</ele>
        <time>2020-09-12T07:05:07Z</time>
      </trkpt>
      <trkpt lat="42.8907080" lon="-0.2739160">
        <ele>1474.6</ele>
        <time>2020-09-12T07:05:08Z</time>
      </trkpt>
      <trkpt lat="42.8906960" lon="-0.2738960">
        <ele>1473.8</ele>
        <time>2020-09-12T07:05:10Z</time>
      </trkpt>
      <trkpt lat="42.8906880" lon="-0.2738940">
        <ele>1473.4</ele>
        <time>2020-09-12T07:05:11Z</time>
      </trkpt>
      <trkpt lat="42.8906780" lon="-0.2738810">
        <ele>1472.6</ele>
        <time>2020-09-12T07:05:13Z</time>
      </trkpt>
      <trkpt lat="42.8906730" lon="-0.2738450">
        <ele>1471.2</ele>
        <time>2020-09-12T07:05:16Z</time>
      </trkpt>
      <trkpt lat="42.8906490" lon="-0.2738300">
        <ele>1470.0</ele>
        <time>2020-09-12T07:05:19Z</time>
      </trkpt>
      <trkpt lat="42.8906240" lon="-0.2738080">
        <ele>1468.6</ele>
        <time>2020-09-12T07:05:22Z</time>
      </trkpt>
      <trkpt lat="42.8906260" lon="-0.2737840">
        <ele>1467.4</ele>
        <time>2020-09-12T07:05:24Z</time>
      </trkpt>
      <trkpt lat="42.8906330" lon="-0.2737620">
        <ele>1466.4</ele>
        <time>2020-09-12T07:05:26Z</time>
      </trkpt>
      <trkpt lat="42.8906360" lon="-0.2737470">
        <ele>1465.8</ele>
        <time>2020-09-12T07:05:27Z</time>
      </trkpt>
      <trkpt lat="42.8906250" lon="-0.2737360">
        <ele>1465.2</ele>
        <time>2020-09-12T07:05:29Z</time>
      </trkpt>
      <trkpt lat="42.8906090" lon="-0.2737350">
        <ele>1464.2</ele>
        <time>2020-09-12T07:05:31Z</time>
      </trkpt>
      <trkpt lat="42.8905990" lon="-0.2737310">
        <ele>1463.8</ele>
        <time>2020-09-12T07:05:32Z</time>
      </trkpt>
      <trkpt lat="42.8905900" lon="-0.2737250">
        <ele>1463.0</ele>
        <time>2020-09-12T07:05:34Z</time>
      </trkpt>
      <trkpt lat="42.8905840" lon="-0.2737200">
        <ele>1462.6</ele>
        <time>2020-09-12T07:05:35Z</time>
      </trkpt>
      <trkpt lat="42.8905490" lon="-0.2736890">
        <ele>1461.6</ele>
        <time>2020-09-12T07:05:39Z</time>
      </trkpt>
      <trkpt lat="42.8905310" lon="-0.2736840">
        <ele>1460.4</ele>
        <time>2020-09-12T07:05:41Z</time>
      </trkpt>
      <trkpt lat="42.8905140" lon="-0.2736830">
        <ele>1459.6</ele>
        <time>2020-09-12T07:05:43Z</time>
      </trkpt>
      <trkpt lat="42.8905120" lon="-0.2736730">
        <ele>1459.2</ele>
        <time>2020-09-12T07:05:44Z</time>
      </trkpt>
      <trkpt lat="42.8904910" lon="-0.2736450">
        <ele>1457.8</ele>
        <time>2020-09-12T07:05:47Z</time>
      </trkpt>
      <trkpt lat="42.8904570" lon="-0.2736620">
        <ele>1456.6</ele>
        <time>2020-09-12T07:05:50Z</time>
      </trkpt>
      <trkpt lat="42.8904500" lon="-0.2736650">
        <ele>1456.2</ele>
        <time>2020-09-12T07:05:51Z</time>
      </trkpt>
      <trkpt lat="42.8904460" lon="-0.2736480">
        <ele>1455.2</ele>
        <time>2020-09-12T07:05:53Z</time>
      </trkpt>
      <trkpt lat="42.8904490" lon="-0.2736310">
        <ele>1455.0</ele>
        <time>2020-09-12T07:05:54Z</time>
      </trkpt>
      <trkpt lat="42.8904660" lon="-0.2735910">
        <ele>1454.0</ele>
        <time>2020-09-12T07:05:57Z</time>
      </trkpt>
      <trkpt lat="42.8904840" lon="-0.2735540">
        <ele>1453.0</ele>
        <time>2020-09-12T07:06:00Z</time>
      </trkpt>
      <trkpt lat="42.8905110" lon="-0.2734660">
        <ele>1452.0</ele>
        <time>2020-09-12T07:06:06Z</time>
      </trkpt>
      <trkpt lat="42.8905240" lon="-0.2734330">
        <ele>1451.2</ele>
        <time>2020-09-12T07:06:08Z</time>
      </trkpt>
      <trkpt lat="42.8905320" lon="-0.2734250">
        <ele>1450.8</ele>
        <time>2020-09-12T07:06:09Z</time>
      </trkpt>
      <trkpt lat="42.8905410" lon="-0.2734080">
        <ele>1450.0</ele>
        <time>2020-09-12T07:06:11Z</time>
      </trkpt>
      <trkpt lat="42.8905450" lon="-0.2733810">
        <ele>1449.6</ele>
        <time>2020-09-12T07:06:13Z</time>
      </trkpt>
      <trkpt lat="42.8905880" lon="-0.2732690">
        <ele>1449.0</ele>
        <time>2020-09-12T07:06:19Z</time>
      </trkpt>
      <trkpt lat="42.8906070" lon="-0.2732530">
        <ele>1448.6</ele>
        <time>2020-09-12T07:06:21Z</time>
      </trkpt>
      <trkpt lat="42.8906070" lon="-0.2732440">
        <ele>1448.2</ele>
        <time>2020-09-12T07:06:22Z</time>
      </trkpt>
      <trkpt lat="42.8905810" lon="-0.2732440">
        <ele>1448.0</ele>
        <time>2020-09-12T07:06:24Z</time>
      </trkpt>
      <trkpt lat="42.8905590" lon="-0.2732530">
        <ele>1447.4</ele>
        <time>2020-09-12T07:06:26Z</time>
      </trkpt>
      <trkpt lat="42.8905160" lon="-0.2732810">
        <ele>1446.4</ele>
        <time>2020-09-12T07:06:30Z</time>
      </trkpt>
      <trkpt lat="42.8904600" lon="-0.2733390">
        <ele>1445.2</ele>
        <time>2020-09-12T07:06:35Z</time>
      </trkpt>
      <trkpt lat="42.8904210" lon="-0.2733800">
        <ele>1444.2</ele>
        <time>2020-09-12T07:06:39Z</time>
      </trkpt>
      <trkpt lat="42.8904030" lon="-0.2733780">
        <ele>1443.6</ele>
        <time>2020-09-12T07:06:41Z</time>
      </trkpt>
      <trkpt lat="42.8904070" lon="-0.2733570">
        <ele>1443.2</ele>
        <time>2020-09-12T07:06:43Z</time>
      </trkpt>
      <trkpt lat="42.8904090" lon="-0.2733400">
        <ele>1443.0</ele>
        <time>2020-09-12T07:06:44Z</time>
      </trkpt>
      <trkpt lat="42.8904260" lon="-0.2732670">
        <ele>1441.8</ele>
        <time>2020-09-12T07:06:48Z</time>
      </trkpt>
      <trkpt lat="42.8904410" lon="-0.2732350">
        <ele>1441.6</ele>
        <time>2020-09-12T07:06:50Z</time>
      </trkpt>
      <trkpt lat="42.8904390" lon="-0.2732050">
        <ele>1441.4</ele>
        <time>2020-09-12T07:06:52Z</time>
      </trkpt>
      <trkpt lat="42.8904480" lon="-0.2731510">
        <ele>1440.6</ele>
        <time>2020-09-12T07:06:55Z</time>
      </trkpt>
      <trkpt lat="42.8904490" lon="-0.2730670">
        <ele>1439.6</ele>
        <time>2020-09-12T07:07:02Z</time>
      </trkpt>
      <trkpt lat="42.8904590" lon="-0.2730400">
        <ele>1438.6</ele>
        <time>2020-09-12T07:07:04Z</time>
      </trkpt>
      <trkpt lat="42.8904570" lon="-0.2730320">
        <ele>1438.2</ele>
        <time>2020-09-12T07:07:05Z</time>
      </trkpt>
      <trkpt lat="42.8904570" lon="-0.2730270">
        <ele>1437.8</ele>
        <time>2020-09-12T07:07:06Z</time>
      </trkpt>
      <trkpt lat="42.8904570" lon="-0.2730030">
        <ele>1437.2</ele>
        <time>2020-09-12T07:07:08Z</time>
      </trkpt>
      <trkpt lat="42.8904470" lon="-0.2729850">
        <ele>1436.6</ele>
        <time>2020-09-12T07:07:10Z</time>
      </trkpt>
      <trkpt lat="42.8904440" lon="-0.2729780">
        <ele>1436.0</ele>
        <time>2020-09-12T07:07:11Z</time>
      </trkpt>
      <trkpt lat="42.8904440" lon="-0.2729680">
        <ele>1435.8</ele>
        <time>2020-09-12T07:07:12Z</time>
      </trkpt>
      <trkpt lat="42.8904470" lon="-0.2729410">
        <ele>1434.8</ele>
        <time>2020-09-12T07:07:14Z</time>
      </trkpt>
      <trkpt lat="42.8904440" lon="-0.2728970">
        <ele>1433.8</ele>
        <time>2020-09-12T07:07:17Z</time>
      </trkpt>
      <trkpt lat="42.8904460" lon="-0.2728810">
        <ele>1433.6</ele>
        <time>2020-09-12T07:07:18Z</time>
      </trkpt>
      <trkpt lat="42.8904710" lon="-0.2728290">
        <ele>1432.4</ele>
        <time>2020-09-12T07:07:23Z</time>
      </trkpt>
      <trkpt lat="42.8905250" lon="-0.2728160">
        <ele>1431.4</ele>
        <time>2020-09-12T07:07:28Z</time>
      </trkpt>
      <trkpt lat="42.8905570" lon="-0.2727920">
        <ele>1431.0</ele>
        <time>2020-09-12T07:07:31Z</time>
      </trkpt>
      <trkpt lat="42.8905650" lon="-0.2727790">
        <ele>1430.8</ele>
        <time>2020-09-12T07:07:34Z</time>
      </trkpt>
      <trkpt lat="42.8905690" lon="-0.2727730">
        <ele>1430.4</ele>
        <time>2020-09-12T07:07:36Z</time>
      </trkpt>
      <trkpt lat="42.8905660" lon="-0.2727730">
        <ele>1430.4</ele>
        <time>2020-09-12T07:07:37Z</time>
      </trkpt>
      <trkpt lat="42.8905080" lon="-0.2727570">
        <ele>1429.8</ele>
        <time>2020-09-12T07:07:43Z</time>
      </trkpt>
      <trkpt lat="42.8904840" lon="-0.2727490">
        <ele>1429.4</ele>
        <time>2020-09-12T07:07:46Z</time>
      </trkpt>
      <trkpt lat="42.8904370" lon="-0.2727300">
        <ele>1428.2</ele>
        <time>2020-09-12T07:07:50Z</time>
      </trkpt>
      <trkpt lat="42.8903540" lon="-0.2727440">
        <ele>1427.0</ele>
        <time>2020-09-12T07:07:56Z</time>
      </trkpt>
      <trkpt lat="42.8903210" lon="-0.2728340">
        <ele>1425.8</ele>
        <time>2020-09-12T07:08:01Z</time>
      </trkpt>
      <trkpt lat="42.8903150" lon="-0.2728490">
        <ele>1425.8</ele>
        <time>2020-09-12T07:08:02Z</time>
      </trkpt>
      <trkpt lat="42.8902910" lon="-0.2728670">
        <ele>1425.4</ele>
        <time>2020-09-12T07:08:05Z</time>
      </trkpt>
      <trkpt lat="42.8902760" lon="-0.2728110">
        <ele>1424.8</ele>
        <time>2020-09-12T07:08:09Z</time>
      </trkpt>
      <trkpt lat="42.8902690" lon="-0.2727710">
        <ele>1424.4</ele>
        <time>2020-09-12T07:08:11Z</time>
      </trkpt>
      <trkpt lat="42.8902430" lon="-0.2727450">
        <ele>1423.8</ele>
        <time>2020-09-12T07:08:13Z</time>
      </trkpt>
      <trkpt lat="42.8902130" lon="-0.2727110">
        <ele>1422.6</ele>
        <time>2020-09-12T07:08:16Z</time>
      </trkpt>
      <trkpt lat="42.8901910" lon="-0.2726680">
        <ele>1421.4</ele>
        <time>2020-09-12T07:08:19Z</time>
      </trkpt>
      <trkpt lat="42.8901790" lon="-0.2726120">
        <ele>1420.4</ele>
        <time>2020-09-12T07:08:23Z</time>
      </trkpt>
      <trkpt lat="42.8901910" lon="-0.2725420">
        <ele>1419.4</ele>
        <time>2020-09-12T07:08:27Z</time>
      </trkpt>
      <trkpt lat="42.8901790" lon="-0.2724830">
        <ele>1418.0</ele>
        <time>2020-09-12T07:08:31Z</time>
      </trkpt>
      <trkpt lat="42.8901720" lon="-0.2724560">
        <ele>1416.8</ele>
        <time>2020-09-12T07:08:33Z</time>
      </trkpt>
      <trkpt lat="42.8901750" lon="-0.2724110">
        <ele>1415.6</ele>
        <time>2020-09-12T07:08:36Z</time>
      </trkpt>
      <trkpt lat="42.8901700" lon="-0.2723980">
        <ele>1415.2</ele>
        <time>2020-09-12T07:08:37Z</time>
      </trkpt>
      <trkpt lat="42.8901340" lon="-0.2724060">
        <ele>1414.4</ele>
        <time>2020-09-12T07:08:40Z</time>
      </trkpt>
      <trkpt lat="42.8901230" lon="-0.2724040">
        <ele>1414.2</ele>
        <time>2020-09-12T07:08:41Z</time>
      </trkpt>
      <trkpt lat="42.8900980" lon="-0.2724150">
        <ele>1413.4</ele>
        <time>2020-09-12T07:08:43Z</time>
      </trkpt>
      <trkpt lat="42.8900660" lon="-0.2724680">
        <ele>1412.2</ele>
        <time>2020-09-12T07:08:46Z</time>
      </trkpt>
      <trkpt lat="42.8900540" lon="-0.2724780">
        <ele>1411.6</ele>
        <time>2020-09-12T07:08:47Z</time>
      </trkpt>
      <trkpt lat="42.8900330" lon="-0.2724900">
        <ele>1411.0</ele>
        <time>2020-09-12T07:08:49Z</time>
      </trkpt>
      <trkpt lat="42.8900240" lon="-0.2724870">
        <ele>1410.6</ele>
        <time>2020-09-12T07:08:51Z</time>
      </trkpt>
      <trkpt lat="42.8899940" lon="-0.2724790">
        <ele>1410.4</ele>
        <time>2020-09-12T07:08:54Z</time>
      </trkpt>
      <trkpt lat="42.8899750" lon="-0.2724310">
        <ele>1409.8</ele>
        <time>2020-09-12T07:08:59Z</time>
      </trkpt>
      <trkpt lat="42.8900070" lon="-0.2724000">
        <ele>1408.6</ele>
        <time>2020-09-12T07:09:03Z</time>
      </trkpt>
      <trkpt lat="42.8900220" lon="-0.2723360">
        <ele>1407.6</ele>
        <time>2020-09-12T07:09:08Z</time>
      </trkpt>
      <trkpt lat="42.8900570" lon="-0.2722550">
        <ele>1406.4</ele>
        <time>2020-09-12T07:09:13Z</time>
      </trkpt>
      <trkpt lat="42.8900820" lon="-0.2721800">
        <ele>1405.6</ele>
        <time>2020-09-12T07:09:17Z</time>
      </trkpt>
      <trkpt lat="42.8900510" lon="-0.2722130">
        <ele>1405.4</ele>
        <time>2020-09-12T07:09:22Z</time>
      </trkpt>
      <trkpt lat="42.8900400" lon="-0.2722150">
        <ele>1405.0</ele>
        <time>2020-09-12T07:09:23Z</time>
      </trkpt>
      <trkpt lat="42.8899900" lon="-0.2722330">
        <ele>1404.0</ele>
        <time>2020-09-12T07:09:27Z</time>
      </trkpt>
      <trkpt lat="42.8899500" lon="-0.2722630">
        <ele>1403.4</ele>
        <time>2020-09-12T07:09:31Z</time>
      </trkpt>
      <trkpt lat="42.8899410" lon="-0.2722450">
        <ele>1402.8</ele>
        <time>2020-09-12T07:09:33Z</time>
      </trkpt>
      <trkpt lat="42.8899370" lon="-0.2722150">
        <ele>1402.2</ele>
        <time>2020-09-12T07:09:35Z</time>
      </trkpt>
      <trkpt lat="42.8899430" lon="-0.2721780">
        <ele>1401.8</ele>
        <time>2020-09-12T07:09:37Z</time>
      </trkpt>
      <trkpt lat="42.8899700" lon="-0.2720770">
        <ele>1400.6</ele>
        <time>2020-09-12T07:09:43Z</time>
      </trkpt>
      <trkpt lat="42.8899820" lon="-0.2720140">
        <ele>1399.2</ele>
        <time>2020-09-12T07:09:48Z</time>
      </trkpt>
      <trkpt lat="42.8899710" lon="-0.2720010">
        <ele>1398.8</ele>
        <time>2020-09-12T07:09:50Z</time>
      </trkpt>
      <trkpt lat="42.8899540" lon="-0.2719980">
        <ele>1398.6</ele>
        <time>2020-09-12T07:09:52Z</time>
      </trkpt>
      <trkpt lat="42.8899320" lon="-0.2720150">
        <ele>1398.2</ele>
        <time>2020-09-12T07:09:54Z</time>
      </trkpt>
      <trkpt lat="42.8899090" lon="-0.2720370">
        <ele>1397.4</ele>
        <time>2020-09-12T07:09:56Z</time>
      </trkpt>
      <trkpt lat="42.8899000" lon="-0.2720490">
        <ele>1397.2</ele>
        <time>2020-09-12T07:09:57Z</time>
      </trkpt>
      <trkpt lat="42.8898820" lon="-0.2720600">
        <ele>1396.4</ele>
        <time>2020-09-12T07:09:59Z</time>
      </trkpt>
      <trkpt lat="42.8898620" lon="-0.2720660">
        <ele>1395.8</ele>
        <time>2020-09-12T07:10:01Z</time>
      </trkpt>
      <trkpt lat="42.8898080" lon="-0.2720910">
        <ele>1395.6</ele>
        <time>2020-09-12T07:10:06Z</time>
      </trkpt>
      <trkpt lat="42.8898090" lon="-0.2720650">
        <ele>1394.6</ele>
        <time>2020-09-12T07:10:09Z</time>
      </trkpt>
      <trkpt lat="42.8898220" lon="-0.2720440">
        <ele>1394.2</ele>
        <time>2020-09-12T07:10:11Z</time>
      </trkpt>
      <trkpt lat="42.8898510" lon="-0.2720170">
        <ele>1393.6</ele>
        <time>2020-09-12T07:10:14Z</time>
      </trkpt>
      <trkpt lat="42.8898680" lon="-0.2719270">
        <ele>1392.4</ele>
        <time>2020-09-12T07:10:20Z</time>
      </trkpt>
      <trkpt lat="42.8899000" lon="-0.2718350">
        <ele>1391.2</ele>
        <time>2020-09-12T07:10:26Z</time>
      </trkpt>
      <trkpt lat="42.8899190" lon="-0.2717920">
        <ele>1390.2</ele>
        <time>2020-09-12T07:10:29Z</time>
      </trkpt>
      <trkpt lat="42.8899390" lon="-0.2717230">
        <ele>1389.2</ele>
        <time>2020-09-12T07:10:34Z</time>
      </trkpt>
      <trkpt lat="42.8899770" lon="-0.2716160">
        <ele>1388.2</ele>
        <time>2020-09-12T07:10:42Z</time>
      </trkpt>
      <trkpt lat="42.8900090" lon="-0.2715420">
        <ele>1386.8</ele>
        <time>2020-09-12T07:10:48Z</time>
      </trkpt>
      <trkpt lat="42.8900160" lon="-0.2715130">
        <ele>1386.4</ele>
        <time>2020-09-12T07:10:50Z</time>
      </trkpt>
      <trkpt lat="42.8900370" lon="-0.2714850">
        <ele>1386.0</ele>
        <time>2020-09-12T07:10:52Z</time>
      </trkpt>
      <trkpt lat="42.8900370" lon="-0.2714800">
        <ele>1385.6</ele>
        <time>2020-09-12T07:10:53Z</time>
      </trkpt>
      <trkpt lat="42.8900390" lon="-0.2714750">
        <ele>1385.4</ele>
        <time>2020-09-12T07:10:54Z</time>
      </trkpt>
      <trkpt lat="42.8900530" lon="-0.2714080">
        <ele>1384.6</ele>
        <time>2020-09-12T07:10:59Z</time>
      </trkpt>
      <trkpt lat="42.8900310" lon="-0.2713480">
        <ele>1383.2</ele>
        <time>2020-09-12T07:11:03Z</time>
      </trkpt>
      <trkpt lat="42.8900340" lon="-0.2713190">
        <ele>1382.6</ele>
        <time>2020-09-12T07:11:06Z</time>
      </trkpt>
      <trkpt lat="42.8900380" lon="-0.2713340">
        <ele>1382.2</ele>
        <time>2020-09-12T07:11:08Z</time>
      </trkpt>
      <trkpt lat="42.8900250" lon="-0.2712500">
        <ele>1382.0</ele>
        <time>2020-09-12T07:11:23Z</time>
      </trkpt>
      <trkpt lat="42.8900120" lon="-0.2712140">
        <ele>1382.0</ele>
        <time>2020-09-12T07:11:26Z</time>
      </trkpt>
      <trkpt lat="42.8898250" lon="-0.2711630">
        <ele>1382.4</ele>
        <time>2020-09-12T07:11:42Z</time>
      </trkpt>
      <trkpt lat="42.8896780" lon="-0.2710880">
        <ele>1383.0</ele>
        <time>2020-09-12T07:11:55Z</time>
      </trkpt>
      <trkpt lat="42.8896570" lon="-0.2711060">
        <ele>1382.8</ele>
        <time>2020-09-12T07:11:57Z</time>
      </trkpt>
      <trkpt lat="42.8895230" lon="-0.2712290">
        <ele>1383.4</ele>
        <time>2020-09-12T07:12:11Z</time>
      </trkpt>
      <trkpt lat="42.8894140" lon="-0.2713310">
        <ele>1384.8</ele>
        <time>2020-09-12T07:12:19Z</time>
      </trkpt>
      <trkpt lat="42.8892740" lon="-0.2714460">
        <ele>1385.8</ele>
        <time>2020-09-12T07:12:33Z</time>
      </trkpt>
      <trkpt lat="42.8891240" lon="-0.2715250">
        <ele>1386.8</ele>
        <time>2020-09-12T07:12:46Z</time>
      </trkpt>
      <trkpt lat="42.8889740" lon="-0.2716730">
        <ele>1387.2</ele>
        <time>2020-09-12T07:13:00Z</time>
      </trkpt>
      <trkpt lat="42.8889390" lon="-0.2716910">
        <ele>1388.2</ele>
        <time>2020-09-12T07:13:03Z</time>
      </trkpt>
      <trkpt lat="42.8888740" lon="-0.2717500">
        <ele>1389.2</ele>
        <time>2020-09-12T07:13:09Z</time>
      </trkpt>
      <trkpt lat="42.8888350" lon="-0.2717740">
        <ele>1390.0</ele>
        <time>2020-09-12T07:13:14Z</time>
      </trkpt>
      <trkpt lat="42.8888350" lon="-0.2717850">
        <ele>1390.2</ele>
        <time>2020-09-12T07:13:16Z</time>
      </trkpt>
      <trkpt lat="42.8888220" lon="-0.2717940">
        <ele>1390.4</ele>
        <time>2020-09-12T07:13:18Z</time>
      </trkpt>
      <trkpt lat="42.8887310" lon="-0.2718470">
        <ele>1391.4</ele>
        <time>2020-09-12T07:13:26Z</time>
      </trkpt>
      <trkpt lat="42.8886170" lon="-0.2718950">
        <ele>1392.4</ele>
        <time>2020-09-12T07:13:35Z</time>
      </trkpt>
      <trkpt lat="42.8885190" lon="-0.2719300">
        <ele>1393.4</ele>
        <time>2020-09-12T07:13:43Z</time>
      </trkpt>
      <trkpt lat="42.8884320" lon="-0.2719490">
        <ele>1394.6</ele>
        <time>2020-09-12T07:13:49Z</time>
      </trkpt>
      <trkpt lat="42.8883120" lon="-0.2719110">
        <ele>1395.6</ele>
        <time>2020-09-12T07:13:58Z</time>
      </trkpt>
      <trkpt lat="42.8882360" lon="-0.2718810">
        <ele>1396.8</ele>
        <time>2020-09-12T07:14:06Z</time>
      </trkpt>
      <trkpt lat="42.8881230" lon="-0.2718700">
        <ele>1397.8</ele>
        <time>2020-09-12T07:14:17Z</time>
      </trkpt>
      <trkpt lat="42.8879840" lon="-0.2718560">
        <ele>1398.8</ele>
        <time>2020-09-12T07:14:28Z</time>
      </trkpt>
      <trkpt lat="42.8879100" lon="-0.2718450">
        <ele>1400.0</ele>
        <time>2020-09-12T07:14:33Z</time>
      </trkpt>
      <trkpt lat="42.8878440" lon="-0.2718580">
        <ele>1400.8</ele>
        <time>2020-09-12T07:14:38Z</time>
      </trkpt>
      <trkpt lat="42.8877860" lon="-0.2718640">
        <ele>1401.2</ele>
        <time>2020-09-12T07:14:42Z</time>
      </trkpt>
      <trkpt lat="42.8876590" lon="-0.2719070">
        <ele>1402.2</ele>
        <time>2020-09-12T07:14:51Z</time>
      </trkpt>
      <trkpt lat="42.8874800" lon="-0.2719770">
        <ele>1403.2</ele>
        <time>2020-09-12T07:15:06Z</time>
      </trkpt>
      <trkpt lat="42.8874660" lon="-0.2719800">
        <ele>1403.4</ele>
        <time>2020-09-12T07:15:07Z</time>
      </trkpt>
      <trkpt lat="42.8874100" lon="-0.2719810">
        <ele>1404.4</ele>
        <time>2020-09-12T07:15:11Z</time>
      </trkpt>
      <trkpt lat="42.8873130" lon="-0.2719910">
        <ele>1405.4</ele>
        <time>2020-09-12T07:15:18Z</time>
      </trkpt>
      <trkpt lat="42.8871700" lon="-0.2720720">
        <ele>1406.6</ele>
        <time>2020-09-12T07:15:28Z</time>
      </trkpt>
      <trkpt lat="42.8870570" lon="-0.2721110">
        <ele>1407.6</ele>
        <time>2020-09-12T07:15:36Z</time>
      </trkpt>
      <trkpt lat="42.8869040" lon="-0.2721310">
        <ele>1408.6</ele>
        <time>2020-09-12T07:15:48Z</time>
      </trkpt>
      <trkpt lat="42.8867790" lon="-0.2720020">
        <ele>1409.6</ele>
        <time>2020-09-12T07:16:00Z</time>
      </trkpt>
      <trkpt lat="42.8866840" lon="-0.2718660">
        <ele>1410.8</ele>
        <time>2020-09-12T07:16:10Z</time>
      </trkpt>
      <trkpt lat="42.8866370" lon="-0.2717910">
        <ele>1412.0</ele>
        <time>2020-09-12T07:16:16Z</time>
      </trkpt>
      <trkpt lat="42.8865890" lon="-0.2716910">
        <ele>1413.0</ele>
        <time>2020-09-12T07:16:22Z</time>
      </trkpt>
      <trkpt lat="42.8864850" lon="-0.2714920">
        <ele>1414.0</ele>
        <time>2020-09-12T07:16:34Z</time>
      </trkpt>
      <trkpt lat="42.8864740" lon="-0.2714770">
        <ele>1414.0</ele>
        <time>2020-09-12T07:16:35Z</time>
      </trkpt>
      <trkpt lat="42.8863800" lon="-0.2714510">
        <ele>1415.2</ele>
        <time>2020-09-12T07:16:41Z</time>
      </trkpt>
      <trkpt lat="42.8863650" lon="-0.2714560">
        <ele>1415.4</ele>
        <time>2020-09-12T07:16:42Z</time>
      </trkpt>
      <trkpt lat="42.8863130" lon="-0.2714670">
        <ele>1416.4</ele>
        <time>2020-09-12T07:16:46Z</time>
      </trkpt>
      <trkpt lat="42.8861640" lon="-0.2714920">
        <ele>1417.4</ele>
        <time>2020-09-12T07:16:58Z</time>
      </trkpt>
      <trkpt lat="42.8861410" lon="-0.2714740">
        <ele>1417.8</ele>
        <time>2020-09-12T07:17:00Z</time>
      </trkpt>
      <trkpt lat="42.8861000" lon="-0.2714460">
        <ele>1418.4</ele>
        <time>2020-09-12T07:17:04Z</time>
      </trkpt>
      <trkpt lat="42.8860250" lon="-0.2714060">
        <ele>1419.6</ele>
        <time>2020-09-12T07:17:09Z</time>
      </trkpt>
      <trkpt lat="42.8859700" lon="-0.2713800">
        <ele>1420.8</ele>
        <time>2020-09-12T07:17:15Z</time>
      </trkpt>
      <trkpt lat="42.8859130" lon="-0.2713260">
        <ele>1421.4</ele>
        <time>2020-09-12T07:17:20Z</time>
      </trkpt>
      <trkpt lat="42.8858750" lon="-0.2712920">
        <ele>1421.6</ele>
        <time>2020-09-12T07:17:22Z</time>
      </trkpt>
      <trkpt lat="42.8858670" lon="-0.2712650">
        <ele>1421.8</ele>
        <time>2020-09-12T07:17:23Z</time>
      </trkpt>
      <trkpt lat="42.8858360" lon="-0.2711130">
        <ele>1422.8</ele>
        <time>2020-09-12T07:17:29Z</time>
      </trkpt>
      <trkpt lat="42.8858090" lon="-0.2709530">
        <ele>1424.0</ele>
        <time>2020-09-12T07:17:36Z</time>
      </trkpt>
      <trkpt lat="42.8857480" lon="-0.2708480">
        <ele>1425.0</ele>
        <time>2020-09-12T07:17:43Z</time>
      </trkpt>
      <trkpt lat="42.8856740" lon="-0.2707840">
        <ele>1426.0</ele>
        <time>2020-09-12T07:17:49Z</time>
      </trkpt>
      <trkpt lat="42.8856650" lon="-0.2707720">
        <ele>1426.0</ele>
        <time>2020-09-12T07:17:50Z</time>
      </trkpt>
      <trkpt lat="42.8856320" lon="-0.2707180">
        <ele>1427.0</ele>
        <time>2020-09-12T07:17:54Z</time>
      </trkpt>
      <trkpt lat="42.8855760" lon="-0.2706630">
        <ele>1427.8</ele>
        <time>2020-09-12T07:18:00Z</time>
      </trkpt>
      <trkpt lat="42.8855470" lon="-0.2706430">
        <ele>1428.0</ele>
        <time>2020-09-12T07:18:02Z</time>
      </trkpt>
      <trkpt lat="42.8854420" lon="-0.2705910">
        <ele>1429.2</ele>
        <time>2020-09-12T07:18:10Z</time>
      </trkpt>
      <trkpt lat="42.8853880" lon="-0.2705760">
        <ele>1430.2</ele>
        <time>2020-09-12T07:18:14Z</time>
      </trkpt>
      <trkpt lat="42.8852810" lon="-0.2705440">
        <ele>1431.0</ele>
        <time>2020-09-12T07:18:23Z</time>
      </trkpt>
      <trkpt lat="42.8852670" lon="-0.2705410">
        <ele>1431.2</ele>
        <time>2020-09-12T07:18:24Z</time>
      </trkpt>
      <trkpt lat="42.8851910" lon="-0.2705370">
        <ele>1432.4</ele>
        <time>2020-09-12T07:18:29Z</time>
      </trkpt>
      <trkpt lat="42.8850710" lon="-0.2705110">
        <ele>1433.6</ele>
        <time>2020-09-12T07:18:38Z</time>
      </trkpt>
      <trkpt lat="42.8850180" lon="-0.2705160">
        <ele>1434.6</ele>
        <time>2020-09-12T07:18:43Z</time>
      </trkpt>
      <trkpt lat="42.8849800" lon="-0.2705120">
        <ele>1435.0</ele>
        <time>2020-09-12T07:18:46Z</time>
      </trkpt>
      <trkpt lat="42.8849400" lon="-0.2704860">
        <ele>1435.2</ele>
        <time>2020-09-12T07:18:49Z</time>
      </trkpt>
      <trkpt lat="42.8849270" lon="-0.2704840">
        <ele>1435.4</ele>
        <time>2020-09-12T07:18:50Z</time>
      </trkpt>
      <trkpt lat="42.8848720" lon="-0.2704950">
        <ele>1435.6</ele>
        <time>2020-09-12T07:18:54Z</time>
      </trkpt>
      <trkpt lat="42.8846840" lon="-0.2704730">
        <ele>1436.4</ele>
        <time>2020-09-12T07:19:07Z</time>
      </trkpt>
      <trkpt lat="42.8845910" lon="-0.2704420">
        <ele>1436.8</ele>
        <time>2020-09-12T07:19:13Z</time>
      </trkpt>
      <trkpt lat="42.8844870" lon="-0.2703960">
        <ele>1437.8</ele>
        <time>2020-09-12T07:19:20Z</time>
      </trkpt>
      <trkpt lat="42.8843490" lon="-0.2703790">
        <ele>1439.0</ele>
        <time>2020-09-12T07:19:30Z</time>
      </trkpt>
      <trkpt lat="42.8842260" lon="-0.2703540">
        <ele>1440.0</ele>
        <time>2020-09-12T07:19:39Z</time>
      </trkpt>
      <trkpt lat="42.8841970" lon="-0.2703550">
        <ele>1441.0</ele>
        <time>2020-09-12T07:19:41Z</time>
      </trkpt>
      <trkpt lat="42.8841390" lon="-0.2703560">
        <ele>1442.2</ele>
        <time>2020-09-12T07:19:45Z</time>
      </trkpt>
      <trkpt lat="42.8840670" lon="-0.2703520">
        <ele>1443.2</ele>
        <time>2020-09-12T07:19:52Z</time>
      </trkpt>
      <trkpt lat="42.8840310" lon="-0.2703690">
        <ele>1443.8</ele>
        <time>2020-09-12T07:19:55Z</time>
      </trkpt>
      <trkpt lat="42.8838560" lon="-0.2703630">
        <ele>1444.2</ele>
        <time>2020-09-12T07:20:07Z</time>
      </trkpt>
      <trkpt lat="42.8838450" lon="-0.2703720">
        <ele>1444.4</ele>
        <time>2020-09-12T07:20:08Z</time>
      </trkpt>
      <trkpt lat="42.8837400" lon="-0.2704060">
        <ele>1445.4</ele>
        <time>2020-09-12T07:20:15Z</time>
      </trkpt>
      <trkpt lat="42.8837080" lon="-0.2704040">
        <ele>1446.4</ele>
        <time>2020-09-12T07:20:19Z</time>
      </trkpt>
      <trkpt lat="42.8836950" lon="-0.2704070">
        <ele>1446.4</ele>
        <time>2020-09-12T07:20:20Z</time>
      </trkpt>
      <trkpt lat="42.8836820" lon="-0.2704100">
        <ele>1446.4</ele>
        <time>2020-09-12T07:20:21Z</time>
      </trkpt>
      <trkpt lat="42.8835830" lon="-0.2703680">
        <ele>1447.6</ele>
        <time>2020-09-12T07:20:28Z</time>
      </trkpt>
      <trkpt lat="42.8834840" lon="-0.2703710">
        <ele>1448.6</ele>
        <time>2020-09-12T07:20:35Z</time>
      </trkpt>
      <trkpt lat="42.8833080" lon="-0.2704190">
        <ele>1448.8</ele>
        <time>2020-09-12T07:20:47Z</time>
      </trkpt>
      <trkpt lat="42.8832590" lon="-0.2704500">
        <ele>1449.6</ele>
        <time>2020-09-12T07:20:50Z</time>
      </trkpt>
      <trkpt lat="42.8831840" lon="-0.2704500">
        <ele>1450.8</ele>
        <time>2020-09-12T07:20:55Z</time>
      </trkpt>
      <trkpt lat="42.8830160" lon="-0.2705140">
        <ele>1451.8</ele>
        <time>2020-09-12T07:21:07Z</time>
      </trkpt>
      <trkpt lat="42.8829280" lon="-0.2706220">
        <ele>1453.0</ele>
        <time>2020-09-12T07:21:16Z</time>
      </trkpt>
      <trkpt lat="42.8828640" lon="-0.2706720">
        <ele>1454.0</ele>
        <time>2020-09-12T07:21:22Z</time>
      </trkpt>
      <trkpt lat="42.8827010" lon="-0.2706010">
        <ele>1454.8</ele>
        <time>2020-09-12T07:21:37Z</time>
      </trkpt>
      <trkpt lat="42.8826880" lon="-0.2705350">
        <ele>1455.0</ele>
        <time>2020-09-12T07:21:40Z</time>
      </trkpt>
      <trkpt lat="42.8826660" lon="-0.2704970">
        <ele>1455.4</ele>
        <time>2020-09-12T07:21:43Z</time>
      </trkpt>
      <trkpt lat="42.8826350" lon="-0.2704780">
        <ele>1455.6</ele>
        <time>2020-09-12T07:21:45Z</time>
      </trkpt>
      <trkpt lat="42.8825400" lon="-0.2702700">
        <ele>1455.4</ele>
        <time>2020-09-12T07:21:58Z</time>
      </trkpt>
      <trkpt lat="42.8826080" lon="-0.2701220">
        <ele>1455.2</ele>
        <time>2020-09-12T07:22:08Z</time>
      </trkpt>
      <trkpt lat="42.8826140" lon="-0.2700930">
        <ele>1455.0</ele>
        <time>2020-09-12T07:22:10Z</time>
      </trkpt>
      <trkpt lat="42.8826000" lon="-0.2700790">
        <ele>1454.8</ele>
        <time>2020-09-12T07:22:12Z</time>
      </trkpt>
      <trkpt lat="42.8825450" lon="-0.2701380">
        <ele>1455.0</ele>
        <time>2020-09-12T07:22:26Z</time>
      </trkpt>
      <trkpt lat="42.8825090" lon="-0.2701770">
        <ele>1455.0</ele>
        <time>2020-09-12T07:22:28Z</time>
      </trkpt>
      <trkpt lat="42.8824990" lon="-0.2702140">
        <ele>1454.8</ele>
        <time>2020-09-12T07:22:31Z</time>
      </trkpt>
      <trkpt lat="42.8824770" lon="-0.2703800">
        <ele>1455.6</ele>
        <time>2020-09-12T07:22:48Z</time>
      </trkpt>
      <trkpt lat="42.8824620" lon="-0.2704060">
        <ele>1455.2</ele>
        <time>2020-09-12T07:22:50Z</time>
      </trkpt>
      <trkpt lat="42.8824280" lon="-0.2704570">
        <ele>1455.6</ele>
        <time>2020-09-12T07:22:55Z</time>
      </trkpt>
      <trkpt lat="42.8823940" lon="-0.2704460">
        <ele>1456.2</ele>
        <time>2020-09-12T07:22:59Z</time>
      </trkpt>
      <trkpt lat="42.8823910" lon="-0.2704050">
        <ele>1456.6</ele>
        <time>2020-09-12T07:23:04Z</time>
      </trkpt>
      <trkpt lat="42.8823640" lon="-0.2703710">
        <ele>1457.2</ele>
        <time>2020-09-12T07:23:08Z</time>
      </trkpt>
      <trkpt lat="42.8823290" lon="-0.2703530">
        <ele>1458.2</ele>
        <time>2020-09-12T07:23:14Z</time>
      </trkpt>
      <trkpt lat="42.8823140" lon="-0.2703380">
        <ele>1459.2</ele>
        <time>2020-09-12T07:23:22Z</time>
      </trkpt>
      <trkpt lat="42.8822740" lon="-0.2703100">
        <ele>1460.4</ele>
        <time>2020-09-12T07:23:27Z</time>
      </trkpt>
      <trkpt lat="42.8823250" lon="-0.2702560">
        <ele>1460.6</ele>
        <time>2020-09-12T07:23:33Z</time>
      </trkpt>
      <trkpt lat="42.8822620" lon="-0.2701280">
        <ele>1460.6</ele>
        <time>2020-09-12T07:23:43Z</time>
      </trkpt>
      <trkpt lat="42.8822340" lon="-0.2701090">
        <ele>1460.8</ele>
        <time>2020-09-12T07:23:45Z</time>
      </trkpt>
      <trkpt lat="42.8821780" lon="-0.2700390">
        <ele>1461.4</ele>
        <time>2020-09-12T07:23:52Z</time>
      </trkpt>
      <trkpt lat="42.8821470" lon="-0.2700270">
        <ele>1461.6</ele>
        <time>2020-09-12T07:23:55Z</time>
      </trkpt>
      <trkpt lat="42.8821240" lon="-0.2700200">
        <ele>1461.8</ele>
        <time>2020-09-12T07:23:57Z</time>
      </trkpt>
      <trkpt lat="42.8820890" lon="-0.2699950">
        <ele>1462.2</ele>
        <time>2020-09-12T07:24:00Z</time>
      </trkpt>
      <trkpt lat="42.8820890" lon="-0.2699600">
        <ele>1462.4</ele>
        <time>2020-09-12T07:24:02Z</time>
      </trkpt>
      <trkpt lat="42.8820770" lon="-0.2699500">
        <ele>1462.4</ele>
        <time>2020-09-12T07:24:03Z</time>
      </trkpt>
      <trkpt lat="42.8820680" lon="-0.2699260">
        <ele>1462.8</ele>
        <time>2020-09-12T07:24:06Z</time>
      </trkpt>
      <trkpt lat="42.8820680" lon="-0.2699030">
        <ele>1463.0</ele>
        <time>2020-09-12T07:24:08Z</time>
      </trkpt>
      <trkpt lat="42.8820680" lon="-0.2698800">
        <ele>1463.2</ele>
        <time>2020-09-12T07:24:10Z</time>
      </trkpt>
      <trkpt lat="42.8820500" lon="-0.2698490">
        <ele>1463.4</ele>
        <time>2020-09-12T07:24:12Z</time>
      </trkpt>
      <trkpt lat="42.8820400" lon="-0.2698380">
        <ele>1463.6</ele>
        <time>2020-09-12T07:24:13Z</time>
      </trkpt>
      <trkpt lat="42.8819600" lon="-0.2697690">
        <ele>1464.4</ele>
        <time>2020-09-12T07:24:20Z</time>
      </trkpt>
      <trkpt lat="42.8819610" lon="-0.2697570">
        <ele>1464.6</ele>
        <time>2020-09-12T07:24:21Z</time>
      </trkpt>
      <trkpt lat="42.8819570" lon="-0.2697290">
        <ele>1464.8</ele>
        <time>2020-09-12T07:24:23Z</time>
      </trkpt>
      <trkpt lat="42.8819480" lon="-0.2697050">
        <ele>1465.0</ele>
        <time>2020-09-12T07:24:25Z</time>
      </trkpt>
      <trkpt lat="42.8819230" lon="-0.2696530">
        <ele>1465.6</ele>
        <time>2020-09-12T07:24:28Z</time>
      </trkpt>
      <trkpt lat="42.8818870" lon="-0.2694760">
        <ele>1466.8</ele>
        <time>2020-09-12T07:24:38Z</time>
      </trkpt>
      <trkpt lat="42.8818580" lon="-0.2693930">
        <ele>1467.8</ele>
        <time>2020-09-12T07:24:43Z</time>
      </trkpt>
      <trkpt lat="42.8818270" lon="-0.2692100">
        <ele>1469.0</ele>
        <time>2020-09-12T07:24:52Z</time>
      </trkpt>
      <trkpt lat="42.8818050" lon="-0.2691790">
        <ele>1469.4</ele>
        <time>2020-09-12T07:24:55Z</time>
      </trkpt>
      <trkpt lat="42.8818020" lon="-0.2691250">
        <ele>1469.6</ele>
        <time>2020-09-12T07:24:59Z</time>
      </trkpt>
      <trkpt lat="42.8817870" lon="-0.2690810">
        <ele>1470.0</ele>
        <time>2020-09-12T07:25:04Z</time>
      </trkpt>
      <trkpt lat="42.8817990" lon="-0.2690630">
        <ele>1470.6</ele>
        <time>2020-09-12T07:25:07Z</time>
      </trkpt>
      <trkpt lat="42.8817840" lon="-0.2690560">
        <ele>1470.8</ele>
        <time>2020-09-12T07:25:09Z</time>
      </trkpt>
      <trkpt lat="42.8817670" lon="-0.2690600">
        <ele>1471.2</ele>
        <time>2020-09-12T07:25:11Z</time>
      </trkpt>
      <trkpt lat="42.8817470" lon="-0.2690310">
        <ele>1471.2</ele>
        <time>2020-09-12T07:25:14Z</time>
      </trkpt>
      <trkpt lat="42.8817250" lon="-0.2689960">
        <ele>1471.4</ele>
        <time>2020-09-12T07:25:17Z</time>
      </trkpt>
      <trkpt lat="42.8817140" lon="-0.2689820">
        <ele>1472.4</ele>
        <time>2020-09-12T07:25:20Z</time>
      </trkpt>
      <trkpt lat="42.8817160" lon="-0.2689680">
        <ele>1473.0</ele>
        <time>2020-09-12T07:25:23Z</time>
      </trkpt>
      <trkpt lat="42.8817060" lon="-0.2689800">
        <ele>1473.4</ele>
        <time>2020-09-12T07:25:26Z</time>
      </trkpt>
      <trkpt lat="42.8816810" lon="-0.2689870">
        <ele>1473.8</ele>
        <time>2020-09-12T07:25:28Z</time>
      </trkpt>
      <trkpt lat="42.8816510" lon="-0.2690060">
        <ele>1474.4</ele>
        <time>2020-09-12T07:25:30Z</time>
      </trkpt>
      <trkpt lat="42.8816370" lon="-0.2690200">
        <ele>1474.8</ele>
        <time>2020-09-12T07:25:31Z</time>
      </trkpt>
      <trkpt lat="42.8816180" lon="-0.2690400">
        <ele>1475.0</ele>
        <time>2020-09-12T07:25:33Z</time>
      </trkpt>
      <trkpt lat="42.8816000" lon="-0.2690690">
        <ele>1475.2</ele>
        <time>2020-09-12T07:25:35Z</time>
      </trkpt>
      <trkpt lat="42.8815880" lon="-0.2690800">
        <ele>1475.2</ele>
        <time>2020-09-12T07:25:38Z</time>
      </trkpt>
      <trkpt lat="42.8815950" lon="-0.2690830">
        <ele>1476.0</ele>
        <time>2020-09-12T07:25:42Z</time>
      </trkpt>
      <trkpt lat="42.8815550" lon="-0.2691750">
        <ele>1476.8</ele>
        <time>2020-09-12T07:25:46Z</time>
      </trkpt>
      <trkpt lat="42.8815350" lon="-0.2692020">
        <ele>1477.0</ele>
        <time>2020-09-12T07:25:47Z</time>
      </trkpt>
      <trkpt lat="42.8815350" lon="-0.2692110">
        <ele>1477.2</ele>
        <time>2020-09-12T07:25:48Z</time>
      </trkpt>
      <trkpt lat="42.8815350" lon="-0.2692320">
        <ele>1477.6</ele>
        <time>2020-09-12T07:25:50Z</time>
      </trkpt>
      <trkpt lat="42.8815410" lon="-0.2692670">
        <ele>1478.0</ele>
        <time>2020-09-12T07:25:54Z</time>
      </trkpt>
      <trkpt lat="42.8815180" lon="-0.2693260">
        <ele>1479.0</ele>
        <time>2020-09-12T07:26:00Z</time>
      </trkpt>
      <trkpt lat="42.8815190" lon="-0.2693350">
        <ele>1479.2</ele>
        <time>2020-09-12T07:26:01Z</time>
      </trkpt>
      <trkpt lat="42.8815230" lon="-0.2693450">
        <ele>1479.4</ele>
        <time>2020-09-12T07:26:02Z</time>
      </trkpt>
      <trkpt lat="42.8815190" lon="-0.2693590">
        <ele>1479.8</ele>
        <time>2020-09-12T07:26:04Z</time>
      </trkpt>
      <trkpt lat="42.8815060" lon="-0.2693660">
        <ele>1480.4</ele>
        <time>2020-09-12T07:26:07Z</time>
      </trkpt>
      <trkpt lat="42.8814940" lon="-0.2693780">
        <ele>1481.4</ele>
        <time>2020-09-12T07:26:15Z</time>
      </trkpt>
      <trkpt lat="42.8814930" lon="-0.2694130">
        <ele>1482.6</ele>
        <time>2020-09-12T07:26:20Z</time>
      </trkpt>
      <trkpt lat="42.8814960" lon="-0.2694940">
        <ele>1483.6</ele>
        <time>2020-09-12T07:26:26Z</time>
      </trkpt>
      <trkpt lat="42.8815390" lon="-0.2695760">
        <ele>1484.8</ele>
        <time>2020-09-12T07:26:35Z</time>
      </trkpt>
      <trkpt lat="42.8815250" lon="-0.2696230">
        <ele>1486.0</ele>
        <time>2020-09-12T07:26:43Z</time>
      </trkpt>
      <trkpt lat="42.8815200" lon="-0.2696890">
        <ele>1487.0</ele>
        <time>2020-09-12T07:26:50Z</time>
      </trkpt>
      <trkpt lat="42.8815130" lon="-0.2697150">
        <ele>1488.2</ele>
        <time>2020-09-12T07:26:57Z</time>
      </trkpt>
      <trkpt lat="42.8814720" lon="-0.2697180">
        <ele>1489.2</ele>
        <time>2020-09-12T07:27:04Z</time>
      </trkpt>
      <trkpt lat="42.8814630" lon="-0.2697140">
        <ele>1490.2</ele>
        <time>2020-09-12T07:27:08Z</time>
      </trkpt>
      <trkpt lat="42.8814190" lon="-0.2697600">
        <ele>1491.2</ele>
        <time>2020-09-12T07:27:15Z</time>
      </trkpt>
      <trkpt lat="42.8813830" lon="-0.2697330">
        <ele>1492.0</ele>
        <time>2020-09-12T07:27:20Z</time>
      </trkpt>
      <trkpt lat="42.8813510" lon="-0.2697360">
        <ele>1492.2</ele>
        <time>2020-09-12T07:27:23Z</time>
      </trkpt>
      <trkpt lat="42.8813410" lon="-0.2697400">
        <ele>1492.4</ele>
        <time>2020-09-12T07:27:24Z</time>
      </trkpt>
      <trkpt lat="42.8812990" lon="-0.2697620">
        <ele>1493.6</ele>
        <time>2020-09-12T07:27:29Z</time>
      </trkpt>
      <trkpt lat="42.8812570" lon="-0.2698040">
        <ele>1494.6</ele>
        <time>2020-09-12T07:27:34Z</time>
      </trkpt>
      <trkpt lat="42.8812510" lon="-0.2698080">
        <ele>1494.8</ele>
        <time>2020-09-12T07:27:35Z</time>
      </trkpt>
      <trkpt lat="42.8812210" lon="-0.2698160">
        <ele>1495.8</ele>
        <time>2020-09-12T07:27:41Z</time>
      </trkpt>
      <trkpt lat="42.8811720" lon="-0.2697830">
        <ele>1496.8</ele>
        <time>2020-09-12T07:27:47Z</time>
      </trkpt>
      <trkpt lat="42.8811660" lon="-0.2697690">
        <ele>1496.8</ele>
        <time>2020-09-12T07:27:48Z</time>
      </trkpt>
      <trkpt lat="42.8811490" lon="-0.2697270">
        <ele>1497.2</ele>
        <time>2020-09-12T07:27:51Z</time>
      </trkpt>
      <trkpt lat="42.8811240" lon="-0.2696430">
        <ele>1497.8</ele>
        <time>2020-09-12T07:27:57Z</time>
      </trkpt>
      <trkpt lat="42.8810920" lon="-0.2695490">
        <ele>1499.0</ele>
        <time>2020-09-12T07:28:06Z</time>
      </trkpt>
      <trkpt lat="42.8810290" lon="-0.2694930">
        <ele>1500.0</ele>
        <time>2020-09-12T07:28:13Z</time>
      </trkpt>
      <trkpt lat="42.8810210" lon="-0.2694830">
        <ele>1500.0</ele>
        <time>2020-09-12T07:28:14Z</time>
      </trkpt>
      <trkpt lat="42.8809260" lon="-0.2693540">
        <ele>1501.2</ele>
        <time>2020-09-12T07:28:25Z</time>
      </trkpt>
      <trkpt lat="42.8808330" lon="-0.2692740">
        <ele>1502.2</ele>
        <time>2020-09-12T07:28:35Z</time>
      </trkpt>
      <trkpt lat="42.8807820" lon="-0.2692390">
        <ele>1502.2</ele>
        <time>2020-09-12T07:28:39Z</time>
      </trkpt>
      <trkpt lat="42.8806040" lon="-0.2692250">
        <ele>1501.4</ele>
        <time>2020-09-12T07:28:53Z</time>
      </trkpt>
      <trkpt lat="42.8804930" lon="-0.2691360">
        <ele>1502.6</ele>
        <time>2020-09-12T07:29:03Z</time>
      </trkpt>
      <trkpt lat="42.8804190" lon="-0.2689860">
        <ele>1502.8</ele>
        <time>2020-09-12T07:29:14Z</time>
      </trkpt>
      <trkpt lat="42.8804080" lon="-0.2689310">
        <ele>1503.0</ele>
        <time>2020-09-12T07:29:17Z</time>
      </trkpt>
      <trkpt lat="42.8803950" lon="-0.2689040">
        <ele>1503.2</ele>
        <time>2020-09-12T07:29:19Z</time>
      </trkpt>
      <trkpt lat="42.8803770" lon="-0.2688890">
        <ele>1503.6</ele>
        <time>2020-09-12T07:29:21Z</time>
      </trkpt>
      <trkpt lat="42.8802640" lon="-0.2688760">
        <ele>1504.4</ele>
        <time>2020-09-12T07:29:30Z</time>
      </trkpt>
      <trkpt lat="42.8801640" lon="-0.2688830">
        <ele>1505.4</ele>
        <time>2020-09-12T07:29:39Z</time>
      </trkpt>
      <trkpt lat="42.8801520" lon="-0.2688870">
        <ele>1505.6</ele>
        <time>2020-09-12T07:29:40Z</time>
      </trkpt>
      <trkpt lat="42.8801100" lon="-0.2688970">
        <ele>1506.0</ele>
        <time>2020-09-12T07:29:44Z</time>
      </trkpt>
      <trkpt lat="42.8800850" lon="-0.2688990">
        <ele>1506.6</ele>
        <time>2020-09-12T07:29:47Z</time>
      </trkpt>
      <trkpt lat="42.8800400" lon="-0.2689540">
        <ele>1507.6</ele>
        <time>2020-09-12T07:29:53Z</time>
      </trkpt>
      <trkpt lat="42.8800210" lon="-0.2690140">
        <ele>1508.8</ele>
        <time>2020-09-12T07:29:58Z</time>
      </trkpt>
      <trkpt lat="42.8800170" lon="-0.2690220">
        <ele>1509.2</ele>
        <time>2020-09-12T07:29:59Z</time>
      </trkpt>
      <trkpt lat="42.8799940" lon="-0.2690290">
        <ele>1510.0</ele>
        <time>2020-09-12T07:30:03Z</time>
      </trkpt>
      <trkpt lat="42.8799810" lon="-0.2689950">
        <ele>1511.0</ele>
        <time>2020-09-12T07:30:08Z</time>
      </trkpt>
      <trkpt lat="42.8799530" lon="-0.2689040">
        <ele>1512.0</ele>
        <time>2020-09-12T07:30:16Z</time>
      </trkpt>
      <trkpt lat="42.8798940" lon="-0.2689030">
        <ele>1513.2</ele>
        <time>2020-09-12T07:30:22Z</time>
      </trkpt>
      <trkpt lat="42.8798340" lon="-0.2689090">
        <ele>1514.2</ele>
        <time>2020-09-12T07:30:27Z</time>
      </trkpt>
      <trkpt lat="42.8797960" lon="-0.2688920">
        <ele>1514.8</ele>
        <time>2020-09-12T07:30:31Z</time>
      </trkpt>
      <trkpt lat="42.8797630" lon="-0.2688500">
        <ele>1515.4</ele>
        <time>2020-09-12T07:30:35Z</time>
      </trkpt>
      <trkpt lat="42.8797510" lon="-0.2688160">
        <ele>1515.8</ele>
        <time>2020-09-12T07:30:37Z</time>
      </trkpt>
      <trkpt lat="42.8797560" lon="-0.2687320">
        <ele>1516.2</ele>
        <time>2020-09-12T07:30:43Z</time>
      </trkpt>
      <trkpt lat="42.8797390" lon="-0.2687180">
        <ele>1516.4</ele>
        <time>2020-09-12T07:30:45Z</time>
      </trkpt>
      <trkpt lat="42.8796880" lon="-0.2686340">
        <ele>1517.8</ele>
        <time>2020-09-12T07:30:53Z</time>
      </trkpt>
      <trkpt lat="42.8796820" lon="-0.2685340">
        <ele>1518.6</ele>
        <time>2020-09-12T07:31:01Z</time>
      </trkpt>
      <trkpt lat="42.8796930" lon="-0.2685150">
        <ele>1518.8</ele>
        <time>2020-09-12T07:31:03Z</time>
      </trkpt>
      <trkpt lat="42.8796650" lon="-0.2684640">
        <ele>1519.6</ele>
        <time>2020-09-12T07:31:08Z</time>
      </trkpt>
      <trkpt lat="42.8796550" lon="-0.2684580">
        <ele>1519.8</ele>
        <time>2020-09-12T07:31:09Z</time>
      </trkpt>
      <trkpt lat="42.8796230" lon="-0.2684490">
        <ele>1520.8</ele>
        <time>2020-09-12T07:31:13Z</time>
      </trkpt>
      <trkpt lat="42.8796040" lon="-0.2684510">
        <ele>1521.4</ele>
        <time>2020-09-12T07:31:16Z</time>
      </trkpt>
      <trkpt lat="42.8795750" lon="-0.2684560">
        <ele>1521.8</ele>
        <time>2020-09-12T07:31:19Z</time>
      </trkpt>
      <trkpt lat="42.8794120" lon="-0.2684740">
        <ele>1521.4</ele>
        <time>2020-09-12T07:31:37Z</time>
      </trkpt>
      <trkpt lat="42.8793420" lon="-0.2684690">
        <ele>1520.8</ele>
        <time>2020-09-12T07:31:43Z</time>
      </trkpt>
      <trkpt lat="42.8793200" lon="-0.2684770">
        <ele>1520.4</ele>
        <time>2020-09-12T07:31:45Z</time>
      </trkpt>
      <trkpt lat="42.8792350" lon="-0.2684880">
        <ele>1519.6</ele>
        <time>2020-09-12T07:31:52Z</time>
      </trkpt>
      <trkpt lat="42.8791610" lon="-0.2684830">
        <ele>1518.4</ele>
        <time>2020-09-12T07:31:58Z</time>
      </trkpt>
      <trkpt lat="42.8790680" lon="-0.2685110">
        <ele>1517.4</ele>
        <time>2020-09-12T07:32:08Z</time>
      </trkpt>
      <trkpt lat="42.8790310" lon="-0.2685350">
        <ele>1516.2</ele>
        <time>2020-09-12T07:32:13Z</time>
      </trkpt>
      <trkpt lat="42.8790170" lon="-0.2685420">
        <ele>1515.8</ele>
        <time>2020-09-12T07:32:15Z</time>
      </trkpt>
      <trkpt lat="42.8789970" lon="-0.2685210">
        <ele>1515.0</ele>
        <time>2020-09-12T07:32:18Z</time>
      </trkpt>
      <trkpt lat="42.8789340" lon="-0.2684280">
        <ele>1514.6</ele>
        <time>2020-09-12T07:32:27Z</time>
      </trkpt>
      <trkpt lat="42.8789200" lon="-0.2684320">
        <ele>1514.6</ele>
        <time>2020-09-12T07:32:29Z</time>
      </trkpt>
      <trkpt lat="42.8788880" lon="-0.2684380">
        <ele>1514.6</ele>
        <time>2020-09-12T07:32:32Z</time>
      </trkpt>
      <trkpt lat="42.8788330" lon="-0.2684410">
        <ele>1514.4</ele>
        <time>2020-09-12T07:32:37Z</time>
      </trkpt>
      <trkpt lat="42.8788150" lon="-0.2684490">
        <ele>1514.4</ele>
        <time>2020-09-12T07:32:39Z</time>
      </trkpt>
      <trkpt lat="42.8787600" lon="-0.2683940">
        <ele>1514.2</ele>
        <time>2020-09-12T07:32:44Z</time>
      </trkpt>
      <trkpt lat="42.8786230" lon="-0.2683130">
        <ele>1515.4</ele>
        <time>2020-09-12T07:33:02Z</time>
      </trkpt>
      <trkpt lat="42.8784580" lon="-0.2682220">
        <ele>1516.0</ele>
        <time>2020-09-12T07:33:20Z</time>
      </trkpt>
      <trkpt lat="42.8784090" lon="-0.2681650">
        <ele>1517.2</ele>
        <time>2020-09-12T07:33:26Z</time>
      </trkpt>
      <trkpt lat="42.8783500" lon="-0.2680290">
        <ele>1518.4</ele>
        <time>2020-09-12T07:33:36Z</time>
      </trkpt>
      <trkpt lat="42.8783130" lon="-0.2679470">
        <ele>1519.2</ele>
        <time>2020-09-12T07:33:42Z</time>
      </trkpt>
      <trkpt lat="42.8783020" lon="-0.2679090">
        <ele>1519.4</ele>
        <time>2020-09-12T07:33:45Z</time>
      </trkpt>
      <trkpt lat="42.8782590" lon="-0.2678180">
        <ele>1520.4</ele>
        <time>2020-09-12T07:33:52Z</time>
      </trkpt>
      <trkpt lat="42.8782520" lon="-0.2677890">
        <ele>1520.8</ele>
        <time>2020-09-12T07:33:56Z</time>
      </trkpt>
      <trkpt lat="42.8782260" lon="-0.2677440">
        <ele>1521.6</ele>
        <time>2020-09-12T07:34:03Z</time>
      </trkpt>
      <trkpt lat="42.8782020" lon="-0.2676960">
        <ele>1522.8</ele>
        <time>2020-09-12T07:34:09Z</time>
      </trkpt>
      <trkpt lat="42.8781740" lon="-0.2676800">
        <ele>1523.8</ele>
        <time>2020-09-12T07:34:13Z</time>
      </trkpt>
      <trkpt lat="42.8779930" lon="-0.2676220">
        <ele>1524.2</ele>
        <time>2020-09-12T07:34:30Z</time>
      </trkpt>
      <trkpt lat="42.8778130" lon="-0.2675600">
        <ele>1524.2</ele>
        <time>2020-09-12T07:34:48Z</time>
      </trkpt>
      <trkpt lat="42.8777570" lon="-0.2675280">
        <ele>1524.0</ele>
        <time>2020-09-12T07:34:54Z</time>
      </trkpt>
      <trkpt lat="42.8776400" lon="-0.2673710">
        <ele>1523.2</ele>
        <time>2020-09-12T07:35:25Z</time>
      </trkpt>
      <trkpt lat="42.8775330" lon="-0.2673210">
        <ele>1522.6</ele>
        <time>2020-09-12T07:35:35Z</time>
      </trkpt>
      <trkpt lat="42.8774840" lon="-0.2672990">
        <ele>1521.8</ele>
        <time>2020-09-12T07:35:41Z</time>
      </trkpt>
      <trkpt lat="42.8773790" lon="-0.2672330">
        <ele>1521.4</ele>
        <time>2020-09-12T07:35:52Z</time>
      </trkpt>
      <trkpt lat="42.8772260" lon="-0.2671510">
        <ele>1520.4</ele>
        <time>2020-09-12T07:36:07Z</time>
      </trkpt>
      <trkpt lat="42.8770880" lon="-0.2669730">
        <ele>1520.2</ele>
        <time>2020-09-12T07:36:22Z</time>
      </trkpt>
      <trkpt lat="42.8769950" lon="-0.2667530">
        <ele>1519.6</ele>
        <time>2020-09-12T07:36:38Z</time>
      </trkpt>
      <trkpt lat="42.8768360" lon="-0.2666210">
        <ele>1520.0</ele>
        <time>2020-09-12T07:36:55Z</time>
      </trkpt>
      <trkpt lat="42.8766620" lon="-0.2665440">
        <ele>1519.8</ele>
        <time>2020-09-12T07:37:08Z</time>
      </trkpt>
      <trkpt lat="42.8765320" lon="-0.2663800">
        <ele>1519.6</ele>
        <time>2020-09-12T07:37:24Z</time>
      </trkpt>
      <trkpt lat="42.8765140" lon="-0.2663120">
        <ele>1519.4</ele>
        <time>2020-09-12T07:37:27Z</time>
      </trkpt>
      <trkpt lat="42.8763970" lon="-0.2661140">
        <ele>1519.2</ele>
        <time>2020-09-12T07:37:42Z</time>
      </trkpt>
      <trkpt lat="42.8763020" lon="-0.2659340">
        <ele>1520.2</ele>
        <time>2020-09-12T07:37:56Z</time>
      </trkpt>
      <trkpt lat="42.8762600" lon="-0.2659120">
        <ele>1520.4</ele>
        <time>2020-09-12T07:38:00Z</time>
      </trkpt>
      <trkpt lat="42.8761750" lon="-0.2658840">
        <ele>1520.8</ele>
        <time>2020-09-12T07:38:07Z</time>
      </trkpt>
      <trkpt lat="42.8760600" lon="-0.2659700">
        <ele>1521.0</ele>
        <time>2020-09-12T07:38:18Z</time>
      </trkpt>
      <trkpt lat="42.8759700" lon="-0.2660050">
        <ele>1520.8</ele>
        <time>2020-09-12T07:38:26Z</time>
      </trkpt>
      <trkpt lat="42.8759500" lon="-0.2660250">
        <ele>1520.6</ele>
        <time>2020-09-12T07:38:28Z</time>
      </trkpt>
      <trkpt lat="42.8758110" lon="-0.2661820">
        <ele>1520.4</ele>
        <time>2020-09-12T07:38:44Z</time>
      </trkpt>
      <trkpt lat="42.8757910" lon="-0.2661810">
        <ele>1520.6</ele>
        <time>2020-09-12T07:38:46Z</time>
      </trkpt>
      <trkpt lat="42.8756950" lon="-0.2661550">
        <ele>1521.0</ele>
        <time>2020-09-12T07:38:55Z</time>
      </trkpt>
      <trkpt lat="42.8756270" lon="-0.2661750">
        <ele>1521.2</ele>
        <time>2020-09-12T07:39:01Z</time>
      </trkpt>
      <trkpt lat="42.8755890" lon="-0.2661970">
        <ele>1521.2</ele>
        <time>2020-09-12T07:39:05Z</time>
      </trkpt>
      <trkpt lat="42.8755460" lon="-0.2661990">
        <ele>1521.6</ele>
        <time>2020-09-12T07:39:09Z</time>
      </trkpt>
      <trkpt lat="42.8754300" lon="-0.2661780">
        <ele>1522.6</ele>
        <time>2020-09-12T07:39:20Z</time>
      </trkpt>
      <trkpt lat="42.8753550" lon="-0.2661660">
        <ele>1523.0</ele>
        <time>2020-09-12T07:39:29Z</time>
      </trkpt>
      <trkpt lat="42.8753510" lon="-0.2661700">
        <ele>1522.8</ele>
        <time>2020-09-12T07:39:34Z</time>
      </trkpt>
      <trkpt lat="42.8753190" lon="-0.2661840">
        <ele>1523.0</ele>
        <time>2020-09-12T07:39:40Z</time>
      </trkpt>
      <trkpt lat="42.8752370" lon="-0.2661740">
        <ele>1523.6</ele>
        <time>2020-09-12T07:39:48Z</time>
      </trkpt>
      <trkpt lat="42.8752290" lon="-0.2661760">
        <ele>1523.8</ele>
        <time>2020-09-12T07:39:49Z</time>
      </trkpt>
      <trkpt lat="42.8752020" lon="-0.2661960">
        <ele>1524.2</ele>
        <time>2020-09-12T07:39:52Z</time>
      </trkpt>
      <trkpt lat="42.8751570" lon="-0.2662200">
        <ele>1524.4</ele>
        <time>2020-09-12T07:39:56Z</time>
      </trkpt>
      <trkpt lat="42.8751360" lon="-0.2662260">
        <ele>1524.8</ele>
        <time>2020-09-12T07:39:58Z</time>
      </trkpt>
      <trkpt lat="42.8751140" lon="-0.2662240">
        <ele>1525.2</ele>
        <time>2020-09-12T07:40:00Z</time>
      </trkpt>
      <trkpt lat="42.8750720" lon="-0.2662230">
        <ele>1526.0</ele>
        <time>2020-09-12T07:40:04Z</time>
      </trkpt>
      <trkpt lat="42.8749910" lon="-0.2662360">
        <ele>1527.0</ele>
        <time>2020-09-12T07:40:12Z</time>
      </trkpt>
      <trkpt lat="42.8749400" lon="-0.2662350">
        <ele>1528.0</ele>
        <time>2020-09-12T07:40:17Z</time>
      </trkpt>
      <trkpt lat="42.8747870" lon="-0.2662600">
        <ele>1529.0</ele>
        <time>2020-09-12T07:40:30Z</time>
      </trkpt>
      <trkpt lat="42.8746000" lon="-0.2662720">
        <ele>1530.2</ele>
        <time>2020-09-12T07:40:44Z</time>
      </trkpt>
      <trkpt lat="42.8745800" lon="-0.2662630">
        <ele>1530.4</ele>
        <time>2020-09-12T07:40:46Z</time>
      </trkpt>
      <trkpt lat="42.8745540" lon="-0.2662490">
        <ele>1531.0</ele>
        <time>2020-09-12T07:40:48Z</time>
      </trkpt>
      <trkpt lat="42.8745450" lon="-0.2662520">
        <ele>1531.2</ele>
        <time>2020-09-12T07:40:49Z</time>
      </trkpt>
      <trkpt lat="42.8744660" lon="-0.2662700">
        <ele>1532.2</ele>
        <time>2020-09-12T07:40:56Z</time>
      </trkpt>
      <trkpt lat="42.8744180" lon="-0.2662880">
        <ele>1533.2</ele>
        <time>2020-09-12T07:41:00Z</time>
      </trkpt>
      <trkpt lat="42.8743640" lon="-0.2663210">
        <ele>1533.8</ele>
        <time>2020-09-12T07:41:05Z</time>
      </trkpt>
      <trkpt lat="42.8743200" lon="-0.2663270">
        <ele>1534.4</ele>
        <time>2020-09-12T07:41:09Z</time>
      </trkpt>
      <trkpt lat="42.8742540" lon="-0.2662870">
        <ele>1535.6</ele>
        <time>2020-09-12T07:41:16Z</time>
      </trkpt>
      <trkpt lat="42.8741880" lon="-0.2662390">
        <ele>1536.6</ele>
        <time>2020-09-12T07:41:23Z</time>
      </trkpt>
      <trkpt lat="42.8741550" lon="-0.2662260">
        <ele>1537.0</ele>
        <time>2020-09-12T07:41:26Z</time>
      </trkpt>
      <trkpt lat="42.8740710" lon="-0.2661990">
        <ele>1537.8</ele>
        <time>2020-09-12T07:41:34Z</time>
      </trkpt>
      <trkpt lat="42.8739910" lon="-0.2662320">
        <ele>1538.8</ele>
        <time>2020-09-12T07:41:42Z</time>
      </trkpt>
      <trkpt lat="42.8739300" lon="-0.2662570">
        <ele>1539.6</ele>
        <time>2020-09-12T07:41:47Z</time>
      </trkpt>
      <trkpt lat="42.8738810" lon="-0.2662660">
        <ele>1540.0</ele>
        <time>2020-09-12T07:41:51Z</time>
      </trkpt>
      <trkpt lat="42.8737650" lon="-0.2662500">
        <ele>1541.0</ele>
        <time>2020-09-12T07:42:00Z</time>
      </trkpt>
      <trkpt lat="42.8735850" lon="-0.2662550">
        <ele>1542.0</ele>
        <time>2020-09-12T07:42:15Z</time>
      </trkpt>
      <trkpt lat="42.8735770" lon="-0.2662590">
        <ele>1542.2</ele>
        <time>2020-09-12T07:42:16Z</time>
      </trkpt>
      <trkpt lat="42.8735080" lon="-0.2662660">
        <ele>1543.0</ele>
        <time>2020-09-12T07:42:23Z</time>
      </trkpt>
      <trkpt lat="42.8734530" lon="-0.2662800">
        <ele>1543.2</ele>
        <time>2020-09-12T07:42:28Z</time>
      </trkpt>
      <trkpt lat="42.8733210" lon="-0.2663000">
        <ele>1544.4</ele>
        <time>2020-09-12T07:42:38Z</time>
      </trkpt>
      <trkpt lat="42.8732450" lon="-0.2663000">
        <ele>1545.4</ele>
        <time>2020-09-12T07:42:44Z</time>
      </trkpt>
      <trkpt lat="42.8731460" lon="-0.2662600">
        <ele>1546.6</ele>
        <time>2020-09-12T07:42:52Z</time>
      </trkpt>
      <trkpt lat="42.8730870" lon="-0.2662030">
        <ele>1547.6</ele>
        <time>2020-09-12T07:42:59Z</time>
      </trkpt>
      <trkpt lat="42.8730710" lon="-0.2662060">
        <ele>1547.8</ele>
        <time>2020-09-12T07:43:01Z</time>
      </trkpt>
      <trkpt lat="42.8730550" lon="-0.2662090">
        <ele>1547.8</ele>
        <time>2020-09-12T07:43:03Z</time>
      </trkpt>
      <trkpt lat="42.8730340" lon="-0.2662070">
        <ele>1547.8</ele>
        <time>2020-09-12T07:43:06Z</time>
      </trkpt>
      <trkpt lat="42.8730140" lon="-0.2661990">
        <ele>1548.2</ele>
        <time>2020-09-12T07:43:09Z</time>
      </trkpt>
      <trkpt lat="42.8729870" lon="-0.2661770">
        <ele>1548.8</ele>
        <time>2020-09-12T07:43:14Z</time>
      </trkpt>
      <trkpt lat="42.8729320" lon="-0.2661390">
        <ele>1549.8</ele>
        <time>2020-09-12T07:43:22Z</time>
      </trkpt>
      <trkpt lat="42.8728190" lon="-0.2661040">
        <ele>1551.0</ele>
        <time>2020-09-12T07:43:32Z</time>
      </trkpt>
      <trkpt lat="42.8727790" lon="-0.2660900">
        <ele>1551.6</ele>
        <time>2020-09-12T07:43:36Z</time>
      </trkpt>
      <trkpt lat="42.8727400" lon="-0.2660890">
        <ele>1552.0</ele>
        <time>2020-09-12T07:43:40Z</time>
      </trkpt>
      <trkpt lat="42.8726640" lon="-0.2660840">
        <ele>1553.0</ele>
        <time>2020-09-12T07:43:47Z</time>
      </trkpt>
      <trkpt lat="42.8726100" lon="-0.2660610">
        <ele>1554.2</ele>
        <time>2020-09-12T07:43:53Z</time>
      </trkpt>
      <trkpt lat="42.8725990" lon="-0.2660480">
        <ele>1554.6</ele>
        <time>2020-09-12T07:43:55Z</time>
      </trkpt>
      <trkpt lat="42.8725810" lon="-0.2660400">
        <ele>1554.8</ele>
        <time>2020-09-12T07:43:57Z</time>
      </trkpt>
      <trkpt lat="42.8725550" lon="-0.2660200">
        <ele>1555.2</ele>
        <time>2020-09-12T07:44:00Z</time>
      </trkpt>
      <trkpt lat="42.8725510" lon="-0.2660160">
        <ele>1555.2</ele>
        <time>2020-09-12T07:44:01Z</time>
      </trkpt>
      <trkpt lat="42.8725430" lon="-0.2660150">
        <ele>1555.4</ele>
        <time>2020-09-12T07:44:02Z</time>
      </trkpt>
      <trkpt lat="42.8725270" lon="-0.2660070">
        <ele>1555.8</ele>
        <time>2020-09-12T07:44:05Z</time>
      </trkpt>
      <trkpt lat="42.8725060" lon="-0.2659760">
        <ele>1556.2</ele>
        <time>2020-09-12T07:44:10Z</time>
      </trkpt>
      <trkpt lat="42.8724910" lon="-0.2659770">
        <ele>1556.2</ele>
        <time>2020-09-12T07:44:12Z</time>
      </trkpt>
      <trkpt lat="42.8724150" lon="-0.2659370">
        <ele>1557.2</ele>
        <time>2020-09-12T07:44:20Z</time>
      </trkpt>
      <trkpt lat="42.8724040" lon="-0.2659380">
        <ele>1557.4</ele>
        <time>2020-09-12T07:44:21Z</time>
      </trkpt>
      <trkpt lat="42.8723590" lon="-0.2659430">
        <ele>1557.8</ele>
        <time>2020-09-12T07:44:28Z</time>
      </trkpt>
      <trkpt lat="42.8723260" lon="-0.2659290">
        <ele>1558.0</ele>
        <time>2020-09-12T07:44:32Z</time>
      </trkpt>
      <trkpt lat="42.8723110" lon="-0.2659240">
        <ele>1558.2</ele>
        <time>2020-09-12T07:44:34Z</time>
      </trkpt>
      <trkpt lat="42.8722990" lon="-0.2659170">
        <ele>1558.4</ele>
        <time>2020-09-12T07:44:36Z</time>
      </trkpt>
      <trkpt lat="42.8722470" lon="-0.2658900">
        <ele>1559.0</ele>
        <time>2020-09-12T07:44:42Z</time>
      </trkpt>
      <trkpt lat="42.8722230" lon="-0.2658760">
        <ele>1559.2</ele>
        <time>2020-09-12T07:44:45Z</time>
      </trkpt>
      <trkpt lat="42.8721830" lon="-0.2658620">
        <ele>1559.4</ele>
        <time>2020-09-12T07:44:49Z</time>
      </trkpt>
      <trkpt lat="42.8721380" lon="-0.2658450">
        <ele>1559.8</ele>
        <time>2020-09-12T07:44:54Z</time>
      </trkpt>
      <trkpt lat="42.8721120" lon="-0.2658190">
        <ele>1560.0</ele>
        <time>2020-09-12T07:44:58Z</time>
      </trkpt>
      <trkpt lat="42.8721040" lon="-0.2658080">
        <ele>1560.2</ele>
        <time>2020-09-12T07:45:00Z</time>
      </trkpt>
      <trkpt lat="42.8720900" lon="-0.2658040">
        <ele>1560.2</ele>
        <time>2020-09-12T07:45:03Z</time>
      </trkpt>
      <trkpt lat="42.8720240" lon="-0.2657750">
        <ele>1560.6</ele>
        <time>2020-09-12T07:45:14Z</time>
      </trkpt>
      <trkpt lat="42.8719180" lon="-0.2656990">
        <ele>1561.8</ele>
        <time>2020-09-12T07:45:26Z</time>
      </trkpt>
      <trkpt lat="42.8718730" lon="-0.2656800">
        <ele>1562.4</ele>
        <time>2020-09-12T07:45:31Z</time>
      </trkpt>
      <trkpt lat="42.8718460" lon="-0.2656590">
        <ele>1562.8</ele>
        <time>2020-09-12T07:45:34Z</time>
      </trkpt>
      <trkpt lat="42.8718110" lon="-0.2656260">
        <ele>1563.8</ele>
        <time>2020-09-12T07:45:39Z</time>
      </trkpt>
      <trkpt lat="42.8717880" lon="-0.2655910">
        <ele>1564.0</ele>
        <time>2020-09-12T07:45:42Z</time>
      </trkpt>
      <trkpt lat="42.8717650" lon="-0.2655720">
        <ele>1564.4</ele>
        <time>2020-09-12T07:45:45Z</time>
      </trkpt>
      <trkpt lat="42.8717440" lon="-0.2655590">
        <ele>1565.0</ele>
        <time>2020-09-12T07:45:48Z</time>
      </trkpt>
      <trkpt lat="42.8717380" lon="-0.2655540">
        <ele>1565.2</ele>
        <time>2020-09-12T07:45:49Z</time>
      </trkpt>
      <trkpt lat="42.8717000" lon="-0.2655130">
        <ele>1566.2</ele>
        <time>2020-09-12T07:45:55Z</time>
      </trkpt>
      <trkpt lat="42.8716410" lon="-0.2654450">
        <ele>1567.2</ele>
        <time>2020-09-12T07:46:04Z</time>
      </trkpt>
      <trkpt lat="42.8716230" lon="-0.2654130">
        <ele>1568.0</ele>
        <time>2020-09-12T07:46:07Z</time>
      </trkpt>
      <trkpt lat="42.8716110" lon="-0.2653830">
        <ele>1568.2</ele>
        <time>2020-09-12T07:46:10Z</time>
      </trkpt>
      <trkpt lat="42.8716130" lon="-0.2653740">
        <ele>1568.4</ele>
        <time>2020-09-12T07:46:11Z</time>
      </trkpt>
      <trkpt lat="42.8716120" lon="-0.2653470">
        <ele>1568.6</ele>
        <time>2020-09-12T07:46:13Z</time>
      </trkpt>
      <trkpt lat="42.8716020" lon="-0.2653180">
        <ele>1569.0</ele>
        <time>2020-09-12T07:46:15Z</time>
      </trkpt>
      <trkpt lat="42.8715950" lon="-0.2652990">
        <ele>1569.2</ele>
        <time>2020-09-12T07:46:17Z</time>
      </trkpt>
      <trkpt lat="42.8715870" lon="-0.2652840">
        <ele>1569.4</ele>
        <time>2020-09-12T07:46:18Z</time>
      </trkpt>
      <trkpt lat="42.8715340" lon="-0.2652140">
        <ele>1570.4</ele>
        <time>2020-09-12T07:46:27Z</time>
      </trkpt>
      <trkpt lat="42.8715130" lon="-0.2651770">
        <ele>1570.8</ele>
        <time>2020-09-12T07:46:31Z</time>
      </trkpt>
      <trkpt lat="42.8714940" lon="-0.2651300">
        <ele>1571.6</ele>
        <time>2020-09-12T07:46:36Z</time>
      </trkpt>
      <trkpt lat="42.8714700" lon="-0.2650920">
        <ele>1572.6</ele>
        <time>2020-09-12T07:46:43Z</time>
      </trkpt>
      <trkpt lat="42.8714140" lon="-0.2650360">
        <ele>1573.6</ele>
        <time>2020-09-12T07:46:52Z</time>
      </trkpt>
      <trkpt lat="42.8713790" lon="-0.2649760">
        <ele>1574.6</ele>
        <time>2020-09-12T07:46:57Z</time>
      </trkpt>
      <trkpt lat="42.8713740" lon="-0.2649680">
        <ele>1574.8</ele>
        <time>2020-09-12T07:46:58Z</time>
      </trkpt>
      <trkpt lat="42.8713170" lon="-0.2649190">
        <ele>1575.8</ele>
        <time>2020-09-12T07:47:05Z</time>
      </trkpt>
      <trkpt lat="42.8712900" lon="-0.2648900">
        <ele>1576.4</ele>
        <time>2020-09-12T07:47:09Z</time>
      </trkpt>
      <trkpt lat="42.8712660" lon="-0.2648620">
        <ele>1576.8</ele>
        <time>2020-09-12T07:47:12Z</time>
      </trkpt>
      <trkpt lat="42.8712570" lon="-0.2648500">
        <ele>1577.0</ele>
        <time>2020-09-12T07:47:13Z</time>
      </trkpt>
      <trkpt lat="42.8712080" lon="-0.2647980">
        <ele>1577.8</ele>
        <time>2020-09-12T07:47:19Z</time>
      </trkpt>
      <trkpt lat="42.8712000" lon="-0.2647950">
        <ele>1578.0</ele>
        <time>2020-09-12T07:47:20Z</time>
      </trkpt>
      <trkpt lat="42.8711870" lon="-0.2647740">
        <ele>1578.4</ele>
        <time>2020-09-12T07:47:22Z</time>
      </trkpt>
      <trkpt lat="42.8711610" lon="-0.2647410">
        <ele>1579.0</ele>
        <time>2020-09-12T07:47:26Z</time>
      </trkpt>
      <trkpt lat="42.8711560" lon="-0.2647390">
        <ele>1579.0</ele>
        <time>2020-09-12T07:47:27Z</time>
      </trkpt>
      <trkpt lat="42.8711350" lon="-0.2647260">
        <ele>1579.4</ele>
        <time>2020-09-12T07:47:31Z</time>
      </trkpt>
      <trkpt lat="42.8711220" lon="-0.2647060">
        <ele>1579.8</ele>
        <time>2020-09-12T07:47:33Z</time>
      </trkpt>
      <trkpt lat="42.8711110" lon="-0.2646890">
        <ele>1580.0</ele>
        <time>2020-09-12T07:47:34Z</time>
      </trkpt>
      <trkpt lat="42.8710980" lon="-0.2646720">
        <ele>1580.0</ele>
        <time>2020-09-12T07:47:35Z</time>
      </trkpt>
      <trkpt lat="42.8710610" lon="-0.2646240">
        <ele>1580.8</ele>
        <time>2020-09-12T07:47:40Z</time>
      </trkpt>
      <trkpt lat="42.8710590" lon="-0.2646240">
        <ele>1581.0</ele>
        <time>2020-09-12T07:47:41Z</time>
      </trkpt>
      <trkpt lat="42.8710580" lon="-0.2646190">
        <ele>1581.0</ele>
        <time>2020-09-12T07:47:42Z</time>
      </trkpt>
      <trkpt lat="42.8710330" lon="-0.2645870">
        <ele>1582.0</ele>
        <time>2020-09-12T07:47:49Z</time>
      </trkpt>
      <trkpt lat="42.8709840" lon="-0.2644430">
        <ele>1583.0</ele>
        <time>2020-09-12T07:47:57Z</time>
      </trkpt>
      <trkpt lat="42.8709810" lon="-0.2644320">
        <ele>1583.2</ele>
        <time>2020-09-12T07:47:58Z</time>
      </trkpt>
      <trkpt lat="42.8709610" lon="-0.2644120">
        <ele>1583.6</ele>
        <time>2020-09-12T07:48:01Z</time>
      </trkpt>
      <trkpt lat="42.8709330" lon="-0.2643980">
        <ele>1584.0</ele>
        <time>2020-09-12T07:48:04Z</time>
      </trkpt>
      <trkpt lat="42.8709130" lon="-0.2643890">
        <ele>1584.6</ele>
        <time>2020-09-12T07:48:07Z</time>
      </trkpt>
      <trkpt lat="42.8709020" lon="-0.2643780">
        <ele>1584.6</ele>
        <time>2020-09-12T07:48:09Z</time>
      </trkpt>
      <trkpt lat="42.8708780" lon="-0.2643690">
        <ele>1585.2</ele>
        <time>2020-09-12T07:48:14Z</time>
      </trkpt>
      <trkpt lat="42.8707550" lon="-0.2642100">
        <ele>1585.6</ele>
        <time>2020-09-12T07:48:29Z</time>
      </trkpt>
      <trkpt lat="42.8707350" lon="-0.2641810">
        <ele>1586.2</ele>
        <time>2020-09-12T07:48:31Z</time>
      </trkpt>
      <trkpt lat="42.8706640" lon="-0.2641080">
        <ele>1587.0</ele>
        <time>2020-09-12T07:48:40Z</time>
      </trkpt>
      <trkpt lat="42.8706570" lon="-0.2641150">
        <ele>1587.2</ele>
        <time>2020-09-12T07:48:43Z</time>
      </trkpt>
      <trkpt lat="42.8706170" lon="-0.2641020">
        <ele>1588.4</ele>
        <time>2020-09-12T07:48:50Z</time>
      </trkpt>
      <trkpt lat="42.8706010" lon="-0.2640880">
        <ele>1588.6</ele>
        <time>2020-09-12T07:48:51Z</time>
      </trkpt>
      <trkpt lat="42.8705810" lon="-0.2640670">
        <ele>1588.8</ele>
        <time>2020-09-12T07:48:53Z</time>
      </trkpt>
      <trkpt lat="42.8705490" lon="-0.2640350">
        <ele>1589.0</ele>
        <time>2020-09-12T07:48:57Z</time>
      </trkpt>
      <trkpt lat="42.8705370" lon="-0.2640230">
        <ele>1589.6</ele>
        <time>2020-09-12T07:49:00Z</time>
      </trkpt>
      <trkpt lat="42.8705310" lon="-0.2640120">
        <ele>1589.8</ele>
        <time>2020-09-12T07:49:02Z</time>
      </trkpt>
      <trkpt lat="42.8705200" lon="-0.2639770">
        <ele>1590.4</ele>
        <time>2020-09-12T07:49:06Z</time>
      </trkpt>
      <trkpt lat="42.8705130" lon="-0.2639590">
        <ele>1590.6</ele>
        <time>2020-09-12T07:49:08Z</time>
      </trkpt>
      <trkpt lat="42.8704920" lon="-0.2639240">
        <ele>1591.2</ele>
        <time>2020-09-12T07:49:11Z</time>
      </trkpt>
      <trkpt lat="42.8704620" lon="-0.2639080">
        <ele>1591.8</ele>
        <time>2020-09-12T07:49:14Z</time>
      </trkpt>
      <trkpt lat="42.8704350" lon="-0.2638770">
        <ele>1592.0</ele>
        <time>2020-09-12T07:49:16Z</time>
      </trkpt>
      <trkpt lat="42.8703980" lon="-0.2638520">
        <ele>1591.8</ele>
        <time>2020-09-12T07:49:20Z</time>
      </trkpt>
      <trkpt lat="42.8703760" lon="-0.2638410">
        <ele>1592.0</ele>
        <time>2020-09-12T07:49:23Z</time>
      </trkpt>
      <trkpt lat="42.8703530" lon="-0.2637920">
        <ele>1592.8</ele>
        <time>2020-09-12T07:49:27Z</time>
      </trkpt>
      <trkpt lat="42.8703450" lon="-0.2637860">
        <ele>1592.8</ele>
        <time>2020-09-12T07:49:28Z</time>
      </trkpt>
      <trkpt lat="42.8703350" lon="-0.2637870">
        <ele>1593.0</ele>
        <time>2020-09-12T07:49:29Z</time>
      </trkpt>
      <trkpt lat="42.8703130" lon="-0.2637590">
        <ele>1593.8</ele>
        <time>2020-09-12T07:49:33Z</time>
      </trkpt>
      <trkpt lat="42.8703080" lon="-0.2637540">
        <ele>1594.0</ele>
        <time>2020-09-12T07:49:34Z</time>
      </trkpt>
      <trkpt lat="42.8702820" lon="-0.2637420">
        <ele>1594.4</ele>
        <time>2020-09-12T07:49:38Z</time>
      </trkpt>
      <trkpt lat="42.8702650" lon="-0.2637210">
        <ele>1595.0</ele>
        <time>2020-09-12T07:49:40Z</time>
      </trkpt>
      <trkpt lat="42.8702550" lon="-0.2637120">
        <ele>1595.4</ele>
        <time>2020-09-12T07:49:42Z</time>
      </trkpt>
      <trkpt lat="42.8702310" lon="-0.2636920">
        <ele>1595.8</ele>
        <time>2020-09-12T07:49:46Z</time>
      </trkpt>
      <trkpt lat="42.8702210" lon="-0.2636780">
        <ele>1596.0</ele>
        <time>2020-09-12T07:49:48Z</time>
      </trkpt>
      <trkpt lat="42.8701850" lon="-0.2636570">
        <ele>1596.4</ele>
        <time>2020-09-12T07:49:52Z</time>
      </trkpt>
      <trkpt lat="42.8701600" lon="-0.2636230">
        <ele>1597.0</ele>
        <time>2020-09-12T07:49:55Z</time>
      </trkpt>
      <trkpt lat="42.8701450" lon="-0.2636080">
        <ele>1597.4</ele>
        <time>2020-09-12T07:49:57Z</time>
      </trkpt>
      <trkpt lat="42.8701290" lon="-0.2635920">
        <ele>1597.8</ele>
        <time>2020-09-12T07:49:59Z</time>
      </trkpt>
      <trkpt lat="42.8701160" lon="-0.2635720">
        <ele>1598.0</ele>
        <time>2020-09-12T07:50:02Z</time>
      </trkpt>
      <trkpt lat="42.8701080" lon="-0.2635620">
        <ele>1598.2</ele>
        <time>2020-09-12T07:50:03Z</time>
      </trkpt>
      <trkpt lat="42.8701030" lon="-0.2635500">
        <ele>1598.2</ele>
        <time>2020-09-12T07:50:04Z</time>
      </trkpt>
      <trkpt lat="42.8700890" lon="-0.2635150">
        <ele>1598.6</ele>
        <time>2020-09-12T07:50:07Z</time>
      </trkpt>
      <trkpt lat="42.8700740" lon="-0.2634930">
        <ele>1598.8</ele>
        <time>2020-09-12T07:50:10Z</time>
      </trkpt>
      <trkpt lat="42.8700440" lon="-0.2634700">
        <ele>1599.2</ele>
        <time>2020-09-12T07:50:14Z</time>
      </trkpt>
      <trkpt lat="42.8700360" lon="-0.2634610">
        <ele>1599.2</ele>
        <time>2020-09-12T07:50:15Z</time>
      </trkpt>
      <trkpt lat="42.8700180" lon="-0.2634410">
        <ele>1600.0</ele>
        <time>2020-09-12T07:50:18Z</time>
      </trkpt>
      <trkpt lat="42.8700050" lon="-0.2634280">
        <ele>1600.2</ele>
        <time>2020-09-12T07:50:20Z</time>
      </trkpt>
      <trkpt lat="42.8699780" lon="-0.2634020">
        <ele>1600.8</ele>
        <time>2020-09-12T07:50:24Z</time>
      </trkpt>
      <trkpt lat="42.8699520" lon="-0.2633750">
        <ele>1601.2</ele>
        <time>2020-09-12T07:50:29Z</time>
      </trkpt>
      <trkpt lat="42.8699000" lon="-0.2633420">
        <ele>1601.8</ele>
        <time>2020-09-12T07:50:36Z</time>
      </trkpt>
      <trkpt lat="42.8698350" lon="-0.2632940">
        <ele>1602.2</ele>
        <time>2020-09-12T07:50:44Z</time>
      </trkpt>
      <trkpt lat="42.8698170" lon="-0.2632680">
        <ele>1602.4</ele>
        <time>2020-09-12T07:50:47Z</time>
      </trkpt>
      <trkpt lat="42.8698020" lon="-0.2632440">
        <ele>1603.2</ele>
        <time>2020-09-12T07:50:50Z</time>
      </trkpt>
      <trkpt lat="42.8697980" lon="-0.2632360">
        <ele>1603.4</ele>
        <time>2020-09-12T07:50:51Z</time>
      </trkpt>
      <trkpt lat="42.8697940" lon="-0.2632220">
        <ele>1603.8</ele>
        <time>2020-09-12T07:50:53Z</time>
      </trkpt>
      <trkpt lat="42.8697710" lon="-0.2632050">
        <ele>1604.2</ele>
        <time>2020-09-12T07:50:57Z</time>
      </trkpt>
      <trkpt lat="42.8697620" lon="-0.2631980">
        <ele>1604.4</ele>
        <time>2020-09-12T07:50:58Z</time>
      </trkpt>
      <trkpt lat="42.8697420" lon="-0.2631880">
        <ele>1604.6</ele>
        <time>2020-09-12T07:51:00Z</time>
      </trkpt>
      <trkpt lat="42.8696140" lon="-0.2631180">
        <ele>1605.6</ele>
        <time>2020-09-12T07:51:15Z</time>
      </trkpt>
      <trkpt lat="42.8695830" lon="-0.2630850">
        <ele>1606.2</ele>
        <time>2020-09-12T07:51:18Z</time>
      </trkpt>
      <trkpt lat="42.8695770" lon="-0.2630780">
        <ele>1606.6</ele>
        <time>2020-09-12T07:51:19Z</time>
      </trkpt>
      <trkpt lat="42.8695720" lon="-0.2630720">
        <ele>1607.0</ele>
        <time>2020-09-12T07:51:20Z</time>
      </trkpt>
      <trkpt lat="42.8695540" lon="-0.2630550">
        <ele>1607.4</ele>
        <time>2020-09-12T07:51:23Z</time>
      </trkpt>
      <trkpt lat="42.8695280" lon="-0.2630260">
        <ele>1607.8</ele>
        <time>2020-09-12T07:51:26Z</time>
      </trkpt>
      <trkpt lat="42.8695180" lon="-0.2630270">
        <ele>1607.8</ele>
        <time>2020-09-12T07:51:27Z</time>
      </trkpt>
      <trkpt lat="42.8695070" lon="-0.2630150">
        <ele>1608.0</ele>
        <time>2020-09-12T07:51:29Z</time>
      </trkpt>
      <trkpt lat="42.8694900" lon="-0.2629850">
        <ele>1608.2</ele>
        <time>2020-09-12T07:51:31Z</time>
      </trkpt>
      <trkpt lat="42.8694410" lon="-0.2629310">
        <ele>1608.8</ele>
        <time>2020-09-12T07:51:37Z</time>
      </trkpt>
      <trkpt lat="42.8694370" lon="-0.2629230">
        <ele>1608.8</ele>
        <time>2020-09-12T07:51:38Z</time>
      </trkpt>
      <trkpt lat="42.8694090" lon="-0.2628790">
        <ele>1609.6</ele>
        <time>2020-09-12T07:51:43Z</time>
      </trkpt>
      <trkpt lat="42.8693910" lon="-0.2628710">
        <ele>1609.8</ele>
        <time>2020-09-12T07:51:46Z</time>
      </trkpt>
      <trkpt lat="42.8693720" lon="-0.2628510">
        <ele>1610.2</ele>
        <time>2020-09-12T07:51:49Z</time>
      </trkpt>
      <trkpt lat="42.8693490" lon="-0.2628280">
        <ele>1610.6</ele>
        <time>2020-09-12T07:51:52Z</time>
      </trkpt>
      <trkpt lat="42.8693390" lon="-0.2628170">
        <ele>1611.0</ele>
        <time>2020-09-12T07:51:54Z</time>
      </trkpt>
      <trkpt lat="42.8693240" lon="-0.2628140">
        <ele>1611.4</ele>
        <time>2020-09-12T07:51:56Z</time>
      </trkpt>
      <trkpt lat="42.8693090" lon="-0.2628080">
        <ele>1611.4</ele>
        <time>2020-09-12T07:51:58Z</time>
      </trkpt>
      <trkpt lat="42.8692890" lon="-0.2627900">
        <ele>1611.8</ele>
        <time>2020-09-12T07:52:01Z</time>
      </trkpt>
      <trkpt lat="42.8692840" lon="-0.2627840">
        <ele>1612.0</ele>
        <time>2020-09-12T07:52:02Z</time>
      </trkpt>
      <trkpt lat="42.8692740" lon="-0.2627700">
        <ele>1612.6</ele>
        <time>2020-09-12T07:52:04Z</time>
      </trkpt>
      <trkpt lat="42.8692480" lon="-0.2627440">
        <ele>1613.2</ele>
        <time>2020-09-12T07:52:07Z</time>
      </trkpt>
      <trkpt lat="42.8692240" lon="-0.2627330">
        <ele>1613.6</ele>
        <time>2020-09-12T07:52:09Z</time>
      </trkpt>
      <trkpt lat="42.8692030" lon="-0.2627100">
        <ele>1613.8</ele>
        <time>2020-09-12T07:52:15Z</time>
      </trkpt>
      <trkpt lat="42.8691760" lon="-0.2626850">
        <ele>1614.4</ele>
        <time>2020-09-12T07:52:18Z</time>
      </trkpt>
      <trkpt lat="42.8691650" lon="-0.2626800">
        <ele>1614.6</ele>
        <time>2020-09-12T07:52:19Z</time>
      </trkpt>
      <trkpt lat="42.8691430" lon="-0.2626720">
        <ele>1614.8</ele>
        <time>2020-09-12T07:52:21Z</time>
      </trkpt>
      <trkpt lat="42.8690840" lon="-0.2626550">
        <ele>1615.4</ele>
        <time>2020-09-12T07:52:26Z</time>
      </trkpt>
      <trkpt lat="42.8689420" lon="-0.2626630">
        <ele>1616.6</ele>
        <time>2020-09-12T07:52:36Z</time>
      </trkpt>
      <trkpt lat="42.8689050" lon="-0.2626480">
        <ele>1617.4</ele>
        <time>2020-09-12T07:52:40Z</time>
      </trkpt>
      <trkpt lat="42.8688930" lon="-0.2626480">
        <ele>1617.8</ele>
        <time>2020-09-12T07:52:41Z</time>
      </trkpt>
      <trkpt lat="42.8688480" lon="-0.2626430">
        <ele>1618.4</ele>
        <time>2020-09-12T07:52:46Z</time>
      </trkpt>
      <trkpt lat="42.8688290" lon="-0.2626280">
        <ele>1618.6</ele>
        <time>2020-09-12T07:52:48Z</time>
      </trkpt>
      <trkpt lat="42.8687980" lon="-0.2626250">
        <ele>1618.8</ele>
        <time>2020-09-12T07:52:51Z</time>
      </trkpt>
      <trkpt lat="42.8687250" lon="-0.2626190">
        <ele>1619.8</ele>
        <time>2020-09-12T07:52:58Z</time>
      </trkpt>
      <trkpt lat="42.8686990" lon="-0.2626190">
        <ele>1620.2</ele>
        <time>2020-09-12T07:53:00Z</time>
      </trkpt>
      <trkpt lat="42.8686670" lon="-0.2626340">
        <ele>1620.8</ele>
        <time>2020-09-12T07:53:03Z</time>
      </trkpt>
      <trkpt lat="42.8686100" lon="-0.2626680">
        <ele>1621.8</ele>
        <time>2020-09-12T07:53:10Z</time>
      </trkpt>
      <trkpt lat="42.8685960" lon="-0.2626920">
        <ele>1622.0</ele>
        <time>2020-09-12T07:53:12Z</time>
      </trkpt>
      <trkpt lat="42.8685430" lon="-0.2626980">
        <ele>1623.2</ele>
        <time>2020-09-12T07:53:18Z</time>
      </trkpt>
      <trkpt lat="42.8684790" lon="-0.2626880">
        <ele>1624.2</ele>
        <time>2020-09-12T07:53:26Z</time>
      </trkpt>
      <trkpt lat="42.8684630" lon="-0.2626920">
        <ele>1624.6</ele>
        <time>2020-09-12T07:53:28Z</time>
      </trkpt>
      <trkpt lat="42.8684460" lon="-0.2626960">
        <ele>1625.0</ele>
        <time>2020-09-12T07:53:31Z</time>
      </trkpt>
      <trkpt lat="42.8684370" lon="-0.2626990">
        <ele>1625.2</ele>
        <time>2020-09-12T07:53:33Z</time>
      </trkpt>
      <trkpt lat="42.8684290" lon="-0.2626980">
        <ele>1625.4</ele>
        <time>2020-09-12T07:53:34Z</time>
      </trkpt>
      <trkpt lat="42.8683730" lon="-0.2626980">
        <ele>1626.4</ele>
        <time>2020-09-12T07:53:40Z</time>
      </trkpt>
      <trkpt lat="42.8683600" lon="-0.2626990">
        <ele>1626.6</ele>
        <time>2020-09-12T07:53:41Z</time>
      </trkpt>
      <trkpt lat="42.8683180" lon="-0.2627090">
        <ele>1627.4</ele>
        <time>2020-09-12T07:53:45Z</time>
      </trkpt>
      <trkpt lat="42.8682990" lon="-0.2627050">
        <ele>1627.8</ele>
        <time>2020-09-12T07:53:48Z</time>
      </trkpt>
      <trkpt lat="42.8682830" lon="-0.2627010">
        <ele>1628.2</ele>
        <time>2020-09-12T07:53:50Z</time>
      </trkpt>
      <trkpt lat="42.8682630" lon="-0.2627060">
        <ele>1628.6</ele>
        <time>2020-09-12T07:53:52Z</time>
      </trkpt>
      <trkpt lat="42.8682530" lon="-0.2627080">
        <ele>1628.8</ele>
        <time>2020-09-12T07:53:53Z</time>
      </trkpt>
      <trkpt lat="42.8682060" lon="-0.2627300">
        <ele>1629.4</ele>
        <time>2020-09-12T07:53:58Z</time>
      </trkpt>
      <trkpt lat="42.8681880" lon="-0.2627240">
        <ele>1629.6</ele>
        <time>2020-09-12T07:54:00Z</time>
      </trkpt>
      <trkpt lat="42.8680820" lon="-0.2627040">
        <ele>1630.6</ele>
        <time>2020-09-12T07:54:10Z</time>
      </trkpt>
      <trkpt lat="42.8680730" lon="-0.2626980">
        <ele>1630.6</ele>
        <time>2020-09-12T07:54:11Z</time>
      </trkpt>
      <trkpt lat="42.8680380" lon="-0.2626870">
        <ele>1631.4</ele>
        <time>2020-09-12T07:54:15Z</time>
      </trkpt>
      <trkpt lat="42.8680330" lon="-0.2626770">
        <ele>1631.6</ele>
        <time>2020-09-12T07:54:16Z</time>
      </trkpt>
      <trkpt lat="42.8680130" lon="-0.2626610">
        <ele>1632.0</ele>
        <time>2020-09-12T07:54:18Z</time>
      </trkpt>
      <trkpt lat="42.8679900" lon="-0.2626600">
        <ele>1632.4</ele>
        <time>2020-09-12T07:54:20Z</time>
      </trkpt>
      <trkpt lat="42.8679730" lon="-0.2626550">
        <ele>1632.6</ele>
        <time>2020-09-12T07:54:22Z</time>
      </trkpt>
      <trkpt lat="42.8679170" lon="-0.2626330">
        <ele>1633.8</ele>
        <time>2020-09-12T07:54:28Z</time>
      </trkpt>
      <trkpt lat="42.8678720" lon="-0.2626170">
        <ele>1634.4</ele>
        <time>2020-09-12T07:54:34Z</time>
      </trkpt>
      <trkpt lat="42.8678640" lon="-0.2626030">
        <ele>1634.8</ele>
        <time>2020-09-12T07:54:36Z</time>
      </trkpt>
      <trkpt lat="42.8678550" lon="-0.2625980">
        <ele>1635.0</ele>
        <time>2020-09-12T07:54:37Z</time>
      </trkpt>
      <trkpt lat="42.8678230" lon="-0.2625960">
        <ele>1635.8</ele>
        <time>2020-09-12T07:54:40Z</time>
      </trkpt>
      <trkpt lat="42.8678120" lon="-0.2625990">
        <ele>1636.0</ele>
        <time>2020-09-12T07:54:41Z</time>
      </trkpt>
      <trkpt lat="42.8677990" lon="-0.2625970">
        <ele>1636.0</ele>
        <time>2020-09-12T07:54:42Z</time>
      </trkpt>
      <trkpt lat="42.8676910" lon="-0.2625670">
        <ele>1636.8</ele>
        <time>2020-09-12T07:54:52Z</time>
      </trkpt>
      <trkpt lat="42.8676590" lon="-0.2625620">
        <ele>1637.6</ele>
        <time>2020-09-12T07:54:56Z</time>
      </trkpt>
      <trkpt lat="42.8676500" lon="-0.2625640">
        <ele>1638.0</ele>
        <time>2020-09-12T07:54:57Z</time>
      </trkpt>
      <trkpt lat="42.8676140" lon="-0.2625530">
        <ele>1638.8</ele>
        <time>2020-09-12T07:55:02Z</time>
      </trkpt>
      <trkpt lat="42.8676070" lon="-0.2625530">
        <ele>1639.0</ele>
        <time>2020-09-12T07:55:03Z</time>
      </trkpt>
      <trkpt lat="42.8675830" lon="-0.2625460">
        <ele>1639.6</ele>
        <time>2020-09-12T07:55:06Z</time>
      </trkpt>
      <trkpt lat="42.8675580" lon="-0.2625470">
        <ele>1640.0</ele>
        <time>2020-09-12T07:55:09Z</time>
      </trkpt>
      <trkpt lat="42.8675490" lon="-0.2625450">
        <ele>1640.2</ele>
        <time>2020-09-12T07:55:10Z</time>
      </trkpt>
      <trkpt lat="42.8675040" lon="-0.2625240">
        <ele>1641.4</ele>
        <time>2020-09-12T07:55:16Z</time>
      </trkpt>
      <trkpt lat="42.8674610" lon="-0.2624800">
        <ele>1641.8</ele>
        <time>2020-09-12T07:55:21Z</time>
      </trkpt>
      <trkpt lat="42.8674150" lon="-0.2624510">
        <ele>1642.4</ele>
        <time>2020-09-12T07:55:26Z</time>
      </trkpt>
      <trkpt lat="42.8673910" lon="-0.2624360">
        <ele>1642.8</ele>
        <time>2020-09-12T07:55:29Z</time>
      </trkpt>
      <trkpt lat="42.8673580" lon="-0.2624100">
        <ele>1643.4</ele>
        <time>2020-09-12T07:55:33Z</time>
      </trkpt>
      <trkpt lat="42.8673520" lon="-0.2624090">
        <ele>1643.6</ele>
        <time>2020-09-12T07:55:34Z</time>
      </trkpt>
      <trkpt lat="42.8673240" lon="-0.2623950">
        <ele>1644.0</ele>
        <time>2020-09-12T07:55:37Z</time>
      </trkpt>
      <trkpt lat="42.8672940" lon="-0.2623960">
        <ele>1644.6</ele>
        <time>2020-09-12T07:55:40Z</time>
      </trkpt>
      <trkpt lat="42.8672450" lon="-0.2623570">
        <ele>1645.4</ele>
        <time>2020-09-12T07:55:46Z</time>
      </trkpt>
      <trkpt lat="42.8672390" lon="-0.2623460">
        <ele>1645.8</ele>
        <time>2020-09-12T07:55:47Z</time>
      </trkpt>
      <trkpt lat="42.8672170" lon="-0.2623210">
        <ele>1646.6</ele>
        <time>2020-09-12T07:55:50Z</time>
      </trkpt>
      <trkpt lat="42.8671980" lon="-0.2623170">
        <ele>1647.0</ele>
        <time>2020-09-12T07:55:52Z</time>
      </trkpt>
      <trkpt lat="42.8671450" lon="-0.2622920">
        <ele>1648.0</ele>
        <time>2020-09-12T07:55:59Z</time>
      </trkpt>
      <trkpt lat="42.8670620" lon="-0.2622610">
        <ele>1649.0</ele>
        <time>2020-09-12T07:56:09Z</time>
      </trkpt>
      <trkpt lat="42.8669950" lon="-0.2622490">
        <ele>1650.2</ele>
        <time>2020-09-12T07:56:16Z</time>
      </trkpt>
      <trkpt lat="42.8669340" lon="-0.2622170">
        <ele>1651.2</ele>
        <time>2020-09-12T07:56:23Z</time>
      </trkpt>
      <trkpt lat="42.8669250" lon="-0.2622110">
        <ele>1651.4</ele>
        <time>2020-09-12T07:56:24Z</time>
      </trkpt>
      <trkpt lat="42.8668630" lon="-0.2621930">
        <ele>1652.2</ele>
        <time>2020-09-12T07:56:29Z</time>
      </trkpt>
      <trkpt lat="42.8667920" lon="-0.2621900">
        <ele>1653.4</ele>
        <time>2020-09-12T07:56:36Z</time>
      </trkpt>
      <trkpt lat="42.8667250" lon="-0.2621720">
        <ele>1654.6</ele>
        <time>2020-09-12T07:56:43Z</time>
      </trkpt>
      <trkpt lat="42.8666720" lon="-0.2621650">
        <ele>1655.6</ele>
        <time>2020-09-12T07:56:49Z</time>
      </trkpt>
      <trkpt lat="42.8666110" lon="-0.2621630">
        <ele>1656.6</ele>
        <time>2020-09-12T07:56:55Z</time>
      </trkpt>
      <trkpt lat="42.8666040" lon="-0.2621640">
        <ele>1656.6</ele>
        <time>2020-09-12T07:56:56Z</time>
      </trkpt>
      <trkpt lat="42.8665960" lon="-0.2621590">
        <ele>1656.8</ele>
        <time>2020-09-12T07:56:57Z</time>
      </trkpt>
      <trkpt lat="42.8665740" lon="-0.2621480">
        <ele>1657.2</ele>
        <time>2020-09-12T07:56:59Z</time>
      </trkpt>
      <trkpt lat="42.8665490" lon="-0.2621510">
        <ele>1657.6</ele>
        <time>2020-09-12T07:57:02Z</time>
      </trkpt>
      <trkpt lat="42.8665050" lon="-0.2621580">
        <ele>1658.4</ele>
        <time>2020-09-12T07:57:07Z</time>
      </trkpt>
      <trkpt lat="42.8664850" lon="-0.2621660">
        <ele>1658.6</ele>
        <time>2020-09-12T07:57:09Z</time>
      </trkpt>
      <trkpt lat="42.8664530" lon="-0.2621590">
        <ele>1660.0</ele>
        <time>2020-09-12T07:57:14Z</time>
      </trkpt>
      <trkpt lat="42.8664130" lon="-0.2621610">
        <ele>1661.0</ele>
        <time>2020-09-12T07:57:20Z</time>
      </trkpt>
      <trkpt lat="42.8663600" lon="-0.2621120">
        <ele>1661.8</ele>
        <time>2020-09-12T07:57:26Z</time>
      </trkpt>
      <trkpt lat="42.8663520" lon="-0.2621060">
        <ele>1662.2</ele>
        <time>2020-09-12T07:57:27Z</time>
      </trkpt>
      <trkpt lat="42.8663190" lon="-0.2620870">
        <ele>1663.2</ele>
        <time>2020-09-12T07:57:31Z</time>
      </trkpt>
      <trkpt lat="42.8663080" lon="-0.2620890">
        <ele>1663.4</ele>
        <time>2020-09-12T07:57:32Z</time>
      </trkpt>
      <trkpt lat="42.8662910" lon="-0.2620910">
        <ele>1663.8</ele>
        <time>2020-09-12T07:57:34Z</time>
      </trkpt>
      <trkpt lat="42.8662660" lon="-0.2620760">
        <ele>1664.4</ele>
        <time>2020-09-12T07:57:37Z</time>
      </trkpt>
      <trkpt lat="42.8662380" lon="-0.2620750">
        <ele>1665.0</ele>
        <time>2020-09-12T07:57:41Z</time>
      </trkpt>
      <trkpt lat="42.8662140" lon="-0.2620960">
        <ele>1665.4</ele>
        <time>2020-09-12T07:57:44Z</time>
      </trkpt>
      <trkpt lat="42.8661320" lon="-0.2620980">
        <ele>1666.4</ele>
        <time>2020-09-12T07:57:53Z</time>
      </trkpt>
      <trkpt lat="42.8660450" lon="-0.2621120">
        <ele>1667.4</ele>
        <time>2020-09-12T07:58:01Z</time>
      </trkpt>
      <trkpt lat="42.8659740" lon="-0.2621270">
        <ele>1668.0</ele>
        <time>2020-09-12T07:58:08Z</time>
      </trkpt>
      <trkpt lat="42.8659570" lon="-0.2621190">
        <ele>1668.4</ele>
        <time>2020-09-12T07:58:10Z</time>
      </trkpt>
      <trkpt lat="42.8658980" lon="-0.2621450">
        <ele>1669.6</ele>
        <time>2020-09-12T07:58:18Z</time>
      </trkpt>
      <trkpt lat="42.8658820" lon="-0.2621500">
        <ele>1670.0</ele>
        <time>2020-09-12T07:58:20Z</time>
      </trkpt>
      <trkpt lat="42.8658680" lon="-0.2621540">
        <ele>1670.6</ele>
        <time>2020-09-12T07:58:22Z</time>
      </trkpt>
      <trkpt lat="42.8658010" lon="-0.2621480">
        <ele>1671.8</ele>
        <time>2020-09-12T07:58:30Z</time>
      </trkpt>
      <trkpt lat="42.8656800" lon="-0.2621250">
        <ele>1672.8</ele>
        <time>2020-09-12T07:58:42Z</time>
      </trkpt>
      <trkpt lat="42.8656160" lon="-0.2621210">
        <ele>1673.8</ele>
        <time>2020-09-12T07:58:49Z</time>
      </trkpt>
      <trkpt lat="42.8655570" lon="-0.2621110">
        <ele>1674.8</ele>
        <time>2020-09-12T07:58:55Z</time>
      </trkpt>
      <trkpt lat="42.8654990" lon="-0.2620910">
        <ele>1676.0</ele>
        <time>2020-09-12T07:59:01Z</time>
      </trkpt>
      <trkpt lat="42.8654060" lon="-0.2620640">
        <ele>1677.0</ele>
        <time>2020-09-12T07:59:09Z</time>
      </trkpt>
      <trkpt lat="42.8653670" lon="-0.2620750">
        <ele>1677.6</ele>
        <time>2020-09-12T07:59:13Z</time>
      </trkpt>
      <trkpt lat="42.8653450" lon="-0.2620920">
        <ele>1678.0</ele>
        <time>2020-09-12T07:59:16Z</time>
      </trkpt>
      <trkpt lat="42.8652760" lon="-0.2621050">
        <ele>1679.0</ele>
        <time>2020-09-12T07:59:23Z</time>
      </trkpt>
      <trkpt lat="42.8652460" lon="-0.2621050">
        <ele>1679.6</ele>
        <time>2020-09-12T07:59:26Z</time>
      </trkpt>
      <trkpt lat="42.8651730" lon="-0.2620830">
        <ele>1680.2</ele>
        <time>2020-09-12T07:59:32Z</time>
      </trkpt>
      <trkpt lat="42.8650420" lon="-0.2620120">
        <ele>1681.2</ele>
        <time>2020-09-12T07:59:44Z</time>
      </trkpt>
      <trkpt lat="42.8649990" lon="-0.2619850">
        <ele>1682.2</ele>
        <time>2020-09-12T07:59:50Z</time>
      </trkpt>
      <trkpt lat="42.8649460" lon="-0.2619370">
        <ele>1682.6</ele>
        <time>2020-09-12T07:59:58Z</time>
      </trkpt>
      <trkpt lat="42.8649100" lon="-0.2619170">
        <ele>1682.6</ele>
        <time>2020-09-12T08:00:02Z</time>
      </trkpt>
      <trkpt lat="42.8648630" lon="-0.2619160">
        <ele>1682.8</ele>
        <time>2020-09-12T08:00:07Z</time>
      </trkpt>
      <trkpt lat="42.8647000" lon="-0.2618180">
        <ele>1682.8</ele>
        <time>2020-09-12T08:00:25Z</time>
      </trkpt>
      <trkpt lat="42.8646730" lon="-0.2617940">
        <ele>1682.8</ele>
        <time>2020-09-12T08:00:28Z</time>
      </trkpt>
      <trkpt lat="42.8646100" lon="-0.2617370">
        <ele>1682.8</ele>
        <time>2020-09-12T08:00:37Z</time>
      </trkpt>
      <trkpt lat="42.8645370" lon="-0.2616970">
        <ele>1682.6</ele>
        <time>2020-09-12T08:00:45Z</time>
      </trkpt>
      <trkpt lat="42.8645050" lon="-0.2616700">
        <ele>1682.6</ele>
        <time>2020-09-12T08:00:48Z</time>
      </trkpt>
      <trkpt lat="42.8643370" lon="-0.2615800">
        <ele>1682.6</ele>
        <time>2020-09-12T08:01:04Z</time>
      </trkpt>
      <trkpt lat="42.8643230" lon="-0.2615490">
        <ele>1682.8</ele>
        <time>2020-09-12T08:01:07Z</time>
      </trkpt>
      <trkpt lat="42.8642980" lon="-0.2614900">
        <ele>1683.0</ele>
        <time>2020-09-12T08:01:11Z</time>
      </trkpt>
      <trkpt lat="42.8642710" lon="-0.2614400">
        <ele>1683.0</ele>
        <time>2020-09-12T08:01:16Z</time>
      </trkpt>
      <trkpt lat="42.8642500" lon="-0.2614110">
        <ele>1683.2</ele>
        <time>2020-09-12T08:01:19Z</time>
      </trkpt>
      <trkpt lat="42.8642100" lon="-0.2613610">
        <ele>1683.2</ele>
        <time>2020-09-12T08:01:24Z</time>
      </trkpt>
      <trkpt lat="42.8641710" lon="-0.2613340">
        <ele>1683.0</ele>
        <time>2020-09-12T08:01:27Z</time>
      </trkpt>
      <trkpt lat="42.8640090" lon="-0.2612200">
        <ele>1682.2</ele>
        <time>2020-09-12T08:01:40Z</time>
      </trkpt>
      <trkpt lat="42.8639100" lon="-0.2611810">
        <ele>1681.6</ele>
        <time>2020-09-12T08:01:47Z</time>
      </trkpt>
      <trkpt lat="42.8638510" lon="-0.2611220">
        <ele>1681.4</ele>
        <time>2020-09-12T08:01:53Z</time>
      </trkpt>
      <trkpt lat="42.8638010" lon="-0.2610510">
        <ele>1681.2</ele>
        <time>2020-09-12T08:02:00Z</time>
      </trkpt>
      <trkpt lat="42.8637950" lon="-0.2610460">
        <ele>1681.2</ele>
        <time>2020-09-12T08:02:01Z</time>
      </trkpt>
      <trkpt lat="42.8636240" lon="-0.2609740">
        <ele>1680.6</ele>
        <time>2020-09-12T08:02:18Z</time>
      </trkpt>
      <trkpt lat="42.8636070" lon="-0.2609630">
        <ele>1680.4</ele>
        <time>2020-09-12T08:02:21Z</time>
      </trkpt>
      <trkpt lat="42.8635950" lon="-0.2609560">
        <ele>1680.2</ele>
        <time>2020-09-12T08:02:23Z</time>
      </trkpt>
      <trkpt lat="42.8635700" lon="-0.2609450">
        <ele>1680.0</ele>
        <time>2020-09-12T08:02:26Z</time>
      </trkpt>
      <trkpt lat="42.8635390" lon="-0.2609310">
        <ele>1679.8</ele>
        <time>2020-09-12T08:02:29Z</time>
      </trkpt>
      <trkpt lat="42.8634870" lon="-0.2609080">
        <ele>1679.8</ele>
        <time>2020-09-12T08:02:34Z</time>
      </trkpt>
      <trkpt lat="42.8634420" lon="-0.2608790">
        <ele>1680.4</ele>
        <time>2020-09-12T08:02:40Z</time>
      </trkpt>
      <trkpt lat="42.8634340" lon="-0.2608750">
        <ele>1680.6</ele>
        <time>2020-09-12T08:02:42Z</time>
      </trkpt>
      <trkpt lat="42.8633940" lon="-0.2608780">
        <ele>1680.6</ele>
        <time>2020-09-12T08:02:46Z</time>
      </trkpt>
      <trkpt lat="42.8633190" lon="-0.2608670">
        <ele>1681.2</ele>
        <time>2020-09-12T08:02:53Z</time>
      </trkpt>
      <trkpt lat="42.8631970" lon="-0.2608240">
        <ele>1681.8</ele>
        <time>2020-09-12T08:03:03Z</time>
      </trkpt>
      <trkpt lat="42.8631660" lon="-0.2608200">
        <ele>1682.0</ele>
        <time>2020-09-12T08:03:06Z</time>
      </trkpt>
      <trkpt lat="42.8631470" lon="-0.2608130">
        <ele>1682.2</ele>
        <time>2020-09-12T08:03:08Z</time>
      </trkpt>
      <trkpt lat="42.8631250" lon="-0.2607990">
        <ele>1682.4</ele>
        <time>2020-09-12T08:03:11Z</time>
      </trkpt>
      <trkpt lat="42.8630910" lon="-0.2607850">
        <ele>1683.0</ele>
        <time>2020-09-12T08:03:16Z</time>
      </trkpt>
      <trkpt lat="42.8630800" lon="-0.2607640">
        <ele>1683.2</ele>
        <time>2020-09-12T08:03:18Z</time>
      </trkpt>
      <trkpt lat="42.8630620" lon="-0.2607270">
        <ele>1683.2</ele>
        <time>2020-09-12T08:03:22Z</time>
      </trkpt>
      <trkpt lat="42.8630410" lon="-0.2606890">
        <ele>1683.6</ele>
        <time>2020-09-12T08:03:27Z</time>
      </trkpt>
      <trkpt lat="42.8629860" lon="-0.2606490">
        <ele>1683.8</ele>
        <time>2020-09-12T08:03:34Z</time>
      </trkpt>
      <trkpt lat="42.8629670" lon="-0.2606320">
        <ele>1684.0</ele>
        <time>2020-09-12T08:03:36Z</time>
      </trkpt>
      <trkpt lat="42.8629360" lon="-0.2606090">
        <ele>1684.0</ele>
        <time>2020-09-12T08:03:40Z</time>
      </trkpt>
      <trkpt lat="42.8628850" lon="-0.2605770">
        <ele>1684.0</ele>
        <time>2020-09-12T08:03:45Z</time>
      </trkpt>
      <trkpt lat="42.8628280" lon="-0.2605650">
        <ele>1684.2</ele>
        <time>2020-09-12T08:03:50Z</time>
      </trkpt>
      <trkpt lat="42.8627950" lon="-0.2605520">
        <ele>1684.4</ele>
        <time>2020-09-12T08:03:53Z</time>
      </trkpt>
      <trkpt lat="42.8627780" lon="-0.2605440">
        <ele>1684.6</ele>
        <time>2020-09-12T08:03:55Z</time>
      </trkpt>
      <trkpt lat="42.8626300" lon="-0.2605060">
        <ele>1685.2</ele>
        <time>2020-09-12T08:04:08Z</time>
      </trkpt>
      <trkpt lat="42.8626080" lon="-0.2605040">
        <ele>1685.2</ele>
        <time>2020-09-12T08:04:10Z</time>
      </trkpt>
      <trkpt lat="42.8625770" lon="-0.2605030">
        <ele>1685.4</ele>
        <time>2020-09-12T08:04:12Z</time>
      </trkpt>
      <trkpt lat="42.8624820" lon="-0.2604680">
        <ele>1685.4</ele>
        <time>2020-09-12T08:04:20Z</time>
      </trkpt>
      <trkpt lat="42.8623960" lon="-0.2604300">
        <ele>1686.0</ele>
        <time>2020-09-12T08:04:29Z</time>
      </trkpt>
      <trkpt lat="42.8623770" lon="-0.2604300">
        <ele>1686.2</ele>
        <time>2020-09-12T08:04:31Z</time>
      </trkpt>
      <trkpt lat="42.8623550" lon="-0.2604100">
        <ele>1686.4</ele>
        <time>2020-09-12T08:04:33Z</time>
      </trkpt>
      <trkpt lat="42.8622620" lon="-0.2603880">
        <ele>1687.2</ele>
        <time>2020-09-12T08:04:41Z</time>
      </trkpt>
      <trkpt lat="42.8622330" lon="-0.2603790">
        <ele>1687.4</ele>
        <time>2020-09-12T08:04:44Z</time>
      </trkpt>
      <trkpt lat="42.8622280" lon="-0.2603790">
        <ele>1687.6</ele>
        <time>2020-09-12T08:04:45Z</time>
      </trkpt>
      <trkpt lat="42.8622060" lon="-0.2603760">
        <ele>1687.6</ele>
        <time>2020-09-12T08:04:47Z</time>
      </trkpt>
      <trkpt lat="42.8621770" lon="-0.2603770">
        <ele>1687.8</ele>
        <time>2020-09-12T08:04:49Z</time>
      </trkpt>
      <trkpt lat="42.8621160" lon="-0.2603780">
        <ele>1688.6</ele>
        <time>2020-09-12T08:04:53Z</time>
      </trkpt>
      <trkpt lat="42.8620300" lon="-0.2603740">
        <ele>1689.6</ele>
        <time>2020-09-12T08:04:59Z</time>
      </trkpt>
      <trkpt lat="42.8619850" lon="-0.2603680">
        <ele>1690.2</ele>
        <time>2020-09-12T08:05:03Z</time>
      </trkpt>
      <trkpt lat="42.8619620" lon="-0.2603670">
        <ele>1690.4</ele>
        <time>2020-09-12T08:05:05Z</time>
      </trkpt>
      <trkpt lat="42.8619300" lon="-0.2603680">
        <ele>1690.8</ele>
        <time>2020-09-12T08:05:08Z</time>
      </trkpt>
      <trkpt lat="42.8619130" lon="-0.2603690">
        <ele>1691.0</ele>
        <time>2020-09-12T08:05:10Z</time>
      </trkpt>
      <trkpt lat="42.8618950" lon="-0.2603950">
        <ele>1691.4</ele>
        <time>2020-09-12T08:05:13Z</time>
      </trkpt>
      <trkpt lat="42.8618740" lon="-0.2603970">
        <ele>1691.8</ele>
        <time>2020-09-12T08:05:15Z</time>
      </trkpt>
      <trkpt lat="42.8618620" lon="-0.2603970">
        <ele>1691.8</ele>
        <time>2020-09-12T08:05:16Z</time>
      </trkpt>
      <trkpt lat="42.8618450" lon="-0.2604010">
        <ele>1692.4</ele>
        <time>2020-09-12T08:05:18Z</time>
      </trkpt>
      <trkpt lat="42.8618170" lon="-0.2603960">
        <ele>1692.8</ele>
        <time>2020-09-12T08:05:20Z</time>
      </trkpt>
      <trkpt lat="42.8616790" lon="-0.2603940">
        <ele>1694.0</ele>
        <time>2020-09-12T08:05:30Z</time>
      </trkpt>
      <trkpt lat="42.8616580" lon="-0.2604000">
        <ele>1694.2</ele>
        <time>2020-09-12T08:05:32Z</time>
      </trkpt>
      <trkpt lat="42.8615970" lon="-0.2604180">
        <ele>1695.0</ele>
        <time>2020-09-12T08:05:38Z</time>
      </trkpt>
      <trkpt lat="42.8615400" lon="-0.2604670">
        <ele>1696.2</ele>
        <time>2020-09-12T08:05:45Z</time>
      </trkpt>
      <trkpt lat="42.8614580" lon="-0.2605260">
        <ele>1697.2</ele>
        <time>2020-09-12T08:05:53Z</time>
      </trkpt>
      <trkpt lat="42.8613900" lon="-0.2605800">
        <ele>1698.2</ele>
        <time>2020-09-12T08:06:00Z</time>
      </trkpt>
      <trkpt lat="42.8613800" lon="-0.2605930">
        <ele>1698.2</ele>
        <time>2020-09-12T08:06:01Z</time>
      </trkpt>
      <trkpt lat="42.8613520" lon="-0.2606090">
        <ele>1698.4</ele>
        <time>2020-09-12T08:06:04Z</time>
      </trkpt>
      <trkpt lat="42.8613270" lon="-0.2606020">
        <ele>1698.8</ele>
        <time>2020-09-12T08:06:06Z</time>
      </trkpt>
      <trkpt lat="42.8612730" lon="-0.2606310">
        <ele>1699.4</ele>
        <time>2020-09-12T08:06:11Z</time>
      </trkpt>
      <trkpt lat="42.8611940" lon="-0.2606600">
        <ele>1700.4</ele>
        <time>2020-09-12T08:06:17Z</time>
      </trkpt>
      <trkpt lat="42.8611300" lon="-0.2607250">
        <ele>1701.0</ele>
        <time>2020-09-12T08:06:25Z</time>
      </trkpt>
      <trkpt lat="42.8610890" lon="-0.2607430">
        <ele>1701.4</ele>
        <time>2020-09-12T08:06:29Z</time>
      </trkpt>
      <trkpt lat="42.8610410" lon="-0.2607480">
        <ele>1702.4</ele>
        <time>2020-09-12T08:06:34Z</time>
      </trkpt>
      <trkpt lat="42.8610250" lon="-0.2607450">
        <ele>1702.6</ele>
        <time>2020-09-12T08:06:35Z</time>
      </trkpt>
      <trkpt lat="42.8609640" lon="-0.2607760">
        <ele>1703.2</ele>
        <time>2020-09-12T08:06:42Z</time>
      </trkpt>
      <trkpt lat="42.8609210" lon="-0.2607820">
        <ele>1703.8</ele>
        <time>2020-09-12T08:06:46Z</time>
      </trkpt>
      <trkpt lat="42.8608450" lon="-0.2607610">
        <ele>1704.8</ele>
        <time>2020-09-12T08:06:52Z</time>
      </trkpt>
      <trkpt lat="42.8608370" lon="-0.2607620">
        <ele>1704.8</ele>
        <time>2020-09-12T08:06:53Z</time>
      </trkpt>
      <trkpt lat="42.8608280" lon="-0.2607640">
        <ele>1704.8</ele>
        <time>2020-09-12T08:06:54Z</time>
      </trkpt>
      <trkpt lat="42.8607430" lon="-0.2607540">
        <ele>1705.8</ele>
        <time>2020-09-12T08:07:02Z</time>
      </trkpt>
      <trkpt lat="42.8605970" lon="-0.2607100">
        <ele>1706.4</ele>
        <time>2020-09-12T08:07:15Z</time>
      </trkpt>
      <trkpt lat="42.8604090" lon="-0.2606610">
        <ele>1705.6</ele>
        <time>2020-09-12T08:07:29Z</time>
      </trkpt>
      <trkpt lat="42.8602610" lon="-0.2605850">
        <ele>1704.8</ele>
        <time>2020-09-12T08:07:41Z</time>
      </trkpt>
      <trkpt lat="42.8601170" lon="-0.2605060">
        <ele>1704.8</ele>
        <time>2020-09-12T08:07:57Z</time>
      </trkpt>
      <trkpt lat="42.8600910" lon="-0.2604730">
        <ele>1705.0</ele>
        <time>2020-09-12T08:08:01Z</time>
      </trkpt>
      <trkpt lat="42.8600690" lon="-0.2604590">
        <ele>1705.0</ele>
        <time>2020-09-12T08:08:03Z</time>
      </trkpt>
      <trkpt lat="42.8600490" lon="-0.2604550">
        <ele>1705.2</ele>
        <time>2020-09-12T08:08:06Z</time>
      </trkpt>
      <trkpt lat="42.8600010" lon="-0.2604440">
        <ele>1705.0</ele>
        <time>2020-09-12T08:08:10Z</time>
      </trkpt>
      <trkpt lat="42.8599050" lon="-0.2603930">
        <ele>1705.0</ele>
        <time>2020-09-12T08:08:18Z</time>
      </trkpt>
      <trkpt lat="42.8598550" lon="-0.2604040">
        <ele>1705.2</ele>
        <time>2020-09-12T08:08:23Z</time>
      </trkpt>
      <trkpt lat="42.8596920" lon="-0.2603090">
        <ele>1705.2</ele>
        <time>2020-09-12T08:08:37Z</time>
      </trkpt>
      <trkpt lat="42.8596840" lon="-0.2603080">
        <ele>1705.2</ele>
        <time>2020-09-12T08:08:38Z</time>
      </trkpt>
      <trkpt lat="42.8595630" lon="-0.2602240">
        <ele>1705.4</ele>
        <time>2020-09-12T08:08:48Z</time>
      </trkpt>
      <trkpt lat="42.8593730" lon="-0.2601760">
        <ele>1705.0</ele>
        <time>2020-09-12T08:09:00Z</time>
      </trkpt>
      <trkpt lat="42.8592650" lon="-0.2601620">
        <ele>1705.0</ele>
        <time>2020-09-12T08:09:09Z</time>
      </trkpt>
      <trkpt lat="42.8592310" lon="-0.2601550">
        <ele>1705.0</ele>
        <time>2020-09-12T08:09:12Z</time>
      </trkpt>
      <trkpt lat="42.8591360" lon="-0.2601730">
        <ele>1705.2</ele>
        <time>2020-09-12T08:09:19Z</time>
      </trkpt>
      <trkpt lat="42.8590320" lon="-0.2601730">
        <ele>1705.6</ele>
        <time>2020-09-12T08:09:25Z</time>
      </trkpt>
      <trkpt lat="42.8589970" lon="-0.2601810">
        <ele>1705.8</ele>
        <time>2020-09-12T08:09:27Z</time>
      </trkpt>
      <trkpt lat="42.8588120" lon="-0.2601780">
        <ele>1706.0</ele>
        <time>2020-09-12T08:09:41Z</time>
      </trkpt>
      <trkpt lat="42.8587600" lon="-0.2601970">
        <ele>1706.4</ele>
        <time>2020-09-12T08:09:47Z</time>
      </trkpt>
      <trkpt lat="42.8587430" lon="-0.2602090">
        <ele>1706.8</ele>
        <time>2020-09-12T08:09:49Z</time>
      </trkpt>
      <trkpt lat="42.8587330" lon="-0.2602330">
        <ele>1707.0</ele>
        <time>2020-09-12T08:09:51Z</time>
      </trkpt>
      <trkpt lat="42.8587260" lon="-0.2602390">
        <ele>1707.2</ele>
        <time>2020-09-12T08:09:52Z</time>
      </trkpt>
      <trkpt lat="42.8586730" lon="-0.2602700">
        <ele>1707.6</ele>
        <time>2020-09-12T08:10:00Z</time>
      </trkpt>
      <trkpt lat="42.8585150" lon="-0.2603950">
        <ele>1707.0</ele>
        <time>2020-09-12T08:10:18Z</time>
      </trkpt>
      <trkpt lat="42.8583620" lon="-0.2605260">
        <ele>1707.8</ele>
        <time>2020-09-12T08:10:33Z</time>
      </trkpt>
      <trkpt lat="42.8582670" lon="-0.2605900">
        <ele>1708.0</ele>
        <time>2020-09-12T08:10:41Z</time>
      </trkpt>
      <trkpt lat="42.8581850" lon="-0.2606320">
        <ele>1708.4</ele>
        <time>2020-09-12T08:10:48Z</time>
      </trkpt>
      <trkpt lat="42.8580950" lon="-0.2606200">
        <ele>1709.0</ele>
        <time>2020-09-12T08:10:55Z</time>
      </trkpt>
      <trkpt lat="42.8580090" lon="-0.2606250">
        <ele>1709.2</ele>
        <time>2020-09-12T08:11:04Z</time>
      </trkpt>
      <trkpt lat="42.8579880" lon="-0.2606380">
        <ele>1709.4</ele>
        <time>2020-09-12T08:11:06Z</time>
      </trkpt>
      <trkpt lat="42.8579250" lon="-0.2606480">
        <ele>1710.2</ele>
        <time>2020-09-12T08:11:11Z</time>
      </trkpt>
      <trkpt lat="42.8579110" lon="-0.2606500">
        <ele>1710.2</ele>
        <time>2020-09-12T08:11:12Z</time>
      </trkpt>
      <trkpt lat="42.8578530" lon="-0.2606420">
        <ele>1711.2</ele>
        <time>2020-09-12T08:11:18Z</time>
      </trkpt>
      <trkpt lat="42.8578200" lon="-0.2606200">
        <ele>1711.6</ele>
        <time>2020-09-12T08:11:22Z</time>
      </trkpt>
      <trkpt lat="42.8577760" lon="-0.2605910">
        <ele>1711.6</ele>
        <time>2020-09-12T08:11:27Z</time>
      </trkpt>
      <trkpt lat="42.8577360" lon="-0.2605920">
        <ele>1712.0</ele>
        <time>2020-09-12T08:11:32Z</time>
      </trkpt>
      <trkpt lat="42.8576930" lon="-0.2605950">
        <ele>1712.2</ele>
        <time>2020-09-12T08:11:36Z</time>
      </trkpt>
      <trkpt lat="42.8576500" lon="-0.2605720">
        <ele>1712.8</ele>
        <time>2020-09-12T08:11:40Z</time>
      </trkpt>
      <trkpt lat="42.8576150" lon="-0.2605640">
        <ele>1713.4</ele>
        <time>2020-09-12T08:11:43Z</time>
      </trkpt>
      <trkpt lat="42.8575750" lon="-0.2605530">
        <ele>1713.6</ele>
        <time>2020-09-12T08:11:48Z</time>
      </trkpt>
      <trkpt lat="42.8575590" lon="-0.2605280">
        <ele>1714.0</ele>
        <time>2020-09-12T08:11:51Z</time>
      </trkpt>
      <trkpt lat="42.8575560" lon="-0.2605110">
        <ele>1714.2</ele>
        <time>2020-09-12T08:11:53Z</time>
      </trkpt>
      <trkpt lat="42.8575520" lon="-0.2604960">
        <ele>1714.4</ele>
        <time>2020-09-12T08:11:54Z</time>
      </trkpt>
      <trkpt lat="42.8575400" lon="-0.2604690">
        <ele>1714.4</ele>
        <time>2020-09-12T08:11:56Z</time>
      </trkpt>
      <trkpt lat="42.8574420" lon="-0.2604530">
        <ele>1714.4</ele>
        <time>2020-09-12T08:12:04Z</time>
      </trkpt>
      <trkpt lat="42.8574270" lon="-0.2604420">
        <ele>1714.4</ele>
        <time>2020-09-12T08:12:07Z</time>
      </trkpt>
      <trkpt lat="42.8573860" lon="-0.2604210">
        <ele>1715.4</ele>
        <time>2020-09-12T08:12:12Z</time>
      </trkpt>
      <trkpt lat="42.8573530" lon="-0.2604170">
        <ele>1715.8</ele>
        <time>2020-09-12T08:12:15Z</time>
      </trkpt>
      <trkpt lat="42.8573290" lon="-0.2604280">
        <ele>1715.8</ele>
        <time>2020-09-12T08:12:17Z</time>
      </trkpt>
      <trkpt lat="42.8572860" lon="-0.2604620">
        <ele>1715.4</ele>
        <time>2020-09-12T08:12:22Z</time>
      </trkpt>
      <trkpt lat="42.8572650" lon="-0.2604490">
        <ele>1715.8</ele>
        <time>2020-09-12T08:12:25Z</time>
      </trkpt>
      <trkpt lat="42.8572170" lon="-0.2604680">
        <ele>1716.2</ele>
        <time>2020-09-12T08:12:31Z</time>
      </trkpt>
      <trkpt lat="42.8571990" lon="-0.2604660">
        <ele>1716.4</ele>
        <time>2020-09-12T08:12:33Z</time>
      </trkpt>
      <trkpt lat="42.8571630" lon="-0.2604140">
        <ele>1717.0</ele>
        <time>2020-09-12T08:12:37Z</time>
      </trkpt>
      <trkpt lat="42.8571380" lon="-0.2603920">
        <ele>1717.2</ele>
        <time>2020-09-12T08:12:41Z</time>
      </trkpt>
      <trkpt lat="42.8571060" lon="-0.2603790">
        <ele>1717.4</ele>
        <time>2020-09-12T08:12:46Z</time>
      </trkpt>
      <trkpt lat="42.8570130" lon="-0.2604690">
        <ele>1717.8</ele>
        <time>2020-09-12T08:12:55Z</time>
      </trkpt>
      <trkpt lat="42.8569520" lon="-0.2604590">
        <ele>1718.4</ele>
        <time>2020-09-12T08:13:02Z</time>
      </trkpt>
      <trkpt lat="42.8569170" lon="-0.2604660">
        <ele>1718.6</ele>
        <time>2020-09-12T08:13:07Z</time>
      </trkpt>
      <trkpt lat="42.8569090" lon="-0.2604490">
        <ele>1718.6</ele>
        <time>2020-09-12T08:13:09Z</time>
      </trkpt>
      <trkpt lat="42.8568760" lon="-0.2604180">
        <ele>1719.6</ele>
        <time>2020-09-12T08:13:16Z</time>
      </trkpt>
      <trkpt lat="42.8568770" lon="-0.2604120">
        <ele>1719.8</ele>
        <time>2020-09-12T08:13:17Z</time>
      </trkpt>
      <trkpt lat="42.8568710" lon="-0.2603700">
        <ele>1720.8</ele>
        <time>2020-09-12T08:13:21Z</time>
      </trkpt>
      <trkpt lat="42.8568620" lon="-0.2603350">
        <ele>1721.4</ele>
        <time>2020-09-12T08:13:24Z</time>
      </trkpt>
      <trkpt lat="42.8568540" lon="-0.2603190">
        <ele>1721.4</ele>
        <time>2020-09-12T08:13:26Z</time>
      </trkpt>
      <trkpt lat="42.8568510" lon="-0.2602920">
        <ele>1721.4</ele>
        <time>2020-09-12T08:13:28Z</time>
      </trkpt>
      <trkpt lat="42.8568510" lon="-0.2602640">
        <ele>1721.6</ele>
        <time>2020-09-12T08:13:30Z</time>
      </trkpt>
      <trkpt lat="42.8568330" lon="-0.2602430">
        <ele>1722.0</ele>
        <time>2020-09-12T08:13:32Z</time>
      </trkpt>
      <trkpt lat="42.8567560" lon="-0.2601900">
        <ele>1723.0</ele>
        <time>2020-09-12T08:13:40Z</time>
      </trkpt>
      <trkpt lat="42.8567040" lon="-0.2601550">
        <ele>1724.0</ele>
        <time>2020-09-12T08:13:47Z</time>
      </trkpt>
      <trkpt lat="42.8566900" lon="-0.2601590">
        <ele>1724.0</ele>
        <time>2020-09-12T08:13:48Z</time>
      </trkpt>
      <trkpt lat="42.8566740" lon="-0.2601630">
        <ele>1724.2</ele>
        <time>2020-09-12T08:13:50Z</time>
      </trkpt>
      <trkpt lat="42.8566550" lon="-0.2599990">
        <ele>1725.0</ele>
        <time>2020-09-12T08:14:03Z</time>
      </trkpt>
      <trkpt lat="42.8565290" lon="-0.2599270">
        <ele>1726.2</ele>
        <time>2020-09-12T08:14:13Z</time>
      </trkpt>
      <trkpt lat="42.8564830" lon="-0.2599120">
        <ele>1726.6</ele>
        <time>2020-09-12T08:14:16Z</time>
      </trkpt>
      <trkpt lat="42.8563810" lon="-0.2598490">
        <ele>1727.2</ele>
        <time>2020-09-12T08:14:24Z</time>
      </trkpt>
      <trkpt lat="42.8563250" lon="-0.2598400">
        <ele>1727.4</ele>
        <time>2020-09-12T08:14:28Z</time>
      </trkpt>
      <trkpt lat="42.8561850" lon="-0.2599840">
        <ele>1728.2</ele>
        <time>2020-09-12T08:14:44Z</time>
      </trkpt>
      <trkpt lat="42.8561240" lon="-0.2600650">
        <ele>1729.0</ele>
        <time>2020-09-12T08:14:51Z</time>
      </trkpt>
      <trkpt lat="42.8560820" lon="-0.2600820">
        <ele>1729.4</ele>
        <time>2020-09-12T08:14:55Z</time>
      </trkpt>
      <trkpt lat="42.8559650" lon="-0.2600800">
        <ele>1730.4</ele>
        <time>2020-09-12T08:15:06Z</time>
      </trkpt>
      <trkpt lat="42.8558820" lon="-0.2600460">
        <ele>1731.4</ele>
        <time>2020-09-12T08:15:15Z</time>
      </trkpt>
      <trkpt lat="42.8558530" lon="-0.2599880">
        <ele>1731.6</ele>
        <time>2020-09-12T08:15:20Z</time>
      </trkpt>
      <trkpt lat="42.8558600" lon="-0.2599480">
        <ele>1732.2</ele>
        <time>2020-09-12T08:15:24Z</time>
      </trkpt>
      <trkpt lat="42.8558640" lon="-0.2599210">
        <ele>1732.6</ele>
        <time>2020-09-12T08:15:26Z</time>
      </trkpt>
      <trkpt lat="42.8558740" lon="-0.2598860">
        <ele>1733.0</ele>
        <time>2020-09-12T08:15:28Z</time>
      </trkpt>
      <trkpt lat="42.8558800" lon="-0.2598240">
        <ele>1733.6</ele>
        <time>2020-09-12T08:15:31Z</time>
      </trkpt>
      <trkpt lat="42.8558950" lon="-0.2596990">
        <ele>1734.2</ele>
        <time>2020-09-12T08:15:40Z</time>
      </trkpt>
      <trkpt lat="42.8558830" lon="-0.2596540">
        <ele>1734.2</ele>
        <time>2020-09-12T08:15:43Z</time>
      </trkpt>
      <trkpt lat="42.8558490" lon="-0.2595690">
        <ele>1734.2</ele>
        <time>2020-09-12T08:15:49Z</time>
      </trkpt>
      <trkpt lat="42.8558290" lon="-0.2594820">
        <ele>1734.8</ele>
        <time>2020-09-12T08:15:55Z</time>
      </trkpt>
      <trkpt lat="42.8557680" lon="-0.2594080">
        <ele>1736.0</ele>
        <time>2020-09-12T08:16:02Z</time>
      </trkpt>
      <trkpt lat="42.8557510" lon="-0.2593970">
        <ele>1736.6</ele>
        <time>2020-09-12T08:16:05Z</time>
      </trkpt>
      <trkpt lat="42.8557000" lon="-0.2593700">
        <ele>1737.0</ele>
        <time>2020-09-12T08:16:09Z</time>
      </trkpt>
      <trkpt lat="42.8556340" lon="-0.2593320">
        <ele>1738.0</ele>
        <time>2020-09-12T08:16:16Z</time>
      </trkpt>
      <trkpt lat="42.8556220" lon="-0.2593210">
        <ele>1738.4</ele>
        <time>2020-09-12T08:16:17Z</time>
      </trkpt>
      <trkpt lat="42.8555790" lon="-0.2593010">
        <ele>1739.0</ele>
        <time>2020-09-12T08:16:21Z</time>
      </trkpt>
      <trkpt lat="42.8555650" lon="-0.2592930">
        <ele>1739.4</ele>
        <time>2020-09-12T08:16:23Z</time>
      </trkpt>
      <trkpt lat="42.8555300" lon="-0.2592860">
        <ele>1740.4</ele>
        <time>2020-09-12T08:16:29Z</time>
      </trkpt>
      <trkpt lat="42.8554220" lon="-0.2592490">
        <ele>1741.6</ele>
        <time>2020-09-12T08:16:39Z</time>
      </trkpt>
      <trkpt lat="42.8553420" lon="-0.2592350">
        <ele>1742.6</ele>
        <time>2020-09-12T08:16:45Z</time>
      </trkpt>
      <trkpt lat="42.8552450" lon="-0.2591880">
        <ele>1743.8</ele>
        <time>2020-09-12T08:16:55Z</time>
      </trkpt>
      <trkpt lat="42.8552220" lon="-0.2591760">
        <ele>1744.8</ele>
        <time>2020-09-12T08:16:59Z</time>
      </trkpt>
      <trkpt lat="42.8552160" lon="-0.2591720">
        <ele>1745.2</ele>
        <time>2020-09-12T08:17:01Z</time>
      </trkpt>
      <trkpt lat="42.8552140" lon="-0.2591580">
        <ele>1745.4</ele>
        <time>2020-09-12T08:17:03Z</time>
      </trkpt>
      <trkpt lat="42.8551250" lon="-0.2591160">
        <ele>1746.0</ele>
        <time>2020-09-12T08:17:11Z</time>
      </trkpt>
      <trkpt lat="42.8550380" lon="-0.2590980">
        <ele>1747.0</ele>
        <time>2020-09-12T08:17:18Z</time>
      </trkpt>
      <trkpt lat="42.8550140" lon="-0.2590920">
        <ele>1747.2</ele>
        <time>2020-09-12T08:17:20Z</time>
      </trkpt>
      <trkpt lat="42.8549900" lon="-0.2590900">
        <ele>1747.8</ele>
        <time>2020-09-12T08:17:23Z</time>
      </trkpt>
      <trkpt lat="42.8549800" lon="-0.2590840">
        <ele>1748.0</ele>
        <time>2020-09-12T08:17:24Z</time>
      </trkpt>
      <trkpt lat="42.8549500" lon="-0.2590730">
        <ele>1748.4</ele>
        <time>2020-09-12T08:17:26Z</time>
      </trkpt>
      <trkpt lat="42.8549130" lon="-0.2590530">
        <ele>1749.0</ele>
        <time>2020-09-12T08:17:30Z</time>
      </trkpt>
      <trkpt lat="42.8548660" lon="-0.2590460">
        <ele>1750.0</ele>
        <time>2020-09-12T08:17:37Z</time>
      </trkpt>
      <trkpt lat="42.8548890" lon="-0.2590190">
        <ele>1751.0</ele>
        <time>2020-09-12T08:17:41Z</time>
      </trkpt>
      <trkpt lat="42.8549650" lon="-0.2589480">
        <ele>1752.2</ele>
        <time>2020-09-12T08:17:47Z</time>
      </trkpt>
      <trkpt lat="42.8549760" lon="-0.2589250">
        <ele>1752.6</ele>
        <time>2020-09-12T08:17:49Z</time>
      </trkpt>
      <trkpt lat="42.8550210" lon="-0.2588670">
        <ele>1753.4</ele>
        <time>2020-09-12T08:17:54Z</time>
      </trkpt>
      <trkpt lat="42.8550710" lon="-0.2588000">
        <ele>1754.4</ele>
        <time>2020-09-12T08:18:00Z</time>
      </trkpt>
      <trkpt lat="42.8551520" lon="-0.2587420">
        <ele>1755.6</ele>
        <time>2020-09-12T08:18:06Z</time>
      </trkpt>
      <trkpt lat="42.8552170" lon="-0.2586980">
        <ele>1756.6</ele>
        <time>2020-09-12T08:18:12Z</time>
      </trkpt>
      <trkpt lat="42.8552400" lon="-0.2586660">
        <ele>1757.6</ele>
        <time>2020-09-12T08:18:17Z</time>
      </trkpt>
      <trkpt lat="42.8552630" lon="-0.2586300">
        <ele>1758.4</ele>
        <time>2020-09-12T08:18:21Z</time>
      </trkpt>
      <trkpt lat="42.8552700" lon="-0.2586040">
        <ele>1758.8</ele>
        <time>2020-09-12T08:18:23Z</time>
      </trkpt>
      <trkpt lat="42.8552890" lon="-0.2585450">
        <ele>1759.8</ele>
        <time>2020-09-12T08:18:29Z</time>
      </trkpt>
      <trkpt lat="42.8552960" lon="-0.2585380">
        <ele>1760.0</ele>
        <time>2020-09-12T08:18:30Z</time>
      </trkpt>
      <trkpt lat="42.8552990" lon="-0.2585310">
        <ele>1760.4</ele>
        <time>2020-09-12T08:18:32Z</time>
      </trkpt>
      <trkpt lat="42.8553050" lon="-0.2585180">
        <ele>1760.8</ele>
        <time>2020-09-12T08:18:34Z</time>
      </trkpt>
      <trkpt lat="42.8553120" lon="-0.2585080">
        <ele>1761.0</ele>
        <time>2020-09-12T08:18:35Z</time>
      </trkpt>
      <trkpt lat="42.8553120" lon="-0.2584940">
        <ele>1761.2</ele>
        <time>2020-09-12T08:18:36Z</time>
      </trkpt>
      <trkpt lat="42.8553390" lon="-0.2584520">
        <ele>1761.4</ele>
        <time>2020-09-12T08:18:39Z</time>
      </trkpt>
      <trkpt lat="42.8553690" lon="-0.2583940">
        <ele>1762.0</ele>
        <time>2020-09-12T08:18:44Z</time>
      </trkpt>
      <trkpt lat="42.8554600" lon="-0.2583040">
        <ele>1763.0</ele>
        <time>2020-09-12T08:18:53Z</time>
      </trkpt>
      <trkpt lat="42.8555420" lon="-0.2582050">
        <ele>1764.0</ele>
        <time>2020-09-12T08:19:03Z</time>
      </trkpt>
      <trkpt lat="42.8555700" lon="-0.2581720">
        <ele>1764.2</ele>
        <time>2020-09-12T08:19:06Z</time>
      </trkpt>
      <trkpt lat="42.8555800" lon="-0.2581470">
        <ele>1764.2</ele>
        <time>2020-09-12T08:19:08Z</time>
      </trkpt>
      <trkpt lat="42.8555330" lon="-0.2581600">
        <ele>1764.6</ele>
        <time>2020-09-12T08:19:12Z</time>
      </trkpt>
      <trkpt lat="42.8554570" lon="-0.2581700">
        <ele>1765.0</ele>
        <time>2020-09-12T08:19:17Z</time>
      </trkpt>
      <trkpt lat="42.8553810" lon="-0.2581980">
        <ele>1766.2</ele>
        <time>2020-09-12T08:19:24Z</time>
      </trkpt>
      <trkpt lat="42.8553530" lon="-0.2582050">
        <ele>1766.8</ele>
        <time>2020-09-12T08:19:27Z</time>
      </trkpt>
      <trkpt lat="42.8553420" lon="-0.2582010">
        <ele>1767.2</ele>
        <time>2020-09-12T08:19:28Z</time>
      </trkpt>
      <trkpt lat="42.8553280" lon="-0.2581990">
        <ele>1767.4</ele>
        <time>2020-09-12T08:19:29Z</time>
      </trkpt>
      <trkpt lat="42.8552760" lon="-0.2582320">
        <ele>1768.0</ele>
        <time>2020-09-12T08:19:34Z</time>
      </trkpt>
      <trkpt lat="42.8552600" lon="-0.2582370">
        <ele>1768.2</ele>
        <time>2020-09-12T08:19:36Z</time>
      </trkpt>
      <trkpt lat="42.8552270" lon="-0.2582410">
        <ele>1768.8</ele>
        <time>2020-09-12T08:19:40Z</time>
      </trkpt>
      <trkpt lat="42.8552050" lon="-0.2582480">
        <ele>1769.4</ele>
        <time>2020-09-12T08:19:42Z</time>
      </trkpt>
      <trkpt lat="42.8551490" lon="-0.2582880">
        <ele>1770.4</ele>
        <time>2020-09-12T08:19:49Z</time>
      </trkpt>
      <trkpt lat="42.8550800" lon="-0.2582930">
        <ele>1771.6</ele>
        <time>2020-09-12T08:19:56Z</time>
      </trkpt>
      <trkpt lat="42.8550290" lon="-0.2582680">
        <ele>1772.8</ele>
        <time>2020-09-12T08:20:02Z</time>
      </trkpt>
      <trkpt lat="42.8550090" lon="-0.2582590">
        <ele>1773.4</ele>
        <time>2020-09-12T08:20:05Z</time>
      </trkpt>
      <trkpt lat="42.8550010" lon="-0.2582500">
        <ele>1773.8</ele>
        <time>2020-09-12T08:20:08Z</time>
      </trkpt>
      <trkpt lat="42.8549750" lon="-0.2582460">
        <ele>1774.6</ele>
        <time>2020-09-12T08:20:12Z</time>
      </trkpt>
      <trkpt lat="42.8549600" lon="-0.2582470">
        <ele>1774.8</ele>
        <time>2020-09-12T08:20:14Z</time>
      </trkpt>
      <trkpt lat="42.8549160" lon="-0.2582430">
        <ele>1776.0</ele>
        <time>2020-09-12T08:20:19Z</time>
      </trkpt>
      <trkpt lat="42.8549500" lon="-0.2581990">
        <ele>1777.0</ele>
        <time>2020-09-12T08:20:25Z</time>
      </trkpt>
      <trkpt lat="42.8550000" lon="-0.2581650">
        <ele>1777.8</ele>
        <time>2020-09-12T08:20:31Z</time>
      </trkpt>
      <trkpt lat="42.8550150" lon="-0.2581530">
        <ele>1778.2</ele>
        <time>2020-09-12T08:20:33Z</time>
      </trkpt>
      <trkpt lat="42.8550560" lon="-0.2581030">
        <ele>1779.4</ele>
        <time>2020-09-12T08:20:40Z</time>
      </trkpt>
      <trkpt lat="42.8549940" lon="-0.2580570">
        <ele>1780.4</ele>
        <time>2020-09-12T08:20:49Z</time>
      </trkpt>
      <trkpt lat="42.8548890" lon="-0.2580720">
        <ele>1781.4</ele>
        <time>2020-09-12T08:20:57Z</time>
      </trkpt>
      <trkpt lat="42.8547850" lon="-0.2580700">
        <ele>1782.6</ele>
        <time>2020-09-12T08:21:06Z</time>
      </trkpt>
      <trkpt lat="42.8547380" lon="-0.2580720">
        <ele>1783.6</ele>
        <time>2020-09-12T08:21:12Z</time>
      </trkpt>
      <trkpt lat="42.8547030" lon="-0.2580820">
        <ele>1784.0</ele>
        <time>2020-09-12T08:21:16Z</time>
      </trkpt>
      <trkpt lat="42.8546440" lon="-0.2581030">
        <ele>1784.6</ele>
        <time>2020-09-12T08:21:22Z</time>
      </trkpt>
      <trkpt lat="42.8545810" lon="-0.2581130">
        <ele>1785.8</ele>
        <time>2020-09-12T08:21:29Z</time>
      </trkpt>
      <trkpt lat="42.8545100" lon="-0.2581130">
        <ele>1786.8</ele>
        <time>2020-09-12T08:21:35Z</time>
      </trkpt>
      <trkpt lat="42.8544510" lon="-0.2581070">
        <ele>1788.0</ele>
        <time>2020-09-12T08:21:41Z</time>
      </trkpt>
      <trkpt lat="42.8544130" lon="-0.2581140">
        <ele>1789.2</ele>
        <time>2020-09-12T08:21:45Z</time>
      </trkpt>
      <trkpt lat="42.8542850" lon="-0.2580970">
        <ele>1790.2</ele>
        <time>2020-09-12T08:21:56Z</time>
      </trkpt>
      <trkpt lat="42.8542190" lon="-0.2581040">
        <ele>1791.2</ele>
        <time>2020-09-12T08:22:03Z</time>
      </trkpt>
      <trkpt lat="42.8541950" lon="-0.2581040">
        <ele>1791.8</ele>
        <time>2020-09-12T08:22:06Z</time>
      </trkpt>
      <trkpt lat="42.8541780" lon="-0.2581090">
        <ele>1792.4</ele>
        <time>2020-09-12T08:22:08Z</time>
      </trkpt>
      <trkpt lat="42.8541160" lon="-0.2580930">
        <ele>1793.6</ele>
        <time>2020-09-12T08:22:14Z</time>
      </trkpt>
      <trkpt lat="42.8541070" lon="-0.2580930">
        <ele>1794.0</ele>
        <time>2020-09-12T08:22:15Z</time>
      </trkpt>
      <trkpt lat="42.8540630" lon="-0.2581160">
        <ele>1794.8</ele>
        <time>2020-09-12T08:22:20Z</time>
      </trkpt>
      <trkpt lat="42.8540380" lon="-0.2581220">
        <ele>1795.2</ele>
        <time>2020-09-12T08:22:23Z</time>
      </trkpt>
      <trkpt lat="42.8540210" lon="-0.2581270">
        <ele>1795.8</ele>
        <time>2020-09-12T08:22:25Z</time>
      </trkpt>
      <trkpt lat="42.8540000" lon="-0.2581440">
        <ele>1797.0</ele>
        <time>2020-09-12T08:22:28Z</time>
      </trkpt>
      <trkpt lat="42.8539470" lon="-0.2581710">
        <ele>1797.4</ele>
        <time>2020-09-12T08:22:35Z</time>
      </trkpt>
      <trkpt lat="42.8539480" lon="-0.2581490">
        <ele>1798.2</ele>
        <time>2020-09-12T08:22:39Z</time>
      </trkpt>
      <trkpt lat="42.8539610" lon="-0.2581320">
        <ele>1798.6</ele>
        <time>2020-09-12T08:22:41Z</time>
      </trkpt>
      <trkpt lat="42.8539710" lon="-0.2581170">
        <ele>1799.2</ele>
        <time>2020-09-12T08:22:43Z</time>
      </trkpt>
      <trkpt lat="42.8539760" lon="-0.2581090">
        <ele>1799.4</ele>
        <time>2020-09-12T08:22:44Z</time>
      </trkpt>
      <trkpt lat="42.8540090" lon="-0.2580650">
        <ele>1800.6</ele>
        <time>2020-09-12T08:22:49Z</time>
      </trkpt>
      <trkpt lat="42.8540250" lon="-0.2580220">
        <ele>1801.2</ele>
        <time>2020-09-12T08:22:54Z</time>
      </trkpt>
      <trkpt lat="42.8540430" lon="-0.2579950">
        <ele>1801.6</ele>
        <time>2020-09-12T08:22:57Z</time>
      </trkpt>
      <trkpt lat="42.8540990" lon="-0.2579300">
        <ele>1802.6</ele>
        <time>2020-09-12T08:23:03Z</time>
      </trkpt>
      <trkpt lat="42.8541700" lon="-0.2578280">
        <ele>1803.4</ele>
        <time>2020-09-12T08:23:14Z</time>
      </trkpt>
      <trkpt lat="42.8541800" lon="-0.2578200">
        <ele>1803.6</ele>
        <time>2020-09-12T08:23:15Z</time>
      </trkpt>
      <trkpt lat="42.8542040" lon="-0.2578020">
        <ele>1804.0</ele>
        <time>2020-09-12T08:23:17Z</time>
      </trkpt>
      <trkpt lat="42.8542340" lon="-0.2577770">
        <ele>1804.6</ele>
        <time>2020-09-12T08:23:20Z</time>
      </trkpt>
      <trkpt lat="42.8542470" lon="-0.2577730">
        <ele>1804.6</ele>
        <time>2020-09-12T08:23:21Z</time>
      </trkpt>
      <trkpt lat="42.8543160" lon="-0.2577390">
        <ele>1805.8</ele>
        <time>2020-09-12T08:23:29Z</time>
      </trkpt>
      <trkpt lat="42.8544210" lon="-0.2577020">
        <ele>1806.8</ele>
        <time>2020-09-12T08:23:36Z</time>
      </trkpt>
      <trkpt lat="42.8544620" lon="-0.2576550">
        <ele>1807.4</ele>
        <time>2020-09-12T08:23:41Z</time>
      </trkpt>
      <trkpt lat="42.8544340" lon="-0.2576440">
        <ele>1807.8</ele>
        <time>2020-09-12T08:23:44Z</time>
      </trkpt>
      <trkpt lat="42.8543690" lon="-0.2576290">
        <ele>1808.8</ele>
        <time>2020-09-12T08:23:51Z</time>
      </trkpt>
      <trkpt lat="42.8543620" lon="-0.2576280">
        <ele>1809.0</ele>
        <time>2020-09-12T08:23:52Z</time>
      </trkpt>
      <trkpt lat="42.8543150" lon="-0.2576010">
        <ele>1810.4</ele>
        <time>2020-09-12T08:23:58Z</time>
      </trkpt>
      <trkpt lat="42.8543070" lon="-0.2575990">
        <ele>1810.6</ele>
        <time>2020-09-12T08:23:59Z</time>
      </trkpt>
      <trkpt lat="42.8542530" lon="-0.2575900">
        <ele>1811.4</ele>
        <time>2020-09-12T08:24:05Z</time>
      </trkpt>
      <trkpt lat="42.8542170" lon="-0.2575990">
        <ele>1812.0</ele>
        <time>2020-09-12T08:24:08Z</time>
      </trkpt>
      <trkpt lat="42.8541660" lon="-0.2576170">
        <ele>1812.6</ele>
        <time>2020-09-12T08:24:12Z</time>
      </trkpt>
      <trkpt lat="42.8540640" lon="-0.2576860">
        <ele>1813.6</ele>
        <time>2020-09-12T08:24:23Z</time>
      </trkpt>
      <trkpt lat="42.8539700" lon="-0.2577000">
        <ele>1814.8</ele>
        <time>2020-09-12T08:24:31Z</time>
      </trkpt>
      <trkpt lat="42.8539400" lon="-0.2576900">
        <ele>1815.2</ele>
        <time>2020-09-12T08:24:34Z</time>
      </trkpt>
      <trkpt lat="42.8538720" lon="-0.2577070">
        <ele>1815.8</ele>
        <time>2020-09-12T08:24:41Z</time>
      </trkpt>
      <trkpt lat="42.8538500" lon="-0.2577250">
        <ele>1816.8</ele>
        <time>2020-09-12T08:24:45Z</time>
      </trkpt>
      <trkpt lat="42.8538480" lon="-0.2577230">
        <ele>1817.4</ele>
        <time>2020-09-12T08:24:48Z</time>
      </trkpt>
      <trkpt lat="42.8538330" lon="-0.2577000">
        <ele>1818.0</ele>
        <time>2020-09-12T08:24:57Z</time>
      </trkpt>
      <trkpt lat="42.8538500" lon="-0.2576900">
        <ele>1818.6</ele>
        <time>2020-09-12T08:24:59Z</time>
      </trkpt>
      <trkpt lat="42.8538810" lon="-0.2576650">
        <ele>1819.0</ele>
        <time>2020-09-12T08:25:02Z</time>
      </trkpt>
      <trkpt lat="42.8539520" lon="-0.2576120">
        <ele>1820.2</ele>
        <time>2020-09-12T08:25:09Z</time>
      </trkpt>
      <trkpt lat="42.8539980" lon="-0.2575880">
        <ele>1820.8</ele>
        <time>2020-09-12T08:25:12Z</time>
      </trkpt>
      <trkpt lat="42.8540130" lon="-0.2575630">
        <ele>1821.4</ele>
        <time>2020-09-12T08:25:15Z</time>
      </trkpt>
      <trkpt lat="42.8540600" lon="-0.2575010">
        <ele>1822.4</ele>
        <time>2020-09-12T08:25:22Z</time>
      </trkpt>
      <trkpt lat="42.8541310" lon="-0.2573990">
        <ele>1823.4</ele>
        <time>2020-09-12T08:25:31Z</time>
      </trkpt>
      <trkpt lat="42.8542120" lon="-0.2573300">
        <ele>1824.6</ele>
        <time>2020-09-12T08:25:41Z</time>
      </trkpt>
      <trkpt lat="42.8543550" lon="-0.2572920">
        <ele>1825.8</ele>
        <time>2020-09-12T08:25:51Z</time>
      </trkpt>
      <trkpt lat="42.8543840" lon="-0.2572720">
        <ele>1826.2</ele>
        <time>2020-09-12T08:25:55Z</time>
      </trkpt>
      <trkpt lat="42.8544090" lon="-0.2572470">
        <ele>1826.6</ele>
        <time>2020-09-12T08:25:58Z</time>
      </trkpt>
      <trkpt lat="42.8544000" lon="-0.2572380">
        <ele>1826.8</ele>
        <time>2020-09-12T08:25:59Z</time>
      </trkpt>
      <trkpt lat="42.8543550" lon="-0.2572240">
        <ele>1827.4</ele>
        <time>2020-09-12T08:26:03Z</time>
      </trkpt>
      <trkpt lat="42.8543220" lon="-0.2572170">
        <ele>1828.0</ele>
        <time>2020-09-12T08:26:06Z</time>
      </trkpt>
      <trkpt lat="42.8542710" lon="-0.2571970">
        <ele>1828.8</ele>
        <time>2020-09-12T08:26:11Z</time>
      </trkpt>
      <trkpt lat="42.8542570" lon="-0.2571940">
        <ele>1829.0</ele>
        <time>2020-09-12T08:26:12Z</time>
      </trkpt>
      <trkpt lat="42.8541990" lon="-0.2571740">
        <ele>1830.2</ele>
        <time>2020-09-12T08:26:17Z</time>
      </trkpt>
      <trkpt lat="42.8541000" lon="-0.2572340">
        <ele>1830.8</ele>
        <time>2020-09-12T08:26:27Z</time>
      </trkpt>
      <trkpt lat="42.8540620" lon="-0.2572460">
        <ele>1831.2</ele>
        <time>2020-09-12T08:26:31Z</time>
      </trkpt>
      <trkpt lat="42.8540310" lon="-0.2572500">
        <ele>1831.6</ele>
        <time>2020-09-12T08:26:34Z</time>
      </trkpt>
      <trkpt lat="42.8540110" lon="-0.2572710">
        <ele>1832.2</ele>
        <time>2020-09-12T08:26:37Z</time>
      </trkpt>
      <trkpt lat="42.8539250" lon="-0.2573070">
        <ele>1833.2</ele>
        <time>2020-09-12T08:26:47Z</time>
      </trkpt>
      <trkpt lat="42.8538970" lon="-0.2573170">
        <ele>1833.8</ele>
        <time>2020-09-12T08:26:50Z</time>
      </trkpt>
      <trkpt lat="42.8538790" lon="-0.2573200">
        <ele>1834.2</ele>
        <time>2020-09-12T08:26:52Z</time>
      </trkpt>
      <trkpt lat="42.8538490" lon="-0.2573290">
        <ele>1834.8</ele>
        <time>2020-09-12T08:26:56Z</time>
      </trkpt>
      <trkpt lat="42.8538230" lon="-0.2573200">
        <ele>1835.0</ele>
        <time>2020-09-12T08:26:59Z</time>
      </trkpt>
      <trkpt lat="42.8538150" lon="-0.2573150">
        <ele>1835.4</ele>
        <time>2020-09-12T08:27:01Z</time>
      </trkpt>
      <trkpt lat="42.8538170" lon="-0.2573050">
        <ele>1835.8</ele>
        <time>2020-09-12T08:27:03Z</time>
      </trkpt>
      <trkpt lat="42.8538560" lon="-0.2572870">
        <ele>1836.6</ele>
        <time>2020-09-12T08:27:08Z</time>
      </trkpt>
      <trkpt lat="42.8538990" lon="-0.2572430">
        <ele>1837.6</ele>
        <time>2020-09-12T08:27:14Z</time>
      </trkpt>
      <trkpt lat="42.8539270" lon="-0.2572280">
        <ele>1838.4</ele>
        <time>2020-09-12T08:27:17Z</time>
      </trkpt>
      <trkpt lat="42.8539360" lon="-0.2572110">
        <ele>1838.6</ele>
        <time>2020-09-12T08:27:19Z</time>
      </trkpt>
      <trkpt lat="42.8539860" lon="-0.2571500">
        <ele>1839.8</ele>
        <time>2020-09-12T08:27:26Z</time>
      </trkpt>
      <trkpt lat="42.8540490" lon="-0.2570920">
        <ele>1840.8</ele>
        <time>2020-09-12T08:27:33Z</time>
      </trkpt>
      <trkpt lat="42.8540740" lon="-0.2570360">
        <ele>1842.0</ele>
        <time>2020-09-12T08:27:41Z</time>
      </trkpt>
      <trkpt lat="42.8540860" lon="-0.2570070">
        <ele>1842.8</ele>
        <time>2020-09-12T08:27:45Z</time>
      </trkpt>
      <trkpt lat="42.8541040" lon="-0.2569890">
        <ele>1843.0</ele>
        <time>2020-09-12T08:27:47Z</time>
      </trkpt>
      <trkpt lat="42.8541150" lon="-0.2569220">
        <ele>1844.2</ele>
        <time>2020-09-12T08:27:53Z</time>
      </trkpt>
      <trkpt lat="42.8541180" lon="-0.2569140">
        <ele>1844.4</ele>
        <time>2020-09-12T08:27:54Z</time>
      </trkpt>
      <trkpt lat="42.8541790" lon="-0.2568780">
        <ele>1845.2</ele>
        <time>2020-09-12T08:28:00Z</time>
      </trkpt>
      <trkpt lat="42.8542350" lon="-0.2568340">
        <ele>1846.2</ele>
        <time>2020-09-12T08:28:07Z</time>
      </trkpt>
      <trkpt lat="42.8542480" lon="-0.2568280">
        <ele>1846.8</ele>
        <time>2020-09-12T08:28:09Z</time>
      </trkpt>
      <trkpt lat="42.8542690" lon="-0.2568110">
        <ele>1847.4</ele>
        <time>2020-09-12T08:28:12Z</time>
      </trkpt>
      <trkpt lat="42.8541840" lon="-0.2568110">
        <ele>1848.4</ele>
        <time>2020-09-12T08:28:23Z</time>
      </trkpt>
      <trkpt lat="42.8541210" lon="-0.2568600">
        <ele>1849.6</ele>
        <time>2020-09-12T08:28:30Z</time>
      </trkpt>
      <trkpt lat="42.8540500" lon="-0.2569070">
        <ele>1849.8</ele>
        <time>2020-09-12T08:28:35Z</time>
      </trkpt>
      <trkpt lat="42.8539520" lon="-0.2569330">
        <ele>1850.8</ele>
        <time>2020-09-12T08:28:46Z</time>
      </trkpt>
      <trkpt lat="42.8539020" lon="-0.2569490">
        <ele>1851.8</ele>
        <time>2020-09-12T08:28:51Z</time>
      </trkpt>
      <trkpt lat="42.8537820" lon="-0.2569720">
        <ele>1853.0</ele>
        <time>2020-09-12T08:29:04Z</time>
      </trkpt>
      <trkpt lat="42.8537460" lon="-0.2569690">
        <ele>1853.6</ele>
        <time>2020-09-12T08:29:08Z</time>
      </trkpt>
      <trkpt lat="42.8537030" lon="-0.2569680">
        <ele>1854.2</ele>
        <time>2020-09-12T08:29:12Z</time>
      </trkpt>
      <trkpt lat="42.8536300" lon="-0.2569550">
        <ele>1855.2</ele>
        <time>2020-09-12T08:29:19Z</time>
      </trkpt>
      <trkpt lat="42.8535990" lon="-0.2569570">
        <ele>1856.0</ele>
        <time>2020-09-12T08:29:23Z</time>
      </trkpt>
      <trkpt lat="42.8535780" lon="-0.2569270">
        <ele>1856.4</ele>
        <time>2020-09-12T08:29:26Z</time>
      </trkpt>
      <trkpt lat="42.8535690" lon="-0.2569110">
        <ele>1856.8</ele>
        <time>2020-09-12T08:29:27Z</time>
      </trkpt>
      <trkpt lat="42.8535570" lon="-0.2568940">
        <ele>1857.2</ele>
        <time>2020-09-12T08:29:29Z</time>
      </trkpt>
      <trkpt lat="42.8535510" lon="-0.2568760">
        <ele>1857.4</ele>
        <time>2020-09-12T08:29:31Z</time>
      </trkpt>
      <trkpt lat="42.8535450" lon="-0.2568660">
        <ele>1857.8</ele>
        <time>2020-09-12T08:29:33Z</time>
      </trkpt>
      <trkpt lat="42.8535310" lon="-0.2568510">
        <ele>1858.6</ele>
        <time>2020-09-12T08:29:37Z</time>
      </trkpt>
      <trkpt lat="42.8534500" lon="-0.2568830">
        <ele>1859.6</ele>
        <time>2020-09-12T08:29:45Z</time>
      </trkpt>
      <trkpt lat="42.8533950" lon="-0.2568620">
        <ele>1860.6</ele>
        <time>2020-09-12T08:29:51Z</time>
      </trkpt>
      <trkpt lat="42.8533890" lon="-0.2568620">
        <ele>1860.8</ele>
        <time>2020-09-12T08:29:52Z</time>
      </trkpt>
      <trkpt lat="42.8533570" lon="-0.2568510">
        <ele>1861.8</ele>
        <time>2020-09-12T08:29:57Z</time>
      </trkpt>
      <trkpt lat="42.8533350" lon="-0.2568280">
        <ele>1862.8</ele>
        <time>2020-09-12T08:30:02Z</time>
      </trkpt>
      <trkpt lat="42.8532980" lon="-0.2568060">
        <ele>1864.0</ele>
        <time>2020-09-12T08:30:07Z</time>
      </trkpt>
      <trkpt lat="42.8532510" lon="-0.2567850">
        <ele>1865.2</ele>
        <time>2020-09-12T08:30:12Z</time>
      </trkpt>
      <trkpt lat="42.8532420" lon="-0.2567820">
        <ele>1865.4</ele>
        <time>2020-09-12T08:30:13Z</time>
      </trkpt>
      <trkpt lat="42.8531870" lon="-0.2567670">
        <ele>1866.2</ele>
        <time>2020-09-12T08:30:18Z</time>
      </trkpt>
      <trkpt lat="42.8531020" lon="-0.2567940">
        <ele>1867.4</ele>
        <time>2020-09-12T08:30:26Z</time>
      </trkpt>
      <trkpt lat="42.8530810" lon="-0.2568070">
        <ele>1867.6</ele>
        <time>2020-09-12T08:30:28Z</time>
      </trkpt>
      <trkpt lat="42.8530060" lon="-0.2568320">
        <ele>1868.4</ele>
        <time>2020-09-12T08:30:35Z</time>
      </trkpt>
      <trkpt lat="42.8529660" lon="-0.2568540">
        <ele>1869.2</ele>
        <time>2020-09-12T08:30:40Z</time>
      </trkpt>
      <trkpt lat="42.8529490" lon="-0.2568660">
        <ele>1869.4</ele>
        <time>2020-09-12T08:30:43Z</time>
      </trkpt>
      <trkpt lat="42.8529330" lon="-0.2568670">
        <ele>1869.4</ele>
        <time>2020-09-12T08:30:45Z</time>
      </trkpt>
      <trkpt lat="42.8529260" lon="-0.2568630">
        <ele>1869.8</ele>
        <time>2020-09-12T08:30:47Z</time>
      </trkpt>
      <trkpt lat="42.8529280" lon="-0.2568660">
        <ele>1870.6</ele>
        <time>2020-09-12T08:30:50Z</time>
      </trkpt>
      <trkpt lat="42.8529170" lon="-0.2568810">
        <ele>1871.0</ele>
        <time>2020-09-12T08:30:54Z</time>
      </trkpt>
      <trkpt lat="42.8529700" lon="-0.2568690">
        <ele>1870.6</ele>
        <time>2020-09-12T08:31:46Z</time>
      </trkpt>
      <trkpt lat="42.8530310" lon="-0.2567880">
        <ele>1871.8</ele>
        <time>2020-09-12T08:32:41Z</time>
      </trkpt>
      <trkpt lat="42.8530740" lon="-0.2567350">
        <ele>1872.8</ele>
        <time>2020-09-12T08:32:46Z</time>
      </trkpt>
      <trkpt lat="42.8531640" lon="-0.2566600">
        <ele>1873.8</ele>
        <time>2020-09-12T08:32:56Z</time>
      </trkpt>
      <trkpt lat="42.8533100" lon="-0.2566340">
        <ele>1875.0</ele>
        <time>2020-09-12T08:33:06Z</time>
      </trkpt>
      <trkpt lat="42.8533610" lon="-0.2566090">
        <ele>1876.0</ele>
        <time>2020-09-12T08:33:13Z</time>
      </trkpt>
      <trkpt lat="42.8534370" lon="-0.2565970">
        <ele>1877.0</ele>
        <time>2020-09-12T08:33:20Z</time>
      </trkpt>
      <trkpt lat="42.8534520" lon="-0.2565850">
        <ele>1877.2</ele>
        <time>2020-09-12T08:33:22Z</time>
      </trkpt>
      <trkpt lat="42.8533890" lon="-0.2565440">
        <ele>1878.2</ele>
        <time>2020-09-12T08:33:28Z</time>
      </trkpt>
      <trkpt lat="42.8533030" lon="-0.2565220">
        <ele>1879.2</ele>
        <time>2020-09-12T08:33:36Z</time>
      </trkpt>
      <trkpt lat="42.8532560" lon="-0.2565050">
        <ele>1880.4</ele>
        <time>2020-09-12T08:33:41Z</time>
      </trkpt>
      <trkpt lat="42.8531770" lon="-0.2564850">
        <ele>1881.4</ele>
        <time>2020-09-12T08:33:49Z</time>
      </trkpt>
      <trkpt lat="42.8531150" lon="-0.2565050">
        <ele>1882.6</ele>
        <time>2020-09-12T08:33:55Z</time>
      </trkpt>
      <trkpt lat="42.8529960" lon="-0.2565310">
        <ele>1883.6</ele>
        <time>2020-09-12T08:34:04Z</time>
      </trkpt>
      <trkpt lat="42.8529730" lon="-0.2565340">
        <ele>1883.8</ele>
        <time>2020-09-12T08:34:06Z</time>
      </trkpt>
      <trkpt lat="42.8529120" lon="-0.2565670">
        <ele>1884.8</ele>
        <time>2020-09-12T08:34:12Z</time>
      </trkpt>
      <trkpt lat="42.8528320" lon="-0.2565910">
        <ele>1886.0</ele>
        <time>2020-09-12T08:34:21Z</time>
      </trkpt>
      <trkpt lat="42.8527430" lon="-0.2565740">
        <ele>1887.0</ele>
        <time>2020-09-12T08:34:30Z</time>
      </trkpt>
      <trkpt lat="42.8526500" lon="-0.2565890">
        <ele>1888.0</ele>
        <time>2020-09-12T08:34:38Z</time>
      </trkpt>
      <trkpt lat="42.8525460" lon="-0.2566210">
        <ele>1889.2</ele>
        <time>2020-09-12T08:34:47Z</time>
      </trkpt>
      <trkpt lat="42.8524940" lon="-0.2566320">
        <ele>1890.0</ele>
        <time>2020-09-12T08:34:53Z</time>
      </trkpt>
      <trkpt lat="42.8524850" lon="-0.2566310">
        <ele>1890.2</ele>
        <time>2020-09-12T08:34:54Z</time>
      </trkpt>
      <trkpt lat="42.8524750" lon="-0.2566280">
        <ele>1890.4</ele>
        <time>2020-09-12T08:34:55Z</time>
      </trkpt>
      <trkpt lat="42.8524520" lon="-0.2566270">
        <ele>1891.0</ele>
        <time>2020-09-12T08:34:58Z</time>
      </trkpt>
      <trkpt lat="42.8524290" lon="-0.2566260">
        <ele>1891.2</ele>
        <time>2020-09-12T08:35:00Z</time>
      </trkpt>
      <trkpt lat="42.8524180" lon="-0.2566280">
        <ele>1891.4</ele>
        <time>2020-09-12T08:35:01Z</time>
      </trkpt>
      <trkpt lat="42.8523800" lon="-0.2566310">
        <ele>1892.2</ele>
        <time>2020-09-12T08:35:05Z</time>
      </trkpt>
      <trkpt lat="42.8523110" lon="-0.2566280">
        <ele>1893.4</ele>
        <time>2020-09-12T08:35:11Z</time>
      </trkpt>
      <trkpt lat="42.8522880" lon="-0.2566330">
        <ele>1894.0</ele>
        <time>2020-09-12T08:35:14Z</time>
      </trkpt>
      <trkpt lat="42.8522680" lon="-0.2566260">
        <ele>1894.2</ele>
        <time>2020-09-12T08:35:16Z</time>
      </trkpt>
      <trkpt lat="42.8522510" lon="-0.2566250">
        <ele>1894.6</ele>
        <time>2020-09-12T08:35:18Z</time>
      </trkpt>
      <trkpt lat="42.8522250" lon="-0.2566240">
        <ele>1895.0</ele>
        <time>2020-09-12T08:35:21Z</time>
      </trkpt>
      <trkpt lat="42.8522060" lon="-0.2566290">
        <ele>1895.4</ele>
        <time>2020-09-12T08:35:23Z</time>
      </trkpt>
      <trkpt lat="42.8521980" lon="-0.2566330">
        <ele>1895.6</ele>
        <time>2020-09-12T08:35:24Z</time>
      </trkpt>
      <trkpt lat="42.8521710" lon="-0.2566420">
        <ele>1896.0</ele>
        <time>2020-09-12T08:35:27Z</time>
      </trkpt>
      <trkpt lat="42.8521340" lon="-0.2566550">
        <ele>1896.8</ele>
        <time>2020-09-12T08:35:31Z</time>
      </trkpt>
      <trkpt lat="42.8521000" lon="-0.2566500">
        <ele>1897.4</ele>
        <time>2020-09-12T08:35:35Z</time>
      </trkpt>
      <trkpt lat="42.8520840" lon="-0.2566540">
        <ele>1898.0</ele>
        <time>2020-09-12T08:35:37Z</time>
      </trkpt>
      <trkpt lat="42.8520560" lon="-0.2566420">
        <ele>1898.4</ele>
        <time>2020-09-12T08:35:40Z</time>
      </trkpt>
      <trkpt lat="42.8520280" lon="-0.2566250">
        <ele>1899.0</ele>
        <time>2020-09-12T08:35:43Z</time>
      </trkpt>
      <trkpt lat="42.8519610" lon="-0.2566150">
        <ele>1900.0</ele>
        <time>2020-09-12T08:35:50Z</time>
      </trkpt>
      <trkpt lat="42.8518910" lon="-0.2566050">
        <ele>1901.0</ele>
        <time>2020-09-12T08:35:57Z</time>
      </trkpt>
      <trkpt lat="42.8518290" lon="-0.2566000">
        <ele>1902.2</ele>
        <time>2020-09-12T08:36:04Z</time>
      </trkpt>
      <trkpt lat="42.8518070" lon="-0.2565960">
        <ele>1902.6</ele>
        <time>2020-09-12T08:36:07Z</time>
      </trkpt>
      <trkpt lat="42.8517890" lon="-0.2565910">
        <ele>1903.2</ele>
        <time>2020-09-12T08:36:09Z</time>
      </trkpt>
      <trkpt lat="42.8517800" lon="-0.2565910">
        <ele>1903.4</ele>
        <time>2020-09-12T08:36:10Z</time>
      </trkpt>
      <trkpt lat="42.8517660" lon="-0.2565880">
        <ele>1903.6</ele>
        <time>2020-09-12T08:36:12Z</time>
      </trkpt>
      <trkpt lat="42.8517420" lon="-0.2565830">
        <ele>1904.4</ele>
        <time>2020-09-12T08:36:15Z</time>
      </trkpt>
      <trkpt lat="42.8517340" lon="-0.2565790">
        <ele>1904.6</ele>
        <time>2020-09-12T08:36:16Z</time>
      </trkpt>
      <trkpt lat="42.8516640" lon="-0.2565720">
        <ele>1905.6</ele>
        <time>2020-09-12T08:36:24Z</time>
      </trkpt>
      <trkpt lat="42.8516170" lon="-0.2565600">
        <ele>1906.6</ele>
        <time>2020-09-12T08:36:29Z</time>
      </trkpt>
      <trkpt lat="42.8515560" lon="-0.2565520">
        <ele>1907.6</ele>
        <time>2020-09-12T08:36:35Z</time>
      </trkpt>
      <trkpt lat="42.8514840" lon="-0.2565410">
        <ele>1908.6</ele>
        <time>2020-09-12T08:36:44Z</time>
      </trkpt>
      <trkpt lat="42.8514890" lon="-0.2565390">
        <ele>1908.8</ele>
        <time>2020-09-12T08:36:45Z</time>
      </trkpt>
      <trkpt lat="42.8515090" lon="-0.2565300">
        <ele>1909.0</ele>
        <time>2020-09-12T08:36:48Z</time>
      </trkpt>
      <trkpt lat="42.8515270" lon="-0.2565220">
        <ele>1909.2</ele>
        <time>2020-09-12T08:36:50Z</time>
      </trkpt>
      <trkpt lat="42.8515440" lon="-0.2565140">
        <ele>1909.8</ele>
        <time>2020-09-12T08:36:52Z</time>
      </trkpt>
      <trkpt lat="42.8516160" lon="-0.2564890">
        <ele>1911.0</ele>
        <time>2020-09-12T08:36:58Z</time>
      </trkpt>
      <trkpt lat="42.8516920" lon="-0.2564620">
        <ele>1912.0</ele>
        <time>2020-09-12T08:37:05Z</time>
      </trkpt>
      <trkpt lat="42.8517900" lon="-0.2564310">
        <ele>1912.8</ele>
        <time>2020-09-12T08:37:13Z</time>
      </trkpt>
      <trkpt lat="42.8518030" lon="-0.2564140">
        <ele>1913.0</ele>
        <time>2020-09-12T08:37:15Z</time>
      </trkpt>
      <trkpt lat="42.8518930" lon="-0.2563640">
        <ele>1914.0</ele>
        <time>2020-09-12T08:37:26Z</time>
      </trkpt>
      <trkpt lat="42.8519660" lon="-0.2563220">
        <ele>1914.8</ele>
        <time>2020-09-12T08:37:34Z</time>
      </trkpt>
      <trkpt lat="42.8519840" lon="-0.2563190">
        <ele>1915.2</ele>
        <time>2020-09-12T08:37:36Z</time>
      </trkpt>
      <trkpt lat="42.8520090" lon="-0.2563070">
        <ele>1915.6</ele>
        <time>2020-09-12T08:37:39Z</time>
      </trkpt>
      <trkpt lat="42.8520310" lon="-0.2563000">
        <ele>1916.0</ele>
        <time>2020-09-12T08:37:41Z</time>
      </trkpt>
      <trkpt lat="42.8520460" lon="-0.2562950">
        <ele>1916.2</ele>
        <time>2020-09-12T08:37:42Z</time>
      </trkpt>
      <trkpt lat="42.8520570" lon="-0.2562900">
        <ele>1916.4</ele>
        <time>2020-09-12T08:37:43Z</time>
      </trkpt>
      <trkpt lat="42.8521610" lon="-0.2562150">
        <ele>1917.2</ele>
        <time>2020-09-12T08:37:54Z</time>
      </trkpt>
      <trkpt lat="42.8521710" lon="-0.2562030">
        <ele>1917.4</ele>
        <time>2020-09-12T08:37:56Z</time>
      </trkpt>
      <trkpt lat="42.8521860" lon="-0.2561820">
        <ele>1918.2</ele>
        <time>2020-09-12T08:37:59Z</time>
      </trkpt>
      <trkpt lat="42.8521920" lon="-0.2561760">
        <ele>1918.4</ele>
        <time>2020-09-12T08:38:00Z</time>
      </trkpt>
      <trkpt lat="42.8522090" lon="-0.2561600">
        <ele>1918.8</ele>
        <time>2020-09-12T08:38:02Z</time>
      </trkpt>
      <trkpt lat="42.8522260" lon="-0.2561480">
        <ele>1919.0</ele>
        <time>2020-09-12T08:38:04Z</time>
      </trkpt>
      <trkpt lat="42.8522480" lon="-0.2561320">
        <ele>1919.6</ele>
        <time>2020-09-12T08:38:07Z</time>
      </trkpt>
      <trkpt lat="42.8522810" lon="-0.2561140">
        <ele>1919.8</ele>
        <time>2020-09-12T08:38:09Z</time>
      </trkpt>
      <trkpt lat="42.8523150" lon="-0.2560820">
        <ele>1920.8</ele>
        <time>2020-09-12T08:38:14Z</time>
      </trkpt>
      <trkpt lat="42.8523140" lon="-0.2560610">
        <ele>1921.4</ele>
        <time>2020-09-12T08:38:17Z</time>
      </trkpt>
      <trkpt lat="42.8522660" lon="-0.2560550">
        <ele>1921.8</ele>
        <time>2020-09-12T08:38:21Z</time>
      </trkpt>
      <trkpt lat="42.8522570" lon="-0.2560540">
        <ele>1922.2</ele>
        <time>2020-09-12T08:38:22Z</time>
      </trkpt>
      <trkpt lat="42.8522430" lon="-0.2560490">
        <ele>1922.4</ele>
        <time>2020-09-12T08:38:24Z</time>
      </trkpt>
      <trkpt lat="42.8522050" lon="-0.2560430">
        <ele>1923.2</ele>
        <time>2020-09-12T08:38:27Z</time>
      </trkpt>
      <trkpt lat="42.8521940" lon="-0.2560410">
        <ele>1923.4</ele>
        <time>2020-09-12T08:38:28Z</time>
      </trkpt>
      <trkpt lat="42.8521470" lon="-0.2560500">
        <ele>1924.2</ele>
        <time>2020-09-12T08:38:32Z</time>
      </trkpt>
      <trkpt lat="42.8520480" lon="-0.2560570">
        <ele>1925.2</ele>
        <time>2020-09-12T08:38:41Z</time>
      </trkpt>
      <trkpt lat="42.8520380" lon="-0.2560600">
        <ele>1925.2</ele>
        <time>2020-09-12T08:38:42Z</time>
      </trkpt>
      <trkpt lat="42.8520160" lon="-0.2560610">
        <ele>1925.8</ele>
        <time>2020-09-12T08:38:45Z</time>
      </trkpt>
      <trkpt lat="42.8519840" lon="-0.2560510">
        <ele>1926.4</ele>
        <time>2020-09-12T08:38:49Z</time>
      </trkpt>
      <trkpt lat="42.8519650" lon="-0.2560460">
        <ele>1927.0</ele>
        <time>2020-09-12T08:38:52Z</time>
      </trkpt>
      <trkpt lat="42.8519380" lon="-0.2560410">
        <ele>1927.8</ele>
        <time>2020-09-12T08:38:55Z</time>
      </trkpt>
      <trkpt lat="42.8519280" lon="-0.2560400">
        <ele>1928.2</ele>
        <time>2020-09-12T08:38:56Z</time>
      </trkpt>
      <trkpt lat="42.8518910" lon="-0.2560490">
        <ele>1928.8</ele>
        <time>2020-09-12T08:39:00Z</time>
      </trkpt>
      <trkpt lat="42.8517570" lon="-0.2560180">
        <ele>1929.8</ele>
        <time>2020-09-12T08:39:12Z</time>
      </trkpt>
      <trkpt lat="42.8517080" lon="-0.2560220">
        <ele>1930.6</ele>
        <time>2020-09-12T08:39:17Z</time>
      </trkpt>
      <trkpt lat="42.8516860" lon="-0.2560040">
        <ele>1931.0</ele>
        <time>2020-09-12T08:39:19Z</time>
      </trkpt>
      <trkpt lat="42.8516760" lon="-0.2560000">
        <ele>1931.2</ele>
        <time>2020-09-12T08:39:20Z</time>
      </trkpt>
      <trkpt lat="42.8516410" lon="-0.2559970">
        <ele>1932.2</ele>
        <time>2020-09-12T08:39:24Z</time>
      </trkpt>
      <trkpt lat="42.8515870" lon="-0.2559800">
        <ele>1933.4</ele>
        <time>2020-09-12T08:39:30Z</time>
      </trkpt>
      <trkpt lat="42.8515220" lon="-0.2559710">
        <ele>1934.4</ele>
        <time>2020-09-12T08:39:36Z</time>
      </trkpt>
      <trkpt lat="42.8514490" lon="-0.2559390">
        <ele>1935.4</ele>
        <time>2020-09-12T08:39:44Z</time>
      </trkpt>
      <trkpt lat="42.8514080" lon="-0.2559060">
        <ele>1936.6</ele>
        <time>2020-09-12T08:39:49Z</time>
      </trkpt>
      <trkpt lat="42.8513660" lon="-0.2558680">
        <ele>1937.8</ele>
        <time>2020-09-12T08:39:55Z</time>
      </trkpt>
      <trkpt lat="42.8513390" lon="-0.2558380">
        <ele>1938.2</ele>
        <time>2020-09-12T08:39:58Z</time>
      </trkpt>
      <trkpt lat="42.8513260" lon="-0.2558250">
        <ele>1938.8</ele>
        <time>2020-09-12T08:40:00Z</time>
      </trkpt>
      <trkpt lat="42.8513030" lon="-0.2557750">
        <ele>1939.6</ele>
        <time>2020-09-12T08:40:04Z</time>
      </trkpt>
      <trkpt lat="42.8512930" lon="-0.2557630">
        <ele>1939.8</ele>
        <time>2020-09-12T08:40:05Z</time>
      </trkpt>
      <trkpt lat="42.8512850" lon="-0.2557500">
        <ele>1940.4</ele>
        <time>2020-09-12T08:40:07Z</time>
      </trkpt>
      <trkpt lat="42.8512850" lon="-0.2557360">
        <ele>1940.6</ele>
        <time>2020-09-12T08:40:09Z</time>
      </trkpt>
      <trkpt lat="42.8512710" lon="-0.2557080">
        <ele>1941.0</ele>
        <time>2020-09-12T08:40:12Z</time>
      </trkpt>
      <trkpt lat="42.8512360" lon="-0.2556490">
        <ele>1942.0</ele>
        <time>2020-09-12T08:40:17Z</time>
      </trkpt>
      <trkpt lat="42.8511910" lon="-0.2555950">
        <ele>1943.2</ele>
        <time>2020-09-12T08:40:23Z</time>
      </trkpt>
      <trkpt lat="42.8511800" lon="-0.2555830">
        <ele>1943.6</ele>
        <time>2020-09-12T08:40:25Z</time>
      </trkpt>
      <trkpt lat="42.8511630" lon="-0.2555560">
        <ele>1944.2</ele>
        <time>2020-09-12T08:40:28Z</time>
      </trkpt>
      <trkpt lat="42.8511520" lon="-0.2555410">
        <ele>1944.6</ele>
        <time>2020-09-12T08:40:30Z</time>
      </trkpt>
      <trkpt lat="42.8511280" lon="-0.2555220">
        <ele>1945.2</ele>
        <time>2020-09-12T08:40:33Z</time>
      </trkpt>
      <trkpt lat="42.8511180" lon="-0.2555160">
        <ele>1945.4</ele>
        <time>2020-09-12T08:40:34Z</time>
      </trkpt>
      <trkpt lat="42.8511130" lon="-0.2555080">
        <ele>1945.8</ele>
        <time>2020-09-12T08:40:35Z</time>
      </trkpt>
      <trkpt lat="42.8510970" lon="-0.2554840">
        <ele>1946.8</ele>
        <time>2020-09-12T08:40:38Z</time>
      </trkpt>
      <trkpt lat="42.8510520" lon="-0.2554430">
        <ele>1947.8</ele>
        <time>2020-09-12T08:40:44Z</time>
      </trkpt>
      <trkpt lat="42.8510060" lon="-0.2554320">
        <ele>1949.0</ele>
        <time>2020-09-12T08:40:48Z</time>
      </trkpt>
      <trkpt lat="42.8509850" lon="-0.2554380">
        <ele>1949.4</ele>
        <time>2020-09-12T08:40:50Z</time>
      </trkpt>
      <trkpt lat="42.8509350" lon="-0.2554600">
        <ele>1949.8</ele>
        <time>2020-09-12T08:40:55Z</time>
      </trkpt>
      <trkpt lat="42.8509130" lon="-0.2554730">
        <ele>1950.0</ele>
        <time>2020-09-12T08:40:57Z</time>
      </trkpt>
      <trkpt lat="42.8508730" lon="-0.2554630">
        <ele>1950.2</ele>
        <time>2020-09-12T08:41:00Z</time>
      </trkpt>
      <trkpt lat="42.8508210" lon="-0.2554260">
        <ele>1951.2</ele>
        <time>2020-09-12T08:41:06Z</time>
      </trkpt>
      <trkpt lat="42.8507940" lon="-0.2554070">
        <ele>1952.0</ele>
        <time>2020-09-12T08:41:10Z</time>
      </trkpt>
      <trkpt lat="42.8507910" lon="-0.2554030">
        <ele>1952.2</ele>
        <time>2020-09-12T08:41:11Z</time>
      </trkpt>
      <trkpt lat="42.8507670" lon="-0.2553760">
        <ele>1953.0</ele>
        <time>2020-09-12T08:41:15Z</time>
      </trkpt>
      <trkpt lat="42.8507560" lon="-0.2553650">
        <ele>1953.4</ele>
        <time>2020-09-12T08:41:17Z</time>
      </trkpt>
      <trkpt lat="42.8507460" lon="-0.2553500">
        <ele>1953.8</ele>
        <time>2020-09-12T08:41:19Z</time>
      </trkpt>
      <trkpt lat="42.8507250" lon="-0.2553210">
        <ele>1954.6</ele>
        <time>2020-09-12T08:41:22Z</time>
      </trkpt>
      <trkpt lat="42.8506930" lon="-0.2552930">
        <ele>1955.6</ele>
        <time>2020-09-12T08:41:27Z</time>
      </trkpt>
      <trkpt lat="42.8506780" lon="-0.2552560">
        <ele>1956.0</ele>
        <time>2020-09-12T08:41:30Z</time>
      </trkpt>
      <trkpt lat="42.8506530" lon="-0.2552420">
        <ele>1956.8</ele>
        <time>2020-09-12T08:41:33Z</time>
      </trkpt>
      <trkpt lat="42.8506290" lon="-0.2552280">
        <ele>1957.2</ele>
        <time>2020-09-12T08:41:35Z</time>
      </trkpt>
      <trkpt lat="42.8505930" lon="-0.2551800">
        <ele>1958.0</ele>
        <time>2020-09-12T08:41:40Z</time>
      </trkpt>
      <trkpt lat="42.8505860" lon="-0.2551710">
        <ele>1958.0</ele>
        <time>2020-09-12T08:41:41Z</time>
      </trkpt>
      <trkpt lat="42.8505480" lon="-0.2551280">
        <ele>1959.0</ele>
        <time>2020-09-12T08:41:46Z</time>
      </trkpt>
      <trkpt lat="42.8505240" lon="-0.2551180">
        <ele>1959.4</ele>
        <time>2020-09-12T08:41:48Z</time>
      </trkpt>
      <trkpt lat="42.8504940" lon="-0.2550970">
        <ele>1960.2</ele>
        <time>2020-09-12T08:41:51Z</time>
      </trkpt>
      <trkpt lat="42.8504860" lon="-0.2550950">
        <ele>1960.2</ele>
        <time>2020-09-12T08:41:52Z</time>
      </trkpt>
      <trkpt lat="42.8504340" lon="-0.2550720">
        <ele>1961.4</ele>
        <time>2020-09-12T08:41:59Z</time>
      </trkpt>
      <trkpt lat="42.8504300" lon="-0.2550700">
        <ele>1961.6</ele>
        <time>2020-09-12T08:42:00Z</time>
      </trkpt>
      <trkpt lat="42.8504020" lon="-0.2550560">
        <ele>1962.4</ele>
        <time>2020-09-12T08:42:04Z</time>
      </trkpt>
      <trkpt lat="42.8503300" lon="-0.2550070">
        <ele>1963.6</ele>
        <time>2020-09-12T08:42:13Z</time>
      </trkpt>
      <trkpt lat="42.8502800" lon="-0.2549900">
        <ele>1964.4</ele>
        <time>2020-09-12T08:42:17Z</time>
      </trkpt>
      <trkpt lat="42.8502720" lon="-0.2549720">
        <ele>1964.6</ele>
        <time>2020-09-12T08:42:19Z</time>
      </trkpt>
      <trkpt lat="42.8502250" lon="-0.2549440">
        <ele>1965.0</ele>
        <time>2020-09-12T08:42:25Z</time>
      </trkpt>
      <trkpt lat="42.8502140" lon="-0.2549340">
        <ele>1965.2</ele>
        <time>2020-09-12T08:42:27Z</time>
      </trkpt>
      <trkpt lat="42.8502030" lon="-0.2549340">
        <ele>1965.6</ele>
        <time>2020-09-12T08:42:30Z</time>
      </trkpt>
      <trkpt lat="42.8501720" lon="-0.2549570">
        <ele>1966.2</ele>
        <time>2020-09-12T08:42:34Z</time>
      </trkpt>
      <trkpt lat="42.8501420" lon="-0.2549690">
        <ele>1966.6</ele>
        <time>2020-09-12T08:42:36Z</time>
      </trkpt>
      <trkpt lat="42.8501290" lon="-0.2549680">
        <ele>1966.8</ele>
        <time>2020-09-12T08:42:37Z</time>
      </trkpt>
      <trkpt lat="42.8500520" lon="-0.2549980">
        <ele>1967.4</ele>
        <time>2020-09-12T08:42:44Z</time>
      </trkpt>
      <trkpt lat="42.8500290" lon="-0.2550020">
        <ele>1967.8</ele>
        <time>2020-09-12T08:42:46Z</time>
      </trkpt>
      <trkpt lat="42.8499410" lon="-0.2550060">
        <ele>1968.8</ele>
        <time>2020-09-12T08:42:54Z</time>
      </trkpt>
      <trkpt lat="42.8499050" lon="-0.2549910">
        <ele>1969.4</ele>
        <time>2020-09-12T08:42:58Z</time>
      </trkpt>
      <trkpt lat="42.8498900" lon="-0.2549960">
        <ele>1970.0</ele>
        <time>2020-09-12T08:43:00Z</time>
      </trkpt>
      <trkpt lat="42.8498510" lon="-0.2550170">
        <ele>1970.4</ele>
        <time>2020-09-12T08:43:04Z</time>
      </trkpt>
      <trkpt lat="42.8498010" lon="-0.2550470">
        <ele>1971.2</ele>
        <time>2020-09-12T08:43:10Z</time>
      </trkpt>
      <trkpt lat="42.8497070" lon="-0.2550720">
        <ele>1972.2</ele>
        <time>2020-09-12T08:43:19Z</time>
      </trkpt>
      <trkpt lat="42.8496160" lon="-0.2550640">
        <ele>1973.2</ele>
        <time>2020-09-12T08:43:29Z</time>
      </trkpt>
      <trkpt lat="42.8494880" lon="-0.2550560">
        <ele>1974.2</ele>
        <time>2020-09-12T08:43:40Z</time>
      </trkpt>
      <trkpt lat="42.8494400" lon="-0.2550810">
        <ele>1974.6</ele>
        <time>2020-09-12T08:43:44Z</time>
      </trkpt>
      <trkpt lat="42.8493820" lon="-0.2551020">
        <ele>1974.8</ele>
        <time>2020-09-12T08:43:50Z</time>
      </trkpt>
      <trkpt lat="42.8493410" lon="-0.2551030">
        <ele>1975.2</ele>
        <time>2020-09-12T08:43:54Z</time>
      </trkpt>
      <trkpt lat="42.8491670" lon="-0.2551280">
        <ele>1976.2</ele>
        <time>2020-09-12T08:44:08Z</time>
      </trkpt>
      <trkpt lat="42.8489880" lon="-0.2552190">
        <ele>1976.4</ele>
        <time>2020-09-12T08:44:23Z</time>
      </trkpt>
      <trkpt lat="42.8488650" lon="-0.2552400">
        <ele>1976.6</ele>
        <time>2020-09-12T08:44:34Z</time>
      </trkpt>
      <trkpt lat="42.8488180" lon="-0.2552320">
        <ele>1977.2</ele>
        <time>2020-09-12T08:44:38Z</time>
      </trkpt>
      <trkpt lat="42.8487750" lon="-0.2552180">
        <ele>1978.2</ele>
        <time>2020-09-12T08:44:43Z</time>
      </trkpt>
      <trkpt lat="42.8487650" lon="-0.2552150">
        <ele>1978.4</ele>
        <time>2020-09-12T08:44:44Z</time>
      </trkpt>
      <trkpt lat="42.8487130" lon="-0.2552060">
        <ele>1979.6</ele>
        <time>2020-09-12T08:44:49Z</time>
      </trkpt>
      <trkpt lat="42.8486790" lon="-0.2552000">
        <ele>1980.2</ele>
        <time>2020-09-12T08:44:52Z</time>
      </trkpt>
      <trkpt lat="42.8486410" lon="-0.2551940">
        <ele>1980.6</ele>
        <time>2020-09-12T08:44:55Z</time>
      </trkpt>
      <trkpt lat="42.8484550" lon="-0.2551720">
        <ele>1981.4</ele>
        <time>2020-09-12T08:45:11Z</time>
      </trkpt>
      <trkpt lat="42.8484080" lon="-0.2551690">
        <ele>1981.4</ele>
        <time>2020-09-12T08:45:15Z</time>
      </trkpt>
      <trkpt lat="42.8483880" lon="-0.2551760">
        <ele>1981.6</ele>
        <time>2020-09-12T08:45:17Z</time>
      </trkpt>
      <trkpt lat="42.8483680" lon="-0.2551830">
        <ele>1982.0</ele>
        <time>2020-09-12T08:45:19Z</time>
      </trkpt>
      <trkpt lat="42.8482800" lon="-0.2551860">
        <ele>1982.8</ele>
        <time>2020-09-12T08:45:27Z</time>
      </trkpt>
      <trkpt lat="42.8481320" lon="-0.2552000">
        <ele>1983.8</ele>
        <time>2020-09-12T08:45:41Z</time>
      </trkpt>
      <trkpt lat="42.8480860" lon="-0.2551900">
        <ele>1984.0</ele>
        <time>2020-09-12T08:45:45Z</time>
      </trkpt>
      <trkpt lat="42.8480050" lon="-0.2552190">
        <ele>1984.6</ele>
        <time>2020-09-12T08:45:52Z</time>
      </trkpt>
      <trkpt lat="42.8478400" lon="-0.2553240">
        <ele>1984.4</ele>
        <time>2020-09-12T08:46:05Z</time>
      </trkpt>
      <trkpt lat="42.8477320" lon="-0.2553630">
        <ele>1984.8</ele>
        <time>2020-09-12T08:46:13Z</time>
      </trkpt>
      <trkpt lat="42.8475760" lon="-0.2553640">
        <ele>1985.8</ele>
        <time>2020-09-12T08:46:25Z</time>
      </trkpt>
      <trkpt lat="42.8474110" lon="-0.2553740">
        <ele>1987.0</ele>
        <time>2020-09-12T08:46:40Z</time>
      </trkpt>
      <trkpt lat="42.8472270" lon="-0.2553990">
        <ele>1986.6</ele>
        <time>2020-09-12T08:46:57Z</time>
      </trkpt>
      <trkpt lat="42.8470430" lon="-0.2554510">
        <ele>1987.2</ele>
        <time>2020-09-12T08:47:13Z</time>
      </trkpt>
      <trkpt lat="42.8468620" lon="-0.2554730">
        <ele>1987.6</ele>
        <time>2020-09-12T08:47:28Z</time>
      </trkpt>
      <trkpt lat="42.8466960" lon="-0.2554550">
        <ele>1988.0</ele>
        <time>2020-09-12T08:47:41Z</time>
      </trkpt>
      <trkpt lat="42.8466530" lon="-0.2554530">
        <ele>1988.0</ele>
        <time>2020-09-12T08:47:45Z</time>
      </trkpt>
      <trkpt lat="42.8466210" lon="-0.2554600">
        <ele>1988.0</ele>
        <time>2020-09-12T08:47:48Z</time>
      </trkpt>
      <trkpt lat="42.8464380" lon="-0.2554680">
        <ele>1988.4</ele>
        <time>2020-09-12T08:48:03Z</time>
      </trkpt>
      <trkpt lat="42.8462590" lon="-0.2555610">
        <ele>1988.6</ele>
        <time>2020-09-12T08:48:18Z</time>
      </trkpt>
      <trkpt lat="42.8462170" lon="-0.2555710">
        <ele>1988.8</ele>
        <time>2020-09-12T08:48:21Z</time>
      </trkpt>
      <trkpt lat="42.8461870" lon="-0.2555810">
        <ele>1989.0</ele>
        <time>2020-09-12T08:48:23Z</time>
      </trkpt>
      <trkpt lat="42.8460040" lon="-0.2555840">
        <ele>1989.8</ele>
        <time>2020-09-12T08:48:39Z</time>
      </trkpt>
      <trkpt lat="42.8459640" lon="-0.2555750">
        <ele>1990.0</ele>
        <time>2020-09-12T08:48:42Z</time>
      </trkpt>
      <trkpt lat="42.8458250" lon="-0.2555510">
        <ele>1989.8</ele>
        <time>2020-09-12T08:48:54Z</time>
      </trkpt>
      <trkpt lat="42.8457790" lon="-0.2555330">
        <ele>1989.8</ele>
        <time>2020-09-12T08:48:58Z</time>
      </trkpt>
      <trkpt lat="42.8456920" lon="-0.2554670">
        <ele>1991.0</ele>
        <time>2020-09-12T08:49:09Z</time>
      </trkpt>
      <trkpt lat="42.8456730" lon="-0.2554610">
        <ele>1991.2</ele>
        <time>2020-09-12T08:49:11Z</time>
      </trkpt>
      <trkpt lat="42.8455920" lon="-0.2554140">
        <ele>1991.8</ele>
        <time>2020-09-12T08:49:18Z</time>
      </trkpt>
      <trkpt lat="42.8455150" lon="-0.2553870">
        <ele>1991.8</ele>
        <time>2020-09-12T08:49:26Z</time>
      </trkpt>
      <trkpt lat="42.8454860" lon="-0.2553800">
        <ele>1992.2</ele>
        <time>2020-09-12T08:49:29Z</time>
      </trkpt>
      <trkpt lat="42.8454740" lon="-0.2553750">
        <ele>1992.4</ele>
        <time>2020-09-12T08:49:30Z</time>
      </trkpt>
      <trkpt lat="42.8453990" lon="-0.2553650">
        <ele>1993.2</ele>
        <time>2020-09-12T08:49:37Z</time>
      </trkpt>
      <trkpt lat="42.8453860" lon="-0.2553600">
        <ele>1993.4</ele>
        <time>2020-09-12T08:49:39Z</time>
      </trkpt>
      <trkpt lat="42.8453460" lon="-0.2553370">
        <ele>1994.0</ele>
        <time>2020-09-12T08:49:45Z</time>
      </trkpt>
      <trkpt lat="42.8453200" lon="-0.2553370">
        <ele>1994.4</ele>
        <time>2020-09-12T08:49:47Z</time>
      </trkpt>
      <trkpt lat="42.8452930" lon="-0.2553340">
        <ele>1994.6</ele>
        <time>2020-09-12T08:49:49Z</time>
      </trkpt>
      <trkpt lat="42.8452530" lon="-0.2553380">
        <ele>1994.8</ele>
        <time>2020-09-12T08:49:53Z</time>
      </trkpt>
      <trkpt lat="42.8452050" lon="-0.2553430">
        <ele>1994.0</ele>
        <time>2020-09-12T08:49:58Z</time>
      </trkpt>
      <trkpt lat="42.8451440" lon="-0.2553210">
        <ele>1994.4</ele>
        <time>2020-09-12T08:50:03Z</time>
      </trkpt>
      <trkpt lat="42.8449600" lon="-0.2552560">
        <ele>1995.0</ele>
        <time>2020-09-12T08:50:18Z</time>
      </trkpt>
      <trkpt lat="42.8449420" lon="-0.2552510">
        <ele>1995.0</ele>
        <time>2020-09-12T08:50:20Z</time>
      </trkpt>
      <trkpt lat="42.8449110" lon="-0.2552470">
        <ele>1995.2</ele>
        <time>2020-09-12T08:50:23Z</time>
      </trkpt>
      <trkpt lat="42.8448830" lon="-0.2552440">
        <ele>1995.4</ele>
        <time>2020-09-12T08:50:25Z</time>
      </trkpt>
      <trkpt lat="42.8447040" lon="-0.2552180">
        <ele>1995.4</ele>
        <time>2020-09-12T08:50:41Z</time>
      </trkpt>
      <trkpt lat="42.8445680" lon="-0.2551660">
        <ele>1996.6</ele>
        <time>2020-09-12T08:50:53Z</time>
      </trkpt>
      <trkpt lat="42.8445230" lon="-0.2551380">
        <ele>1997.6</ele>
        <time>2020-09-12T08:50:59Z</time>
      </trkpt>
      <trkpt lat="42.8443510" lon="-0.2550450">
        <ele>1998.2</ele>
        <time>2020-09-12T08:51:15Z</time>
      </trkpt>
      <trkpt lat="42.8442220" lon="-0.2549560">
        <ele>1998.8</ele>
        <time>2020-09-12T08:51:28Z</time>
      </trkpt>
      <trkpt lat="42.8441890" lon="-0.2549390">
        <ele>1999.0</ele>
        <time>2020-09-12T08:51:31Z</time>
      </trkpt>
      <trkpt lat="42.8441770" lon="-0.2549330">
        <ele>1999.2</ele>
        <time>2020-09-12T08:51:33Z</time>
      </trkpt>
      <trkpt lat="42.8441570" lon="-0.2549140">
        <ele>1999.2</ele>
        <time>2020-09-12T08:51:35Z</time>
      </trkpt>
      <trkpt lat="42.8440820" lon="-0.2548760">
        <ele>1999.8</ele>
        <time>2020-09-12T08:51:43Z</time>
      </trkpt>
      <trkpt lat="42.8440730" lon="-0.2548690">
        <ele>2000.2</ele>
        <time>2020-09-12T08:51:45Z</time>
      </trkpt>
      <trkpt lat="42.8440160" lon="-0.2548310">
        <ele>2000.8</ele>
        <time>2020-09-12T08:51:51Z</time>
      </trkpt>
      <trkpt lat="42.8439970" lon="-0.2548160">
        <ele>2001.4</ele>
        <time>2020-09-12T08:51:54Z</time>
      </trkpt>
      <trkpt lat="42.8439790" lon="-0.2548150">
        <ele>2001.8</ele>
        <time>2020-09-12T08:51:56Z</time>
      </trkpt>
      <trkpt lat="42.8438930" lon="-0.2547810">
        <ele>2002.8</ele>
        <time>2020-09-12T08:52:05Z</time>
      </trkpt>
      <trkpt lat="42.8438820" lon="-0.2547760">
        <ele>2003.0</ele>
        <time>2020-09-12T08:52:06Z</time>
      </trkpt>
      <trkpt lat="42.8438190" lon="-0.2547650">
        <ele>2003.8</ele>
        <time>2020-09-12T08:52:11Z</time>
      </trkpt>
      <trkpt lat="42.8437630" lon="-0.2547360">
        <ele>2005.0</ele>
        <time>2020-09-12T08:52:18Z</time>
      </trkpt>
      <trkpt lat="42.8436560" lon="-0.2547230">
        <ele>2006.0</ele>
        <time>2020-09-12T08:52:28Z</time>
      </trkpt>
      <trkpt lat="42.8436270" lon="-0.2547190">
        <ele>2006.2</ele>
        <time>2020-09-12T08:52:32Z</time>
      </trkpt>
      <trkpt lat="42.8436010" lon="-0.2547100">
        <ele>2007.0</ele>
        <time>2020-09-12T08:52:36Z</time>
      </trkpt>
      <trkpt lat="42.8435600" lon="-0.2546820">
        <ele>2008.2</ele>
        <time>2020-09-12T08:52:43Z</time>
      </trkpt>
      <trkpt lat="42.8435410" lon="-0.2546690">
        <ele>2008.8</ele>
        <time>2020-09-12T08:52:45Z</time>
      </trkpt>
      <trkpt lat="42.8435050" lon="-0.2546530">
        <ele>2009.4</ele>
        <time>2020-09-12T08:52:49Z</time>
      </trkpt>
      <trkpt lat="42.8434510" lon="-0.2546330">
        <ele>2010.4</ele>
        <time>2020-09-12T08:52:55Z</time>
      </trkpt>
      <trkpt lat="42.8434020" lon="-0.2545910">
        <ele>2011.4</ele>
        <time>2020-09-12T08:53:02Z</time>
      </trkpt>
      <trkpt lat="42.8433520" lon="-0.2545710">
        <ele>2012.6</ele>
        <time>2020-09-12T08:53:09Z</time>
      </trkpt>
      <trkpt lat="42.8432830" lon="-0.2545190">
        <ele>2013.6</ele>
        <time>2020-09-12T08:53:18Z</time>
      </trkpt>
      <trkpt lat="42.8432060" lon="-0.2544660">
        <ele>2014.6</ele>
        <time>2020-09-12T08:53:28Z</time>
      </trkpt>
      <trkpt lat="42.8431570" lon="-0.2544250">
        <ele>2015.8</ele>
        <time>2020-09-12T08:53:35Z</time>
      </trkpt>
      <trkpt lat="42.8431270" lon="-0.2543920">
        <ele>2016.6</ele>
        <time>2020-09-12T08:53:40Z</time>
      </trkpt>
      <trkpt lat="42.8431120" lon="-0.2543710">
        <ele>2016.8</ele>
        <time>2020-09-12T08:53:42Z</time>
      </trkpt>
      <trkpt lat="42.8430960" lon="-0.2543480">
        <ele>2017.0</ele>
        <time>2020-09-12T08:53:44Z</time>
      </trkpt>
      <trkpt lat="42.8430340" lon="-0.2542670">
        <ele>2017.8</ele>
        <time>2020-09-12T08:53:54Z</time>
      </trkpt>
      <trkpt lat="42.8430220" lon="-0.2542400">
        <ele>2018.2</ele>
        <time>2020-09-12T08:53:57Z</time>
      </trkpt>
      <trkpt lat="42.8430120" lon="-0.2542160">
        <ele>2018.2</ele>
        <time>2020-09-12T08:53:59Z</time>
      </trkpt>
      <trkpt lat="42.8429940" lon="-0.2541830">
        <ele>2018.6</ele>
        <time>2020-09-12T08:54:02Z</time>
      </trkpt>
      <trkpt lat="42.8429760" lon="-0.2541590">
        <ele>2019.0</ele>
        <time>2020-09-12T08:54:05Z</time>
      </trkpt>
      <trkpt lat="42.8429690" lon="-0.2541540">
        <ele>2019.2</ele>
        <time>2020-09-12T08:54:06Z</time>
      </trkpt>
      <trkpt lat="42.8429150" lon="-0.2540680">
        <ele>2020.0</ele>
        <time>2020-09-12T08:54:14Z</time>
      </trkpt>
      <trkpt lat="42.8429020" lon="-0.2540530">
        <ele>2020.2</ele>
        <time>2020-09-12T08:54:16Z</time>
      </trkpt>
      <trkpt lat="42.8428600" lon="-0.2540070">
        <ele>2020.4</ele>
        <time>2020-09-12T08:54:22Z</time>
      </trkpt>
      <trkpt lat="42.8428030" lon="-0.2539260">
        <ele>2020.6</ele>
        <time>2020-09-12T08:54:37Z</time>
      </trkpt>
      <trkpt lat="42.8427920" lon="-0.2539150">
        <ele>2021.0</ele>
        <time>2020-09-12T08:54:39Z</time>
      </trkpt>
      <trkpt lat="42.8427880" lon="-0.2539090">
        <ele>2021.2</ele>
        <time>2020-09-12T08:54:40Z</time>
      </trkpt>
      <trkpt lat="42.8427110" lon="-0.2538340">
        <ele>2021.2</ele>
        <time>2020-09-12T08:54:53Z</time>
      </trkpt>
      <trkpt lat="42.8426640" lon="-0.2538040">
        <ele>2022.0</ele>
        <time>2020-09-12T08:55:00Z</time>
      </trkpt>
      <trkpt lat="42.8426120" lon="-0.2537960">
        <ele>2022.6</ele>
        <time>2020-09-12T08:55:05Z</time>
      </trkpt>
      <trkpt lat="42.8425880" lon="-0.2537930">
        <ele>2023.0</ele>
        <time>2020-09-12T08:55:07Z</time>
      </trkpt>
      <trkpt lat="42.8425440" lon="-0.2537840">
        <ele>2023.0</ele>
        <time>2020-09-12T08:55:11Z</time>
      </trkpt>
      <trkpt lat="42.8424390" lon="-0.2537560">
        <ele>2024.2</ele>
        <time>2020-09-12T08:55:22Z</time>
      </trkpt>
      <trkpt lat="42.8423660" lon="-0.2537140">
        <ele>2024.8</ele>
        <time>2020-09-12T08:55:29Z</time>
      </trkpt>
      <trkpt lat="42.8423440" lon="-0.2537160">
        <ele>2025.2</ele>
        <time>2020-09-12T08:55:31Z</time>
      </trkpt>
      <trkpt lat="42.8423310" lon="-0.2537130">
        <ele>2025.4</ele>
        <time>2020-09-12T08:55:32Z</time>
      </trkpt>
      <trkpt lat="42.8422880" lon="-0.2537060">
        <ele>2025.6</ele>
        <time>2020-09-12T08:55:35Z</time>
      </trkpt>
      <trkpt lat="42.8421790" lon="-0.2536800">
        <ele>2025.6</ele>
        <time>2020-09-12T08:55:45Z</time>
      </trkpt>
      <trkpt lat="42.8421650" lon="-0.2536740">
        <ele>2025.6</ele>
        <time>2020-09-12T08:55:47Z</time>
      </trkpt>
      <trkpt lat="42.8421200" lon="-0.2536280">
        <ele>2026.2</ele>
        <time>2020-09-12T08:55:54Z</time>
      </trkpt>
      <trkpt lat="42.8420910" lon="-0.2536060">
        <ele>2026.4</ele>
        <time>2020-09-12T08:55:59Z</time>
      </trkpt>
      <trkpt lat="42.8419100" lon="-0.2535460">
        <ele>2027.2</ele>
        <time>2020-09-12T08:56:17Z</time>
      </trkpt>
      <trkpt lat="42.8419020" lon="-0.2535430">
        <ele>2027.2</ele>
        <time>2020-09-12T08:56:18Z</time>
      </trkpt>
      <trkpt lat="42.8418740" lon="-0.2535360">
        <ele>2027.6</ele>
        <time>2020-09-12T08:56:21Z</time>
      </trkpt>
      <trkpt lat="42.8417290" lon="-0.2535160">
        <ele>2028.4</ele>
        <time>2020-09-12T08:56:35Z</time>
      </trkpt>
      <trkpt lat="42.8417130" lon="-0.2535160">
        <ele>2028.4</ele>
        <time>2020-09-12T08:56:36Z</time>
      </trkpt>
      <trkpt lat="42.8416770" lon="-0.2535400">
        <ele>2029.0</ele>
        <time>2020-09-12T08:56:41Z</time>
      </trkpt>
      <trkpt lat="42.8416490" lon="-0.2535560">
        <ele>2029.2</ele>
        <time>2020-09-12T08:56:44Z</time>
      </trkpt>
      <trkpt lat="42.8416370" lon="-0.2535690">
        <ele>2029.4</ele>
        <time>2020-09-12T08:56:45Z</time>
      </trkpt>
      <trkpt lat="42.8415260" lon="-0.2536320">
        <ele>2030.4</ele>
        <time>2020-09-12T08:56:53Z</time>
      </trkpt>
      <trkpt lat="42.8413730" lon="-0.2536540">
        <ele>2031.4</ele>
        <time>2020-09-12T08:57:05Z</time>
      </trkpt>
      <trkpt lat="42.8413120" lon="-0.2536710">
        <ele>2032.0</ele>
        <time>2020-09-12T08:57:12Z</time>
      </trkpt>
      <trkpt lat="42.8412900" lon="-0.2536710">
        <ele>2032.4</ele>
        <time>2020-09-12T08:57:15Z</time>
      </trkpt>
      <trkpt lat="42.8412790" lon="-0.2536720">
        <ele>2032.6</ele>
        <time>2020-09-12T08:57:16Z</time>
      </trkpt>
      <trkpt lat="42.8412540" lon="-0.2536850">
        <ele>2032.8</ele>
        <time>2020-09-12T08:57:18Z</time>
      </trkpt>
      <trkpt lat="42.8411320" lon="-0.2537720">
        <ele>2033.6</ele>
        <time>2020-09-12T08:57:31Z</time>
      </trkpt>
      <trkpt lat="42.8409800" lon="-0.2538480">
        <ele>2034.6</ele>
        <time>2020-09-12T08:57:50Z</time>
      </trkpt>
      <trkpt lat="42.8409730" lon="-0.2538560">
        <ele>2034.8</ele>
        <time>2020-09-12T08:57:51Z</time>
      </trkpt>
      <trkpt lat="42.8409320" lon="-0.2538940">
        <ele>2035.4</ele>
        <time>2020-09-12T08:57:56Z</time>
      </trkpt>
      <trkpt lat="42.8408760" lon="-0.2539200">
        <ele>2035.2</ele>
        <time>2020-09-12T08:58:03Z</time>
      </trkpt>
      <trkpt lat="42.8408310" lon="-0.2539220">
        <ele>2035.4</ele>
        <time>2020-09-12T08:58:08Z</time>
      </trkpt>
      <trkpt lat="42.8407930" lon="-0.2539440">
        <ele>2035.6</ele>
        <time>2020-09-12T08:58:14Z</time>
      </trkpt>
      <trkpt lat="42.8407920" lon="-0.2539460">
        <ele>2035.8</ele>
        <time>2020-09-12T08:58:15Z</time>
      </trkpt>
      <trkpt lat="42.8407180" lon="-0.2539630">
        <ele>2035.8</ele>
        <time>2020-09-12T08:58:30Z</time>
      </trkpt>
      <trkpt lat="42.8406240" lon="-0.2539280">
        <ele>2036.4</ele>
        <time>2020-09-12T08:58:43Z</time>
      </trkpt>
      <trkpt lat="42.8405520" lon="-0.2539320">
        <ele>2036.8</ele>
        <time>2020-09-12T08:58:53Z</time>
      </trkpt>
      <trkpt lat="42.8404220" lon="-0.2539150">
        <ele>2037.0</ele>
        <time>2020-09-12T08:59:08Z</time>
      </trkpt>
      <trkpt lat="42.8403560" lon="-0.2538880">
        <ele>2037.4</ele>
        <time>2020-09-12T08:59:16Z</time>
      </trkpt>
      <trkpt lat="42.8403170" lon="-0.2538690">
        <ele>2037.4</ele>
        <time>2020-09-12T08:59:20Z</time>
      </trkpt>
      <trkpt lat="42.8401320" lon="-0.2538370">
        <ele>2036.8</ele>
        <time>2020-09-12T08:59:35Z</time>
      </trkpt>
      <trkpt lat="42.8399980" lon="-0.2537780">
        <ele>2035.8</ele>
        <time>2020-09-12T08:59:48Z</time>
      </trkpt>
      <trkpt lat="42.8399490" lon="-0.2536940">
        <ele>2035.0</ele>
        <time>2020-09-12T08:59:56Z</time>
      </trkpt>
      <trkpt lat="42.8399470" lon="-0.2536730">
        <ele>2035.2</ele>
        <time>2020-09-12T08:59:58Z</time>
      </trkpt>
      <trkpt lat="42.8399370" lon="-0.2536610">
        <ele>2035.6</ele>
        <time>2020-09-12T09:00:00Z</time>
      </trkpt>
      <trkpt lat="42.8399320" lon="-0.2536470">
        <ele>2035.8</ele>
        <time>2020-09-12T09:00:02Z</time>
      </trkpt>
      <trkpt lat="42.8397510" lon="-0.2536280">
        <ele>2036.2</ele>
        <time>2020-09-12T09:00:18Z</time>
      </trkpt>
      <trkpt lat="42.8395790" lon="-0.2535620">
        <ele>2036.0</ele>
        <time>2020-09-12T09:00:34Z</time>
      </trkpt>
      <trkpt lat="42.8394760" lon="-0.2535880">
        <ele>2036.8</ele>
        <time>2020-09-12T09:00:42Z</time>
      </trkpt>
      <trkpt lat="42.8393740" lon="-0.2536410">
        <ele>2036.6</ele>
        <time>2020-09-12T09:00:52Z</time>
      </trkpt>
      <trkpt lat="42.8391970" lon="-0.2537300">
        <ele>2036.8</ele>
        <time>2020-09-12T09:01:07Z</time>
      </trkpt>
      <trkpt lat="42.8390220" lon="-0.2537850">
        <ele>2037.0</ele>
        <time>2020-09-12T09:01:21Z</time>
      </trkpt>
      <trkpt lat="42.8389320" lon="-0.2537870">
        <ele>2036.8</ele>
        <time>2020-09-12T09:01:30Z</time>
      </trkpt>
      <trkpt lat="42.8387450" lon="-0.2538280">
        <ele>2037.0</ele>
        <time>2020-09-12T09:01:45Z</time>
      </trkpt>
      <trkpt lat="42.8386730" lon="-0.2537810">
        <ele>2037.4</ele>
        <time>2020-09-12T09:01:52Z</time>
      </trkpt>
      <trkpt lat="42.8386410" lon="-0.2537110">
        <ele>2037.6</ele>
        <time>2020-09-12T09:01:57Z</time>
      </trkpt>
      <trkpt lat="42.8386450" lon="-0.2536730">
        <ele>2037.8</ele>
        <time>2020-09-12T09:01:59Z</time>
      </trkpt>
      <trkpt lat="42.8386460" lon="-0.2536530">
        <ele>2037.8</ele>
        <time>2020-09-12T09:02:01Z</time>
      </trkpt>
      <trkpt lat="42.8386480" lon="-0.2536460">
        <ele>2037.8</ele>
        <time>2020-09-12T09:02:03Z</time>
      </trkpt>
      <trkpt lat="42.8386320" lon="-0.2536490">
        <ele>2038.0</ele>
        <time>2020-09-12T09:02:05Z</time>
      </trkpt>
      <trkpt lat="42.8385650" lon="-0.2536580">
        <ele>2037.8</ele>
        <time>2020-09-12T09:02:09Z</time>
      </trkpt>
      <trkpt lat="42.8383940" lon="-0.2536200">
        <ele>2037.4</ele>
        <time>2020-09-12T09:02:24Z</time>
      </trkpt>
      <trkpt lat="42.8382180" lon="-0.2536690">
        <ele>2037.4</ele>
        <time>2020-09-12T09:02:40Z</time>
      </trkpt>
      <trkpt lat="42.8381820" lon="-0.2536580">
        <ele>2037.6</ele>
        <time>2020-09-12T09:02:43Z</time>
      </trkpt>
      <trkpt lat="42.8380150" lon="-0.2537790">
        <ele>2037.6</ele>
        <time>2020-09-12T09:02:57Z</time>
      </trkpt>
      <trkpt lat="42.8379490" lon="-0.2538200">
        <ele>2036.8</ele>
        <time>2020-09-12T09:03:06Z</time>
      </trkpt>
      <trkpt lat="42.8379470" lon="-0.2538120">
        <ele>2036.6</ele>
        <time>2020-09-12T09:03:07Z</time>
      </trkpt>
      <trkpt lat="42.8378900" lon="-0.2537880">
        <ele>2036.4</ele>
        <time>2020-09-12T09:03:13Z</time>
      </trkpt>
      <trkpt lat="42.8377110" lon="-0.2537140">
        <ele>2036.2</ele>
        <time>2020-09-12T09:03:35Z</time>
      </trkpt>
      <trkpt lat="42.8376800" lon="-0.2537280">
        <ele>2036.0</ele>
        <time>2020-09-12T09:03:37Z</time>
      </trkpt>
      <trkpt lat="42.8376550" lon="-0.2537340">
        <ele>2035.8</ele>
        <time>2020-09-12T09:03:39Z</time>
      </trkpt>
      <trkpt lat="42.8376250" lon="-0.2537330">
        <ele>2035.8</ele>
        <time>2020-09-12T09:03:41Z</time>
      </trkpt>
      <trkpt lat="42.8374410" lon="-0.2536930">
        <ele>2035.0</ele>
        <time>2020-09-12T09:03:53Z</time>
      </trkpt>
      <trkpt lat="42.8373530" lon="-0.2537340">
        <ele>2036.0</ele>
        <time>2020-09-12T09:04:00Z</time>
      </trkpt>
      <trkpt lat="42.8372740" lon="-0.2537390">
        <ele>2036.8</ele>
        <time>2020-09-12T09:04:06Z</time>
      </trkpt>
      <trkpt lat="42.8372640" lon="-0.2537410">
        <ele>2036.8</ele>
        <time>2020-09-12T09:04:07Z</time>
      </trkpt>
      <trkpt lat="42.8372130" lon="-0.2538010">
        <ele>2037.8</ele>
        <time>2020-09-12T09:04:14Z</time>
      </trkpt>
      <trkpt lat="42.8372130" lon="-0.2538060">
        <ele>2038.0</ele>
        <time>2020-09-12T09:04:16Z</time>
      </trkpt>
      <trkpt lat="42.8372010" lon="-0.2538230">
        <ele>2038.4</ele>
        <time>2020-09-12T09:04:18Z</time>
      </trkpt>
      <trkpt lat="42.8371800" lon="-0.2538400">
        <ele>2039.0</ele>
        <time>2020-09-12T09:04:20Z</time>
      </trkpt>
      <trkpt lat="42.8371690" lon="-0.2538460">
        <ele>2039.2</ele>
        <time>2020-09-12T09:04:22Z</time>
      </trkpt>
      <trkpt lat="42.8371250" lon="-0.2538860">
        <ele>2039.8</ele>
        <time>2020-09-12T09:04:26Z</time>
      </trkpt>
      <trkpt lat="42.8371100" lon="-0.2539000">
        <ele>2040.0</ele>
        <time>2020-09-12T09:04:28Z</time>
      </trkpt>
      <trkpt lat="42.8370540" lon="-0.2539710">
        <ele>2041.0</ele>
        <time>2020-09-12T09:04:35Z</time>
      </trkpt>
      <trkpt lat="42.8370510" lon="-0.2539870">
        <ele>2041.2</ele>
        <time>2020-09-12T09:04:36Z</time>
      </trkpt>
      <trkpt lat="42.8370090" lon="-0.2540930">
        <ele>2042.2</ele>
        <time>2020-09-12T09:04:43Z</time>
      </trkpt>
      <trkpt lat="42.8369200" lon="-0.2541610">
        <ele>2043.2</ele>
        <time>2020-09-12T09:04:53Z</time>
      </trkpt>
      <trkpt lat="42.8369000" lon="-0.2541590">
        <ele>2043.4</ele>
        <time>2020-09-12T09:04:55Z</time>
      </trkpt>
      <trkpt lat="42.8368630" lon="-0.2541760">
        <ele>2044.2</ele>
        <time>2020-09-12T09:04:59Z</time>
      </trkpt>
      <trkpt lat="42.8368470" lon="-0.2541920">
        <ele>2044.6</ele>
        <time>2020-09-12T09:05:01Z</time>
      </trkpt>
      <trkpt lat="42.8368080" lon="-0.2542060">
        <ele>2045.2</ele>
        <time>2020-09-12T09:05:06Z</time>
      </trkpt>
      <trkpt lat="42.8367140" lon="-0.2542360">
        <ele>2046.4</ele>
        <time>2020-09-12T09:05:15Z</time>
      </trkpt>
      <trkpt lat="42.8366810" lon="-0.2542490">
        <ele>2046.8</ele>
        <time>2020-09-12T09:05:18Z</time>
      </trkpt>
      <trkpt lat="42.8366410" lon="-0.2542810">
        <ele>2047.4</ele>
        <time>2020-09-12T09:05:22Z</time>
      </trkpt>
      <trkpt lat="42.8366260" lon="-0.2542960">
        <ele>2047.8</ele>
        <time>2020-09-12T09:05:24Z</time>
      </trkpt>
      <trkpt lat="42.8366120" lon="-0.2543160">
        <ele>2047.8</ele>
        <time>2020-09-12T09:05:26Z</time>
      </trkpt>
      <trkpt lat="42.8365520" lon="-0.2543780">
        <ele>2047.6</ele>
        <time>2020-09-12T09:05:33Z</time>
      </trkpt>
      <trkpt lat="42.8364470" lon="-0.2544460">
        <ele>2048.4</ele>
        <time>2020-09-12T09:05:43Z</time>
      </trkpt>
      <trkpt lat="42.8364350" lon="-0.2544560">
        <ele>2048.6</ele>
        <time>2020-09-12T09:05:44Z</time>
      </trkpt>
      <trkpt lat="42.8363880" lon="-0.2545150">
        <ele>2048.8</ele>
        <time>2020-09-12T09:05:50Z</time>
      </trkpt>
      <trkpt lat="42.8363510" lon="-0.2545540">
        <ele>2049.6</ele>
        <time>2020-09-12T09:05:55Z</time>
      </trkpt>
      <trkpt lat="42.8362880" lon="-0.2545970">
        <ele>2050.4</ele>
        <time>2020-09-12T09:06:02Z</time>
      </trkpt>
      <trkpt lat="42.8362800" lon="-0.2545940">
        <ele>2050.6</ele>
        <time>2020-09-12T09:06:03Z</time>
      </trkpt>
      <trkpt lat="42.8362280" lon="-0.2546270">
        <ele>2051.6</ele>
        <time>2020-09-12T09:06:08Z</time>
      </trkpt>
      <trkpt lat="42.8361500" lon="-0.2546550">
        <ele>2052.8</ele>
        <time>2020-09-12T09:06:15Z</time>
      </trkpt>
      <trkpt lat="42.8361340" lon="-0.2546600">
        <ele>2053.4</ele>
        <time>2020-09-12T09:06:17Z</time>
      </trkpt>
      <trkpt lat="42.8361050" lon="-0.2546710">
        <ele>2053.8</ele>
        <time>2020-09-12T09:06:20Z</time>
      </trkpt>
      <trkpt lat="42.8360220" lon="-0.2547240">
        <ele>2055.0</ele>
        <time>2020-09-12T09:06:28Z</time>
      </trkpt>
      <trkpt lat="42.8359390" lon="-0.2547550">
        <ele>2055.8</ele>
        <time>2020-09-12T09:06:35Z</time>
      </trkpt>
      <trkpt lat="42.8358780" lon="-0.2547980">
        <ele>2055.8</ele>
        <time>2020-09-12T09:06:40Z</time>
      </trkpt>
      <trkpt lat="42.8356880" lon="-0.2547950">
        <ele>2055.0</ele>
        <time>2020-09-12T09:06:57Z</time>
      </trkpt>
      <trkpt lat="42.8356400" lon="-0.2547870">
        <ele>2054.8</ele>
        <time>2020-09-12T09:07:03Z</time>
      </trkpt>
      <trkpt lat="42.8355900" lon="-0.2547770">
        <ele>2055.6</ele>
        <time>2020-09-12T09:07:08Z</time>
      </trkpt>
      <trkpt lat="42.8355680" lon="-0.2547860">
        <ele>2056.0</ele>
        <time>2020-09-12T09:07:10Z</time>
      </trkpt>
      <trkpt lat="42.8355440" lon="-0.2547930">
        <ele>2056.2</ele>
        <time>2020-09-12T09:07:13Z</time>
      </trkpt>
      <trkpt lat="42.8355570" lon="-0.2547980">
        <ele>2056.4</ele>
        <time>2020-09-12T09:07:20Z</time>
      </trkpt>
      <trkpt lat="42.8355560" lon="-0.2547980">
        <ele>2056.6</ele>
        <time>2020-09-12T09:07:23Z</time>
      </trkpt>
      <trkpt lat="42.8355590" lon="-0.2547890">
        <ele>2056.6</ele>
        <time>2020-09-12T09:09:32Z</time>
      </trkpt>
      <trkpt lat="42.8355500" lon="-0.2547590">
        <ele>2056.6</ele>
        <time>2020-09-12T09:10:47Z</time>
      </trkpt>
      <trkpt lat="42.8355390" lon="-0.2547550">
        <ele>2056.6</ele>
        <time>2020-09-12T09:11:35Z</time>
      </trkpt>
      <trkpt lat="42.8354950" lon="-0.2547120">
        <ele>2056.6</ele>
        <time>2020-09-12T09:12:25Z</time>
      </trkpt>
      <trkpt lat="42.8354390" lon="-0.2547780">
        <ele>2056.6</ele>
        <time>2020-09-12T09:12:42Z</time>
      </trkpt>
      <trkpt lat="42.8354730" lon="-0.2548230">
        <ele>2056.6</ele>
        <time>2020-09-12T09:12:47Z</time>
      </trkpt>
      <trkpt lat="42.8355380" lon="-0.2546330">
        <ele>2056.2</ele>
        <time>2020-09-12T09:13:20Z</time>
      </trkpt>
      <trkpt lat="42.8355300" lon="-0.2548320">
        <ele>2056.2</ele>
        <time>2020-09-12T09:13:34Z</time>
      </trkpt>
      <trkpt lat="42.8354970" lon="-0.2547740">
        <ele>2055.8</ele>
        <time>2020-09-12T09:13:42Z</time>
      </trkpt>
      <trkpt lat="42.8354920" lon="-0.2547610">
        <ele>2056.2</ele>
        <time>2020-09-12T09:14:14Z</time>
      </trkpt>
      <trkpt lat="42.8355240" lon="-0.2547570">
        <ele>2056.2</ele>
        <time>2020-09-12T09:15:50Z</time>
      </trkpt>
      <trkpt lat="42.8355720" lon="-0.2547810">
        <ele>2056.8</ele>
        <time>2020-09-12T09:17:15Z</time>
      </trkpt>
      <trkpt lat="42.8355090" lon="-0.2547400">
        <ele>2056.8</ele>
        <time>2020-09-12T09:19:38Z</time>
      </trkpt>
      <trkpt lat="42.8355700" lon="-0.2547840">
        <ele>2056.8</ele>
        <time>2020-09-12T09:20:35Z</time>
      </trkpt>
      <trkpt lat="42.8355770" lon="-0.2547560">
        <ele>2056.2</ele>
        <time>2020-09-12T09:21:12Z</time>
      </trkpt>
      <trkpt lat="42.8355410" lon="-0.2547770">
        <ele>2056.2</ele>
        <time>2020-09-12T09:21:55Z</time>
      </trkpt>
      <trkpt lat="42.8355700" lon="-0.2547790">
        <ele>2056.2</ele>
        <time>2020-09-12T09:23:47Z</time>
      </trkpt>
      <trkpt lat="42.8354780" lon="-0.2548020">
        <ele>2056.2</ele>
        <time>2020-09-12T09:24:35Z</time>
      </trkpt>
      <trkpt lat="42.8353640" lon="-0.2548300">
        <ele>2056.0</ele>
        <time>2020-09-12T09:24:44Z</time>
      </trkpt>
      <trkpt lat="42.8353280" lon="-0.2548310">
        <ele>2056.0</ele>
        <time>2020-09-12T09:24:48Z</time>
      </trkpt>
      <trkpt lat="42.8352950" lon="-0.2548340">
        <ele>2056.2</ele>
        <time>2020-09-12T09:24:51Z</time>
      </trkpt>
      <trkpt lat="42.8352700" lon="-0.2548540">
        <ele>2056.4</ele>
        <time>2020-09-12T09:24:53Z</time>
      </trkpt>
      <trkpt lat="42.8352490" lon="-0.2548660">
        <ele>2056.4</ele>
        <time>2020-09-12T09:24:55Z</time>
      </trkpt>
      <trkpt lat="42.8351910" lon="-0.2549010">
        <ele>2057.0</ele>
        <time>2020-09-12T09:25:00Z</time>
      </trkpt>
      <trkpt lat="42.8350230" lon="-0.2549400">
        <ele>2058.2</ele>
        <time>2020-09-12T09:25:14Z</time>
      </trkpt>
      <trkpt lat="42.8350110" lon="-0.2549450">
        <ele>2058.8</ele>
        <time>2020-09-12T09:25:17Z</time>
      </trkpt>
      <trkpt lat="42.8349770" lon="-0.2549500">
        <ele>2059.0</ele>
        <time>2020-09-12T09:25:21Z</time>
      </trkpt>
      <trkpt lat="42.8349500" lon="-0.2549450">
        <ele>2059.2</ele>
        <time>2020-09-12T09:25:24Z</time>
      </trkpt>
      <trkpt lat="42.8348650" lon="-0.2549770">
        <ele>2060.2</ele>
        <time>2020-09-12T09:25:32Z</time>
      </trkpt>
      <trkpt lat="42.8348140" lon="-0.2549740">
        <ele>2060.6</ele>
        <time>2020-09-12T09:25:38Z</time>
      </trkpt>
      <trkpt lat="42.8347450" lon="-0.2549730">
        <ele>2060.8</ele>
        <time>2020-09-12T09:26:06Z</time>
      </trkpt>
      <trkpt lat="42.8346360" lon="-0.2549940">
        <ele>2061.4</ele>
        <time>2020-09-12T09:26:18Z</time>
      </trkpt>
      <trkpt lat="42.8345850" lon="-0.2549900">
        <ele>2062.4</ele>
        <time>2020-09-12T09:26:23Z</time>
      </trkpt>
      <trkpt lat="42.8345360" lon="-0.2550270">
        <ele>2063.6</ele>
        <time>2020-09-12T09:26:29Z</time>
      </trkpt>
      <trkpt lat="42.8343820" lon="-0.2551670">
        <ele>2064.6</ele>
        <time>2020-09-12T09:26:43Z</time>
      </trkpt>
      <trkpt lat="42.8342260" lon="-0.2552910">
        <ele>2065.0</ele>
        <time>2020-09-12T09:26:56Z</time>
      </trkpt>
      <trkpt lat="42.8341450" lon="-0.2553160">
        <ele>2065.6</ele>
        <time>2020-09-12T09:27:03Z</time>
      </trkpt>
      <trkpt lat="42.8340750" lon="-0.2554060">
        <ele>2064.6</ele>
        <time>2020-09-12T09:27:12Z</time>
      </trkpt>
      <trkpt lat="42.8339080" lon="-0.2555090">
        <ele>2065.2</ele>
        <time>2020-09-12T09:27:29Z</time>
      </trkpt>
      <trkpt lat="42.8339020" lon="-0.2555110">
        <ele>2065.4</ele>
        <time>2020-09-12T09:27:30Z</time>
      </trkpt>
      <trkpt lat="42.8338860" lon="-0.2555090">
        <ele>2065.8</ele>
        <time>2020-09-12T09:27:32Z</time>
      </trkpt>
      <trkpt lat="42.8338760" lon="-0.2555120">
        <ele>2066.0</ele>
        <time>2020-09-12T09:27:33Z</time>
      </trkpt>
      <trkpt lat="42.8338160" lon="-0.2555340">
        <ele>2066.8</ele>
        <time>2020-09-12T09:27:38Z</time>
      </trkpt>
      <trkpt lat="42.8337430" lon="-0.2555670">
        <ele>2067.8</ele>
        <time>2020-09-12T09:27:45Z</time>
      </trkpt>
      <trkpt lat="42.8336900" lon="-0.2556320">
        <ele>2069.0</ele>
        <time>2020-09-12T09:27:51Z</time>
      </trkpt>
      <trkpt lat="42.8335740" lon="-0.2557730">
        <ele>2070.0</ele>
        <time>2020-09-12T09:28:03Z</time>
      </trkpt>
      <trkpt lat="42.8334380" lon="-0.2558450">
        <ele>2071.2</ele>
        <time>2020-09-12T09:28:14Z</time>
      </trkpt>
      <trkpt lat="42.8333410" lon="-0.2558720">
        <ele>2072.2</ele>
        <time>2020-09-12T09:28:23Z</time>
      </trkpt>
      <trkpt lat="42.8332730" lon="-0.2559040">
        <ele>2073.2</ele>
        <time>2020-09-12T09:28:29Z</time>
      </trkpt>
      <trkpt lat="42.8331200" lon="-0.2559570">
        <ele>2074.2</ele>
        <time>2020-09-12T09:28:42Z</time>
      </trkpt>
      <trkpt lat="42.8330970" lon="-0.2559680">
        <ele>2074.2</ele>
        <time>2020-09-12T09:28:44Z</time>
      </trkpt>
      <trkpt lat="42.8329990" lon="-0.2560550">
        <ele>2074.8</ele>
        <time>2020-09-12T09:28:53Z</time>
      </trkpt>
      <trkpt lat="42.8329380" lon="-0.2561220">
        <ele>2075.4</ele>
        <time>2020-09-12T09:28:58Z</time>
      </trkpt>
      <trkpt lat="42.8328550" lon="-0.2562620">
        <ele>2076.4</ele>
        <time>2020-09-12T09:29:09Z</time>
      </trkpt>
      <trkpt lat="42.8327790" lon="-0.2562880">
        <ele>2077.4</ele>
        <time>2020-09-12T09:29:16Z</time>
      </trkpt>
      <trkpt lat="42.8327180" lon="-0.2563210">
        <ele>2078.6</ele>
        <time>2020-09-12T09:29:22Z</time>
      </trkpt>
      <trkpt lat="42.8326510" lon="-0.2563500">
        <ele>2079.6</ele>
        <time>2020-09-12T09:29:28Z</time>
      </trkpt>
      <trkpt lat="42.8325820" lon="-0.2563900">
        <ele>2080.8</ele>
        <time>2020-09-12T09:29:35Z</time>
      </trkpt>
      <trkpt lat="42.8325280" lon="-0.2564190">
        <ele>2081.8</ele>
        <time>2020-09-12T09:29:41Z</time>
      </trkpt>
      <trkpt lat="42.8324590" lon="-0.2564550">
        <ele>2083.0</ele>
        <time>2020-09-12T09:29:48Z</time>
      </trkpt>
      <trkpt lat="42.8324400" lon="-0.2564790">
        <ele>2083.4</ele>
        <time>2020-09-12T09:29:51Z</time>
      </trkpt>
      <trkpt lat="42.8324150" lon="-0.2565210">
        <ele>2084.2</ele>
        <time>2020-09-12T09:29:55Z</time>
      </trkpt>
      <trkpt lat="42.8323660" lon="-0.2565700">
        <ele>2085.2</ele>
        <time>2020-09-12T09:30:01Z</time>
      </trkpt>
      <trkpt lat="42.8323390" lon="-0.2565980">
        <ele>2086.2</ele>
        <time>2020-09-12T09:30:05Z</time>
      </trkpt>
      <trkpt lat="42.8323320" lon="-0.2565900">
        <ele>2086.6</ele>
        <time>2020-09-12T09:30:07Z</time>
      </trkpt>
      <trkpt lat="42.8323320" lon="-0.2565640">
        <ele>2087.0</ele>
        <time>2020-09-12T09:30:09Z</time>
      </trkpt>
      <trkpt lat="42.8323500" lon="-0.2565350">
        <ele>2087.4</ele>
        <time>2020-09-12T09:30:12Z</time>
      </trkpt>
      <trkpt lat="42.8323600" lon="-0.2565090">
        <ele>2087.8</ele>
        <time>2020-09-12T09:30:14Z</time>
      </trkpt>
      <trkpt lat="42.8323720" lon="-0.2564730">
        <ele>2088.6</ele>
        <time>2020-09-12T09:30:17Z</time>
      </trkpt>
      <trkpt lat="42.8323740" lon="-0.2564010">
        <ele>2089.6</ele>
        <time>2020-09-12T09:30:23Z</time>
      </trkpt>
      <trkpt lat="42.8323500" lon="-0.2563900">
        <ele>2090.2</ele>
        <time>2020-09-12T09:30:25Z</time>
      </trkpt>
      <trkpt lat="42.8323160" lon="-0.2564130">
        <ele>2090.6</ele>
        <time>2020-09-12T09:30:29Z</time>
      </trkpt>
      <trkpt lat="42.8322920" lon="-0.2564520">
        <ele>2091.4</ele>
        <time>2020-09-12T09:30:33Z</time>
      </trkpt>
      <trkpt lat="42.8322820" lon="-0.2564710">
        <ele>2091.8</ele>
        <time>2020-09-12T09:30:35Z</time>
      </trkpt>
      <trkpt lat="42.8322600" lon="-0.2565190">
        <ele>2092.6</ele>
        <time>2020-09-12T09:30:40Z</time>
      </trkpt>
      <trkpt lat="42.8322550" lon="-0.2565270">
        <ele>2093.0</ele>
        <time>2020-09-12T09:30:41Z</time>
      </trkpt>
      <trkpt lat="42.8322480" lon="-0.2565360">
        <ele>2093.2</ele>
        <time>2020-09-12T09:30:42Z</time>
      </trkpt>
      <trkpt lat="42.8322330" lon="-0.2565640">
        <ele>2093.4</ele>
        <time>2020-09-12T09:30:45Z</time>
      </trkpt>
      <trkpt lat="42.8322150" lon="-0.2565740">
        <ele>2093.8</ele>
        <time>2020-09-12T09:30:47Z</time>
      </trkpt>
      <trkpt lat="42.8322090" lon="-0.2565770">
        <ele>2094.0</ele>
        <time>2020-09-12T09:30:48Z</time>
      </trkpt>
      <trkpt lat="42.8322100" lon="-0.2565350">
        <ele>2094.6</ele>
        <time>2020-09-12T09:30:52Z</time>
      </trkpt>
      <trkpt lat="42.8322260" lon="-0.2565000">
        <ele>2095.0</ele>
        <time>2020-09-12T09:30:55Z</time>
      </trkpt>
      <trkpt lat="42.8322430" lon="-0.2564370">
        <ele>2095.6</ele>
        <time>2020-09-12T09:31:00Z</time>
      </trkpt>
      <trkpt lat="42.8322430" lon="-0.2564220">
        <ele>2095.8</ele>
        <time>2020-09-12T09:31:02Z</time>
      </trkpt>
      <trkpt lat="42.8322280" lon="-0.2564370">
        <ele>2096.2</ele>
        <time>2020-09-12T09:31:04Z</time>
      </trkpt>
      <trkpt lat="42.8322160" lon="-0.2564600">
        <ele>2096.4</ele>
        <time>2020-09-12T09:31:06Z</time>
      </trkpt>
      <trkpt lat="42.8322000" lon="-0.2564920">
        <ele>2097.0</ele>
        <time>2020-09-12T09:31:10Z</time>
      </trkpt>
      <trkpt lat="42.8321930" lon="-0.2564950">
        <ele>2097.2</ele>
        <time>2020-09-12T09:31:11Z</time>
      </trkpt>
      <trkpt lat="42.8321550" lon="-0.2565060">
        <ele>2098.4</ele>
        <time>2020-09-12T09:31:16Z</time>
      </trkpt>
      <trkpt lat="42.8320870" lon="-0.2565560">
        <ele>2099.2</ele>
        <time>2020-09-12T09:31:25Z</time>
      </trkpt>
      <trkpt lat="42.8320790" lon="-0.2565570">
        <ele>2099.4</ele>
        <time>2020-09-12T09:31:26Z</time>
      </trkpt>
      <trkpt lat="42.8320570" lon="-0.2565760">
        <ele>2100.2</ele>
        <time>2020-09-12T09:31:29Z</time>
      </trkpt>
      <trkpt lat="42.8320400" lon="-0.2565880">
        <ele>2100.6</ele>
        <time>2020-09-12T09:31:31Z</time>
      </trkpt>
      <trkpt lat="42.8320330" lon="-0.2565990">
        <ele>2100.6</ele>
        <time>2020-09-12T09:31:32Z</time>
      </trkpt>
      <trkpt lat="42.8320020" lon="-0.2566410">
        <ele>2101.6</ele>
        <time>2020-09-12T09:31:36Z</time>
      </trkpt>
      <trkpt lat="42.8319800" lon="-0.2566680">
        <ele>2102.0</ele>
        <time>2020-09-12T09:31:39Z</time>
      </trkpt>
      <trkpt lat="42.8319500" lon="-0.2567030">
        <ele>2102.4</ele>
        <time>2020-09-12T09:31:43Z</time>
      </trkpt>
      <trkpt lat="42.8319440" lon="-0.2567110">
        <ele>2102.6</ele>
        <time>2020-09-12T09:31:44Z</time>
      </trkpt>
      <trkpt lat="42.8318830" lon="-0.2567750">
        <ele>2103.8</ele>
        <time>2020-09-12T09:31:53Z</time>
      </trkpt>
      <trkpt lat="42.8318330" lon="-0.2567950">
        <ele>2104.8</ele>
        <time>2020-09-12T09:31:59Z</time>
      </trkpt>
      <trkpt lat="42.8317530" lon="-0.2568140">
        <ele>2106.0</ele>
        <time>2020-09-12T09:32:08Z</time>
      </trkpt>
      <trkpt lat="42.8317160" lon="-0.2568480">
        <ele>2107.0</ele>
        <time>2020-09-12T09:32:13Z</time>
      </trkpt>
      <trkpt lat="42.8316940" lon="-0.2568650">
        <ele>2107.2</ele>
        <time>2020-09-12T09:32:16Z</time>
      </trkpt>
      <trkpt lat="42.8316590" lon="-0.2568810">
        <ele>2108.0</ele>
        <time>2020-09-12T09:32:21Z</time>
      </trkpt>
      <trkpt lat="42.8316500" lon="-0.2568870">
        <ele>2108.2</ele>
        <time>2020-09-12T09:32:22Z</time>
      </trkpt>
      <trkpt lat="42.8316350" lon="-0.2569060">
        <ele>2108.4</ele>
        <time>2020-09-12T09:32:24Z</time>
      </trkpt>
      <trkpt lat="42.8316100" lon="-0.2569340">
        <ele>2109.2</ele>
        <time>2020-09-12T09:32:28Z</time>
      </trkpt>
      <trkpt lat="42.8315920" lon="-0.2569540">
        <ele>2109.8</ele>
        <time>2020-09-12T09:32:31Z</time>
      </trkpt>
      <trkpt lat="42.8315740" lon="-0.2569950">
        <ele>2110.4</ele>
        <time>2020-09-12T09:32:35Z</time>
      </trkpt>
      <trkpt lat="42.8315640" lon="-0.2570130">
        <ele>2110.8</ele>
        <time>2020-09-12T09:32:37Z</time>
      </trkpt>
      <trkpt lat="42.8315530" lon="-0.2570260">
        <ele>2111.0</ele>
        <time>2020-09-12T09:32:39Z</time>
      </trkpt>
      <trkpt lat="42.8315440" lon="-0.2570340">
        <ele>2111.2</ele>
        <time>2020-09-12T09:32:41Z</time>
      </trkpt>
      <trkpt lat="42.8315310" lon="-0.2570490">
        <ele>2111.6</ele>
        <time>2020-09-12T09:32:43Z</time>
      </trkpt>
      <trkpt lat="42.8315100" lon="-0.2570800">
        <ele>2112.4</ele>
        <time>2020-09-12T09:32:47Z</time>
      </trkpt>
      <trkpt lat="42.8314970" lon="-0.2570890">
        <ele>2112.8</ele>
        <time>2020-09-12T09:32:49Z</time>
      </trkpt>
      <trkpt lat="42.8314830" lon="-0.2571030">
        <ele>2113.0</ele>
        <time>2020-09-12T09:32:51Z</time>
      </trkpt>
      <trkpt lat="42.8314700" lon="-0.2571160">
        <ele>2113.2</ele>
        <time>2020-09-12T09:32:53Z</time>
      </trkpt>
      <trkpt lat="42.8314580" lon="-0.2571400">
        <ele>2114.0</ele>
        <time>2020-09-12T09:32:56Z</time>
      </trkpt>
      <trkpt lat="42.8314200" lon="-0.2571710">
        <ele>2115.0</ele>
        <time>2020-09-12T09:33:01Z</time>
      </trkpt>
      <trkpt lat="42.8314010" lon="-0.2572360">
        <ele>2116.0</ele>
        <time>2020-09-12T09:33:07Z</time>
      </trkpt>
      <trkpt lat="42.8313980" lon="-0.2572440">
        <ele>2116.2</ele>
        <time>2020-09-12T09:33:08Z</time>
      </trkpt>
      <trkpt lat="42.8313910" lon="-0.2571640">
        <ele>2117.2</ele>
        <time>2020-09-12T09:33:17Z</time>
      </trkpt>
      <trkpt lat="42.8314140" lon="-0.2571010">
        <ele>2118.4</ele>
        <time>2020-09-12T09:33:22Z</time>
      </trkpt>
      <trkpt lat="42.8314430" lon="-0.2569970">
        <ele>2119.4</ele>
        <time>2020-09-12T09:33:30Z</time>
      </trkpt>
      <trkpt lat="42.8314510" lon="-0.2569710">
        <ele>2120.0</ele>
        <time>2020-09-12T09:33:33Z</time>
      </trkpt>
      <trkpt lat="42.8314590" lon="-0.2569530">
        <ele>2120.4</ele>
        <time>2020-09-12T09:33:35Z</time>
      </trkpt>
      <trkpt lat="42.8314570" lon="-0.2569460">
        <ele>2120.6</ele>
        <time>2020-09-12T09:33:36Z</time>
      </trkpt>
      <trkpt lat="42.8314530" lon="-0.2569340">
        <ele>2120.8</ele>
        <time>2020-09-12T09:33:38Z</time>
      </trkpt>
      <trkpt lat="42.8314760" lon="-0.2568800">
        <ele>2121.4</ele>
        <time>2020-09-12T09:33:42Z</time>
      </trkpt>
      <trkpt lat="42.8314800" lon="-0.2568710">
        <ele>2121.6</ele>
        <time>2020-09-12T09:33:43Z</time>
      </trkpt>
      <trkpt lat="42.8314700" lon="-0.2568470">
        <ele>2121.8</ele>
        <time>2020-09-12T09:33:45Z</time>
      </trkpt>
      <trkpt lat="42.8314460" lon="-0.2568480">
        <ele>2122.2</ele>
        <time>2020-09-12T09:33:47Z</time>
      </trkpt>
      <trkpt lat="42.8314050" lon="-0.2569230">
        <ele>2122.6</ele>
        <time>2020-09-12T09:33:53Z</time>
      </trkpt>
      <trkpt lat="42.8313700" lon="-0.2569970">
        <ele>2123.8</ele>
        <time>2020-09-12T09:33:59Z</time>
      </trkpt>
      <trkpt lat="42.8313470" lon="-0.2570310">
        <ele>2124.2</ele>
        <time>2020-09-12T09:34:02Z</time>
      </trkpt>
      <trkpt lat="42.8313290" lon="-0.2570790">
        <ele>2124.8</ele>
        <time>2020-09-12T09:34:06Z</time>
      </trkpt>
      <trkpt lat="42.8313250" lon="-0.2570890">
        <ele>2125.0</ele>
        <time>2020-09-12T09:34:07Z</time>
      </trkpt>
      <trkpt lat="42.8312770" lon="-0.2571510">
        <ele>2126.0</ele>
        <time>2020-09-12T09:34:15Z</time>
      </trkpt>
      <trkpt lat="42.8312490" lon="-0.2571940">
        <ele>2127.0</ele>
        <time>2020-09-12T09:34:20Z</time>
      </trkpt>
      <trkpt lat="42.8312420" lon="-0.2572020">
        <ele>2127.4</ele>
        <time>2020-09-12T09:34:22Z</time>
      </trkpt>
      <trkpt lat="42.8312390" lon="-0.2571790">
        <ele>2128.0</ele>
        <time>2020-09-12T09:34:25Z</time>
      </trkpt>
      <trkpt lat="42.8312440" lon="-0.2571630">
        <ele>2128.0</ele>
        <time>2020-09-12T09:34:26Z</time>
      </trkpt>
      <trkpt lat="42.8312530" lon="-0.2571300">
        <ele>2128.4</ele>
        <time>2020-09-12T09:34:29Z</time>
      </trkpt>
      <trkpt lat="42.8312650" lon="-0.2570850">
        <ele>2129.0</ele>
        <time>2020-09-12T09:34:33Z</time>
      </trkpt>
      <trkpt lat="42.8312680" lon="-0.2570740">
        <ele>2129.2</ele>
        <time>2020-09-12T09:34:34Z</time>
      </trkpt>
      <trkpt lat="42.8312860" lon="-0.2570020">
        <ele>2130.2</ele>
        <time>2020-09-12T09:34:40Z</time>
      </trkpt>
      <trkpt lat="42.8312870" lon="-0.2569740">
        <ele>2130.8</ele>
        <time>2020-09-12T09:34:43Z</time>
      </trkpt>
      <trkpt lat="42.8312890" lon="-0.2569540">
        <ele>2131.2</ele>
        <time>2020-09-12T09:34:46Z</time>
      </trkpt>
      <trkpt lat="42.8312460" lon="-0.2569640">
        <ele>2132.2</ele>
        <time>2020-09-12T09:34:53Z</time>
      </trkpt>
      <trkpt lat="42.8312360" lon="-0.2569850">
        <ele>2132.4</ele>
        <time>2020-09-12T09:34:55Z</time>
      </trkpt>
      <trkpt lat="42.8312210" lon="-0.2570110">
        <ele>2132.8</ele>
        <time>2020-09-12T09:34:57Z</time>
      </trkpt>
      <trkpt lat="42.8311960" lon="-0.2570500">
        <ele>2133.6</ele>
        <time>2020-09-12T09:35:01Z</time>
      </trkpt>
      <trkpt lat="42.8311760" lon="-0.2570930">
        <ele>2134.2</ele>
        <time>2020-09-12T09:35:05Z</time>
      </trkpt>
      <trkpt lat="42.8311630" lon="-0.2571220">
        <ele>2134.6</ele>
        <time>2020-09-12T09:35:08Z</time>
      </trkpt>
      <trkpt lat="42.8311560" lon="-0.2571260">
        <ele>2134.8</ele>
        <time>2020-09-12T09:35:09Z</time>
      </trkpt>
      <trkpt lat="42.8311460" lon="-0.2571350">
        <ele>2135.2</ele>
        <time>2020-09-12T09:35:11Z</time>
      </trkpt>
      <trkpt lat="42.8311420" lon="-0.2570910">
        <ele>2135.8</ele>
        <time>2020-09-12T09:35:16Z</time>
      </trkpt>
      <trkpt lat="42.8311610" lon="-0.2570060">
        <ele>2137.0</ele>
        <time>2020-09-12T09:35:22Z</time>
      </trkpt>
      <trkpt lat="42.8311790" lon="-0.2569170">
        <ele>2138.0</ele>
        <time>2020-09-12T09:35:29Z</time>
      </trkpt>
      <trkpt lat="42.8311910" lon="-0.2568850">
        <ele>2138.4</ele>
        <time>2020-09-12T09:35:32Z</time>
      </trkpt>
      <trkpt lat="42.8311920" lon="-0.2568670">
        <ele>2138.8</ele>
        <time>2020-09-12T09:35:34Z</time>
      </trkpt>
      <trkpt lat="42.8311840" lon="-0.2568580">
        <ele>2139.2</ele>
        <time>2020-09-12T09:35:36Z</time>
      </trkpt>
      <trkpt lat="42.8311590" lon="-0.2568940">
        <ele>2139.8</ele>
        <time>2020-09-12T09:35:40Z</time>
      </trkpt>
      <trkpt lat="42.8311350" lon="-0.2569100">
        <ele>2140.2</ele>
        <time>2020-09-12T09:35:43Z</time>
      </trkpt>
      <trkpt lat="42.8311290" lon="-0.2569180">
        <ele>2140.4</ele>
        <time>2020-09-12T09:35:44Z</time>
      </trkpt>
      <trkpt lat="42.8311130" lon="-0.2569430">
        <ele>2141.2</ele>
        <time>2020-09-12T09:35:47Z</time>
      </trkpt>
      <trkpt lat="42.8311060" lon="-0.2569520">
        <ele>2141.4</ele>
        <time>2020-09-12T09:35:48Z</time>
      </trkpt>
      <trkpt lat="42.8311020" lon="-0.2569610">
        <ele>2141.6</ele>
        <time>2020-09-12T09:35:49Z</time>
      </trkpt>
      <trkpt lat="42.8310860" lon="-0.2569890">
        <ele>2142.0</ele>
        <time>2020-09-12T09:35:52Z</time>
      </trkpt>
      <trkpt lat="42.8310780" lon="-0.2569960">
        <ele>2142.4</ele>
        <time>2020-09-12T09:35:53Z</time>
      </trkpt>
      <trkpt lat="42.8310490" lon="-0.2570380">
        <ele>2143.4</ele>
        <time>2020-09-12T09:35:58Z</time>
      </trkpt>
      <trkpt lat="42.8310320" lon="-0.2570610">
        <ele>2143.8</ele>
        <time>2020-09-12T09:36:01Z</time>
      </trkpt>
      <trkpt lat="42.8310290" lon="-0.2570660">
        <ele>2144.0</ele>
        <time>2020-09-12T09:36:02Z</time>
      </trkpt>
      <trkpt lat="42.8310230" lon="-0.2570850">
        <ele>2144.4</ele>
        <time>2020-09-12T09:36:05Z</time>
      </trkpt>
      <trkpt lat="42.8309870" lon="-0.2571340">
        <ele>2145.6</ele>
        <time>2020-09-12T09:36:13Z</time>
      </trkpt>
      <trkpt lat="42.8309810" lon="-0.2571770">
        <ele>2146.6</ele>
        <time>2020-09-12T09:36:17Z</time>
      </trkpt>
      <trkpt lat="42.8309540" lon="-0.2572190">
        <ele>2147.0</ele>
        <time>2020-09-12T09:36:21Z</time>
      </trkpt>
      <trkpt lat="42.8309500" lon="-0.2572420">
        <ele>2147.2</ele>
        <time>2020-09-12T09:36:23Z</time>
      </trkpt>
      <trkpt lat="42.8309420" lon="-0.2573060">
        <ele>2147.8</ele>
        <time>2020-09-12T09:36:29Z</time>
      </trkpt>
      <trkpt lat="42.8309450" lon="-0.2573830">
        <ele>2148.8</ele>
        <time>2020-09-12T09:36:35Z</time>
      </trkpt>
      <trkpt lat="42.8309440" lon="-0.2573900">
        <ele>2149.0</ele>
        <time>2020-09-12T09:36:36Z</time>
      </trkpt>
      <trkpt lat="42.8309260" lon="-0.2573780">
        <ele>2149.4</ele>
        <time>2020-09-12T09:36:40Z</time>
      </trkpt>
      <trkpt lat="42.8309180" lon="-0.2573790">
        <ele>2149.6</ele>
        <time>2020-09-12T09:36:41Z</time>
      </trkpt>
      <trkpt lat="42.8309050" lon="-0.2573860">
        <ele>2150.0</ele>
        <time>2020-09-12T09:36:43Z</time>
      </trkpt>
      <trkpt lat="42.8308770" lon="-0.2574090">
        <ele>2151.2</ele>
        <time>2020-09-12T09:36:49Z</time>
      </trkpt>
      <trkpt lat="42.8308120" lon="-0.2573840">
        <ele>2152.2</ele>
        <time>2020-09-12T09:36:56Z</time>
      </trkpt>
      <trkpt lat="42.8307380" lon="-0.2573970">
        <ele>2153.2</ele>
        <time>2020-09-12T09:37:04Z</time>
      </trkpt>
      <trkpt lat="42.8307310" lon="-0.2573980">
        <ele>2153.4</ele>
        <time>2020-09-12T09:37:05Z</time>
      </trkpt>
      <trkpt lat="42.8306610" lon="-0.2573890">
        <ele>2153.6</ele>
        <time>2020-09-12T09:37:13Z</time>
      </trkpt>
      <trkpt lat="42.8306540" lon="-0.2573870">
        <ele>2153.6</ele>
        <time>2020-09-12T09:37:14Z</time>
      </trkpt>
      <trkpt lat="42.8306050" lon="-0.2573860">
        <ele>2153.6</ele>
        <time>2020-09-12T09:37:18Z</time>
      </trkpt>
      <trkpt lat="42.8304290" lon="-0.2573120">
        <ele>2154.0</ele>
        <time>2020-09-12T09:37:33Z</time>
      </trkpt>
      <trkpt lat="42.8302510" lon="-0.2572950">
        <ele>2153.4</ele>
        <time>2020-09-12T09:37:47Z</time>
      </trkpt>
      <trkpt lat="42.8301390" lon="-0.2573380">
        <ele>2153.2</ele>
        <time>2020-09-12T09:37:57Z</time>
      </trkpt>
      <trkpt lat="42.8299620" lon="-0.2574230">
        <ele>2153.6</ele>
        <time>2020-09-12T09:38:11Z</time>
      </trkpt>
      <trkpt lat="42.8297910" lon="-0.2575320">
        <ele>2152.8</ele>
        <time>2020-09-12T09:38:25Z</time>
      </trkpt>
      <trkpt lat="42.8296880" lon="-0.2576160">
        <ele>2152.6</ele>
        <time>2020-09-12T09:38:35Z</time>
      </trkpt>
      <trkpt lat="42.8296660" lon="-0.2576380">
        <ele>2152.2</ele>
        <time>2020-09-12T09:38:38Z</time>
      </trkpt>
      <trkpt lat="42.8295970" lon="-0.2576560">
        <ele>2151.0</ele>
        <time>2020-09-12T09:38:43Z</time>
      </trkpt>
      <trkpt lat="42.8295720" lon="-0.2576670">
        <ele>2150.4</ele>
        <time>2020-09-12T09:38:45Z</time>
      </trkpt>
      <trkpt lat="42.8295460" lon="-0.2576750">
        <ele>2150.0</ele>
        <time>2020-09-12T09:38:47Z</time>
      </trkpt>
      <trkpt lat="42.8293710" lon="-0.2577350">
        <ele>2151.0</ele>
        <time>2020-09-12T09:39:02Z</time>
      </trkpt>
      <trkpt lat="42.8293610" lon="-0.2577380">
        <ele>2151.0</ele>
        <time>2020-09-12T09:39:03Z</time>
      </trkpt>
      <trkpt lat="42.8292390" lon="-0.2577720">
        <ele>2152.2</ele>
        <time>2020-09-12T09:39:13Z</time>
      </trkpt>
      <trkpt lat="42.8290710" lon="-0.2578170">
        <ele>2153.2</ele>
        <time>2020-09-12T09:39:28Z</time>
      </trkpt>
      <trkpt lat="42.8289240" lon="-0.2578870">
        <ele>2154.2</ele>
        <time>2020-09-12T09:39:41Z</time>
      </trkpt>
      <trkpt lat="42.8288410" lon="-0.2579270">
        <ele>2155.4</ele>
        <time>2020-09-12T09:39:49Z</time>
      </trkpt>
      <trkpt lat="42.8287560" lon="-0.2579380">
        <ele>2156.4</ele>
        <time>2020-09-12T09:39:57Z</time>
      </trkpt>
      <trkpt lat="42.8286170" lon="-0.2579640">
        <ele>2157.4</ele>
        <time>2020-09-12T09:40:08Z</time>
      </trkpt>
      <trkpt lat="42.8285750" lon="-0.2579830">
        <ele>2157.8</ele>
        <time>2020-09-12T09:40:12Z</time>
      </trkpt>
      <trkpt lat="42.8285450" lon="-0.2579910">
        <ele>2158.4</ele>
        <time>2020-09-12T09:40:15Z</time>
      </trkpt>
      <trkpt lat="42.8284420" lon="-0.2580380">
        <ele>2159.6</ele>
        <time>2020-09-12T09:40:25Z</time>
      </trkpt>
      <trkpt lat="42.8283520" lon="-0.2580450">
        <ele>2160.6</ele>
        <time>2020-09-12T09:40:33Z</time>
      </trkpt>
      <trkpt lat="42.8282670" lon="-0.2580290">
        <ele>2161.6</ele>
        <time>2020-09-12T09:40:42Z</time>
      </trkpt>
      <trkpt lat="42.8281920" lon="-0.2580350">
        <ele>2162.8</ele>
        <time>2020-09-12T09:40:50Z</time>
      </trkpt>
      <trkpt lat="42.8281260" lon="-0.2580280">
        <ele>2163.8</ele>
        <time>2020-09-12T09:40:57Z</time>
      </trkpt>
      <trkpt lat="42.8280400" lon="-0.2580220">
        <ele>2165.2</ele>
        <time>2020-09-12T09:41:06Z</time>
      </trkpt>
      <trkpt lat="42.8280000" lon="-0.2580280">
        <ele>2165.8</ele>
        <time>2020-09-12T09:41:10Z</time>
      </trkpt>
      <trkpt lat="42.8279180" lon="-0.2580280">
        <ele>2166.2</ele>
        <time>2020-09-12T09:41:17Z</time>
      </trkpt>
      <trkpt lat="42.8278300" lon="-0.2580210">
        <ele>2167.2</ele>
        <time>2020-09-12T09:41:24Z</time>
      </trkpt>
      <trkpt lat="42.8277340" lon="-0.2580110">
        <ele>2168.2</ele>
        <time>2020-09-12T09:41:33Z</time>
      </trkpt>
      <trkpt lat="42.8276550" lon="-0.2580060">
        <ele>2169.4</ele>
        <time>2020-09-12T09:41:41Z</time>
      </trkpt>
      <trkpt lat="42.8275700" lon="-0.2579870">
        <ele>2170.4</ele>
        <time>2020-09-12T09:41:49Z</time>
      </trkpt>
      <trkpt lat="42.8275440" lon="-0.2579800">
        <ele>2170.8</ele>
        <time>2020-09-12T09:41:52Z</time>
      </trkpt>
      <trkpt lat="42.8274960" lon="-0.2579670">
        <ele>2171.6</ele>
        <time>2020-09-12T09:41:57Z</time>
      </trkpt>
      <trkpt lat="42.8274390" lon="-0.2579530">
        <ele>2172.6</ele>
        <time>2020-09-12T09:42:02Z</time>
      </trkpt>
      <trkpt lat="42.8273980" lon="-0.2579370">
        <ele>2173.2</ele>
        <time>2020-09-12T09:42:06Z</time>
      </trkpt>
      <trkpt lat="42.8273560" lon="-0.2579300">
        <ele>2173.8</ele>
        <time>2020-09-12T09:42:11Z</time>
      </trkpt>
      <trkpt lat="42.8273010" lon="-0.2579200">
        <ele>2174.8</ele>
        <time>2020-09-12T09:42:16Z</time>
      </trkpt>
      <trkpt lat="42.8272890" lon="-0.2579180">
        <ele>2175.0</ele>
        <time>2020-09-12T09:42:17Z</time>
      </trkpt>
      <trkpt lat="42.8272590" lon="-0.2579150">
        <ele>2175.4</ele>
        <time>2020-09-12T09:42:20Z</time>
      </trkpt>
      <trkpt lat="42.8272400" lon="-0.2579150">
        <ele>2175.6</ele>
        <time>2020-09-12T09:42:22Z</time>
      </trkpt>
      <trkpt lat="42.8272220" lon="-0.2579110">
        <ele>2176.0</ele>
        <time>2020-09-12T09:42:24Z</time>
      </trkpt>
      <trkpt lat="42.8272130" lon="-0.2579040">
        <ele>2176.2</ele>
        <time>2020-09-12T09:42:25Z</time>
      </trkpt>
      <trkpt lat="42.8271120" lon="-0.2578890">
        <ele>2177.4</ele>
        <time>2020-09-12T09:42:34Z</time>
      </trkpt>
      <trkpt lat="42.8270310" lon="-0.2578800">
        <ele>2178.4</ele>
        <time>2020-09-12T09:42:43Z</time>
      </trkpt>
      <trkpt lat="42.8269600" lon="-0.2578970">
        <ele>2179.6</ele>
        <time>2020-09-12T09:42:51Z</time>
      </trkpt>
      <trkpt lat="42.8268930" lon="-0.2579020">
        <ele>2180.8</ele>
        <time>2020-09-12T09:42:57Z</time>
      </trkpt>
      <trkpt lat="42.8268840" lon="-0.2579070">
        <ele>2181.0</ele>
        <time>2020-09-12T09:42:58Z</time>
      </trkpt>
      <trkpt lat="42.8268130" lon="-0.2579310">
        <ele>2181.8</ele>
        <time>2020-09-12T09:43:06Z</time>
      </trkpt>
      <trkpt lat="42.8267810" lon="-0.2579440">
        <ele>2182.8</ele>
        <time>2020-09-12T09:43:10Z</time>
      </trkpt>
      <trkpt lat="42.8266790" lon="-0.2579710">
        <ele>2184.0</ele>
        <time>2020-09-12T09:43:20Z</time>
      </trkpt>
      <trkpt lat="42.8266290" lon="-0.2579460">
        <ele>2184.6</ele>
        <time>2020-09-12T09:43:25Z</time>
      </trkpt>
      <trkpt lat="42.8265990" lon="-0.2579460">
        <ele>2185.2</ele>
        <time>2020-09-12T09:43:28Z</time>
      </trkpt>
      <trkpt lat="42.8265870" lon="-0.2579450">
        <ele>2185.2</ele>
        <time>2020-09-12T09:43:29Z</time>
      </trkpt>
      <trkpt lat="42.8265350" lon="-0.2579530">
        <ele>2186.2</ele>
        <time>2020-09-12T09:43:35Z</time>
      </trkpt>
      <trkpt lat="42.8264660" lon="-0.2579770">
        <ele>2187.2</ele>
        <time>2020-09-12T09:43:42Z</time>
      </trkpt>
      <trkpt lat="42.8264000" lon="-0.2579960">
        <ele>2188.2</ele>
        <time>2020-09-12T09:43:49Z</time>
      </trkpt>
      <trkpt lat="42.8263510" lon="-0.2580150">
        <ele>2189.2</ele>
        <time>2020-09-12T09:43:54Z</time>
      </trkpt>
      <trkpt lat="42.8263070" lon="-0.2580080">
        <ele>2190.4</ele>
        <time>2020-09-12T09:44:00Z</time>
      </trkpt>
      <trkpt lat="42.8262490" lon="-0.2580190">
        <ele>2190.8</ele>
        <time>2020-09-12T09:44:06Z</time>
      </trkpt>
      <trkpt lat="42.8262040" lon="-0.2580450">
        <ele>2191.4</ele>
        <time>2020-09-12T09:44:11Z</time>
      </trkpt>
      <trkpt lat="42.8261300" lon="-0.2580520">
        <ele>2192.4</ele>
        <time>2020-09-12T09:44:19Z</time>
      </trkpt>
      <trkpt lat="42.8260880" lon="-0.2580360">
        <ele>2193.0</ele>
        <time>2020-09-12T09:44:24Z</time>
      </trkpt>
      <trkpt lat="42.8260520" lon="-0.2580190">
        <ele>2193.4</ele>
        <time>2020-09-12T09:44:28Z</time>
      </trkpt>
      <trkpt lat="42.8259850" lon="-0.2580250">
        <ele>2194.4</ele>
        <time>2020-09-12T09:44:35Z</time>
      </trkpt>
      <trkpt lat="42.8259100" lon="-0.2580290">
        <ele>2195.6</ele>
        <time>2020-09-12T09:44:42Z</time>
      </trkpt>
      <trkpt lat="42.8258220" lon="-0.2580280">
        <ele>2196.6</ele>
        <time>2020-09-12T09:44:50Z</time>
      </trkpt>
      <trkpt lat="42.8258150" lon="-0.2580300">
        <ele>2196.8</ele>
        <time>2020-09-12T09:44:51Z</time>
      </trkpt>
      <trkpt lat="42.8257710" lon="-0.2580290">
        <ele>2197.8</ele>
        <time>2020-09-12T09:44:55Z</time>
      </trkpt>
      <trkpt lat="42.8257030" lon="-0.2580210">
        <ele>2198.8</ele>
        <time>2020-09-12T09:45:01Z</time>
      </trkpt>
      <trkpt lat="42.8256270" lon="-0.2580010">
        <ele>2199.8</ele>
        <time>2020-09-12T09:45:08Z</time>
      </trkpt>
      <trkpt lat="42.8256170" lon="-0.2579990">
        <ele>2200.0</ele>
        <time>2020-09-12T09:45:09Z</time>
      </trkpt>
      <trkpt lat="42.8255270" lon="-0.2580020">
        <ele>2200.8</ele>
        <time>2020-09-12T09:45:18Z</time>
      </trkpt>
      <trkpt lat="42.8255110" lon="-0.2580050">
        <ele>2201.0</ele>
        <time>2020-09-12T09:45:19Z</time>
      </trkpt>
      <trkpt lat="42.8254820" lon="-0.2580160">
        <ele>2201.6</ele>
        <time>2020-09-12T09:45:22Z</time>
      </trkpt>
      <trkpt lat="42.8254580" lon="-0.2580210">
        <ele>2201.8</ele>
        <time>2020-09-12T09:45:25Z</time>
      </trkpt>
      <trkpt lat="42.8254520" lon="-0.2580280">
        <ele>2202.0</ele>
        <time>2020-09-12T09:45:26Z</time>
      </trkpt>
      <trkpt lat="42.8254250" lon="-0.2580320">
        <ele>2202.2</ele>
        <time>2020-09-12T09:45:29Z</time>
      </trkpt>
      <trkpt lat="42.8253370" lon="-0.2580510">
        <ele>2203.0</ele>
        <time>2020-09-12T09:45:37Z</time>
      </trkpt>
      <trkpt lat="42.8252760" lon="-0.2580650">
        <ele>2203.6</ele>
        <time>2020-09-12T09:45:43Z</time>
      </trkpt>
      <trkpt lat="42.8252620" lon="-0.2580690">
        <ele>2204.0</ele>
        <time>2020-09-12T09:45:45Z</time>
      </trkpt>
      <trkpt lat="42.8252150" lon="-0.2580880">
        <ele>2205.2</ele>
        <time>2020-09-12T09:45:50Z</time>
      </trkpt>
      <trkpt lat="42.8251350" lon="-0.2581510">
        <ele>2206.4</ele>
        <time>2020-09-12T09:46:00Z</time>
      </trkpt>
      <trkpt lat="42.8250930" lon="-0.2582100">
        <ele>2206.6</ele>
        <time>2020-09-12T09:46:06Z</time>
      </trkpt>
      <trkpt lat="42.8250710" lon="-0.2582840">
        <ele>2207.4</ele>
        <time>2020-09-12T09:46:11Z</time>
      </trkpt>
      <trkpt lat="42.8250560" lon="-0.2583010">
        <ele>2208.0</ele>
        <time>2020-09-12T09:46:13Z</time>
      </trkpt>
      <trkpt lat="42.8250250" lon="-0.2583210">
        <ele>2208.6</ele>
        <time>2020-09-12T09:46:16Z</time>
      </trkpt>
      <trkpt lat="42.8249580" lon="-0.2583550">
        <ele>2209.8</ele>
        <time>2020-09-12T09:46:24Z</time>
      </trkpt>
      <trkpt lat="42.8248620" lon="-0.2583860">
        <ele>2210.8</ele>
        <time>2020-09-12T09:46:34Z</time>
      </trkpt>
      <trkpt lat="42.8248030" lon="-0.2584320">
        <ele>2211.8</ele>
        <time>2020-09-12T09:46:40Z</time>
      </trkpt>
      <trkpt lat="42.8247600" lon="-0.2584770">
        <ele>2212.8</ele>
        <time>2020-09-12T09:46:45Z</time>
      </trkpt>
      <trkpt lat="42.8247010" lon="-0.2585330">
        <ele>2213.8</ele>
        <time>2020-09-12T09:46:52Z</time>
      </trkpt>
      <trkpt lat="42.8246950" lon="-0.2585420">
        <ele>2214.0</ele>
        <time>2020-09-12T09:46:53Z</time>
      </trkpt>
      <trkpt lat="42.8246400" lon="-0.2585780">
        <ele>2215.2</ele>
        <time>2020-09-12T09:46:59Z</time>
      </trkpt>
      <trkpt lat="42.8245800" lon="-0.2586280">
        <ele>2216.2</ele>
        <time>2020-09-12T09:47:06Z</time>
      </trkpt>
      <trkpt lat="42.8244360" lon="-0.2587910">
        <ele>2217.0</ele>
        <time>2020-09-12T09:47:21Z</time>
      </trkpt>
      <trkpt lat="42.8243770" lon="-0.2589230">
        <ele>2215.4</ele>
        <time>2020-09-12T09:47:30Z</time>
      </trkpt>
      <trkpt lat="42.8243500" lon="-0.2589290">
        <ele>2215.6</ele>
        <time>2020-09-12T09:47:33Z</time>
      </trkpt>
      <trkpt lat="42.8243240" lon="-0.2589440">
        <ele>2216.2</ele>
        <time>2020-09-12T09:47:36Z</time>
      </trkpt>
      <trkpt lat="42.8243050" lon="-0.2589560">
        <ele>2216.6</ele>
        <time>2020-09-12T09:47:38Z</time>
      </trkpt>
      <trkpt lat="42.8242630" lon="-0.2589850">
        <ele>2217.4</ele>
        <time>2020-09-12T09:47:43Z</time>
      </trkpt>
      <trkpt lat="42.8242140" lon="-0.2590090">
        <ele>2218.6</ele>
        <time>2020-09-12T09:47:48Z</time>
      </trkpt>
      <trkpt lat="42.8241420" lon="-0.2590360">
        <ele>2219.6</ele>
        <time>2020-09-12T09:47:54Z</time>
      </trkpt>
      <trkpt lat="42.8240470" lon="-0.2591270">
        <ele>2220.8</ele>
        <time>2020-09-12T09:48:03Z</time>
      </trkpt>
      <trkpt lat="42.8240080" lon="-0.2591670">
        <ele>2221.6</ele>
        <time>2020-09-12T09:48:09Z</time>
      </trkpt>
      <trkpt lat="42.8239800" lon="-0.2592030">
        <ele>2221.8</ele>
        <time>2020-09-12T09:48:13Z</time>
      </trkpt>
      <trkpt lat="42.8239360" lon="-0.2592490">
        <ele>2223.0</ele>
        <time>2020-09-12T09:48:19Z</time>
      </trkpt>
      <trkpt lat="42.8238870" lon="-0.2592720">
        <ele>2224.2</ele>
        <time>2020-09-12T09:48:25Z</time>
      </trkpt>
      <trkpt lat="42.8238360" lon="-0.2593150">
        <ele>2225.4</ele>
        <time>2020-09-12T09:48:31Z</time>
      </trkpt>
      <trkpt lat="42.8237730" lon="-0.2593490">
        <ele>2226.4</ele>
        <time>2020-09-12T09:48:38Z</time>
      </trkpt>
      <trkpt lat="42.8237370" lon="-0.2593950">
        <ele>2227.4</ele>
        <time>2020-09-12T09:48:42Z</time>
      </trkpt>
      <trkpt lat="42.8236630" lon="-0.2594390">
        <ele>2228.2</ele>
        <time>2020-09-12T09:48:52Z</time>
      </trkpt>
      <trkpt lat="42.8236500" lon="-0.2594600">
        <ele>2228.4</ele>
        <time>2020-09-12T09:48:54Z</time>
      </trkpt>
      <trkpt lat="42.8236470" lon="-0.2594720">
        <ele>2228.6</ele>
        <time>2020-09-12T09:48:55Z</time>
      </trkpt>
      <trkpt lat="42.8236040" lon="-0.2595300">
        <ele>2229.6</ele>
        <time>2020-09-12T09:49:01Z</time>
      </trkpt>
      <trkpt lat="42.8235400" lon="-0.2596060">
        <ele>2230.6</ele>
        <time>2020-09-12T09:49:09Z</time>
      </trkpt>
      <trkpt lat="42.8233850" lon="-0.2597150">
        <ele>2231.4</ele>
        <time>2020-09-12T09:49:26Z</time>
      </trkpt>
      <trkpt lat="42.8233700" lon="-0.2597430">
        <ele>2231.6</ele>
        <time>2020-09-12T09:49:29Z</time>
      </trkpt>
      <trkpt lat="42.8233250" lon="-0.2597940">
        <ele>2232.8</ele>
        <time>2020-09-12T09:49:35Z</time>
      </trkpt>
      <trkpt lat="42.8233180" lon="-0.2598050">
        <ele>2232.8</ele>
        <time>2020-09-12T09:49:36Z</time>
      </trkpt>
      <trkpt lat="42.8232850" lon="-0.2598270">
        <ele>2233.4</ele>
        <time>2020-09-12T09:49:40Z</time>
      </trkpt>
      <trkpt lat="42.8232660" lon="-0.2598380">
        <ele>2233.8</ele>
        <time>2020-09-12T09:49:42Z</time>
      </trkpt>
      <trkpt lat="42.8232370" lon="-0.2598530">
        <ele>2234.4</ele>
        <time>2020-09-12T09:49:45Z</time>
      </trkpt>
      <trkpt lat="42.8232020" lon="-0.2598570">
        <ele>2234.8</ele>
        <time>2020-09-12T09:49:48Z</time>
      </trkpt>
      <trkpt lat="42.8231520" lon="-0.2599170">
        <ele>2235.8</ele>
        <time>2020-09-12T09:49:54Z</time>
      </trkpt>
      <trkpt lat="42.8230950" lon="-0.2599540">
        <ele>2237.0</ele>
        <time>2020-09-12T09:50:01Z</time>
      </trkpt>
      <trkpt lat="42.8230880" lon="-0.2599650">
        <ele>2237.4</ele>
        <time>2020-09-12T09:50:03Z</time>
      </trkpt>
      <trkpt lat="42.8230750" lon="-0.2599810">
        <ele>2237.6</ele>
        <time>2020-09-12T09:50:05Z</time>
      </trkpt>
      <trkpt lat="42.8230570" lon="-0.2600030">
        <ele>2237.8</ele>
        <time>2020-09-12T09:50:08Z</time>
      </trkpt>
      <trkpt lat="42.8230470" lon="-0.2600060">
        <ele>2238.0</ele>
        <time>2020-09-12T09:50:10Z</time>
      </trkpt>
      <trkpt lat="42.8229930" lon="-0.2599430">
        <ele>2238.6</ele>
        <time>2020-09-12T09:50:38Z</time>
      </trkpt>
      <trkpt lat="42.8229540" lon="-0.2599190">
        <ele>2238.6</ele>
        <time>2020-09-12T09:50:43Z</time>
      </trkpt>
      <trkpt lat="42.8229230" lon="-0.2598770">
        <ele>2238.2</ele>
        <time>2020-09-12T09:50:49Z</time>
      </trkpt>
      <trkpt lat="42.8229140" lon="-0.2598250">
        <ele>2237.4</ele>
        <time>2020-09-12T09:50:54Z</time>
      </trkpt>
      <trkpt lat="42.8229370" lon="-0.2597720">
        <ele>2237.0</ele>
        <time>2020-09-12T09:50:58Z</time>
      </trkpt>
      <trkpt lat="42.8229180" lon="-0.2596610">
        <ele>2237.4</ele>
        <time>2020-09-12T09:51:08Z</time>
      </trkpt>
      <trkpt lat="42.8229180" lon="-0.2596540">
        <ele>2238.0</ele>
        <time>2020-09-12T09:51:11Z</time>
      </trkpt>
      <trkpt lat="42.8229390" lon="-0.2596400">
        <ele>2239.2</ele>
        <time>2020-09-12T09:51:16Z</time>
      </trkpt>
      <trkpt lat="42.8229690" lon="-0.2595850">
        <ele>2240.2</ele>
        <time>2020-09-12T09:51:22Z</time>
      </trkpt>
      <trkpt lat="42.8229860" lon="-0.2595270">
        <ele>2241.4</ele>
        <time>2020-09-12T09:51:28Z</time>
      </trkpt>
      <trkpt lat="42.8230180" lon="-0.2594610">
        <ele>2242.4</ele>
        <time>2020-09-12T09:51:34Z</time>
      </trkpt>
      <trkpt lat="42.8230220" lon="-0.2594490">
        <ele>2242.4</ele>
        <time>2020-09-12T09:51:35Z</time>
      </trkpt>
      <trkpt lat="42.8230310" lon="-0.2594390">
        <ele>2242.6</ele>
        <time>2020-09-12T09:51:36Z</time>
      </trkpt>
      <trkpt lat="42.8230420" lon="-0.2594040">
        <ele>2243.4</ele>
        <time>2020-09-12T09:51:39Z</time>
      </trkpt>
      <trkpt lat="42.8230450" lon="-0.2593900">
        <ele>2243.6</ele>
        <time>2020-09-12T09:51:40Z</time>
      </trkpt>
      <trkpt lat="42.8230470" lon="-0.2593660">
        <ele>2243.8</ele>
        <time>2020-09-12T09:51:42Z</time>
      </trkpt>
      <trkpt lat="42.8230480" lon="-0.2593440">
        <ele>2244.2</ele>
        <time>2020-09-12T09:51:44Z</time>
      </trkpt>
      <trkpt lat="42.8230570" lon="-0.2593110">
        <ele>2244.6</ele>
        <time>2020-09-12T09:51:47Z</time>
      </trkpt>
      <trkpt lat="42.8230650" lon="-0.2592800">
        <ele>2245.0</ele>
        <time>2020-09-12T09:51:50Z</time>
      </trkpt>
      <trkpt lat="42.8230870" lon="-0.2592330">
        <ele>2245.6</ele>
        <time>2020-09-12T09:51:54Z</time>
      </trkpt>
      <trkpt lat="42.8230940" lon="-0.2592130">
        <ele>2246.2</ele>
        <time>2020-09-12T09:51:56Z</time>
      </trkpt>
      <trkpt lat="42.8231110" lon="-0.2591940">
        <ele>2246.8</ele>
        <time>2020-09-12T09:51:58Z</time>
      </trkpt>
      <trkpt lat="42.8231290" lon="-0.2591400">
        <ele>2247.8</ele>
        <time>2020-09-12T09:52:03Z</time>
      </trkpt>
      <trkpt lat="42.8231580" lon="-0.2590280">
        <ele>2248.8</ele>
        <time>2020-09-12T09:52:13Z</time>
      </trkpt>
      <trkpt lat="42.8231700" lon="-0.2589530">
        <ele>2249.8</ele>
        <time>2020-09-12T09:52:20Z</time>
      </trkpt>
      <trkpt lat="42.8231680" lon="-0.2589390">
        <ele>2250.2</ele>
        <time>2020-09-12T09:52:22Z</time>
      </trkpt>
      <trkpt lat="42.8231750" lon="-0.2589230">
        <ele>2250.6</ele>
        <time>2020-09-12T09:52:24Z</time>
      </trkpt>
      <trkpt lat="42.8231810" lon="-0.2589020">
        <ele>2251.0</ele>
        <time>2020-09-12T09:52:26Z</time>
      </trkpt>
      <trkpt lat="42.8231790" lon="-0.2588920">
        <ele>2251.4</ele>
        <time>2020-09-12T09:52:27Z</time>
      </trkpt>
      <trkpt lat="42.8231810" lon="-0.2588560">
        <ele>2251.8</ele>
        <time>2020-09-12T09:52:30Z</time>
      </trkpt>
      <trkpt lat="42.8231940" lon="-0.2588410">
        <ele>2252.2</ele>
        <time>2020-09-12T09:52:33Z</time>
      </trkpt>
      <trkpt lat="42.8231990" lon="-0.2588360">
        <ele>2252.2</ele>
        <time>2020-09-12T09:52:34Z</time>
      </trkpt>
      <trkpt lat="42.8232300" lon="-0.2587720">
        <ele>2253.2</ele>
        <time>2020-09-12T09:52:41Z</time>
      </trkpt>
      <trkpt lat="42.8232550" lon="-0.2587210">
        <ele>2254.2</ele>
        <time>2020-09-12T09:52:46Z</time>
      </trkpt>
      <trkpt lat="42.8232850" lon="-0.2586510">
        <ele>2255.2</ele>
        <time>2020-09-12T09:52:52Z</time>
      </trkpt>
      <trkpt lat="42.8232910" lon="-0.2586160">
        <ele>2255.6</ele>
        <time>2020-09-12T09:52:55Z</time>
      </trkpt>
      <trkpt lat="42.8233060" lon="-0.2585620">
        <ele>2256.4</ele>
        <time>2020-09-12T09:53:00Z</time>
      </trkpt>
      <trkpt lat="42.8233050" lon="-0.2585430">
        <ele>2256.8</ele>
        <time>2020-09-12T09:53:02Z</time>
      </trkpt>
      <trkpt lat="42.8233220" lon="-0.2585030">
        <ele>2257.4</ele>
        <time>2020-09-12T09:53:05Z</time>
      </trkpt>
      <trkpt lat="42.8233300" lon="-0.2584050">
        <ele>2258.0</ele>
        <time>2020-09-12T09:53:13Z</time>
      </trkpt>
      <trkpt lat="42.8233870" lon="-0.2582480">
        <ele>2258.2</ele>
        <time>2020-09-12T09:53:26Z</time>
      </trkpt>
      <trkpt lat="42.8233950" lon="-0.2582390">
        <ele>2258.2</ele>
        <time>2020-09-12T09:53:27Z</time>
      </trkpt>
      <trkpt lat="42.8234000" lon="-0.2582290">
        <ele>2258.4</ele>
        <time>2020-09-12T09:53:28Z</time>
      </trkpt>
      <trkpt lat="42.8234250" lon="-0.2581840">
        <ele>2259.4</ele>
        <time>2020-09-12T09:53:33Z</time>
      </trkpt>
      <trkpt lat="42.8234510" lon="-0.2581350">
        <ele>2260.4</ele>
        <time>2020-09-12T09:53:38Z</time>
      </trkpt>
      <trkpt lat="42.8234550" lon="-0.2580620">
        <ele>2261.6</ele>
        <time>2020-09-12T09:53:45Z</time>
      </trkpt>
      <trkpt lat="42.8234650" lon="-0.2580020">
        <ele>2262.4</ele>
        <time>2020-09-12T09:53:50Z</time>
      </trkpt>
      <trkpt lat="42.8234710" lon="-0.2579920">
        <ele>2262.6</ele>
        <time>2020-09-12T09:53:51Z</time>
      </trkpt>
      <trkpt lat="42.8234830" lon="-0.2579620">
        <ele>2262.8</ele>
        <time>2020-09-12T09:53:54Z</time>
      </trkpt>
      <trkpt lat="42.8234920" lon="-0.2579300">
        <ele>2263.4</ele>
        <time>2020-09-12T09:53:58Z</time>
      </trkpt>
      <trkpt lat="42.8234980" lon="-0.2579200">
        <ele>2263.6</ele>
        <time>2020-09-12T09:53:59Z</time>
      </trkpt>
      <trkpt lat="42.8235220" lon="-0.2578760">
        <ele>2264.6</ele>
        <time>2020-09-12T09:54:04Z</time>
      </trkpt>
      <trkpt lat="42.8235270" lon="-0.2578660">
        <ele>2264.8</ele>
        <time>2020-09-12T09:54:05Z</time>
      </trkpt>
      <trkpt lat="42.8235400" lon="-0.2578470">
        <ele>2265.2</ele>
        <time>2020-09-12T09:54:07Z</time>
      </trkpt>
      <trkpt lat="42.8235670" lon="-0.2578180">
        <ele>2266.0</ele>
        <time>2020-09-12T09:54:11Z</time>
      </trkpt>
      <trkpt lat="42.8236140" lon="-0.2577800">
        <ele>2267.0</ele>
        <time>2020-09-12T09:54:16Z</time>
      </trkpt>
      <trkpt lat="42.8236300" lon="-0.2577630">
        <ele>2267.2</ele>
        <time>2020-09-12T09:54:18Z</time>
      </trkpt>
      <trkpt lat="42.8236750" lon="-0.2577130">
        <ele>2268.0</ele>
        <time>2020-09-12T09:54:25Z</time>
      </trkpt>
      <trkpt lat="42.8237100" lon="-0.2576660">
        <ele>2269.2</ele>
        <time>2020-09-12T09:54:31Z</time>
      </trkpt>
      <trkpt lat="42.8237750" lon="-0.2576180">
        <ele>2270.2</ele>
        <time>2020-09-12T09:54:38Z</time>
      </trkpt>
      <trkpt lat="42.8238270" lon="-0.2575570">
        <ele>2271.4</ele>
        <time>2020-09-12T09:54:45Z</time>
      </trkpt>
      <trkpt lat="42.8238450" lon="-0.2575390">
        <ele>2272.0</ele>
        <time>2020-09-12T09:54:47Z</time>
      </trkpt>
      <trkpt lat="42.8238720" lon="-0.2575080">
        <ele>2272.4</ele>
        <time>2020-09-12T09:54:50Z</time>
      </trkpt>
      <trkpt lat="42.8239300" lon="-0.2574390">
        <ele>2273.6</ele>
        <time>2020-09-12T09:54:58Z</time>
      </trkpt>
      <trkpt lat="42.8239610" lon="-0.2573740">
        <ele>2274.0</ele>
        <time>2020-09-12T09:55:04Z</time>
      </trkpt>
      <trkpt lat="42.8239730" lon="-0.2573580">
        <ele>2274.0</ele>
        <time>2020-09-12T09:55:06Z</time>
      </trkpt>
      <trkpt lat="42.8239980" lon="-0.2573310">
        <ele>2274.8</ele>
        <time>2020-09-12T09:55:09Z</time>
      </trkpt>
      <trkpt lat="42.8240380" lon="-0.2572830">
        <ele>2275.6</ele>
        <time>2020-09-12T09:55:14Z</time>
      </trkpt>
      <trkpt lat="42.8240460" lon="-0.2572630">
        <ele>2276.0</ele>
        <time>2020-09-12T09:55:16Z</time>
      </trkpt>
      <trkpt lat="42.8240680" lon="-0.2572080">
        <ele>2277.0</ele>
        <time>2020-09-12T09:55:22Z</time>
      </trkpt>
      <trkpt lat="42.8241050" lon="-0.2571500">
        <ele>2278.0</ele>
        <time>2020-09-12T09:55:29Z</time>
      </trkpt>
      <trkpt lat="42.8241600" lon="-0.2570590">
        <ele>2279.0</ele>
        <time>2020-09-12T09:55:38Z</time>
      </trkpt>
      <trkpt lat="42.8242090" lon="-0.2569870">
        <ele>2280.2</ele>
        <time>2020-09-12T09:55:45Z</time>
      </trkpt>
      <trkpt lat="42.8242610" lon="-0.2569310">
        <ele>2281.2</ele>
        <time>2020-09-12T09:55:51Z</time>
      </trkpt>
      <trkpt lat="42.8243100" lon="-0.2568750">
        <ele>2282.2</ele>
        <time>2020-09-12T09:55:58Z</time>
      </trkpt>
      <trkpt lat="42.8243480" lon="-0.2568410">
        <ele>2282.8</ele>
        <time>2020-09-12T09:56:03Z</time>
      </trkpt>
      <trkpt lat="42.8243710" lon="-0.2568290">
        <ele>2283.4</ele>
        <time>2020-09-12T09:56:06Z</time>
      </trkpt>
      <trkpt lat="42.8243760" lon="-0.2568280">
        <ele>2283.6</ele>
        <time>2020-09-12T09:56:07Z</time>
      </trkpt>
      <trkpt lat="42.8243950" lon="-0.2568030">
        <ele>2284.2</ele>
        <time>2020-09-12T09:56:11Z</time>
      </trkpt>
      <trkpt lat="42.8243980" lon="-0.2567830">
        <ele>2284.4</ele>
        <time>2020-09-12T09:56:13Z</time>
      </trkpt>
      <trkpt lat="42.8244110" lon="-0.2567570">
        <ele>2285.0</ele>
        <time>2020-09-12T09:56:16Z</time>
      </trkpt>
      <trkpt lat="42.8244210" lon="-0.2567360">
        <ele>2285.4</ele>
        <time>2020-09-12T09:56:18Z</time>
      </trkpt>
      <trkpt lat="42.8244280" lon="-0.2567170">
        <ele>2286.0</ele>
        <time>2020-09-12T09:56:20Z</time>
      </trkpt>
      <trkpt lat="42.8244390" lon="-0.2566840">
        <ele>2286.6</ele>
        <time>2020-09-12T09:56:23Z</time>
      </trkpt>
      <trkpt lat="42.8244570" lon="-0.2566430">
        <ele>2287.6</ele>
        <time>2020-09-12T09:56:27Z</time>
      </trkpt>
      <trkpt lat="42.8244760" lon="-0.2565690">
        <ele>2287.8</ele>
        <time>2020-09-12T09:56:33Z</time>
      </trkpt>
      <trkpt lat="42.8244960" lon="-0.2565450">
        <ele>2288.4</ele>
        <time>2020-09-12T09:56:37Z</time>
      </trkpt>
      <trkpt lat="42.8245010" lon="-0.2565410">
        <ele>2288.6</ele>
        <time>2020-09-12T09:56:38Z</time>
      </trkpt>
      <trkpt lat="42.8245070" lon="-0.2565390">
        <ele>2288.6</ele>
        <time>2020-09-12T09:56:39Z</time>
      </trkpt>
      <trkpt lat="42.8245450" lon="-0.2565220">
        <ele>2289.4</ele>
        <time>2020-09-12T09:56:43Z</time>
      </trkpt>
      <trkpt lat="42.8245530" lon="-0.2565180">
        <ele>2289.6</ele>
        <time>2020-09-12T09:56:44Z</time>
      </trkpt>
      <trkpt lat="42.8245780" lon="-0.2564940">
        <ele>2290.2</ele>
        <time>2020-09-12T09:56:48Z</time>
      </trkpt>
      <trkpt lat="42.8246040" lon="-0.2564800">
        <ele>2290.4</ele>
        <time>2020-09-12T09:56:51Z</time>
      </trkpt>
      <trkpt lat="42.8246190" lon="-0.2564690">
        <ele>2290.8</ele>
        <time>2020-09-12T09:56:53Z</time>
      </trkpt>
      <trkpt lat="42.8246350" lon="-0.2564610">
        <ele>2291.2</ele>
        <time>2020-09-12T09:56:56Z</time>
      </trkpt>
      <trkpt lat="42.8246300" lon="-0.2564640">
        <ele>2291.4</ele>
        <time>2020-09-12T09:56:58Z</time>
      </trkpt>
      <trkpt lat="42.8246620" lon="-0.2564520">
        <ele>2291.4</ele>
        <time>2020-09-12T09:57:05Z</time>
      </trkpt>
      <trkpt lat="42.8246750" lon="-0.2564480">
        <ele>2291.8</ele>
        <time>2020-09-12T09:57:07Z</time>
      </trkpt>
      <trkpt lat="42.8247180" lon="-0.2564280">
        <ele>2292.2</ele>
        <time>2020-09-12T09:57:11Z</time>
      </trkpt>
      <trkpt lat="42.8247610" lon="-0.2563890">
        <ele>2292.6</ele>
        <time>2020-09-12T09:57:15Z</time>
      </trkpt>
      <trkpt lat="42.8247920" lon="-0.2563640">
        <ele>2292.8</ele>
        <time>2020-09-12T09:57:18Z</time>
      </trkpt>
      <trkpt lat="42.8248740" lon="-0.2563280">
        <ele>2294.0</ele>
        <time>2020-09-12T09:57:25Z</time>
      </trkpt>
      <trkpt lat="42.8249440" lon="-0.2562720">
        <ele>2295.0</ele>
        <time>2020-09-12T09:57:32Z</time>
      </trkpt>
      <trkpt lat="42.8250580" lon="-0.2562240">
        <ele>2296.0</ele>
        <time>2020-09-12T09:57:44Z</time>
      </trkpt>
      <trkpt lat="42.8250600" lon="-0.2562260">
        <ele>2296.2</ele>
        <time>2020-09-12T09:57:45Z</time>
      </trkpt>
      <trkpt lat="42.8250850" lon="-0.2562150">
        <ele>2296.6</ele>
        <time>2020-09-12T09:57:48Z</time>
      </trkpt>
      <trkpt lat="42.8250960" lon="-0.2562120">
        <ele>2296.8</ele>
        <time>2020-09-12T09:57:50Z</time>
      </trkpt>
      <trkpt lat="42.8251090" lon="-0.2562080">
        <ele>2297.2</ele>
        <time>2020-09-12T09:57:52Z</time>
      </trkpt>
      <trkpt lat="42.8251490" lon="-0.2561950">
        <ele>2298.2</ele>
        <time>2020-09-12T09:57:57Z</time>
      </trkpt>
      <trkpt lat="42.8251800" lon="-0.2561880">
        <ele>2299.0</ele>
        <time>2020-09-12T09:58:00Z</time>
      </trkpt>
      <trkpt lat="42.8251900" lon="-0.2561880">
        <ele>2299.4</ele>
        <time>2020-09-12T09:58:01Z</time>
      </trkpt>
      <trkpt lat="42.8252020" lon="-0.2561800">
        <ele>2299.6</ele>
        <time>2020-09-12T09:58:02Z</time>
      </trkpt>
      <trkpt lat="42.8252220" lon="-0.2561740">
        <ele>2299.8</ele>
        <time>2020-09-12T09:58:04Z</time>
      </trkpt>
      <trkpt lat="42.8252660" lon="-0.2561660">
        <ele>2300.4</ele>
        <time>2020-09-12T09:58:09Z</time>
      </trkpt>
      <trkpt lat="42.8253480" lon="-0.2561340">
        <ele>2301.6</ele>
        <time>2020-09-12T09:58:18Z</time>
      </trkpt>
      <trkpt lat="42.8254100" lon="-0.2561210">
        <ele>2302.6</ele>
        <time>2020-09-12T09:58:25Z</time>
      </trkpt>
      <trkpt lat="42.8254650" lon="-0.2560740">
        <ele>2303.6</ele>
        <time>2020-09-12T09:58:31Z</time>
      </trkpt>
      <trkpt lat="42.8254690" lon="-0.2560670">
        <ele>2303.8</ele>
        <time>2020-09-12T09:58:32Z</time>
      </trkpt>
      <trkpt lat="42.8254840" lon="-0.2560330">
        <ele>2304.2</ele>
        <time>2020-09-12T09:58:35Z</time>
      </trkpt>
      <trkpt lat="42.8254900" lon="-0.2560120">
        <ele>2304.8</ele>
        <time>2020-09-12T09:58:37Z</time>
      </trkpt>
      <trkpt lat="42.8255030" lon="-0.2559900">
        <ele>2305.0</ele>
        <time>2020-09-12T09:58:40Z</time>
      </trkpt>
      <trkpt lat="42.8255140" lon="-0.2559540">
        <ele>2305.4</ele>
        <time>2020-09-12T09:58:44Z</time>
      </trkpt>
      <trkpt lat="42.8255270" lon="-0.2559410">
        <ele>2305.8</ele>
        <time>2020-09-12T09:58:46Z</time>
      </trkpt>
      <trkpt lat="42.8255410" lon="-0.2559000">
        <ele>2307.0</ele>
        <time>2020-09-12T09:58:50Z</time>
      </trkpt>
      <trkpt lat="42.8255670" lon="-0.2558720">
        <ele>2308.0</ele>
        <time>2020-09-12T09:58:54Z</time>
      </trkpt>
      <trkpt lat="42.8256040" lon="-0.2558220">
        <ele>2309.0</ele>
        <time>2020-09-12T09:59:00Z</time>
      </trkpt>
      <trkpt lat="42.8256080" lon="-0.2558140">
        <ele>2309.2</ele>
        <time>2020-09-12T09:59:01Z</time>
      </trkpt>
      <trkpt lat="42.8256330" lon="-0.2557890">
        <ele>2310.0</ele>
        <time>2020-09-12T09:59:05Z</time>
      </trkpt>
      <trkpt lat="42.8256470" lon="-0.2557550">
        <ele>2311.2</ele>
        <time>2020-09-12T09:59:10Z</time>
      </trkpt>
      <trkpt lat="42.8256660" lon="-0.2557220">
        <ele>2312.2</ele>
        <time>2020-09-12T09:59:15Z</time>
      </trkpt>
      <trkpt lat="42.8256870" lon="-0.2556930">
        <ele>2313.2</ele>
        <time>2020-09-12T09:59:20Z</time>
      </trkpt>
      <trkpt lat="42.8257170" lon="-0.2556480">
        <ele>2314.4</ele>
        <time>2020-09-12T09:59:26Z</time>
      </trkpt>
      <trkpt lat="42.8257490" lon="-0.2556150">
        <ele>2315.4</ele>
        <time>2020-09-12T09:59:31Z</time>
      </trkpt>
      <trkpt lat="42.8258940" lon="-0.2555210">
        <ele>2316.6</ele>
        <time>2020-09-12T09:59:51Z</time>
      </trkpt>
      <trkpt lat="42.8259520" lon="-0.2555130">
        <ele>2317.0</ele>
        <time>2020-09-12T09:59:56Z</time>
      </trkpt>
      <trkpt lat="42.8259820" lon="-0.2555180">
        <ele>2317.6</ele>
        <time>2020-09-12T09:59:59Z</time>
      </trkpt>
      <trkpt lat="42.8260280" lon="-0.2555090">
        <ele>2318.0</ele>
        <time>2020-09-12T10:00:05Z</time>
      </trkpt>
      <trkpt lat="42.8260410" lon="-0.2555030">
        <ele>2318.4</ele>
        <time>2020-09-12T10:00:07Z</time>
      </trkpt>
      <trkpt lat="42.8260510" lon="-0.2555000">
        <ele>2318.8</ele>
        <time>2020-09-12T10:00:08Z</time>
      </trkpt>
      <trkpt lat="42.8260580" lon="-0.2554960">
        <ele>2319.0</ele>
        <time>2020-09-12T10:00:09Z</time>
      </trkpt>
      <trkpt lat="42.8260760" lon="-0.2554840">
        <ele>2319.2</ele>
        <time>2020-09-12T10:00:11Z</time>
      </trkpt>
      <trkpt lat="42.8260990" lon="-0.2554700">
        <ele>2319.6</ele>
        <time>2020-09-12T10:00:13Z</time>
      </trkpt>
      <trkpt lat="42.8261140" lon="-0.2554560">
        <ele>2320.0</ele>
        <time>2020-09-12T10:00:15Z</time>
      </trkpt>
      <trkpt lat="42.8261520" lon="-0.2554340">
        <ele>2320.6</ele>
        <time>2020-09-12T10:00:19Z</time>
      </trkpt>
      <trkpt lat="42.8261710" lon="-0.2554380">
        <ele>2321.2</ele>
        <time>2020-09-12T10:00:21Z</time>
      </trkpt>
      <trkpt lat="42.8262250" lon="-0.2553900">
        <ele>2322.2</ele>
        <time>2020-09-12T10:00:28Z</time>
      </trkpt>
      <trkpt lat="42.8262610" lon="-0.2553200">
        <ele>2323.2</ele>
        <time>2020-09-12T10:00:34Z</time>
      </trkpt>
      <trkpt lat="42.8262930" lon="-0.2552510">
        <ele>2324.4</ele>
        <time>2020-09-12T10:00:40Z</time>
      </trkpt>
      <trkpt lat="42.8263360" lon="-0.2552030">
        <ele>2325.4</ele>
        <time>2020-09-12T10:00:46Z</time>
      </trkpt>
      <trkpt lat="42.8263610" lon="-0.2551660">
        <ele>2326.4</ele>
        <time>2020-09-12T10:00:50Z</time>
      </trkpt>
      <trkpt lat="42.8264400" lon="-0.2550630">
        <ele>2327.6</ele>
        <time>2020-09-12T10:00:59Z</time>
      </trkpt>
      <trkpt lat="42.8264920" lon="-0.2549660">
        <ele>2328.6</ele>
        <time>2020-09-12T10:01:08Z</time>
      </trkpt>
      <trkpt lat="42.8265670" lon="-0.2548420">
        <ele>2329.6</ele>
        <time>2020-09-12T10:01:19Z</time>
      </trkpt>
      <trkpt lat="42.8266450" lon="-0.2547130">
        <ele>2330.8</ele>
        <time>2020-09-12T10:01:31Z</time>
      </trkpt>
      <trkpt lat="42.8267230" lon="-0.2546460">
        <ele>2331.8</ele>
        <time>2020-09-12T10:01:39Z</time>
      </trkpt>
      <trkpt lat="42.8267920" lon="-0.2545810">
        <ele>2332.8</ele>
        <time>2020-09-12T10:01:47Z</time>
      </trkpt>
      <trkpt lat="42.8268250" lon="-0.2545380">
        <ele>2333.6</ele>
        <time>2020-09-12T10:01:51Z</time>
      </trkpt>
      <trkpt lat="42.8268330" lon="-0.2545270">
        <ele>2333.8</ele>
        <time>2020-09-12T10:01:52Z</time>
      </trkpt>
      <trkpt lat="42.8268740" lon="-0.2544640">
        <ele>2334.8</ele>
        <time>2020-09-12T10:01:58Z</time>
      </trkpt>
      <trkpt lat="42.8269070" lon="-0.2544270">
        <ele>2335.6</ele>
        <time>2020-09-12T10:02:02Z</time>
      </trkpt>
      <trkpt lat="42.8269440" lon="-0.2543890">
        <ele>2336.0</ele>
        <time>2020-09-12T10:02:05Z</time>
      </trkpt>
      <trkpt lat="42.8270140" lon="-0.2543040">
        <ele>2337.0</ele>
        <time>2020-09-12T10:02:13Z</time>
      </trkpt>
      <trkpt lat="42.8270280" lon="-0.2542860">
        <ele>2337.2</ele>
        <time>2020-09-12T10:02:15Z</time>
      </trkpt>
      <trkpt lat="42.8270440" lon="-0.2542610">
        <ele>2337.6</ele>
        <time>2020-09-12T10:02:18Z</time>
      </trkpt>
      <trkpt lat="42.8270670" lon="-0.2542410">
        <ele>2338.0</ele>
        <time>2020-09-12T10:02:21Z</time>
      </trkpt>
      <trkpt lat="42.8270710" lon="-0.2542350">
        <ele>2338.2</ele>
        <time>2020-09-12T10:02:22Z</time>
      </trkpt>
      <trkpt lat="42.8270940" lon="-0.2541700">
        <ele>2338.6</ele>
        <time>2020-09-12T10:02:30Z</time>
      </trkpt>
      <trkpt lat="42.8271120" lon="-0.2541560">
        <ele>2338.6</ele>
        <time>2020-09-12T10:02:32Z</time>
      </trkpt>
      <trkpt lat="42.8271420" lon="-0.2541380">
        <ele>2338.6</ele>
        <time>2020-09-12T10:02:34Z</time>
      </trkpt>
      <trkpt lat="42.8272290" lon="-0.2540490">
        <ele>2339.0</ele>
        <time>2020-09-12T10:02:43Z</time>
      </trkpt>
      <trkpt lat="42.8272380" lon="-0.2540420">
        <ele>2339.0</ele>
        <time>2020-09-12T10:02:44Z</time>
      </trkpt>
      <trkpt lat="42.8273950" lon="-0.2539120">
        <ele>2339.8</ele>
        <time>2020-09-12T10:02:58Z</time>
      </trkpt>
      <trkpt lat="42.8274320" lon="-0.2538710">
        <ele>2340.2</ele>
        <time>2020-09-12T10:03:02Z</time>
      </trkpt>
      <trkpt lat="42.8275120" lon="-0.2537890">
        <ele>2341.2</ele>
        <time>2020-09-12T10:03:10Z</time>
      </trkpt>
      <trkpt lat="42.8276560" lon="-0.2536230">
        <ele>2341.8</ele>
        <time>2020-09-12T10:03:27Z</time>
      </trkpt>
      <trkpt lat="42.8276690" lon="-0.2536060">
        <ele>2341.8</ele>
        <time>2020-09-12T10:03:29Z</time>
      </trkpt>
      <trkpt lat="42.8277120" lon="-0.2535480">
        <ele>2341.2</ele>
        <time>2020-09-12T10:03:35Z</time>
      </trkpt>
      <trkpt lat="42.8277330" lon="-0.2535220">
        <ele>2341.0</ele>
        <time>2020-09-12T10:03:38Z</time>
      </trkpt>
      <trkpt lat="42.8277560" lon="-0.2535010">
        <ele>2341.0</ele>
        <time>2020-09-12T10:03:41Z</time>
      </trkpt>
      <trkpt lat="42.8277730" lon="-0.2534560">
        <ele>2340.8</ele>
        <time>2020-09-12T10:03:45Z</time>
      </trkpt>
      <trkpt lat="42.8277910" lon="-0.2534330">
        <ele>2340.6</ele>
        <time>2020-09-12T10:03:47Z</time>
      </trkpt>
      <trkpt lat="42.8278090" lon="-0.2534160">
        <ele>2340.6</ele>
        <time>2020-09-12T10:03:50Z</time>
      </trkpt>
      <trkpt lat="42.8278060" lon="-0.2534130">
        <ele>2340.6</ele>
        <time>2020-09-12T10:03:56Z</time>
      </trkpt>
      <trkpt lat="42.8278150" lon="-0.2534160">
        <ele>2340.8</ele>
        <time>2020-09-12T10:04:00Z</time>
      </trkpt>
      <trkpt lat="42.8278220" lon="-0.2534150">
        <ele>2340.8</ele>
        <time>2020-09-12T10:04:03Z</time>
      </trkpt>
      <trkpt lat="42.8278080" lon="-0.2534010">
        <ele>2340.2</ele>
        <time>2020-09-12T10:04:12Z</time>
      </trkpt>
      <trkpt lat="42.8277870" lon="-0.2533160">
        <ele>2340.2</ele>
        <time>2020-09-12T10:04:32Z</time>
      </trkpt>
      <trkpt lat="42.8277850" lon="-0.2533010">
        <ele>2340.6</ele>
        <time>2020-09-12T10:04:34Z</time>
      </trkpt>
      <trkpt lat="42.8277770" lon="-0.2532720">
        <ele>2341.2</ele>
        <time>2020-09-12T10:04:37Z</time>
      </trkpt>
      <trkpt lat="42.8277740" lon="-0.2532640">
        <ele>2341.6</ele>
        <time>2020-09-12T10:04:38Z</time>
      </trkpt>
      <trkpt lat="42.8277620" lon="-0.2532370">
        <ele>2342.4</ele>
        <time>2020-09-12T10:04:42Z</time>
      </trkpt>
      <trkpt lat="42.8277530" lon="-0.2532370">
        <ele>2343.4</ele>
        <time>2020-09-12T10:04:46Z</time>
      </trkpt>
      <trkpt lat="42.8277570" lon="-0.2531750">
        <ele>2343.4</ele>
        <time>2020-09-12T10:05:08Z</time>
      </trkpt>
      <trkpt lat="42.8277510" lon="-0.2531660">
        <ele>2343.6</ele>
        <time>2020-09-12T10:05:10Z</time>
      </trkpt>
      <trkpt lat="42.8277530" lon="-0.2531330">
        <ele>2344.4</ele>
        <time>2020-09-12T10:05:20Z</time>
      </trkpt>
      <trkpt lat="42.8277350" lon="-0.2530690">
        <ele>2345.0</ele>
        <time>2020-09-12T10:05:26Z</time>
      </trkpt>
      <trkpt lat="42.8277240" lon="-0.2530440">
        <ele>2345.6</ele>
        <time>2020-09-12T10:05:28Z</time>
      </trkpt>
      <trkpt lat="42.8277230" lon="-0.2530220">
        <ele>2345.8</ele>
        <time>2020-09-12T10:05:30Z</time>
      </trkpt>
      <trkpt lat="42.8277220" lon="-0.2529800">
        <ele>2346.6</ele>
        <time>2020-09-12T10:05:33Z</time>
      </trkpt>
      <trkpt lat="42.8277240" lon="-0.2529660">
        <ele>2346.8</ele>
        <time>2020-09-12T10:05:34Z</time>
      </trkpt>
      <trkpt lat="42.8277250" lon="-0.2529070">
        <ele>2347.8</ele>
        <time>2020-09-12T10:05:38Z</time>
      </trkpt>
      <trkpt lat="42.8277200" lon="-0.2528640">
        <ele>2348.2</ele>
        <time>2020-09-12T10:05:42Z</time>
      </trkpt>
      <trkpt lat="42.8277240" lon="-0.2528290">
        <ele>2348.8</ele>
        <time>2020-09-12T10:05:45Z</time>
      </trkpt>
      <trkpt lat="42.8277110" lon="-0.2527960">
        <ele>2349.4</ele>
        <time>2020-09-12T10:05:48Z</time>
      </trkpt>
      <trkpt lat="42.8277150" lon="-0.2527730">
        <ele>2349.8</ele>
        <time>2020-09-12T10:05:50Z</time>
      </trkpt>
      <trkpt lat="42.8277200" lon="-0.2527630">
        <ele>2350.0</ele>
        <time>2020-09-12T10:05:51Z</time>
      </trkpt>
      <trkpt lat="42.8277220" lon="-0.2527490">
        <ele>2350.6</ele>
        <time>2020-09-12T10:05:55Z</time>
      </trkpt>
      <trkpt lat="42.8277650" lon="-0.2527130">
        <ele>2350.8</ele>
        <time>2020-09-12T10:06:00Z</time>
      </trkpt>
      <trkpt lat="42.8277880" lon="-0.2526960">
        <ele>2351.0</ele>
        <time>2020-09-12T10:06:03Z</time>
      </trkpt>
      <trkpt lat="42.8278030" lon="-0.2526930">
        <ele>2351.6</ele>
        <time>2020-09-12T10:06:06Z</time>
      </trkpt>
      <trkpt lat="42.8278080" lon="-0.2526940">
        <ele>2351.8</ele>
        <time>2020-09-12T10:06:07Z</time>
      </trkpt>
      <trkpt lat="42.8278660" lon="-0.2526260">
        <ele>2352.8</ele>
        <time>2020-09-12T10:06:17Z</time>
      </trkpt>
      <trkpt lat="42.8278760" lon="-0.2525980">
        <ele>2354.0</ele>
        <time>2020-09-12T10:06:24Z</time>
      </trkpt>
      <trkpt lat="42.8278890" lon="-0.2526050">
        <ele>2355.0</ele>
        <time>2020-09-12T10:06:29Z</time>
      </trkpt>
      <trkpt lat="42.8279250" lon="-0.2525370">
        <ele>2355.0</ele>
        <time>2020-09-12T10:06:33Z</time>
      </trkpt>
      <trkpt lat="42.8279780" lon="-0.2525080">
        <ele>2355.2</ele>
        <time>2020-09-12T10:06:40Z</time>
      </trkpt>
      <trkpt lat="42.8280280" lon="-0.2524810">
        <ele>2356.4</ele>
        <time>2020-09-12T10:06:50Z</time>
      </trkpt>
      <trkpt lat="42.8280390" lon="-0.2524420">
        <ele>2357.4</ele>
        <time>2020-09-12T10:06:55Z</time>
      </trkpt>
      <trkpt lat="42.8279740" lon="-0.2524260">
        <ele>2358.4</ele>
        <time>2020-09-12T10:07:03Z</time>
      </trkpt>
      <trkpt lat="42.8279300" lon="-0.2524110">
        <ele>2359.6</ele>
        <time>2020-09-12T10:07:08Z</time>
      </trkpt>
      <trkpt lat="42.8278900" lon="-0.2524000">
        <ele>2360.6</ele>
        <time>2020-09-12T10:07:13Z</time>
      </trkpt>
      <trkpt lat="42.8278700" lon="-0.2524020">
        <ele>2361.2</ele>
        <time>2020-09-12T10:07:17Z</time>
      </trkpt>
      <trkpt lat="42.8278580" lon="-0.2524010">
        <ele>2361.8</ele>
        <time>2020-09-12T10:07:19Z</time>
      </trkpt>
      <trkpt lat="42.8278400" lon="-0.2524150">
        <ele>2363.0</ele>
        <time>2020-09-12T10:07:24Z</time>
      </trkpt>
      <trkpt lat="42.8278110" lon="-0.2524290">
        <ele>2364.0</ele>
        <time>2020-09-12T10:07:28Z</time>
      </trkpt>
      <trkpt lat="42.8277900" lon="-0.2524270">
        <ele>2365.0</ele>
        <time>2020-09-12T10:07:33Z</time>
      </trkpt>
      <trkpt lat="42.8277960" lon="-0.2523800">
        <ele>2366.2</ele>
        <time>2020-09-12T10:07:40Z</time>
      </trkpt>
      <trkpt lat="42.8278320" lon="-0.2523610">
        <ele>2367.4</ele>
        <time>2020-09-12T10:07:45Z</time>
      </trkpt>
      <trkpt lat="42.8278490" lon="-0.2523240">
        <ele>2368.6</ele>
        <time>2020-09-12T10:07:50Z</time>
      </trkpt>
      <trkpt lat="42.8278780" lon="-0.2522960">
        <ele>2369.6</ele>
        <time>2020-09-12T10:07:55Z</time>
      </trkpt>
      <trkpt lat="42.8278890" lon="-0.2522680">
        <ele>2370.6</ele>
        <time>2020-09-12T10:07:59Z</time>
      </trkpt>
      <trkpt lat="42.8279130" lon="-0.2522480">
        <ele>2371.6</ele>
        <time>2020-09-12T10:08:05Z</time>
      </trkpt>
      <trkpt lat="42.8279140" lon="-0.2522390">
        <ele>2372.8</ele>
        <time>2020-09-12T10:08:09Z</time>
      </trkpt>
      <trkpt lat="42.8279640" lon="-0.2522270">
        <ele>2373.8</ele>
        <time>2020-09-12T10:08:22Z</time>
      </trkpt>
      <trkpt lat="42.8279740" lon="-0.2522070">
        <ele>2374.4</ele>
        <time>2020-09-12T10:08:24Z</time>
      </trkpt>
      <trkpt lat="42.8279820" lon="-0.2521820">
        <ele>2375.0</ele>
        <time>2020-09-12T10:08:26Z</time>
      </trkpt>
      <trkpt lat="42.8280030" lon="-0.2521320">
        <ele>2376.2</ele>
        <time>2020-09-12T10:08:30Z</time>
      </trkpt>
      <trkpt lat="42.8280070" lon="-0.2521280">
        <ele>2376.4</ele>
        <time>2020-09-12T10:08:31Z</time>
      </trkpt>
      <trkpt lat="42.8280230" lon="-0.2520920">
        <ele>2377.2</ele>
        <time>2020-09-12T10:08:36Z</time>
      </trkpt>
      <trkpt lat="42.8280350" lon="-0.2520440">
        <ele>2378.4</ele>
        <time>2020-09-12T10:08:40Z</time>
      </trkpt>
      <trkpt lat="42.8280360" lon="-0.2520360">
        <ele>2378.6</ele>
        <time>2020-09-12T10:08:41Z</time>
      </trkpt>
      <trkpt lat="42.8280420" lon="-0.2519950">
        <ele>2379.6</ele>
        <time>2020-09-12T10:08:45Z</time>
      </trkpt>
      <trkpt lat="42.8280560" lon="-0.2519370">
        <ele>2380.8</ele>
        <time>2020-09-12T10:08:52Z</time>
      </trkpt>
      <trkpt lat="42.8280660" lon="-0.2518960">
        <ele>2381.8</ele>
        <time>2020-09-12T10:08:56Z</time>
      </trkpt>
      <trkpt lat="42.8280620" lon="-0.2518360">
        <ele>2383.0</ele>
        <time>2020-09-12T10:09:02Z</time>
      </trkpt>
      <trkpt lat="42.8280850" lon="-0.2517780">
        <ele>2383.8</ele>
        <time>2020-09-12T10:09:06Z</time>
      </trkpt>
      <trkpt lat="42.8280910" lon="-0.2517500">
        <ele>2384.0</ele>
        <time>2020-09-12T10:09:08Z</time>
      </trkpt>
      <trkpt lat="42.8280970" lon="-0.2517390">
        <ele>2384.2</ele>
        <time>2020-09-12T10:09:09Z</time>
      </trkpt>
      <trkpt lat="42.8281450" lon="-0.2516950">
        <ele>2385.2</ele>
        <time>2020-09-12T10:09:15Z</time>
      </trkpt>
      <trkpt lat="42.8281570" lon="-0.2516840">
        <ele>2385.2</ele>
        <time>2020-09-12T10:09:17Z</time>
      </trkpt>
      <trkpt lat="42.8281660" lon="-0.2516770">
        <ele>2385.6</ele>
        <time>2020-09-12T10:09:19Z</time>
      </trkpt>
      <trkpt lat="42.8281770" lon="-0.2516670">
        <ele>2386.2</ele>
        <time>2020-09-12T10:09:21Z</time>
      </trkpt>
      <trkpt lat="42.8282150" lon="-0.2515740">
        <ele>2387.4</ele>
        <time>2020-09-12T10:09:29Z</time>
      </trkpt>
      <trkpt lat="42.8282160" lon="-0.2515620">
        <ele>2387.4</ele>
        <time>2020-09-12T10:09:30Z</time>
      </trkpt>
      <trkpt lat="42.8282140" lon="-0.2515420">
        <ele>2387.6</ele>
        <time>2020-09-12T10:09:32Z</time>
      </trkpt>
      <trkpt lat="42.8282310" lon="-0.2514910">
        <ele>2388.4</ele>
        <time>2020-09-12T10:09:37Z</time>
      </trkpt>
      <trkpt lat="42.8282250" lon="-0.2514310">
        <ele>2389.4</ele>
        <time>2020-09-12T10:09:43Z</time>
      </trkpt>
      <trkpt lat="42.8282300" lon="-0.2513600">
        <ele>2390.4</ele>
        <time>2020-09-12T10:09:49Z</time>
      </trkpt>
      <trkpt lat="42.8282320" lon="-0.2513450">
        <ele>2390.6</ele>
        <time>2020-09-12T10:09:51Z</time>
      </trkpt>
      <trkpt lat="42.8282280" lon="-0.2512940">
        <ele>2391.6</ele>
        <time>2020-09-12T10:09:56Z</time>
      </trkpt>
      <trkpt lat="42.8281870" lon="-0.2512530">
        <ele>2392.6</ele>
        <time>2020-09-12T10:10:03Z</time>
      </trkpt>
      <trkpt lat="42.8281470" lon="-0.2512240">
        <ele>2393.8</ele>
        <time>2020-09-12T10:10:09Z</time>
      </trkpt>
      <trkpt lat="42.8280720" lon="-0.2511790">
        <ele>2395.0</ele>
        <time>2020-09-12T10:10:17Z</time>
      </trkpt>
      <trkpt lat="42.8280480" lon="-0.2511680">
        <ele>2396.2</ele>
        <time>2020-09-12T10:10:21Z</time>
      </trkpt>
      <trkpt lat="42.8279830" lon="-0.2511350">
        <ele>2397.2</ele>
        <time>2020-09-12T10:10:28Z</time>
      </trkpt>
      <trkpt lat="42.8279640" lon="-0.2511140">
        <ele>2398.0</ele>
        <time>2020-09-12T10:10:31Z</time>
      </trkpt>
      <trkpt lat="42.8279590" lon="-0.2511110">
        <ele>2398.4</ele>
        <time>2020-09-12T10:10:33Z</time>
      </trkpt>
      <trkpt lat="42.8279400" lon="-0.2510780">
        <ele>2399.2</ele>
        <time>2020-09-12T10:10:36Z</time>
      </trkpt>
      <trkpt lat="42.8279380" lon="-0.2510720">
        <ele>2399.4</ele>
        <time>2020-09-12T10:10:37Z</time>
      </trkpt>
      <trkpt lat="42.8279380" lon="-0.2510470">
        <ele>2400.0</ele>
        <time>2020-09-12T10:10:39Z</time>
      </trkpt>
      <trkpt lat="42.8279270" lon="-0.2510330">
        <ele>2400.4</ele>
        <time>2020-09-12T10:10:42Z</time>
      </trkpt>
      <trkpt lat="42.8278920" lon="-0.2510110">
        <ele>2401.6</ele>
        <time>2020-09-12T10:10:49Z</time>
      </trkpt>
      <trkpt lat="42.8278210" lon="-0.2509040">
        <ele>2401.4</ele>
        <time>2020-09-12T10:11:20Z</time>
      </trkpt>
      <trkpt lat="42.8278140" lon="-0.2508270">
        <ele>2400.4</ele>
        <time>2020-09-12T10:11:49Z</time>
      </trkpt>
      <trkpt lat="42.8278080" lon="-0.2507990">
        <ele>2399.4</ele>
        <time>2020-09-12T10:12:08Z</time>
      </trkpt>
      <trkpt lat="42.8279200" lon="-0.2506210">
        <ele>2400.0</ele>
        <time>2020-09-12T10:12:30Z</time>
      </trkpt>
      <trkpt lat="42.8279470" lon="-0.2505710">
        <ele>2400.6</ele>
        <time>2020-09-12T10:12:34Z</time>
      </trkpt>
      <trkpt lat="42.8279490" lon="-0.2505580">
        <ele>2400.8</ele>
        <time>2020-09-12T10:12:36Z</time>
      </trkpt>
      <trkpt lat="42.8279250" lon="-0.2504610">
        <ele>2401.8</ele>
        <time>2020-09-12T10:12:46Z</time>
      </trkpt>
      <trkpt lat="42.8279460" lon="-0.2503850">
        <ele>2402.8</ele>
        <time>2020-09-12T10:12:54Z</time>
      </trkpt>
      <trkpt lat="42.8279360" lon="-0.2503230">
        <ele>2403.8</ele>
        <time>2020-09-12T10:13:05Z</time>
      </trkpt>
      <trkpt lat="42.8280320" lon="-0.2501620">
        <ele>2405.0</ele>
        <time>2020-09-12T10:13:32Z</time>
      </trkpt>
      <trkpt lat="42.8280990" lon="-0.2499910">
        <ele>2406.0</ele>
        <time>2020-09-12T10:13:52Z</time>
      </trkpt>
      <trkpt lat="42.8281300" lon="-0.2498660">
        <ele>2407.0</ele>
        <time>2020-09-12T10:14:03Z</time>
      </trkpt>
      <trkpt lat="42.8281880" lon="-0.2497820">
        <ele>2408.0</ele>
        <time>2020-09-12T10:14:20Z</time>
      </trkpt>
      <trkpt lat="42.8281930" lon="-0.2497510">
        <ele>2408.2</ele>
        <time>2020-09-12T10:14:23Z</time>
      </trkpt>
      <trkpt lat="42.8281890" lon="-0.2496980">
        <ele>2409.0</ele>
        <time>2020-09-12T10:14:28Z</time>
      </trkpt>
      <trkpt lat="42.8281900" lon="-0.2496780">
        <ele>2409.4</ele>
        <time>2020-09-12T10:14:30Z</time>
      </trkpt>
      <trkpt lat="42.8281910" lon="-0.2496480">
        <ele>2410.2</ele>
        <time>2020-09-12T10:14:33Z</time>
      </trkpt>
      <trkpt lat="42.8282120" lon="-0.2495310">
        <ele>2410.2</ele>
        <time>2020-09-12T10:14:43Z</time>
      </trkpt>
      <trkpt lat="42.8282600" lon="-0.2492950">
        <ele>2411.0</ele>
        <time>2020-09-12T10:15:00Z</time>
      </trkpt>
      <trkpt lat="42.8282600" lon="-0.2492810">
        <ele>2411.0</ele>
        <time>2020-09-12T10:15:01Z</time>
      </trkpt>
      <trkpt lat="42.8282540" lon="-0.2492430">
        <ele>2411.0</ele>
        <time>2020-09-12T10:15:04Z</time>
      </trkpt>
      <trkpt lat="42.8282560" lon="-0.2492350">
        <ele>2411.2</ele>
        <time>2020-09-12T10:15:05Z</time>
      </trkpt>
      <trkpt lat="42.8282560" lon="-0.2492300">
        <ele>2411.2</ele>
        <time>2020-09-12T10:15:06Z</time>
      </trkpt>
      <trkpt lat="42.8282550" lon="-0.2492120">
        <ele>2410.8</ele>
        <time>2020-09-12T10:15:13Z</time>
      </trkpt>
      <trkpt lat="42.8283130" lon="-0.2491190">
        <ele>2412.2</ele>
        <time>2020-09-12T10:15:26Z</time>
      </trkpt>
      <trkpt lat="42.8283600" lon="-0.2490780">
        <ele>2413.4</ele>
        <time>2020-09-12T10:15:32Z</time>
      </trkpt>
      <trkpt lat="42.8284300" lon="-0.2490370">
        <ele>2414.4</ele>
        <time>2020-09-12T10:15:44Z</time>
      </trkpt>
      <trkpt lat="42.8284390" lon="-0.2490150">
        <ele>2414.6</ele>
        <time>2020-09-12T10:15:46Z</time>
      </trkpt>
      <trkpt lat="42.8284370" lon="-0.2490010">
        <ele>2414.8</ele>
        <time>2020-09-12T10:15:48Z</time>
      </trkpt>
      <trkpt lat="42.8284520" lon="-0.2489840">
        <ele>2415.6</ele>
        <time>2020-09-12T10:15:52Z</time>
      </trkpt>
      <trkpt lat="42.8284740" lon="-0.2489570">
        <ele>2416.2</ele>
        <time>2020-09-12T10:15:55Z</time>
      </trkpt>
      <trkpt lat="42.8285120" lon="-0.2489200">
        <ele>2416.8</ele>
        <time>2020-09-12T10:15:59Z</time>
      </trkpt>
      <trkpt lat="42.8285220" lon="-0.2488990">
        <ele>2417.0</ele>
        <time>2020-09-12T10:16:01Z</time>
      </trkpt>
      <trkpt lat="42.8285690" lon="-0.2488560">
        <ele>2417.8</ele>
        <time>2020-09-12T10:16:08Z</time>
      </trkpt>
      <trkpt lat="42.8286120" lon="-0.2487930">
        <ele>2418.8</ele>
        <time>2020-09-12T10:16:14Z</time>
      </trkpt>
      <trkpt lat="42.8286190" lon="-0.2487860">
        <ele>2418.8</ele>
        <time>2020-09-12T10:16:15Z</time>
      </trkpt>
      <trkpt lat="42.8286370" lon="-0.2487640">
        <ele>2419.4</ele>
        <time>2020-09-12T10:16:18Z</time>
      </trkpt>
      <trkpt lat="42.8286670" lon="-0.2487310">
        <ele>2420.0</ele>
        <time>2020-09-12T10:16:25Z</time>
      </trkpt>
      <trkpt lat="42.8286650" lon="-0.2486740">
        <ele>2421.0</ele>
        <time>2020-09-12T10:16:32Z</time>
      </trkpt>
      <trkpt lat="42.8286770" lon="-0.2486280">
        <ele>2422.0</ele>
        <time>2020-09-12T10:16:38Z</time>
      </trkpt>
      <trkpt lat="42.8287210" lon="-0.2485810">
        <ele>2423.0</ele>
        <time>2020-09-12T10:16:43Z</time>
      </trkpt>
      <trkpt lat="42.8287460" lon="-0.2485280">
        <ele>2424.2</ele>
        <time>2020-09-12T10:16:49Z</time>
      </trkpt>
      <trkpt lat="42.8287360" lon="-0.2486320">
        <ele>2425.2</ele>
        <time>2020-09-12T10:17:51Z</time>
      </trkpt>
      <trkpt lat="42.8287490" lon="-0.2486140">
        <ele>2425.2</ele>
        <time>2020-09-12T10:17:52Z</time>
      </trkpt>
      <trkpt lat="42.8287730" lon="-0.2485850">
        <ele>2425.4</ele>
        <time>2020-09-12T10:17:54Z</time>
      </trkpt>
      <trkpt lat="42.8288030" lon="-0.2485110">
        <ele>2425.6</ele>
        <time>2020-09-12T10:17:58Z</time>
      </trkpt>
      <trkpt lat="42.8288110" lon="-0.2484780">
        <ele>2426.2</ele>
        <time>2020-09-12T10:18:01Z</time>
      </trkpt>
      <trkpt lat="42.8288260" lon="-0.2484590">
        <ele>2426.4</ele>
        <time>2020-09-12T10:18:03Z</time>
      </trkpt>
      <trkpt lat="42.8288400" lon="-0.2484470">
        <ele>2426.6</ele>
        <time>2020-09-12T10:18:05Z</time>
      </trkpt>
      <trkpt lat="42.8288510" lon="-0.2484370">
        <ele>2427.0</ele>
        <time>2020-09-12T10:18:07Z</time>
      </trkpt>
      <trkpt lat="42.8288650" lon="-0.2484270">
        <ele>2427.6</ele>
        <time>2020-09-12T10:18:09Z</time>
      </trkpt>
      <trkpt lat="42.8288730" lon="-0.2484200">
        <ele>2427.8</ele>
        <time>2020-09-12T10:18:10Z</time>
      </trkpt>
      <trkpt lat="42.8288850" lon="-0.2484150">
        <ele>2428.4</ele>
        <time>2020-09-12T10:18:13Z</time>
      </trkpt>
      <trkpt lat="42.8289020" lon="-0.2484190">
        <ele>2428.4</ele>
        <time>2020-09-12T10:18:15Z</time>
      </trkpt>
      <trkpt lat="42.8289110" lon="-0.2484210">
        <ele>2428.6</ele>
        <time>2020-09-12T10:18:16Z</time>
      </trkpt>
      <trkpt lat="42.8289270" lon="-0.2484150">
        <ele>2428.8</ele>
        <time>2020-09-12T10:18:18Z</time>
      </trkpt>
      <trkpt lat="42.8289430" lon="-0.2484110">
        <ele>2429.8</ele>
        <time>2020-09-12T10:18:22Z</time>
      </trkpt>
      <trkpt lat="42.8289510" lon="-0.2483890">
        <ele>2430.8</ele>
        <time>2020-09-12T10:18:30Z</time>
      </trkpt>
      <trkpt lat="42.8289240" lon="-0.2483660">
        <ele>2431.8</ele>
        <time>2020-09-12T10:18:38Z</time>
      </trkpt>
      <trkpt lat="42.8289420" lon="-0.2483160">
        <ele>2432.8</ele>
        <time>2020-09-12T10:18:50Z</time>
      </trkpt>
      <trkpt lat="42.8289560" lon="-0.2482390">
        <ele>2433.4</ele>
        <time>2020-09-12T10:18:55Z</time>
      </trkpt>
      <trkpt lat="42.8289500" lon="-0.2481760">
        <ele>2433.2</ele>
        <time>2020-09-12T10:19:00Z</time>
      </trkpt>
      <trkpt lat="42.8289530" lon="-0.2481680">
        <ele>2433.2</ele>
        <time>2020-09-12T10:19:01Z</time>
      </trkpt>
      <trkpt lat="42.8289690" lon="-0.2481440">
        <ele>2433.2</ele>
        <time>2020-09-12T10:19:04Z</time>
      </trkpt>
      <trkpt lat="42.8289910" lon="-0.2481180">
        <ele>2434.0</ele>
        <time>2020-09-12T10:19:08Z</time>
      </trkpt>
      <trkpt lat="42.8290030" lon="-0.2480950">
        <ele>2435.0</ele>
        <time>2020-09-12T10:19:13Z</time>
      </trkpt>
      <trkpt lat="42.8289870" lon="-0.2480690">
        <ele>2436.0</ele>
        <time>2020-09-12T10:19:18Z</time>
      </trkpt>
      <trkpt lat="42.8289680" lon="-0.2480650">
        <ele>2436.4</ele>
        <time>2020-09-12T10:19:20Z</time>
      </trkpt>
      <trkpt lat="42.8289550" lon="-0.2480550">
        <ele>2436.8</ele>
        <time>2020-09-12T10:19:22Z</time>
      </trkpt>
      <trkpt lat="42.8289530" lon="-0.2480520">
        <ele>2437.0</ele>
        <time>2020-09-12T10:19:23Z</time>
      </trkpt>
      <trkpt lat="42.8289700" lon="-0.2480180">
        <ele>2438.2</ele>
        <time>2020-09-12T10:19:28Z</time>
      </trkpt>
      <trkpt lat="42.8289920" lon="-0.2479880">
        <ele>2439.4</ele>
        <time>2020-09-12T10:19:32Z</time>
      </trkpt>
      <trkpt lat="42.8290070" lon="-0.2479590">
        <ele>2440.4</ele>
        <time>2020-09-12T10:19:36Z</time>
      </trkpt>
      <trkpt lat="42.8290440" lon="-0.2479250">
        <ele>2441.6</ele>
        <time>2020-09-12T10:19:42Z</time>
      </trkpt>
      <trkpt lat="42.8290650" lon="-0.2479020">
        <ele>2442.6</ele>
        <time>2020-09-12T10:19:46Z</time>
      </trkpt>
      <trkpt lat="42.8291020" lon="-0.2478760">
        <ele>2443.4</ele>
        <time>2020-09-12T10:19:51Z</time>
      </trkpt>
      <trkpt lat="42.8291150" lon="-0.2478720">
        <ele>2443.6</ele>
        <time>2020-09-12T10:19:53Z</time>
      </trkpt>
      <trkpt lat="42.8291180" lon="-0.2478690">
        <ele>2443.6</ele>
        <time>2020-09-12T10:19:54Z</time>
      </trkpt>
      <trkpt lat="42.8291200" lon="-0.2478310">
        <ele>2444.8</ele>
        <time>2020-09-12T10:20:00Z</time>
      </trkpt>
      <trkpt lat="42.8291300" lon="-0.2477920">
        <ele>2446.0</ele>
        <time>2020-09-12T10:20:05Z</time>
      </trkpt>
      <trkpt lat="42.8291220" lon="-0.2477680">
        <ele>2447.0</ele>
        <time>2020-09-12T10:20:10Z</time>
      </trkpt>
      <trkpt lat="42.8291360" lon="-0.2477360">
        <ele>2448.2</ele>
        <time>2020-09-12T10:20:16Z</time>
      </trkpt>
      <trkpt lat="42.8290930" lon="-0.2477140">
        <ele>2449.4</ele>
        <time>2020-09-12T10:20:24Z</time>
      </trkpt>
      <trkpt lat="42.8290810" lon="-0.2477030">
        <ele>2450.6</ele>
        <time>2020-09-12T10:20:28Z</time>
      </trkpt>
      <trkpt lat="42.8290910" lon="-0.2476690">
        <ele>2451.6</ele>
        <time>2020-09-12T10:20:35Z</time>
      </trkpt>
      <trkpt lat="42.8290590" lon="-0.2476500">
        <ele>2452.6</ele>
        <time>2020-09-12T10:20:41Z</time>
      </trkpt>
      <trkpt lat="42.8290550" lon="-0.2476460">
        <ele>2452.8</ele>
        <time>2020-09-12T10:20:42Z</time>
      </trkpt>
      <trkpt lat="42.8290510" lon="-0.2476410">
        <ele>2453.0</ele>
        <time>2020-09-12T10:20:43Z</time>
      </trkpt>
      <trkpt lat="42.8290510" lon="-0.2476190">
        <ele>2454.0</ele>
        <time>2020-09-12T10:20:47Z</time>
      </trkpt>
      <trkpt lat="42.8290500" lon="-0.2476040">
        <ele>2455.2</ele>
        <time>2020-09-12T10:20:51Z</time>
      </trkpt>
      <trkpt lat="42.8290620" lon="-0.2475890">
        <ele>2456.2</ele>
        <time>2020-09-12T10:21:03Z</time>
      </trkpt>
      <trkpt lat="42.8290430" lon="-0.2475870">
        <ele>2457.2</ele>
        <time>2020-09-12T10:21:07Z</time>
      </trkpt>
      <trkpt lat="42.8290100" lon="-0.2475630">
        <ele>2458.2</ele>
        <time>2020-09-12T10:21:15Z</time>
      </trkpt>
      <trkpt lat="42.8290240" lon="-0.2475280">
        <ele>2459.4</ele>
        <time>2020-09-12T10:21:26Z</time>
      </trkpt>
      <trkpt lat="42.8290320" lon="-0.2474850">
        <ele>2460.6</ele>
        <time>2020-09-12T10:21:31Z</time>
      </trkpt>
      <trkpt lat="42.8290520" lon="-0.2474430">
        <ele>2461.6</ele>
        <time>2020-09-12T10:21:37Z</time>
      </trkpt>
      <trkpt lat="42.8290610" lon="-0.2473940">
        <ele>2462.6</ele>
        <time>2020-09-12T10:21:43Z</time>
      </trkpt>
      <trkpt lat="42.8290730" lon="-0.2473660">
        <ele>2463.6</ele>
        <time>2020-09-12T10:21:49Z</time>
      </trkpt>
      <trkpt lat="42.8290340" lon="-0.2473660">
        <ele>2464.8</ele>
        <time>2020-09-12T10:21:57Z</time>
      </trkpt>
      <trkpt lat="42.8290020" lon="-0.2473830">
        <ele>2465.8</ele>
        <time>2020-09-12T10:22:04Z</time>
      </trkpt>
      <trkpt lat="42.8290120" lon="-0.2473630">
        <ele>2467.0</ele>
        <time>2020-09-12T10:22:10Z</time>
      </trkpt>
      <trkpt lat="42.8289730" lon="-0.2473650">
        <ele>2468.0</ele>
        <time>2020-09-12T10:22:17Z</time>
      </trkpt>
      <trkpt lat="42.8289640" lon="-0.2473650">
        <ele>2469.2</ele>
        <time>2020-09-12T10:22:22Z</time>
      </trkpt>
      <trkpt lat="42.8289690" lon="-0.2473440">
        <ele>2470.2</ele>
        <time>2020-09-12T10:22:30Z</time>
      </trkpt>
      <trkpt lat="42.8290320" lon="-0.2472810">
        <ele>2471.4</ele>
        <time>2020-09-12T10:22:42Z</time>
      </trkpt>
      <trkpt lat="42.8290010" lon="-0.2472740">
        <ele>2472.4</ele>
        <time>2020-09-12T10:22:46Z</time>
      </trkpt>
      <trkpt lat="42.8289570" lon="-0.2472470">
        <ele>2473.6</ele>
        <time>2020-09-12T10:22:55Z</time>
      </trkpt>
      <trkpt lat="42.8289430" lon="-0.2472240">
        <ele>2474.6</ele>
        <time>2020-09-12T10:23:00Z</time>
      </trkpt>
      <trkpt lat="42.8289420" lon="-0.2472130">
        <ele>2475.0</ele>
        <time>2020-09-12T10:23:02Z</time>
      </trkpt>
      <trkpt lat="42.8289290" lon="-0.2471990">
        <ele>2475.6</ele>
        <time>2020-09-12T10:23:06Z</time>
      </trkpt>
      <trkpt lat="42.8289010" lon="-0.2472060">
        <ele>2476.8</ele>
        <time>2020-09-12T10:23:11Z</time>
      </trkpt>
      <trkpt lat="42.8289040" lon="-0.2472180">
        <ele>2477.8</ele>
        <time>2020-09-12T10:23:17Z</time>
      </trkpt>
      <trkpt lat="42.8288350" lon="-0.2472480">
        <ele>2479.0</ele>
        <time>2020-09-12T10:23:43Z</time>
      </trkpt>
      <trkpt lat="42.8288190" lon="-0.2472400">
        <ele>2480.4</ele>
        <time>2020-09-12T10:23:48Z</time>
      </trkpt>
      <trkpt lat="42.8287970" lon="-0.2472280">
        <ele>2481.6</ele>
        <time>2020-09-12T10:23:53Z</time>
      </trkpt>
      <trkpt lat="42.8287910" lon="-0.2472060">
        <ele>2482.8</ele>
        <time>2020-09-12T10:23:59Z</time>
      </trkpt>
      <trkpt lat="42.8288150" lon="-0.2471450">
        <ele>2484.0</ele>
        <time>2020-09-12T10:24:06Z</time>
      </trkpt>
      <trkpt lat="42.8288060" lon="-0.2471010">
        <ele>2485.2</ele>
        <time>2020-09-12T10:24:10Z</time>
      </trkpt>
      <trkpt lat="42.8287870" lon="-0.2471020">
        <ele>2486.2</ele>
        <time>2020-09-12T10:24:15Z</time>
      </trkpt>
      <trkpt lat="42.8287600" lon="-0.2471140">
        <ele>2487.2</ele>
        <time>2020-09-12T10:24:20Z</time>
      </trkpt>
      <trkpt lat="42.8287200" lon="-0.2471450">
        <ele>2488.2</ele>
        <time>2020-09-12T10:24:26Z</time>
      </trkpt>
      <trkpt lat="42.8286950" lon="-0.2471520">
        <ele>2489.2</ele>
        <time>2020-09-12T10:24:31Z</time>
      </trkpt>
      <trkpt lat="42.8286900" lon="-0.2471310">
        <ele>2490.4</ele>
        <time>2020-09-12T10:24:37Z</time>
      </trkpt>
      <trkpt lat="42.8287050" lon="-0.2470950">
        <ele>2491.6</ele>
        <time>2020-09-12T10:24:42Z</time>
      </trkpt>
      <trkpt lat="42.8287440" lon="-0.2470400">
        <ele>2492.6</ele>
        <time>2020-09-12T10:24:49Z</time>
      </trkpt>
      <trkpt lat="42.8287280" lon="-0.2470050">
        <ele>2493.8</ele>
        <time>2020-09-12T10:24:56Z</time>
      </trkpt>
      <trkpt lat="42.8286840" lon="-0.2470350">
        <ele>2494.8</ele>
        <time>2020-09-12T10:25:02Z</time>
      </trkpt>
      <trkpt lat="42.8286690" lon="-0.2470440">
        <ele>2495.4</ele>
        <time>2020-09-12T10:25:04Z</time>
      </trkpt>
      <trkpt lat="42.8286530" lon="-0.2470570">
        <ele>2495.8</ele>
        <time>2020-09-12T10:25:06Z</time>
      </trkpt>
      <trkpt lat="42.8286080" lon="-0.2470900">
        <ele>2497.0</ele>
        <time>2020-09-12T10:25:13Z</time>
      </trkpt>
      <trkpt lat="42.8285960" lon="-0.2470760">
        <ele>2498.0</ele>
        <time>2020-09-12T10:25:19Z</time>
      </trkpt>
      <trkpt lat="42.8286420" lon="-0.2469930">
        <ele>2499.2</ele>
        <time>2020-09-12T10:25:39Z</time>
      </trkpt>
      <trkpt lat="42.8286360" lon="-0.2469190">
        <ele>2500.2</ele>
        <time>2020-09-12T10:25:48Z</time>
      </trkpt>
      <trkpt lat="42.8286420" lon="-0.2468620">
        <ele>2501.2</ele>
        <time>2020-09-12T10:25:54Z</time>
      </trkpt>
      <trkpt lat="42.8286630" lon="-0.2468000">
        <ele>2502.4</ele>
        <time>2020-09-12T10:25:59Z</time>
      </trkpt>
      <trkpt lat="42.8286630" lon="-0.2467200">
        <ele>2503.4</ele>
        <time>2020-09-12T10:26:07Z</time>
      </trkpt>
      <trkpt lat="42.8286900" lon="-0.2466210">
        <ele>2504.4</ele>
        <time>2020-09-12T10:26:19Z</time>
      </trkpt>
      <trkpt lat="42.8286830" lon="-0.2465780">
        <ele>2505.6</ele>
        <time>2020-09-12T10:26:25Z</time>
      </trkpt>
      <trkpt lat="42.8286810" lon="-0.2465390">
        <ele>2506.6</ele>
        <time>2020-09-12T10:26:31Z</time>
      </trkpt>
      <trkpt lat="42.8286730" lon="-0.2464770">
        <ele>2507.8</ele>
        <time>2020-09-12T10:26:39Z</time>
      </trkpt>
      <trkpt lat="42.8286730" lon="-0.2464310">
        <ele>2508.8</ele>
        <time>2020-09-12T10:26:46Z</time>
      </trkpt>
      <trkpt lat="42.8286840" lon="-0.2464070">
        <ele>2509.8</ele>
        <time>2020-09-12T10:26:51Z</time>
      </trkpt>
      <trkpt lat="42.8287120" lon="-0.2463080">
        <ele>2510.8</ele>
        <time>2020-09-12T10:27:01Z</time>
      </trkpt>
      <trkpt lat="42.8287220" lon="-0.2462540">
        <ele>2512.0</ele>
        <time>2020-09-12T10:27:10Z</time>
      </trkpt>
      <trkpt lat="42.8286780" lon="-0.2462240">
        <ele>2513.2</ele>
        <time>2020-09-12T10:27:16Z</time>
      </trkpt>
      <trkpt lat="42.8286620" lon="-0.2461910">
        <ele>2514.2</ele>
        <time>2020-09-12T10:27:21Z</time>
      </trkpt>
      <trkpt lat="42.8286380" lon="-0.2461910">
        <ele>2515.2</ele>
        <time>2020-09-12T10:27:27Z</time>
      </trkpt>
      <trkpt lat="42.8286080" lon="-0.2461860">
        <ele>2516.6</ele>
        <time>2020-09-12T10:27:34Z</time>
      </trkpt>
      <trkpt lat="42.8286050" lon="-0.2461610">
        <ele>2517.6</ele>
        <time>2020-09-12T10:27:40Z</time>
      </trkpt>
      <trkpt lat="42.8285670" lon="-0.2461280">
        <ele>2518.8</ele>
        <time>2020-09-12T10:27:49Z</time>
      </trkpt>
      <trkpt lat="42.8285760" lon="-0.2460930">
        <ele>2519.8</ele>
        <time>2020-09-12T10:27:53Z</time>
      </trkpt>
      <trkpt lat="42.8285880" lon="-0.2460640">
        <ele>2520.8</ele>
        <time>2020-09-12T10:27:59Z</time>
      </trkpt>
      <trkpt lat="42.8285790" lon="-0.2460120">
        <ele>2522.0</ele>
        <time>2020-09-12T10:28:07Z</time>
      </trkpt>
      <trkpt lat="42.8285480" lon="-0.2460430">
        <ele>2523.2</ele>
        <time>2020-09-12T10:28:12Z</time>
      </trkpt>
      <trkpt lat="42.8285230" lon="-0.2460440">
        <ele>2524.4</ele>
        <time>2020-09-12T10:28:18Z</time>
      </trkpt>
      <trkpt lat="42.8285130" lon="-0.2460020">
        <ele>2525.6</ele>
        <time>2020-09-12T10:28:25Z</time>
      </trkpt>
      <trkpt lat="42.8285070" lon="-0.2459810">
        <ele>2526.6</ele>
        <time>2020-09-12T10:28:31Z</time>
      </trkpt>
      <trkpt lat="42.8284740" lon="-0.2460050">
        <ele>2527.6</ele>
        <time>2020-09-12T10:28:38Z</time>
      </trkpt>
      <trkpt lat="42.8285510" lon="-0.2458640">
        <ele>2528.6</ele>
        <time>2020-09-12T10:29:03Z</time>
      </trkpt>
      <trkpt lat="42.8285660" lon="-0.2458610">
        <ele>2529.6</ele>
        <time>2020-09-12T10:29:08Z</time>
      </trkpt>
      <trkpt lat="42.8285750" lon="-0.2457930">
        <ele>2530.8</ele>
        <time>2020-09-12T10:29:15Z</time>
      </trkpt>
      <trkpt lat="42.8286290" lon="-0.2455550">
        <ele>2530.6</ele>
        <time>2020-09-12T10:29:38Z</time>
      </trkpt>
      <trkpt lat="42.8286370" lon="-0.2455450">
        <ele>2531.8</ele>
        <time>2020-09-12T10:29:48Z</time>
      </trkpt>
      <trkpt lat="42.8286750" lon="-0.2455440">
        <ele>2532.8</ele>
        <time>2020-09-12T10:29:54Z</time>
      </trkpt>
      <trkpt lat="42.8286810" lon="-0.2455560">
        <ele>2533.8</ele>
        <time>2020-09-12T10:29:58Z</time>
      </trkpt>
      <trkpt lat="42.8286830" lon="-0.2456090">
        <ele>2535.0</ele>
        <time>2020-09-12T10:30:11Z</time>
      </trkpt>
      <trkpt lat="42.8287040" lon="-0.2456150">
        <ele>2536.0</ele>
        <time>2020-09-12T10:30:15Z</time>
      </trkpt>
      <trkpt lat="42.8287470" lon="-0.2455390">
        <ele>2537.2</ele>
        <time>2020-09-12T10:30:23Z</time>
      </trkpt>
      <trkpt lat="42.8287540" lon="-0.2454720">
        <ele>2538.4</ele>
        <time>2020-09-12T10:30:28Z</time>
      </trkpt>
      <trkpt lat="42.8287550" lon="-0.2454730">
        <ele>2539.4</ele>
        <time>2020-09-12T10:30:32Z</time>
      </trkpt>
      <trkpt lat="42.8287640" lon="-0.2454280">
        <ele>2540.6</ele>
        <time>2020-09-12T10:30:37Z</time>
      </trkpt>
      <trkpt lat="42.8287290" lon="-0.2452990">
        <ele>2541.6</ele>
        <time>2020-09-12T10:30:52Z</time>
      </trkpt>
      <trkpt lat="42.8287640" lon="-0.2453060">
        <ele>2542.6</ele>
        <time>2020-09-12T10:30:57Z</time>
      </trkpt>
      <trkpt lat="42.8287940" lon="-0.2452950">
        <ele>2543.8</ele>
        <time>2020-09-12T10:31:02Z</time>
      </trkpt>
      <trkpt lat="42.8288010" lon="-0.2452530">
        <ele>2545.0</ele>
        <time>2020-09-12T10:31:07Z</time>
      </trkpt>
      <trkpt lat="42.8288240" lon="-0.2452380">
        <ele>2546.2</ele>
        <time>2020-09-12T10:31:11Z</time>
      </trkpt>
      <trkpt lat="42.8288360" lon="-0.2452280">
        <ele>2547.2</ele>
        <time>2020-09-12T10:31:15Z</time>
      </trkpt>
      <trkpt lat="42.8288270" lon="-0.2452230">
        <ele>2548.4</ele>
        <time>2020-09-12T10:31:25Z</time>
      </trkpt>
      <trkpt lat="42.8288250" lon="-0.2452120">
        <ele>2549.4</ele>
        <time>2020-09-12T10:31:30Z</time>
      </trkpt>
      <trkpt lat="42.8288630" lon="-0.2452260">
        <ele>2550.4</ele>
        <time>2020-09-12T10:31:36Z</time>
      </trkpt>
      <trkpt lat="42.8289030" lon="-0.2451930">
        <ele>2551.4</ele>
        <time>2020-09-12T10:31:43Z</time>
      </trkpt>
      <trkpt lat="42.8289000" lon="-0.2451450">
        <ele>2552.6</ele>
        <time>2020-09-12T10:31:49Z</time>
      </trkpt>
      <trkpt lat="42.8288890" lon="-0.2451400">
        <ele>2553.8</ele>
        <time>2020-09-12T10:31:54Z</time>
      </trkpt>
      <trkpt lat="42.8288740" lon="-0.2451930">
        <ele>2552.8</ele>
        <time>2020-09-12T10:32:44Z</time>
      </trkpt>
      <trkpt lat="42.8287920" lon="-0.2451230">
        <ele>2553.6</ele>
        <time>2020-09-12T10:33:06Z</time>
      </trkpt>
      <trkpt lat="42.8288380" lon="-0.2452200">
        <ele>2553.8</ele>
        <time>2020-09-12T10:33:20Z</time>
      </trkpt>
      <trkpt lat="42.8289020" lon="-0.2452920">
        <ele>2553.6</ele>
        <time>2020-09-12T10:33:24Z</time>
      </trkpt>
      <trkpt lat="42.8288350" lon="-0.2452560">
        <ele>2553.2</ele>
        <time>2020-09-12T10:33:30Z</time>
      </trkpt>
      <trkpt lat="42.8288370" lon="-0.2452350">
        <ele>2553.2</ele>
        <time>2020-09-12T10:33:32Z</time>
      </trkpt>
      <trkpt lat="42.8287650" lon="-0.2451690">
        <ele>2554.8</ele>
        <time>2020-09-12T10:34:02Z</time>
      </trkpt>
      <trkpt lat="42.8287100" lon="-0.2451820">
        <ele>2556.0</ele>
        <time>2020-09-12T10:34:08Z</time>
      </trkpt>
      <trkpt lat="42.8286520" lon="-0.2451820">
        <ele>2557.0</ele>
        <time>2020-09-12T10:34:18Z</time>
      </trkpt>
      <trkpt lat="42.8286240" lon="-0.2451970">
        <ele>2558.2</ele>
        <time>2020-09-12T10:34:23Z</time>
      </trkpt>
      <trkpt lat="42.8285880" lon="-0.2452200">
        <ele>2559.2</ele>
        <time>2020-09-12T10:34:27Z</time>
      </trkpt>
      <trkpt lat="42.8285590" lon="-0.2452190">
        <ele>2560.2</ele>
        <time>2020-09-12T10:34:33Z</time>
      </trkpt>
      <trkpt lat="42.8285440" lon="-0.2452130">
        <ele>2561.2</ele>
        <time>2020-09-12T10:34:38Z</time>
      </trkpt>
      <trkpt lat="42.8285530" lon="-0.2451870">
        <ele>2562.4</ele>
        <time>2020-09-12T10:34:43Z</time>
      </trkpt>
      <trkpt lat="42.8285670" lon="-0.2451700">
        <ele>2563.0</ele>
        <time>2020-09-12T10:34:45Z</time>
      </trkpt>
      <trkpt lat="42.8285810" lon="-0.2451590">
        <ele>2563.4</ele>
        <time>2020-09-12T10:34:47Z</time>
      </trkpt>
      <trkpt lat="42.8286040" lon="-0.2451030">
        <ele>2564.4</ele>
        <time>2020-09-12T10:34:53Z</time>
      </trkpt>
      <trkpt lat="42.8286160" lon="-0.2450900">
        <ele>2565.4</ele>
        <time>2020-09-12T10:34:58Z</time>
      </trkpt>
      <trkpt lat="42.8286000" lon="-0.2450750">
        <ele>2566.6</ele>
        <time>2020-09-12T10:35:04Z</time>
      </trkpt>
      <trkpt lat="42.8285420" lon="-0.2451020">
        <ele>2567.8</ele>
        <time>2020-09-12T10:35:10Z</time>
      </trkpt>
      <trkpt lat="42.8284980" lon="-0.2451350">
        <ele>2568.4</ele>
        <time>2020-09-12T10:35:14Z</time>
      </trkpt>
      <trkpt lat="42.8284640" lon="-0.2451490">
        <ele>2568.8</ele>
        <time>2020-09-12T10:35:17Z</time>
      </trkpt>
      <trkpt lat="42.8283920" lon="-0.2451610">
        <ele>2569.6</ele>
        <time>2020-09-12T10:35:26Z</time>
      </trkpt>
      <trkpt lat="42.8283830" lon="-0.2451700">
        <ele>2569.8</ele>
        <time>2020-09-12T10:35:27Z</time>
      </trkpt>
      <trkpt lat="42.8283510" lon="-0.2451900">
        <ele>2570.8</ele>
        <time>2020-09-12T10:35:31Z</time>
      </trkpt>
      <trkpt lat="42.8283480" lon="-0.2451860">
        <ele>2571.0</ele>
        <time>2020-09-12T10:35:32Z</time>
      </trkpt>
      <trkpt lat="42.8283720" lon="-0.2451340">
        <ele>2572.0</ele>
        <time>2020-09-12T10:35:38Z</time>
      </trkpt>
      <trkpt lat="42.8284050" lon="-0.2450870">
        <ele>2573.2</ele>
        <time>2020-09-12T10:35:43Z</time>
      </trkpt>
      <trkpt lat="42.8284250" lon="-0.2450530">
        <ele>2573.8</ele>
        <time>2020-09-12T10:35:47Z</time>
      </trkpt>
      <trkpt lat="42.8284280" lon="-0.2450490">
        <ele>2574.2</ele>
        <time>2020-09-12T10:35:48Z</time>
      </trkpt>
      <trkpt lat="42.8284570" lon="-0.2450200">
        <ele>2575.4</ele>
        <time>2020-09-12T10:35:53Z</time>
      </trkpt>
      <trkpt lat="42.8284730" lon="-0.2449900">
        <ele>2576.4</ele>
        <time>2020-09-12T10:35:58Z</time>
      </trkpt>
      <trkpt lat="42.8284210" lon="-0.2449800">
        <ele>2577.6</ele>
        <time>2020-09-12T10:36:06Z</time>
      </trkpt>
      <trkpt lat="42.8283780" lon="-0.2449960">
        <ele>2578.6</ele>
        <time>2020-09-12T10:36:11Z</time>
      </trkpt>
      <trkpt lat="42.8282570" lon="-0.2450730">
        <ele>2579.6</ele>
        <time>2020-09-12T10:36:21Z</time>
      </trkpt>
      <trkpt lat="42.8282070" lon="-0.2451070">
        <ele>2580.6</ele>
        <time>2020-09-12T10:36:27Z</time>
      </trkpt>
      <trkpt lat="42.8282000" lon="-0.2451090">
        <ele>2581.0</ele>
        <time>2020-09-12T10:36:28Z</time>
      </trkpt>
      <trkpt lat="42.8281920" lon="-0.2451160">
        <ele>2581.2</ele>
        <time>2020-09-12T10:36:29Z</time>
      </trkpt>
      <trkpt lat="42.8281880" lon="-0.2451230">
        <ele>2581.4</ele>
        <time>2020-09-12T10:36:31Z</time>
      </trkpt>
      <trkpt lat="42.8281410" lon="-0.2451480">
        <ele>2582.0</ele>
        <time>2020-09-12T10:36:38Z</time>
      </trkpt>
      <trkpt lat="42.8281020" lon="-0.2451780">
        <ele>2583.2</ele>
        <time>2020-09-12T10:36:44Z</time>
      </trkpt>
      <trkpt lat="42.8280810" lon="-0.2451990">
        <ele>2584.2</ele>
        <time>2020-09-12T10:36:49Z</time>
      </trkpt>
      <trkpt lat="42.8280680" lon="-0.2451830">
        <ele>2585.4</ele>
        <time>2020-09-12T10:36:54Z</time>
      </trkpt>
      <trkpt lat="42.8280780" lon="-0.2451600">
        <ele>2586.4</ele>
        <time>2020-09-12T10:37:02Z</time>
      </trkpt>
      <trkpt lat="42.8280520" lon="-0.2451220">
        <ele>2587.6</ele>
        <time>2020-09-12T10:37:32Z</time>
      </trkpt>
      <trkpt lat="42.8280310" lon="-0.2451250">
        <ele>2588.8</ele>
        <time>2020-09-12T10:37:37Z</time>
      </trkpt>
      <trkpt lat="42.8280000" lon="-0.2451190">
        <ele>2589.8</ele>
        <time>2020-09-12T10:37:42Z</time>
      </trkpt>
      <trkpt lat="42.8279820" lon="-0.2451390">
        <ele>2591.0</ele>
        <time>2020-09-12T10:37:48Z</time>
      </trkpt>
      <trkpt lat="42.8279580" lon="-0.2451490">
        <ele>2592.0</ele>
        <time>2020-09-12T10:37:52Z</time>
      </trkpt>
      <trkpt lat="42.8279370" lon="-0.2451380">
        <ele>2593.2</ele>
        <time>2020-09-12T10:37:59Z</time>
      </trkpt>
      <trkpt lat="42.8279310" lon="-0.2451220">
        <ele>2594.4</ele>
        <time>2020-09-12T10:38:04Z</time>
      </trkpt>
      <trkpt lat="42.8279050" lon="-0.2451190">
        <ele>2595.6</ele>
        <time>2020-09-12T10:38:10Z</time>
      </trkpt>
      <trkpt lat="42.8278910" lon="-0.2451150">
        <ele>2596.6</ele>
        <time>2020-09-12T10:38:16Z</time>
      </trkpt>
      <trkpt lat="42.8278910" lon="-0.2450750">
        <ele>2597.8</ele>
        <time>2020-09-12T10:38:21Z</time>
      </trkpt>
      <trkpt lat="42.8279020" lon="-0.2450470">
        <ele>2598.8</ele>
        <time>2020-09-12T10:38:26Z</time>
      </trkpt>
      <trkpt lat="42.8279010" lon="-0.2450150">
        <ele>2600.0</ele>
        <time>2020-09-12T10:38:33Z</time>
      </trkpt>
      <trkpt lat="42.8278900" lon="-0.2450100">
        <ele>2601.2</ele>
        <time>2020-09-12T10:38:39Z</time>
      </trkpt>
      <trkpt lat="42.8278640" lon="-0.2450330">
        <ele>2602.2</ele>
        <time>2020-09-12T10:38:45Z</time>
      </trkpt>
      <trkpt lat="42.8278320" lon="-0.2450490">
        <ele>2602.8</ele>
        <time>2020-09-12T10:38:49Z</time>
      </trkpt>
      <trkpt lat="42.8278130" lon="-0.2450630">
        <ele>2603.2</ele>
        <time>2020-09-12T10:38:51Z</time>
      </trkpt>
      <trkpt lat="42.8277990" lon="-0.2450650">
        <ele>2604.0</ele>
        <time>2020-09-12T10:38:55Z</time>
      </trkpt>
      <trkpt lat="42.8277930" lon="-0.2450490">
        <ele>2604.2</ele>
        <time>2020-09-12T10:38:57Z</time>
      </trkpt>
      <trkpt lat="42.8278200" lon="-0.2449880">
        <ele>2605.2</ele>
        <time>2020-09-12T10:39:05Z</time>
      </trkpt>
      <trkpt lat="42.8278430" lon="-0.2449510">
        <ele>2606.4</ele>
        <time>2020-09-12T10:39:10Z</time>
      </trkpt>
      <trkpt lat="42.8278510" lon="-0.2449240">
        <ele>2607.4</ele>
        <time>2020-09-12T10:39:15Z</time>
      </trkpt>
      <trkpt lat="42.8278610" lon="-0.2448830">
        <ele>2608.6</ele>
        <time>2020-09-12T10:39:23Z</time>
      </trkpt>
      <trkpt lat="42.8278810" lon="-0.2448600">
        <ele>2609.8</ele>
        <time>2020-09-12T10:39:27Z</time>
      </trkpt>
      <trkpt lat="42.8278900" lon="-0.2448040">
        <ele>2610.8</ele>
        <time>2020-09-12T10:39:33Z</time>
      </trkpt>
      <trkpt lat="42.8278750" lon="-0.2447940">
        <ele>2612.0</ele>
        <time>2020-09-12T10:39:39Z</time>
      </trkpt>
      <trkpt lat="42.8278330" lon="-0.2448270">
        <ele>2613.4</ele>
        <time>2020-09-12T10:39:45Z</time>
      </trkpt>
      <trkpt lat="42.8277960" lon="-0.2448300">
        <ele>2614.4</ele>
        <time>2020-09-12T10:39:50Z</time>
      </trkpt>
      <trkpt lat="42.8277630" lon="-0.2448490">
        <ele>2615.4</ele>
        <time>2020-09-12T10:39:57Z</time>
      </trkpt>
      <trkpt lat="42.8277290" lon="-0.2448640">
        <ele>2616.6</ele>
        <time>2020-09-12T10:40:03Z</time>
      </trkpt>
      <trkpt lat="42.8277440" lon="-0.2448270">
        <ele>2617.8</ele>
        <time>2020-09-12T10:40:09Z</time>
      </trkpt>
      <trkpt lat="42.8277740" lon="-0.2447740">
        <ele>2618.8</ele>
        <time>2020-09-12T10:40:15Z</time>
      </trkpt>
      <trkpt lat="42.8277980" lon="-0.2447360">
        <ele>2619.8</ele>
        <time>2020-09-12T10:40:20Z</time>
      </trkpt>
      <trkpt lat="42.8277440" lon="-0.2447470">
        <ele>2621.0</ele>
        <time>2020-09-12T10:40:27Z</time>
      </trkpt>
      <trkpt lat="42.8276950" lon="-0.2447750">
        <ele>2622.0</ele>
        <time>2020-09-12T10:40:33Z</time>
      </trkpt>
      <trkpt lat="42.8276960" lon="-0.2447360">
        <ele>2623.2</ele>
        <time>2020-09-12T10:40:39Z</time>
      </trkpt>
      <trkpt lat="42.8277180" lon="-0.2447080">
        <ele>2624.4</ele>
        <time>2020-09-12T10:40:44Z</time>
      </trkpt>
      <trkpt lat="42.8276930" lon="-0.2447030">
        <ele>2625.6</ele>
        <time>2020-09-12T10:41:02Z</time>
      </trkpt>
      <trkpt lat="42.8276760" lon="-0.2447110">
        <ele>2626.0</ele>
        <time>2020-09-12T10:41:04Z</time>
      </trkpt>
      <trkpt lat="42.8276570" lon="-0.2447210">
        <ele>2626.6</ele>
        <time>2020-09-12T10:41:07Z</time>
      </trkpt>
      <trkpt lat="42.8276530" lon="-0.2447280">
        <ele>2626.8</ele>
        <time>2020-09-12T10:41:08Z</time>
      </trkpt>
      <trkpt lat="42.8276380" lon="-0.2447060">
        <ele>2628.0</ele>
        <time>2020-09-12T10:41:12Z</time>
      </trkpt>
      <trkpt lat="42.8276520" lon="-0.2446710">
        <ele>2629.0</ele>
        <time>2020-09-12T10:41:17Z</time>
      </trkpt>
      <trkpt lat="42.8276850" lon="-0.2446320">
        <ele>2630.2</ele>
        <time>2020-09-12T10:41:22Z</time>
      </trkpt>
      <trkpt lat="42.8276880" lon="-0.2446070">
        <ele>2631.2</ele>
        <time>2020-09-12T10:41:29Z</time>
      </trkpt>
      <trkpt lat="42.8276490" lon="-0.2446410">
        <ele>2632.4</ele>
        <time>2020-09-12T10:41:36Z</time>
      </trkpt>
      <trkpt lat="42.8276360" lon="-0.2446390">
        <ele>2633.6</ele>
        <time>2020-09-12T10:41:41Z</time>
      </trkpt>
      <trkpt lat="42.8276270" lon="-0.2446030">
        <ele>2634.6</ele>
        <time>2020-09-12T10:41:48Z</time>
      </trkpt>
      <trkpt lat="42.8276300" lon="-0.2445770">
        <ele>2635.8</ele>
        <time>2020-09-12T10:42:00Z</time>
      </trkpt>
      <trkpt lat="42.8276570" lon="-0.2444900">
        <ele>2636.8</ele>
        <time>2020-09-12T10:42:25Z</time>
      </trkpt>
      <trkpt lat="42.8276750" lon="-0.2445010">
        <ele>2635.8</ele>
        <time>2020-09-12T10:43:00Z</time>
      </trkpt>
      <trkpt lat="42.8276990" lon="-0.2445310">
        <ele>2635.4</ele>
        <time>2020-09-12T10:44:28Z</time>
      </trkpt>
      <trkpt lat="42.8276890" lon="-0.2445110">
        <ele>2635.4</ele>
        <time>2020-09-12T10:45:25Z</time>
      </trkpt>
      <trkpt lat="42.8276860" lon="-0.2445320">
        <ele>2635.4</ele>
        <time>2020-09-12T10:46:07Z</time>
      </trkpt>
      <trkpt lat="42.8276630" lon="-0.2445170">
        <ele>2635.4</ele>
        <time>2020-09-12T10:47:09Z</time>
      </trkpt>
      <trkpt lat="42.8276720" lon="-0.2445260">
        <ele>2635.4</ele>
        <time>2020-09-12T10:48:16Z</time>
      </trkpt>
      <trkpt lat="42.8276610" lon="-0.2444960">
        <ele>2635.4</ele>
        <time>2020-09-12T10:49:42Z</time>
      </trkpt>
      <trkpt lat="42.8276180" lon="-0.2444820">
        <ele>2635.4</ele>
        <time>2020-09-12T10:51:12Z</time>
      </trkpt>
      <trkpt lat="42.8275420" lon="-0.2444980">
        <ele>2632.6</ele>
        <time>2020-09-12T10:51:27Z</time>
      </trkpt>
      <trkpt lat="42.8275300" lon="-0.2444930">
        <ele>2631.4</ele>
        <time>2020-09-12T10:52:00Z</time>
      </trkpt>
      <trkpt lat="42.8274530" lon="-0.2444460">
        <ele>2630.2</ele>
        <time>2020-09-12T10:52:14Z</time>
      </trkpt>
      <trkpt lat="42.8274310" lon="-0.2444390">
        <ele>2629.6</ele>
        <time>2020-09-12T10:52:16Z</time>
      </trkpt>
      <trkpt lat="42.8273950" lon="-0.2444530">
        <ele>2629.2</ele>
        <time>2020-09-12T10:52:20Z</time>
      </trkpt>
      <trkpt lat="42.8273680" lon="-0.2444430">
        <ele>2628.4</ele>
        <time>2020-09-12T10:52:22Z</time>
      </trkpt>
      <trkpt lat="42.8273540" lon="-0.2444520">
        <ele>2628.0</ele>
        <time>2020-09-12T10:52:23Z</time>
      </trkpt>
      <trkpt lat="42.8273400" lon="-0.2444580">
        <ele>2627.6</ele>
        <time>2020-09-12T10:52:24Z</time>
      </trkpt>
      <trkpt lat="42.8273240" lon="-0.2444580">
        <ele>2627.2</ele>
        <time>2020-09-12T10:52:26Z</time>
      </trkpt>
      <trkpt lat="42.8273200" lon="-0.2444540">
        <ele>2627.0</ele>
        <time>2020-09-12T10:52:27Z</time>
      </trkpt>
      <trkpt lat="42.8272770" lon="-0.2444240">
        <ele>2625.8</ele>
        <time>2020-09-12T10:52:32Z</time>
      </trkpt>
      <trkpt lat="42.8272480" lon="-0.2444180">
        <ele>2624.8</ele>
        <time>2020-09-12T10:52:36Z</time>
      </trkpt>
      <trkpt lat="42.8272250" lon="-0.2444180">
        <ele>2624.0</ele>
        <time>2020-09-12T10:52:39Z</time>
      </trkpt>
      <trkpt lat="42.8272160" lon="-0.2444030">
        <ele>2623.6</ele>
        <time>2020-09-12T10:52:41Z</time>
      </trkpt>
      <trkpt lat="42.8271840" lon="-0.2443690">
        <ele>2622.8</ele>
        <time>2020-09-12T10:52:46Z</time>
      </trkpt>
      <trkpt lat="42.8271830" lon="-0.2443630">
        <ele>2622.8</ele>
        <time>2020-09-12T10:52:48Z</time>
      </trkpt>
      <trkpt lat="42.8271630" lon="-0.2443320">
        <ele>2622.6</ele>
        <time>2020-09-12T10:52:52Z</time>
      </trkpt>
      <trkpt lat="42.8271620" lon="-0.2443330">
        <ele>2622.6</ele>
        <time>2020-09-12T10:52:53Z</time>
      </trkpt>
      <trkpt lat="42.8271630" lon="-0.2443340">
        <ele>2622.4</ele>
        <time>2020-09-12T10:52:54Z</time>
      </trkpt>
      <trkpt lat="42.8271480" lon="-0.2443310">
        <ele>2622.2</ele>
        <time>2020-09-12T10:53:10Z</time>
      </trkpt>
      <trkpt lat="42.8270840" lon="-0.2443470">
        <ele>2621.6</ele>
        <time>2020-09-12T10:53:15Z</time>
      </trkpt>
      <trkpt lat="42.8270770" lon="-0.2443450">
        <ele>2621.4</ele>
        <time>2020-09-12T10:53:16Z</time>
      </trkpt>
      <trkpt lat="42.8270690" lon="-0.2443390">
        <ele>2621.2</ele>
        <time>2020-09-12T10:53:17Z</time>
      </trkpt>
      <trkpt lat="42.8270500" lon="-0.2443160">
        <ele>2620.8</ele>
        <time>2020-09-12T10:53:20Z</time>
      </trkpt>
      <trkpt lat="42.8270420" lon="-0.2443080">
        <ele>2620.4</ele>
        <time>2020-09-12T10:53:22Z</time>
      </trkpt>
      <trkpt lat="42.8270150" lon="-0.2443150">
        <ele>2619.6</ele>
        <time>2020-09-12T10:53:26Z</time>
      </trkpt>
      <trkpt lat="42.8270150" lon="-0.2443150">
        <ele>2619.2</ele>
        <time>2020-09-12T10:53:28Z</time>
      </trkpt>
      <trkpt lat="42.8270150" lon="-0.2443120">
        <ele>2619.0</ele>
        <time>2020-09-12T10:53:29Z</time>
      </trkpt>
      <trkpt lat="42.8270210" lon="-0.2443010">
        <ele>2618.0</ele>
        <time>2020-09-12T10:53:32Z</time>
      </trkpt>
      <trkpt lat="42.8270510" lon="-0.2442720">
        <ele>2617.0</ele>
        <time>2020-09-12T10:53:39Z</time>
      </trkpt>
      <trkpt lat="42.8270740" lon="-0.2442670">
        <ele>2616.0</ele>
        <time>2020-09-12T10:53:47Z</time>
      </trkpt>
      <trkpt lat="42.8270670" lon="-0.2442200">
        <ele>2614.8</ele>
        <time>2020-09-12T10:53:54Z</time>
      </trkpt>
      <trkpt lat="42.8270850" lon="-0.2442090">
        <ele>2613.6</ele>
        <time>2020-09-12T10:53:59Z</time>
      </trkpt>
      <trkpt lat="42.8270980" lon="-0.2441850">
        <ele>2612.4</ele>
        <time>2020-09-12T10:54:04Z</time>
      </trkpt>
      <trkpt lat="42.8270970" lon="-0.2441590">
        <ele>2611.2</ele>
        <time>2020-09-12T10:54:12Z</time>
      </trkpt>
      <trkpt lat="42.8270750" lon="-0.2441390">
        <ele>2610.2</ele>
        <time>2020-09-12T10:54:19Z</time>
      </trkpt>
      <trkpt lat="42.8270610" lon="-0.2441070">
        <ele>2609.0</ele>
        <time>2020-09-12T10:54:23Z</time>
      </trkpt>
      <trkpt lat="42.8270840" lon="-0.2440740">
        <ele>2607.8</ele>
        <time>2020-09-12T10:54:34Z</time>
      </trkpt>
      <trkpt lat="42.8270870" lon="-0.2440570">
        <ele>2606.8</ele>
        <time>2020-09-12T10:54:38Z</time>
      </trkpt>
      <trkpt lat="42.8270930" lon="-0.2440680">
        <ele>2605.8</ele>
        <time>2020-09-12T10:54:43Z</time>
      </trkpt>
      <trkpt lat="42.8270940" lon="-0.2440700">
        <ele>2604.8</ele>
        <time>2020-09-12T10:54:48Z</time>
      </trkpt>
      <trkpt lat="42.8270740" lon="-0.2440730">
        <ele>2604.8</ele>
        <time>2020-09-12T10:56:49Z</time>
      </trkpt>
      <trkpt lat="42.8271220" lon="-0.2440160">
        <ele>2602.0</ele>
        <time>2020-09-12T10:57:03Z</time>
      </trkpt>
      <trkpt lat="42.8271660" lon="-0.2440030">
        <ele>2601.0</ele>
        <time>2020-09-12T10:57:12Z</time>
      </trkpt>
      <trkpt lat="42.8271990" lon="-0.2439920">
        <ele>2599.8</ele>
        <time>2020-09-12T10:57:20Z</time>
      </trkpt>
      <trkpt lat="42.8272120" lon="-0.2439340">
        <ele>2598.6</ele>
        <time>2020-09-12T10:57:28Z</time>
      </trkpt>
      <trkpt lat="42.8272150" lon="-0.2439490">
        <ele>2597.6</ele>
        <time>2020-09-12T10:57:33Z</time>
      </trkpt>
      <trkpt lat="42.8272140" lon="-0.2439540">
        <ele>2597.4</ele>
        <time>2020-09-12T10:57:34Z</time>
      </trkpt>
      <trkpt lat="42.8271890" lon="-0.2439400">
        <ele>2596.6</ele>
        <time>2020-09-12T10:57:46Z</time>
      </trkpt>
      <trkpt lat="42.8272240" lon="-0.2438630">
        <ele>2595.6</ele>
        <time>2020-09-12T10:57:55Z</time>
      </trkpt>
      <trkpt lat="42.8272320" lon="-0.2438660">
        <ele>2595.4</ele>
        <time>2020-09-12T10:57:56Z</time>
      </trkpt>
      <trkpt lat="42.8272530" lon="-0.2438610">
        <ele>2594.8</ele>
        <time>2020-09-12T10:57:59Z</time>
      </trkpt>
      <trkpt lat="42.8272590" lon="-0.2438420">
        <ele>2594.6</ele>
        <time>2020-09-12T10:58:01Z</time>
      </trkpt>
      <trkpt lat="42.8272620" lon="-0.2438360">
        <ele>2594.4</ele>
        <time>2020-09-12T10:58:02Z</time>
      </trkpt>
      <trkpt lat="42.8272730" lon="-0.2438320">
        <ele>2593.8</ele>
        <time>2020-09-12T10:58:04Z</time>
      </trkpt>
      <trkpt lat="42.8272910" lon="-0.2438210">
        <ele>2593.4</ele>
        <time>2020-09-12T10:58:06Z</time>
      </trkpt>
      <trkpt lat="42.8272960" lon="-0.2438170">
        <ele>2593.2</ele>
        <time>2020-09-12T10:58:07Z</time>
      </trkpt>
      <trkpt lat="42.8272990" lon="-0.2438210">
        <ele>2593.2</ele>
        <time>2020-09-12T10:58:08Z</time>
      </trkpt>
      <trkpt lat="42.8273070" lon="-0.2437910">
        <ele>2592.6</ele>
        <time>2020-09-12T10:58:13Z</time>
      </trkpt>
      <trkpt lat="42.8273150" lon="-0.2437930">
        <ele>2592.4</ele>
        <time>2020-09-12T10:58:14Z</time>
      </trkpt>
      <trkpt lat="42.8273230" lon="-0.2437960">
        <ele>2592.2</ele>
        <time>2020-09-12T10:58:15Z</time>
      </trkpt>
      <trkpt lat="42.8273480" lon="-0.2438100">
        <ele>2592.0</ele>
        <time>2020-09-12T10:58:19Z</time>
      </trkpt>
      <trkpt lat="42.8273570" lon="-0.2438070">
        <ele>2592.0</ele>
        <time>2020-09-12T10:58:20Z</time>
      </trkpt>
      <trkpt lat="42.8273820" lon="-0.2437390">
        <ele>2591.2</ele>
        <time>2020-09-12T10:58:26Z</time>
      </trkpt>
      <trkpt lat="42.8273850" lon="-0.2437340">
        <ele>2591.2</ele>
        <time>2020-09-12T10:58:27Z</time>
      </trkpt>
      <trkpt lat="42.8273870" lon="-0.2436970">
        <ele>2590.6</ele>
        <time>2020-09-12T10:58:34Z</time>
      </trkpt>
      <trkpt lat="42.8273850" lon="-0.2436320">
        <ele>2590.4</ele>
        <time>2020-09-12T10:58:38Z</time>
      </trkpt>
      <trkpt lat="42.8273810" lon="-0.2436090">
        <ele>2590.0</ele>
        <time>2020-09-12T10:58:40Z</time>
      </trkpt>
      <trkpt lat="42.8273710" lon="-0.2435750">
        <ele>2589.4</ele>
        <time>2020-09-12T10:58:44Z</time>
      </trkpt>
      <trkpt lat="42.8273320" lon="-0.2435390">
        <ele>2589.8</ele>
        <time>2020-09-12T10:58:57Z</time>
      </trkpt>
      <trkpt lat="42.8273190" lon="-0.2435220">
        <ele>2589.8</ele>
        <time>2020-09-12T10:58:59Z</time>
      </trkpt>
      <trkpt lat="42.8273030" lon="-0.2434800">
        <ele>2590.2</ele>
        <time>2020-09-12T10:59:03Z</time>
      </trkpt>
      <trkpt lat="42.8272920" lon="-0.2434650">
        <ele>2591.0</ele>
        <time>2020-09-12T10:59:09Z</time>
      </trkpt>
      <trkpt lat="42.8272620" lon="-0.2434300">
        <ele>2591.4</ele>
        <time>2020-09-12T10:59:14Z</time>
      </trkpt>
      <trkpt lat="42.8272580" lon="-0.2434610">
        <ele>2592.2</ele>
        <time>2020-09-12T10:59:19Z</time>
      </trkpt>
      <trkpt lat="42.8272510" lon="-0.2433630">
        <ele>2591.4</ele>
        <time>2020-09-12T10:59:46Z</time>
      </trkpt>
      <trkpt lat="42.8272610" lon="-0.2433580">
        <ele>2591.2</ele>
        <time>2020-09-12T10:59:50Z</time>
      </trkpt>
      <trkpt lat="42.8272630" lon="-0.2433590">
        <ele>2590.0</ele>
        <time>2020-09-12T10:59:57Z</time>
      </trkpt>
      <trkpt lat="42.8272420" lon="-0.2432880">
        <ele>2588.8</ele>
        <time>2020-09-12T11:00:15Z</time>
      </trkpt>
      <trkpt lat="42.8272700" lon="-0.2433050">
        <ele>2587.6</ele>
        <time>2020-09-12T11:00:23Z</time>
      </trkpt>
      <trkpt lat="42.8272880" lon="-0.2432600">
        <ele>2586.6</ele>
        <time>2020-09-12T11:00:29Z</time>
      </trkpt>
      <trkpt lat="42.8272860" lon="-0.2432330">
        <ele>2585.4</ele>
        <time>2020-09-12T11:00:35Z</time>
      </trkpt>
      <trkpt lat="42.8272940" lon="-0.2432230">
        <ele>2584.4</ele>
        <time>2020-09-12T11:00:42Z</time>
      </trkpt>
      <trkpt lat="42.8272960" lon="-0.2432000">
        <ele>2583.4</ele>
        <time>2020-09-12T11:00:48Z</time>
      </trkpt>
      <trkpt lat="42.8273020" lon="-0.2431850">
        <ele>2582.2</ele>
        <time>2020-09-12T11:00:54Z</time>
      </trkpt>
      <trkpt lat="42.8273170" lon="-0.2432110">
        <ele>2581.2</ele>
        <time>2020-09-12T11:01:02Z</time>
      </trkpt>
      <trkpt lat="42.8273060" lon="-0.2432030">
        <ele>2580.2</ele>
        <time>2020-09-12T11:01:15Z</time>
      </trkpt>
      <trkpt lat="42.8273490" lon="-0.2432110">
        <ele>2579.2</ele>
        <time>2020-09-12T11:01:28Z</time>
      </trkpt>
      <trkpt lat="42.8273530" lon="-0.2431680">
        <ele>2578.2</ele>
        <time>2020-09-12T11:01:34Z</time>
      </trkpt>
      <trkpt lat="42.8273560" lon="-0.2431440">
        <ele>2577.0</ele>
        <time>2020-09-12T11:01:39Z</time>
      </trkpt>
      <trkpt lat="42.8273640" lon="-0.2431400">
        <ele>2575.8</ele>
        <time>2020-09-12T11:01:46Z</time>
      </trkpt>
      <trkpt lat="42.8273800" lon="-0.2431410">
        <ele>2574.8</ele>
        <time>2020-09-12T11:01:51Z</time>
      </trkpt>
      <trkpt lat="42.8273870" lon="-0.2431590">
        <ele>2573.8</ele>
        <time>2020-09-12T11:01:55Z</time>
      </trkpt>
      <trkpt lat="42.8274360" lon="-0.2431840">
        <ele>2573.4</ele>
        <time>2020-09-12T11:02:30Z</time>
      </trkpt>
      <trkpt lat="42.8274420" lon="-0.2432130">
        <ele>2572.6</ele>
        <time>2020-09-12T11:02:34Z</time>
      </trkpt>
      <trkpt lat="42.8274900" lon="-0.2433000">
        <ele>2571.6</ele>
        <time>2020-09-12T11:02:58Z</time>
      </trkpt>
      <trkpt lat="42.8275110" lon="-0.2433200">
        <ele>2570.4</ele>
        <time>2020-09-12T11:03:06Z</time>
      </trkpt>
      <trkpt lat="42.8275530" lon="-0.2433290">
        <ele>2570.2</ele>
        <time>2020-09-12T11:03:42Z</time>
      </trkpt>
      <trkpt lat="42.8275500" lon="-0.2432840">
        <ele>2570.4</ele>
        <time>2020-09-12T11:03:49Z</time>
      </trkpt>
      <trkpt lat="42.8275500" lon="-0.2432630">
        <ele>2570.0</ele>
        <time>2020-09-12T11:03:52Z</time>
      </trkpt>
      <trkpt lat="42.8275510" lon="-0.2432530">
        <ele>2569.2</ele>
        <time>2020-09-12T11:03:56Z</time>
      </trkpt>
      <trkpt lat="42.8275540" lon="-0.2432430">
        <ele>2568.8</ele>
        <time>2020-09-12T11:03:58Z</time>
      </trkpt>
      <trkpt lat="42.8275570" lon="-0.2432480">
        <ele>2568.0</ele>
        <time>2020-09-12T11:04:01Z</time>
      </trkpt>
      <trkpt lat="42.8276110" lon="-0.2432090">
        <ele>2567.0</ele>
        <time>2020-09-12T11:04:29Z</time>
      </trkpt>
      <trkpt lat="42.8275980" lon="-0.2431700">
        <ele>2566.0</ele>
        <time>2020-09-12T11:04:34Z</time>
      </trkpt>
      <trkpt lat="42.8276750" lon="-0.2432820">
        <ele>2565.4</ele>
        <time>2020-09-12T11:04:57Z</time>
      </trkpt>
      <trkpt lat="42.8276960" lon="-0.2432770">
        <ele>2565.0</ele>
        <time>2020-09-12T11:04:59Z</time>
      </trkpt>
      <trkpt lat="42.8277150" lon="-0.2432660">
        <ele>2564.6</ele>
        <time>2020-09-12T11:05:01Z</time>
      </trkpt>
      <trkpt lat="42.8277510" lon="-0.2432350">
        <ele>2564.2</ele>
        <time>2020-09-12T11:05:04Z</time>
      </trkpt>
      <trkpt lat="42.8277640" lon="-0.2432280">
        <ele>2564.0</ele>
        <time>2020-09-12T11:05:05Z</time>
      </trkpt>
      <trkpt lat="42.8277770" lon="-0.2432230">
        <ele>2563.6</ele>
        <time>2020-09-12T11:05:06Z</time>
      </trkpt>
      <trkpt lat="42.8277980" lon="-0.2432010">
        <ele>2562.8</ele>
        <time>2020-09-12T11:05:08Z</time>
      </trkpt>
      <trkpt lat="42.8278260" lon="-0.2431800">
        <ele>2561.6</ele>
        <time>2020-09-12T11:05:11Z</time>
      </trkpt>
      <trkpt lat="42.8278500" lon="-0.2431780">
        <ele>2560.4</ele>
        <time>2020-09-12T11:05:13Z</time>
      </trkpt>
      <trkpt lat="42.8279130" lon="-0.2431880">
        <ele>2559.2</ele>
        <time>2020-09-12T11:05:17Z</time>
      </trkpt>
      <trkpt lat="42.8279240" lon="-0.2431840">
        <ele>2559.0</ele>
        <time>2020-09-12T11:05:18Z</time>
      </trkpt>
      <trkpt lat="42.8279580" lon="-0.2431700">
        <ele>2558.2</ele>
        <time>2020-09-12T11:05:21Z</time>
      </trkpt>
      <trkpt lat="42.8279780" lon="-0.2431690">
        <ele>2557.0</ele>
        <time>2020-09-12T11:05:23Z</time>
      </trkpt>
      <trkpt lat="42.8280080" lon="-0.2432060">
        <ele>2555.8</ele>
        <time>2020-09-12T11:05:26Z</time>
      </trkpt>
      <trkpt lat="42.8280340" lon="-0.2432210">
        <ele>2555.4</ele>
        <time>2020-09-12T11:05:29Z</time>
      </trkpt>
      <trkpt lat="42.8280720" lon="-0.2432330">
        <ele>2554.8</ele>
        <time>2020-09-12T11:05:32Z</time>
      </trkpt>
      <trkpt lat="42.8281540" lon="-0.2432570">
        <ele>2553.6</ele>
        <time>2020-09-12T11:05:38Z</time>
      </trkpt>
      <trkpt lat="42.8282180" lon="-0.2432460">
        <ele>2552.6</ele>
        <time>2020-09-12T11:05:43Z</time>
      </trkpt>
      <trkpt lat="42.8282240" lon="-0.2432340">
        <ele>2552.4</ele>
        <time>2020-09-12T11:05:44Z</time>
      </trkpt>
      <trkpt lat="42.8282380" lon="-0.2432080">
        <ele>2551.4</ele>
        <time>2020-09-12T11:05:47Z</time>
      </trkpt>
      <trkpt lat="42.8282360" lon="-0.2432050">
        <ele>2551.0</ele>
        <time>2020-09-12T11:05:48Z</time>
      </trkpt>
      <trkpt lat="42.8282270" lon="-0.2431970">
        <ele>2550.4</ele>
        <time>2020-09-12T11:05:51Z</time>
      </trkpt>
      <trkpt lat="42.8282600" lon="-0.2431200">
        <ele>2549.4</ele>
        <time>2020-09-12T11:06:33Z</time>
      </trkpt>
      <trkpt lat="42.8282800" lon="-0.2431240">
        <ele>2549.4</ele>
        <time>2020-09-12T11:07:15Z</time>
      </trkpt>
      <trkpt lat="42.8282900" lon="-0.2431230">
        <ele>2549.0</ele>
        <time>2020-09-12T11:07:16Z</time>
      </trkpt>
      <trkpt lat="42.8283360" lon="-0.2431350">
        <ele>2548.2</ele>
        <time>2020-09-12T11:07:19Z</time>
      </trkpt>
      <trkpt lat="42.8283520" lon="-0.2430930">
        <ele>2547.4</ele>
        <time>2020-09-12T11:07:22Z</time>
      </trkpt>
      <trkpt lat="42.8283480" lon="-0.2430770">
        <ele>2547.2</ele>
        <time>2020-09-12T11:07:23Z</time>
      </trkpt>
      <trkpt lat="42.8283430" lon="-0.2430630">
        <ele>2547.0</ele>
        <time>2020-09-12T11:07:24Z</time>
      </trkpt>
      <trkpt lat="42.8283360" lon="-0.2430030">
        <ele>2547.0</ele>
        <time>2020-09-12T11:07:28Z</time>
      </trkpt>
      <trkpt lat="42.8283400" lon="-0.2429880">
        <ele>2547.0</ele>
        <time>2020-09-12T11:07:30Z</time>
      </trkpt>
      <trkpt lat="42.8283660" lon="-0.2429500">
        <ele>2546.6</ele>
        <time>2020-09-12T11:07:35Z</time>
      </trkpt>
      <trkpt lat="42.8283870" lon="-0.2429400">
        <ele>2546.0</ele>
        <time>2020-09-12T11:07:38Z</time>
      </trkpt>
      <trkpt lat="42.8284010" lon="-0.2429280">
        <ele>2544.8</ele>
        <time>2020-09-12T11:07:41Z</time>
      </trkpt>
      <trkpt lat="42.8284070" lon="-0.2429210">
        <ele>2544.4</ele>
        <time>2020-09-12T11:07:42Z</time>
      </trkpt>
      <trkpt lat="42.8284140" lon="-0.2429100">
        <ele>2544.2</ele>
        <time>2020-09-12T11:07:44Z</time>
      </trkpt>
      <trkpt lat="42.8284240" lon="-0.2429100">
        <ele>2543.6</ele>
        <time>2020-09-12T11:07:46Z</time>
      </trkpt>
      <trkpt lat="42.8284410" lon="-0.2428840">
        <ele>2542.6</ele>
        <time>2020-09-12T11:07:49Z</time>
      </trkpt>
      <trkpt lat="42.8284510" lon="-0.2428680">
        <ele>2542.0</ele>
        <time>2020-09-12T11:07:51Z</time>
      </trkpt>
      <trkpt lat="42.8284600" lon="-0.2428520">
        <ele>2541.4</ele>
        <time>2020-09-12T11:07:53Z</time>
      </trkpt>
      <trkpt lat="42.8284660" lon="-0.2428500">
        <ele>2541.2</ele>
        <time>2020-09-12T11:07:54Z</time>
      </trkpt>
      <trkpt lat="42.8284760" lon="-0.2428440">
        <ele>2540.4</ele>
        <time>2020-09-12T11:07:56Z</time>
      </trkpt>
      <trkpt lat="42.8284760" lon="-0.2428350">
        <ele>2540.2</ele>
        <time>2020-09-12T11:07:57Z</time>
      </trkpt>
      <trkpt lat="42.8285180" lon="-0.2427620">
        <ele>2539.2</ele>
        <time>2020-09-12T11:08:06Z</time>
      </trkpt>
      <trkpt lat="42.8285390" lon="-0.2427280">
        <ele>2538.8</ele>
        <time>2020-09-12T11:08:09Z</time>
      </trkpt>
      <trkpt lat="42.8285550" lon="-0.2427050">
        <ele>2538.2</ele>
        <time>2020-09-12T11:08:12Z</time>
      </trkpt>
      <trkpt lat="42.8285690" lon="-0.2426990">
        <ele>2538.0</ele>
        <time>2020-09-12T11:08:14Z</time>
      </trkpt>
      <trkpt lat="42.8286010" lon="-0.2427020">
        <ele>2537.0</ele>
        <time>2020-09-12T11:08:18Z</time>
      </trkpt>
      <trkpt lat="42.8286110" lon="-0.2427120">
        <ele>2536.8</ele>
        <time>2020-09-12T11:08:19Z</time>
      </trkpt>
      <trkpt lat="42.8286260" lon="-0.2427200">
        <ele>2536.4</ele>
        <time>2020-09-12T11:08:21Z</time>
      </trkpt>
      <trkpt lat="42.8286310" lon="-0.2427210">
        <ele>2536.0</ele>
        <time>2020-09-12T11:08:22Z</time>
      </trkpt>
      <trkpt lat="42.8286500" lon="-0.2427210">
        <ele>2535.2</ele>
        <time>2020-09-12T11:08:24Z</time>
      </trkpt>
      <trkpt lat="42.8286590" lon="-0.2427150">
        <ele>2535.0</ele>
        <time>2020-09-12T11:08:25Z</time>
      </trkpt>
      <trkpt lat="42.8287080" lon="-0.2427140">
        <ele>2533.8</ele>
        <time>2020-09-12T11:08:29Z</time>
      </trkpt>
      <trkpt lat="42.8287410" lon="-0.2427170">
        <ele>2532.4</ele>
        <time>2020-09-12T11:08:32Z</time>
      </trkpt>
      <trkpt lat="42.8287940" lon="-0.2427210">
        <ele>2531.2</ele>
        <time>2020-09-12T11:08:36Z</time>
      </trkpt>
      <trkpt lat="42.8288320" lon="-0.2426990">
        <ele>2530.0</ele>
        <time>2020-09-12T11:08:40Z</time>
      </trkpt>
      <trkpt lat="42.8288960" lon="-0.2426360">
        <ele>2529.0</ele>
        <time>2020-09-12T11:08:46Z</time>
      </trkpt>
      <trkpt lat="42.8289170" lon="-0.2425890">
        <ele>2528.4</ele>
        <time>2020-09-12T11:08:50Z</time>
      </trkpt>
      <trkpt lat="42.8289600" lon="-0.2425540">
        <ele>2528.4</ele>
        <time>2020-09-12T11:08:56Z</time>
      </trkpt>
      <trkpt lat="42.8289900" lon="-0.2425100">
        <ele>2528.2</ele>
        <time>2020-09-12T11:09:03Z</time>
      </trkpt>
      <trkpt lat="42.8290010" lon="-0.2424690">
        <ele>2528.0</ele>
        <time>2020-09-12T11:09:06Z</time>
      </trkpt>
      <trkpt lat="42.8290170" lon="-0.2424100">
        <ele>2528.4</ele>
        <time>2020-09-12T11:09:09Z</time>
      </trkpt>
      <trkpt lat="42.8290220" lon="-0.2423790">
        <ele>2528.4</ele>
        <time>2020-09-12T11:09:11Z</time>
      </trkpt>
      <trkpt lat="42.8290990" lon="-0.2422260">
        <ele>2529.0</ele>
        <time>2020-09-12T11:09:48Z</time>
      </trkpt>
      <trkpt lat="42.8291380" lon="-0.2421880">
        <ele>2530.2</ele>
        <time>2020-09-12T11:09:57Z</time>
      </trkpt>
      <trkpt lat="42.8291210" lon="-0.2421060">
        <ele>2531.2</ele>
        <time>2020-09-12T11:10:15Z</time>
      </trkpt>
      <trkpt lat="42.8291210" lon="-0.2420980">
        <ele>2531.4</ele>
        <time>2020-09-12T11:10:16Z</time>
      </trkpt>
      <trkpt lat="42.8291610" lon="-0.2419860">
        <ele>2531.4</ele>
        <time>2020-09-12T11:10:31Z</time>
      </trkpt>
      <trkpt lat="42.8291870" lon="-0.2419440">
        <ele>2532.4</ele>
        <time>2020-09-12T11:10:39Z</time>
      </trkpt>
      <trkpt lat="42.8292040" lon="-0.2418050">
        <ele>2533.6</ele>
        <time>2020-09-12T11:11:02Z</time>
      </trkpt>
      <trkpt lat="42.8292240" lon="-0.2417860">
        <ele>2534.8</ele>
        <time>2020-09-12T11:11:09Z</time>
      </trkpt>
      <trkpt lat="42.8292070" lon="-0.2417200">
        <ele>2535.8</ele>
        <time>2020-09-12T11:11:22Z</time>
      </trkpt>
      <trkpt lat="42.8292320" lon="-0.2416520">
        <ele>2537.0</ele>
        <time>2020-09-12T11:11:29Z</time>
      </trkpt>
      <trkpt lat="42.8292570" lon="-0.2416150">
        <ele>2538.2</ele>
        <time>2020-09-12T11:11:35Z</time>
      </trkpt>
      <trkpt lat="42.8292730" lon="-0.2416260">
        <ele>2539.2</ele>
        <time>2020-09-12T11:11:41Z</time>
      </trkpt>
      <trkpt lat="42.8292790" lon="-0.2416180">
        <ele>2540.2</ele>
        <time>2020-09-12T11:11:53Z</time>
      </trkpt>
      <trkpt lat="42.8293010" lon="-0.2416080">
        <ele>2541.4</ele>
        <time>2020-09-12T11:12:14Z</time>
      </trkpt>
      <trkpt lat="42.8293030" lon="-0.2416120">
        <ele>2541.8</ele>
        <time>2020-09-12T11:12:15Z</time>
      </trkpt>
      <trkpt lat="42.8293040" lon="-0.2416220">
        <ele>2542.4</ele>
        <time>2020-09-12T11:12:17Z</time>
      </trkpt>
      <trkpt lat="42.8293070" lon="-0.2416260">
        <ele>2542.6</ele>
        <time>2020-09-12T11:12:18Z</time>
      </trkpt>
      <trkpt lat="42.8293580" lon="-0.2416230">
        <ele>2543.6</ele>
        <time>2020-09-12T11:12:26Z</time>
      </trkpt>
      <trkpt lat="42.8294020" lon="-0.2416570">
        <ele>2544.6</ele>
        <time>2020-09-12T11:12:34Z</time>
      </trkpt>
      <trkpt lat="42.8294480" lon="-0.2414900">
        <ele>2545.0</ele>
        <time>2020-09-12T11:13:27Z</time>
      </trkpt>
      <trkpt lat="42.8294970" lon="-0.2415030">
        <ele>2543.4</ele>
        <time>2020-09-12T11:13:41Z</time>
      </trkpt>
      <trkpt lat="42.8295050" lon="-0.2415080">
        <ele>2543.2</ele>
        <time>2020-09-12T11:13:42Z</time>
      </trkpt>
      <trkpt lat="42.8295210" lon="-0.2415070">
        <ele>2542.8</ele>
        <time>2020-09-12T11:13:45Z</time>
      </trkpt>
      <trkpt lat="42.8295330" lon="-0.2415060">
        <ele>2542.6</ele>
        <time>2020-09-12T11:13:47Z</time>
      </trkpt>
      <trkpt lat="42.8295390" lon="-0.2415050">
        <ele>2542.4</ele>
        <time>2020-09-12T11:13:48Z</time>
      </trkpt>
      <trkpt lat="42.8295670" lon="-0.2414650">
        <ele>2541.4</ele>
        <time>2020-09-12T11:13:58Z</time>
      </trkpt>
      <trkpt lat="42.8296320" lon="-0.2414260">
        <ele>2540.2</ele>
        <time>2020-09-12T11:14:11Z</time>
      </trkpt>
      <trkpt lat="42.8296500" lon="-0.2413180">
        <ele>2539.2</ele>
        <time>2020-09-12T11:14:22Z</time>
      </trkpt>
      <trkpt lat="42.8296470" lon="-0.2412680">
        <ele>2538.2</ele>
        <time>2020-09-12T11:14:25Z</time>
      </trkpt>
      <trkpt lat="42.8296690" lon="-0.2411610">
        <ele>2537.0</ele>
        <time>2020-09-12T11:14:31Z</time>
      </trkpt>
      <trkpt lat="42.8296840" lon="-0.2411390">
        <ele>2536.8</ele>
        <time>2020-09-12T11:14:33Z</time>
      </trkpt>
      <trkpt lat="42.8296950" lon="-0.2411140">
        <ele>2536.6</ele>
        <time>2020-09-12T11:14:34Z</time>
      </trkpt>
      <trkpt lat="42.8296980" lon="-0.2411000">
        <ele>2536.4</ele>
        <time>2020-09-12T11:14:36Z</time>
      </trkpt>
      <trkpt lat="42.8297230" lon="-0.2410660">
        <ele>2536.0</ele>
        <time>2020-09-12T11:14:42Z</time>
      </trkpt>
      <trkpt lat="42.8297280" lon="-0.2410580">
        <ele>2535.8</ele>
        <time>2020-09-12T11:14:43Z</time>
      </trkpt>
      <trkpt lat="42.8297320" lon="-0.2410380">
        <ele>2535.2</ele>
        <time>2020-09-12T11:14:45Z</time>
      </trkpt>
      <trkpt lat="42.8297320" lon="-0.2410310">
        <ele>2535.0</ele>
        <time>2020-09-12T11:14:46Z</time>
      </trkpt>
      <trkpt lat="42.8297470" lon="-0.2409970">
        <ele>2534.0</ele>
        <time>2020-09-12T11:14:55Z</time>
      </trkpt>
      <trkpt lat="42.8297670" lon="-0.2408610">
        <ele>2532.8</ele>
        <time>2020-09-12T11:15:06Z</time>
      </trkpt>
      <trkpt lat="42.8297630" lon="-0.2408080">
        <ele>2531.8</ele>
        <time>2020-09-12T11:15:13Z</time>
      </trkpt>
      <trkpt lat="42.8298150" lon="-0.2406910">
        <ele>2530.6</ele>
        <time>2020-09-12T11:15:33Z</time>
      </trkpt>
      <trkpt lat="42.8298180" lon="-0.2406590">
        <ele>2530.0</ele>
        <time>2020-09-12T11:15:36Z</time>
      </trkpt>
      <trkpt lat="42.8298210" lon="-0.2406420">
        <ele>2529.6</ele>
        <time>2020-09-12T11:15:38Z</time>
      </trkpt>
      <trkpt lat="42.8298230" lon="-0.2406030">
        <ele>2529.0</ele>
        <time>2020-09-12T11:15:41Z</time>
      </trkpt>
      <trkpt lat="42.8298110" lon="-0.2405990">
        <ele>2528.6</ele>
        <time>2020-09-12T11:15:48Z</time>
      </trkpt>
      <trkpt lat="42.8298220" lon="-0.2405120">
        <ele>2527.4</ele>
        <time>2020-09-12T11:15:56Z</time>
      </trkpt>
      <trkpt lat="42.8298290" lon="-0.2405010">
        <ele>2527.4</ele>
        <time>2020-09-12T11:15:57Z</time>
      </trkpt>
      <trkpt lat="42.8298390" lon="-0.2404420">
        <ele>2526.2</ele>
        <time>2020-09-12T11:16:02Z</time>
      </trkpt>
      <trkpt lat="42.8298320" lon="-0.2403740">
        <ele>2525.6</ele>
        <time>2020-09-12T11:16:07Z</time>
      </trkpt>
      <trkpt lat="42.8298310" lon="-0.2403460">
        <ele>2525.2</ele>
        <time>2020-09-12T11:16:09Z</time>
      </trkpt>
      <trkpt lat="42.8298570" lon="-0.2403000">
        <ele>2524.4</ele>
        <time>2020-09-12T11:16:14Z</time>
      </trkpt>
      <trkpt lat="42.8298630" lon="-0.2402650">
        <ele>2524.2</ele>
        <time>2020-09-12T11:16:17Z</time>
      </trkpt>
      <trkpt lat="42.8298800" lon="-0.2402210">
        <ele>2523.6</ele>
        <time>2020-09-12T11:16:22Z</time>
      </trkpt>
      <trkpt lat="42.8298760" lon="-0.2402210">
        <ele>2523.2</ele>
        <time>2020-09-12T11:16:27Z</time>
      </trkpt>
      <trkpt lat="42.8298950" lon="-0.2401560">
        <ele>2522.8</ele>
        <time>2020-09-12T11:16:36Z</time>
      </trkpt>
      <trkpt lat="42.8299120" lon="-0.2401230">
        <ele>2522.4</ele>
        <time>2020-09-12T11:16:39Z</time>
      </trkpt>
      <trkpt lat="42.8299180" lon="-0.2401000">
        <ele>2522.4</ele>
        <time>2020-09-12T11:16:41Z</time>
      </trkpt>
      <trkpt lat="42.8299170" lon="-0.2400700">
        <ele>2522.4</ele>
        <time>2020-09-12T11:16:43Z</time>
      </trkpt>
      <trkpt lat="42.8299130" lon="-0.2400080">
        <ele>2522.4</ele>
        <time>2020-09-12T11:16:47Z</time>
      </trkpt>
      <trkpt lat="42.8299120" lon="-0.2399750">
        <ele>2521.6</ele>
        <time>2020-09-12T11:16:49Z</time>
      </trkpt>
      <trkpt lat="42.8299110" lon="-0.2399600">
        <ele>2521.2</ele>
        <time>2020-09-12T11:16:50Z</time>
      </trkpt>
      <trkpt lat="42.8299030" lon="-0.2399500">
        <ele>2520.6</ele>
        <time>2020-09-12T11:16:51Z</time>
      </trkpt>
      <trkpt lat="42.8298970" lon="-0.2399420">
        <ele>2520.2</ele>
        <time>2020-09-12T11:16:52Z</time>
      </trkpt>
      <trkpt lat="42.8298870" lon="-0.2399230">
        <ele>2519.8</ele>
        <time>2020-09-12T11:16:54Z</time>
      </trkpt>
      <trkpt lat="42.8298850" lon="-0.2399140">
        <ele>2519.4</ele>
        <time>2020-09-12T11:16:55Z</time>
      </trkpt>
      <trkpt lat="42.8298860" lon="-0.2398750">
        <ele>2518.6</ele>
        <time>2020-09-12T11:16:58Z</time>
      </trkpt>
      <trkpt lat="42.8298740" lon="-0.2398530">
        <ele>2518.4</ele>
        <time>2020-09-12T11:17:00Z</time>
      </trkpt>
      <trkpt lat="42.8298610" lon="-0.2398470">
        <ele>2518.2</ele>
        <time>2020-09-12T11:17:02Z</time>
      </trkpt>
      <trkpt lat="42.8299180" lon="-0.2398120">
        <ele>2517.2</ele>
        <time>2020-09-12T11:17:12Z</time>
      </trkpt>
      <trkpt lat="42.8299050" lon="-0.2397810">
        <ele>2517.0</ele>
        <time>2020-09-12T11:17:15Z</time>
      </trkpt>
      <trkpt lat="42.8298790" lon="-0.2397560">
        <ele>2516.2</ele>
        <time>2020-09-12T11:17:18Z</time>
      </trkpt>
      <trkpt lat="42.8298680" lon="-0.2397380">
        <ele>2515.4</ele>
        <time>2020-09-12T11:17:20Z</time>
      </trkpt>
      <trkpt lat="42.8298580" lon="-0.2397200">
        <ele>2515.0</ele>
        <time>2020-09-12T11:17:22Z</time>
      </trkpt>
      <trkpt lat="42.8298420" lon="-0.2396640">
        <ele>2514.8</ele>
        <time>2020-09-12T11:17:54Z</time>
      </trkpt>
      <trkpt lat="42.8298370" lon="-0.2396010">
        <ele>2514.0</ele>
        <time>2020-09-12T11:17:58Z</time>
      </trkpt>
      <trkpt lat="42.8298520" lon="-0.2395260">
        <ele>2513.8</ele>
        <time>2020-09-12T11:18:02Z</time>
      </trkpt>
      <trkpt lat="42.8298270" lon="-0.2394470">
        <ele>2513.0</ele>
        <time>2020-09-12T11:18:08Z</time>
      </trkpt>
      <trkpt lat="42.8298290" lon="-0.2393700">
        <ele>2513.0</ele>
        <time>2020-09-12T11:18:13Z</time>
      </trkpt>
      <trkpt lat="42.8298140" lon="-0.2393260">
        <ele>2512.8</ele>
        <time>2020-09-12T11:18:16Z</time>
      </trkpt>
      <trkpt lat="42.8297060" lon="-0.2392420">
        <ele>2513.0</ele>
        <time>2020-09-12T11:18:27Z</time>
      </trkpt>
      <trkpt lat="42.8296910" lon="-0.2391600">
        <ele>2513.2</ele>
        <time>2020-09-12T11:18:31Z</time>
      </trkpt>
      <trkpt lat="42.8296270" lon="-0.2390610">
        <ele>2513.6</ele>
        <time>2020-09-12T11:18:38Z</time>
      </trkpt>
      <trkpt lat="42.8295890" lon="-0.2390300">
        <ele>2513.8</ele>
        <time>2020-09-12T11:18:42Z</time>
      </trkpt>
      <trkpt lat="42.8295990" lon="-0.2388110">
        <ele>2514.0</ele>
        <time>2020-09-12T11:18:58Z</time>
      </trkpt>
      <trkpt lat="42.8295900" lon="-0.2387450">
        <ele>2514.6</ele>
        <time>2020-09-12T11:19:03Z</time>
      </trkpt>
      <trkpt lat="42.8295890" lon="-0.2387400">
        <ele>2514.8</ele>
        <time>2020-09-12T11:19:05Z</time>
      </trkpt>
      <trkpt lat="42.8295800" lon="-0.2387710">
        <ele>2515.0</ele>
        <time>2020-09-12T11:19:19Z</time>
      </trkpt>
      <trkpt lat="42.8295850" lon="-0.2386430">
        <ele>2515.0</ele>
        <time>2020-09-12T11:19:33Z</time>
      </trkpt>
      <trkpt lat="42.8295820" lon="-0.2386190">
        <ele>2514.8</ele>
        <time>2020-09-12T11:19:35Z</time>
      </trkpt>
      <trkpt lat="42.8296690" lon="-0.2385060">
        <ele>2515.2</ele>
        <time>2020-09-12T11:19:46Z</time>
      </trkpt>
      <trkpt lat="42.8297150" lon="-0.2384930">
        <ele>2514.8</ele>
        <time>2020-09-12T11:19:49Z</time>
      </trkpt>
      <trkpt lat="42.8297530" lon="-0.2384710">
        <ele>2513.6</ele>
        <time>2020-09-12T11:19:52Z</time>
      </trkpt>
      <trkpt lat="42.8297780" lon="-0.2384420">
        <ele>2512.6</ele>
        <time>2020-09-12T11:19:55Z</time>
      </trkpt>
      <trkpt lat="42.8297840" lon="-0.2384380">
        <ele>2512.6</ele>
        <time>2020-09-12T11:19:56Z</time>
      </trkpt>
      <trkpt lat="42.8298330" lon="-0.2383850">
        <ele>2511.6</ele>
        <time>2020-09-12T11:20:01Z</time>
      </trkpt>
      <trkpt lat="42.8298430" lon="-0.2383580">
        <ele>2511.4</ele>
        <time>2020-09-12T11:20:03Z</time>
      </trkpt>
      <trkpt lat="42.8298540" lon="-0.2383160">
        <ele>2510.4</ele>
        <time>2020-09-12T11:20:06Z</time>
      </trkpt>
      <trkpt lat="42.8298640" lon="-0.2382470">
        <ele>2509.4</ele>
        <time>2020-09-12T11:20:10Z</time>
      </trkpt>
      <trkpt lat="42.8298720" lon="-0.2381130">
        <ele>2508.4</ele>
        <time>2020-09-12T11:20:17Z</time>
      </trkpt>
      <trkpt lat="42.8298940" lon="-0.2380980">
        <ele>2508.2</ele>
        <time>2020-09-12T11:20:18Z</time>
      </trkpt>
      <trkpt lat="42.8299130" lon="-0.2380700">
        <ele>2507.0</ele>
        <time>2020-09-12T11:20:21Z</time>
      </trkpt>
      <trkpt lat="42.8299210" lon="-0.2380480">
        <ele>2506.2</ele>
        <time>2020-09-12T11:20:23Z</time>
      </trkpt>
      <trkpt lat="42.8299220" lon="-0.2380410">
        <ele>2506.0</ele>
        <time>2020-09-12T11:20:24Z</time>
      </trkpt>
      <trkpt lat="42.8299210" lon="-0.2380410">
        <ele>2505.8</ele>
        <time>2020-09-12T11:20:25Z</time>
      </trkpt>
      <trkpt lat="42.8299580" lon="-0.2379210">
        <ele>2504.6</ele>
        <time>2020-09-12T11:20:52Z</time>
      </trkpt>
      <trkpt lat="42.8299740" lon="-0.2379010">
        <ele>2503.2</ele>
        <time>2020-09-12T11:20:54Z</time>
      </trkpt>
      <trkpt lat="42.8299920" lon="-0.2378880">
        <ele>2502.6</ele>
        <time>2020-09-12T11:20:56Z</time>
      </trkpt>
      <trkpt lat="42.8300020" lon="-0.2378840">
        <ele>2502.2</ele>
        <time>2020-09-12T11:20:57Z</time>
      </trkpt>
      <trkpt lat="42.8300120" lon="-0.2378760">
        <ele>2502.2</ele>
        <time>2020-09-12T11:20:58Z</time>
      </trkpt>
      <trkpt lat="42.8300610" lon="-0.2378090">
        <ele>2501.4</ele>
        <time>2020-09-12T11:21:05Z</time>
      </trkpt>
      <trkpt lat="42.8300670" lon="-0.2378090">
        <ele>2501.0</ele>
        <time>2020-09-12T11:21:06Z</time>
      </trkpt>
      <trkpt lat="42.8300750" lon="-0.2377950">
        <ele>2500.4</ele>
        <time>2020-09-12T11:21:08Z</time>
      </trkpt>
      <trkpt lat="42.8300850" lon="-0.2377910">
        <ele>2499.8</ele>
        <time>2020-09-12T11:21:10Z</time>
      </trkpt>
      <trkpt lat="42.8301330" lon="-0.2376850">
        <ele>2498.8</ele>
        <time>2020-09-12T11:21:18Z</time>
      </trkpt>
      <trkpt lat="42.8301880" lon="-0.2375680">
        <ele>2497.8</ele>
        <time>2020-09-12T11:21:26Z</time>
      </trkpt>
      <trkpt lat="42.8302110" lon="-0.2375490">
        <ele>2497.6</ele>
        <time>2020-09-12T11:21:28Z</time>
      </trkpt>
      <trkpt lat="42.8302130" lon="-0.2375490">
        <ele>2497.8</ele>
        <time>2020-09-12T11:21:30Z</time>
      </trkpt>
      <trkpt lat="42.8301990" lon="-0.2374940">
        <ele>2497.8</ele>
        <time>2020-09-12T11:21:34Z</time>
      </trkpt>
      <trkpt lat="42.8302120" lon="-0.2374300">
        <ele>2496.4</ele>
        <time>2020-09-12T11:21:38Z</time>
      </trkpt>
      <trkpt lat="42.8302290" lon="-0.2373570">
        <ele>2495.4</ele>
        <time>2020-09-12T11:21:42Z</time>
      </trkpt>
      <trkpt lat="42.8302290" lon="-0.2373280">
        <ele>2494.8</ele>
        <time>2020-09-12T11:21:45Z</time>
      </trkpt>
      <trkpt lat="42.8302270" lon="-0.2373260">
        <ele>2494.2</ele>
        <time>2020-09-12T11:21:47Z</time>
      </trkpt>
      <trkpt lat="42.8302320" lon="-0.2372560">
        <ele>2494.0</ele>
        <time>2020-09-12T11:21:57Z</time>
      </trkpt>
      <trkpt lat="42.8302270" lon="-0.2372410">
        <ele>2494.0</ele>
        <time>2020-09-12T11:21:59Z</time>
      </trkpt>
      <trkpt lat="42.8302380" lon="-0.2371670">
        <ele>2493.4</ele>
        <time>2020-09-12T11:22:35Z</time>
      </trkpt>
      <trkpt lat="42.8302410" lon="-0.2371510">
        <ele>2493.0</ele>
        <time>2020-09-12T11:22:36Z</time>
      </trkpt>
      <trkpt lat="42.8302410" lon="-0.2371290">
        <ele>2492.0</ele>
        <time>2020-09-12T11:22:38Z</time>
      </trkpt>
      <trkpt lat="42.8302360" lon="-0.2371190">
        <ele>2491.6</ele>
        <time>2020-09-12T11:22:39Z</time>
      </trkpt>
      <trkpt lat="42.8302250" lon="-0.2370830">
        <ele>2490.4</ele>
        <time>2020-09-12T11:22:42Z</time>
      </trkpt>
      <trkpt lat="42.8302240" lon="-0.2370710">
        <ele>2490.0</ele>
        <time>2020-09-12T11:22:43Z</time>
      </trkpt>
      <trkpt lat="42.8302180" lon="-0.2370300">
        <ele>2489.4</ele>
        <time>2020-09-12T11:22:46Z</time>
      </trkpt>
      <trkpt lat="42.8302140" lon="-0.2369910">
        <ele>2489.0</ele>
        <time>2020-09-12T11:22:49Z</time>
      </trkpt>
      <trkpt lat="42.8302460" lon="-0.2369810">
        <ele>2488.6</ele>
        <time>2020-09-12T11:22:52Z</time>
      </trkpt>
      <trkpt lat="42.8302560" lon="-0.2369920">
        <ele>2488.2</ele>
        <time>2020-09-12T11:22:53Z</time>
      </trkpt>
      <trkpt lat="42.8302810" lon="-0.2370130">
        <ele>2487.2</ele>
        <time>2020-09-12T11:22:56Z</time>
      </trkpt>
      <trkpt lat="42.8302920" lon="-0.2370190">
        <ele>2487.0</ele>
        <time>2020-09-12T11:22:57Z</time>
      </trkpt>
      <trkpt lat="42.8303030" lon="-0.2370170">
        <ele>2486.4</ele>
        <time>2020-09-12T11:22:58Z</time>
      </trkpt>
      <trkpt lat="42.8303130" lon="-0.2369880">
        <ele>2485.6</ele>
        <time>2020-09-12T11:23:00Z</time>
      </trkpt>
      <trkpt lat="42.8303190" lon="-0.2369570">
        <ele>2485.2</ele>
        <time>2020-09-12T11:23:02Z</time>
      </trkpt>
      <trkpt lat="42.8303340" lon="-0.2369570">
        <ele>2484.6</ele>
        <time>2020-09-12T11:23:04Z</time>
      </trkpt>
      <trkpt lat="42.8303670" lon="-0.2369910">
        <ele>2483.4</ele>
        <time>2020-09-12T11:23:08Z</time>
      </trkpt>
      <trkpt lat="42.8304080" lon="-0.2369370">
        <ele>2482.2</ele>
        <time>2020-09-12T11:23:15Z</time>
      </trkpt>
      <trkpt lat="42.8304430" lon="-0.2368650">
        <ele>2481.2</ele>
        <time>2020-09-12T11:23:20Z</time>
      </trkpt>
      <trkpt lat="42.8304450" lon="-0.2368470">
        <ele>2481.0</ele>
        <time>2020-09-12T11:23:21Z</time>
      </trkpt>
      <trkpt lat="42.8304220" lon="-0.2368150">
        <ele>2480.6</ele>
        <time>2020-09-12T11:23:23Z</time>
      </trkpt>
      <trkpt lat="42.8303970" lon="-0.2367920">
        <ele>2480.0</ele>
        <time>2020-09-12T11:23:25Z</time>
      </trkpt>
      <trkpt lat="42.8303510" lon="-0.2367480">
        <ele>2479.6</ele>
        <time>2020-09-12T11:23:30Z</time>
      </trkpt>
      <trkpt lat="42.8303460" lon="-0.2367590">
        <ele>2479.2</ele>
        <time>2020-09-12T11:23:33Z</time>
      </trkpt>
      <trkpt lat="42.8303510" lon="-0.2367530">
        <ele>2479.0</ele>
        <time>2020-09-12T11:23:46Z</time>
      </trkpt>
      <trkpt lat="42.8303290" lon="-0.2366960">
        <ele>2479.0</ele>
        <time>2020-09-12T11:23:50Z</time>
      </trkpt>
      <trkpt lat="42.8302690" lon="-0.2365890">
        <ele>2477.6</ele>
        <time>2020-09-12T11:23:57Z</time>
      </trkpt>
      <trkpt lat="42.8302610" lon="-0.2365740">
        <ele>2477.6</ele>
        <time>2020-09-12T11:23:58Z</time>
      </trkpt>
      <trkpt lat="42.8302080" lon="-0.2364940">
        <ele>2477.6</ele>
        <time>2020-09-12T11:24:06Z</time>
      </trkpt>
      <trkpt lat="42.8302240" lon="-0.2364830">
        <ele>2476.6</ele>
        <time>2020-09-12T11:24:10Z</time>
      </trkpt>
      <trkpt lat="42.8302330" lon="-0.2364890">
        <ele>2475.6</ele>
        <time>2020-09-12T11:24:13Z</time>
      </trkpt>
      <trkpt lat="42.8302690" lon="-0.2364840">
        <ele>2474.2</ele>
        <time>2020-09-12T11:24:16Z</time>
      </trkpt>
      <trkpt lat="42.8302910" lon="-0.2364790">
        <ele>2473.6</ele>
        <time>2020-09-12T11:24:18Z</time>
      </trkpt>
      <trkpt lat="42.8303090" lon="-0.2364640">
        <ele>2473.2</ele>
        <time>2020-09-12T11:24:20Z</time>
      </trkpt>
      <trkpt lat="42.8303200" lon="-0.2364530">
        <ele>2472.8</ele>
        <time>2020-09-12T11:24:21Z</time>
      </trkpt>
      <trkpt lat="42.8303290" lon="-0.2364500">
        <ele>2472.0</ele>
        <time>2020-09-12T11:24:22Z</time>
      </trkpt>
      <trkpt lat="42.8303350" lon="-0.2364490">
        <ele>2471.6</ele>
        <time>2020-09-12T11:24:23Z</time>
      </trkpt>
      <trkpt lat="42.8303610" lon="-0.2364500">
        <ele>2470.2</ele>
        <time>2020-09-12T11:24:26Z</time>
      </trkpt>
      <trkpt lat="42.8303680" lon="-0.2364500">
        <ele>2469.8</ele>
        <time>2020-09-12T11:24:27Z</time>
      </trkpt>
      <trkpt lat="42.8303760" lon="-0.2364520">
        <ele>2469.0</ele>
        <time>2020-09-12T11:24:29Z</time>
      </trkpt>
      <trkpt lat="42.8303800" lon="-0.2364520">
        <ele>2468.8</ele>
        <time>2020-09-12T11:24:30Z</time>
      </trkpt>
      <trkpt lat="42.8303910" lon="-0.2364430">
        <ele>2467.8</ele>
        <time>2020-09-12T11:24:33Z</time>
      </trkpt>
      <trkpt lat="42.8304170" lon="-0.2364220">
        <ele>2466.8</ele>
        <time>2020-09-12T11:24:39Z</time>
      </trkpt>
      <trkpt lat="42.8304110" lon="-0.2363740">
        <ele>2465.6</ele>
        <time>2020-09-12T11:24:45Z</time>
      </trkpt>
      <trkpt lat="42.8303980" lon="-0.2363550">
        <ele>2464.4</ele>
        <time>2020-09-12T11:24:48Z</time>
      </trkpt>
      <trkpt lat="42.8303900" lon="-0.2363000">
        <ele>2463.4</ele>
        <time>2020-09-12T11:24:52Z</time>
      </trkpt>
      <trkpt lat="42.8303610" lon="-0.2362720">
        <ele>2462.2</ele>
        <time>2020-09-12T11:24:55Z</time>
      </trkpt>
      <trkpt lat="42.8303350" lon="-0.2362550">
        <ele>2461.2</ele>
        <time>2020-09-12T11:24:58Z</time>
      </trkpt>
      <trkpt lat="42.8303300" lon="-0.2362480">
        <ele>2461.0</ele>
        <time>2020-09-12T11:24:59Z</time>
      </trkpt>
      <trkpt lat="42.8302930" lon="-0.2361980">
        <ele>2460.8</ele>
        <time>2020-09-12T11:25:04Z</time>
      </trkpt>
      <trkpt lat="42.8302590" lon="-0.2361610">
        <ele>2460.6</ele>
        <time>2020-09-12T11:25:08Z</time>
      </trkpt>
      <trkpt lat="42.8301430" lon="-0.2361010">
        <ele>2460.6</ele>
        <time>2020-09-12T11:25:19Z</time>
      </trkpt>
      <trkpt lat="42.8301180" lon="-0.2360970">
        <ele>2460.2</ele>
        <time>2020-09-12T11:25:22Z</time>
      </trkpt>
      <trkpt lat="42.8301040" lon="-0.2360840">
        <ele>2460.0</ele>
        <time>2020-09-12T11:25:24Z</time>
      </trkpt>
      <trkpt lat="42.8300870" lon="-0.2360350">
        <ele>2459.0</ele>
        <time>2020-09-12T11:25:28Z</time>
      </trkpt>
      <trkpt lat="42.8300810" lon="-0.2360350">
        <ele>2458.8</ele>
        <time>2020-09-12T11:25:29Z</time>
      </trkpt>
      <trkpt lat="42.8300600" lon="-0.2360520">
        <ele>2457.6</ele>
        <time>2020-09-12T11:25:32Z</time>
      </trkpt>
      <trkpt lat="42.8300200" lon="-0.2360800">
        <ele>2456.6</ele>
        <time>2020-09-12T11:25:36Z</time>
      </trkpt>
      <trkpt lat="42.8300010" lon="-0.2360960">
        <ele>2456.2</ele>
        <time>2020-09-12T11:25:38Z</time>
      </trkpt>
      <trkpt lat="42.8299640" lon="-0.2361080">
        <ele>2455.8</ele>
        <time>2020-09-12T11:25:41Z</time>
      </trkpt>
      <trkpt lat="42.8299500" lon="-0.2361070">
        <ele>2455.2</ele>
        <time>2020-09-12T11:25:42Z</time>
      </trkpt>
      <trkpt lat="42.8299230" lon="-0.2361000">
        <ele>2453.8</ele>
        <time>2020-09-12T11:25:44Z</time>
      </trkpt>
      <trkpt lat="42.8298620" lon="-0.2360710">
        <ele>2452.8</ele>
        <time>2020-09-12T11:25:49Z</time>
      </trkpt>
      <trkpt lat="42.8297930" lon="-0.2360460">
        <ele>2452.0</ele>
        <time>2020-09-12T11:25:56Z</time>
      </trkpt>
      <trkpt lat="42.8297910" lon="-0.2360220">
        <ele>2452.0</ele>
        <time>2020-09-12T11:25:58Z</time>
      </trkpt>
      <trkpt lat="42.8297910" lon="-0.2359920">
        <ele>2451.6</ele>
        <time>2020-09-12T11:26:00Z</time>
      </trkpt>
      <trkpt lat="42.8297880" lon="-0.2359750">
        <ele>2451.2</ele>
        <time>2020-09-12T11:26:02Z</time>
      </trkpt>
      <trkpt lat="42.8297860" lon="-0.2359580">
        <ele>2450.6</ele>
        <time>2020-09-12T11:26:05Z</time>
      </trkpt>
      <trkpt lat="42.8297900" lon="-0.2359640">
        <ele>2450.4</ele>
        <time>2020-09-12T11:26:08Z</time>
      </trkpt>
      <trkpt lat="42.8298230" lon="-0.2359760">
        <ele>2449.4</ele>
        <time>2020-09-12T11:26:20Z</time>
      </trkpt>
      <trkpt lat="42.8298510" lon="-0.2358860">
        <ele>2448.4</ele>
        <time>2020-09-12T11:26:33Z</time>
      </trkpt>
      <trkpt lat="42.8298780" lon="-0.2358420">
        <ele>2447.2</ele>
        <time>2020-09-12T11:26:37Z</time>
      </trkpt>
      <trkpt lat="42.8298690" lon="-0.2357750">
        <ele>2446.2</ele>
        <time>2020-09-12T11:26:42Z</time>
      </trkpt>
      <trkpt lat="42.8298690" lon="-0.2357480">
        <ele>2445.2</ele>
        <time>2020-09-12T11:26:44Z</time>
      </trkpt>
      <trkpt lat="42.8298780" lon="-0.2356980">
        <ele>2443.6</ele>
        <time>2020-09-12T11:26:46Z</time>
      </trkpt>
      <trkpt lat="42.8298830" lon="-0.2356610">
        <ele>2442.6</ele>
        <time>2020-09-12T11:26:48Z</time>
      </trkpt>
      <trkpt lat="42.8299000" lon="-0.2356480">
        <ele>2442.2</ele>
        <time>2020-09-12T11:26:50Z</time>
      </trkpt>
      <trkpt lat="42.8299050" lon="-0.2355850">
        <ele>2442.2</ele>
        <time>2020-09-12T11:26:53Z</time>
      </trkpt>
      <trkpt lat="42.8299090" lon="-0.2355520">
        <ele>2441.2</ele>
        <time>2020-09-12T11:26:56Z</time>
      </trkpt>
      <trkpt lat="42.8299140" lon="-0.2355500">
        <ele>2440.6</ele>
        <time>2020-09-12T11:26:57Z</time>
      </trkpt>
      <trkpt lat="42.8299190" lon="-0.2355480">
        <ele>2440.0</ele>
        <time>2020-09-12T11:26:58Z</time>
      </trkpt>
      <trkpt lat="42.8299290" lon="-0.2355340">
        <ele>2439.2</ele>
        <time>2020-09-12T11:27:00Z</time>
      </trkpt>
      <trkpt lat="42.8299300" lon="-0.2355160">
        <ele>2439.0</ele>
        <time>2020-09-12T11:27:01Z</time>
      </trkpt>
      <trkpt lat="42.8299140" lon="-0.2354480">
        <ele>2438.4</ele>
        <time>2020-09-12T11:27:05Z</time>
      </trkpt>
      <trkpt lat="42.8299130" lon="-0.2354150">
        <ele>2437.8</ele>
        <time>2020-09-12T11:27:07Z</time>
      </trkpt>
      <trkpt lat="42.8299110" lon="-0.2353740">
        <ele>2436.6</ele>
        <time>2020-09-12T11:27:10Z</time>
      </trkpt>
      <trkpt lat="42.8299180" lon="-0.2353550">
        <ele>2435.8</ele>
        <time>2020-09-12T11:27:13Z</time>
      </trkpt>
      <trkpt lat="42.8299300" lon="-0.2353340">
        <ele>2435.4</ele>
        <time>2020-09-12T11:27:15Z</time>
      </trkpt>
      <trkpt lat="42.8299890" lon="-0.2352330">
        <ele>2434.4</ele>
        <time>2020-09-12T11:27:22Z</time>
      </trkpt>
      <trkpt lat="42.8299910" lon="-0.2352180">
        <ele>2433.8</ele>
        <time>2020-09-12T11:27:24Z</time>
      </trkpt>
      <trkpt lat="42.8300200" lon="-0.2351940">
        <ele>2433.2</ele>
        <time>2020-09-12T11:27:27Z</time>
      </trkpt>
      <trkpt lat="42.8300280" lon="-0.2351750">
        <ele>2433.0</ele>
        <time>2020-09-12T11:27:28Z</time>
      </trkpt>
      <trkpt lat="42.8300350" lon="-0.2351030">
        <ele>2432.0</ele>
        <time>2020-09-12T11:27:32Z</time>
      </trkpt>
      <trkpt lat="42.8300550" lon="-0.2350550">
        <ele>2431.0</ele>
        <time>2020-09-12T11:27:35Z</time>
      </trkpt>
      <trkpt lat="42.8300550" lon="-0.2350380">
        <ele>2430.8</ele>
        <time>2020-09-12T11:27:36Z</time>
      </trkpt>
      <trkpt lat="42.8300710" lon="-0.2348970">
        <ele>2429.8</ele>
        <time>2020-09-12T11:27:44Z</time>
      </trkpt>
      <trkpt lat="42.8301010" lon="-0.2347810">
        <ele>2428.6</ele>
        <time>2020-09-12T11:27:52Z</time>
      </trkpt>
      <trkpt lat="42.8301110" lon="-0.2347510">
        <ele>2428.6</ele>
        <time>2020-09-12T11:27:55Z</time>
      </trkpt>
      <trkpt lat="42.8301140" lon="-0.2347310">
        <ele>2428.2</ele>
        <time>2020-09-12T11:27:57Z</time>
      </trkpt>
      <trkpt lat="42.8301170" lon="-0.2346930">
        <ele>2427.6</ele>
        <time>2020-09-12T11:28:00Z</time>
      </trkpt>
      <trkpt lat="42.8301180" lon="-0.2346570">
        <ele>2426.4</ele>
        <time>2020-09-12T11:28:03Z</time>
      </trkpt>
      <trkpt lat="42.8301360" lon="-0.2346210">
        <ele>2425.2</ele>
        <time>2020-09-12T11:28:06Z</time>
      </trkpt>
      <trkpt lat="42.8301390" lon="-0.2345890">
        <ele>2424.8</ele>
        <time>2020-09-12T11:28:08Z</time>
      </trkpt>
      <trkpt lat="42.8301340" lon="-0.2345670">
        <ele>2424.4</ele>
        <time>2020-09-12T11:28:10Z</time>
      </trkpt>
      <trkpt lat="42.8301330" lon="-0.2345540">
        <ele>2424.2</ele>
        <time>2020-09-12T11:28:11Z</time>
      </trkpt>
      <trkpt lat="42.8301310" lon="-0.2345390">
        <ele>2424.0</ele>
        <time>2020-09-12T11:28:12Z</time>
      </trkpt>
      <trkpt lat="42.8301210" lon="-0.2344610">
        <ele>2423.0</ele>
        <time>2020-09-12T11:28:17Z</time>
      </trkpt>
      <trkpt lat="42.8301240" lon="-0.2344530">
        <ele>2422.8</ele>
        <time>2020-09-12T11:28:18Z</time>
      </trkpt>
      <trkpt lat="42.8301340" lon="-0.2344370">
        <ele>2422.4</ele>
        <time>2020-09-12T11:28:20Z</time>
      </trkpt>
      <trkpt lat="42.8301260" lon="-0.2343860">
        <ele>2421.8</ele>
        <time>2020-09-12T11:28:23Z</time>
      </trkpt>
      <trkpt lat="42.8301170" lon="-0.2343240">
        <ele>2420.8</ele>
        <time>2020-09-12T11:28:27Z</time>
      </trkpt>
      <trkpt lat="42.8301120" lon="-0.2343130">
        <ele>2420.6</ele>
        <time>2020-09-12T11:28:28Z</time>
      </trkpt>
      <trkpt lat="42.8301010" lon="-0.2342720">
        <ele>2420.4</ele>
        <time>2020-09-12T11:28:31Z</time>
      </trkpt>
      <trkpt lat="42.8300810" lon="-0.2342040">
        <ele>2419.6</ele>
        <time>2020-09-12T11:28:37Z</time>
      </trkpt>
      <trkpt lat="42.8300600" lon="-0.2341590">
        <ele>2418.6</ele>
        <time>2020-09-12T11:28:41Z</time>
      </trkpt>
      <trkpt lat="42.8300600" lon="-0.2341500">
        <ele>2418.4</ele>
        <time>2020-09-12T11:28:42Z</time>
      </trkpt>
      <trkpt lat="42.8300530" lon="-0.2341040">
        <ele>2417.2</ele>
        <time>2020-09-12T11:28:48Z</time>
      </trkpt>
      <trkpt lat="42.8300680" lon="-0.2341230">
        <ele>2416.0</ele>
        <time>2020-09-12T11:28:51Z</time>
      </trkpt>
      <trkpt lat="42.8301340" lon="-0.2341990">
        <ele>2415.4</ele>
        <time>2020-09-12T11:29:00Z</time>
      </trkpt>
      <trkpt lat="42.8301740" lon="-0.2341740">
        <ele>2414.8</ele>
        <time>2020-09-12T11:29:07Z</time>
      </trkpt>
      <trkpt lat="42.8302490" lon="-0.2341210">
        <ele>2413.4</ele>
        <time>2020-09-12T11:29:16Z</time>
      </trkpt>
      <trkpt lat="42.8302640" lon="-0.2341220">
        <ele>2412.4</ele>
        <time>2020-09-12T11:29:18Z</time>
      </trkpt>
      <trkpt lat="42.8303100" lon="-0.2341330">
        <ele>2411.2</ele>
        <time>2020-09-12T11:29:22Z</time>
      </trkpt>
      <trkpt lat="42.8303160" lon="-0.2341300">
        <ele>2410.8</ele>
        <time>2020-09-12T11:29:23Z</time>
      </trkpt>
      <trkpt lat="42.8303390" lon="-0.2341000">
        <ele>2410.2</ele>
        <time>2020-09-12T11:29:27Z</time>
      </trkpt>
      <trkpt lat="42.8303510" lon="-0.2340380">
        <ele>2408.8</ele>
        <time>2020-09-12T11:29:32Z</time>
      </trkpt>
      <trkpt lat="42.8303430" lon="-0.2340300">
        <ele>2408.4</ele>
        <time>2020-09-12T11:29:33Z</time>
      </trkpt>
      <trkpt lat="42.8303250" lon="-0.2340080">
        <ele>2407.6</ele>
        <time>2020-09-12T11:29:35Z</time>
      </trkpt>
      <trkpt lat="42.8303180" lon="-0.2339800">
        <ele>2407.4</ele>
        <time>2020-09-12T11:29:36Z</time>
      </trkpt>
      <trkpt lat="42.8302970" lon="-0.2339540">
        <ele>2407.2</ele>
        <time>2020-09-12T11:29:38Z</time>
      </trkpt>
      <trkpt lat="42.8302520" lon="-0.2339160">
        <ele>2406.4</ele>
        <time>2020-09-12T11:29:42Z</time>
      </trkpt>
      <trkpt lat="42.8302290" lon="-0.2338940">
        <ele>2406.0</ele>
        <time>2020-09-12T11:29:45Z</time>
      </trkpt>
      <trkpt lat="42.8301880" lon="-0.2338450">
        <ele>2405.4</ele>
        <time>2020-09-12T11:29:49Z</time>
      </trkpt>
      <trkpt lat="42.8301700" lon="-0.2338070">
        <ele>2404.4</ele>
        <time>2020-09-12T11:29:53Z</time>
      </trkpt>
      <trkpt lat="42.8301670" lon="-0.2337850">
        <ele>2404.4</ele>
        <time>2020-09-12T11:29:55Z</time>
      </trkpt>
      <trkpt lat="42.8301580" lon="-0.2337100">
        <ele>2402.8</ele>
        <time>2020-09-12T11:30:00Z</time>
      </trkpt>
      <trkpt lat="42.8301520" lon="-0.2336650">
        <ele>2401.4</ele>
        <time>2020-09-12T11:30:03Z</time>
      </trkpt>
      <trkpt lat="42.8301560" lon="-0.2337230">
        <ele>2401.0</ele>
        <time>2020-09-12T11:30:05Z</time>
      </trkpt>
      <trkpt lat="42.8301850" lon="-0.2337580">
        <ele>2400.4</ele>
        <time>2020-09-12T11:30:08Z</time>
      </trkpt>
      <trkpt lat="42.8301860" lon="-0.2337610">
        <ele>2400.2</ele>
        <time>2020-09-12T11:30:09Z</time>
      </trkpt>
      <trkpt lat="42.8301920" lon="-0.2337570">
        <ele>2400.0</ele>
        <time>2020-09-12T11:30:11Z</time>
      </trkpt>
      <trkpt lat="42.8302150" lon="-0.2337540">
        <ele>2399.2</ele>
        <time>2020-09-12T11:30:15Z</time>
      </trkpt>
      <trkpt lat="42.8302380" lon="-0.2337620">
        <ele>2398.2</ele>
        <time>2020-09-12T11:30:19Z</time>
      </trkpt>
      <trkpt lat="42.8303130" lon="-0.2337670">
        <ele>2397.0</ele>
        <time>2020-09-12T11:30:27Z</time>
      </trkpt>
      <trkpt lat="42.8303340" lon="-0.2337550">
        <ele>2395.8</ele>
        <time>2020-09-12T11:30:30Z</time>
      </trkpt>
      <trkpt lat="42.8303450" lon="-0.2337130">
        <ele>2395.2</ele>
        <time>2020-09-12T11:30:33Z</time>
      </trkpt>
      <trkpt lat="42.8303570" lon="-0.2336730">
        <ele>2394.6</ele>
        <time>2020-09-12T11:30:37Z</time>
      </trkpt>
      <trkpt lat="42.8303620" lon="-0.2336450">
        <ele>2394.0</ele>
        <time>2020-09-12T11:30:39Z</time>
      </trkpt>
      <trkpt lat="42.8303720" lon="-0.2336220">
        <ele>2393.4</ele>
        <time>2020-09-12T11:30:41Z</time>
      </trkpt>
      <trkpt lat="42.8303840" lon="-0.2336080">
        <ele>2393.0</ele>
        <time>2020-09-12T11:30:43Z</time>
      </trkpt>
      <trkpt lat="42.8303940" lon="-0.2335990">
        <ele>2392.4</ele>
        <time>2020-09-12T11:30:45Z</time>
      </trkpt>
      <trkpt lat="42.8303990" lon="-0.2335840">
        <ele>2391.8</ele>
        <time>2020-09-12T11:30:47Z</time>
      </trkpt>
      <trkpt lat="42.8304100" lon="-0.2335680">
        <ele>2391.2</ele>
        <time>2020-09-12T11:30:49Z</time>
      </trkpt>
      <trkpt lat="42.8304200" lon="-0.2335610">
        <ele>2390.8</ele>
        <time>2020-09-12T11:30:51Z</time>
      </trkpt>
      <trkpt lat="42.8304270" lon="-0.2335590">
        <ele>2390.2</ele>
        <time>2020-09-12T11:30:53Z</time>
      </trkpt>
      <trkpt lat="42.8304310" lon="-0.2335400">
        <ele>2388.8</ele>
        <time>2020-09-12T11:30:58Z</time>
      </trkpt>
      <trkpt lat="42.8304520" lon="-0.2335040">
        <ele>2387.6</ele>
        <time>2020-09-12T11:31:02Z</time>
      </trkpt>
      <trkpt lat="42.8304630" lon="-0.2334610">
        <ele>2386.6</ele>
        <time>2020-09-12T11:31:06Z</time>
      </trkpt>
      <trkpt lat="42.8304990" lon="-0.2334170">
        <ele>2385.2</ele>
        <time>2020-09-12T11:31:12Z</time>
      </trkpt>
      <trkpt lat="42.8305350" lon="-0.2333770">
        <ele>2384.2</ele>
        <time>2020-09-12T11:31:18Z</time>
      </trkpt>
      <trkpt lat="42.8305630" lon="-0.2333330">
        <ele>2383.2</ele>
        <time>2020-09-12T11:31:25Z</time>
      </trkpt>
      <trkpt lat="42.8306020" lon="-0.2332660">
        <ele>2382.0</ele>
        <time>2020-09-12T11:31:31Z</time>
      </trkpt>
      <trkpt lat="42.8306080" lon="-0.2332450">
        <ele>2381.8</ele>
        <time>2020-09-12T11:31:32Z</time>
      </trkpt>
      <trkpt lat="42.8306210" lon="-0.2331420">
        <ele>2381.0</ele>
        <time>2020-09-12T11:31:38Z</time>
      </trkpt>
      <trkpt lat="42.8306210" lon="-0.2331130">
        <ele>2380.4</ele>
        <time>2020-09-12T11:31:40Z</time>
      </trkpt>
      <trkpt lat="42.8306260" lon="-0.2330910">
        <ele>2379.8</ele>
        <time>2020-09-12T11:31:42Z</time>
      </trkpt>
      <trkpt lat="42.8306330" lon="-0.2330620">
        <ele>2379.6</ele>
        <time>2020-09-12T11:31:44Z</time>
      </trkpt>
      <trkpt lat="42.8306360" lon="-0.2329570">
        <ele>2378.6</ele>
        <time>2020-09-12T11:31:51Z</time>
      </trkpt>
      <trkpt lat="42.8306430" lon="-0.2329190">
        <ele>2377.8</ele>
        <time>2020-09-12T11:31:55Z</time>
      </trkpt>
      <trkpt lat="42.8306480" lon="-0.2328900">
        <ele>2377.6</ele>
        <time>2020-09-12T11:31:57Z</time>
      </trkpt>
      <trkpt lat="42.8306560" lon="-0.2328610">
        <ele>2377.2</ele>
        <time>2020-09-12T11:31:59Z</time>
      </trkpt>
      <trkpt lat="42.8306690" lon="-0.2328170">
        <ele>2376.8</ele>
        <time>2020-09-12T11:32:03Z</time>
      </trkpt>
      <trkpt lat="42.8306880" lon="-0.2328040">
        <ele>2376.6</ele>
        <time>2020-09-12T11:32:06Z</time>
      </trkpt>
      <trkpt lat="42.8307010" lon="-0.2327870">
        <ele>2376.2</ele>
        <time>2020-09-12T11:32:08Z</time>
      </trkpt>
      <trkpt lat="42.8307230" lon="-0.2327070">
        <ele>2376.0</ele>
        <time>2020-09-12T11:32:13Z</time>
      </trkpt>
      <trkpt lat="42.8307300" lon="-0.2326760">
        <ele>2375.8</ele>
        <time>2020-09-12T11:32:15Z</time>
      </trkpt>
      <trkpt lat="42.8307280" lon="-0.2326440">
        <ele>2375.6</ele>
        <time>2020-09-12T11:32:17Z</time>
      </trkpt>
      <trkpt lat="42.8307200" lon="-0.2326130">
        <ele>2375.0</ele>
        <time>2020-09-12T11:32:20Z</time>
      </trkpt>
      <trkpt lat="42.8307200" lon="-0.2325910">
        <ele>2374.8</ele>
        <time>2020-09-12T11:32:22Z</time>
      </trkpt>
      <trkpt lat="42.8307160" lon="-0.2325670">
        <ele>2374.4</ele>
        <time>2020-09-12T11:32:24Z</time>
      </trkpt>
      <trkpt lat="42.8307160" lon="-0.2325630">
        <ele>2374.2</ele>
        <time>2020-09-12T11:32:25Z</time>
      </trkpt>
      <trkpt lat="42.8307200" lon="-0.2325440">
        <ele>2373.8</ele>
        <time>2020-09-12T11:32:28Z</time>
      </trkpt>
      <trkpt lat="42.8307190" lon="-0.2325280">
        <ele>2373.4</ele>
        <time>2020-09-12T11:32:30Z</time>
      </trkpt>
      <trkpt lat="42.8307170" lon="-0.2324420">
        <ele>2372.2</ele>
        <time>2020-09-12T11:32:36Z</time>
      </trkpt>
      <trkpt lat="42.8307130" lon="-0.2324280">
        <ele>2372.2</ele>
        <time>2020-09-12T11:32:37Z</time>
      </trkpt>
      <trkpt lat="42.8306890" lon="-0.2323780">
        <ele>2371.4</ele>
        <time>2020-09-12T11:32:41Z</time>
      </trkpt>
      <trkpt lat="42.8306830" lon="-0.2323710">
        <ele>2371.2</ele>
        <time>2020-09-12T11:32:42Z</time>
      </trkpt>
      <trkpt lat="42.8306780" lon="-0.2323610">
        <ele>2371.0</ele>
        <time>2020-09-12T11:32:43Z</time>
      </trkpt>
      <trkpt lat="42.8306630" lon="-0.2323300">
        <ele>2370.6</ele>
        <time>2020-09-12T11:32:46Z</time>
      </trkpt>
      <trkpt lat="42.8306510" lon="-0.2323040">
        <ele>2370.2</ele>
        <time>2020-09-12T11:32:50Z</time>
      </trkpt>
      <trkpt lat="42.8306310" lon="-0.2322450">
        <ele>2369.0</ele>
        <time>2020-09-12T11:32:56Z</time>
      </trkpt>
      <trkpt lat="42.8306160" lon="-0.2321980">
        <ele>2368.0</ele>
        <time>2020-09-12T11:32:59Z</time>
      </trkpt>
      <trkpt lat="42.8305900" lon="-0.2321230">
        <ele>2366.8</ele>
        <time>2020-09-12T11:33:04Z</time>
      </trkpt>
      <trkpt lat="42.8305880" lon="-0.2321060">
        <ele>2366.6</ele>
        <time>2020-09-12T11:33:06Z</time>
      </trkpt>
      <trkpt lat="42.8305810" lon="-0.2320830">
        <ele>2366.4</ele>
        <time>2020-09-12T11:33:08Z</time>
      </trkpt>
      <trkpt lat="42.8305830" lon="-0.2320680">
        <ele>2366.2</ele>
        <time>2020-09-12T11:33:10Z</time>
      </trkpt>
      <trkpt lat="42.8305850" lon="-0.2320060">
        <ele>2365.8</ele>
        <time>2020-09-12T11:33:16Z</time>
      </trkpt>
      <trkpt lat="42.8305980" lon="-0.2319640">
        <ele>2365.4</ele>
        <time>2020-09-12T11:33:19Z</time>
      </trkpt>
      <trkpt lat="42.8305930" lon="-0.2319350">
        <ele>2364.6</ele>
        <time>2020-09-12T11:33:23Z</time>
      </trkpt>
      <trkpt lat="42.8305870" lon="-0.2319280">
        <ele>2364.4</ele>
        <time>2020-09-12T11:33:24Z</time>
      </trkpt>
      <trkpt lat="42.8305570" lon="-0.2318660">
        <ele>2364.0</ele>
        <time>2020-09-12T11:33:29Z</time>
      </trkpt>
      <trkpt lat="42.8305460" lon="-0.2318500">
        <ele>2364.0</ele>
        <time>2020-09-12T11:33:31Z</time>
      </trkpt>
      <trkpt lat="42.8305290" lon="-0.2318420">
        <ele>2363.6</ele>
        <time>2020-09-12T11:33:33Z</time>
      </trkpt>
      <trkpt lat="42.8305230" lon="-0.2318420">
        <ele>2363.6</ele>
        <time>2020-09-12T11:33:34Z</time>
      </trkpt>
      <trkpt lat="42.8305180" lon="-0.2318160">
        <ele>2362.6</ele>
        <time>2020-09-12T11:33:42Z</time>
      </trkpt>
      <trkpt lat="42.8306260" lon="-0.2316870">
        <ele>2361.4</ele>
        <time>2020-09-12T11:34:00Z</time>
      </trkpt>
      <trkpt lat="42.8306420" lon="-0.2315220">
        <ele>2361.2</ele>
        <time>2020-09-12T11:34:15Z</time>
      </trkpt>
      <trkpt lat="42.8306390" lon="-0.2314870">
        <ele>2361.2</ele>
        <time>2020-09-12T11:34:18Z</time>
      </trkpt>
      <trkpt lat="42.8306360" lon="-0.2314730">
        <ele>2361.0</ele>
        <time>2020-09-12T11:34:20Z</time>
      </trkpt>
      <trkpt lat="42.8306460" lon="-0.2313760">
        <ele>2360.2</ele>
        <time>2020-09-12T11:34:29Z</time>
      </trkpt>
      <trkpt lat="42.8306060" lon="-0.2311320">
        <ele>2359.6</ele>
        <time>2020-09-12T11:34:48Z</time>
      </trkpt>
      <trkpt lat="42.8306050" lon="-0.2310510">
        <ele>2359.4</ele>
        <time>2020-09-12T11:34:55Z</time>
      </trkpt>
      <trkpt lat="42.8306030" lon="-0.2310400">
        <ele>2359.2</ele>
        <time>2020-09-12T11:34:56Z</time>
      </trkpt>
      <trkpt lat="42.8305990" lon="-0.2310320">
        <ele>2359.2</ele>
        <time>2020-09-12T11:34:57Z</time>
      </trkpt>
      <trkpt lat="42.8305660" lon="-0.2309150">
        <ele>2358.2</ele>
        <time>2020-09-12T11:35:08Z</time>
      </trkpt>
      <trkpt lat="42.8305650" lon="-0.2309070">
        <ele>2358.0</ele>
        <time>2020-09-12T11:35:09Z</time>
      </trkpt>
      <trkpt lat="42.8305460" lon="-0.2308660">
        <ele>2357.0</ele>
        <time>2020-09-12T11:35:16Z</time>
      </trkpt>
      <trkpt lat="42.8305260" lon="-0.2307510">
        <ele>2356.2</ele>
        <time>2020-09-12T11:35:26Z</time>
      </trkpt>
      <trkpt lat="42.8305290" lon="-0.2307190">
        <ele>2356.0</ele>
        <time>2020-09-12T11:35:28Z</time>
      </trkpt>
      <trkpt lat="42.8305200" lon="-0.2306180">
        <ele>2356.0</ele>
        <time>2020-09-12T11:35:35Z</time>
      </trkpt>
      <trkpt lat="42.8305170" lon="-0.2305750">
        <ele>2356.0</ele>
        <time>2020-09-12T11:35:38Z</time>
      </trkpt>
      <trkpt lat="42.8304910" lon="-0.2304830">
        <ele>2355.8</ele>
        <time>2020-09-12T11:35:45Z</time>
      </trkpt>
      <trkpt lat="42.8304470" lon="-0.2304160">
        <ele>2355.2</ele>
        <time>2020-09-12T11:35:52Z</time>
      </trkpt>
      <trkpt lat="42.8304370" lon="-0.2303910">
        <ele>2355.0</ele>
        <time>2020-09-12T11:35:54Z</time>
      </trkpt>
      <trkpt lat="42.8304260" lon="-0.2303620">
        <ele>2355.0</ele>
        <time>2020-09-12T11:35:56Z</time>
      </trkpt>
      <trkpt lat="42.8303990" lon="-0.2302760">
        <ele>2354.0</ele>
        <time>2020-09-12T11:36:04Z</time>
      </trkpt>
      <trkpt lat="42.8304040" lon="-0.2302500">
        <ele>2354.0</ele>
        <time>2020-09-12T11:36:06Z</time>
      </trkpt>
      <trkpt lat="42.8304030" lon="-0.2302370">
        <ele>2354.0</ele>
        <time>2020-09-12T11:36:07Z</time>
      </trkpt>
      <trkpt lat="42.8303900" lon="-0.2302050">
        <ele>2353.8</ele>
        <time>2020-09-12T11:36:10Z</time>
      </trkpt>
      <trkpt lat="42.8303670" lon="-0.2301240">
        <ele>2353.8</ele>
        <time>2020-09-12T11:36:17Z</time>
      </trkpt>
      <trkpt lat="42.8303760" lon="-0.2300990">
        <ele>2353.2</ele>
        <time>2020-09-12T11:36:19Z</time>
      </trkpt>
      <trkpt lat="42.8303810" lon="-0.2300880">
        <ele>2352.8</ele>
        <time>2020-09-12T11:36:21Z</time>
      </trkpt>
      <trkpt lat="42.8303840" lon="-0.2300830">
        <ele>2352.2</ele>
        <time>2020-09-12T11:36:23Z</time>
      </trkpt>
      <trkpt lat="42.8303800" lon="-0.2300830">
        <ele>2351.8</ele>
        <time>2020-09-12T11:36:25Z</time>
      </trkpt>
      <trkpt lat="42.8303690" lon="-0.2299900">
        <ele>2351.6</ele>
        <time>2020-09-12T11:37:21Z</time>
      </trkpt>
      <trkpt lat="42.8303590" lon="-0.2299780">
        <ele>2351.2</ele>
        <time>2020-09-12T11:37:25Z</time>
      </trkpt>
      <trkpt lat="42.8303530" lon="-0.2299330">
        <ele>2350.4</ele>
        <time>2020-09-12T11:37:33Z</time>
      </trkpt>
      <trkpt lat="42.8303440" lon="-0.2299010">
        <ele>2349.8</ele>
        <time>2020-09-12T11:37:36Z</time>
      </trkpt>
      <trkpt lat="42.8303350" lon="-0.2298800">
        <ele>2349.4</ele>
        <time>2020-09-12T11:37:38Z</time>
      </trkpt>
      <trkpt lat="42.8303250" lon="-0.2298540">
        <ele>2349.0</ele>
        <time>2020-09-12T11:37:40Z</time>
      </trkpt>
      <trkpt lat="42.8303280" lon="-0.2298380">
        <ele>2349.0</ele>
        <time>2020-09-12T11:37:41Z</time>
      </trkpt>
      <trkpt lat="42.8303300" lon="-0.2298010">
        <ele>2348.4</ele>
        <time>2020-09-12T11:37:44Z</time>
      </trkpt>
      <trkpt lat="42.8303310" lon="-0.2297680">
        <ele>2348.6</ele>
        <time>2020-09-12T11:37:47Z</time>
      </trkpt>
      <trkpt lat="42.8303160" lon="-0.2297420">
        <ele>2348.6</ele>
        <time>2020-09-12T11:37:49Z</time>
      </trkpt>
      <trkpt lat="42.8303100" lon="-0.2297220">
        <ele>2348.2</ele>
        <time>2020-09-12T11:37:53Z</time>
      </trkpt>
      <trkpt lat="42.8303110" lon="-0.2297200">
        <ele>2347.8</ele>
        <time>2020-09-12T11:37:54Z</time>
      </trkpt>
      <trkpt lat="42.8303120" lon="-0.2297210">
        <ele>2347.4</ele>
        <time>2020-09-12T11:37:55Z</time>
      </trkpt>
      <trkpt lat="42.8302840" lon="-0.2296210">
        <ele>2347.0</ele>
        <time>2020-09-12T11:38:08Z</time>
      </trkpt>
      <trkpt lat="42.8302810" lon="-0.2296090">
        <ele>2346.6</ele>
        <time>2020-09-12T11:38:09Z</time>
      </trkpt>
      <trkpt lat="42.8302720" lon="-0.2295760">
        <ele>2345.8</ele>
        <time>2020-09-12T11:38:13Z</time>
      </trkpt>
      <trkpt lat="42.8302710" lon="-0.2295540">
        <ele>2345.6</ele>
        <time>2020-09-12T11:38:15Z</time>
      </trkpt>
      <trkpt lat="42.8302820" lon="-0.2295320">
        <ele>2345.2</ele>
        <time>2020-09-12T11:38:17Z</time>
      </trkpt>
      <trkpt lat="42.8302800" lon="-0.2295160">
        <ele>2345.0</ele>
        <time>2020-09-12T11:38:19Z</time>
      </trkpt>
      <trkpt lat="42.8302840" lon="-0.2294770">
        <ele>2344.4</ele>
        <time>2020-09-12T11:38:22Z</time>
      </trkpt>
      <trkpt lat="42.8302810" lon="-0.2294250">
        <ele>2343.8</ele>
        <time>2020-09-12T11:38:27Z</time>
      </trkpt>
      <trkpt lat="42.8302790" lon="-0.2294150">
        <ele>2343.8</ele>
        <time>2020-09-12T11:38:29Z</time>
      </trkpt>
      <trkpt lat="42.8302640" lon="-0.2293070">
        <ele>2343.4</ele>
        <time>2020-09-12T11:38:38Z</time>
      </trkpt>
      <trkpt lat="42.8302450" lon="-0.2292690">
        <ele>2342.0</ele>
        <time>2020-09-12T11:38:43Z</time>
      </trkpt>
      <trkpt lat="42.8302450" lon="-0.2292570">
        <ele>2341.0</ele>
        <time>2020-09-12T11:38:45Z</time>
      </trkpt>
      <trkpt lat="42.8302340" lon="-0.2291760">
        <ele>2339.8</ele>
        <time>2020-09-12T11:38:53Z</time>
      </trkpt>
      <trkpt lat="42.8302290" lon="-0.2291250">
        <ele>2338.8</ele>
        <time>2020-09-12T11:38:57Z</time>
      </trkpt>
      <trkpt lat="42.8302240" lon="-0.2290810">
        <ele>2337.8</ele>
        <time>2020-09-12T11:39:02Z</time>
      </trkpt>
      <trkpt lat="42.8302110" lon="-0.2290140">
        <ele>2336.6</ele>
        <time>2020-09-12T11:39:08Z</time>
      </trkpt>
      <trkpt lat="42.8302110" lon="-0.2289640">
        <ele>2335.6</ele>
        <time>2020-09-12T11:39:12Z</time>
      </trkpt>
      <trkpt lat="42.8301830" lon="-0.2288500">
        <ele>2334.4</ele>
        <time>2020-09-12T11:39:20Z</time>
      </trkpt>
      <trkpt lat="42.8301700" lon="-0.2287930">
        <ele>2333.4</ele>
        <time>2020-09-12T11:39:26Z</time>
      </trkpt>
      <trkpt lat="42.8301630" lon="-0.2287650">
        <ele>2332.6</ele>
        <time>2020-09-12T11:39:29Z</time>
      </trkpt>
      <trkpt lat="42.8301650" lon="-0.2287550">
        <ele>2332.4</ele>
        <time>2020-09-12T11:39:30Z</time>
      </trkpt>
      <trkpt lat="42.8301580" lon="-0.2287260">
        <ele>2331.4</ele>
        <time>2020-09-12T11:39:35Z</time>
      </trkpt>
      <trkpt lat="42.8301370" lon="-0.2286860">
        <ele>2330.4</ele>
        <time>2020-09-12T11:39:40Z</time>
      </trkpt>
      <trkpt lat="42.8301390" lon="-0.2286260">
        <ele>2329.4</ele>
        <time>2020-09-12T11:39:46Z</time>
      </trkpt>
      <trkpt lat="42.8301380" lon="-0.2286020">
        <ele>2328.4</ele>
        <time>2020-09-12T11:39:49Z</time>
      </trkpt>
      <trkpt lat="42.8301390" lon="-0.2285180">
        <ele>2327.2</ele>
        <time>2020-09-12T11:39:56Z</time>
      </trkpt>
      <trkpt lat="42.8301180" lon="-0.2284670">
        <ele>2325.8</ele>
        <time>2020-09-12T11:40:02Z</time>
      </trkpt>
      <trkpt lat="42.8301000" lon="-0.2284340">
        <ele>2324.8</ele>
        <time>2020-09-12T11:40:07Z</time>
      </trkpt>
      <trkpt lat="42.8300580" lon="-0.2283890">
        <ele>2323.8</ele>
        <time>2020-09-12T11:40:13Z</time>
      </trkpt>
      <trkpt lat="42.8300610" lon="-0.2283430">
        <ele>2322.6</ele>
        <time>2020-09-12T11:40:17Z</time>
      </trkpt>
      <trkpt lat="42.8300570" lon="-0.2283010">
        <ele>2322.2</ele>
        <time>2020-09-12T11:40:22Z</time>
      </trkpt>
      <trkpt lat="42.8300710" lon="-0.2282460">
        <ele>2321.4</ele>
        <time>2020-09-12T11:40:27Z</time>
      </trkpt>
      <trkpt lat="42.8300610" lon="-0.2282240">
        <ele>2320.8</ele>
        <time>2020-09-12T11:40:29Z</time>
      </trkpt>
      <trkpt lat="42.8300570" lon="-0.2282170">
        <ele>2320.4</ele>
        <time>2020-09-12T11:40:30Z</time>
      </trkpt>
      <trkpt lat="42.8300410" lon="-0.2282110">
        <ele>2319.2</ele>
        <time>2020-09-12T11:40:33Z</time>
      </trkpt>
      <trkpt lat="42.8300520" lon="-0.2281850">
        <ele>2318.2</ele>
        <time>2020-09-12T11:40:39Z</time>
      </trkpt>
      <trkpt lat="42.8300560" lon="-0.2281500">
        <ele>2317.2</ele>
        <time>2020-09-12T11:40:47Z</time>
      </trkpt>
      <trkpt lat="42.8300530" lon="-0.2280900">
        <ele>2316.2</ele>
        <time>2020-09-12T11:40:54Z</time>
      </trkpt>
      <trkpt lat="42.8300580" lon="-0.2280610">
        <ele>2315.0</ele>
        <time>2020-09-12T11:40:58Z</time>
      </trkpt>
      <trkpt lat="42.8300550" lon="-0.2280380">
        <ele>2313.8</ele>
        <time>2020-09-12T11:41:03Z</time>
      </trkpt>
      <trkpt lat="42.8300600" lon="-0.2279810">
        <ele>2312.6</ele>
        <time>2020-09-12T11:41:09Z</time>
      </trkpt>
      <trkpt lat="42.8300590" lon="-0.2279240">
        <ele>2311.6</ele>
        <time>2020-09-12T11:41:13Z</time>
      </trkpt>
      <trkpt lat="42.8300570" lon="-0.2278690">
        <ele>2310.6</ele>
        <time>2020-09-12T11:41:17Z</time>
      </trkpt>
      <trkpt lat="42.8300570" lon="-0.2278510">
        <ele>2310.2</ele>
        <time>2020-09-12T11:41:19Z</time>
      </trkpt>
      <trkpt lat="42.8300590" lon="-0.2278180">
        <ele>2309.4</ele>
        <time>2020-09-12T11:41:23Z</time>
      </trkpt>
      <trkpt lat="42.8300420" lon="-0.2277510">
        <ele>2308.2</ele>
        <time>2020-09-12T11:41:29Z</time>
      </trkpt>
      <trkpt lat="42.8300360" lon="-0.2277200">
        <ele>2307.0</ele>
        <time>2020-09-12T11:41:33Z</time>
      </trkpt>
      <trkpt lat="42.8300290" lon="-0.2276870">
        <ele>2305.8</ele>
        <time>2020-09-12T11:41:41Z</time>
      </trkpt>
      <trkpt lat="42.8300270" lon="-0.2276310">
        <ele>2304.8</ele>
        <time>2020-09-12T11:41:49Z</time>
      </trkpt>
      <trkpt lat="42.8300240" lon="-0.2275300">
        <ele>2303.6</ele>
        <time>2020-09-12T11:41:59Z</time>
      </trkpt>
      <trkpt lat="42.8300250" lon="-0.2274860">
        <ele>2302.4</ele>
        <time>2020-09-12T11:42:08Z</time>
      </trkpt>
      <trkpt lat="42.8300190" lon="-0.2274580">
        <ele>2301.4</ele>
        <time>2020-09-12T11:42:13Z</time>
      </trkpt>
      <trkpt lat="42.8300190" lon="-0.2274020">
        <ele>2300.2</ele>
        <time>2020-09-12T11:42:18Z</time>
      </trkpt>
      <trkpt lat="42.8300300" lon="-0.2273580">
        <ele>2299.0</ele>
        <time>2020-09-12T11:42:21Z</time>
      </trkpt>
      <trkpt lat="42.8300450" lon="-0.2273110">
        <ele>2298.0</ele>
        <time>2020-09-12T11:42:25Z</time>
      </trkpt>
      <trkpt lat="42.8300660" lon="-0.2272030">
        <ele>2297.4</ele>
        <time>2020-09-12T11:42:32Z</time>
      </trkpt>
      <trkpt lat="42.8300760" lon="-0.2271900">
        <ele>2296.8</ele>
        <time>2020-09-12T11:42:34Z</time>
      </trkpt>
      <trkpt lat="42.8300860" lon="-0.2271680">
        <ele>2296.0</ele>
        <time>2020-09-12T11:42:37Z</time>
      </trkpt>
      <trkpt lat="42.8300920" lon="-0.2271600">
        <ele>2295.6</ele>
        <time>2020-09-12T11:42:38Z</time>
      </trkpt>
      <trkpt lat="42.8301450" lon="-0.2269980">
        <ele>2294.6</ele>
        <time>2020-09-12T11:43:02Z</time>
      </trkpt>
      <trkpt lat="42.8302150" lon="-0.2269440">
        <ele>2293.4</ele>
        <time>2020-09-12T11:43:12Z</time>
      </trkpt>
      <trkpt lat="42.8302690" lon="-0.2269390">
        <ele>2292.2</ele>
        <time>2020-09-12T11:43:17Z</time>
      </trkpt>
      <trkpt lat="42.8302860" lon="-0.2269370">
        <ele>2291.8</ele>
        <time>2020-09-12T11:43:19Z</time>
      </trkpt>
      <trkpt lat="42.8303050" lon="-0.2269350">
        <ele>2291.6</ele>
        <time>2020-09-12T11:43:21Z</time>
      </trkpt>
      <trkpt lat="42.8303170" lon="-0.2269220">
        <ele>2291.4</ele>
        <time>2020-09-12T11:43:23Z</time>
      </trkpt>
      <trkpt lat="42.8303540" lon="-0.2269160">
        <ele>2291.6</ele>
        <time>2020-09-12T11:43:28Z</time>
      </trkpt>
      <trkpt lat="42.8303670" lon="-0.2269030">
        <ele>2291.2</ele>
        <time>2020-09-12T11:43:30Z</time>
      </trkpt>
      <trkpt lat="42.8303780" lon="-0.2268810">
        <ele>2290.0</ele>
        <time>2020-09-12T11:43:34Z</time>
      </trkpt>
      <trkpt lat="42.8304090" lon="-0.2268720">
        <ele>2289.0</ele>
        <time>2020-09-12T11:43:40Z</time>
      </trkpt>
      <trkpt lat="42.8304620" lon="-0.2268720">
        <ele>2288.0</ele>
        <time>2020-09-12T11:43:46Z</time>
      </trkpt>
      <trkpt lat="42.8304700" lon="-0.2268740">
        <ele>2287.8</ele>
        <time>2020-09-12T11:43:47Z</time>
      </trkpt>
      <trkpt lat="42.8305070" lon="-0.2268470">
        <ele>2287.6</ele>
        <time>2020-09-12T11:43:52Z</time>
      </trkpt>
      <trkpt lat="42.8305170" lon="-0.2268210">
        <ele>2287.8</ele>
        <time>2020-09-12T11:43:55Z</time>
      </trkpt>
      <trkpt lat="42.8306090" lon="-0.2265960">
        <ele>2288.2</ele>
        <time>2020-09-12T11:44:10Z</time>
      </trkpt>
      <trkpt lat="42.8306410" lon="-0.2265330">
        <ele>2288.8</ele>
        <time>2020-09-12T11:44:16Z</time>
      </trkpt>
      <trkpt lat="42.8306690" lon="-0.2264600">
        <ele>2289.0</ele>
        <time>2020-09-12T11:44:22Z</time>
      </trkpt>
      <trkpt lat="42.8307750" lon="-0.2263500">
        <ele>2288.2</ele>
        <time>2020-09-12T11:44:33Z</time>
      </trkpt>
      <trkpt lat="42.8307840" lon="-0.2263350">
        <ele>2288.2</ele>
        <time>2020-09-12T11:44:35Z</time>
      </trkpt>
      <trkpt lat="42.8307880" lon="-0.2263060">
        <ele>2288.2</ele>
        <time>2020-09-12T11:44:38Z</time>
      </trkpt>
      <trkpt lat="42.8307880" lon="-0.2262740">
        <ele>2288.0</ele>
        <time>2020-09-12T11:44:41Z</time>
      </trkpt>
      <trkpt lat="42.8307920" lon="-0.2262610">
        <ele>2287.8</ele>
        <time>2020-09-12T11:44:42Z</time>
      </trkpt>
      <trkpt lat="42.8307960" lon="-0.2260150">
        <ele>2288.0</ele>
        <time>2020-09-12T11:44:59Z</time>
      </trkpt>
      <trkpt lat="42.8308020" lon="-0.2259600">
        <ele>2288.0</ele>
        <time>2020-09-12T11:45:03Z</time>
      </trkpt>
      <trkpt lat="42.8307990" lon="-0.2259450">
        <ele>2288.2</ele>
        <time>2020-09-12T11:45:05Z</time>
      </trkpt>
      <trkpt lat="42.8307970" lon="-0.2259070">
        <ele>2288.4</ele>
        <time>2020-09-12T11:45:08Z</time>
      </trkpt>
      <trkpt lat="42.8307780" lon="-0.2258210">
        <ele>2288.8</ele>
        <time>2020-09-12T11:45:15Z</time>
      </trkpt>
      <trkpt lat="42.8307620" lon="-0.2257840">
        <ele>2288.8</ele>
        <time>2020-09-12T11:45:18Z</time>
      </trkpt>
      <trkpt lat="42.8307620" lon="-0.2257810">
        <ele>2289.0</ele>
        <time>2020-09-12T11:45:19Z</time>
      </trkpt>
      <trkpt lat="42.8307380" lon="-0.2257530">
        <ele>2289.2</ele>
        <time>2020-09-12T11:45:22Z</time>
      </trkpt>
      <trkpt lat="42.8307010" lon="-0.2256920">
        <ele>2290.0</ele>
        <time>2020-09-12T11:45:28Z</time>
      </trkpt>
      <trkpt lat="42.8306700" lon="-0.2255980">
        <ele>2291.2</ele>
        <time>2020-09-12T11:45:37Z</time>
      </trkpt>
      <trkpt lat="42.8306250" lon="-0.2254770">
        <ele>2291.6</ele>
        <time>2020-09-12T11:45:47Z</time>
      </trkpt>
      <trkpt lat="42.8305970" lon="-0.2253940">
        <ele>2292.2</ele>
        <time>2020-09-12T11:45:53Z</time>
      </trkpt>
      <trkpt lat="42.8305610" lon="-0.2253340">
        <ele>2292.8</ele>
        <time>2020-09-12T11:46:01Z</time>
      </trkpt>
      <trkpt lat="42.8305550" lon="-0.2253240">
        <ele>2293.2</ele>
        <time>2020-09-12T11:46:04Z</time>
      </trkpt>
      <trkpt lat="42.8305200" lon="-0.2251780">
        <ele>2294.4</ele>
        <time>2020-09-12T11:46:34Z</time>
      </trkpt>
      <trkpt lat="42.8305070" lon="-0.2251310">
        <ele>2295.0</ele>
        <time>2020-09-12T11:46:38Z</time>
      </trkpt>
      <trkpt lat="42.8304690" lon="-0.2250590">
        <ele>2295.4</ele>
        <time>2020-09-12T11:46:44Z</time>
      </trkpt>
      <trkpt lat="42.8304280" lon="-0.2249640">
        <ele>2295.8</ele>
        <time>2020-09-12T11:46:53Z</time>
      </trkpt>
      <trkpt lat="42.8304290" lon="-0.2249460">
        <ele>2296.4</ele>
        <time>2020-09-12T11:46:55Z</time>
      </trkpt>
      <trkpt lat="42.8304110" lon="-0.2249100">
        <ele>2297.4</ele>
        <time>2020-09-12T11:46:58Z</time>
      </trkpt>
      <trkpt lat="42.8304070" lon="-0.2248980">
        <ele>2297.6</ele>
        <time>2020-09-12T11:46:59Z</time>
      </trkpt>
      <trkpt lat="42.8303850" lon="-0.2248330">
        <ele>2298.2</ele>
        <time>2020-09-12T11:47:04Z</time>
      </trkpt>
      <trkpt lat="42.8303530" lon="-0.2246730">
        <ele>2297.4</ele>
        <time>2020-09-12T11:47:13Z</time>
      </trkpt>
      <trkpt lat="42.8303220" lon="-0.2244340">
        <ele>2297.6</ele>
        <time>2020-09-12T11:47:27Z</time>
      </trkpt>
      <trkpt lat="42.8303100" lon="-0.2242400">
        <ele>2298.6</ele>
        <time>2020-09-12T11:47:39Z</time>
      </trkpt>
      <trkpt lat="42.8303000" lon="-0.2241990">
        <ele>2298.6</ele>
        <time>2020-09-12T11:47:42Z</time>
      </trkpt>
      <trkpt lat="42.8302840" lon="-0.2241620">
        <ele>2297.6</ele>
        <time>2020-09-12T11:47:45Z</time>
      </trkpt>
      <trkpt lat="42.8302770" lon="-0.2241500">
        <ele>2297.4</ele>
        <time>2020-09-12T11:47:46Z</time>
      </trkpt>
      <trkpt lat="42.8302580" lon="-0.2241170">
        <ele>2296.6</ele>
        <time>2020-09-12T11:47:49Z</time>
      </trkpt>
      <trkpt lat="42.8302400" lon="-0.2240580">
        <ele>2295.4</ele>
        <time>2020-09-12T11:47:53Z</time>
      </trkpt>
      <trkpt lat="42.8302170" lon="-0.2239220">
        <ele>2294.2</ele>
        <time>2020-09-12T11:48:02Z</time>
      </trkpt>
      <trkpt lat="42.8302880" lon="-0.2236880">
        <ele>2294.8</ele>
        <time>2020-09-12T11:48:19Z</time>
      </trkpt>
      <trkpt lat="42.8303610" lon="-0.2235190">
        <ele>2293.8</ele>
        <time>2020-09-12T11:48:32Z</time>
      </trkpt>
      <trkpt lat="42.8303620" lon="-0.2234720">
        <ele>2293.0</ele>
        <time>2020-09-12T11:48:36Z</time>
      </trkpt>
      <trkpt lat="42.8303740" lon="-0.2234130">
        <ele>2291.8</ele>
        <time>2020-09-12T11:48:41Z</time>
      </trkpt>
      <trkpt lat="42.8304120" lon="-0.2232970">
        <ele>2290.8</ele>
        <time>2020-09-12T11:48:49Z</time>
      </trkpt>
      <trkpt lat="42.8303970" lon="-0.2232000">
        <ele>2289.8</ele>
        <time>2020-09-12T11:48:55Z</time>
      </trkpt>
      <trkpt lat="42.8303940" lon="-0.2231350">
        <ele>2289.8</ele>
        <time>2020-09-12T11:49:00Z</time>
      </trkpt>
      <trkpt lat="42.8303940" lon="-0.2231040">
        <ele>2289.8</ele>
        <time>2020-09-12T11:49:02Z</time>
      </trkpt>
      <trkpt lat="42.8303780" lon="-0.2228610">
        <ele>2288.8</ele>
        <time>2020-09-12T11:49:17Z</time>
      </trkpt>
      <trkpt lat="42.8303360" lon="-0.2226290">
        <ele>2288.8</ele>
        <time>2020-09-12T11:49:34Z</time>
      </trkpt>
      <trkpt lat="42.8303340" lon="-0.2226100">
        <ele>2288.8</ele>
        <time>2020-09-12T11:49:35Z</time>
      </trkpt>
      <trkpt lat="42.8303180" lon="-0.2224690">
        <ele>2287.8</ele>
        <time>2020-09-12T11:49:44Z</time>
      </trkpt>
      <trkpt lat="42.8303240" lon="-0.2223980">
        <ele>2287.6</ele>
        <time>2020-09-12T11:49:50Z</time>
      </trkpt>
      <trkpt lat="42.8303320" lon="-0.2222760">
        <ele>2287.2</ele>
        <time>2020-09-12T11:50:07Z</time>
      </trkpt>
      <trkpt lat="42.8303620" lon="-0.2222540">
        <ele>2287.0</ele>
        <time>2020-09-12T11:50:10Z</time>
      </trkpt>
      <trkpt lat="42.8304480" lon="-0.2222370">
        <ele>2287.4</ele>
        <time>2020-09-12T11:50:17Z</time>
      </trkpt>
      <trkpt lat="42.8304920" lon="-0.2222150">
        <ele>2287.2</ele>
        <time>2020-09-12T11:50:21Z</time>
      </trkpt>
      <trkpt lat="42.8305390" lon="-0.2222280">
        <ele>2287.2</ele>
        <time>2020-09-12T11:50:25Z</time>
      </trkpt>
      <trkpt lat="42.8305690" lon="-0.2221840">
        <ele>2287.2</ele>
        <time>2020-09-12T11:50:30Z</time>
      </trkpt>
      <trkpt lat="42.8305650" lon="-0.2221590">
        <ele>2286.4</ele>
        <time>2020-09-12T11:50:32Z</time>
      </trkpt>
      <trkpt lat="42.8305540" lon="-0.2221380">
        <ele>2285.4</ele>
        <time>2020-09-12T11:50:34Z</time>
      </trkpt>
      <trkpt lat="42.8305570" lon="-0.2221270">
        <ele>2285.2</ele>
        <time>2020-09-12T11:50:35Z</time>
      </trkpt>
      <trkpt lat="42.8305780" lon="-0.2220490">
        <ele>2284.0</ele>
        <time>2020-09-12T11:50:40Z</time>
      </trkpt>
      <trkpt lat="42.8305970" lon="-0.2219500">
        <ele>2283.6</ele>
        <time>2020-09-12T11:50:46Z</time>
      </trkpt>
      <trkpt lat="42.8305850" lon="-0.2218890">
        <ele>2283.0</ele>
        <time>2020-09-12T11:50:50Z</time>
      </trkpt>
      <trkpt lat="42.8305790" lon="-0.2218090">
        <ele>2282.8</ele>
        <time>2020-09-12T11:50:57Z</time>
      </trkpt>
      <trkpt lat="42.8305790" lon="-0.2218020">
        <ele>2282.8</ele>
        <time>2020-09-12T11:50:59Z</time>
      </trkpt>
      <trkpt lat="42.8305730" lon="-0.2217230">
        <ele>2282.6</ele>
        <time>2020-09-12T11:51:25Z</time>
      </trkpt>
      <trkpt lat="42.8305840" lon="-0.2215990">
        <ele>2284.2</ele>
        <time>2020-09-12T11:51:34Z</time>
      </trkpt>
      <trkpt lat="42.8305610" lon="-0.2214030">
        <ele>2284.4</ele>
        <time>2020-09-12T11:51:47Z</time>
      </trkpt>
      <trkpt lat="42.8305800" lon="-0.2213230">
        <ele>2284.0</ele>
        <time>2020-09-12T11:51:53Z</time>
      </trkpt>
      <trkpt lat="42.8306060" lon="-0.2213060">
        <ele>2284.0</ele>
        <time>2020-09-12T11:51:56Z</time>
      </trkpt>
      <trkpt lat="42.8306700" lon="-0.2212670">
        <ele>2283.4</ele>
        <time>2020-09-12T11:52:04Z</time>
      </trkpt>
      <trkpt lat="42.8306790" lon="-0.2212470">
        <ele>2283.0</ele>
        <time>2020-09-12T11:52:06Z</time>
      </trkpt>
      <trkpt lat="42.8306810" lon="-0.2212330">
        <ele>2282.8</ele>
        <time>2020-09-12T11:52:07Z</time>
      </trkpt>
      <trkpt lat="42.8306900" lon="-0.2212070">
        <ele>2282.2</ele>
        <time>2020-09-12T11:52:09Z</time>
      </trkpt>
      <trkpt lat="42.8306940" lon="-0.2211980">
        <ele>2282.0</ele>
        <time>2020-09-12T11:52:10Z</time>
      </trkpt>
      <trkpt lat="42.8307390" lon="-0.2211360">
        <ele>2280.8</ele>
        <time>2020-09-12T11:52:17Z</time>
      </trkpt>
      <trkpt lat="42.8307570" lon="-0.2211140">
        <ele>2280.2</ele>
        <time>2020-09-12T11:52:20Z</time>
      </trkpt>
      <trkpt lat="42.8307730" lon="-0.2210840">
        <ele>2279.6</ele>
        <time>2020-09-12T11:52:22Z</time>
      </trkpt>
      <trkpt lat="42.8307800" lon="-0.2210730">
        <ele>2279.4</ele>
        <time>2020-09-12T11:52:23Z</time>
      </trkpt>
      <trkpt lat="42.8308060" lon="-0.2210370">
        <ele>2278.4</ele>
        <time>2020-09-12T11:52:26Z</time>
      </trkpt>
      <trkpt lat="42.8308250" lon="-0.2209880">
        <ele>2277.4</ele>
        <time>2020-09-12T11:52:30Z</time>
      </trkpt>
      <trkpt lat="42.8308640" lon="-0.2209580">
        <ele>2276.2</ele>
        <time>2020-09-12T11:52:35Z</time>
      </trkpt>
      <trkpt lat="42.8308660" lon="-0.2209470">
        <ele>2276.0</ele>
        <time>2020-09-12T11:52:36Z</time>
      </trkpt>
      <trkpt lat="42.8308580" lon="-0.2209010">
        <ele>2275.2</ele>
        <time>2020-09-12T11:52:40Z</time>
      </trkpt>
      <trkpt lat="42.8308550" lon="-0.2208990">
        <ele>2275.0</ele>
        <time>2020-09-12T11:52:41Z</time>
      </trkpt>
      <trkpt lat="42.8308560" lon="-0.2208940">
        <ele>2275.0</ele>
        <time>2020-09-12T11:52:43Z</time>
      </trkpt>
      <trkpt lat="42.8308520" lon="-0.2208920">
        <ele>2275.0</ele>
        <time>2020-09-12T11:52:45Z</time>
      </trkpt>
      <trkpt lat="42.8308430" lon="-0.2209080">
        <ele>2275.4</ele>
        <time>2020-09-12T11:53:32Z</time>
      </trkpt>
      <trkpt lat="42.8308560" lon="-0.2208940">
        <ele>2274.0</ele>
        <time>2020-09-12T12:28:19Z</time>
      </trkpt>
      <trkpt lat="42.8308580" lon="-0.2208950">
        <ele>2274.0</ele>
        <time>2020-09-12T12:28:20Z</time>
      </trkpt>
      <trkpt lat="42.8309120" lon="-0.2208790">
        <ele>2272.8</ele>
        <time>2020-09-12T12:29:15Z</time>
      </trkpt>
      <trkpt lat="42.8310370" lon="-0.2208960">
        <ele>2272.8</ele>
        <time>2020-09-12T12:30:03Z</time>
      </trkpt>
      <trkpt lat="42.8311170" lon="-0.2208770">
        <ele>2272.8</ele>
        <time>2020-09-12T12:30:08Z</time>
      </trkpt>
      <trkpt lat="42.8312640" lon="-0.2207470">
        <ele>2272.4</ele>
        <time>2020-09-12T12:30:30Z</time>
      </trkpt>
      <trkpt lat="42.8312860" lon="-0.2207150">
        <ele>2272.4</ele>
        <time>2020-09-12T12:30:35Z</time>
      </trkpt>
      <trkpt lat="42.8313190" lon="-0.2206900">
        <ele>2272.4</ele>
        <time>2020-09-12T12:30:39Z</time>
      </trkpt>
      <trkpt lat="42.8314340" lon="-0.2205980">
        <ele>2272.4</ele>
        <time>2020-09-12T12:30:51Z</time>
      </trkpt>
      <trkpt lat="42.8314710" lon="-0.2205750">
        <ele>2271.6</ele>
        <time>2020-09-12T12:30:55Z</time>
      </trkpt>
      <trkpt lat="42.8314880" lon="-0.2205570">
        <ele>2270.4</ele>
        <time>2020-09-12T12:30:58Z</time>
      </trkpt>
      <trkpt lat="42.8315060" lon="-0.2205060">
        <ele>2269.2</ele>
        <time>2020-09-12T12:31:02Z</time>
      </trkpt>
      <trkpt lat="42.8315630" lon="-0.2203900">
        <ele>2268.0</ele>
        <time>2020-09-12T12:31:09Z</time>
      </trkpt>
      <trkpt lat="42.8315680" lon="-0.2202910">
        <ele>2267.6</ele>
        <time>2020-09-12T12:31:15Z</time>
      </trkpt>
      <trkpt lat="42.8316110" lon="-0.2200510">
        <ele>2267.6</ele>
        <time>2020-09-12T12:31:31Z</time>
      </trkpt>
      <trkpt lat="42.8316220" lon="-0.2200150">
        <ele>2268.0</ele>
        <time>2020-09-12T12:31:34Z</time>
      </trkpt>
      <trkpt lat="42.8316850" lon="-0.2198830">
        <ele>2267.0</ele>
        <time>2020-09-12T12:31:45Z</time>
      </trkpt>
      <trkpt lat="42.8317270" lon="-0.2197480">
        <ele>2267.0</ele>
        <time>2020-09-12T12:31:55Z</time>
      </trkpt>
      <trkpt lat="42.8317700" lon="-0.2196980">
        <ele>2266.2</ele>
        <time>2020-09-12T12:32:00Z</time>
      </trkpt>
      <trkpt lat="42.8317710" lon="-0.2196770">
        <ele>2265.8</ele>
        <time>2020-09-12T12:32:02Z</time>
      </trkpt>
      <trkpt lat="42.8317740" lon="-0.2196020">
        <ele>2265.0</ele>
        <time>2020-09-12T12:32:07Z</time>
      </trkpt>
      <trkpt lat="42.8317850" lon="-0.2195240">
        <ele>2264.4</ele>
        <time>2020-09-12T12:32:13Z</time>
      </trkpt>
      <trkpt lat="42.8317720" lon="-0.2194840">
        <ele>2263.4</ele>
        <time>2020-09-12T12:32:16Z</time>
      </trkpt>
      <trkpt lat="42.8317690" lon="-0.2194340">
        <ele>2262.2</ele>
        <time>2020-09-12T12:32:20Z</time>
      </trkpt>
      <trkpt lat="42.8317750" lon="-0.2193970">
        <ele>2261.4</ele>
        <time>2020-09-12T12:32:24Z</time>
      </trkpt>
      <trkpt lat="42.8317760" lon="-0.2194010">
        <ele>2261.0</ele>
        <time>2020-09-12T12:32:25Z</time>
      </trkpt>
      <trkpt lat="42.8317750" lon="-0.2194010">
        <ele>2260.0</ele>
        <time>2020-09-12T12:32:30Z</time>
      </trkpt>
      <trkpt lat="42.8317710" lon="-0.2194070">
        <ele>2260.0</ele>
        <time>2020-09-12T12:32:32Z</time>
      </trkpt>
      <trkpt lat="42.8317680" lon="-0.2194110">
        <ele>2260.2</ele>
        <time>2020-09-12T12:32:34Z</time>
      </trkpt>
      <trkpt lat="42.8317390" lon="-0.2193620">
        <ele>2261.8</ele>
        <time>2020-09-12T12:32:52Z</time>
      </trkpt>
      <trkpt lat="42.8316600" lon="-0.2193230">
        <ele>2260.6</ele>
        <time>2020-09-12T12:33:00Z</time>
      </trkpt>
      <trkpt lat="42.8316520" lon="-0.2192960">
        <ele>2260.0</ele>
        <time>2020-09-12T12:33:02Z</time>
      </trkpt>
      <trkpt lat="42.8316440" lon="-0.2192650">
        <ele>2259.4</ele>
        <time>2020-09-12T12:33:04Z</time>
      </trkpt>
      <trkpt lat="42.8316260" lon="-0.2192420">
        <ele>2258.8</ele>
        <time>2020-09-12T12:33:06Z</time>
      </trkpt>
      <trkpt lat="42.8316220" lon="-0.2192290">
        <ele>2258.6</ele>
        <time>2020-09-12T12:33:07Z</time>
      </trkpt>
      <trkpt lat="42.8316030" lon="-0.2191840">
        <ele>2257.6</ele>
        <time>2020-09-12T12:33:10Z</time>
      </trkpt>
      <trkpt lat="42.8315460" lon="-0.2190540">
        <ele>2256.4</ele>
        <time>2020-09-12T12:33:19Z</time>
      </trkpt>
      <trkpt lat="42.8315360" lon="-0.2189980">
        <ele>2255.4</ele>
        <time>2020-09-12T12:33:22Z</time>
      </trkpt>
      <trkpt lat="42.8315150" lon="-0.2189240">
        <ele>2254.2</ele>
        <time>2020-09-12T12:33:26Z</time>
      </trkpt>
      <trkpt lat="42.8314290" lon="-0.2188400">
        <ele>2254.0</ele>
        <time>2020-09-12T12:33:35Z</time>
      </trkpt>
      <trkpt lat="42.8314200" lon="-0.2188110">
        <ele>2254.0</ele>
        <time>2020-09-12T12:33:38Z</time>
      </trkpt>
      <trkpt lat="42.8313890" lon="-0.2187820">
        <ele>2253.0</ele>
        <time>2020-09-12T12:33:42Z</time>
      </trkpt>
      <trkpt lat="42.8313660" lon="-0.2187540">
        <ele>2251.8</ele>
        <time>2020-09-12T12:33:45Z</time>
      </trkpt>
      <trkpt lat="42.8313570" lon="-0.2187350">
        <ele>2251.0</ele>
        <time>2020-09-12T12:33:47Z</time>
      </trkpt>
      <trkpt lat="42.8313560" lon="-0.2187130">
        <ele>2250.6</ele>
        <time>2020-09-12T12:33:49Z</time>
      </trkpt>
      <trkpt lat="42.8313290" lon="-0.2186390">
        <ele>2249.4</ele>
        <time>2020-09-12T12:33:54Z</time>
      </trkpt>
      <trkpt lat="42.8313240" lon="-0.2186260">
        <ele>2249.0</ele>
        <time>2020-09-12T12:33:55Z</time>
      </trkpt>
      <trkpt lat="42.8313200" lon="-0.2185930">
        <ele>2248.2</ele>
        <time>2020-09-12T12:33:57Z</time>
      </trkpt>
      <trkpt lat="42.8313200" lon="-0.2185760">
        <ele>2247.8</ele>
        <time>2020-09-12T12:33:58Z</time>
      </trkpt>
      <trkpt lat="42.8313340" lon="-0.2184830">
        <ele>2247.2</ele>
        <time>2020-09-12T12:34:03Z</time>
      </trkpt>
      <trkpt lat="42.8313550" lon="-0.2184450">
        <ele>2247.0</ele>
        <time>2020-09-12T12:34:06Z</time>
      </trkpt>
      <trkpt lat="42.8313720" lon="-0.2184420">
        <ele>2246.8</ele>
        <time>2020-09-12T12:34:08Z</time>
      </trkpt>
      <trkpt lat="42.8313870" lon="-0.2184290">
        <ele>2246.6</ele>
        <time>2020-09-12T12:34:10Z</time>
      </trkpt>
      <trkpt lat="42.8314030" lon="-0.2183650">
        <ele>2246.0</ele>
        <time>2020-09-12T12:34:15Z</time>
      </trkpt>
      <trkpt lat="42.8314020" lon="-0.2183310">
        <ele>2245.8</ele>
        <time>2020-09-12T12:34:18Z</time>
      </trkpt>
      <trkpt lat="42.8312990" lon="-0.2181400">
        <ele>2245.4</ele>
        <time>2020-09-12T12:34:34Z</time>
      </trkpt>
      <trkpt lat="42.8312070" lon="-0.2179220">
        <ele>2245.6</ele>
        <time>2020-09-12T12:34:50Z</time>
      </trkpt>
      <trkpt lat="42.8311630" lon="-0.2178200">
        <ele>2245.4</ele>
        <time>2020-09-12T12:34:57Z</time>
      </trkpt>
      <trkpt lat="42.8311360" lon="-0.2177160">
        <ele>2245.0</ele>
        <time>2020-09-12T12:35:04Z</time>
      </trkpt>
      <trkpt lat="42.8311140" lon="-0.2176470">
        <ele>2243.8</ele>
        <time>2020-09-12T12:35:09Z</time>
      </trkpt>
      <trkpt lat="42.8311060" lon="-0.2176240">
        <ele>2243.6</ele>
        <time>2020-09-12T12:35:11Z</time>
      </trkpt>
      <trkpt lat="42.8311040" lon="-0.2175800">
        <ele>2243.4</ele>
        <time>2020-09-12T12:35:14Z</time>
      </trkpt>
      <trkpt lat="42.8310910" lon="-0.2175280">
        <ele>2242.6</ele>
        <time>2020-09-12T12:35:18Z</time>
      </trkpt>
      <trkpt lat="42.8310770" lon="-0.2175050">
        <ele>2242.0</ele>
        <time>2020-09-12T12:35:20Z</time>
      </trkpt>
      <trkpt lat="42.8310580" lon="-0.2174880">
        <ele>2241.6</ele>
        <time>2020-09-12T12:35:22Z</time>
      </trkpt>
      <trkpt lat="42.8310510" lon="-0.2174810">
        <ele>2241.2</ele>
        <time>2020-09-12T12:35:23Z</time>
      </trkpt>
      <trkpt lat="42.8310210" lon="-0.2174650">
        <ele>2240.6</ele>
        <time>2020-09-12T12:35:27Z</time>
      </trkpt>
      <trkpt lat="42.8309820" lon="-0.2174050">
        <ele>2239.4</ele>
        <time>2020-09-12T12:35:33Z</time>
      </trkpt>
      <trkpt lat="42.8309460" lon="-0.2172620">
        <ele>2238.4</ele>
        <time>2020-09-12T12:35:42Z</time>
      </trkpt>
      <trkpt lat="42.8309220" lon="-0.2170370">
        <ele>2237.4</ele>
        <time>2020-09-12T12:35:57Z</time>
      </trkpt>
      <trkpt lat="42.8309210" lon="-0.2170230">
        <ele>2237.2</ele>
        <time>2020-09-12T12:35:58Z</time>
      </trkpt>
      <trkpt lat="42.8309390" lon="-0.2168530">
        <ele>2236.2</ele>
        <time>2020-09-12T12:36:10Z</time>
      </trkpt>
      <trkpt lat="42.8309250" lon="-0.2167660">
        <ele>2235.6</ele>
        <time>2020-09-12T12:36:16Z</time>
      </trkpt>
      <trkpt lat="42.8309210" lon="-0.2167520">
        <ele>2235.4</ele>
        <time>2020-09-12T12:36:17Z</time>
      </trkpt>
      <trkpt lat="42.8309210" lon="-0.2167380">
        <ele>2235.2</ele>
        <time>2020-09-12T12:36:18Z</time>
      </trkpt>
      <trkpt lat="42.8309040" lon="-0.2166950">
        <ele>2234.6</ele>
        <time>2020-09-12T12:36:23Z</time>
      </trkpt>
      <trkpt lat="42.8308910" lon="-0.2166800">
        <ele>2234.4</ele>
        <time>2020-09-12T12:36:25Z</time>
      </trkpt>
      <trkpt lat="42.8308900" lon="-0.2166710">
        <ele>2234.2</ele>
        <time>2020-09-12T12:36:26Z</time>
      </trkpt>
      <trkpt lat="42.8308920" lon="-0.2166180">
        <ele>2233.2</ele>
        <time>2020-09-12T12:36:30Z</time>
      </trkpt>
      <trkpt lat="42.8308890" lon="-0.2166030">
        <ele>2233.0</ele>
        <time>2020-09-12T12:36:31Z</time>
      </trkpt>
      <trkpt lat="42.8308870" lon="-0.2165520">
        <ele>2231.8</ele>
        <time>2020-09-12T12:36:34Z</time>
      </trkpt>
      <trkpt lat="42.8309130" lon="-0.2164260">
        <ele>2230.8</ele>
        <time>2020-09-12T12:36:42Z</time>
      </trkpt>
      <trkpt lat="42.8309490" lon="-0.2163640">
        <ele>2230.2</ele>
        <time>2020-09-12T12:36:49Z</time>
      </trkpt>
      <trkpt lat="42.8309610" lon="-0.2163350">
        <ele>2229.8</ele>
        <time>2020-09-12T12:36:52Z</time>
      </trkpt>
      <trkpt lat="42.8309720" lon="-0.2162870">
        <ele>2229.4</ele>
        <time>2020-09-12T12:36:56Z</time>
      </trkpt>
      <trkpt lat="42.8309850" lon="-0.2162440">
        <ele>2228.6</ele>
        <time>2020-09-12T12:36:59Z</time>
      </trkpt>
      <trkpt lat="42.8309920" lon="-0.2162090">
        <ele>2228.0</ele>
        <time>2020-09-12T12:37:02Z</time>
      </trkpt>
      <trkpt lat="42.8309950" lon="-0.2161810">
        <ele>2227.6</ele>
        <time>2020-09-12T12:37:04Z</time>
      </trkpt>
      <trkpt lat="42.8309930" lon="-0.2160570">
        <ele>2226.4</ele>
        <time>2020-09-12T12:37:12Z</time>
      </trkpt>
      <trkpt lat="42.8310110" lon="-0.2160300">
        <ele>2226.0</ele>
        <time>2020-09-12T12:37:16Z</time>
      </trkpt>
      <trkpt lat="42.8310410" lon="-0.2160250">
        <ele>2225.4</ele>
        <time>2020-09-12T12:37:21Z</time>
      </trkpt>
      <trkpt lat="42.8310640" lon="-0.2160030">
        <ele>2224.2</ele>
        <time>2020-09-12T12:37:25Z</time>
      </trkpt>
      <trkpt lat="42.8310980" lon="-0.2159550">
        <ele>2223.4</ele>
        <time>2020-09-12T12:37:30Z</time>
      </trkpt>
      <trkpt lat="42.8311060" lon="-0.2159450">
        <ele>2223.2</ele>
        <time>2020-09-12T12:37:31Z</time>
      </trkpt>
      <trkpt lat="42.8311110" lon="-0.2159370">
        <ele>2222.8</ele>
        <time>2020-09-12T12:37:32Z</time>
      </trkpt>
      <trkpt lat="42.8311720" lon="-0.2158310">
        <ele>2222.0</ele>
        <time>2020-09-12T12:37:42Z</time>
      </trkpt>
      <trkpt lat="42.8312190" lon="-0.2157750">
        <ele>2221.0</ele>
        <time>2020-09-12T12:37:48Z</time>
      </trkpt>
      <trkpt lat="42.8312340" lon="-0.2156950">
        <ele>2219.8</ele>
        <time>2020-09-12T12:37:55Z</time>
      </trkpt>
      <trkpt lat="42.8312500" lon="-0.2156180">
        <ele>2218.8</ele>
        <time>2020-09-12T12:38:00Z</time>
      </trkpt>
      <trkpt lat="42.8312560" lon="-0.2156020">
        <ele>2218.2</ele>
        <time>2020-09-12T12:38:02Z</time>
      </trkpt>
      <trkpt lat="42.8312570" lon="-0.2156040">
        <ele>2217.6</ele>
        <time>2020-09-12T12:38:07Z</time>
      </trkpt>
      <trkpt lat="42.8312600" lon="-0.2155080">
        <ele>2217.2</ele>
        <time>2020-09-12T12:38:28Z</time>
      </trkpt>
      <trkpt lat="42.8312560" lon="-0.2154760">
        <ele>2216.6</ele>
        <time>2020-09-12T12:38:31Z</time>
      </trkpt>
      <trkpt lat="42.8312240" lon="-0.2154620">
        <ele>2215.8</ele>
        <time>2020-09-12T12:38:35Z</time>
      </trkpt>
      <trkpt lat="42.8312090" lon="-0.2154530">
        <ele>2215.4</ele>
        <time>2020-09-12T12:38:37Z</time>
      </trkpt>
      <trkpt lat="42.8311600" lon="-0.2154560">
        <ele>2214.0</ele>
        <time>2020-09-12T12:38:41Z</time>
      </trkpt>
      <trkpt lat="42.8311290" lon="-0.2154470">
        <ele>2213.0</ele>
        <time>2020-09-12T12:38:45Z</time>
      </trkpt>
      <trkpt lat="42.8310740" lon="-0.2154260">
        <ele>2211.8</ele>
        <time>2020-09-12T12:38:51Z</time>
      </trkpt>
      <trkpt lat="42.8310290" lon="-0.2154230">
        <ele>2210.6</ele>
        <time>2020-09-12T12:38:55Z</time>
      </trkpt>
      <trkpt lat="42.8309990" lon="-0.2154300">
        <ele>2209.6</ele>
        <time>2020-09-12T12:38:58Z</time>
      </trkpt>
      <trkpt lat="42.8309740" lon="-0.2154410">
        <ele>2209.0</ele>
        <time>2020-09-12T12:39:01Z</time>
      </trkpt>
      <trkpt lat="42.8309330" lon="-0.2154520">
        <ele>2208.4</ele>
        <time>2020-09-12T12:39:05Z</time>
      </trkpt>
      <trkpt lat="42.8308620" lon="-0.2154370">
        <ele>2207.4</ele>
        <time>2020-09-12T12:39:12Z</time>
      </trkpt>
      <trkpt lat="42.8308190" lon="-0.2154120">
        <ele>2207.2</ele>
        <time>2020-09-12T12:39:16Z</time>
      </trkpt>
      <trkpt lat="42.8307490" lon="-0.2153920">
        <ele>2206.0</ele>
        <time>2020-09-12T12:39:22Z</time>
      </trkpt>
      <trkpt lat="42.8306490" lon="-0.2153930">
        <ele>2204.8</ele>
        <time>2020-09-12T12:39:30Z</time>
      </trkpt>
      <trkpt lat="42.8305490" lon="-0.2153990">
        <ele>2203.8</ele>
        <time>2020-09-12T12:39:38Z</time>
      </trkpt>
      <trkpt lat="42.8304760" lon="-0.2153710">
        <ele>2202.6</ele>
        <time>2020-09-12T12:39:45Z</time>
      </trkpt>
      <trkpt lat="42.8304640" lon="-0.2153490">
        <ele>2202.4</ele>
        <time>2020-09-12T12:39:47Z</time>
      </trkpt>
      <trkpt lat="42.8304580" lon="-0.2153140">
        <ele>2202.2</ele>
        <time>2020-09-12T12:39:49Z</time>
      </trkpt>
      <trkpt lat="42.8304450" lon="-0.2152630">
        <ele>2201.6</ele>
        <time>2020-09-12T12:39:52Z</time>
      </trkpt>
      <trkpt lat="42.8304360" lon="-0.2152130">
        <ele>2200.4</ele>
        <time>2020-09-12T12:39:55Z</time>
      </trkpt>
      <trkpt lat="42.8304220" lon="-0.2151000">
        <ele>2199.4</ele>
        <time>2020-09-12T12:40:01Z</time>
      </trkpt>
      <trkpt lat="42.8304450" lon="-0.2148930">
        <ele>2198.2</ele>
        <time>2020-09-12T12:40:12Z</time>
      </trkpt>
      <trkpt lat="42.8303990" lon="-0.2147470">
        <ele>2197.2</ele>
        <time>2020-09-12T12:40:22Z</time>
      </trkpt>
      <trkpt lat="42.8303920" lon="-0.2147450">
        <ele>2197.0</ele>
        <time>2020-09-12T12:40:23Z</time>
      </trkpt>
      <trkpt lat="42.8303750" lon="-0.2147470">
        <ele>2196.6</ele>
        <time>2020-09-12T12:40:25Z</time>
      </trkpt>
      <trkpt lat="42.8303630" lon="-0.2147650">
        <ele>2196.2</ele>
        <time>2020-09-12T12:40:28Z</time>
      </trkpt>
      <trkpt lat="42.8303620" lon="-0.2147740">
        <ele>2196.2</ele>
        <time>2020-09-12T12:40:29Z</time>
      </trkpt>
      <trkpt lat="42.8303350" lon="-0.2147860">
        <ele>2196.0</ele>
        <time>2020-09-12T12:40:32Z</time>
      </trkpt>
      <trkpt lat="42.8303160" lon="-0.2147760">
        <ele>2196.0</ele>
        <time>2020-09-12T12:40:34Z</time>
      </trkpt>
      <trkpt lat="42.8302970" lon="-0.2147530">
        <ele>2196.0</ele>
        <time>2020-09-12T12:40:37Z</time>
      </trkpt>
      <trkpt lat="42.8302940" lon="-0.2145190">
        <ele>2197.2</ele>
        <time>2020-09-12T12:40:51Z</time>
      </trkpt>
      <trkpt lat="42.8302150" lon="-0.2143830">
        <ele>2196.4</ele>
        <time>2020-09-12T12:41:01Z</time>
      </trkpt>
      <trkpt lat="42.8302010" lon="-0.2141360">
        <ele>2195.2</ele>
        <time>2020-09-12T12:41:14Z</time>
      </trkpt>
      <trkpt lat="42.8302040" lon="-0.2140910">
        <ele>2194.6</ele>
        <time>2020-09-12T12:41:18Z</time>
      </trkpt>
      <trkpt lat="42.8301980" lon="-0.2140780">
        <ele>2194.4</ele>
        <time>2020-09-12T12:41:20Z</time>
      </trkpt>
      <trkpt lat="42.8301920" lon="-0.2140620">
        <ele>2194.2</ele>
        <time>2020-09-12T12:41:22Z</time>
      </trkpt>
      <trkpt lat="42.8301870" lon="-0.2139990">
        <ele>2193.2</ele>
        <time>2020-09-12T12:41:32Z</time>
      </trkpt>
      <trkpt lat="42.8301890" lon="-0.2139300">
        <ele>2192.2</ele>
        <time>2020-09-12T12:41:38Z</time>
      </trkpt>
      <trkpt lat="42.8301880" lon="-0.2139170">
        <ele>2192.0</ele>
        <time>2020-09-12T12:41:39Z</time>
      </trkpt>
      <trkpt lat="42.8301970" lon="-0.2138050">
        <ele>2191.0</ele>
        <time>2020-09-12T12:41:47Z</time>
      </trkpt>
      <trkpt lat="42.8301850" lon="-0.2137210">
        <ele>2190.0</ele>
        <time>2020-09-12T12:41:53Z</time>
      </trkpt>
      <trkpt lat="42.8301780" lon="-0.2136470">
        <ele>2188.8</ele>
        <time>2020-09-12T12:41:58Z</time>
      </trkpt>
      <trkpt lat="42.8301860" lon="-0.2135330">
        <ele>2187.6</ele>
        <time>2020-09-12T12:42:05Z</time>
      </trkpt>
      <trkpt lat="42.8301850" lon="-0.2134600">
        <ele>2186.6</ele>
        <time>2020-09-12T12:42:11Z</time>
      </trkpt>
      <trkpt lat="42.8301810" lon="-0.2133930">
        <ele>2185.6</ele>
        <time>2020-09-12T12:42:15Z</time>
      </trkpt>
      <trkpt lat="42.8301880" lon="-0.2133060">
        <ele>2184.6</ele>
        <time>2020-09-12T12:42:20Z</time>
      </trkpt>
      <trkpt lat="42.8301830" lon="-0.2131750">
        <ele>2183.8</ele>
        <time>2020-09-12T12:42:28Z</time>
      </trkpt>
      <trkpt lat="42.8300550" lon="-0.2131540">
        <ele>2183.6</ele>
        <time>2020-09-12T12:42:38Z</time>
      </trkpt>
      <trkpt lat="42.8300330" lon="-0.2131520">
        <ele>2183.2</ele>
        <time>2020-09-12T12:42:41Z</time>
      </trkpt>
      <trkpt lat="42.8300280" lon="-0.2131500">
        <ele>2183.0</ele>
        <time>2020-09-12T12:42:44Z</time>
      </trkpt>
      <trkpt lat="42.8299260" lon="-0.2130820">
        <ele>2182.6</ele>
        <time>2020-09-12T12:43:28Z</time>
      </trkpt>
      <trkpt lat="42.8299250" lon="-0.2129990">
        <ele>2181.4</ele>
        <time>2020-09-12T12:43:39Z</time>
      </trkpt>
      <trkpt lat="42.8299880" lon="-0.2128290">
        <ele>2180.4</ele>
        <time>2020-09-12T12:43:51Z</time>
      </trkpt>
      <trkpt lat="42.8300540" lon="-0.2127110">
        <ele>2179.4</ele>
        <time>2020-09-12T12:44:00Z</time>
      </trkpt>
      <trkpt lat="42.8300590" lon="-0.2126850">
        <ele>2179.0</ele>
        <time>2020-09-12T12:44:02Z</time>
      </trkpt>
      <trkpt lat="42.8300720" lon="-0.2126350">
        <ele>2178.4</ele>
        <time>2020-09-12T12:44:06Z</time>
      </trkpt>
      <trkpt lat="42.8300820" lon="-0.2125720">
        <ele>2177.2</ele>
        <time>2020-09-12T12:44:11Z</time>
      </trkpt>
      <trkpt lat="42.8300850" lon="-0.2125550">
        <ele>2176.8</ele>
        <time>2020-09-12T12:44:13Z</time>
      </trkpt>
      <trkpt lat="42.8300810" lon="-0.2125280">
        <ele>2176.4</ele>
        <time>2020-09-12T12:44:15Z</time>
      </trkpt>
      <trkpt lat="42.8300860" lon="-0.2125170">
        <ele>2176.2</ele>
        <time>2020-09-12T12:44:16Z</time>
      </trkpt>
      <trkpt lat="42.8301020" lon="-0.2124640">
        <ele>2175.0</ele>
        <time>2020-09-12T12:44:21Z</time>
      </trkpt>
      <trkpt lat="42.8301180" lon="-0.2124230">
        <ele>2173.8</ele>
        <time>2020-09-12T12:44:25Z</time>
      </trkpt>
      <trkpt lat="42.8301320" lon="-0.2123240">
        <ele>2172.8</ele>
        <time>2020-09-12T12:44:32Z</time>
      </trkpt>
      <trkpt lat="42.8301390" lon="-0.2122630">
        <ele>2171.6</ele>
        <time>2020-09-12T12:44:37Z</time>
      </trkpt>
      <trkpt lat="42.8301410" lon="-0.2122380">
        <ele>2171.2</ele>
        <time>2020-09-12T12:44:39Z</time>
      </trkpt>
      <trkpt lat="42.8301540" lon="-0.2122170">
        <ele>2170.6</ele>
        <time>2020-09-12T12:44:41Z</time>
      </trkpt>
      <trkpt lat="42.8301590" lon="-0.2121920">
        <ele>2170.2</ele>
        <time>2020-09-12T12:44:43Z</time>
      </trkpt>
      <trkpt lat="42.8301590" lon="-0.2121790">
        <ele>2169.8</ele>
        <time>2020-09-12T12:44:45Z</time>
      </trkpt>
      <trkpt lat="42.8301610" lon="-0.2121660">
        <ele>2169.6</ele>
        <time>2020-09-12T12:44:47Z</time>
      </trkpt>
      <trkpt lat="42.8301700" lon="-0.2120970">
        <ele>2169.4</ele>
        <time>2020-09-12T12:44:52Z</time>
      </trkpt>
      <trkpt lat="42.8301850" lon="-0.2119590">
        <ele>2168.4</ele>
        <time>2020-09-12T12:45:00Z</time>
      </trkpt>
      <trkpt lat="42.8301650" lon="-0.2117810">
        <ele>2167.4</ele>
        <time>2020-09-12T12:45:11Z</time>
      </trkpt>
      <trkpt lat="42.8301640" lon="-0.2117170">
        <ele>2167.0</ele>
        <time>2020-09-12T12:45:16Z</time>
      </trkpt>
      <trkpt lat="42.8302000" lon="-0.2115480">
        <ele>2166.4</ele>
        <time>2020-09-12T12:45:26Z</time>
      </trkpt>
      <trkpt lat="42.8301610" lon="-0.2113950">
        <ele>2165.2</ele>
        <time>2020-09-12T12:45:34Z</time>
      </trkpt>
      <trkpt lat="42.8301090" lon="-0.2111450">
        <ele>2164.6</ele>
        <time>2020-09-12T12:45:48Z</time>
      </trkpt>
      <trkpt lat="42.8300940" lon="-0.2108890">
        <ele>2164.8</ele>
        <time>2020-09-12T12:46:02Z</time>
      </trkpt>
      <trkpt lat="42.8300820" lon="-0.2108100">
        <ele>2165.0</ele>
        <time>2020-09-12T12:46:08Z</time>
      </trkpt>
      <trkpt lat="42.8300520" lon="-0.2107510">
        <ele>2165.8</ele>
        <time>2020-09-12T12:46:13Z</time>
      </trkpt>
      <trkpt lat="42.8300190" lon="-0.2107160">
        <ele>2166.4</ele>
        <time>2020-09-12T12:46:17Z</time>
      </trkpt>
      <trkpt lat="42.8299440" lon="-0.2104960">
        <ele>2166.2</ele>
        <time>2020-09-12T12:46:30Z</time>
      </trkpt>
      <trkpt lat="42.8299060" lon="-0.2103730">
        <ele>2165.6</ele>
        <time>2020-09-12T12:46:38Z</time>
      </trkpt>
      <trkpt lat="42.8298650" lon="-0.2102760">
        <ele>2165.4</ele>
        <time>2020-09-12T12:46:46Z</time>
      </trkpt>
      <trkpt lat="42.8298600" lon="-0.2102650">
        <ele>2165.2</ele>
        <time>2020-09-12T12:46:47Z</time>
      </trkpt>
      <trkpt lat="42.8297910" lon="-0.2100780">
        <ele>2164.0</ele>
        <time>2020-09-12T12:47:00Z</time>
      </trkpt>
      <trkpt lat="42.8296570" lon="-0.2099170">
        <ele>2164.4</ele>
        <time>2020-09-12T12:47:15Z</time>
      </trkpt>
      <trkpt lat="42.8296120" lon="-0.2098900">
        <ele>2165.0</ele>
        <time>2020-09-12T12:47:20Z</time>
      </trkpt>
      <trkpt lat="42.8295470" lon="-0.2098480">
        <ele>2166.2</ele>
        <time>2020-09-12T12:47:27Z</time>
      </trkpt>
      <trkpt lat="42.8293970" lon="-0.2097310">
        <ele>2165.8</ele>
        <time>2020-09-12T12:47:42Z</time>
      </trkpt>
      <trkpt lat="42.8293930" lon="-0.2095300">
        <ele>2166.4</ele>
        <time>2020-09-12T12:47:55Z</time>
      </trkpt>
      <trkpt lat="42.8293890" lon="-0.2095170">
        <ele>2166.4</ele>
        <time>2020-09-12T12:47:57Z</time>
      </trkpt>
      <trkpt lat="42.8293690" lon="-0.2094320">
        <ele>2165.0</ele>
        <time>2020-09-12T12:48:08Z</time>
      </trkpt>
      <trkpt lat="42.8293410" lon="-0.2093710">
        <ele>2164.0</ele>
        <time>2020-09-12T12:48:14Z</time>
      </trkpt>
      <trkpt lat="42.8293330" lon="-0.2093500">
        <ele>2163.4</ele>
        <time>2020-09-12T12:48:16Z</time>
      </trkpt>
      <trkpt lat="42.8293240" lon="-0.2093270">
        <ele>2162.6</ele>
        <time>2020-09-12T12:48:18Z</time>
      </trkpt>
      <trkpt lat="42.8293120" lon="-0.2093130">
        <ele>2161.8</ele>
        <time>2020-09-12T12:48:20Z</time>
      </trkpt>
      <trkpt lat="42.8293080" lon="-0.2093050">
        <ele>2161.4</ele>
        <time>2020-09-12T12:48:21Z</time>
      </trkpt>
      <trkpt lat="42.8292710" lon="-0.2092830">
        <ele>2160.2</ele>
        <time>2020-09-12T12:48:26Z</time>
      </trkpt>
      <trkpt lat="42.8292550" lon="-0.2092790">
        <ele>2159.6</ele>
        <time>2020-09-12T12:48:28Z</time>
      </trkpt>
      <trkpt lat="42.8292470" lon="-0.2092730">
        <ele>2159.2</ele>
        <time>2020-09-12T12:48:29Z</time>
      </trkpt>
      <trkpt lat="42.8292230" lon="-0.2092460">
        <ele>2158.0</ele>
        <time>2020-09-12T12:48:32Z</time>
      </trkpt>
      <trkpt lat="42.8292040" lon="-0.2092250">
        <ele>2157.2</ele>
        <time>2020-09-12T12:48:35Z</time>
      </trkpt>
      <trkpt lat="42.8292040" lon="-0.2092200">
        <ele>2156.8</ele>
        <time>2020-09-12T12:48:36Z</time>
      </trkpt>
      <trkpt lat="42.8291880" lon="-0.2091670">
        <ele>2155.6</ele>
        <time>2020-09-12T12:48:42Z</time>
      </trkpt>
      <trkpt lat="42.8291700" lon="-0.2091290">
        <ele>2154.6</ele>
        <time>2020-09-12T12:48:47Z</time>
      </trkpt>
      <trkpt lat="42.8291530" lon="-0.2091000">
        <ele>2153.4</ele>
        <time>2020-09-12T12:48:51Z</time>
      </trkpt>
      <trkpt lat="42.8291560" lon="-0.2090630">
        <ele>2152.2</ele>
        <time>2020-09-12T12:48:54Z</time>
      </trkpt>
      <trkpt lat="42.8291550" lon="-0.2090490">
        <ele>2152.0</ele>
        <time>2020-09-12T12:48:55Z</time>
      </trkpt>
      <trkpt lat="42.8291450" lon="-0.2090230">
        <ele>2151.4</ele>
        <time>2020-09-12T12:48:58Z</time>
      </trkpt>
      <trkpt lat="42.8291430" lon="-0.2090100">
        <ele>2151.0</ele>
        <time>2020-09-12T12:48:59Z</time>
      </trkpt>
      <trkpt lat="42.8291410" lon="-0.2089870">
        <ele>2150.4</ele>
        <time>2020-09-12T12:49:01Z</time>
      </trkpt>
      <trkpt lat="42.8291360" lon="-0.2089610">
        <ele>2150.0</ele>
        <time>2020-09-12T12:49:03Z</time>
      </trkpt>
      <trkpt lat="42.8291180" lon="-0.2089330">
        <ele>2148.8</ele>
        <time>2020-09-12T12:49:07Z</time>
      </trkpt>
      <trkpt lat="42.8291030" lon="-0.2088900">
        <ele>2148.0</ele>
        <time>2020-09-12T12:49:11Z</time>
      </trkpt>
      <trkpt lat="42.8290970" lon="-0.2088840">
        <ele>2147.8</ele>
        <time>2020-09-12T12:49:12Z</time>
      </trkpt>
      <trkpt lat="42.8290910" lon="-0.2088700">
        <ele>2147.4</ele>
        <time>2020-09-12T12:49:14Z</time>
      </trkpt>
      <trkpt lat="42.8290930" lon="-0.2088400">
        <ele>2146.6</ele>
        <time>2020-09-12T12:49:17Z</time>
      </trkpt>
      <trkpt lat="42.8290700" lon="-0.2088180">
        <ele>2145.4</ele>
        <time>2020-09-12T12:49:21Z</time>
      </trkpt>
      <trkpt lat="42.8290530" lon="-0.2087960">
        <ele>2144.4</ele>
        <time>2020-09-12T12:49:24Z</time>
      </trkpt>
      <trkpt lat="42.8290380" lon="-0.2087630">
        <ele>2143.6</ele>
        <time>2020-09-12T12:49:27Z</time>
      </trkpt>
      <trkpt lat="42.8290260" lon="-0.2087200">
        <ele>2143.2</ele>
        <time>2020-09-12T12:49:31Z</time>
      </trkpt>
      <trkpt lat="42.8290210" lon="-0.2086940">
        <ele>2142.2</ele>
        <time>2020-09-12T12:49:34Z</time>
      </trkpt>
      <trkpt lat="42.8290170" lon="-0.2086620">
        <ele>2141.0</ele>
        <time>2020-09-12T12:49:38Z</time>
      </trkpt>
      <trkpt lat="42.8290100" lon="-0.2086100">
        <ele>2139.8</ele>
        <time>2020-09-12T12:49:45Z</time>
      </trkpt>
      <trkpt lat="42.8289980" lon="-0.2085900">
        <ele>2138.8</ele>
        <time>2020-09-12T12:49:48Z</time>
      </trkpt>
      <trkpt lat="42.8290000" lon="-0.2085570">
        <ele>2137.8</ele>
        <time>2020-09-12T12:49:51Z</time>
      </trkpt>
      <trkpt lat="42.8289830" lon="-0.2085150">
        <ele>2136.6</ele>
        <time>2020-09-12T12:49:55Z</time>
      </trkpt>
      <trkpt lat="42.8289490" lon="-0.2084830">
        <ele>2135.4</ele>
        <time>2020-09-12T12:50:00Z</time>
      </trkpt>
      <trkpt lat="42.8289010" lon="-0.2084340">
        <ele>2134.2</ele>
        <time>2020-09-12T12:50:07Z</time>
      </trkpt>
      <trkpt lat="42.8288710" lon="-0.2084110">
        <ele>2133.6</ele>
        <time>2020-09-12T12:50:10Z</time>
      </trkpt>
      <trkpt lat="42.8288610" lon="-0.2084090">
        <ele>2133.2</ele>
        <time>2020-09-12T12:50:11Z</time>
      </trkpt>
      <trkpt lat="42.8288130" lon="-0.2083720">
        <ele>2132.4</ele>
        <time>2020-09-12T12:50:18Z</time>
      </trkpt>
      <trkpt lat="42.8288000" lon="-0.2083570">
        <ele>2132.2</ele>
        <time>2020-09-12T12:50:20Z</time>
      </trkpt>
      <trkpt lat="42.8287700" lon="-0.2083290">
        <ele>2131.8</ele>
        <time>2020-09-12T12:50:23Z</time>
      </trkpt>
      <trkpt lat="42.8287480" lon="-0.2083230">
        <ele>2131.0</ele>
        <time>2020-09-12T12:50:25Z</time>
      </trkpt>
      <trkpt lat="42.8287400" lon="-0.2083170">
        <ele>2130.6</ele>
        <time>2020-09-12T12:50:26Z</time>
      </trkpt>
      <trkpt lat="42.8287220" lon="-0.2082910">
        <ele>2129.8</ele>
        <time>2020-09-12T12:50:29Z</time>
      </trkpt>
      <trkpt lat="42.8286190" lon="-0.2082020">
        <ele>2128.6</ele>
        <time>2020-09-12T12:50:41Z</time>
      </trkpt>
      <trkpt lat="42.8285950" lon="-0.2081970">
        <ele>2127.6</ele>
        <time>2020-09-12T12:50:44Z</time>
      </trkpt>
      <trkpt lat="42.8285680" lon="-0.2081900">
        <ele>2126.6</ele>
        <time>2020-09-12T12:50:48Z</time>
      </trkpt>
      <trkpt lat="42.8285610" lon="-0.2081800">
        <ele>2126.4</ele>
        <time>2020-09-12T12:50:49Z</time>
      </trkpt>
      <trkpt lat="42.8285460" lon="-0.2081070">
        <ele>2125.2</ele>
        <time>2020-09-12T12:50:55Z</time>
      </trkpt>
      <trkpt lat="42.8285430" lon="-0.2080940">
        <ele>2125.0</ele>
        <time>2020-09-12T12:50:56Z</time>
      </trkpt>
      <trkpt lat="42.8285450" lon="-0.2080140">
        <ele>2124.2</ele>
        <time>2020-09-12T12:51:02Z</time>
      </trkpt>
      <trkpt lat="42.8285490" lon="-0.2079630">
        <ele>2123.2</ele>
        <time>2020-09-12T12:51:06Z</time>
      </trkpt>
      <trkpt lat="42.8285360" lon="-0.2079000">
        <ele>2122.0</ele>
        <time>2020-09-12T12:51:11Z</time>
      </trkpt>
      <trkpt lat="42.8285190" lon="-0.2078650">
        <ele>2120.8</ele>
        <time>2020-09-12T12:51:14Z</time>
      </trkpt>
      <trkpt lat="42.8284770" lon="-0.2078100">
        <ele>2119.6</ele>
        <time>2020-09-12T12:51:20Z</time>
      </trkpt>
      <trkpt lat="42.8284740" lon="-0.2077730">
        <ele>2118.8</ele>
        <time>2020-09-12T12:51:23Z</time>
      </trkpt>
      <trkpt lat="42.8284580" lon="-0.2077550">
        <ele>2118.2</ele>
        <time>2020-09-12T12:51:25Z</time>
      </trkpt>
      <trkpt lat="42.8284390" lon="-0.2077090">
        <ele>2117.2</ele>
        <time>2020-09-12T12:51:29Z</time>
      </trkpt>
      <trkpt lat="42.8283950" lon="-0.2076520">
        <ele>2116.0</ele>
        <time>2020-09-12T12:51:35Z</time>
      </trkpt>
      <trkpt lat="42.8282610" lon="-0.2076140">
        <ele>2115.0</ele>
        <time>2020-09-12T12:51:46Z</time>
      </trkpt>
      <trkpt lat="42.8282350" lon="-0.2076330">
        <ele>2114.6</ele>
        <time>2020-09-12T12:51:48Z</time>
      </trkpt>
      <trkpt lat="42.8282260" lon="-0.2077090">
        <ele>2114.0</ele>
        <time>2020-09-12T12:51:54Z</time>
      </trkpt>
      <trkpt lat="42.8282270" lon="-0.2077270">
        <ele>2113.8</ele>
        <time>2020-09-12T12:51:55Z</time>
      </trkpt>
      <trkpt lat="42.8282370" lon="-0.2077950">
        <ele>2112.8</ele>
        <time>2020-09-12T12:52:01Z</time>
      </trkpt>
      <trkpt lat="42.8282340" lon="-0.2077960">
        <ele>2112.6</ele>
        <time>2020-09-12T12:52:02Z</time>
      </trkpt>
      <trkpt lat="42.8282270" lon="-0.2078210">
        <ele>2112.0</ele>
        <time>2020-09-12T12:52:05Z</time>
      </trkpt>
      <trkpt lat="42.8282300" lon="-0.2078400">
        <ele>2111.4</ele>
        <time>2020-09-12T12:52:07Z</time>
      </trkpt>
      <trkpt lat="42.8282290" lon="-0.2078440">
        <ele>2111.2</ele>
        <time>2020-09-12T12:52:08Z</time>
      </trkpt>
      <trkpt lat="42.8282270" lon="-0.2078480">
        <ele>2111.0</ele>
        <time>2020-09-12T12:52:12Z</time>
      </trkpt>
      <trkpt lat="42.8282230" lon="-0.2079490">
        <ele>2110.2</ele>
        <time>2020-09-12T12:52:20Z</time>
      </trkpt>
      <trkpt lat="42.8282080" lon="-0.2080410">
        <ele>2109.2</ele>
        <time>2020-09-12T12:52:27Z</time>
      </trkpt>
      <trkpt lat="42.8282000" lon="-0.2081580">
        <ele>2108.2</ele>
        <time>2020-09-12T12:52:36Z</time>
      </trkpt>
      <trkpt lat="42.8281960" lon="-0.2081710">
        <ele>2107.8</ele>
        <time>2020-09-12T12:52:38Z</time>
      </trkpt>
      <trkpt lat="42.8281940" lon="-0.2081930">
        <ele>2107.6</ele>
        <time>2020-09-12T12:52:40Z</time>
      </trkpt>
      <trkpt lat="42.8281880" lon="-0.2082190">
        <ele>2107.4</ele>
        <time>2020-09-12T12:52:42Z</time>
      </trkpt>
      <trkpt lat="42.8281840" lon="-0.2082510">
        <ele>2107.0</ele>
        <time>2020-09-12T12:52:44Z</time>
      </trkpt>
      <trkpt lat="42.8281730" lon="-0.2083180">
        <ele>2106.0</ele>
        <time>2020-09-12T12:52:49Z</time>
      </trkpt>
      <trkpt lat="42.8281590" lon="-0.2084200">
        <ele>2104.6</ele>
        <time>2020-09-12T12:52:55Z</time>
      </trkpt>
      <trkpt lat="42.8281580" lon="-0.2085200">
        <ele>2103.6</ele>
        <time>2020-09-12T12:53:02Z</time>
      </trkpt>
      <trkpt lat="42.8281540" lon="-0.2085320">
        <ele>2103.4</ele>
        <time>2020-09-12T12:53:03Z</time>
      </trkpt>
      <trkpt lat="42.8281480" lon="-0.2085470">
        <ele>2103.2</ele>
        <time>2020-09-12T12:53:04Z</time>
      </trkpt>
      <trkpt lat="42.8281210" lon="-0.2086080">
        <ele>2102.4</ele>
        <time>2020-09-12T12:53:08Z</time>
      </trkpt>
      <trkpt lat="42.8281160" lon="-0.2086210">
        <ele>2102.0</ele>
        <time>2020-09-12T12:53:09Z</time>
      </trkpt>
      <trkpt lat="42.8281040" lon="-0.2086220">
        <ele>2101.6</ele>
        <time>2020-09-12T12:53:11Z</time>
      </trkpt>
      <trkpt lat="42.8280780" lon="-0.2085890">
        <ele>2101.4</ele>
        <time>2020-09-12T12:53:14Z</time>
      </trkpt>
      <trkpt lat="42.8280410" lon="-0.2085310">
        <ele>2100.4</ele>
        <time>2020-09-12T12:53:20Z</time>
      </trkpt>
      <trkpt lat="42.8280300" lon="-0.2085240">
        <ele>2100.2</ele>
        <time>2020-09-12T12:53:21Z</time>
      </trkpt>
      <trkpt lat="42.8280170" lon="-0.2085040">
        <ele>2099.6</ele>
        <time>2020-09-12T12:53:23Z</time>
      </trkpt>
      <trkpt lat="42.8280020" lon="-0.2084630">
        <ele>2099.2</ele>
        <time>2020-09-12T12:53:26Z</time>
      </trkpt>
      <trkpt lat="42.8279700" lon="-0.2084090">
        <ele>2098.2</ele>
        <time>2020-09-12T12:53:31Z</time>
      </trkpt>
      <trkpt lat="42.8279430" lon="-0.2083790">
        <ele>2097.4</ele>
        <time>2020-09-12T12:53:35Z</time>
      </trkpt>
      <trkpt lat="42.8279380" lon="-0.2083640">
        <ele>2097.0</ele>
        <time>2020-09-12T12:53:36Z</time>
      </trkpt>
      <trkpt lat="42.8279130" lon="-0.2083070">
        <ele>2096.0</ele>
        <time>2020-09-12T12:53:40Z</time>
      </trkpt>
      <trkpt lat="42.8279010" lon="-0.2082850">
        <ele>2095.4</ele>
        <time>2020-09-12T12:53:42Z</time>
      </trkpt>
      <trkpt lat="42.8278810" lon="-0.2082630">
        <ele>2094.8</ele>
        <time>2020-09-12T12:53:45Z</time>
      </trkpt>
      <trkpt lat="42.8278400" lon="-0.2082280">
        <ele>2093.6</ele>
        <time>2020-09-12T12:53:50Z</time>
      </trkpt>
      <trkpt lat="42.8277980" lon="-0.2081880">
        <ele>2092.6</ele>
        <time>2020-09-12T12:53:55Z</time>
      </trkpt>
      <trkpt lat="42.8277750" lon="-0.2081710">
        <ele>2091.6</ele>
        <time>2020-09-12T12:53:58Z</time>
      </trkpt>
      <trkpt lat="42.8277670" lon="-0.2081710">
        <ele>2091.4</ele>
        <time>2020-09-12T12:53:59Z</time>
      </trkpt>
      <trkpt lat="42.8277190" lon="-0.2081460">
        <ele>2090.2</ele>
        <time>2020-09-12T12:54:05Z</time>
      </trkpt>
      <trkpt lat="42.8277130" lon="-0.2081440">
        <ele>2090.0</ele>
        <time>2020-09-12T12:54:06Z</time>
      </trkpt>
      <trkpt lat="42.8276900" lon="-0.2081330">
        <ele>2089.0</ele>
        <time>2020-09-12T12:54:10Z</time>
      </trkpt>
      <trkpt lat="42.8276510" lon="-0.2080900">
        <ele>2088.4</ele>
        <time>2020-09-12T12:54:15Z</time>
      </trkpt>
      <trkpt lat="42.8276240" lon="-0.2080760">
        <ele>2088.0</ele>
        <time>2020-09-12T12:54:18Z</time>
      </trkpt>
      <trkpt lat="42.8276120" lon="-0.2080620">
        <ele>2087.6</ele>
        <time>2020-09-12T12:54:20Z</time>
      </trkpt>
      <trkpt lat="42.8275950" lon="-0.2080380">
        <ele>2087.0</ele>
        <time>2020-09-12T12:54:23Z</time>
      </trkpt>
      <trkpt lat="42.8275900" lon="-0.2080280">
        <ele>2086.6</ele>
        <time>2020-09-12T12:54:24Z</time>
      </trkpt>
      <trkpt lat="42.8275420" lon="-0.2079710">
        <ele>2085.6</ele>
        <time>2020-09-12T12:54:30Z</time>
      </trkpt>
      <trkpt lat="42.8275140" lon="-0.2079410">
        <ele>2084.4</ele>
        <time>2020-09-12T12:54:34Z</time>
      </trkpt>
      <trkpt lat="42.8274790" lon="-0.2078980">
        <ele>2083.8</ele>
        <time>2020-09-12T12:54:38Z</time>
      </trkpt>
      <trkpt lat="42.8274470" lon="-0.2078590">
        <ele>2083.4</ele>
        <time>2020-09-12T12:54:42Z</time>
      </trkpt>
      <trkpt lat="42.8274110" lon="-0.2078210">
        <ele>2082.2</ele>
        <time>2020-09-12T12:54:46Z</time>
      </trkpt>
      <trkpt lat="42.8273590" lon="-0.2077760">
        <ele>2082.0</ele>
        <time>2020-09-12T12:54:52Z</time>
      </trkpt>
      <trkpt lat="42.8273310" lon="-0.2078070">
        <ele>2081.6</ele>
        <time>2020-09-12T12:54:56Z</time>
      </trkpt>
      <trkpt lat="42.8273130" lon="-0.2078490">
        <ele>2081.0</ele>
        <time>2020-09-12T12:54:59Z</time>
      </trkpt>
      <trkpt lat="42.8272820" lon="-0.2078920">
        <ele>2079.8</ele>
        <time>2020-09-12T12:55:03Z</time>
      </trkpt>
      <trkpt lat="42.8272260" lon="-0.2079410">
        <ele>2078.6</ele>
        <time>2020-09-12T12:55:08Z</time>
      </trkpt>
      <trkpt lat="42.8272060" lon="-0.2079580">
        <ele>2077.6</ele>
        <time>2020-09-12T12:55:10Z</time>
      </trkpt>
      <trkpt lat="42.8271980" lon="-0.2079630">
        <ele>2077.2</ele>
        <time>2020-09-12T12:55:11Z</time>
      </trkpt>
      <trkpt lat="42.8271700" lon="-0.2079510">
        <ele>2076.4</ele>
        <time>2020-09-12T12:55:14Z</time>
      </trkpt>
      <trkpt lat="42.8271530" lon="-0.2079430">
        <ele>2076.4</ele>
        <time>2020-09-12T12:55:16Z</time>
      </trkpt>
      <trkpt lat="42.8271400" lon="-0.2079550">
        <ele>2076.4</ele>
        <time>2020-09-12T12:55:20Z</time>
      </trkpt>
      <trkpt lat="42.8271110" lon="-0.2079050">
        <ele>2075.4</ele>
        <time>2020-09-12T12:55:27Z</time>
      </trkpt>
      <trkpt lat="42.8270620" lon="-0.2078500">
        <ele>2074.2</ele>
        <time>2020-09-12T12:55:32Z</time>
      </trkpt>
      <trkpt lat="42.8270320" lon="-0.2078270">
        <ele>2073.2</ele>
        <time>2020-09-12T12:55:35Z</time>
      </trkpt>
      <trkpt lat="42.8270120" lon="-0.2078020">
        <ele>2073.0</ele>
        <time>2020-09-12T12:55:38Z</time>
      </trkpt>
      <trkpt lat="42.8270120" lon="-0.2077720">
        <ele>2072.8</ele>
        <time>2020-09-12T12:55:41Z</time>
      </trkpt>
      <trkpt lat="42.8270170" lon="-0.2077830">
        <ele>2072.2</ele>
        <time>2020-09-12T12:55:53Z</time>
      </trkpt>
      <trkpt lat="42.8270320" lon="-0.2077040">
        <ele>2071.0</ele>
        <time>2020-09-12T12:56:00Z</time>
      </trkpt>
      <trkpt lat="42.8270200" lon="-0.2076560">
        <ele>2070.0</ele>
        <time>2020-09-12T12:56:04Z</time>
      </trkpt>
      <trkpt lat="42.8270150" lon="-0.2076110">
        <ele>2068.8</ele>
        <time>2020-09-12T12:56:07Z</time>
      </trkpt>
      <trkpt lat="42.8270100" lon="-0.2075630">
        <ele>2067.8</ele>
        <time>2020-09-12T12:56:10Z</time>
      </trkpt>
      <trkpt lat="42.8270050" lon="-0.2074910">
        <ele>2066.6</ele>
        <time>2020-09-12T12:56:14Z</time>
      </trkpt>
      <trkpt lat="42.8270030" lon="-0.2074740">
        <ele>2066.2</ele>
        <time>2020-09-12T12:56:15Z</time>
      </trkpt>
      <trkpt lat="42.8269860" lon="-0.2074340">
        <ele>2065.6</ele>
        <time>2020-09-12T12:56:18Z</time>
      </trkpt>
      <trkpt lat="42.8269590" lon="-0.2073710">
        <ele>2064.4</ele>
        <time>2020-09-12T12:56:23Z</time>
      </trkpt>
      <trkpt lat="42.8269370" lon="-0.2073240">
        <ele>2063.6</ele>
        <time>2020-09-12T12:56:28Z</time>
      </trkpt>
      <trkpt lat="42.8269260" lon="-0.2073000">
        <ele>2063.2</ele>
        <time>2020-09-12T12:56:30Z</time>
      </trkpt>
      <trkpt lat="42.8269210" lon="-0.2072850">
        <ele>2063.0</ele>
        <time>2020-09-12T12:56:31Z</time>
      </trkpt>
      <trkpt lat="42.8268930" lon="-0.2072230">
        <ele>2062.0</ele>
        <time>2020-09-12T12:56:36Z</time>
      </trkpt>
      <trkpt lat="42.8268790" lon="-0.2071970">
        <ele>2061.6</ele>
        <time>2020-09-12T12:56:38Z</time>
      </trkpt>
      <trkpt lat="42.8268640" lon="-0.2071140">
        <ele>2061.0</ele>
        <time>2020-09-12T12:56:44Z</time>
      </trkpt>
      <trkpt lat="42.8268580" lon="-0.2070770">
        <ele>2060.4</ele>
        <time>2020-09-12T12:56:47Z</time>
      </trkpt>
      <trkpt lat="42.8268510" lon="-0.2070540">
        <ele>2060.0</ele>
        <time>2020-09-12T12:56:49Z</time>
      </trkpt>
      <trkpt lat="42.8268370" lon="-0.2069740">
        <ele>2058.8</ele>
        <time>2020-09-12T12:56:54Z</time>
      </trkpt>
      <trkpt lat="42.8268340" lon="-0.2069030">
        <ele>2057.6</ele>
        <time>2020-09-12T12:56:59Z</time>
      </trkpt>
      <trkpt lat="42.8268370" lon="-0.2068870">
        <ele>2057.4</ele>
        <time>2020-09-12T12:57:00Z</time>
      </trkpt>
      <trkpt lat="42.8268320" lon="-0.2068760">
        <ele>2057.0</ele>
        <time>2020-09-12T12:57:02Z</time>
      </trkpt>
      <trkpt lat="42.8268340" lon="-0.2068730">
        <ele>2056.6</ele>
        <time>2020-09-12T12:57:05Z</time>
      </trkpt>
      <trkpt lat="42.8268010" lon="-0.2066610">
        <ele>2055.4</ele>
        <time>2020-09-12T12:57:19Z</time>
      </trkpt>
      <trkpt lat="42.8267990" lon="-0.2066450">
        <ele>2055.2</ele>
        <time>2020-09-12T12:57:20Z</time>
      </trkpt>
      <trkpt lat="42.8267960" lon="-0.2065810">
        <ele>2054.4</ele>
        <time>2020-09-12T12:57:24Z</time>
      </trkpt>
      <trkpt lat="42.8267920" lon="-0.2065600">
        <ele>2054.2</ele>
        <time>2020-09-12T12:57:26Z</time>
      </trkpt>
      <trkpt lat="42.8267510" lon="-0.2064580">
        <ele>2053.6</ele>
        <time>2020-09-12T12:57:34Z</time>
      </trkpt>
      <trkpt lat="42.8267360" lon="-0.2064220">
        <ele>2053.4</ele>
        <time>2020-09-12T12:57:38Z</time>
      </trkpt>
      <trkpt lat="42.8267340" lon="-0.2064120">
        <ele>2053.4</ele>
        <time>2020-09-12T12:57:39Z</time>
      </trkpt>
      <trkpt lat="42.8267190" lon="-0.2063800">
        <ele>2052.8</ele>
        <time>2020-09-12T12:57:43Z</time>
      </trkpt>
      <trkpt lat="42.8267150" lon="-0.2063430">
        <ele>2052.2</ele>
        <time>2020-09-12T12:57:46Z</time>
      </trkpt>
      <trkpt lat="42.8267070" lon="-0.2063200">
        <ele>2051.8</ele>
        <time>2020-09-12T12:57:48Z</time>
      </trkpt>
      <trkpt lat="42.8266980" lon="-0.2062850">
        <ele>2051.0</ele>
        <time>2020-09-12T12:57:51Z</time>
      </trkpt>
      <trkpt lat="42.8266880" lon="-0.2062280">
        <ele>2050.0</ele>
        <time>2020-09-12T12:57:56Z</time>
      </trkpt>
      <trkpt lat="42.8266770" lon="-0.2062020">
        <ele>2049.6</ele>
        <time>2020-09-12T12:57:58Z</time>
      </trkpt>
      <trkpt lat="42.8266610" lon="-0.2061610">
        <ele>2048.8</ele>
        <time>2020-09-12T12:58:01Z</time>
      </trkpt>
      <trkpt lat="42.8266650" lon="-0.2061050">
        <ele>2047.8</ele>
        <time>2020-09-12T12:58:06Z</time>
      </trkpt>
      <trkpt lat="42.8266450" lon="-0.2060780">
        <ele>2047.0</ele>
        <time>2020-09-12T12:58:10Z</time>
      </trkpt>
      <trkpt lat="42.8266410" lon="-0.2060570">
        <ele>2046.6</ele>
        <time>2020-09-12T12:58:12Z</time>
      </trkpt>
      <trkpt lat="42.8266370" lon="-0.2060450">
        <ele>2046.2</ele>
        <time>2020-09-12T12:58:14Z</time>
      </trkpt>
      <trkpt lat="42.8266190" lon="-0.2059970">
        <ele>2045.4</ele>
        <time>2020-09-12T12:58:18Z</time>
      </trkpt>
      <trkpt lat="42.8266060" lon="-0.2059630">
        <ele>2044.6</ele>
        <time>2020-09-12T12:58:21Z</time>
      </trkpt>
      <trkpt lat="42.8265960" lon="-0.2059490">
        <ele>2044.2</ele>
        <time>2020-09-12T12:58:23Z</time>
      </trkpt>
      <trkpt lat="42.8265890" lon="-0.2059300">
        <ele>2044.0</ele>
        <time>2020-09-12T12:58:25Z</time>
      </trkpt>
      <trkpt lat="42.8265720" lon="-0.2058500">
        <ele>2043.2</ele>
        <time>2020-09-12T12:58:31Z</time>
      </trkpt>
      <trkpt lat="42.8265460" lon="-0.2057960">
        <ele>2042.2</ele>
        <time>2020-09-12T12:58:36Z</time>
      </trkpt>
      <trkpt lat="42.8265170" lon="-0.2057500">
        <ele>2042.0</ele>
        <time>2020-09-12T12:58:40Z</time>
      </trkpt>
      <trkpt lat="42.8265050" lon="-0.2057300">
        <ele>2041.6</ele>
        <time>2020-09-12T12:58:42Z</time>
      </trkpt>
      <trkpt lat="42.8264980" lon="-0.2057050">
        <ele>2041.2</ele>
        <time>2020-09-12T12:58:44Z</time>
      </trkpt>
      <trkpt lat="42.8264900" lon="-0.2056910">
        <ele>2040.8</ele>
        <time>2020-09-12T12:58:46Z</time>
      </trkpt>
      <trkpt lat="42.8264880" lon="-0.2056620">
        <ele>2040.6</ele>
        <time>2020-09-12T12:58:48Z</time>
      </trkpt>
      <trkpt lat="42.8264830" lon="-0.2056340">
        <ele>2040.0</ele>
        <time>2020-09-12T12:58:50Z</time>
      </trkpt>
      <trkpt lat="42.8264710" lon="-0.2055560">
        <ele>2039.4</ele>
        <time>2020-09-12T12:58:55Z</time>
      </trkpt>
      <trkpt lat="42.8264740" lon="-0.2055350">
        <ele>2039.0</ele>
        <time>2020-09-12T12:58:56Z</time>
      </trkpt>
      <trkpt lat="42.8264830" lon="-0.2054120">
        <ele>2038.0</ele>
        <time>2020-09-12T12:59:04Z</time>
      </trkpt>
      <trkpt lat="42.8264630" lon="-0.2052540">
        <ele>2037.0</ele>
        <time>2020-09-12T12:59:15Z</time>
      </trkpt>
      <trkpt lat="42.8264650" lon="-0.2052250">
        <ele>2036.6</ele>
        <time>2020-09-12T12:59:17Z</time>
      </trkpt>
      <trkpt lat="42.8264600" lon="-0.2052000">
        <ele>2036.0</ele>
        <time>2020-09-12T12:59:19Z</time>
      </trkpt>
      <trkpt lat="42.8264590" lon="-0.2051870">
        <ele>2035.6</ele>
        <time>2020-09-12T12:59:20Z</time>
      </trkpt>
      <trkpt lat="42.8264540" lon="-0.2051670">
        <ele>2035.2</ele>
        <time>2020-09-12T12:59:22Z</time>
      </trkpt>
      <trkpt lat="42.8264400" lon="-0.2051700">
        <ele>2034.8</ele>
        <time>2020-09-12T12:59:24Z</time>
      </trkpt>
      <trkpt lat="42.8264300" lon="-0.2051760">
        <ele>2034.4</ele>
        <time>2020-09-12T12:59:25Z</time>
      </trkpt>
      <trkpt lat="42.8264160" lon="-0.2051880">
        <ele>2033.6</ele>
        <time>2020-09-12T12:59:27Z</time>
      </trkpt>
      <trkpt lat="42.8264090" lon="-0.2051930">
        <ele>2033.2</ele>
        <time>2020-09-12T12:59:28Z</time>
      </trkpt>
      <trkpt lat="42.8263770" lon="-0.2051850">
        <ele>2032.2</ele>
        <time>2020-09-12T12:59:31Z</time>
      </trkpt>
      <trkpt lat="42.8263590" lon="-0.2051550">
        <ele>2031.2</ele>
        <time>2020-09-12T12:59:35Z</time>
      </trkpt>
      <trkpt lat="42.8263380" lon="-0.2051270">
        <ele>2030.2</ele>
        <time>2020-09-12T12:59:39Z</time>
      </trkpt>
      <trkpt lat="42.8263140" lon="-0.2050850">
        <ele>2029.0</ele>
        <time>2020-09-12T12:59:43Z</time>
      </trkpt>
      <trkpt lat="42.8263040" lon="-0.2050430">
        <ele>2028.0</ele>
        <time>2020-09-12T12:59:46Z</time>
      </trkpt>
      <trkpt lat="42.8262830" lon="-0.2049910">
        <ele>2026.6</ele>
        <time>2020-09-12T12:59:51Z</time>
      </trkpt>
      <trkpt lat="42.8262730" lon="-0.2049460">
        <ele>2025.6</ele>
        <time>2020-09-12T12:59:54Z</time>
      </trkpt>
      <trkpt lat="42.8262750" lon="-0.2049250">
        <ele>2025.4</ele>
        <time>2020-09-12T12:59:55Z</time>
      </trkpt>
      <trkpt lat="42.8262760" lon="-0.2048720">
        <ele>2024.4</ele>
        <time>2020-09-12T12:59:58Z</time>
      </trkpt>
      <trkpt lat="42.8262700" lon="-0.2048240">
        <ele>2023.4</ele>
        <time>2020-09-12T13:00:02Z</time>
      </trkpt>
      <trkpt lat="42.8262670" lon="-0.2048150">
        <ele>2023.2</ele>
        <time>2020-09-12T13:00:03Z</time>
      </trkpt>
      <trkpt lat="42.8262730" lon="-0.2047790">
        <ele>2022.6</ele>
        <time>2020-09-12T13:00:07Z</time>
      </trkpt>
      <trkpt lat="42.8262810" lon="-0.2047670">
        <ele>2022.2</ele>
        <time>2020-09-12T13:00:09Z</time>
      </trkpt>
      <trkpt lat="42.8263060" lon="-0.2047520">
        <ele>2022.0</ele>
        <time>2020-09-12T13:00:11Z</time>
      </trkpt>
      <trkpt lat="42.8263250" lon="-0.2047420">
        <ele>2021.6</ele>
        <time>2020-09-12T13:00:13Z</time>
      </trkpt>
      <trkpt lat="42.8263480" lon="-0.2047370">
        <ele>2021.0</ele>
        <time>2020-09-12T13:00:15Z</time>
      </trkpt>
      <trkpt lat="42.8263790" lon="-0.2047460">
        <ele>2020.0</ele>
        <time>2020-09-12T13:00:18Z</time>
      </trkpt>
      <trkpt lat="42.8264410" lon="-0.2047280">
        <ele>2019.2</ele>
        <time>2020-09-12T13:00:23Z</time>
      </trkpt>
      <trkpt lat="42.8264490" lon="-0.2047290">
        <ele>2019.0</ele>
        <time>2020-09-12T13:00:24Z</time>
      </trkpt>
      <trkpt lat="42.8265020" lon="-0.2047300">
        <ele>2018.0</ele>
        <time>2020-09-12T13:00:29Z</time>
      </trkpt>
      <trkpt lat="42.8265420" lon="-0.2046890">
        <ele>2016.8</ele>
        <time>2020-09-12T13:00:33Z</time>
      </trkpt>
      <trkpt lat="42.8265780" lon="-0.2044840">
        <ele>2016.4</ele>
        <time>2020-09-12T13:00:48Z</time>
      </trkpt>
      <trkpt lat="42.8265610" lon="-0.2044710">
        <ele>2016.2</ele>
        <time>2020-09-12T13:00:50Z</time>
      </trkpt>
      <trkpt lat="42.8265430" lon="-0.2044560">
        <ele>2016.2</ele>
        <time>2020-09-12T13:00:52Z</time>
      </trkpt>
      <trkpt lat="42.8264800" lon="-0.2043950">
        <ele>2015.4</ele>
        <time>2020-09-12T13:01:00Z</time>
      </trkpt>
      <trkpt lat="42.8264580" lon="-0.2043230">
        <ele>2015.2</ele>
        <time>2020-09-12T13:01:05Z</time>
      </trkpt>
      <trkpt lat="42.8264190" lon="-0.2042600">
        <ele>2014.4</ele>
        <time>2020-09-12T13:01:10Z</time>
      </trkpt>
      <trkpt lat="42.8263450" lon="-0.2041150">
        <ele>2013.8</ele>
        <time>2020-09-12T13:01:22Z</time>
      </trkpt>
      <trkpt lat="42.8263390" lon="-0.2041200">
        <ele>2013.4</ele>
        <time>2020-09-12T13:01:24Z</time>
      </trkpt>
      <trkpt lat="42.8262330" lon="-0.2039410">
        <ele>2013.0</ele>
        <time>2020-09-12T13:01:46Z</time>
      </trkpt>
      <trkpt lat="42.8262020" lon="-0.2038560">
        <ele>2012.2</ele>
        <time>2020-09-12T13:01:51Z</time>
      </trkpt>
      <trkpt lat="42.8261860" lon="-0.2038110">
        <ele>2012.0</ele>
        <time>2020-09-12T13:01:54Z</time>
      </trkpt>
      <trkpt lat="42.8261170" lon="-0.2035790">
        <ele>2011.4</ele>
        <time>2020-09-12T13:02:10Z</time>
      </trkpt>
      <trkpt lat="42.8261090" lon="-0.2035490">
        <ele>2011.0</ele>
        <time>2020-09-12T13:02:12Z</time>
      </trkpt>
      <trkpt lat="42.8260840" lon="-0.2034710">
        <ele>2010.0</ele>
        <time>2020-09-12T13:02:17Z</time>
      </trkpt>
      <trkpt lat="42.8260680" lon="-0.2034080">
        <ele>2009.4</ele>
        <time>2020-09-12T13:02:21Z</time>
      </trkpt>
      <trkpt lat="42.8260530" lon="-0.2033390">
        <ele>2009.0</ele>
        <time>2020-09-12T13:02:25Z</time>
      </trkpt>
      <trkpt lat="42.8260630" lon="-0.2032470">
        <ele>2008.0</ele>
        <time>2020-09-12T13:02:31Z</time>
      </trkpt>
      <trkpt lat="42.8260750" lon="-0.2032260">
        <ele>2007.8</ele>
        <time>2020-09-12T13:02:33Z</time>
      </trkpt>
      <trkpt lat="42.8261070" lon="-0.2032010">
        <ele>2007.6</ele>
        <time>2020-09-12T13:02:36Z</time>
      </trkpt>
      <trkpt lat="42.8261380" lon="-0.2031600">
        <ele>2006.8</ele>
        <time>2020-09-12T13:02:40Z</time>
      </trkpt>
      <trkpt lat="42.8261710" lon="-0.2030630">
        <ele>2005.8</ele>
        <time>2020-09-12T13:02:47Z</time>
      </trkpt>
      <trkpt lat="42.8261520" lon="-0.2029660">
        <ele>2004.8</ele>
        <time>2020-09-12T13:02:54Z</time>
      </trkpt>
      <trkpt lat="42.8261410" lon="-0.2029410">
        <ele>2004.8</ele>
        <time>2020-09-12T13:02:56Z</time>
      </trkpt>
      <trkpt lat="42.8261350" lon="-0.2029310">
        <ele>2004.6</ele>
        <time>2020-09-12T13:02:57Z</time>
      </trkpt>
      <trkpt lat="42.8261340" lon="-0.2029020">
        <ele>2004.4</ele>
        <time>2020-09-12T13:02:59Z</time>
      </trkpt>
      <trkpt lat="42.8261260" lon="-0.2028600">
        <ele>2003.6</ele>
        <time>2020-09-12T13:03:02Z</time>
      </trkpt>
      <trkpt lat="42.8261150" lon="-0.2028100">
        <ele>2002.4</ele>
        <time>2020-09-12T13:03:06Z</time>
      </trkpt>
      <trkpt lat="42.8261140" lon="-0.2027350">
        <ele>2001.6</ele>
        <time>2020-09-12T13:03:11Z</time>
      </trkpt>
      <trkpt lat="42.8261130" lon="-0.2027200">
        <ele>2001.4</ele>
        <time>2020-09-12T13:03:12Z</time>
      </trkpt>
      <trkpt lat="42.8260950" lon="-0.2026270">
        <ele>2000.4</ele>
        <time>2020-09-12T13:03:17Z</time>
      </trkpt>
      <trkpt lat="42.8260920" lon="-0.2025090">
        <ele>1999.2</ele>
        <time>2020-09-12T13:03:23Z</time>
      </trkpt>
      <trkpt lat="42.8261300" lon="-0.2022600">
        <ele>1998.4</ele>
        <time>2020-09-12T13:03:37Z</time>
      </trkpt>
      <trkpt lat="42.8261420" lon="-0.2022210">
        <ele>1998.2</ele>
        <time>2020-09-12T13:03:39Z</time>
      </trkpt>
      <trkpt lat="42.8261600" lon="-0.2021670">
        <ele>1998.0</ele>
        <time>2020-09-12T13:03:43Z</time>
      </trkpt>
      <trkpt lat="42.8261730" lon="-0.2021300">
        <ele>1997.8</ele>
        <time>2020-09-12T13:03:46Z</time>
      </trkpt>
      <trkpt lat="42.8262150" lon="-0.2019870">
        <ele>1997.6</ele>
        <time>2020-09-12T13:03:55Z</time>
      </trkpt>
      <trkpt lat="42.8262030" lon="-0.2018600">
        <ele>1997.0</ele>
        <time>2020-09-12T13:04:02Z</time>
      </trkpt>
      <trkpt lat="42.8261380" lon="-0.2016300">
        <ele>1997.2</ele>
        <time>2020-09-12T13:04:18Z</time>
      </trkpt>
      <trkpt lat="42.8260830" lon="-0.2014800">
        <ele>1997.4</ele>
        <time>2020-09-12T13:04:28Z</time>
      </trkpt>
      <trkpt lat="42.8260700" lon="-0.2013660">
        <ele>1996.2</ele>
        <time>2020-09-12T13:04:36Z</time>
      </trkpt>
      <trkpt lat="42.8259980" lon="-0.2013130">
        <ele>1996.0</ele>
        <time>2020-09-12T13:04:43Z</time>
      </trkpt>
      <trkpt lat="42.8258770" lon="-0.2011240">
        <ele>1995.2</ele>
        <time>2020-09-12T13:04:58Z</time>
      </trkpt>
      <trkpt lat="42.8258650" lon="-0.2010920">
        <ele>1995.0</ele>
        <time>2020-09-12T13:05:00Z</time>
      </trkpt>
      <trkpt lat="42.8258630" lon="-0.2010740">
        <ele>1994.6</ele>
        <time>2020-09-12T13:05:01Z</time>
      </trkpt>
      <trkpt lat="42.8258360" lon="-0.2009810">
        <ele>1994.4</ele>
        <time>2020-09-12T13:05:09Z</time>
      </trkpt>
      <trkpt lat="42.8258250" lon="-0.2009670">
        <ele>1994.0</ele>
        <time>2020-09-12T13:05:11Z</time>
      </trkpt>
      <trkpt lat="42.8258270" lon="-0.2009320">
        <ele>1993.4</ele>
        <time>2020-09-12T13:05:13Z</time>
      </trkpt>
      <trkpt lat="42.8258320" lon="-0.2008730">
        <ele>1992.4</ele>
        <time>2020-09-12T13:05:17Z</time>
      </trkpt>
      <trkpt lat="42.8258220" lon="-0.2008560">
        <ele>1992.2</ele>
        <time>2020-09-12T13:05:19Z</time>
      </trkpt>
      <trkpt lat="42.8258050" lon="-0.2007700">
        <ele>1991.2</ele>
        <time>2020-09-12T13:05:24Z</time>
      </trkpt>
      <trkpt lat="42.8258000" lon="-0.2007110">
        <ele>1990.0</ele>
        <time>2020-09-12T13:05:28Z</time>
      </trkpt>
      <trkpt lat="42.8257980" lon="-0.2006860">
        <ele>1989.8</ele>
        <time>2020-09-12T13:05:30Z</time>
      </trkpt>
      <trkpt lat="42.8257950" lon="-0.2006490">
        <ele>1989.4</ele>
        <time>2020-09-12T13:05:33Z</time>
      </trkpt>
      <trkpt lat="42.8257850" lon="-0.2006280">
        <ele>1989.0</ele>
        <time>2020-09-12T13:05:35Z</time>
      </trkpt>
      <trkpt lat="42.8257830" lon="-0.2006220">
        <ele>1988.8</ele>
        <time>2020-09-12T13:05:36Z</time>
      </trkpt>
      <trkpt lat="42.8257810" lon="-0.2005980">
        <ele>1988.4</ele>
        <time>2020-09-12T13:05:38Z</time>
      </trkpt>
      <trkpt lat="42.8257580" lon="-0.2005250">
        <ele>1988.0</ele>
        <time>2020-09-12T13:05:43Z</time>
      </trkpt>
      <trkpt lat="42.8257480" lon="-0.2004970">
        <ele>1987.8</ele>
        <time>2020-09-12T13:05:45Z</time>
      </trkpt>
      <trkpt lat="42.8257460" lon="-0.2004430">
        <ele>1987.4</ele>
        <time>2020-09-12T13:05:49Z</time>
      </trkpt>
      <trkpt lat="42.8257130" lon="-0.2003950">
        <ele>1986.8</ele>
        <time>2020-09-12T13:05:54Z</time>
      </trkpt>
      <trkpt lat="42.8257000" lon="-0.2003900">
        <ele>1986.6</ele>
        <time>2020-09-12T13:05:57Z</time>
      </trkpt>
      <trkpt lat="42.8256740" lon="-0.2003950">
        <ele>1986.6</ele>
        <time>2020-09-12T13:06:00Z</time>
      </trkpt>
      <trkpt lat="42.8256650" lon="-0.2003960">
        <ele>1986.4</ele>
        <time>2020-09-12T13:06:02Z</time>
      </trkpt>
      <trkpt lat="42.8256110" lon="-0.2003740">
        <ele>1985.8</ele>
        <time>2020-09-12T13:06:07Z</time>
      </trkpt>
      <trkpt lat="42.8255580" lon="-0.2003560">
        <ele>1984.8</ele>
        <time>2020-09-12T13:06:12Z</time>
      </trkpt>
      <trkpt lat="42.8255490" lon="-0.2003480">
        <ele>1984.6</ele>
        <time>2020-09-12T13:06:13Z</time>
      </trkpt>
      <trkpt lat="42.8255240" lon="-0.2003320">
        <ele>1984.4</ele>
        <time>2020-09-12T13:06:16Z</time>
      </trkpt>
      <trkpt lat="42.8255130" lon="-0.2003480">
        <ele>1984.0</ele>
        <time>2020-09-12T13:06:18Z</time>
      </trkpt>
      <trkpt lat="42.8254890" lon="-0.2003460">
        <ele>1983.6</ele>
        <time>2020-09-12T13:06:20Z</time>
      </trkpt>
      <trkpt lat="42.8254540" lon="-0.2003140">
        <ele>1982.8</ele>
        <time>2020-09-12T13:06:24Z</time>
      </trkpt>
      <trkpt lat="42.8254450" lon="-0.2003070">
        <ele>1982.6</ele>
        <time>2020-09-12T13:06:25Z</time>
      </trkpt>
      <trkpt lat="42.8254330" lon="-0.2003040">
        <ele>1982.6</ele>
        <time>2020-09-12T13:06:26Z</time>
      </trkpt>
      <trkpt lat="42.8254110" lon="-0.2002950">
        <ele>1982.2</ele>
        <time>2020-09-12T13:06:28Z</time>
      </trkpt>
      <trkpt lat="42.8253870" lon="-0.2002790">
        <ele>1981.4</ele>
        <time>2020-09-12T13:06:30Z</time>
      </trkpt>
      <trkpt lat="42.8253200" lon="-0.2002230">
        <ele>1980.2</ele>
        <time>2020-09-12T13:06:37Z</time>
      </trkpt>
      <trkpt lat="42.8252790" lon="-0.2001980">
        <ele>1979.0</ele>
        <time>2020-09-12T13:06:41Z</time>
      </trkpt>
      <trkpt lat="42.8252710" lon="-0.2001950">
        <ele>1978.8</ele>
        <time>2020-09-12T13:06:42Z</time>
      </trkpt>
      <trkpt lat="42.8252390" lon="-0.2001630">
        <ele>1978.0</ele>
        <time>2020-09-12T13:06:47Z</time>
      </trkpt>
      <trkpt lat="42.8252060" lon="-0.2001010">
        <ele>1976.8</ele>
        <time>2020-09-12T13:06:53Z</time>
      </trkpt>
      <trkpt lat="42.8251970" lon="-0.2000900">
        <ele>1976.6</ele>
        <time>2020-09-12T13:06:54Z</time>
      </trkpt>
      <trkpt lat="42.8251690" lon="-0.2000100">
        <ele>1975.8</ele>
        <time>2020-09-12T13:06:59Z</time>
      </trkpt>
      <trkpt lat="42.8251460" lon="-0.1999500">
        <ele>1975.2</ele>
        <time>2020-09-12T13:07:03Z</time>
      </trkpt>
      <trkpt lat="42.8251290" lon="-0.1998970">
        <ele>1974.8</ele>
        <time>2020-09-12T13:07:06Z</time>
      </trkpt>
      <trkpt lat="42.8251270" lon="-0.1998690">
        <ele>1974.2</ele>
        <time>2020-09-12T13:07:08Z</time>
      </trkpt>
      <trkpt lat="42.8251190" lon="-0.1998600">
        <ele>1973.8</ele>
        <time>2020-09-12T13:07:10Z</time>
      </trkpt>
      <trkpt lat="42.8251170" lon="-0.1998520">
        <ele>1973.8</ele>
        <time>2020-09-12T13:07:11Z</time>
      </trkpt>
      <trkpt lat="42.8251100" lon="-0.1998250">
        <ele>1973.4</ele>
        <time>2020-09-12T13:07:13Z</time>
      </trkpt>
      <trkpt lat="42.8251030" lon="-0.1998130">
        <ele>1973.2</ele>
        <time>2020-09-12T13:07:14Z</time>
      </trkpt>
      <trkpt lat="42.8250930" lon="-0.1998040">
        <ele>1973.0</ele>
        <time>2020-09-12T13:07:15Z</time>
      </trkpt>
      <trkpt lat="42.8250630" lon="-0.1997630">
        <ele>1972.8</ele>
        <time>2020-09-12T13:07:18Z</time>
      </trkpt>
      <trkpt lat="42.8250510" lon="-0.1997370">
        <ele>1972.8</ele>
        <time>2020-09-12T13:07:20Z</time>
      </trkpt>
      <trkpt lat="42.8250430" lon="-0.1997250">
        <ele>1972.6</ele>
        <time>2020-09-12T13:07:21Z</time>
      </trkpt>
      <trkpt lat="42.8250310" lon="-0.1997190">
        <ele>1972.6</ele>
        <time>2020-09-12T13:07:22Z</time>
      </trkpt>
      <trkpt lat="42.8250130" lon="-0.1997090">
        <ele>1972.4</ele>
        <time>2020-09-12T13:07:24Z</time>
      </trkpt>
      <trkpt lat="42.8249840" lon="-0.1997260">
        <ele>1972.2</ele>
        <time>2020-09-12T13:07:27Z</time>
      </trkpt>
      <trkpt lat="42.8249620" lon="-0.1997140">
        <ele>1971.6</ele>
        <time>2020-09-12T13:07:30Z</time>
      </trkpt>
      <trkpt lat="42.8249400" lon="-0.1996580">
        <ele>1970.6</ele>
        <time>2020-09-12T13:07:36Z</time>
      </trkpt>
      <trkpt lat="42.8249370" lon="-0.1996530">
        <ele>1970.4</ele>
        <time>2020-09-12T13:07:37Z</time>
      </trkpt>
      <trkpt lat="42.8249040" lon="-0.1996190">
        <ele>1970.0</ele>
        <time>2020-09-12T13:07:41Z</time>
      </trkpt>
      <trkpt lat="42.8248880" lon="-0.1996130">
        <ele>1969.4</ele>
        <time>2020-09-12T13:07:44Z</time>
      </trkpt>
      <trkpt lat="42.8248840" lon="-0.1996120">
        <ele>1969.4</ele>
        <time>2020-09-12T13:07:45Z</time>
      </trkpt>
      <trkpt lat="42.8248340" lon="-0.1995950">
        <ele>1968.6</ele>
        <time>2020-09-12T13:07:50Z</time>
      </trkpt>
      <trkpt lat="42.8248140" lon="-0.1995800">
        <ele>1968.2</ele>
        <time>2020-09-12T13:07:52Z</time>
      </trkpt>
      <trkpt lat="42.8247720" lon="-0.1995450">
        <ele>1967.2</ele>
        <time>2020-09-12T13:07:57Z</time>
      </trkpt>
      <trkpt lat="42.8247620" lon="-0.1995340">
        <ele>1967.0</ele>
        <time>2020-09-12T13:07:58Z</time>
      </trkpt>
      <trkpt lat="42.8247540" lon="-0.1995280">
        <ele>1966.6</ele>
        <time>2020-09-12T13:07:59Z</time>
      </trkpt>
      <trkpt lat="42.8247380" lon="-0.1995170">
        <ele>1966.0</ele>
        <time>2020-09-12T13:08:01Z</time>
      </trkpt>
      <trkpt lat="42.8247290" lon="-0.1995120">
        <ele>1966.0</ele>
        <time>2020-09-12T13:08:02Z</time>
      </trkpt>
      <trkpt lat="42.8246910" lon="-0.1994800">
        <ele>1965.2</ele>
        <time>2020-09-12T13:08:06Z</time>
      </trkpt>
      <trkpt lat="42.8246710" lon="-0.1994620">
        <ele>1964.8</ele>
        <time>2020-09-12T13:08:08Z</time>
      </trkpt>
      <trkpt lat="42.8246480" lon="-0.1994400">
        <ele>1964.2</ele>
        <time>2020-09-12T13:08:11Z</time>
      </trkpt>
      <trkpt lat="42.8246200" lon="-0.1994200">
        <ele>1963.6</ele>
        <time>2020-09-12T13:08:14Z</time>
      </trkpt>
      <trkpt lat="42.8246090" lon="-0.1994150">
        <ele>1963.6</ele>
        <time>2020-09-12T13:08:15Z</time>
      </trkpt>
      <trkpt lat="42.8245940" lon="-0.1994050">
        <ele>1963.2</ele>
        <time>2020-09-12T13:08:17Z</time>
      </trkpt>
      <trkpt lat="42.8245700" lon="-0.1993880">
        <ele>1962.6</ele>
        <time>2020-09-12T13:08:20Z</time>
      </trkpt>
      <trkpt lat="42.8245570" lon="-0.1993710">
        <ele>1962.4</ele>
        <time>2020-09-12T13:08:22Z</time>
      </trkpt>
      <trkpt lat="42.8245500" lon="-0.1993560">
        <ele>1962.2</ele>
        <time>2020-09-12T13:08:24Z</time>
      </trkpt>
      <trkpt lat="42.8245010" lon="-0.1993290">
        <ele>1961.6</ele>
        <time>2020-09-12T13:08:30Z</time>
      </trkpt>
      <trkpt lat="42.8244790" lon="-0.1993350">
        <ele>1961.0</ele>
        <time>2020-09-12T13:08:32Z</time>
      </trkpt>
      <trkpt lat="42.8244540" lon="-0.1993270">
        <ele>1960.4</ele>
        <time>2020-09-12T13:08:34Z</time>
      </trkpt>
      <trkpt lat="42.8244150" lon="-0.1992860">
        <ele>1959.4</ele>
        <time>2020-09-12T13:08:38Z</time>
      </trkpt>
      <trkpt lat="42.8244110" lon="-0.1992780">
        <ele>1959.2</ele>
        <time>2020-09-12T13:08:39Z</time>
      </trkpt>
      <trkpt lat="42.8243960" lon="-0.1992540">
        <ele>1959.0</ele>
        <time>2020-09-12T13:08:41Z</time>
      </trkpt>
      <trkpt lat="42.8243610" lon="-0.1992210">
        <ele>1958.6</ele>
        <time>2020-09-12T13:08:44Z</time>
      </trkpt>
      <trkpt lat="42.8243430" lon="-0.1992130">
        <ele>1958.4</ele>
        <time>2020-09-12T13:08:46Z</time>
      </trkpt>
      <trkpt lat="42.8243310" lon="-0.1992040">
        <ele>1958.2</ele>
        <time>2020-09-12T13:08:47Z</time>
      </trkpt>
      <trkpt lat="42.8242630" lon="-0.1991470">
        <ele>1957.2</ele>
        <time>2020-09-12T13:08:52Z</time>
      </trkpt>
      <trkpt lat="42.8242500" lon="-0.1991430">
        <ele>1957.0</ele>
        <time>2020-09-12T13:08:53Z</time>
      </trkpt>
      <trkpt lat="42.8241920" lon="-0.1991060">
        <ele>1956.0</ele>
        <time>2020-09-12T13:08:58Z</time>
      </trkpt>
      <trkpt lat="42.8241440" lon="-0.1990970">
        <ele>1955.4</ele>
        <time>2020-09-12T13:09:03Z</time>
      </trkpt>
      <trkpt lat="42.8241180" lon="-0.1990900">
        <ele>1954.8</ele>
        <time>2020-09-12T13:09:06Z</time>
      </trkpt>
      <trkpt lat="42.8241110" lon="-0.1990890">
        <ele>1954.6</ele>
        <time>2020-09-12T13:09:07Z</time>
      </trkpt>
      <trkpt lat="42.8240910" lon="-0.1990860">
        <ele>1954.4</ele>
        <time>2020-09-12T13:09:09Z</time>
      </trkpt>
      <trkpt lat="42.8240770" lon="-0.1990750">
        <ele>1954.0</ele>
        <time>2020-09-12T13:09:11Z</time>
      </trkpt>
      <trkpt lat="42.8240640" lon="-0.1990690">
        <ele>1953.8</ele>
        <time>2020-09-12T13:09:13Z</time>
      </trkpt>
      <trkpt lat="42.8240540" lon="-0.1990530">
        <ele>1953.4</ele>
        <time>2020-09-12T13:09:15Z</time>
      </trkpt>
      <trkpt lat="42.8240110" lon="-0.1990710">
        <ele>1952.8</ele>
        <time>2020-09-12T13:09:20Z</time>
      </trkpt>
      <trkpt lat="42.8240050" lon="-0.1990760">
        <ele>1952.4</ele>
        <time>2020-09-12T13:09:21Z</time>
      </trkpt>
      <trkpt lat="42.8239780" lon="-0.1990750">
        <ele>1951.4</ele>
        <time>2020-09-12T13:09:24Z</time>
      </trkpt>
      <trkpt lat="42.8239700" lon="-0.1990730">
        <ele>1951.0</ele>
        <time>2020-09-12T13:09:25Z</time>
      </trkpt>
      <trkpt lat="42.8239590" lon="-0.1990750">
        <ele>1950.4</ele>
        <time>2020-09-12T13:09:27Z</time>
      </trkpt>
      <trkpt lat="42.8239540" lon="-0.1990760">
        <ele>1950.2</ele>
        <time>2020-09-12T13:09:28Z</time>
      </trkpt>
      <trkpt lat="42.8239410" lon="-0.1990750">
        <ele>1949.4</ele>
        <time>2020-09-12T13:09:30Z</time>
      </trkpt>
      <trkpt lat="42.8239310" lon="-0.1990750">
        <ele>1949.0</ele>
        <time>2020-09-12T13:09:31Z</time>
      </trkpt>
      <trkpt lat="42.8239220" lon="-0.1990730">
        <ele>1948.8</ele>
        <time>2020-09-12T13:09:32Z</time>
      </trkpt>
      <trkpt lat="42.8239030" lon="-0.1990660">
        <ele>1948.0</ele>
        <time>2020-09-12T13:09:35Z</time>
      </trkpt>
      <trkpt lat="42.8238960" lon="-0.1990620">
        <ele>1947.6</ele>
        <time>2020-09-12T13:09:36Z</time>
      </trkpt>
      <trkpt lat="42.8238890" lon="-0.1990460">
        <ele>1946.8</ele>
        <time>2020-09-12T13:09:38Z</time>
      </trkpt>
      <trkpt lat="42.8238620" lon="-0.1990470">
        <ele>1946.0</ele>
        <time>2020-09-12T13:09:41Z</time>
      </trkpt>
      <trkpt lat="42.8238500" lon="-0.1990520">
        <ele>1945.8</ele>
        <time>2020-09-12T13:09:42Z</time>
      </trkpt>
      <trkpt lat="42.8238220" lon="-0.1990570">
        <ele>1944.6</ele>
        <time>2020-09-12T13:09:45Z</time>
      </trkpt>
      <trkpt lat="42.8237880" lon="-0.1990570">
        <ele>1943.8</ele>
        <time>2020-09-12T13:09:48Z</time>
      </trkpt>
      <trkpt lat="42.8237740" lon="-0.1990620">
        <ele>1943.6</ele>
        <time>2020-09-12T13:09:49Z</time>
      </trkpt>
      <trkpt lat="42.8237460" lon="-0.1990910">
        <ele>1942.0</ele>
        <time>2020-09-12T13:09:52Z</time>
      </trkpt>
      <trkpt lat="42.8237410" lon="-0.1991030">
        <ele>1941.6</ele>
        <time>2020-09-12T13:09:53Z</time>
      </trkpt>
      <trkpt lat="42.8237430" lon="-0.1991290">
        <ele>1940.8</ele>
        <time>2020-09-12T13:09:55Z</time>
      </trkpt>
      <trkpt lat="42.8237510" lon="-0.1991400">
        <ele>1940.6</ele>
        <time>2020-09-12T13:09:56Z</time>
      </trkpt>
      <trkpt lat="42.8237860" lon="-0.1992310">
        <ele>1939.6</ele>
        <time>2020-09-12T13:10:01Z</time>
      </trkpt>
      <trkpt lat="42.8238060" lon="-0.1993050">
        <ele>1938.6</ele>
        <time>2020-09-12T13:10:06Z</time>
      </trkpt>
      <trkpt lat="42.8238470" lon="-0.1993810">
        <ele>1937.4</ele>
        <time>2020-09-12T13:10:12Z</time>
      </trkpt>
      <trkpt lat="42.8238550" lon="-0.1993930">
        <ele>1937.2</ele>
        <time>2020-09-12T13:10:13Z</time>
      </trkpt>
      <trkpt lat="42.8238940" lon="-0.1994550">
        <ele>1936.4</ele>
        <time>2020-09-12T13:10:18Z</time>
      </trkpt>
      <trkpt lat="42.8238990" lon="-0.1994980">
        <ele>1935.6</ele>
        <time>2020-09-12T13:10:21Z</time>
      </trkpt>
      <trkpt lat="42.8238950" lon="-0.1995030">
        <ele>1935.2</ele>
        <time>2020-09-12T13:10:22Z</time>
      </trkpt>
      <trkpt lat="42.8238880" lon="-0.1995030">
        <ele>1934.8</ele>
        <time>2020-09-12T13:10:23Z</time>
      </trkpt>
      <trkpt lat="42.8238770" lon="-0.1995070">
        <ele>1934.0</ele>
        <time>2020-09-12T13:10:25Z</time>
      </trkpt>
      <trkpt lat="42.8238500" lon="-0.1995120">
        <ele>1933.4</ele>
        <time>2020-09-12T13:10:29Z</time>
      </trkpt>
      <trkpt lat="42.8238300" lon="-0.1994990">
        <ele>1933.4</ele>
        <time>2020-09-12T13:10:31Z</time>
      </trkpt>
      <trkpt lat="42.8238030" lon="-0.1994870">
        <ele>1932.8</ele>
        <time>2020-09-12T13:10:33Z</time>
      </trkpt>
      <trkpt lat="42.8237590" lon="-0.1994820">
        <ele>1931.6</ele>
        <time>2020-09-12T13:10:37Z</time>
      </trkpt>
      <trkpt lat="42.8236900" lon="-0.1994290">
        <ele>1930.6</ele>
        <time>2020-09-12T13:10:42Z</time>
      </trkpt>
      <trkpt lat="42.8236070" lon="-0.1993960">
        <ele>1929.8</ele>
        <time>2020-09-12T13:10:48Z</time>
      </trkpt>
      <trkpt lat="42.8235860" lon="-0.1993830">
        <ele>1929.4</ele>
        <time>2020-09-12T13:10:50Z</time>
      </trkpt>
      <trkpt lat="42.8235400" lon="-0.1993680">
        <ele>1928.2</ele>
        <time>2020-09-12T13:10:55Z</time>
      </trkpt>
      <trkpt lat="42.8234890" lon="-0.1993760">
        <ele>1927.0</ele>
        <time>2020-09-12T13:11:00Z</time>
      </trkpt>
      <trkpt lat="42.8234690" lon="-0.1993840">
        <ele>1926.4</ele>
        <time>2020-09-12T13:11:02Z</time>
      </trkpt>
      <trkpt lat="42.8234330" lon="-0.1993720">
        <ele>1925.8</ele>
        <time>2020-09-12T13:11:05Z</time>
      </trkpt>
      <trkpt lat="42.8233890" lon="-0.1993650">
        <ele>1925.2</ele>
        <time>2020-09-12T13:11:09Z</time>
      </trkpt>
      <trkpt lat="42.8233750" lon="-0.1993520">
        <ele>1924.6</ele>
        <time>2020-09-12T13:11:11Z</time>
      </trkpt>
      <trkpt lat="42.8233100" lon="-0.1993200">
        <ele>1923.4</ele>
        <time>2020-09-12T13:11:16Z</time>
      </trkpt>
      <trkpt lat="42.8232150" lon="-0.1992880">
        <ele>1922.2</ele>
        <time>2020-09-12T13:11:23Z</time>
      </trkpt>
      <trkpt lat="42.8231640" lon="-0.1992860">
        <ele>1921.0</ele>
        <time>2020-09-12T13:11:27Z</time>
      </trkpt>
      <trkpt lat="42.8230990" lon="-0.1992730">
        <ele>1920.0</ele>
        <time>2020-09-12T13:11:32Z</time>
      </trkpt>
      <trkpt lat="42.8230510" lon="-0.1992480">
        <ele>1919.0</ele>
        <time>2020-09-12T13:11:37Z</time>
      </trkpt>
      <trkpt lat="42.8230480" lon="-0.1992350">
        <ele>1918.8</ele>
        <time>2020-09-12T13:11:38Z</time>
      </trkpt>
      <trkpt lat="42.8230450" lon="-0.1992240">
        <ele>1918.8</ele>
        <time>2020-09-12T13:11:39Z</time>
      </trkpt>
      <trkpt lat="42.8230190" lon="-0.1991920">
        <ele>1918.0</ele>
        <time>2020-09-12T13:11:43Z</time>
      </trkpt>
      <trkpt lat="42.8230120" lon="-0.1991910">
        <ele>1917.8</ele>
        <time>2020-09-12T13:11:44Z</time>
      </trkpt>
      <trkpt lat="42.8229810" lon="-0.1991630">
        <ele>1917.2</ele>
        <time>2020-09-12T13:11:53Z</time>
      </trkpt>
      <trkpt lat="42.8229830" lon="-0.1991410">
        <ele>1916.8</ele>
        <time>2020-09-12T13:11:55Z</time>
      </trkpt>
      <trkpt lat="42.8229880" lon="-0.1991270">
        <ele>1916.6</ele>
        <time>2020-09-12T13:11:56Z</time>
      </trkpt>
      <trkpt lat="42.8229910" lon="-0.1991070">
        <ele>1916.4</ele>
        <time>2020-09-12T13:11:57Z</time>
      </trkpt>
      <trkpt lat="42.8229840" lon="-0.1990470">
        <ele>1915.6</ele>
        <time>2020-09-12T13:12:01Z</time>
      </trkpt>
      <trkpt lat="42.8229800" lon="-0.1990390">
        <ele>1915.4</ele>
        <time>2020-09-12T13:12:02Z</time>
      </trkpt>
      <trkpt lat="42.8229710" lon="-0.1989810">
        <ele>1914.2</ele>
        <time>2020-09-12T13:12:08Z</time>
      </trkpt>
      <trkpt lat="42.8229550" lon="-0.1989340">
        <ele>1913.6</ele>
        <time>2020-09-12T13:12:12Z</time>
      </trkpt>
      <trkpt lat="42.8229480" lon="-0.1989110">
        <ele>1913.2</ele>
        <time>2020-09-12T13:12:14Z</time>
      </trkpt>
      <trkpt lat="42.8229070" lon="-0.1988270">
        <ele>1912.0</ele>
        <time>2020-09-12T13:12:21Z</time>
      </trkpt>
      <trkpt lat="42.8228360" lon="-0.1987730">
        <ele>1910.8</ele>
        <time>2020-09-12T13:12:28Z</time>
      </trkpt>
      <trkpt lat="42.8228120" lon="-0.1987560">
        <ele>1910.2</ele>
        <time>2020-09-12T13:12:30Z</time>
      </trkpt>
      <trkpt lat="42.8227980" lon="-0.1987360">
        <ele>1909.8</ele>
        <time>2020-09-12T13:12:32Z</time>
      </trkpt>
      <trkpt lat="42.8227500" lon="-0.1986980">
        <ele>1908.8</ele>
        <time>2020-09-12T13:12:37Z</time>
      </trkpt>
      <trkpt lat="42.8227430" lon="-0.1986860">
        <ele>1908.8</ele>
        <time>2020-09-12T13:12:38Z</time>
      </trkpt>
      <trkpt lat="42.8227120" lon="-0.1986180">
        <ele>1908.2</ele>
        <time>2020-09-12T13:12:43Z</time>
      </trkpt>
      <trkpt lat="42.8226580" lon="-0.1985840">
        <ele>1907.6</ele>
        <time>2020-09-12T13:12:48Z</time>
      </trkpt>
      <trkpt lat="42.8226090" lon="-0.1985560">
        <ele>1906.6</ele>
        <time>2020-09-12T13:12:52Z</time>
      </trkpt>
      <trkpt lat="42.8226000" lon="-0.1985400">
        <ele>1906.4</ele>
        <time>2020-09-12T13:12:53Z</time>
      </trkpt>
      <trkpt lat="42.8225770" lon="-0.1984380">
        <ele>1905.4</ele>
        <time>2020-09-12T13:13:00Z</time>
      </trkpt>
      <trkpt lat="42.8225670" lon="-0.1983850">
        <ele>1904.6</ele>
        <time>2020-09-12T13:13:04Z</time>
      </trkpt>
      <trkpt lat="42.8225660" lon="-0.1983710">
        <ele>1904.4</ele>
        <time>2020-09-12T13:13:05Z</time>
      </trkpt>
      <trkpt lat="42.8225610" lon="-0.1983480">
        <ele>1903.6</ele>
        <time>2020-09-12T13:13:08Z</time>
      </trkpt>
      <trkpt lat="42.8225590" lon="-0.1983410">
        <ele>1903.2</ele>
        <time>2020-09-12T13:13:09Z</time>
      </trkpt>
      <trkpt lat="42.8225400" lon="-0.1982690">
        <ele>1902.2</ele>
        <time>2020-09-12T13:13:16Z</time>
      </trkpt>
      <trkpt lat="42.8225370" lon="-0.1982550">
        <ele>1902.0</ele>
        <time>2020-09-12T13:13:17Z</time>
      </trkpt>
      <trkpt lat="42.8225090" lon="-0.1981790">
        <ele>1901.0</ele>
        <time>2020-09-12T13:13:24Z</time>
      </trkpt>
      <trkpt lat="42.8225010" lon="-0.1981710">
        <ele>1901.0</ele>
        <time>2020-09-12T13:13:25Z</time>
      </trkpt>
      <trkpt lat="42.8224810" lon="-0.1981620">
        <ele>1900.6</ele>
        <time>2020-09-12T13:13:27Z</time>
      </trkpt>
      <trkpt lat="42.8224640" lon="-0.1981300">
        <ele>1899.6</ele>
        <time>2020-09-12T13:13:30Z</time>
      </trkpt>
      <trkpt lat="42.8224460" lon="-0.1980600">
        <ele>1898.4</ele>
        <time>2020-09-12T13:13:34Z</time>
      </trkpt>
      <trkpt lat="42.8224110" lon="-0.1980060">
        <ele>1897.4</ele>
        <time>2020-09-12T13:13:38Z</time>
      </trkpt>
      <trkpt lat="42.8223790" lon="-0.1979550">
        <ele>1896.4</ele>
        <time>2020-09-12T13:13:42Z</time>
      </trkpt>
      <trkpt lat="42.8223470" lon="-0.1978800">
        <ele>1895.2</ele>
        <time>2020-09-12T13:13:48Z</time>
      </trkpt>
      <trkpt lat="42.8223450" lon="-0.1978720">
        <ele>1895.2</ele>
        <time>2020-09-12T13:13:49Z</time>
      </trkpt>
      <trkpt lat="42.8223340" lon="-0.1978450">
        <ele>1895.0</ele>
        <time>2020-09-12T13:13:51Z</time>
      </trkpt>
      <trkpt lat="42.8223210" lon="-0.1978090">
        <ele>1894.8</ele>
        <time>2020-09-12T13:13:53Z</time>
      </trkpt>
      <trkpt lat="42.8222780" lon="-0.1977090">
        <ele>1894.2</ele>
        <time>2020-09-12T13:14:02Z</time>
      </trkpt>
      <trkpt lat="42.8222700" lon="-0.1976760">
        <ele>1893.8</ele>
        <time>2020-09-12T13:14:06Z</time>
      </trkpt>
      <trkpt lat="42.8222630" lon="-0.1976590">
        <ele>1893.4</ele>
        <time>2020-09-12T13:14:08Z</time>
      </trkpt>
      <trkpt lat="42.8222580" lon="-0.1976240">
        <ele>1893.2</ele>
        <time>2020-09-12T13:14:10Z</time>
      </trkpt>
      <trkpt lat="42.8222550" lon="-0.1976140">
        <ele>1893.0</ele>
        <time>2020-09-12T13:14:11Z</time>
      </trkpt>
      <trkpt lat="42.8222320" lon="-0.1975750">
        <ele>1892.2</ele>
        <time>2020-09-12T13:14:15Z</time>
      </trkpt>
      <trkpt lat="42.8222280" lon="-0.1975620">
        <ele>1891.8</ele>
        <time>2020-09-12T13:14:16Z</time>
      </trkpt>
      <trkpt lat="42.8222180" lon="-0.1975380">
        <ele>1891.0</ele>
        <time>2020-09-12T13:14:18Z</time>
      </trkpt>
      <trkpt lat="42.8221980" lon="-0.1974980">
        <ele>1889.8</ele>
        <time>2020-09-12T13:14:21Z</time>
      </trkpt>
      <trkpt lat="42.8221600" lon="-0.1974750">
        <ele>1889.0</ele>
        <time>2020-09-12T13:14:24Z</time>
      </trkpt>
      <trkpt lat="42.8221520" lon="-0.1974750">
        <ele>1888.8</ele>
        <time>2020-09-12T13:14:25Z</time>
      </trkpt>
      <trkpt lat="42.8221260" lon="-0.1974770">
        <ele>1888.2</ele>
        <time>2020-09-12T13:14:28Z</time>
      </trkpt>
      <trkpt lat="42.8221080" lon="-0.1974610">
        <ele>1887.6</ele>
        <time>2020-09-12T13:14:31Z</time>
      </trkpt>
      <trkpt lat="42.8220830" lon="-0.1974130">
        <ele>1886.4</ele>
        <time>2020-09-12T13:14:34Z</time>
      </trkpt>
      <trkpt lat="42.8220440" lon="-0.1973250">
        <ele>1885.6</ele>
        <time>2020-09-12T13:14:39Z</time>
      </trkpt>
      <trkpt lat="42.8220450" lon="-0.1972940">
        <ele>1885.4</ele>
        <time>2020-09-12T13:14:41Z</time>
      </trkpt>
      <trkpt lat="42.8220420" lon="-0.1972800">
        <ele>1885.4</ele>
        <time>2020-09-12T13:14:42Z</time>
      </trkpt>
      <trkpt lat="42.8220200" lon="-0.1972420">
        <ele>1885.2</ele>
        <time>2020-09-12T13:14:45Z</time>
      </trkpt>
      <trkpt lat="42.8219680" lon="-0.1972010">
        <ele>1884.6</ele>
        <time>2020-09-12T13:14:51Z</time>
      </trkpt>
      <trkpt lat="42.8218660" lon="-0.1971510">
        <ele>1884.4</ele>
        <time>2020-09-12T13:15:11Z</time>
      </trkpt>
      <trkpt lat="42.8218510" lon="-0.1971340">
        <ele>1884.0</ele>
        <time>2020-09-12T13:15:14Z</time>
      </trkpt>
      <trkpt lat="42.8218370" lon="-0.1971130">
        <ele>1883.6</ele>
        <time>2020-09-12T13:15:16Z</time>
      </trkpt>
      <trkpt lat="42.8218350" lon="-0.1971010">
        <ele>1883.2</ele>
        <time>2020-09-12T13:15:17Z</time>
      </trkpt>
      <trkpt lat="42.8218230" lon="-0.1970430">
        <ele>1882.4</ele>
        <time>2020-09-12T13:15:20Z</time>
      </trkpt>
      <trkpt lat="42.8218100" lon="-0.1970200">
        <ele>1882.0</ele>
        <time>2020-09-12T13:15:22Z</time>
      </trkpt>
      <trkpt lat="42.8218050" lon="-0.1970090">
        <ele>1881.8</ele>
        <time>2020-09-12T13:15:23Z</time>
      </trkpt>
      <trkpt lat="42.8217730" lon="-0.1969370">
        <ele>1881.0</ele>
        <time>2020-09-12T13:15:29Z</time>
      </trkpt>
      <trkpt lat="42.8217510" lon="-0.1968830">
        <ele>1879.8</ele>
        <time>2020-09-12T13:15:34Z</time>
      </trkpt>
      <trkpt lat="42.8217260" lon="-0.1968480">
        <ele>1878.8</ele>
        <time>2020-09-12T13:15:38Z</time>
      </trkpt>
      <trkpt lat="42.8217020" lon="-0.1967460">
        <ele>1877.6</ele>
        <time>2020-09-12T13:15:46Z</time>
      </trkpt>
      <trkpt lat="42.8216960" lon="-0.1966770">
        <ele>1876.6</ele>
        <time>2020-09-12T13:15:50Z</time>
      </trkpt>
      <trkpt lat="42.8216760" lon="-0.1965970">
        <ele>1875.4</ele>
        <time>2020-09-12T13:15:56Z</time>
      </trkpt>
      <trkpt lat="42.8216810" lon="-0.1965440">
        <ele>1874.8</ele>
        <time>2020-09-12T13:16:00Z</time>
      </trkpt>
      <trkpt lat="42.8216690" lon="-0.1964860">
        <ele>1874.2</ele>
        <time>2020-09-12T13:16:04Z</time>
      </trkpt>
      <trkpt lat="42.8216470" lon="-0.1964630">
        <ele>1873.8</ele>
        <time>2020-09-12T13:16:06Z</time>
      </trkpt>
      <trkpt lat="42.8216360" lon="-0.1964500">
        <ele>1873.6</ele>
        <time>2020-09-12T13:16:08Z</time>
      </trkpt>
      <trkpt lat="42.8216150" lon="-0.1963990">
        <ele>1873.0</ele>
        <time>2020-09-12T13:16:12Z</time>
      </trkpt>
      <trkpt lat="42.8215830" lon="-0.1963700">
        <ele>1872.4</ele>
        <time>2020-09-12T13:16:16Z</time>
      </trkpt>
      <trkpt lat="42.8215770" lon="-0.1963570">
        <ele>1872.0</ele>
        <time>2020-09-12T13:16:17Z</time>
      </trkpt>
      <trkpt lat="42.8215530" lon="-0.1963230">
        <ele>1871.4</ele>
        <time>2020-09-12T13:16:20Z</time>
      </trkpt>
      <trkpt lat="42.8215390" lon="-0.1962990">
        <ele>1871.0</ele>
        <time>2020-09-12T13:16:22Z</time>
      </trkpt>
      <trkpt lat="42.8215170" lon="-0.1962700">
        <ele>1870.6</ele>
        <time>2020-09-12T13:16:25Z</time>
      </trkpt>
      <trkpt lat="42.8214710" lon="-0.1962680">
        <ele>1870.2</ele>
        <time>2020-09-12T13:16:29Z</time>
      </trkpt>
      <trkpt lat="42.8214650" lon="-0.1962820">
        <ele>1870.0</ele>
        <time>2020-09-12T13:16:30Z</time>
      </trkpt>
      <trkpt lat="42.8214330" lon="-0.1963440">
        <ele>1868.8</ele>
        <time>2020-09-12T13:16:36Z</time>
      </trkpt>
      <trkpt lat="42.8213890" lon="-0.1964220">
        <ele>1867.6</ele>
        <time>2020-09-12T13:16:42Z</time>
      </trkpt>
      <trkpt lat="42.8213880" lon="-0.1964350">
        <ele>1866.8</ele>
        <time>2020-09-12T13:16:44Z</time>
      </trkpt>
      <trkpt lat="42.8213870" lon="-0.1964330">
        <ele>1866.4</ele>
        <time>2020-09-12T13:16:45Z</time>
      </trkpt>
      <trkpt lat="42.8213530" lon="-0.1964570">
        <ele>1865.6</ele>
        <time>2020-09-12T13:16:50Z</time>
      </trkpt>
      <trkpt lat="42.8213330" lon="-0.1964760">
        <ele>1865.2</ele>
        <time>2020-09-12T13:16:52Z</time>
      </trkpt>
      <trkpt lat="42.8213120" lon="-0.1965110">
        <ele>1863.8</ele>
        <time>2020-09-12T13:16:55Z</time>
      </trkpt>
      <trkpt lat="42.8212970" lon="-0.1965430">
        <ele>1862.4</ele>
        <time>2020-09-12T13:16:58Z</time>
      </trkpt>
      <trkpt lat="42.8212900" lon="-0.1965480">
        <ele>1862.0</ele>
        <time>2020-09-12T13:16:59Z</time>
      </trkpt>
      <trkpt lat="42.8212720" lon="-0.1965590">
        <ele>1861.2</ele>
        <time>2020-09-12T13:17:01Z</time>
      </trkpt>
      <trkpt lat="42.8212560" lon="-0.1965620">
        <ele>1860.8</ele>
        <time>2020-09-12T13:17:03Z</time>
      </trkpt>
      <trkpt lat="42.8212440" lon="-0.1965520">
        <ele>1860.0</ele>
        <time>2020-09-12T13:17:05Z</time>
      </trkpt>
      <trkpt lat="42.8212350" lon="-0.1965430">
        <ele>1859.6</ele>
        <time>2020-09-12T13:17:07Z</time>
      </trkpt>
      <trkpt lat="42.8212150" lon="-0.1965370">
        <ele>1858.8</ele>
        <time>2020-09-12T13:17:10Z</time>
      </trkpt>
      <trkpt lat="42.8211900" lon="-0.1965540">
        <ele>1857.8</ele>
        <time>2020-09-12T13:17:13Z</time>
      </trkpt>
      <trkpt lat="42.8211540" lon="-0.1965460">
        <ele>1856.4</ele>
        <time>2020-09-12T13:17:17Z</time>
      </trkpt>
      <trkpt lat="42.8211380" lon="-0.1965080">
        <ele>1855.4</ele>
        <time>2020-09-12T13:17:21Z</time>
      </trkpt>
      <trkpt lat="42.8211280" lon="-0.1964950">
        <ele>1854.8</ele>
        <time>2020-09-12T13:17:23Z</time>
      </trkpt>
      <trkpt lat="42.8211210" lon="-0.1964860">
        <ele>1854.2</ele>
        <time>2020-09-12T13:17:25Z</time>
      </trkpt>
      <trkpt lat="42.8210950" lon="-0.1964600">
        <ele>1853.2</ele>
        <time>2020-09-12T13:17:29Z</time>
      </trkpt>
      <trkpt lat="42.8210790" lon="-0.1964310">
        <ele>1852.2</ele>
        <time>2020-09-12T13:17:32Z</time>
      </trkpt>
      <trkpt lat="42.8210530" lon="-0.1964130">
        <ele>1851.2</ele>
        <time>2020-09-12T13:17:36Z</time>
      </trkpt>
      <trkpt lat="42.8210140" lon="-0.1963830">
        <ele>1849.8</ele>
        <time>2020-09-12T13:17:40Z</time>
      </trkpt>
      <trkpt lat="42.8209600" lon="-0.1963240">
        <ele>1848.8</ele>
        <time>2020-09-12T13:17:45Z</time>
      </trkpt>
      <trkpt lat="42.8209490" lon="-0.1962930">
        <ele>1848.4</ele>
        <time>2020-09-12T13:17:47Z</time>
      </trkpt>
      <trkpt lat="42.8209510" lon="-0.1962680">
        <ele>1848.4</ele>
        <time>2020-09-12T13:17:49Z</time>
      </trkpt>
      <trkpt lat="42.8209540" lon="-0.1962500">
        <ele>1848.2</ele>
        <time>2020-09-12T13:17:52Z</time>
      </trkpt>
      <trkpt lat="42.8209280" lon="-0.1962190">
        <ele>1847.6</ele>
        <time>2020-09-12T13:17:56Z</time>
      </trkpt>
      <trkpt lat="42.8209200" lon="-0.1961950">
        <ele>1847.2</ele>
        <time>2020-09-12T13:17:58Z</time>
      </trkpt>
      <trkpt lat="42.8209150" lon="-0.1961710">
        <ele>1846.6</ele>
        <time>2020-09-12T13:18:00Z</time>
      </trkpt>
      <trkpt lat="42.8209150" lon="-0.1961450">
        <ele>1846.0</ele>
        <time>2020-09-12T13:18:02Z</time>
      </trkpt>
      <trkpt lat="42.8209180" lon="-0.1961110">
        <ele>1845.8</ele>
        <time>2020-09-12T13:18:04Z</time>
      </trkpt>
      <trkpt lat="42.8209130" lon="-0.1960980">
        <ele>1845.6</ele>
        <time>2020-09-12T13:18:05Z</time>
      </trkpt>
      <trkpt lat="42.8209030" lon="-0.1960900">
        <ele>1845.4</ele>
        <time>2020-09-12T13:18:06Z</time>
      </trkpt>
      <trkpt lat="42.8208870" lon="-0.1960450">
        <ele>1844.4</ele>
        <time>2020-09-12T13:18:10Z</time>
      </trkpt>
      <trkpt lat="42.8208970" lon="-0.1959830">
        <ele>1843.4</ele>
        <time>2020-09-12T13:18:14Z</time>
      </trkpt>
      <trkpt lat="42.8208540" lon="-0.1959540">
        <ele>1842.6</ele>
        <time>2020-09-12T13:18:18Z</time>
      </trkpt>
      <trkpt lat="42.8208410" lon="-0.1959560">
        <ele>1842.2</ele>
        <time>2020-09-12T13:18:19Z</time>
      </trkpt>
      <trkpt lat="42.8208030" lon="-0.1959520">
        <ele>1840.8</ele>
        <time>2020-09-12T13:18:22Z</time>
      </trkpt>
      <trkpt lat="42.8207960" lon="-0.1959460">
        <ele>1840.4</ele>
        <time>2020-09-12T13:18:23Z</time>
      </trkpt>
      <trkpt lat="42.8207710" lon="-0.1959000">
        <ele>1839.6</ele>
        <time>2020-09-12T13:18:26Z</time>
      </trkpt>
      <trkpt lat="42.8207500" lon="-0.1958480">
        <ele>1838.6</ele>
        <time>2020-09-12T13:18:30Z</time>
      </trkpt>
      <trkpt lat="42.8207430" lon="-0.1958410">
        <ele>1838.4</ele>
        <time>2020-09-12T13:18:31Z</time>
      </trkpt>
      <trkpt lat="42.8207310" lon="-0.1958290">
        <ele>1837.6</ele>
        <time>2020-09-12T13:18:33Z</time>
      </trkpt>
      <trkpt lat="42.8207230" lon="-0.1958210">
        <ele>1837.4</ele>
        <time>2020-09-12T13:18:34Z</time>
      </trkpt>
      <trkpt lat="42.8206750" lon="-0.1958070">
        <ele>1836.2</ele>
        <time>2020-09-12T13:18:38Z</time>
      </trkpt>
      <trkpt lat="42.8206270" lon="-0.1957730">
        <ele>1835.0</ele>
        <time>2020-09-12T13:18:42Z</time>
      </trkpt>
      <trkpt lat="42.8205980" lon="-0.1957090">
        <ele>1833.8</ele>
        <time>2020-09-12T13:18:46Z</time>
      </trkpt>
      <trkpt lat="42.8205150" lon="-0.1956350">
        <ele>1832.6</ele>
        <time>2020-09-12T13:18:54Z</time>
      </trkpt>
      <trkpt lat="42.8204700" lon="-0.1956260">
        <ele>1831.6</ele>
        <time>2020-09-12T13:18:57Z</time>
      </trkpt>
      <trkpt lat="42.8204140" lon="-0.1955950">
        <ele>1830.6</ele>
        <time>2020-09-12T13:19:02Z</time>
      </trkpt>
      <trkpt lat="42.8204020" lon="-0.1955700">
        <ele>1830.4</ele>
        <time>2020-09-12T13:19:04Z</time>
      </trkpt>
      <trkpt lat="42.8203910" lon="-0.1955360">
        <ele>1830.4</ele>
        <time>2020-09-12T13:19:06Z</time>
      </trkpt>
      <trkpt lat="42.8203710" lon="-0.1954580">
        <ele>1830.2</ele>
        <time>2020-09-12T13:19:12Z</time>
      </trkpt>
      <trkpt lat="42.8203240" lon="-0.1954130">
        <ele>1829.6</ele>
        <time>2020-09-12T13:19:17Z</time>
      </trkpt>
      <trkpt lat="42.8202680" lon="-0.1953610">
        <ele>1829.2</ele>
        <time>2020-09-12T13:19:24Z</time>
      </trkpt>
      <trkpt lat="42.8202470" lon="-0.1953230">
        <ele>1828.2</ele>
        <time>2020-09-12T13:19:27Z</time>
      </trkpt>
      <trkpt lat="42.8202120" lon="-0.1952730">
        <ele>1827.0</ele>
        <time>2020-09-12T13:19:32Z</time>
      </trkpt>
      <trkpt lat="42.8201410" lon="-0.1951720">
        <ele>1827.2</ele>
        <time>2020-09-12T13:19:43Z</time>
      </trkpt>
      <trkpt lat="42.8201210" lon="-0.1951630">
        <ele>1826.6</ele>
        <time>2020-09-12T13:19:46Z</time>
      </trkpt>
      <trkpt lat="42.8200750" lon="-0.1951410">
        <ele>1826.0</ele>
        <time>2020-09-12T13:19:50Z</time>
      </trkpt>
      <trkpt lat="42.8200620" lon="-0.1951400">
        <ele>1825.8</ele>
        <time>2020-09-12T13:19:51Z</time>
      </trkpt>
      <trkpt lat="42.8199690" lon="-0.1951120">
        <ele>1825.0</ele>
        <time>2020-09-12T13:19:59Z</time>
      </trkpt>
      <trkpt lat="42.8199630" lon="-0.1951010">
        <ele>1824.8</ele>
        <time>2020-09-12T13:20:00Z</time>
      </trkpt>
      <trkpt lat="42.8198820" lon="-0.1949160">
        <ele>1824.2</ele>
        <time>2020-09-12T13:20:15Z</time>
      </trkpt>
      <trkpt lat="42.8198860" lon="-0.1948920">
        <ele>1823.8</ele>
        <time>2020-09-12T13:20:17Z</time>
      </trkpt>
      <trkpt lat="42.8198700" lon="-0.1948280">
        <ele>1823.4</ele>
        <time>2020-09-12T13:20:21Z</time>
      </trkpt>
      <trkpt lat="42.8198740" lon="-0.1947910">
        <ele>1823.0</ele>
        <time>2020-09-12T13:20:23Z</time>
      </trkpt>
      <trkpt lat="42.8198770" lon="-0.1947590">
        <ele>1822.6</ele>
        <time>2020-09-12T13:20:25Z</time>
      </trkpt>
      <trkpt lat="42.8198870" lon="-0.1946880">
        <ele>1822.2</ele>
        <time>2020-09-12T13:20:32Z</time>
      </trkpt>
      <trkpt lat="42.8199090" lon="-0.1946510">
        <ele>1821.6</ele>
        <time>2020-09-12T13:20:56Z</time>
      </trkpt>
      <trkpt lat="42.8199060" lon="-0.1947040">
        <ele>1821.4</ele>
        <time>2020-09-12T13:22:23Z</time>
      </trkpt>
      <trkpt lat="42.8198570" lon="-0.1945600">
        <ele>1820.2</ele>
        <time>2020-09-12T13:23:04Z</time>
      </trkpt>
      <trkpt lat="42.8197720" lon="-0.1944400">
        <ele>1819.0</ele>
        <time>2020-09-12T13:23:14Z</time>
      </trkpt>
      <trkpt lat="42.8196930" lon="-0.1943230">
        <ele>1818.0</ele>
        <time>2020-09-12T13:23:23Z</time>
      </trkpt>
      <trkpt lat="42.8196640" lon="-0.1942200">
        <ele>1817.0</ele>
        <time>2020-09-12T13:23:29Z</time>
      </trkpt>
      <trkpt lat="42.8196490" lon="-0.1941830">
        <ele>1816.6</ele>
        <time>2020-09-12T13:23:32Z</time>
      </trkpt>
      <trkpt lat="42.8196300" lon="-0.1941520">
        <ele>1816.2</ele>
        <time>2020-09-12T13:23:35Z</time>
      </trkpt>
      <trkpt lat="42.8196200" lon="-0.1941240">
        <ele>1815.8</ele>
        <time>2020-09-12T13:23:37Z</time>
      </trkpt>
      <trkpt lat="42.8196200" lon="-0.1941090">
        <ele>1815.8</ele>
        <time>2020-09-12T13:23:38Z</time>
      </trkpt>
      <trkpt lat="42.8196160" lon="-0.1940820">
        <ele>1815.2</ele>
        <time>2020-09-12T13:23:40Z</time>
      </trkpt>
      <trkpt lat="42.8196000" lon="-0.1940620">
        <ele>1815.0</ele>
        <time>2020-09-12T13:23:42Z</time>
      </trkpt>
      <trkpt lat="42.8195860" lon="-0.1940150">
        <ele>1814.6</ele>
        <time>2020-09-12T13:23:45Z</time>
      </trkpt>
      <trkpt lat="42.8196220" lon="-0.1938960">
        <ele>1813.6</ele>
        <time>2020-09-12T13:23:54Z</time>
      </trkpt>
      <trkpt lat="42.8196360" lon="-0.1938480">
        <ele>1813.4</ele>
        <time>2020-09-12T13:23:58Z</time>
      </trkpt>
      <trkpt lat="42.8196010" lon="-0.1937370">
        <ele>1812.4</ele>
        <time>2020-09-12T13:24:06Z</time>
      </trkpt>
      <trkpt lat="42.8195460" lon="-0.1935720">
        <ele>1811.6</ele>
        <time>2020-09-12T13:24:16Z</time>
      </trkpt>
      <trkpt lat="42.8194580" lon="-0.1935080">
        <ele>1812.2</ele>
        <time>2020-09-12T13:24:26Z</time>
      </trkpt>
      <trkpt lat="42.8194150" lon="-0.1935460">
        <ele>1813.2</ele>
        <time>2020-09-12T13:24:31Z</time>
      </trkpt>
      <trkpt lat="42.8194000" lon="-0.1935520">
        <ele>1813.6</ele>
        <time>2020-09-12T13:24:33Z</time>
      </trkpt>
      <trkpt lat="42.8193520" lon="-0.1935790">
        <ele>1813.8</ele>
        <time>2020-09-12T13:24:38Z</time>
      </trkpt>
      <trkpt lat="42.8193330" lon="-0.1935670">
        <ele>1813.8</ele>
        <time>2020-09-12T13:24:40Z</time>
      </trkpt>
      <trkpt lat="42.8193180" lon="-0.1935380">
        <ele>1813.6</ele>
        <time>2020-09-12T13:24:42Z</time>
      </trkpt>
      <trkpt lat="42.8193550" lon="-0.1934300">
        <ele>1813.8</ele>
        <time>2020-09-12T13:24:51Z</time>
      </trkpt>
      <trkpt lat="42.8193610" lon="-0.1933080">
        <ele>1812.4</ele>
        <time>2020-09-12T13:24:59Z</time>
      </trkpt>
      <trkpt lat="42.8193540" lon="-0.1932800">
        <ele>1811.6</ele>
        <time>2020-09-12T13:25:01Z</time>
      </trkpt>
      <trkpt lat="42.8193300" lon="-0.1932610">
        <ele>1811.2</ele>
        <time>2020-09-12T13:25:03Z</time>
      </trkpt>
      <trkpt lat="42.8193040" lon="-0.1932570">
        <ele>1810.8</ele>
        <time>2020-09-12T13:25:05Z</time>
      </trkpt>
      <trkpt lat="42.8192400" lon="-0.1932740">
        <ele>1810.0</ele>
        <time>2020-09-12T13:25:10Z</time>
      </trkpt>
      <trkpt lat="42.8191850" lon="-0.1933040">
        <ele>1808.8</ele>
        <time>2020-09-12T13:25:17Z</time>
      </trkpt>
      <trkpt lat="42.8191430" lon="-0.1932510">
        <ele>1808.6</ele>
        <time>2020-09-12T13:25:22Z</time>
      </trkpt>
      <trkpt lat="42.8191070" lon="-0.1931590">
        <ele>1808.2</ele>
        <time>2020-09-12T13:25:28Z</time>
      </trkpt>
      <trkpt lat="42.8191190" lon="-0.1931260">
        <ele>1807.8</ele>
        <time>2020-09-12T13:25:31Z</time>
      </trkpt>
      <trkpt lat="42.8191200" lon="-0.1931130">
        <ele>1807.6</ele>
        <time>2020-09-12T13:25:32Z</time>
      </trkpt>
      <trkpt lat="42.8191230" lon="-0.1930520">
        <ele>1807.0</ele>
        <time>2020-09-12T13:25:36Z</time>
      </trkpt>
      <trkpt lat="42.8191260" lon="-0.1930330">
        <ele>1806.6</ele>
        <time>2020-09-12T13:25:38Z</time>
      </trkpt>
      <trkpt lat="42.8191270" lon="-0.1929970">
        <ele>1805.8</ele>
        <time>2020-09-12T13:25:41Z</time>
      </trkpt>
      <trkpt lat="42.8191360" lon="-0.1929820">
        <ele>1805.4</ele>
        <time>2020-09-12T13:25:43Z</time>
      </trkpt>
      <trkpt lat="42.8191450" lon="-0.1929840">
        <ele>1805.0</ele>
        <time>2020-09-12T13:25:45Z</time>
      </trkpt>
      <trkpt lat="42.8191580" lon="-0.1929630">
        <ele>1804.8</ele>
        <time>2020-09-12T13:25:48Z</time>
      </trkpt>
      <trkpt lat="42.8191710" lon="-0.1929460">
        <ele>1804.8</ele>
        <time>2020-09-12T13:25:50Z</time>
      </trkpt>
      <trkpt lat="42.8191790" lon="-0.1929260">
        <ele>1804.6</ele>
        <time>2020-09-12T13:25:52Z</time>
      </trkpt>
      <trkpt lat="42.8191820" lon="-0.1928970">
        <ele>1804.4</ele>
        <time>2020-09-12T13:25:54Z</time>
      </trkpt>
      <trkpt lat="42.8191780" lon="-0.1928650">
        <ele>1804.2</ele>
        <time>2020-09-12T13:25:56Z</time>
      </trkpt>
      <trkpt lat="42.8191820" lon="-0.1928420">
        <ele>1804.0</ele>
        <time>2020-09-12T13:25:58Z</time>
      </trkpt>
      <trkpt lat="42.8191840" lon="-0.1928160">
        <ele>1803.6</ele>
        <time>2020-09-12T13:26:00Z</time>
      </trkpt>
      <trkpt lat="42.8191950" lon="-0.1927850">
        <ele>1803.2</ele>
        <time>2020-09-12T13:26:03Z</time>
      </trkpt>
      <trkpt lat="42.8191990" lon="-0.1927700">
        <ele>1803.2</ele>
        <time>2020-09-12T13:26:04Z</time>
      </trkpt>
      <trkpt lat="42.8192170" lon="-0.1927170">
        <ele>1803.0</ele>
        <time>2020-09-12T13:26:07Z</time>
      </trkpt>
      <trkpt lat="42.8192570" lon="-0.1926300">
        <ele>1802.2</ele>
        <time>2020-09-12T13:26:13Z</time>
      </trkpt>
      <trkpt lat="42.8192750" lon="-0.1925080">
        <ele>1801.4</ele>
        <time>2020-09-12T13:26:20Z</time>
      </trkpt>
      <trkpt lat="42.8192660" lon="-0.1924800">
        <ele>1801.2</ele>
        <time>2020-09-12T13:26:22Z</time>
      </trkpt>
      <trkpt lat="42.8192800" lon="-0.1924520">
        <ele>1801.2</ele>
        <time>2020-09-12T13:26:24Z</time>
      </trkpt>
      <trkpt lat="42.8192790" lon="-0.1924090">
        <ele>1801.0</ele>
        <time>2020-09-12T13:26:27Z</time>
      </trkpt>
      <trkpt lat="42.8192910" lon="-0.1923660">
        <ele>1801.0</ele>
        <time>2020-09-12T13:26:31Z</time>
      </trkpt>
      <trkpt lat="42.8192600" lon="-0.1923010">
        <ele>1800.6</ele>
        <time>2020-09-12T13:26:35Z</time>
      </trkpt>
      <trkpt lat="42.8192580" lon="-0.1922580">
        <ele>1800.0</ele>
        <time>2020-09-12T13:26:37Z</time>
      </trkpt>
      <trkpt lat="42.8192550" lon="-0.1921830">
        <ele>1799.4</ele>
        <time>2020-09-12T13:26:41Z</time>
      </trkpt>
      <trkpt lat="42.8192570" lon="-0.1921040">
        <ele>1799.6</ele>
        <time>2020-09-12T13:26:47Z</time>
      </trkpt>
      <trkpt lat="42.8192410" lon="-0.1920660">
        <ele>1799.6</ele>
        <time>2020-09-12T13:26:50Z</time>
      </trkpt>
      <trkpt lat="42.8191980" lon="-0.1919950">
        <ele>1799.4</ele>
        <time>2020-09-12T13:26:54Z</time>
      </trkpt>
      <trkpt lat="42.8191730" lon="-0.1919550">
        <ele>1799.0</ele>
        <time>2020-09-12T13:26:57Z</time>
      </trkpt>
      <trkpt lat="42.8191310" lon="-0.1918890">
        <ele>1798.8</ele>
        <time>2020-09-12T13:27:01Z</time>
      </trkpt>
      <trkpt lat="42.8191270" lon="-0.1918210">
        <ele>1798.8</ele>
        <time>2020-09-12T13:27:05Z</time>
      </trkpt>
      <trkpt lat="42.8191380" lon="-0.1917800">
        <ele>1798.8</ele>
        <time>2020-09-12T13:27:08Z</time>
      </trkpt>
      <trkpt lat="42.8191920" lon="-0.1916930">
        <ele>1798.0</ele>
        <time>2020-09-12T13:27:17Z</time>
      </trkpt>
      <trkpt lat="42.8192320" lon="-0.1916530">
        <ele>1797.8</ele>
        <time>2020-09-12T13:27:22Z</time>
      </trkpt>
      <trkpt lat="42.8192480" lon="-0.1916210">
        <ele>1797.8</ele>
        <time>2020-09-12T13:27:25Z</time>
      </trkpt>
      <trkpt lat="42.8192800" lon="-0.1915630">
        <ele>1797.0</ele>
        <time>2020-09-12T13:27:30Z</time>
      </trkpt>
      <trkpt lat="42.8193140" lon="-0.1915170">
        <ele>1795.8</ele>
        <time>2020-09-12T13:27:34Z</time>
      </trkpt>
      <trkpt lat="42.8193180" lon="-0.1915030">
        <ele>1795.6</ele>
        <time>2020-09-12T13:27:35Z</time>
      </trkpt>
      <trkpt lat="42.8193140" lon="-0.1914260">
        <ele>1794.6</ele>
        <time>2020-09-12T13:27:40Z</time>
      </trkpt>
      <trkpt lat="42.8193060" lon="-0.1913410">
        <ele>1793.6</ele>
        <time>2020-09-12T13:27:46Z</time>
      </trkpt>
      <trkpt lat="42.8193170" lon="-0.1912840">
        <ele>1792.6</ele>
        <time>2020-09-12T13:27:50Z</time>
      </trkpt>
      <trkpt lat="42.8193150" lon="-0.1912520">
        <ele>1792.0</ele>
        <time>2020-09-12T13:27:52Z</time>
      </trkpt>
      <trkpt lat="42.8193200" lon="-0.1912130">
        <ele>1791.4</ele>
        <time>2020-09-12T13:27:54Z</time>
      </trkpt>
      <trkpt lat="42.8193370" lon="-0.1910900">
        <ele>1790.4</ele>
        <time>2020-09-12T13:28:01Z</time>
      </trkpt>
      <trkpt lat="42.8193390" lon="-0.1910730">
        <ele>1790.2</ele>
        <time>2020-09-12T13:28:02Z</time>
      </trkpt>
      <trkpt lat="42.8193280" lon="-0.1908330">
        <ele>1789.6</ele>
        <time>2020-09-12T13:28:15Z</time>
      </trkpt>
      <trkpt lat="42.8193170" lon="-0.1907350">
        <ele>1789.2</ele>
        <time>2020-09-12T13:28:21Z</time>
      </trkpt>
      <trkpt lat="42.8193070" lon="-0.1906850">
        <ele>1788.6</ele>
        <time>2020-09-12T13:28:26Z</time>
      </trkpt>
      <trkpt lat="42.8193130" lon="-0.1906490">
        <ele>1788.2</ele>
        <time>2020-09-12T13:28:29Z</time>
      </trkpt>
      <trkpt lat="42.8193080" lon="-0.1906390">
        <ele>1788.2</ele>
        <time>2020-09-12T13:28:30Z</time>
      </trkpt>
      <trkpt lat="42.8193180" lon="-0.1904140">
        <ele>1787.0</ele>
        <time>2020-09-12T13:28:45Z</time>
      </trkpt>
      <trkpt lat="42.8193180" lon="-0.1903830">
        <ele>1786.8</ele>
        <time>2020-09-12T13:28:47Z</time>
      </trkpt>
      <trkpt lat="42.8193310" lon="-0.1903760">
        <ele>1786.6</ele>
        <time>2020-09-12T13:28:49Z</time>
      </trkpt>
      <trkpt lat="42.8194050" lon="-0.1902410">
        <ele>1786.0</ele>
        <time>2020-09-12T13:29:15Z</time>
      </trkpt>
      <trkpt lat="42.8194870" lon="-0.1900060">
        <ele>1786.0</ele>
        <time>2020-09-12T13:29:31Z</time>
      </trkpt>
      <trkpt lat="42.8194890" lon="-0.1899890">
        <ele>1786.0</ele>
        <time>2020-09-12T13:29:32Z</time>
      </trkpt>
      <trkpt lat="42.8195790" lon="-0.1898540">
        <ele>1784.8</ele>
        <time>2020-09-12T13:29:43Z</time>
      </trkpt>
      <trkpt lat="42.8195990" lon="-0.1898030">
        <ele>1783.6</ele>
        <time>2020-09-12T13:29:46Z</time>
      </trkpt>
      <trkpt lat="42.8196630" lon="-0.1895630">
        <ele>1783.0</ele>
        <time>2020-09-12T13:30:01Z</time>
      </trkpt>
      <trkpt lat="42.8197580" lon="-0.1893440">
        <ele>1782.8</ele>
        <time>2020-09-12T13:30:15Z</time>
      </trkpt>
      <trkpt lat="42.8198360" lon="-0.1891180">
        <ele>1783.4</ele>
        <time>2020-09-12T13:30:30Z</time>
      </trkpt>
      <trkpt lat="42.8199020" lon="-0.1889690">
        <ele>1782.4</ele>
        <time>2020-09-12T13:30:40Z</time>
      </trkpt>
      <trkpt lat="42.8200190" lon="-0.1887690">
        <ele>1781.8</ele>
        <time>2020-09-12T13:30:53Z</time>
      </trkpt>
      <trkpt lat="42.8201320" lon="-0.1885690">
        <ele>1782.0</ele>
        <time>2020-09-12T13:31:08Z</time>
      </trkpt>
      <trkpt lat="42.8202950" lon="-0.1884450">
        <ele>1781.8</ele>
        <time>2020-09-12T13:31:22Z</time>
      </trkpt>
      <trkpt lat="42.8204490" lon="-0.1882940">
        <ele>1782.0</ele>
        <time>2020-09-12T13:31:36Z</time>
      </trkpt>
      <trkpt lat="42.8204720" lon="-0.1882050">
        <ele>1781.6</ele>
        <time>2020-09-12T13:31:41Z</time>
      </trkpt>
      <trkpt lat="42.8204860" lon="-0.1880450">
        <ele>1781.4</ele>
        <time>2020-09-12T13:31:49Z</time>
      </trkpt>
      <trkpt lat="42.8206200" lon="-0.1878730">
        <ele>1781.4</ele>
        <time>2020-09-12T13:32:05Z</time>
      </trkpt>
      <trkpt lat="42.8206370" lon="-0.1878630">
        <ele>1781.4</ele>
        <time>2020-09-12T13:32:07Z</time>
      </trkpt>
      <trkpt lat="42.8206580" lon="-0.1878490">
        <ele>1781.2</ele>
        <time>2020-09-12T13:32:09Z</time>
      </trkpt>
      <trkpt lat="42.8206990" lon="-0.1878280">
        <ele>1781.2</ele>
        <time>2020-09-12T13:32:12Z</time>
      </trkpt>
      <trkpt lat="42.8207390" lon="-0.1878130">
        <ele>1781.2</ele>
        <time>2020-09-12T13:32:15Z</time>
      </trkpt>
      <trkpt lat="42.8208030" lon="-0.1877750">
        <ele>1781.2</ele>
        <time>2020-09-12T13:32:20Z</time>
      </trkpt>
      <trkpt lat="42.8208550" lon="-0.1877680">
        <ele>1781.0</ele>
        <time>2020-09-12T13:32:24Z</time>
      </trkpt>
      <trkpt lat="42.8209440" lon="-0.1876550">
        <ele>1780.2</ele>
        <time>2020-09-12T13:32:35Z</time>
      </trkpt>
      <trkpt lat="42.8209860" lon="-0.1876210">
        <ele>1780.0</ele>
        <time>2020-09-12T13:32:40Z</time>
      </trkpt>
      <trkpt lat="42.8210270" lon="-0.1875640">
        <ele>1780.2</ele>
        <time>2020-09-12T13:32:45Z</time>
      </trkpt>
      <trkpt lat="42.8210410" lon="-0.1875310">
        <ele>1780.0</ele>
        <time>2020-09-12T13:32:47Z</time>
      </trkpt>
      <trkpt lat="42.8210830" lon="-0.1874260">
        <ele>1780.2</ele>
        <time>2020-09-12T13:32:54Z</time>
      </trkpt>
      <trkpt lat="42.8211180" lon="-0.1872130">
        <ele>1780.2</ele>
        <time>2020-09-12T13:33:06Z</time>
      </trkpt>
      <trkpt lat="42.8211240" lon="-0.1871720">
        <ele>1780.4</ele>
        <time>2020-09-12T13:33:09Z</time>
      </trkpt>
      <trkpt lat="42.8211780" lon="-0.1870740">
        <ele>1781.4</ele>
        <time>2020-09-12T13:33:17Z</time>
      </trkpt>
      <trkpt lat="42.8212610" lon="-0.1868480">
        <ele>1782.0</ele>
        <time>2020-09-12T13:33:36Z</time>
      </trkpt>
      <trkpt lat="42.8212760" lon="-0.1868290">
        <ele>1781.6</ele>
        <time>2020-09-12T13:33:38Z</time>
      </trkpt>
      <trkpt lat="42.8213450" lon="-0.1867330">
        <ele>1780.8</ele>
        <time>2020-09-12T13:33:49Z</time>
      </trkpt>
      <trkpt lat="42.8213680" lon="-0.1866350">
        <ele>1780.2</ele>
        <time>2020-09-12T13:33:56Z</time>
      </trkpt>
      <trkpt lat="42.8213930" lon="-0.1866020">
        <ele>1779.6</ele>
        <time>2020-09-12T13:33:59Z</time>
      </trkpt>
      <trkpt lat="42.8214030" lon="-0.1865810">
        <ele>1779.0</ele>
        <time>2020-09-12T13:34:01Z</time>
      </trkpt>
      <trkpt lat="42.8214170" lon="-0.1865440">
        <ele>1777.8</ele>
        <time>2020-09-12T13:34:05Z</time>
      </trkpt>
      <trkpt lat="42.8214350" lon="-0.1865080">
        <ele>1777.2</ele>
        <time>2020-09-12T13:34:08Z</time>
      </trkpt>
      <trkpt lat="42.8214400" lon="-0.1864960">
        <ele>1776.8</ele>
        <time>2020-09-12T13:34:10Z</time>
      </trkpt>
      <trkpt lat="42.8214280" lon="-0.1864860">
        <ele>1776.2</ele>
        <time>2020-09-12T13:34:12Z</time>
      </trkpt>
      <trkpt lat="42.8214070" lon="-0.1864660">
        <ele>1776.0</ele>
        <time>2020-09-12T13:34:14Z</time>
      </trkpt>
      <trkpt lat="42.8214110" lon="-0.1864380">
        <ele>1775.6</ele>
        <time>2020-09-12T13:34:16Z</time>
      </trkpt>
      <trkpt lat="42.8214430" lon="-0.1863730">
        <ele>1774.6</ele>
        <time>2020-09-12T13:34:21Z</time>
      </trkpt>
      <trkpt lat="42.8214550" lon="-0.1863260">
        <ele>1774.2</ele>
        <time>2020-09-12T13:34:24Z</time>
      </trkpt>
      <trkpt lat="42.8214850" lon="-0.1863030">
        <ele>1773.4</ele>
        <time>2020-09-12T13:34:27Z</time>
      </trkpt>
      <trkpt lat="42.8214980" lon="-0.1863040">
        <ele>1773.0</ele>
        <time>2020-09-12T13:34:28Z</time>
      </trkpt>
      <trkpt lat="42.8215230" lon="-0.1862820">
        <ele>1772.2</ele>
        <time>2020-09-12T13:34:32Z</time>
      </trkpt>
      <trkpt lat="42.8215310" lon="-0.1862710">
        <ele>1772.0</ele>
        <time>2020-09-12T13:34:33Z</time>
      </trkpt>
      <trkpt lat="42.8215380" lon="-0.1862480">
        <ele>1771.6</ele>
        <time>2020-09-12T13:34:35Z</time>
      </trkpt>
      <trkpt lat="42.8215420" lon="-0.1862250">
        <ele>1771.2</ele>
        <time>2020-09-12T13:34:37Z</time>
      </trkpt>
      <trkpt lat="42.8215450" lon="-0.1862180">
        <ele>1771.2</ele>
        <time>2020-09-12T13:34:38Z</time>
      </trkpt>
      <trkpt lat="42.8215660" lon="-0.1861910">
        <ele>1770.6</ele>
        <time>2020-09-12T13:34:41Z</time>
      </trkpt>
      <trkpt lat="42.8215860" lon="-0.1861640">
        <ele>1769.8</ele>
        <time>2020-09-12T13:34:44Z</time>
      </trkpt>
      <trkpt lat="42.8216110" lon="-0.1861110">
        <ele>1768.8</ele>
        <time>2020-09-12T13:34:48Z</time>
      </trkpt>
      <trkpt lat="42.8216890" lon="-0.1860050">
        <ele>1767.8</ele>
        <time>2020-09-12T13:34:58Z</time>
      </trkpt>
      <trkpt lat="42.8217630" lon="-0.1859740">
        <ele>1767.6</ele>
        <time>2020-09-12T13:35:04Z</time>
      </trkpt>
      <trkpt lat="42.8218090" lon="-0.1859560">
        <ele>1767.6</ele>
        <time>2020-09-12T13:35:08Z</time>
      </trkpt>
      <trkpt lat="42.8218470" lon="-0.1859150">
        <ele>1766.6</ele>
        <time>2020-09-12T13:35:12Z</time>
      </trkpt>
      <trkpt lat="42.8219100" lon="-0.1858000">
        <ele>1766.0</ele>
        <time>2020-09-12T13:35:21Z</time>
      </trkpt>
      <trkpt lat="42.8219180" lon="-0.1857830">
        <ele>1766.0</ele>
        <time>2020-09-12T13:35:23Z</time>
      </trkpt>
      <trkpt lat="42.8219550" lon="-0.1857660">
        <ele>1767.2</ele>
        <time>2020-09-12T13:35:27Z</time>
      </trkpt>
      <trkpt lat="42.8219800" lon="-0.1857550">
        <ele>1767.4</ele>
        <time>2020-09-12T13:35:29Z</time>
      </trkpt>
      <trkpt lat="42.8220480" lon="-0.1857210">
        <ele>1766.4</ele>
        <time>2020-09-12T13:35:36Z</time>
      </trkpt>
      <trkpt lat="42.8221060" lon="-0.1856600">
        <ele>1766.8</ele>
        <time>2020-09-12T13:35:45Z</time>
      </trkpt>
      <trkpt lat="42.8221450" lon="-0.1856650">
        <ele>1767.2</ele>
        <time>2020-09-12T13:35:49Z</time>
      </trkpt>
      <trkpt lat="42.8221790" lon="-0.1856620">
        <ele>1767.4</ele>
        <time>2020-09-12T13:35:53Z</time>
      </trkpt>
      <trkpt lat="42.8222000" lon="-0.1856500">
        <ele>1767.2</ele>
        <time>2020-09-12T13:35:55Z</time>
      </trkpt>
      <trkpt lat="42.8222560" lon="-0.1856400">
        <ele>1767.0</ele>
        <time>2020-09-12T13:35:59Z</time>
      </trkpt>
      <trkpt lat="42.8222870" lon="-0.1856420">
        <ele>1767.0</ele>
        <time>2020-09-12T13:36:02Z</time>
      </trkpt>
      <trkpt lat="42.8223130" lon="-0.1856270">
        <ele>1766.8</ele>
        <time>2020-09-12T13:36:06Z</time>
      </trkpt>
      <trkpt lat="42.8223500" lon="-0.1856080">
        <ele>1766.0</ele>
        <time>2020-09-12T13:36:10Z</time>
      </trkpt>
      <trkpt lat="42.8223680" lon="-0.1856150">
        <ele>1765.4</ele>
        <time>2020-09-12T13:36:12Z</time>
      </trkpt>
      <trkpt lat="42.8223980" lon="-0.1856110">
        <ele>1765.0</ele>
        <time>2020-09-12T13:36:15Z</time>
      </trkpt>
      <trkpt lat="42.8224470" lon="-0.1855990">
        <ele>1764.4</ele>
        <time>2020-09-12T13:36:20Z</time>
      </trkpt>
      <trkpt lat="42.8224560" lon="-0.1855960">
        <ele>1764.2</ele>
        <time>2020-09-12T13:36:21Z</time>
      </trkpt>
      <trkpt lat="42.8224810" lon="-0.1855880">
        <ele>1764.2</ele>
        <time>2020-09-12T13:36:23Z</time>
      </trkpt>
      <trkpt lat="42.8225390" lon="-0.1855590">
        <ele>1763.6</ele>
        <time>2020-09-12T13:36:28Z</time>
      </trkpt>
      <trkpt lat="42.8225550" lon="-0.1855500">
        <ele>1763.4</ele>
        <time>2020-09-12T13:36:31Z</time>
      </trkpt>
      <trkpt lat="42.8225610" lon="-0.1855440">
        <ele>1763.2</ele>
        <time>2020-09-12T13:36:32Z</time>
      </trkpt>
      <trkpt lat="42.8225730" lon="-0.1855080">
        <ele>1762.6</ele>
        <time>2020-09-12T13:36:35Z</time>
      </trkpt>
      <trkpt lat="42.8225800" lon="-0.1855000">
        <ele>1762.4</ele>
        <time>2020-09-12T13:36:36Z</time>
      </trkpt>
      <trkpt lat="42.8225920" lon="-0.1854810">
        <ele>1762.0</ele>
        <time>2020-09-12T13:36:39Z</time>
      </trkpt>
      <trkpt lat="42.8226020" lon="-0.1854550">
        <ele>1761.2</ele>
        <time>2020-09-12T13:36:42Z</time>
      </trkpt>
      <trkpt lat="42.8226110" lon="-0.1854510">
        <ele>1761.0</ele>
        <time>2020-09-12T13:36:43Z</time>
      </trkpt>
      <trkpt lat="42.8226210" lon="-0.1854450">
        <ele>1760.8</ele>
        <time>2020-09-12T13:36:44Z</time>
      </trkpt>
      <trkpt lat="42.8226420" lon="-0.1854360">
        <ele>1760.6</ele>
        <time>2020-09-12T13:36:46Z</time>
      </trkpt>
      <trkpt lat="42.8227400" lon="-0.1854040">
        <ele>1759.6</ele>
        <time>2020-09-12T13:36:55Z</time>
      </trkpt>
      <trkpt lat="42.8227840" lon="-0.1854150">
        <ele>1759.0</ele>
        <time>2020-09-12T13:37:00Z</time>
      </trkpt>
      <trkpt lat="42.8227910" lon="-0.1854120">
        <ele>1758.6</ele>
        <time>2020-09-12T13:37:01Z</time>
      </trkpt>
      <trkpt lat="42.8228190" lon="-0.1854050">
        <ele>1757.4</ele>
        <time>2020-09-12T13:37:05Z</time>
      </trkpt>
      <trkpt lat="42.8228280" lon="-0.1854020">
        <ele>1757.0</ele>
        <time>2020-09-12T13:37:07Z</time>
      </trkpt>
      <trkpt lat="42.8228570" lon="-0.1853860">
        <ele>1756.4</ele>
        <time>2020-09-12T13:37:10Z</time>
      </trkpt>
      <trkpt lat="42.8228600" lon="-0.1853840">
        <ele>1756.2</ele>
        <time>2020-09-12T13:37:11Z</time>
      </trkpt>
      <trkpt lat="42.8228700" lon="-0.1853770">
        <ele>1755.8</ele>
        <time>2020-09-12T13:37:13Z</time>
      </trkpt>
      <trkpt lat="42.8228920" lon="-0.1853530">
        <ele>1755.2</ele>
        <time>2020-09-12T13:37:16Z</time>
      </trkpt>
      <trkpt lat="42.8228970" lon="-0.1853440">
        <ele>1755.0</ele>
        <time>2020-09-12T13:37:17Z</time>
      </trkpt>
      <trkpt lat="42.8229090" lon="-0.1853350">
        <ele>1754.4</ele>
        <time>2020-09-12T13:37:20Z</time>
      </trkpt>
      <trkpt lat="42.8229210" lon="-0.1853230">
        <ele>1754.2</ele>
        <time>2020-09-12T13:37:22Z</time>
      </trkpt>
      <trkpt lat="42.8229270" lon="-0.1853210">
        <ele>1754.0</ele>
        <time>2020-09-12T13:37:23Z</time>
      </trkpt>
      <trkpt lat="42.8229340" lon="-0.1853200">
        <ele>1753.8</ele>
        <time>2020-09-12T13:37:24Z</time>
      </trkpt>
      <trkpt lat="42.8229670" lon="-0.1853330">
        <ele>1753.4</ele>
        <time>2020-09-12T13:37:29Z</time>
      </trkpt>
      <trkpt lat="42.8229880" lon="-0.1853410">
        <ele>1753.0</ele>
        <time>2020-09-12T13:37:31Z</time>
      </trkpt>
      <trkpt lat="42.8229960" lon="-0.1853370">
        <ele>1752.8</ele>
        <time>2020-09-12T13:37:32Z</time>
      </trkpt>
      <trkpt lat="42.8230210" lon="-0.1853360">
        <ele>1752.0</ele>
        <time>2020-09-12T13:37:35Z</time>
      </trkpt>
      <trkpt lat="42.8230280" lon="-0.1853340">
        <ele>1752.0</ele>
        <time>2020-09-12T13:37:36Z</time>
      </trkpt>
      <trkpt lat="42.8230780" lon="-0.1853180">
        <ele>1751.6</ele>
        <time>2020-09-12T13:37:40Z</time>
      </trkpt>
      <trkpt lat="42.8230910" lon="-0.1853080">
        <ele>1751.2</ele>
        <time>2020-09-12T13:37:42Z</time>
      </trkpt>
      <trkpt lat="42.8231050" lon="-0.1852940">
        <ele>1751.2</ele>
        <time>2020-09-12T13:37:44Z</time>
      </trkpt>
      <trkpt lat="42.8231220" lon="-0.1852900">
        <ele>1751.0</ele>
        <time>2020-09-12T13:37:46Z</time>
      </trkpt>
      <trkpt lat="42.8231340" lon="-0.1852850">
        <ele>1751.0</ele>
        <time>2020-09-12T13:37:47Z</time>
      </trkpt>
      <trkpt lat="42.8232000" lon="-0.1852770">
        <ele>1750.8</ele>
        <time>2020-09-12T13:37:51Z</time>
      </trkpt>
      <trkpt lat="42.8232650" lon="-0.1852590">
        <ele>1750.8</ele>
        <time>2020-09-12T13:37:56Z</time>
      </trkpt>
      <trkpt lat="42.8232910" lon="-0.1852570">
        <ele>1750.0</ele>
        <time>2020-09-12T13:37:59Z</time>
      </trkpt>
      <trkpt lat="42.8233290" lon="-0.1852430">
        <ele>1748.8</ele>
        <time>2020-09-12T13:38:03Z</time>
      </trkpt>
      <trkpt lat="42.8233450" lon="-0.1852210">
        <ele>1748.6</ele>
        <time>2020-09-12T13:38:05Z</time>
      </trkpt>
      <trkpt lat="42.8233640" lon="-0.1851860">
        <ele>1747.8</ele>
        <time>2020-09-12T13:38:09Z</time>
      </trkpt>
      <trkpt lat="42.8233890" lon="-0.1851830">
        <ele>1747.4</ele>
        <time>2020-09-12T13:38:11Z</time>
      </trkpt>
      <trkpt lat="42.8234000" lon="-0.1851520">
        <ele>1747.2</ele>
        <time>2020-09-12T13:38:13Z</time>
      </trkpt>
      <trkpt lat="42.8234240" lon="-0.1851410">
        <ele>1746.8</ele>
        <time>2020-09-12T13:38:15Z</time>
      </trkpt>
      <trkpt lat="42.8234730" lon="-0.1851280">
        <ele>1746.0</ele>
        <time>2020-09-12T13:38:19Z</time>
      </trkpt>
      <trkpt lat="42.8234850" lon="-0.1851200">
        <ele>1745.8</ele>
        <time>2020-09-12T13:38:21Z</time>
      </trkpt>
      <trkpt lat="42.8234930" lon="-0.1851230">
        <ele>1745.6</ele>
        <time>2020-09-12T13:38:22Z</time>
      </trkpt>
      <trkpt lat="42.8235130" lon="-0.1851070">
        <ele>1744.6</ele>
        <time>2020-09-12T13:38:25Z</time>
      </trkpt>
      <trkpt lat="42.8235480" lon="-0.1850700">
        <ele>1744.0</ele>
        <time>2020-09-12T13:38:29Z</time>
      </trkpt>
      <trkpt lat="42.8235900" lon="-0.1850260">
        <ele>1743.8</ele>
        <time>2020-09-12T13:38:32Z</time>
      </trkpt>
      <trkpt lat="42.8236190" lon="-0.1849670">
        <ele>1743.8</ele>
        <time>2020-09-12T13:38:36Z</time>
      </trkpt>
      <trkpt lat="42.8236360" lon="-0.1849380">
        <ele>1743.4</ele>
        <time>2020-09-12T13:38:39Z</time>
      </trkpt>
      <trkpt lat="42.8236870" lon="-0.1849090">
        <ele>1742.4</ele>
        <time>2020-09-12T13:38:44Z</time>
      </trkpt>
      <trkpt lat="42.8237260" lon="-0.1849000">
        <ele>1742.4</ele>
        <time>2020-09-12T13:38:47Z</time>
      </trkpt>
      <trkpt lat="42.8237530" lon="-0.1848490">
        <ele>1742.4</ele>
        <time>2020-09-12T13:38:51Z</time>
      </trkpt>
      <trkpt lat="42.8237700" lon="-0.1848410">
        <ele>1742.4</ele>
        <time>2020-09-12T13:38:53Z</time>
      </trkpt>
      <trkpt lat="42.8237930" lon="-0.1848320">
        <ele>1742.4</ele>
        <time>2020-09-12T13:38:55Z</time>
      </trkpt>
      <trkpt lat="42.8238110" lon="-0.1848040">
        <ele>1742.0</ele>
        <time>2020-09-12T13:38:57Z</time>
      </trkpt>
      <trkpt lat="42.8238280" lon="-0.1847470">
        <ele>1742.0</ele>
        <time>2020-09-12T13:39:00Z</time>
      </trkpt>
      <trkpt lat="42.8238470" lon="-0.1846670">
        <ele>1742.2</ele>
        <time>2020-09-12T13:39:04Z</time>
      </trkpt>
      <trkpt lat="42.8238810" lon="-0.1846440">
        <ele>1742.2</ele>
        <time>2020-09-12T13:39:06Z</time>
      </trkpt>
      <trkpt lat="42.8239070" lon="-0.1845910">
        <ele>1742.0</ele>
        <time>2020-09-12T13:39:09Z</time>
      </trkpt>
      <trkpt lat="42.8239210" lon="-0.1845460">
        <ele>1742.0</ele>
        <time>2020-09-12T13:39:12Z</time>
      </trkpt>
      <trkpt lat="42.8239470" lon="-0.1844120">
        <ele>1742.8</ele>
        <time>2020-09-12T13:39:21Z</time>
      </trkpt>
      <trkpt lat="42.8239550" lon="-0.1844020">
        <ele>1743.2</ele>
        <time>2020-09-12T13:39:23Z</time>
      </trkpt>
      <trkpt lat="42.8240010" lon="-0.1843980">
        <ele>1743.4</ele>
        <time>2020-09-12T13:39:26Z</time>
      </trkpt>
      <trkpt lat="42.8240390" lon="-0.1843760">
        <ele>1744.2</ele>
        <time>2020-09-12T13:39:30Z</time>
      </trkpt>
      <trkpt lat="42.8240440" lon="-0.1843660">
        <ele>1744.4</ele>
        <time>2020-09-12T13:39:32Z</time>
      </trkpt>
      <trkpt lat="42.8240450" lon="-0.1843630">
        <ele>1744.8</ele>
        <time>2020-09-12T13:39:34Z</time>
      </trkpt>
      <trkpt lat="42.8240380" lon="-0.1843650">
        <ele>1745.0</ele>
        <time>2020-09-12T13:39:37Z</time>
      </trkpt>
      <trkpt lat="42.8240430" lon="-0.1843680">
        <ele>1745.0</ele>
        <time>2020-09-12T13:39:38Z</time>
      </trkpt>
      <trkpt lat="42.8240460" lon="-0.1843270">
        <ele>1745.0</ele>
        <time>2020-09-12T13:39:43Z</time>
      </trkpt>
      <trkpt lat="42.8240580" lon="-0.1843040">
        <ele>1745.6</ele>
        <time>2020-09-12T13:39:46Z</time>
      </trkpt>
      <trkpt lat="42.8240620" lon="-0.1842960">
        <ele>1745.8</ele>
        <time>2020-09-12T13:39:47Z</time>
      </trkpt>
      <trkpt lat="42.8240800" lon="-0.1842320">
        <ele>1746.6</ele>
        <time>2020-09-12T13:39:53Z</time>
      </trkpt>
      <trkpt lat="42.8240900" lon="-0.1841950">
        <ele>1747.4</ele>
        <time>2020-09-12T13:39:56Z</time>
      </trkpt>
      <trkpt lat="42.8241290" lon="-0.1841790">
        <ele>1747.4</ele>
        <time>2020-09-12T13:39:58Z</time>
      </trkpt>
      <trkpt lat="42.8242400" lon="-0.1840840">
        <ele>1747.6</ele>
        <time>2020-09-12T13:40:09Z</time>
      </trkpt>
      <trkpt lat="42.8243500" lon="-0.1840000">
        <ele>1746.6</ele>
        <time>2020-09-12T13:40:21Z</time>
      </trkpt>
      <trkpt lat="42.8244410" lon="-0.1839060">
        <ele>1745.4</ele>
        <time>2020-09-12T13:40:28Z</time>
      </trkpt>
      <trkpt lat="42.8244730" lon="-0.1838350">
        <ele>1744.6</ele>
        <time>2020-09-12T13:40:33Z</time>
      </trkpt>
      <trkpt lat="42.8245170" lon="-0.1837580">
        <ele>1744.2</ele>
        <time>2020-09-12T13:40:39Z</time>
      </trkpt>
      <trkpt lat="42.8245760" lon="-0.1836790">
        <ele>1744.0</ele>
        <time>2020-09-12T13:40:46Z</time>
      </trkpt>
      <trkpt lat="42.8246040" lon="-0.1835810">
        <ele>1744.8</ele>
        <time>2020-09-12T13:40:54Z</time>
      </trkpt>
      <trkpt lat="42.8246200" lon="-0.1835520">
        <ele>1745.2</ele>
        <time>2020-09-12T13:40:58Z</time>
      </trkpt>
      <trkpt lat="42.8246280" lon="-0.1835400">
        <ele>1745.2</ele>
        <time>2020-09-12T13:41:00Z</time>
      </trkpt>
      <trkpt lat="42.8246290" lon="-0.1835320">
        <ele>1745.4</ele>
        <time>2020-09-12T13:41:01Z</time>
      </trkpt>
      <trkpt lat="42.8246310" lon="-0.1835150">
        <ele>1745.6</ele>
        <time>2020-09-12T13:41:03Z</time>
      </trkpt>
      <trkpt lat="42.8246550" lon="-0.1834820">
        <ele>1746.4</ele>
        <time>2020-09-12T13:41:07Z</time>
      </trkpt>
      <trkpt lat="42.8246610" lon="-0.1834770">
        <ele>1746.6</ele>
        <time>2020-09-12T13:41:08Z</time>
      </trkpt>
      <trkpt lat="42.8247010" lon="-0.1834810">
        <ele>1747.6</ele>
        <time>2020-09-12T13:41:12Z</time>
      </trkpt>
      <trkpt lat="42.8247580" lon="-0.1834760">
        <ele>1748.8</ele>
        <time>2020-09-12T13:41:15Z</time>
      </trkpt>
      <trkpt lat="42.8248060" lon="-0.1834730">
        <ele>1749.2</ele>
        <time>2020-09-12T13:41:18Z</time>
      </trkpt>
      <trkpt lat="42.8248530" lon="-0.1834570">
        <ele>1748.0</ele>
        <time>2020-09-12T13:41:24Z</time>
      </trkpt>
      <trkpt lat="42.8248620" lon="-0.1834620">
        <ele>1747.8</ele>
        <time>2020-09-12T13:41:25Z</time>
      </trkpt>
      <trkpt lat="42.8249100" lon="-0.1834770">
        <ele>1747.4</ele>
        <time>2020-09-12T13:41:30Z</time>
      </trkpt>
      <trkpt lat="42.8249870" lon="-0.1834530">
        <ele>1747.0</ele>
        <time>2020-09-12T13:41:35Z</time>
      </trkpt>
      <trkpt lat="42.8249920" lon="-0.1834460">
        <ele>1747.0</ele>
        <time>2020-09-12T13:41:36Z</time>
      </trkpt>
      <trkpt lat="42.8249990" lon="-0.1834410">
        <ele>1746.8</ele>
        <time>2020-09-12T13:41:37Z</time>
      </trkpt>
      <trkpt lat="42.8250110" lon="-0.1834360">
        <ele>1746.8</ele>
        <time>2020-09-12T13:41:39Z</time>
      </trkpt>
      <trkpt lat="42.8250490" lon="-0.1834360">
        <ele>1747.2</ele>
        <time>2020-09-12T13:41:43Z</time>
      </trkpt>
      <trkpt lat="42.8250910" lon="-0.1834250">
        <ele>1747.8</ele>
        <time>2020-09-12T13:41:47Z</time>
      </trkpt>
      <trkpt lat="42.8251140" lon="-0.1833940">
        <ele>1748.6</ele>
        <time>2020-09-12T13:41:50Z</time>
      </trkpt>
      <trkpt lat="42.8251340" lon="-0.1833790">
        <ele>1749.0</ele>
        <time>2020-09-12T13:41:52Z</time>
      </trkpt>
      <trkpt lat="42.8251950" lon="-0.1833480">
        <ele>1750.0</ele>
        <time>2020-09-12T13:41:59Z</time>
      </trkpt>
      <trkpt lat="42.8252170" lon="-0.1833430">
        <ele>1750.2</ele>
        <time>2020-09-12T13:42:01Z</time>
      </trkpt>
      <trkpt lat="42.8252440" lon="-0.1833310">
        <ele>1750.8</ele>
        <time>2020-09-12T13:42:03Z</time>
      </trkpt>
      <trkpt lat="42.8252610" lon="-0.1833130">
        <ele>1751.0</ele>
        <time>2020-09-12T13:42:05Z</time>
      </trkpt>
      <trkpt lat="42.8252690" lon="-0.1832680">
        <ele>1751.2</ele>
        <time>2020-09-12T13:42:09Z</time>
      </trkpt>
      <trkpt lat="42.8252870" lon="-0.1832370">
        <ele>1751.8</ele>
        <time>2020-09-12T13:42:12Z</time>
      </trkpt>
      <trkpt lat="42.8253090" lon="-0.1832110">
        <ele>1752.0</ele>
        <time>2020-09-12T13:42:15Z</time>
      </trkpt>
      <trkpt lat="42.8253220" lon="-0.1831810">
        <ele>1752.2</ele>
        <time>2020-09-12T13:42:18Z</time>
      </trkpt>
      <trkpt lat="42.8253080" lon="-0.1830900">
        <ele>1753.2</ele>
        <time>2020-09-12T13:42:24Z</time>
      </trkpt>
      <trkpt lat="42.8253040" lon="-0.1830410">
        <ele>1753.8</ele>
        <time>2020-09-12T13:42:27Z</time>
      </trkpt>
      <trkpt lat="42.8252900" lon="-0.1828560">
        <ele>1754.4</ele>
        <time>2020-09-12T13:42:37Z</time>
      </trkpt>
      <trkpt lat="42.8253090" lon="-0.1828270">
        <ele>1754.6</ele>
        <time>2020-09-12T13:42:39Z</time>
      </trkpt>
      <trkpt lat="42.8254320" lon="-0.1826690">
        <ele>1754.2</ele>
        <time>2020-09-12T13:42:52Z</time>
      </trkpt>
      <trkpt lat="42.8254500" lon="-0.1826260">
        <ele>1754.2</ele>
        <time>2020-09-12T13:42:55Z</time>
      </trkpt>
      <trkpt lat="42.8254660" lon="-0.1826180">
        <ele>1754.2</ele>
        <time>2020-09-12T13:42:57Z</time>
      </trkpt>
      <trkpt lat="42.8255390" lon="-0.1825850">
        <ele>1753.4</ele>
        <time>2020-09-12T13:43:14Z</time>
      </trkpt>
      <trkpt lat="42.8255420" lon="-0.1825760">
        <ele>1753.2</ele>
        <time>2020-09-12T13:43:15Z</time>
      </trkpt>
      <trkpt lat="42.8255620" lon="-0.1825400">
        <ele>1753.0</ele>
        <time>2020-09-12T13:43:19Z</time>
      </trkpt>
      <trkpt lat="42.8255750" lon="-0.1825230">
        <ele>1752.8</ele>
        <time>2020-09-12T13:43:21Z</time>
      </trkpt>
      <trkpt lat="42.8256020" lon="-0.1824980">
        <ele>1752.6</ele>
        <time>2020-09-12T13:43:25Z</time>
      </trkpt>
      <trkpt lat="42.8256110" lon="-0.1824770">
        <ele>1752.6</ele>
        <time>2020-09-12T13:43:27Z</time>
      </trkpt>
      <trkpt lat="42.8256330" lon="-0.1824420">
        <ele>1752.8</ele>
        <time>2020-09-12T13:43:30Z</time>
      </trkpt>
      <trkpt lat="42.8256540" lon="-0.1824310">
        <ele>1753.0</ele>
        <time>2020-09-12T13:43:32Z</time>
      </trkpt>
      <trkpt lat="42.8256510" lon="-0.1823990">
        <ele>1753.2</ele>
        <time>2020-09-12T13:43:35Z</time>
      </trkpt>
      <trkpt lat="42.8256430" lon="-0.1823420">
        <ele>1754.0</ele>
        <time>2020-09-12T13:43:39Z</time>
      </trkpt>
      <trkpt lat="42.8256870" lon="-0.1823120">
        <ele>1754.4</ele>
        <time>2020-09-12T13:43:43Z</time>
      </trkpt>
      <trkpt lat="42.8256930" lon="-0.1823080">
        <ele>1754.4</ele>
        <time>2020-09-12T13:43:44Z</time>
      </trkpt>
      <trkpt lat="42.8257070" lon="-0.1822930">
        <ele>1754.8</ele>
        <time>2020-09-12T13:43:46Z</time>
      </trkpt>
      <trkpt lat="42.8257250" lon="-0.1822640">
        <ele>1755.4</ele>
        <time>2020-09-12T13:43:50Z</time>
      </trkpt>
      <trkpt lat="42.8257340" lon="-0.1822550">
        <ele>1755.6</ele>
        <time>2020-09-12T13:43:51Z</time>
      </trkpt>
      <trkpt lat="42.8257580" lon="-0.1822340">
        <ele>1756.2</ele>
        <time>2020-09-12T13:43:54Z</time>
      </trkpt>
      <trkpt lat="42.8257840" lon="-0.1822260">
        <ele>1756.4</ele>
        <time>2020-09-12T13:43:58Z</time>
      </trkpt>
      <trkpt lat="42.8258000" lon="-0.1822220">
        <ele>1756.4</ele>
        <time>2020-09-12T13:44:01Z</time>
      </trkpt>
      <trkpt lat="42.8258560" lon="-0.1821960">
        <ele>1757.2</ele>
        <time>2020-09-12T13:44:09Z</time>
      </trkpt>
      <trkpt lat="42.8258610" lon="-0.1821920">
        <ele>1757.4</ele>
        <time>2020-09-12T13:44:10Z</time>
      </trkpt>
      <trkpt lat="42.8258670" lon="-0.1821750">
        <ele>1757.6</ele>
        <time>2020-09-12T13:44:12Z</time>
      </trkpt>
      <trkpt lat="42.8258790" lon="-0.1821500">
        <ele>1756.0</ele>
        <time>2020-09-12T13:44:16Z</time>
      </trkpt>
      <trkpt lat="42.8258790" lon="-0.1821480">
        <ele>1755.8</ele>
        <time>2020-09-12T13:44:17Z</time>
      </trkpt>
      <trkpt lat="42.8258990" lon="-0.1820970">
        <ele>1755.0</ele>
        <time>2020-09-12T13:44:24Z</time>
      </trkpt>
      <trkpt lat="42.8258930" lon="-0.1820850">
        <ele>1754.8</ele>
        <time>2020-09-12T13:44:25Z</time>
      </trkpt>
      <trkpt lat="42.8258890" lon="-0.1820340">
        <ele>1753.8</ele>
        <time>2020-09-12T13:44:28Z</time>
      </trkpt>
      <trkpt lat="42.8259050" lon="-0.1819990">
        <ele>1753.6</ele>
        <time>2020-09-12T13:44:31Z</time>
      </trkpt>
      <trkpt lat="42.8259110" lon="-0.1819930">
        <ele>1752.8</ele>
        <time>2020-09-12T13:44:36Z</time>
      </trkpt>
      <trkpt lat="42.8259720" lon="-0.1819910">
        <ele>1753.4</ele>
        <time>2020-09-12T13:44:44Z</time>
      </trkpt>
      <trkpt lat="42.8260010" lon="-0.1819930">
        <ele>1753.0</ele>
        <time>2020-09-12T13:44:47Z</time>
      </trkpt>
      <trkpt lat="42.8260380" lon="-0.1819520">
        <ele>1751.6</ele>
        <time>2020-09-12T13:44:51Z</time>
      </trkpt>
      <trkpt lat="42.8260900" lon="-0.1819100">
        <ele>1751.2</ele>
        <time>2020-09-12T13:44:56Z</time>
      </trkpt>
      <trkpt lat="42.8261120" lon="-0.1819010">
        <ele>1751.2</ele>
        <time>2020-09-12T13:44:58Z</time>
      </trkpt>
      <trkpt lat="42.8261330" lon="-0.1818950">
        <ele>1751.0</ele>
        <time>2020-09-12T13:45:00Z</time>
      </trkpt>
      <trkpt lat="42.8261890" lon="-0.1818730">
        <ele>1750.8</ele>
        <time>2020-09-12T13:45:05Z</time>
      </trkpt>
      <trkpt lat="42.8262100" lon="-0.1818680">
        <ele>1750.4</ele>
        <time>2020-09-12T13:45:07Z</time>
      </trkpt>
      <trkpt lat="42.8262540" lon="-0.1818530">
        <ele>1749.4</ele>
        <time>2020-09-12T13:45:13Z</time>
      </trkpt>
      <trkpt lat="42.8262600" lon="-0.1818500">
        <ele>1749.2</ele>
        <time>2020-09-12T13:45:14Z</time>
      </trkpt>
      <trkpt lat="42.8262880" lon="-0.1818310">
        <ele>1748.2</ele>
        <time>2020-09-12T13:45:19Z</time>
      </trkpt>
      <trkpt lat="42.8263370" lon="-0.1818000">
        <ele>1747.2</ele>
        <time>2020-09-12T13:45:23Z</time>
      </trkpt>
      <trkpt lat="42.8263650" lon="-0.1817650">
        <ele>1746.8</ele>
        <time>2020-09-12T13:45:26Z</time>
      </trkpt>
      <trkpt lat="42.8263920" lon="-0.1817540">
        <ele>1746.6</ele>
        <time>2020-09-12T13:45:28Z</time>
      </trkpt>
      <trkpt lat="42.8264060" lon="-0.1817410">
        <ele>1746.4</ele>
        <time>2020-09-12T13:45:30Z</time>
      </trkpt>
      <trkpt lat="42.8264110" lon="-0.1817150">
        <ele>1746.0</ele>
        <time>2020-09-12T13:45:32Z</time>
      </trkpt>
      <trkpt lat="42.8264100" lon="-0.1817020">
        <ele>1746.0</ele>
        <time>2020-09-12T13:45:33Z</time>
      </trkpt>
      <trkpt lat="42.8264170" lon="-0.1816810">
        <ele>1746.0</ele>
        <time>2020-09-12T13:45:35Z</time>
      </trkpt>
      <trkpt lat="42.8264690" lon="-0.1816630">
        <ele>1745.8</ele>
        <time>2020-09-12T13:45:37Z</time>
      </trkpt>
      <trkpt lat="42.8264940" lon="-0.1816100">
        <ele>1745.2</ele>
        <time>2020-09-12T13:45:42Z</time>
      </trkpt>
      <trkpt lat="42.8264940" lon="-0.1815920">
        <ele>1745.2</ele>
        <time>2020-09-12T13:45:44Z</time>
      </trkpt>
      <trkpt lat="42.8264920" lon="-0.1815850">
        <ele>1745.0</ele>
        <time>2020-09-12T13:45:45Z</time>
      </trkpt>
      <trkpt lat="42.8264950" lon="-0.1815760">
        <ele>1745.0</ele>
        <time>2020-09-12T13:45:46Z</time>
      </trkpt>
      <trkpt lat="42.8264960" lon="-0.1815490">
        <ele>1744.8</ele>
        <time>2020-09-12T13:45:48Z</time>
      </trkpt>
      <trkpt lat="42.8264900" lon="-0.1815380">
        <ele>1744.4</ele>
        <time>2020-09-12T13:45:50Z</time>
      </trkpt>
      <trkpt lat="42.8265240" lon="-0.1815140">
        <ele>1744.0</ele>
        <time>2020-09-12T13:45:54Z</time>
      </trkpt>
      <trkpt lat="42.8265380" lon="-0.1815040">
        <ele>1744.0</ele>
        <time>2020-09-12T13:45:55Z</time>
      </trkpt>
      <trkpt lat="42.8265630" lon="-0.1814860">
        <ele>1743.8</ele>
        <time>2020-09-12T13:45:57Z</time>
      </trkpt>
      <trkpt lat="42.8265800" lon="-0.1814680">
        <ele>1743.8</ele>
        <time>2020-09-12T13:45:59Z</time>
      </trkpt>
      <trkpt lat="42.8266210" lon="-0.1814390">
        <ele>1743.6</ele>
        <time>2020-09-12T13:46:03Z</time>
      </trkpt>
      <trkpt lat="42.8266350" lon="-0.1813660">
        <ele>1743.2</ele>
        <time>2020-09-12T13:46:09Z</time>
      </trkpt>
      <trkpt lat="42.8266400" lon="-0.1813340">
        <ele>1743.0</ele>
        <time>2020-09-12T13:46:11Z</time>
      </trkpt>
      <trkpt lat="42.8266490" lon="-0.1813230">
        <ele>1742.8</ele>
        <time>2020-09-12T13:46:12Z</time>
      </trkpt>
      <trkpt lat="42.8266550" lon="-0.1813090">
        <ele>1742.8</ele>
        <time>2020-09-12T13:46:13Z</time>
      </trkpt>
      <trkpt lat="42.8266870" lon="-0.1812800">
        <ele>1742.8</ele>
        <time>2020-09-12T13:46:15Z</time>
      </trkpt>
      <trkpt lat="42.8268030" lon="-0.1810880">
        <ele>1742.4</ele>
        <time>2020-09-12T13:46:29Z</time>
      </trkpt>
      <trkpt lat="42.8268400" lon="-0.1810690">
        <ele>1742.6</ele>
        <time>2020-09-12T13:46:32Z</time>
      </trkpt>
      <trkpt lat="42.8268860" lon="-0.1810320">
        <ele>1742.8</ele>
        <time>2020-09-12T13:46:37Z</time>
      </trkpt>
      <trkpt lat="42.8269390" lon="-0.1809950">
        <ele>1742.4</ele>
        <time>2020-09-12T13:46:41Z</time>
      </trkpt>
      <trkpt lat="42.8270380" lon="-0.1809550">
        <ele>1741.8</ele>
        <time>2020-09-12T13:46:46Z</time>
      </trkpt>
      <trkpt lat="42.8270800" lon="-0.1809310">
        <ele>1741.2</ele>
        <time>2020-09-12T13:46:50Z</time>
      </trkpt>
      <trkpt lat="42.8270830" lon="-0.1809120">
        <ele>1741.2</ele>
        <time>2020-09-12T13:46:52Z</time>
      </trkpt>
      <trkpt lat="42.8271060" lon="-0.1808740">
        <ele>1741.2</ele>
        <time>2020-09-12T13:46:55Z</time>
      </trkpt>
      <trkpt lat="42.8271330" lon="-0.1808420">
        <ele>1741.2</ele>
        <time>2020-09-12T13:46:58Z</time>
      </trkpt>
      <trkpt lat="42.8271570" lon="-0.1807900">
        <ele>1742.0</ele>
        <time>2020-09-12T13:47:03Z</time>
      </trkpt>
      <trkpt lat="42.8271670" lon="-0.1807160">
        <ele>1742.2</ele>
        <time>2020-09-12T13:47:07Z</time>
      </trkpt>
      <trkpt lat="42.8271330" lon="-0.1806300">
        <ele>1742.0</ele>
        <time>2020-09-12T13:47:10Z</time>
      </trkpt>
      <trkpt lat="42.8271340" lon="-0.1805760">
        <ele>1741.0</ele>
        <time>2020-09-12T13:47:13Z</time>
      </trkpt>
      <trkpt lat="42.8271570" lon="-0.1805640">
        <ele>1740.6</ele>
        <time>2020-09-12T13:47:14Z</time>
      </trkpt>
      <trkpt lat="42.8271850" lon="-0.1805410">
        <ele>1740.0</ele>
        <time>2020-09-12T13:47:17Z</time>
      </trkpt>
      <trkpt lat="42.8271880" lon="-0.1805110">
        <ele>1739.6</ele>
        <time>2020-09-12T13:47:19Z</time>
      </trkpt>
      <trkpt lat="42.8271890" lon="-0.1804380">
        <ele>1738.4</ele>
        <time>2020-09-12T13:47:24Z</time>
      </trkpt>
      <trkpt lat="42.8272040" lon="-0.1804060">
        <ele>1737.4</ele>
        <time>2020-09-12T13:47:26Z</time>
      </trkpt>
      <trkpt lat="42.8272240" lon="-0.1803580">
        <ele>1736.0</ele>
        <time>2020-09-12T13:47:31Z</time>
      </trkpt>
      <trkpt lat="42.8272180" lon="-0.1803380">
        <ele>1735.4</ele>
        <time>2020-09-12T13:47:34Z</time>
      </trkpt>
      <trkpt lat="42.8271840" lon="-0.1802840">
        <ele>1735.2</ele>
        <time>2020-09-12T13:47:38Z</time>
      </trkpt>
      <trkpt lat="42.8271780" lon="-0.1802370">
        <ele>1735.2</ele>
        <time>2020-09-12T13:47:42Z</time>
      </trkpt>
      <trkpt lat="42.8271820" lon="-0.1802270">
        <ele>1735.0</ele>
        <time>2020-09-12T13:47:43Z</time>
      </trkpt>
      <trkpt lat="42.8271960" lon="-0.1801920">
        <ele>1734.4</ele>
        <time>2020-09-12T13:47:46Z</time>
      </trkpt>
      <trkpt lat="42.8272560" lon="-0.1800820">
        <ele>1734.0</ele>
        <time>2020-09-12T13:47:54Z</time>
      </trkpt>
      <trkpt lat="42.8273680" lon="-0.1800010">
        <ele>1733.2</ele>
        <time>2020-09-12T13:48:03Z</time>
      </trkpt>
      <trkpt lat="42.8274400" lon="-0.1799990">
        <ele>1733.0</ele>
        <time>2020-09-12T13:48:09Z</time>
      </trkpt>
      <trkpt lat="42.8274830" lon="-0.1799820">
        <ele>1732.4</ele>
        <time>2020-09-12T13:48:14Z</time>
      </trkpt>
      <trkpt lat="42.8274990" lon="-0.1799690">
        <ele>1731.8</ele>
        <time>2020-09-12T13:48:17Z</time>
      </trkpt>
      <trkpt lat="42.8275180" lon="-0.1799610">
        <ele>1731.6</ele>
        <time>2020-09-12T13:48:19Z</time>
      </trkpt>
      <trkpt lat="42.8275370" lon="-0.1799480">
        <ele>1731.0</ele>
        <time>2020-09-12T13:48:21Z</time>
      </trkpt>
      <trkpt lat="42.8275390" lon="-0.1799220">
        <ele>1730.8</ele>
        <time>2020-09-12T13:48:23Z</time>
      </trkpt>
      <trkpt lat="42.8275410" lon="-0.1799110">
        <ele>1730.2</ele>
        <time>2020-09-12T13:48:25Z</time>
      </trkpt>
      <trkpt lat="42.8275190" lon="-0.1798760">
        <ele>1729.6</ele>
        <time>2020-09-12T13:48:28Z</time>
      </trkpt>
      <trkpt lat="42.8275010" lon="-0.1798480">
        <ele>1729.4</ele>
        <time>2020-09-12T13:48:30Z</time>
      </trkpt>
      <trkpt lat="42.8274600" lon="-0.1797960">
        <ele>1728.6</ele>
        <time>2020-09-12T13:48:33Z</time>
      </trkpt>
      <trkpt lat="42.8274470" lon="-0.1797630">
        <ele>1728.0</ele>
        <time>2020-09-12T13:48:35Z</time>
      </trkpt>
      <trkpt lat="42.8274210" lon="-0.1797140">
        <ele>1727.4</ele>
        <time>2020-09-12T13:48:38Z</time>
      </trkpt>
      <trkpt lat="42.8274170" lon="-0.1796870">
        <ele>1727.2</ele>
        <time>2020-09-12T13:48:40Z</time>
      </trkpt>
      <trkpt lat="42.8274320" lon="-0.1796730">
        <ele>1727.0</ele>
        <time>2020-09-12T13:48:42Z</time>
      </trkpt>
      <trkpt lat="42.8274600" lon="-0.1796670">
        <ele>1726.6</ele>
        <time>2020-09-12T13:48:44Z</time>
      </trkpt>
      <trkpt lat="42.8274800" lon="-0.1796710">
        <ele>1726.4</ele>
        <time>2020-09-12T13:48:45Z</time>
      </trkpt>
      <trkpt lat="42.8275160" lon="-0.1796770">
        <ele>1725.6</ele>
        <time>2020-09-12T13:48:48Z</time>
      </trkpt>
      <trkpt lat="42.8275410" lon="-0.1796850">
        <ele>1725.2</ele>
        <time>2020-09-12T13:48:50Z</time>
      </trkpt>
      <trkpt lat="42.8276050" lon="-0.1797020">
        <ele>1724.0</ele>
        <time>2020-09-12T13:48:57Z</time>
      </trkpt>
      <trkpt lat="42.8276530" lon="-0.1796890">
        <ele>1723.4</ele>
        <time>2020-09-12T13:49:01Z</time>
      </trkpt>
      <trkpt lat="42.8276780" lon="-0.1796670">
        <ele>1723.0</ele>
        <time>2020-09-12T13:49:03Z</time>
      </trkpt>
      <trkpt lat="42.8277750" lon="-0.1796050">
        <ele>1721.8</ele>
        <time>2020-09-12T13:49:11Z</time>
      </trkpt>
      <trkpt lat="42.8278090" lon="-0.1795770">
        <ele>1720.8</ele>
        <time>2020-09-12T13:49:15Z</time>
      </trkpt>
      <trkpt lat="42.8278210" lon="-0.1795560">
        <ele>1720.4</ele>
        <time>2020-09-12T13:49:17Z</time>
      </trkpt>
      <trkpt lat="42.8278340" lon="-0.1795370">
        <ele>1719.8</ele>
        <time>2020-09-12T13:49:19Z</time>
      </trkpt>
      <trkpt lat="42.8278420" lon="-0.1795340">
        <ele>1719.4</ele>
        <time>2020-09-12T13:49:20Z</time>
      </trkpt>
      <trkpt lat="42.8278610" lon="-0.1795280">
        <ele>1718.8</ele>
        <time>2020-09-12T13:49:22Z</time>
      </trkpt>
      <trkpt lat="42.8278740" lon="-0.1795260">
        <ele>1718.4</ele>
        <time>2020-09-12T13:49:23Z</time>
      </trkpt>
      <trkpt lat="42.8278710" lon="-0.1795110">
        <ele>1718.2</ele>
        <time>2020-09-12T13:49:24Z</time>
      </trkpt>
      <trkpt lat="42.8278950" lon="-0.1794840">
        <ele>1717.4</ele>
        <time>2020-09-12T13:49:30Z</time>
      </trkpt>
      <trkpt lat="42.8279400" lon="-0.1794500">
        <ele>1716.4</ele>
        <time>2020-09-12T13:49:34Z</time>
      </trkpt>
      <trkpt lat="42.8280070" lon="-0.1794010">
        <ele>1715.2</ele>
        <time>2020-09-12T13:49:42Z</time>
      </trkpt>
      <trkpt lat="42.8280150" lon="-0.1793780">
        <ele>1715.0</ele>
        <time>2020-09-12T13:49:43Z</time>
      </trkpt>
      <trkpt lat="42.8280620" lon="-0.1793340">
        <ele>1714.0</ele>
        <time>2020-09-12T13:49:47Z</time>
      </trkpt>
      <trkpt lat="42.8281280" lon="-0.1793110">
        <ele>1713.0</ele>
        <time>2020-09-12T13:49:56Z</time>
      </trkpt>
      <trkpt lat="42.8281400" lon="-0.1792830">
        <ele>1713.0</ele>
        <time>2020-09-12T13:49:58Z</time>
      </trkpt>
      <trkpt lat="42.8281500" lon="-0.1792630">
        <ele>1712.6</ele>
        <time>2020-09-12T13:50:00Z</time>
      </trkpt>
      <trkpt lat="42.8282040" lon="-0.1792250">
        <ele>1712.0</ele>
        <time>2020-09-12T13:50:04Z</time>
      </trkpt>
      <trkpt lat="42.8282470" lon="-0.1792200">
        <ele>1711.4</ele>
        <time>2020-09-12T13:50:06Z</time>
      </trkpt>
      <trkpt lat="42.8282750" lon="-0.1792100">
        <ele>1710.8</ele>
        <time>2020-09-12T13:50:08Z</time>
      </trkpt>
      <trkpt lat="42.8282810" lon="-0.1791600">
        <ele>1709.8</ele>
        <time>2020-09-12T13:50:12Z</time>
      </trkpt>
      <trkpt lat="42.8282830" lon="-0.1791430">
        <ele>1709.6</ele>
        <time>2020-09-12T13:50:13Z</time>
      </trkpt>
      <trkpt lat="42.8282930" lon="-0.1790750">
        <ele>1708.6</ele>
        <time>2020-09-12T13:50:18Z</time>
      </trkpt>
      <trkpt lat="42.8283010" lon="-0.1790660">
        <ele>1708.6</ele>
        <time>2020-09-12T13:50:19Z</time>
      </trkpt>
      <trkpt lat="42.8283510" lon="-0.1790320">
        <ele>1708.4</ele>
        <time>2020-09-12T13:50:24Z</time>
      </trkpt>
      <trkpt lat="42.8283640" lon="-0.1790190">
        <ele>1708.2</ele>
        <time>2020-09-12T13:50:26Z</time>
      </trkpt>
      <trkpt lat="42.8283920" lon="-0.1789670">
        <ele>1707.6</ele>
        <time>2020-09-12T13:50:31Z</time>
      </trkpt>
      <trkpt lat="42.8283970" lon="-0.1789530">
        <ele>1707.4</ele>
        <time>2020-09-12T13:50:32Z</time>
      </trkpt>
      <trkpt lat="42.8283890" lon="-0.1789450">
        <ele>1707.2</ele>
        <time>2020-09-12T13:50:33Z</time>
      </trkpt>
      <trkpt lat="42.8284270" lon="-0.1788920">
        <ele>1706.6</ele>
        <time>2020-09-12T13:50:38Z</time>
      </trkpt>
      <trkpt lat="42.8284320" lon="-0.1788300">
        <ele>1706.4</ele>
        <time>2020-09-12T13:50:40Z</time>
      </trkpt>
      <trkpt lat="42.8284400" lon="-0.1788190">
        <ele>1706.4</ele>
        <time>2020-09-12T13:50:41Z</time>
      </trkpt>
      <trkpt lat="42.8284870" lon="-0.1787250">
        <ele>1706.2</ele>
        <time>2020-09-12T13:50:47Z</time>
      </trkpt>
      <trkpt lat="42.8284870" lon="-0.1787050">
        <ele>1705.8</ele>
        <time>2020-09-12T13:50:49Z</time>
      </trkpt>
      <trkpt lat="42.8284840" lon="-0.1786820">
        <ele>1705.4</ele>
        <time>2020-09-12T13:50:51Z</time>
      </trkpt>
      <trkpt lat="42.8285090" lon="-0.1786640">
        <ele>1704.6</ele>
        <time>2020-09-12T13:50:53Z</time>
      </trkpt>
      <trkpt lat="42.8285180" lon="-0.1786450">
        <ele>1704.0</ele>
        <time>2020-09-12T13:50:55Z</time>
      </trkpt>
      <trkpt lat="42.8285320" lon="-0.1786240">
        <ele>1703.4</ele>
        <time>2020-09-12T13:50:58Z</time>
      </trkpt>
      <trkpt lat="42.8285180" lon="-0.1786100">
        <ele>1703.0</ele>
        <time>2020-09-12T13:51:00Z</time>
      </trkpt>
      <trkpt lat="42.8285000" lon="-0.1786050">
        <ele>1702.8</ele>
        <time>2020-09-12T13:51:02Z</time>
      </trkpt>
      <trkpt lat="42.8284660" lon="-0.1786010">
        <ele>1702.8</ele>
        <time>2020-09-12T13:51:05Z</time>
      </trkpt>
      <trkpt lat="42.8284330" lon="-0.1786120">
        <ele>1701.8</ele>
        <time>2020-09-12T13:51:09Z</time>
      </trkpt>
      <trkpt lat="42.8284310" lon="-0.1786160">
        <ele>1700.6</ele>
        <time>2020-09-12T13:51:12Z</time>
      </trkpt>
      <trkpt lat="42.8284240" lon="-0.1786130">
        <ele>1700.4</ele>
        <time>2020-09-12T13:51:13Z</time>
      </trkpt>
      <trkpt lat="42.8283990" lon="-0.1786030">
        <ele>1699.4</ele>
        <time>2020-09-12T13:51:16Z</time>
      </trkpt>
      <trkpt lat="42.8283750" lon="-0.1786010">
        <ele>1699.0</ele>
        <time>2020-09-12T13:51:18Z</time>
      </trkpt>
      <trkpt lat="42.8283580" lon="-0.1786090">
        <ele>1698.8</ele>
        <time>2020-09-12T13:51:20Z</time>
      </trkpt>
      <trkpt lat="42.8283290" lon="-0.1786160">
        <ele>1698.4</ele>
        <time>2020-09-12T13:51:22Z</time>
      </trkpt>
      <trkpt lat="42.8283080" lon="-0.1786050">
        <ele>1698.2</ele>
        <time>2020-09-12T13:51:24Z</time>
      </trkpt>
      <trkpt lat="42.8282810" lon="-0.1785880">
        <ele>1698.0</ele>
        <time>2020-09-12T13:51:26Z</time>
      </trkpt>
      <trkpt lat="42.8282680" lon="-0.1785740">
        <ele>1697.8</ele>
        <time>2020-09-12T13:51:28Z</time>
      </trkpt>
      <trkpt lat="42.8282890" lon="-0.1785620">
        <ele>1697.8</ele>
        <time>2020-09-12T13:51:30Z</time>
      </trkpt>
      <trkpt lat="42.8282860" lon="-0.1785450">
        <ele>1697.6</ele>
        <time>2020-09-12T13:51:32Z</time>
      </trkpt>
      <trkpt lat="42.8282840" lon="-0.1785390">
        <ele>1697.4</ele>
        <time>2020-09-12T13:51:33Z</time>
      </trkpt>
      <trkpt lat="42.8282800" lon="-0.1785370">
        <ele>1697.2</ele>
        <time>2020-09-12T13:51:34Z</time>
      </trkpt>
      <trkpt lat="42.8282670" lon="-0.1785330">
        <ele>1696.6</ele>
        <time>2020-09-12T13:51:36Z</time>
      </trkpt>
      <trkpt lat="42.8282490" lon="-0.1785230">
        <ele>1696.2</ele>
        <time>2020-09-12T13:51:37Z</time>
      </trkpt>
      <trkpt lat="42.8282370" lon="-0.1785150">
        <ele>1695.8</ele>
        <time>2020-09-12T13:51:38Z</time>
      </trkpt>
      <trkpt lat="42.8281990" lon="-0.1784820">
        <ele>1695.0</ele>
        <time>2020-09-12T13:51:40Z</time>
      </trkpt>
      <trkpt lat="42.8281550" lon="-0.1784110">
        <ele>1694.0</ele>
        <time>2020-09-12T13:51:43Z</time>
      </trkpt>
      <trkpt lat="42.8281250" lon="-0.1783420">
        <ele>1692.8</ele>
        <time>2020-09-12T13:51:46Z</time>
      </trkpt>
      <trkpt lat="42.8281200" lon="-0.1783290">
        <ele>1692.4</ele>
        <time>2020-09-12T13:51:47Z</time>
      </trkpt>
      <trkpt lat="42.8281040" lon="-0.1783060">
        <ele>1691.8</ele>
        <time>2020-09-12T13:51:49Z</time>
      </trkpt>
      <trkpt lat="42.8281030" lon="-0.1782920">
        <ele>1691.2</ele>
        <time>2020-09-12T13:51:51Z</time>
      </trkpt>
      <trkpt lat="42.8281370" lon="-0.1782900">
        <ele>1690.6</ele>
        <time>2020-09-12T13:51:53Z</time>
      </trkpt>
      <trkpt lat="42.8281590" lon="-0.1782690">
        <ele>1689.4</ele>
        <time>2020-09-12T13:51:56Z</time>
      </trkpt>
      <trkpt lat="42.8281740" lon="-0.1782640">
        <ele>1689.4</ele>
        <time>2020-09-12T13:51:57Z</time>
      </trkpt>
      <trkpt lat="42.8282670" lon="-0.1782080">
        <ele>1688.6</ele>
        <time>2020-09-12T13:52:05Z</time>
      </trkpt>
      <trkpt lat="42.8282840" lon="-0.1782010">
        <ele>1688.4</ele>
        <time>2020-09-12T13:52:06Z</time>
      </trkpt>
      <trkpt lat="42.8283610" lon="-0.1781570">
        <ele>1687.2</ele>
        <time>2020-09-12T13:52:13Z</time>
      </trkpt>
      <trkpt lat="42.8284270" lon="-0.1780870">
        <ele>1686.2</ele>
        <time>2020-09-12T13:52:19Z</time>
      </trkpt>
      <trkpt lat="42.8285050" lon="-0.1780420">
        <ele>1686.2</ele>
        <time>2020-09-12T13:52:25Z</time>
      </trkpt>
      <trkpt lat="42.8286140" lon="-0.1779510">
        <ele>1686.0</ele>
        <time>2020-09-12T13:52:37Z</time>
      </trkpt>
      <trkpt lat="42.8286270" lon="-0.1779330">
        <ele>1686.0</ele>
        <time>2020-09-12T13:52:39Z</time>
      </trkpt>
      <trkpt lat="42.8286800" lon="-0.1777730">
        <ele>1685.2</ele>
        <time>2020-09-12T13:52:49Z</time>
      </trkpt>
      <trkpt lat="42.8286980" lon="-0.1777350">
        <ele>1685.4</ele>
        <time>2020-09-12T13:52:52Z</time>
      </trkpt>
      <trkpt lat="42.8287390" lon="-0.1776790">
        <ele>1685.8</ele>
        <time>2020-09-12T13:52:57Z</time>
      </trkpt>
      <trkpt lat="42.8287800" lon="-0.1775110">
        <ele>1685.0</ele>
        <time>2020-09-12T13:53:08Z</time>
      </trkpt>
      <trkpt lat="42.8287520" lon="-0.1774830">
        <ele>1684.8</ele>
        <time>2020-09-12T13:53:13Z</time>
      </trkpt>
      <trkpt lat="42.8287670" lon="-0.1774620">
        <ele>1684.6</ele>
        <time>2020-09-12T13:53:17Z</time>
      </trkpt>
      <trkpt lat="42.8287740" lon="-0.1774290">
        <ele>1684.8</ele>
        <time>2020-09-12T13:53:20Z</time>
      </trkpt>
      <trkpt lat="42.8288220" lon="-0.1773590">
        <ele>1685.2</ele>
        <time>2020-09-12T13:53:26Z</time>
      </trkpt>
      <trkpt lat="42.8288900" lon="-0.1773280">
        <ele>1684.8</ele>
        <time>2020-09-12T13:53:31Z</time>
      </trkpt>
      <trkpt lat="42.8290490" lon="-0.1772300">
        <ele>1684.4</ele>
        <time>2020-09-12T13:53:42Z</time>
      </trkpt>
      <trkpt lat="42.8291740" lon="-0.1770490">
        <ele>1684.8</ele>
        <time>2020-09-12T13:53:55Z</time>
      </trkpt>
      <trkpt lat="42.8293160" lon="-0.1768890">
        <ele>1684.6</ele>
        <time>2020-09-12T13:54:09Z</time>
      </trkpt>
      <trkpt lat="42.8294860" lon="-0.1768010">
        <ele>1684.6</ele>
        <time>2020-09-12T13:54:19Z</time>
      </trkpt>
      <trkpt lat="42.8295250" lon="-0.1767420">
        <ele>1684.2</ele>
        <time>2020-09-12T13:54:23Z</time>
      </trkpt>
      <trkpt lat="42.8295280" lon="-0.1767020">
        <ele>1683.8</ele>
        <time>2020-09-12T13:54:25Z</time>
      </trkpt>
      <trkpt lat="42.8295950" lon="-0.1766460">
        <ele>1683.2</ele>
        <time>2020-09-12T13:54:31Z</time>
      </trkpt>
      <trkpt lat="42.8296580" lon="-0.1765740">
        <ele>1683.2</ele>
        <time>2020-09-12T13:54:38Z</time>
      </trkpt>
      <trkpt lat="42.8296830" lon="-0.1764360">
        <ele>1683.6</ele>
        <time>2020-09-12T13:54:46Z</time>
      </trkpt>
      <trkpt lat="42.8297010" lon="-0.1763680">
        <ele>1683.4</ele>
        <time>2020-09-12T13:54:50Z</time>
      </trkpt>
      <trkpt lat="42.8297350" lon="-0.1763190">
        <ele>1683.2</ele>
        <time>2020-09-12T13:54:54Z</time>
      </trkpt>
      <trkpt lat="42.8297610" lon="-0.1762460">
        <ele>1682.6</ele>
        <time>2020-09-12T13:54:58Z</time>
      </trkpt>
      <trkpt lat="42.8297780" lon="-0.1762210">
        <ele>1682.6</ele>
        <time>2020-09-12T13:55:00Z</time>
      </trkpt>
      <trkpt lat="42.8298090" lon="-0.1761900">
        <ele>1682.8</ele>
        <time>2020-09-12T13:55:03Z</time>
      </trkpt>
      <trkpt lat="42.8299460" lon="-0.1761490">
        <ele>1682.6</ele>
        <time>2020-09-12T13:55:13Z</time>
      </trkpt>
      <trkpt lat="42.8299910" lon="-0.1761330">
        <ele>1682.6</ele>
        <time>2020-09-12T13:55:17Z</time>
      </trkpt>
      <trkpt lat="42.8300070" lon="-0.1761180">
        <ele>1682.6</ele>
        <time>2020-09-12T13:55:19Z</time>
      </trkpt>
      <trkpt lat="42.8300150" lon="-0.1760960">
        <ele>1682.6</ele>
        <time>2020-09-12T13:55:21Z</time>
      </trkpt>
      <trkpt lat="42.8301270" lon="-0.1760380">
        <ele>1682.6</ele>
        <time>2020-09-12T13:55:30Z</time>
      </trkpt>
      <trkpt lat="42.8301550" lon="-0.1760080">
        <ele>1682.6</ele>
        <time>2020-09-12T13:55:33Z</time>
      </trkpt>
      <trkpt lat="42.8302020" lon="-0.1759860">
        <ele>1683.0</ele>
        <time>2020-09-12T13:55:36Z</time>
      </trkpt>
      <trkpt lat="42.8303050" lon="-0.1758690">
        <ele>1681.8</ele>
        <time>2020-09-12T13:55:44Z</time>
      </trkpt>
      <trkpt lat="42.8303240" lon="-0.1757940">
        <ele>1681.4</ele>
        <time>2020-09-12T13:55:48Z</time>
      </trkpt>
      <trkpt lat="42.8303270" lon="-0.1757390">
        <ele>1681.2</ele>
        <time>2020-09-12T13:55:51Z</time>
      </trkpt>
      <trkpt lat="42.8303330" lon="-0.1756790">
        <ele>1681.0</ele>
        <time>2020-09-12T13:55:54Z</time>
      </trkpt>
      <trkpt lat="42.8303570" lon="-0.1756340">
        <ele>1681.2</ele>
        <time>2020-09-12T13:55:57Z</time>
      </trkpt>
      <trkpt lat="42.8303650" lon="-0.1756000">
        <ele>1681.4</ele>
        <time>2020-09-12T13:55:59Z</time>
      </trkpt>
      <trkpt lat="42.8303640" lon="-0.1755490">
        <ele>1680.8</ele>
        <time>2020-09-12T13:56:02Z</time>
      </trkpt>
      <trkpt lat="42.8303830" lon="-0.1754950">
        <ele>1680.2</ele>
        <time>2020-09-12T13:56:06Z</time>
      </trkpt>
      <trkpt lat="42.8305220" lon="-0.1754320">
        <ele>1680.4</ele>
        <time>2020-09-12T13:56:15Z</time>
      </trkpt>
      <trkpt lat="42.8306870" lon="-0.1753250">
        <ele>1680.4</ele>
        <time>2020-09-12T13:56:26Z</time>
      </trkpt>
      <trkpt lat="42.8306950" lon="-0.1753140">
        <ele>1680.6</ele>
        <time>2020-09-12T13:56:27Z</time>
      </trkpt>
      <trkpt lat="42.8308630" lon="-0.1752470">
        <ele>1681.0</ele>
        <time>2020-09-12T13:56:41Z</time>
      </trkpt>
      <trkpt lat="42.8308640" lon="-0.1751770">
        <ele>1681.0</ele>
        <time>2020-09-12T13:56:45Z</time>
      </trkpt>
      <trkpt lat="42.8308570" lon="-0.1751400">
        <ele>1681.0</ele>
        <time>2020-09-12T13:56:47Z</time>
      </trkpt>
      <trkpt lat="42.8308910" lon="-0.1750850">
        <ele>1681.2</ele>
        <time>2020-09-12T13:56:51Z</time>
      </trkpt>
      <trkpt lat="42.8309260" lon="-0.1750410">
        <ele>1681.0</ele>
        <time>2020-09-12T13:56:55Z</time>
      </trkpt>
      <trkpt lat="42.8309430" lon="-0.1749890">
        <ele>1680.6</ele>
        <time>2020-09-12T13:56:58Z</time>
      </trkpt>
      <trkpt lat="42.8309740" lon="-0.1749200">
        <ele>1680.6</ele>
        <time>2020-09-12T13:57:02Z</time>
      </trkpt>
      <trkpt lat="42.8309890" lon="-0.1748890">
        <ele>1680.6</ele>
        <time>2020-09-12T13:57:04Z</time>
      </trkpt>
      <trkpt lat="42.8311230" lon="-0.1747080">
        <ele>1680.2</ele>
        <time>2020-09-12T13:57:18Z</time>
      </trkpt>
      <trkpt lat="42.8312270" lon="-0.1744960">
        <ele>1680.0</ele>
        <time>2020-09-12T13:57:31Z</time>
      </trkpt>
      <trkpt lat="42.8312770" lon="-0.1744670">
        <ele>1679.8</ele>
        <time>2020-09-12T13:57:34Z</time>
      </trkpt>
      <trkpt lat="42.8313360" lon="-0.1743680">
        <ele>1679.6</ele>
        <time>2020-09-12T13:57:41Z</time>
      </trkpt>
      <trkpt lat="42.8313640" lon="-0.1743330">
        <ele>1679.4</ele>
        <time>2020-09-12T13:57:44Z</time>
      </trkpt>
      <trkpt lat="42.8314140" lon="-0.1742840">
        <ele>1679.2</ele>
        <time>2020-09-12T13:57:49Z</time>
      </trkpt>
      <trkpt lat="42.8314320" lon="-0.1741030">
        <ele>1678.8</ele>
        <time>2020-09-12T13:57:58Z</time>
      </trkpt>
      <trkpt lat="42.8314400" lon="-0.1740930">
        <ele>1678.8</ele>
        <time>2020-09-12T13:57:59Z</time>
      </trkpt>
      <trkpt lat="42.8313810" lon="-0.1739590">
        <ele>1678.6</ele>
        <time>2020-09-12T13:58:04Z</time>
      </trkpt>
      <trkpt lat="42.8313490" lon="-0.1739090">
        <ele>1678.8</ele>
        <time>2020-09-12T13:58:06Z</time>
      </trkpt>
      <trkpt lat="42.8313550" lon="-0.1738890">
        <ele>1678.6</ele>
        <time>2020-09-12T13:58:09Z</time>
      </trkpt>
      <trkpt lat="42.8314110" lon="-0.1736780">
        <ele>1678.6</ele>
        <time>2020-09-12T13:58:27Z</time>
      </trkpt>
      <trkpt lat="42.8315390" lon="-0.1735050">
        <ele>1678.0</ele>
        <time>2020-09-12T13:58:42Z</time>
      </trkpt>
      <trkpt lat="42.8315650" lon="-0.1734780">
        <ele>1678.2</ele>
        <time>2020-09-12T13:58:46Z</time>
      </trkpt>
      <trkpt lat="42.8317490" lon="-0.1734570">
        <ele>1678.2</ele>
        <time>2020-09-12T13:59:01Z</time>
      </trkpt>
      <trkpt lat="42.8318680" lon="-0.1735450">
        <ele>1677.6</ele>
        <time>2020-09-12T13:59:11Z</time>
      </trkpt>
      <trkpt lat="42.8319220" lon="-0.1735420">
        <ele>1677.2</ele>
        <time>2020-09-12T13:59:16Z</time>
      </trkpt>
      <trkpt lat="42.8319540" lon="-0.1734830">
        <ele>1676.8</ele>
        <time>2020-09-12T13:59:20Z</time>
      </trkpt>
      <trkpt lat="42.8319890" lon="-0.1734500">
        <ele>1676.6</ele>
        <time>2020-09-12T13:59:24Z</time>
      </trkpt>
      <trkpt lat="42.8320220" lon="-0.1734190">
        <ele>1676.4</ele>
        <time>2020-09-12T13:59:29Z</time>
      </trkpt>
      <trkpt lat="42.8320480" lon="-0.1733360">
        <ele>1676.6</ele>
        <time>2020-09-12T13:59:33Z</time>
      </trkpt>
      <trkpt lat="42.8322090" lon="-0.1732220">
        <ele>1676.0</ele>
        <time>2020-09-12T13:59:47Z</time>
      </trkpt>
      <trkpt lat="42.8323910" lon="-0.1732370">
        <ele>1675.8</ele>
        <time>2020-09-12T14:00:01Z</time>
      </trkpt>
      <trkpt lat="42.8324510" lon="-0.1732050">
        <ele>1675.8</ele>
        <time>2020-09-12T14:00:06Z</time>
      </trkpt>
      <trkpt lat="42.8326230" lon="-0.1730950">
        <ele>1676.4</ele>
        <time>2020-09-12T14:00:21Z</time>
      </trkpt>
      <trkpt lat="42.8326560" lon="-0.1730950">
        <ele>1676.4</ele>
        <time>2020-09-12T14:00:24Z</time>
      </trkpt>
      <trkpt lat="42.8327870" lon="-0.1730490">
        <ele>1677.2</ele>
        <time>2020-09-12T14:00:34Z</time>
      </trkpt>
      <trkpt lat="42.8328380" lon="-0.1730430">
        <ele>1677.8</ele>
        <time>2020-09-12T14:00:39Z</time>
      </trkpt>
      <trkpt lat="42.8328470" lon="-0.1730450">
        <ele>1678.0</ele>
        <time>2020-09-12T14:00:40Z</time>
      </trkpt>
      <trkpt lat="42.8328560" lon="-0.1730560">
        <ele>1678.6</ele>
        <time>2020-09-12T14:00:42Z</time>
      </trkpt>
      <trkpt lat="42.8328780" lon="-0.1730530">
        <ele>1679.0</ele>
        <time>2020-09-12T14:00:44Z</time>
      </trkpt>
      <trkpt lat="42.8328890" lon="-0.1730510">
        <ele>1679.0</ele>
        <time>2020-09-12T14:00:45Z</time>
      </trkpt>
      <trkpt lat="42.8329370" lon="-0.1730270">
        <ele>1680.0</ele>
        <time>2020-09-12T14:00:51Z</time>
      </trkpt>
      <trkpt lat="42.8329430" lon="-0.1730110">
        <ele>1680.2</ele>
        <time>2020-09-12T14:00:53Z</time>
      </trkpt>
      <trkpt lat="42.8329690" lon="-0.1729960">
        <ele>1680.4</ele>
        <time>2020-09-12T14:00:56Z</time>
      </trkpt>
      <trkpt lat="42.8329960" lon="-0.1729740">
        <ele>1681.0</ele>
        <time>2020-09-12T14:00:59Z</time>
      </trkpt>
      <trkpt lat="42.8330070" lon="-0.1729750">
        <ele>1681.2</ele>
        <time>2020-09-12T14:01:00Z</time>
      </trkpt>
      <trkpt lat="42.8330460" lon="-0.1729690">
        <ele>1682.0</ele>
        <time>2020-09-12T14:01:04Z</time>
      </trkpt>
      <trkpt lat="42.8330550" lon="-0.1729660">
        <ele>1682.2</ele>
        <time>2020-09-12T14:01:05Z</time>
      </trkpt>
      <trkpt lat="42.8330830" lon="-0.1729530">
        <ele>1683.0</ele>
        <time>2020-09-12T14:01:08Z</time>
      </trkpt>
      <trkpt lat="42.8330970" lon="-0.1729480">
        <ele>1683.4</ele>
        <time>2020-09-12T14:01:10Z</time>
      </trkpt>
      <trkpt lat="42.8331220" lon="-0.1729610">
        <ele>1684.2</ele>
        <time>2020-09-12T14:01:13Z</time>
      </trkpt>
      <trkpt lat="42.8331450" lon="-0.1729720">
        <ele>1684.4</ele>
        <time>2020-09-12T14:01:15Z</time>
      </trkpt>
      <trkpt lat="42.8331810" lon="-0.1729970">
        <ele>1685.2</ele>
        <time>2020-09-12T14:01:19Z</time>
      </trkpt>
      <trkpt lat="42.8332090" lon="-0.1730310">
        <ele>1686.0</ele>
        <time>2020-09-12T14:01:22Z</time>
      </trkpt>
      <trkpt lat="42.8332200" lon="-0.1730360">
        <ele>1686.2</ele>
        <time>2020-09-12T14:01:23Z</time>
      </trkpt>
      <trkpt lat="42.8332680" lon="-0.1730610">
        <ele>1687.2</ele>
        <time>2020-09-12T14:01:30Z</time>
      </trkpt>
      <trkpt lat="42.8332710" lon="-0.1730650">
        <ele>1687.4</ele>
        <time>2020-09-12T14:01:31Z</time>
      </trkpt>
      <trkpt lat="42.8333090" lon="-0.1730570">
        <ele>1687.6</ele>
        <time>2020-09-12T14:01:35Z</time>
      </trkpt>
      <trkpt lat="42.8334960" lon="-0.1730560">
        <ele>1686.4</ele>
        <time>2020-09-12T14:01:51Z</time>
      </trkpt>
      <trkpt lat="42.8335120" lon="-0.1730580">
        <ele>1686.4</ele>
        <time>2020-09-12T14:01:52Z</time>
      </trkpt>
      <trkpt lat="42.8335570" lon="-0.1730580">
        <ele>1686.2</ele>
        <time>2020-09-12T14:01:57Z</time>
      </trkpt>
      <trkpt lat="42.8335860" lon="-0.1730470">
        <ele>1686.0</ele>
        <time>2020-09-12T14:02:00Z</time>
      </trkpt>
      <trkpt lat="42.8336750" lon="-0.1730650">
        <ele>1685.8</ele>
        <time>2020-09-12T14:02:08Z</time>
      </trkpt>
      <trkpt lat="42.8337240" lon="-0.1730540">
        <ele>1685.4</ele>
        <time>2020-09-12T14:02:14Z</time>
      </trkpt>
      <trkpt lat="42.8337370" lon="-0.1730580">
        <ele>1685.2</ele>
        <time>2020-09-12T14:02:15Z</time>
      </trkpt>
      <trkpt lat="42.8337490" lon="-0.1730560">
        <ele>1684.8</ele>
        <time>2020-09-12T14:02:16Z</time>
      </trkpt>
      <trkpt lat="42.8337890" lon="-0.1730440">
        <ele>1684.8</ele>
        <time>2020-09-12T14:02:19Z</time>
      </trkpt>
      <trkpt lat="42.8338110" lon="-0.1730350">
        <ele>1685.2</ele>
        <time>2020-09-12T14:02:21Z</time>
      </trkpt>
      <trkpt lat="42.8338350" lon="-0.1730310">
        <ele>1685.4</ele>
        <time>2020-09-12T14:02:23Z</time>
      </trkpt>
      <trkpt lat="42.8339280" lon="-0.1729280">
        <ele>1684.0</ele>
        <time>2020-09-12T14:02:31Z</time>
      </trkpt>
      <trkpt lat="42.8339350" lon="-0.1729220">
        <ele>1684.0</ele>
        <time>2020-09-12T14:02:32Z</time>
      </trkpt>
      <trkpt lat="42.8339760" lon="-0.1729020">
        <ele>1684.4</ele>
        <time>2020-09-12T14:02:36Z</time>
      </trkpt>
      <trkpt lat="42.8340210" lon="-0.1728760">
        <ele>1684.6</ele>
        <time>2020-09-12T14:02:40Z</time>
      </trkpt>
      <trkpt lat="42.8341130" lon="-0.1728350">
        <ele>1684.8</ele>
        <time>2020-09-12T14:02:47Z</time>
      </trkpt>
      <trkpt lat="42.8342370" lon="-0.1727390">
        <ele>1683.6</ele>
        <time>2020-09-12T14:02:59Z</time>
      </trkpt>
      <trkpt lat="42.8342460" lon="-0.1727270">
        <ele>1683.4</ele>
        <time>2020-09-12T14:03:01Z</time>
      </trkpt>
      <trkpt lat="42.8342680" lon="-0.1727100">
        <ele>1683.4</ele>
        <time>2020-09-12T14:03:03Z</time>
      </trkpt>
      <trkpt lat="42.8342870" lon="-0.1726900">
        <ele>1683.8</ele>
        <time>2020-09-12T14:03:05Z</time>
      </trkpt>
      <trkpt lat="42.8343330" lon="-0.1726480">
        <ele>1684.6</ele>
        <time>2020-09-12T14:03:11Z</time>
      </trkpt>
      <trkpt lat="42.8343650" lon="-0.1726260">
        <ele>1685.0</ele>
        <time>2020-09-12T14:03:13Z</time>
      </trkpt>
      <trkpt lat="42.8343900" lon="-0.1726050">
        <ele>1685.2</ele>
        <time>2020-09-12T14:03:15Z</time>
      </trkpt>
      <trkpt lat="42.8344130" lon="-0.1725900">
        <ele>1685.2</ele>
        <time>2020-09-12T14:03:17Z</time>
      </trkpt>
      <trkpt lat="42.8345440" lon="-0.1724820">
        <ele>1685.4</ele>
        <time>2020-09-12T14:03:28Z</time>
      </trkpt>
      <trkpt lat="42.8346200" lon="-0.1724460">
        <ele>1686.2</ele>
        <time>2020-09-12T14:03:33Z</time>
      </trkpt>
      <trkpt lat="42.8346510" lon="-0.1724250">
        <ele>1686.2</ele>
        <time>2020-09-12T14:03:36Z</time>
      </trkpt>
      <trkpt lat="42.8346710" lon="-0.1724110">
        <ele>1686.0</ele>
        <time>2020-09-12T14:03:38Z</time>
      </trkpt>
      <trkpt lat="42.8347290" lon="-0.1723930">
        <ele>1685.0</ele>
        <time>2020-09-12T14:03:42Z</time>
      </trkpt>
      <trkpt lat="42.8348540" lon="-0.1723190">
        <ele>1685.0</ele>
        <time>2020-09-12T14:03:53Z</time>
      </trkpt>
      <trkpt lat="42.8348910" lon="-0.1723090">
        <ele>1685.2</ele>
        <time>2020-09-12T14:03:56Z</time>
      </trkpt>
      <trkpt lat="42.8349980" lon="-0.1722420">
        <ele>1684.2</ele>
        <time>2020-09-12T14:04:07Z</time>
      </trkpt>
      <trkpt lat="42.8350210" lon="-0.1722290">
        <ele>1684.0</ele>
        <time>2020-09-12T14:04:10Z</time>
      </trkpt>
      <trkpt lat="42.8350980" lon="-0.1722060">
        <ele>1684.0</ele>
        <time>2020-09-12T14:04:14Z</time>
      </trkpt>
      <trkpt lat="42.8351510" lon="-0.1721860">
        <ele>1683.6</ele>
        <time>2020-09-12T14:04:18Z</time>
      </trkpt>
      <trkpt lat="42.8351820" lon="-0.1721740">
        <ele>1683.0</ele>
        <time>2020-09-12T14:04:20Z</time>
      </trkpt>
      <trkpt lat="42.8351940" lon="-0.1721690">
        <ele>1682.8</ele>
        <time>2020-09-12T14:04:21Z</time>
      </trkpt>
      <trkpt lat="42.8352130" lon="-0.1721640">
        <ele>1682.6</ele>
        <time>2020-09-12T14:04:22Z</time>
      </trkpt>
      <trkpt lat="42.8352670" lon="-0.1721290">
        <ele>1681.4</ele>
        <time>2020-09-12T14:04:27Z</time>
      </trkpt>
      <trkpt lat="42.8352820" lon="-0.1721250">
        <ele>1681.2</ele>
        <time>2020-09-12T14:04:28Z</time>
      </trkpt>
      <trkpt lat="42.8353340" lon="-0.1721140">
        <ele>1680.6</ele>
        <time>2020-09-12T14:04:31Z</time>
      </trkpt>
      <trkpt lat="42.8353460" lon="-0.1721090">
        <ele>1680.4</ele>
        <time>2020-09-12T14:04:32Z</time>
      </trkpt>
      <trkpt lat="42.8354370" lon="-0.1720820">
        <ele>1681.0</ele>
        <time>2020-09-12T14:04:39Z</time>
      </trkpt>
      <trkpt lat="42.8354590" lon="-0.1720770">
        <ele>1681.2</ele>
        <time>2020-09-12T14:04:41Z</time>
      </trkpt>
      <trkpt lat="42.8354790" lon="-0.1720730">
        <ele>1681.2</ele>
        <time>2020-09-12T14:04:43Z</time>
      </trkpt>
      <trkpt lat="42.8355320" lon="-0.1720580">
        <ele>1680.6</ele>
        <time>2020-09-12T14:04:47Z</time>
      </trkpt>
      <trkpt lat="42.8356420" lon="-0.1720180">
        <ele>1679.2</ele>
        <time>2020-09-12T14:04:56Z</time>
      </trkpt>
      <trkpt lat="42.8357140" lon="-0.1719310">
        <ele>1678.8</ele>
        <time>2020-09-12T14:05:04Z</time>
      </trkpt>
      <trkpt lat="42.8357360" lon="-0.1718830">
        <ele>1678.0</ele>
        <time>2020-09-12T14:05:07Z</time>
      </trkpt>
      <trkpt lat="42.8357490" lon="-0.1718350">
        <ele>1677.6</ele>
        <time>2020-09-12T14:05:09Z</time>
      </trkpt>
      <trkpt lat="42.8357680" lon="-0.1717620">
        <ele>1677.0</ele>
        <time>2020-09-12T14:05:13Z</time>
      </trkpt>
      <trkpt lat="42.8357760" lon="-0.1717180">
        <ele>1676.8</ele>
        <time>2020-09-12T14:05:15Z</time>
      </trkpt>
      <trkpt lat="42.8357550" lon="-0.1716100">
        <ele>1676.0</ele>
        <time>2020-09-12T14:05:21Z</time>
      </trkpt>
      <trkpt lat="42.8357270" lon="-0.1715050">
        <ele>1675.6</ele>
        <time>2020-09-12T14:05:27Z</time>
      </trkpt>
      <trkpt lat="42.8357450" lon="-0.1714130">
        <ele>1675.8</ele>
        <time>2020-09-12T14:05:32Z</time>
      </trkpt>
      <trkpt lat="42.8357360" lon="-0.1713540">
        <ele>1676.2</ele>
        <time>2020-09-12T14:05:35Z</time>
      </trkpt>
      <trkpt lat="42.8357710" lon="-0.1710920">
        <ele>1675.6</ele>
        <time>2020-09-12T14:05:51Z</time>
      </trkpt>
      <trkpt lat="42.8357650" lon="-0.1710540">
        <ele>1675.6</ele>
        <time>2020-09-12T14:05:53Z</time>
      </trkpt>
      <trkpt lat="42.8357410" lon="-0.1708530">
        <ele>1676.6</ele>
        <time>2020-09-12T14:06:06Z</time>
      </trkpt>
      <trkpt lat="42.8357400" lon="-0.1708230">
        <ele>1676.6</ele>
        <time>2020-09-12T14:06:08Z</time>
      </trkpt>
      <trkpt lat="42.8357450" lon="-0.1707730">
        <ele>1676.6</ele>
        <time>2020-09-12T14:06:11Z</time>
      </trkpt>
      <trkpt lat="42.8357580" lon="-0.1707300">
        <ele>1676.6</ele>
        <time>2020-09-12T14:06:14Z</time>
      </trkpt>
      <trkpt lat="42.8357870" lon="-0.1706980">
        <ele>1676.6</ele>
        <time>2020-09-12T14:06:17Z</time>
      </trkpt>
      <trkpt lat="42.8358050" lon="-0.1706830">
        <ele>1676.6</ele>
        <time>2020-09-12T14:06:19Z</time>
      </trkpt>
      <trkpt lat="42.8358660" lon="-0.1706330">
        <ele>1677.0</ele>
        <time>2020-09-12T14:06:26Z</time>
      </trkpt>
      <trkpt lat="42.8359160" lon="-0.1705740">
        <ele>1678.2</ele>
        <time>2020-09-12T14:06:32Z</time>
      </trkpt>
      <trkpt lat="42.8359450" lon="-0.1705060">
        <ele>1678.8</ele>
        <time>2020-09-12T14:06:37Z</time>
      </trkpt>
      <trkpt lat="42.8359570" lon="-0.1704760">
        <ele>1679.2</ele>
        <time>2020-09-12T14:06:40Z</time>
      </trkpt>
      <trkpt lat="42.8360700" lon="-0.1703370">
        <ele>1680.0</ele>
        <time>2020-09-12T14:06:52Z</time>
      </trkpt>
      <trkpt lat="42.8361140" lon="-0.1702830">
        <ele>1680.2</ele>
        <time>2020-09-12T14:06:57Z</time>
      </trkpt>
      <trkpt lat="42.8361930" lon="-0.1701890">
        <ele>1680.8</ele>
        <time>2020-09-12T14:07:05Z</time>
      </trkpt>
      <trkpt lat="42.8363040" lon="-0.1701160">
        <ele>1680.6</ele>
        <time>2020-09-12T14:07:14Z</time>
      </trkpt>
      <trkpt lat="42.8363440" lon="-0.1700840">
        <ele>1680.2</ele>
        <time>2020-09-12T14:07:17Z</time>
      </trkpt>
      <trkpt lat="42.8364130" lon="-0.1699920">
        <ele>1679.2</ele>
        <time>2020-09-12T14:07:25Z</time>
      </trkpt>
      <trkpt lat="42.8364060" lon="-0.1698680">
        <ele>1678.0</ele>
        <time>2020-09-12T14:07:31Z</time>
      </trkpt>
      <trkpt lat="42.8364120" lon="-0.1698110">
        <ele>1677.8</ele>
        <time>2020-09-12T14:07:34Z</time>
      </trkpt>
      <trkpt lat="42.8364170" lon="-0.1697560">
        <ele>1677.4</ele>
        <time>2020-09-12T14:07:37Z</time>
      </trkpt>
      <trkpt lat="42.8364210" lon="-0.1697400">
        <ele>1677.0</ele>
        <time>2020-09-12T14:07:38Z</time>
      </trkpt>
      <trkpt lat="42.8364230" lon="-0.1697240">
        <ele>1676.6</ele>
        <time>2020-09-12T14:07:39Z</time>
      </trkpt>
      <trkpt lat="42.8364220" lon="-0.1696890">
        <ele>1675.8</ele>
        <time>2020-09-12T14:07:41Z</time>
      </trkpt>
      <trkpt lat="42.8364070" lon="-0.1696140">
        <ele>1674.8</ele>
        <time>2020-09-12T14:07:45Z</time>
      </trkpt>
      <trkpt lat="42.8364080" lon="-0.1695930">
        <ele>1674.4</ele>
        <time>2020-09-12T14:07:46Z</time>
      </trkpt>
      <trkpt lat="42.8364430" lon="-0.1695290">
        <ele>1673.6</ele>
        <time>2020-09-12T14:07:49Z</time>
      </trkpt>
      <trkpt lat="42.8364860" lon="-0.1694210">
        <ele>1672.6</ele>
        <time>2020-09-12T14:07:55Z</time>
      </trkpt>
      <trkpt lat="42.8365920" lon="-0.1692150">
        <ele>1672.2</ele>
        <time>2020-09-12T14:08:08Z</time>
      </trkpt>
      <trkpt lat="42.8366990" lon="-0.1690150">
        <ele>1672.4</ele>
        <time>2020-09-12T14:08:22Z</time>
      </trkpt>
      <trkpt lat="42.8367390" lon="-0.1688710">
        <ele>1673.4</ele>
        <time>2020-09-12T14:08:31Z</time>
      </trkpt>
      <trkpt lat="42.8367690" lon="-0.1688480">
        <ele>1673.6</ele>
        <time>2020-09-12T14:08:34Z</time>
      </trkpt>
      <trkpt lat="42.8368760" lon="-0.1687590">
        <ele>1674.8</ele>
        <time>2020-09-12T14:08:44Z</time>
      </trkpt>
      <trkpt lat="42.8369070" lon="-0.1687000">
        <ele>1675.6</ele>
        <time>2020-09-12T14:08:48Z</time>
      </trkpt>
      <trkpt lat="42.8369220" lon="-0.1686760">
        <ele>1675.6</ele>
        <time>2020-09-12T14:08:50Z</time>
      </trkpt>
      <trkpt lat="42.8369460" lon="-0.1686320">
        <ele>1675.6</ele>
        <time>2020-09-12T14:08:53Z</time>
      </trkpt>
      <trkpt lat="42.8369670" lon="-0.1685620">
        <ele>1675.6</ele>
        <time>2020-09-12T14:08:57Z</time>
      </trkpt>
      <trkpt lat="42.8370300" lon="-0.1684470">
        <ele>1675.8</ele>
        <time>2020-09-12T14:09:06Z</time>
      </trkpt>
      <trkpt lat="42.8370430" lon="-0.1683900">
        <ele>1675.8</ele>
        <time>2020-09-12T14:09:10Z</time>
      </trkpt>
      <trkpt lat="42.8370490" lon="-0.1683740">
        <ele>1676.0</ele>
        <time>2020-09-12T14:09:11Z</time>
      </trkpt>
      <trkpt lat="42.8370600" lon="-0.1683620">
        <ele>1676.0</ele>
        <time>2020-09-12T14:09:12Z</time>
      </trkpt>
      <trkpt lat="42.8370800" lon="-0.1683380">
        <ele>1676.0</ele>
        <time>2020-09-12T14:09:14Z</time>
      </trkpt>
      <trkpt lat="42.8370800" lon="-0.1682690">
        <ele>1675.8</ele>
        <time>2020-09-12T14:09:18Z</time>
      </trkpt>
      <trkpt lat="42.8371040" lon="-0.1682400">
        <ele>1674.8</ele>
        <time>2020-09-12T14:09:22Z</time>
      </trkpt>
      <trkpt lat="42.8371090" lon="-0.1682380">
        <ele>1674.4</ele>
        <time>2020-09-12T14:09:24Z</time>
      </trkpt>
      <trkpt lat="42.8371390" lon="-0.1682190">
        <ele>1674.0</ele>
        <time>2020-09-12T14:09:31Z</time>
      </trkpt>
      <trkpt lat="42.8371470" lon="-0.1682160">
        <ele>1673.8</ele>
        <time>2020-09-12T14:09:32Z</time>
      </trkpt>
      <trkpt lat="42.8371530" lon="-0.1681820">
        <ele>1672.8</ele>
        <time>2020-09-12T14:09:38Z</time>
      </trkpt>
      <trkpt lat="42.8372060" lon="-0.1681820">
        <ele>1671.6</ele>
        <time>2020-09-12T14:10:00Z</time>
      </trkpt>
      <trkpt lat="42.8371960" lon="-0.1681350">
        <ele>1670.4</ele>
        <time>2020-09-12T14:10:05Z</time>
      </trkpt>
      <trkpt lat="42.8371650" lon="-0.1680750">
        <ele>1669.6</ele>
        <time>2020-09-12T14:10:11Z</time>
      </trkpt>
      <trkpt lat="42.8371560" lon="-0.1680670">
        <ele>1669.4</ele>
        <time>2020-09-12T14:10:12Z</time>
      </trkpt>
      <trkpt lat="42.8371510" lon="-0.1680620">
        <ele>1669.2</ele>
        <time>2020-09-12T14:10:13Z</time>
      </trkpt>
      <trkpt lat="42.8371450" lon="-0.1680300">
        <ele>1668.2</ele>
        <time>2020-09-12T14:10:17Z</time>
      </trkpt>
      <trkpt lat="42.8371710" lon="-0.1680130">
        <ele>1667.6</ele>
        <time>2020-09-12T14:10:21Z</time>
      </trkpt>
      <trkpt lat="42.8371590" lon="-0.1680080">
        <ele>1667.2</ele>
        <time>2020-09-12T14:10:30Z</time>
      </trkpt>
      <trkpt lat="42.8371900" lon="-0.1680370">
        <ele>1666.2</ele>
        <time>2020-09-12T14:10:37Z</time>
      </trkpt>
      <trkpt lat="42.8372280" lon="-0.1679710">
        <ele>1665.0</ele>
        <time>2020-09-12T14:10:45Z</time>
      </trkpt>
      <trkpt lat="42.8372420" lon="-0.1679570">
        <ele>1664.6</ele>
        <time>2020-09-12T14:10:47Z</time>
      </trkpt>
      <trkpt lat="42.8372620" lon="-0.1679560">
        <ele>1664.2</ele>
        <time>2020-09-12T14:10:50Z</time>
      </trkpt>
      <trkpt lat="42.8372970" lon="-0.1679750">
        <ele>1663.8</ele>
        <time>2020-09-12T14:10:54Z</time>
      </trkpt>
      <trkpt lat="42.8373260" lon="-0.1679850">
        <ele>1662.8</ele>
        <time>2020-09-12T14:10:57Z</time>
      </trkpt>
      <trkpt lat="42.8373600" lon="-0.1679870">
        <ele>1662.6</ele>
        <time>2020-09-12T14:10:59Z</time>
      </trkpt>
      <trkpt lat="42.8374260" lon="-0.1679950">
        <ele>1661.8</ele>
        <time>2020-09-12T14:11:04Z</time>
      </trkpt>
      <trkpt lat="42.8374570" lon="-0.1679830">
        <ele>1660.6</ele>
        <time>2020-09-12T14:11:08Z</time>
      </trkpt>
      <trkpt lat="42.8374570" lon="-0.1679750">
        <ele>1660.4</ele>
        <time>2020-09-12T14:11:09Z</time>
      </trkpt>
      <trkpt lat="42.8374710" lon="-0.1679420">
        <ele>1659.8</ele>
        <time>2020-09-12T14:11:13Z</time>
      </trkpt>
      <trkpt lat="42.8374690" lon="-0.1679390">
        <ele>1659.4</ele>
        <time>2020-09-12T14:11:15Z</time>
      </trkpt>
      <trkpt lat="42.8374720" lon="-0.1679360">
        <ele>1659.0</ele>
        <time>2020-09-12T14:11:17Z</time>
      </trkpt>
      <trkpt lat="42.8374640" lon="-0.1679250">
        <ele>1658.6</ele>
        <time>2020-09-12T14:11:19Z</time>
      </trkpt>
      <trkpt lat="42.8375040" lon="-0.1679470">
        <ele>1658.2</ele>
        <time>2020-09-12T14:11:21Z</time>
      </trkpt>
      <trkpt lat="42.8375090" lon="-0.1679410">
        <ele>1658.0</ele>
        <time>2020-09-12T14:11:23Z</time>
      </trkpt>
      <trkpt lat="42.8375440" lon="-0.1679260">
        <ele>1657.0</ele>
        <time>2020-09-12T14:11:27Z</time>
      </trkpt>
      <trkpt lat="42.8375510" lon="-0.1679300">
        <ele>1655.8</ele>
        <time>2020-09-12T14:11:33Z</time>
      </trkpt>
      <trkpt lat="42.8375580" lon="-0.1679010">
        <ele>1654.6</ele>
        <time>2020-09-12T14:11:40Z</time>
      </trkpt>
      <trkpt lat="42.8375590" lon="-0.1678110">
        <ele>1653.6</ele>
        <time>2020-09-12T14:11:45Z</time>
      </trkpt>
      <trkpt lat="42.8375720" lon="-0.1677670">
        <ele>1652.4</ele>
        <time>2020-09-12T14:11:49Z</time>
      </trkpt>
      <trkpt lat="42.8375620" lon="-0.1677070">
        <ele>1651.4</ele>
        <time>2020-09-12T14:11:53Z</time>
      </trkpt>
      <trkpt lat="42.8375600" lon="-0.1676890">
        <ele>1651.0</ele>
        <time>2020-09-12T14:11:55Z</time>
      </trkpt>
      <trkpt lat="42.8375770" lon="-0.1676710">
        <ele>1650.4</ele>
        <time>2020-09-12T14:11:58Z</time>
      </trkpt>
      <trkpt lat="42.8375710" lon="-0.1675900">
        <ele>1649.2</ele>
        <time>2020-09-12T14:12:04Z</time>
      </trkpt>
      <trkpt lat="42.8375750" lon="-0.1675730">
        <ele>1648.8</ele>
        <time>2020-09-12T14:12:06Z</time>
      </trkpt>
      <trkpt lat="42.8376050" lon="-0.1675220">
        <ele>1648.0</ele>
        <time>2020-09-12T14:12:12Z</time>
      </trkpt>
      <trkpt lat="42.8376150" lon="-0.1675070">
        <ele>1647.4</ele>
        <time>2020-09-12T14:12:14Z</time>
      </trkpt>
      <trkpt lat="42.8376170" lon="-0.1674880">
        <ele>1646.6</ele>
        <time>2020-09-12T14:12:16Z</time>
      </trkpt>
      <trkpt lat="42.8376240" lon="-0.1674390">
        <ele>1645.4</ele>
        <time>2020-09-12T14:12:21Z</time>
      </trkpt>
      <trkpt lat="42.8376410" lon="-0.1673990">
        <ele>1644.4</ele>
        <time>2020-09-12T14:12:24Z</time>
      </trkpt>
      <trkpt lat="42.8376450" lon="-0.1673910">
        <ele>1644.2</ele>
        <time>2020-09-12T14:12:25Z</time>
      </trkpt>
      <trkpt lat="42.8376880" lon="-0.1673480">
        <ele>1643.0</ele>
        <time>2020-09-12T14:12:30Z</time>
      </trkpt>
      <trkpt lat="42.8377150" lon="-0.1673450">
        <ele>1641.8</ele>
        <time>2020-09-12T14:12:34Z</time>
      </trkpt>
      <trkpt lat="42.8377340" lon="-0.1673900">
        <ele>1640.6</ele>
        <time>2020-09-12T14:12:38Z</time>
      </trkpt>
      <trkpt lat="42.8377460" lon="-0.1674380">
        <ele>1639.2</ele>
        <time>2020-09-12T14:12:42Z</time>
      </trkpt>
      <trkpt lat="42.8377490" lon="-0.1674670">
        <ele>1638.8</ele>
        <time>2020-09-12T14:12:44Z</time>
      </trkpt>
      <trkpt lat="42.8377630" lon="-0.1675090">
        <ele>1638.0</ele>
        <time>2020-09-12T14:12:47Z</time>
      </trkpt>
      <trkpt lat="42.8378030" lon="-0.1675850">
        <ele>1637.0</ele>
        <time>2020-09-12T14:12:53Z</time>
      </trkpt>
      <trkpt lat="42.8378430" lon="-0.1676450">
        <ele>1636.0</ele>
        <time>2020-09-12T14:12:58Z</time>
      </trkpt>
      <trkpt lat="42.8378590" lon="-0.1676680">
        <ele>1635.8</ele>
        <time>2020-09-12T14:13:00Z</time>
      </trkpt>
      <trkpt lat="42.8379540" lon="-0.1677290">
        <ele>1634.8</ele>
        <time>2020-09-12T14:13:10Z</time>
      </trkpt>
      <trkpt lat="42.8379710" lon="-0.1677360">
        <ele>1634.4</ele>
        <time>2020-09-12T14:13:12Z</time>
      </trkpt>
      <trkpt lat="42.8380150" lon="-0.1677680">
        <ele>1633.6</ele>
        <time>2020-09-12T14:13:17Z</time>
      </trkpt>
      <trkpt lat="42.8380180" lon="-0.1677820">
        <ele>1633.4</ele>
        <time>2020-09-12T14:13:18Z</time>
      </trkpt>
      <trkpt lat="42.8380280" lon="-0.1677860">
        <ele>1633.2</ele>
        <time>2020-09-12T14:13:20Z</time>
      </trkpt>
      <trkpt lat="42.8380830" lon="-0.1677710">
        <ele>1632.8</ele>
        <time>2020-09-12T14:13:23Z</time>
      </trkpt>
      <trkpt lat="42.8380970" lon="-0.1677670">
        <ele>1632.6</ele>
        <time>2020-09-12T14:13:25Z</time>
      </trkpt>
      <trkpt lat="42.8380950" lon="-0.1677650">
        <ele>1632.6</ele>
        <time>2020-09-12T14:13:26Z</time>
      </trkpt>
      <trkpt lat="42.8380910" lon="-0.1677670">
        <ele>1632.4</ele>
        <time>2020-09-12T14:13:27Z</time>
      </trkpt>
      <trkpt lat="42.8381030" lon="-0.1677630">
        <ele>1631.6</ele>
        <time>2020-09-12T14:13:31Z</time>
      </trkpt>
      <trkpt lat="42.8381070" lon="-0.1677570">
        <ele>1631.6</ele>
        <time>2020-09-12T14:13:33Z</time>
      </trkpt>
      <trkpt lat="42.8380880" lon="-0.1677350">
        <ele>1631.6</ele>
        <time>2020-09-12T14:13:37Z</time>
      </trkpt>
      <trkpt lat="42.8380900" lon="-0.1677370">
        <ele>1631.4</ele>
        <time>2020-09-12T14:13:38Z</time>
      </trkpt>
      <trkpt lat="42.8381070" lon="-0.1677510">
        <ele>1630.8</ele>
        <time>2020-09-12T14:13:41Z</time>
      </trkpt>
      <trkpt lat="42.8381120" lon="-0.1677610">
        <ele>1630.6</ele>
        <time>2020-09-12T14:13:43Z</time>
      </trkpt>
      <trkpt lat="42.8381080" lon="-0.1677640">
        <ele>1630.2</ele>
        <time>2020-09-12T14:13:44Z</time>
      </trkpt>
      <trkpt lat="42.8381750" lon="-0.1677950">
        <ele>1629.0</ele>
        <time>2020-09-12T14:13:49Z</time>
      </trkpt>
      <trkpt lat="42.8381980" lon="-0.1677940">
        <ele>1628.6</ele>
        <time>2020-09-12T14:13:50Z</time>
      </trkpt>
      <trkpt lat="42.8382380" lon="-0.1677950">
        <ele>1628.0</ele>
        <time>2020-09-12T14:13:53Z</time>
      </trkpt>
      <trkpt lat="42.8382670" lon="-0.1677970">
        <ele>1627.2</ele>
        <time>2020-09-12T14:13:57Z</time>
      </trkpt>
      <trkpt lat="42.8382690" lon="-0.1677950">
        <ele>1626.8</ele>
        <time>2020-09-12T14:13:58Z</time>
      </trkpt>
      <trkpt lat="42.8382780" lon="-0.1677920">
        <ele>1626.6</ele>
        <time>2020-09-12T14:13:59Z</time>
      </trkpt>
      <trkpt lat="42.8383200" lon="-0.1677570">
        <ele>1625.8</ele>
        <time>2020-09-12T14:14:04Z</time>
      </trkpt>
      <trkpt lat="42.8383330" lon="-0.1677470">
        <ele>1625.6</ele>
        <time>2020-09-12T14:14:05Z</time>
      </trkpt>
      <trkpt lat="42.8383340" lon="-0.1677400">
        <ele>1624.6</ele>
        <time>2020-09-12T14:14:09Z</time>
      </trkpt>
      <trkpt lat="42.8381390" lon="-0.1676320">
        <ele>1624.4</ele>
        <time>2020-09-12T14:14:18Z</time>
      </trkpt>
      <trkpt lat="42.8381670" lon="-0.1676430">
        <ele>1624.2</ele>
        <time>2020-09-12T14:14:20Z</time>
      </trkpt>
      <trkpt lat="42.8382530" lon="-0.1676460">
        <ele>1623.8</ele>
        <time>2020-09-12T14:14:24Z</time>
      </trkpt>
      <trkpt lat="42.8382830" lon="-0.1676490">
        <ele>1623.6</ele>
        <time>2020-09-12T14:14:26Z</time>
      </trkpt>
      <trkpt lat="42.8383650" lon="-0.1676510">
        <ele>1623.0</ele>
        <time>2020-09-12T14:14:30Z</time>
      </trkpt>
      <trkpt lat="42.8383880" lon="-0.1676490">
        <ele>1622.6</ele>
        <time>2020-09-12T14:14:32Z</time>
      </trkpt>
      <trkpt lat="42.8384990" lon="-0.1676500">
        <ele>1621.4</ele>
        <time>2020-09-12T14:14:39Z</time>
      </trkpt>
      <trkpt lat="42.8385120" lon="-0.1676590">
        <ele>1621.2</ele>
        <time>2020-09-12T14:14:40Z</time>
      </trkpt>
      <trkpt lat="42.8385340" lon="-0.1676510">
        <ele>1620.8</ele>
        <time>2020-09-12T14:14:42Z</time>
      </trkpt>
      <trkpt lat="42.8385750" lon="-0.1676100">
        <ele>1620.4</ele>
        <time>2020-09-12T14:14:46Z</time>
      </trkpt>
      <trkpt lat="42.8385840" lon="-0.1675970">
        <ele>1620.0</ele>
        <time>2020-09-12T14:14:47Z</time>
      </trkpt>
      <trkpt lat="42.8386200" lon="-0.1675490">
        <ele>1619.2</ele>
        <time>2020-09-12T14:14:51Z</time>
      </trkpt>
      <trkpt lat="42.8386790" lon="-0.1675530">
        <ele>1618.0</ele>
        <time>2020-09-12T14:14:57Z</time>
      </trkpt>
      <trkpt lat="42.8387160" lon="-0.1675520">
        <ele>1617.0</ele>
        <time>2020-09-12T14:15:02Z</time>
      </trkpt>
      <trkpt lat="42.8387130" lon="-0.1675530">
        <ele>1616.8</ele>
        <time>2020-09-12T14:15:03Z</time>
      </trkpt>
      <trkpt lat="42.8387130" lon="-0.1676250">
        <ele>1616.0</ele>
        <time>2020-09-12T14:15:09Z</time>
      </trkpt>
      <trkpt lat="42.8386980" lon="-0.1676470">
        <ele>1615.8</ele>
        <time>2020-09-12T14:15:11Z</time>
      </trkpt>
      <trkpt lat="42.8386760" lon="-0.1676630">
        <ele>1615.6</ele>
        <time>2020-09-12T14:15:13Z</time>
      </trkpt>
      <trkpt lat="42.8386700" lon="-0.1676960">
        <ele>1614.6</ele>
        <time>2020-09-12T14:15:16Z</time>
      </trkpt>
      <trkpt lat="42.8386780" lon="-0.1677970">
        <ele>1613.4</ele>
        <time>2020-09-12T14:15:21Z</time>
      </trkpt>
      <trkpt lat="42.8387290" lon="-0.1678740">
        <ele>1612.4</ele>
        <time>2020-09-12T14:15:27Z</time>
      </trkpt>
      <trkpt lat="42.8387810" lon="-0.1679320">
        <ele>1611.4</ele>
        <time>2020-09-12T14:15:32Z</time>
      </trkpt>
      <trkpt lat="42.8388670" lon="-0.1680050">
        <ele>1610.2</ele>
        <time>2020-09-12T14:15:38Z</time>
      </trkpt>
      <trkpt lat="42.8389340" lon="-0.1680510">
        <ele>1609.2</ele>
        <time>2020-09-12T14:15:44Z</time>
      </trkpt>
      <trkpt lat="42.8389760" lon="-0.1680970">
        <ele>1608.8</ele>
        <time>2020-09-12T14:15:49Z</time>
      </trkpt>
      <trkpt lat="42.8389760" lon="-0.1681330">
        <ele>1608.6</ele>
        <time>2020-09-12T14:15:52Z</time>
      </trkpt>
      <trkpt lat="42.8389870" lon="-0.1681840">
        <ele>1608.0</ele>
        <time>2020-09-12T14:15:56Z</time>
      </trkpt>
      <trkpt lat="42.8389530" lon="-0.1682460">
        <ele>1607.0</ele>
        <time>2020-09-12T14:16:02Z</time>
      </trkpt>
      <trkpt lat="42.8389300" lon="-0.1682940">
        <ele>1606.0</ele>
        <time>2020-09-12T14:16:06Z</time>
      </trkpt>
      <trkpt lat="42.8389490" lon="-0.1683620">
        <ele>1605.0</ele>
        <time>2020-09-12T14:16:10Z</time>
      </trkpt>
      <trkpt lat="42.8389580" lon="-0.1683700">
        <ele>1604.8</ele>
        <time>2020-09-12T14:16:11Z</time>
      </trkpt>
      <trkpt lat="42.8389860" lon="-0.1684080">
        <ele>1604.0</ele>
        <time>2020-09-12T14:16:14Z</time>
      </trkpt>
      <trkpt lat="42.8389980" lon="-0.1684180">
        <ele>1603.8</ele>
        <time>2020-09-12T14:16:15Z</time>
      </trkpt>
      <trkpt lat="42.8390830" lon="-0.1685000">
        <ele>1602.6</ele>
        <time>2020-09-12T14:16:22Z</time>
      </trkpt>
      <trkpt lat="42.8391320" lon="-0.1685290">
        <ele>1602.2</ele>
        <time>2020-09-12T14:16:27Z</time>
      </trkpt>
      <trkpt lat="42.8391740" lon="-0.1685250">
        <ele>1601.6</ele>
        <time>2020-09-12T14:16:31Z</time>
      </trkpt>
      <trkpt lat="42.8392270" lon="-0.1685700">
        <ele>1600.6</ele>
        <time>2020-09-12T14:16:36Z</time>
      </trkpt>
      <trkpt lat="42.8393010" lon="-0.1686710">
        <ele>1599.4</ele>
        <time>2020-09-12T14:16:43Z</time>
      </trkpt>
      <trkpt lat="42.8393290" lon="-0.1687450">
        <ele>1598.4</ele>
        <time>2020-09-12T14:16:48Z</time>
      </trkpt>
      <trkpt lat="42.8394550" lon="-0.1689320">
        <ele>1597.6</ele>
        <time>2020-09-12T14:17:02Z</time>
      </trkpt>
      <trkpt lat="42.8394740" lon="-0.1689450">
        <ele>1597.2</ele>
        <time>2020-09-12T14:17:04Z</time>
      </trkpt>
      <trkpt lat="42.8396490" lon="-0.1690200">
        <ele>1596.6</ele>
        <time>2020-09-12T14:17:17Z</time>
      </trkpt>
      <trkpt lat="42.8397710" lon="-0.1689510">
        <ele>1596.2</ele>
        <time>2020-09-12T14:17:25Z</time>
      </trkpt>
      <trkpt lat="42.8399230" lon="-0.1688710">
        <ele>1595.0</ele>
        <time>2020-09-12T14:17:38Z</time>
      </trkpt>
      <trkpt lat="42.8399340" lon="-0.1688700">
        <ele>1595.0</ele>
        <time>2020-09-12T14:17:39Z</time>
      </trkpt>
      <trkpt lat="42.8399620" lon="-0.1688690">
        <ele>1595.2</ele>
        <time>2020-09-12T14:17:42Z</time>
      </trkpt>
      <trkpt lat="42.8399700" lon="-0.1688710">
        <ele>1595.6</ele>
        <time>2020-09-12T14:17:45Z</time>
      </trkpt>
      <trkpt lat="42.8401280" lon="-0.1687780">
        <ele>1595.0</ele>
        <time>2020-09-12T14:18:04Z</time>
      </trkpt>
      <trkpt lat="42.8403040" lon="-0.1687370">
        <ele>1594.8</ele>
        <time>2020-09-12T14:18:18Z</time>
      </trkpt>
      <trkpt lat="42.8404730" lon="-0.1686310">
        <ele>1594.4</ele>
        <time>2020-09-12T14:18:33Z</time>
      </trkpt>
      <trkpt lat="42.8405890" lon="-0.1684240">
        <ele>1594.0</ele>
        <time>2020-09-12T14:18:47Z</time>
      </trkpt>
      <trkpt lat="42.8405870" lon="-0.1684080">
        <ele>1594.0</ele>
        <time>2020-09-12T14:18:48Z</time>
      </trkpt>
      <trkpt lat="42.8406460" lon="-0.1683040">
        <ele>1593.8</ele>
        <time>2020-09-12T14:18:55Z</time>
      </trkpt>
      <trkpt lat="42.8406760" lon="-0.1681760">
        <ele>1593.4</ele>
        <time>2020-09-12T14:19:02Z</time>
      </trkpt>
      <trkpt lat="42.8407620" lon="-0.1680320">
        <ele>1593.4</ele>
        <time>2020-09-12T14:19:11Z</time>
      </trkpt>
      <trkpt lat="42.8408340" lon="-0.1678970">
        <ele>1593.0</ele>
        <time>2020-09-12T14:19:19Z</time>
      </trkpt>
      <trkpt lat="42.8409190" lon="-0.1676820">
        <ele>1593.0</ele>
        <time>2020-09-12T14:19:32Z</time>
      </trkpt>
      <trkpt lat="42.8410410" lon="-0.1674920">
        <ele>1592.2</ele>
        <time>2020-09-12T14:19:46Z</time>
      </trkpt>
      <trkpt lat="42.8410600" lon="-0.1674660">
        <ele>1592.0</ele>
        <time>2020-09-12T14:19:48Z</time>
      </trkpt>
      <trkpt lat="42.8410690" lon="-0.1674340">
        <ele>1591.8</ele>
        <time>2020-09-12T14:19:50Z</time>
      </trkpt>
      <trkpt lat="42.8411320" lon="-0.1673170">
        <ele>1591.8</ele>
        <time>2020-09-12T14:19:57Z</time>
      </trkpt>
      <trkpt lat="42.8411700" lon="-0.1671600">
        <ele>1592.2</ele>
        <time>2020-09-12T14:20:06Z</time>
      </trkpt>
      <trkpt lat="42.8412890" lon="-0.1669770">
        <ele>1592.2</ele>
        <time>2020-09-12T14:20:19Z</time>
      </trkpt>
      <trkpt lat="42.8414080" lon="-0.1667810">
        <ele>1591.8</ele>
        <time>2020-09-12T14:20:33Z</time>
      </trkpt>
      <trkpt lat="42.8415660" lon="-0.1666590">
        <ele>1591.8</ele>
        <time>2020-09-12T14:20:45Z</time>
      </trkpt>
      <trkpt lat="42.8417080" lon="-0.1664920">
        <ele>1591.8</ele>
        <time>2020-09-12T14:21:00Z</time>
      </trkpt>
      <trkpt lat="42.8417430" lon="-0.1664560">
        <ele>1591.8</ele>
        <time>2020-09-12T14:21:03Z</time>
      </trkpt>
      <trkpt lat="42.8417830" lon="-0.1664000">
        <ele>1590.8</ele>
        <time>2020-09-12T14:21:07Z</time>
      </trkpt>
      <trkpt lat="42.8418980" lon="-0.1661920">
        <ele>1590.4</ele>
        <time>2020-09-12T14:21:21Z</time>
      </trkpt>
      <trkpt lat="42.8419800" lon="-0.1661000">
        <ele>1589.6</ele>
        <time>2020-09-12T14:21:28Z</time>
      </trkpt>
      <trkpt lat="42.8421210" lon="-0.1659420">
        <ele>1590.0</ele>
        <time>2020-09-12T14:21:42Z</time>
      </trkpt>
      <trkpt lat="42.8422750" lon="-0.1658140">
        <ele>1589.6</ele>
        <time>2020-09-12T14:21:56Z</time>
      </trkpt>
      <trkpt lat="42.8424560" lon="-0.1657450">
        <ele>1589.0</ele>
        <time>2020-09-12T14:22:09Z</time>
      </trkpt>
      <trkpt lat="42.8426390" lon="-0.1656930">
        <ele>1590.0</ele>
        <time>2020-09-12T14:22:24Z</time>
      </trkpt>
      <trkpt lat="42.8427700" lon="-0.1656300">
        <ele>1588.6</ele>
        <time>2020-09-12T14:22:35Z</time>
      </trkpt>
      <trkpt lat="42.8429330" lon="-0.1654950">
        <ele>1589.0</ele>
        <time>2020-09-12T14:22:48Z</time>
      </trkpt>
      <trkpt lat="42.8431190" lon="-0.1654470">
        <ele>1588.2</ele>
        <time>2020-09-12T14:23:03Z</time>
      </trkpt>
      <trkpt lat="42.8433060" lon="-0.1654030">
        <ele>1588.0</ele>
        <time>2020-09-12T14:23:18Z</time>
      </trkpt>
      <trkpt lat="42.8434810" lon="-0.1653570">
        <ele>1587.8</ele>
        <time>2020-09-12T14:23:30Z</time>
      </trkpt>
      <trkpt lat="42.8436640" lon="-0.1652970">
        <ele>1588.6</ele>
        <time>2020-09-12T14:23:44Z</time>
      </trkpt>
      <trkpt lat="42.8438440" lon="-0.1652910">
        <ele>1588.8</ele>
        <time>2020-09-12T14:23:58Z</time>
      </trkpt>
      <trkpt lat="42.8440300" lon="-0.1653400">
        <ele>1589.6</ele>
        <time>2020-09-12T14:24:12Z</time>
      </trkpt>
      <trkpt lat="42.8440720" lon="-0.1653440">
        <ele>1589.4</ele>
        <time>2020-09-12T14:24:15Z</time>
      </trkpt>
      <trkpt lat="42.8441230" lon="-0.1653440">
        <ele>1589.2</ele>
        <time>2020-09-12T14:24:19Z</time>
      </trkpt>
      <trkpt lat="42.8443120" lon="-0.1653410">
        <ele>1589.4</ele>
        <time>2020-09-12T14:24:33Z</time>
      </trkpt>
      <trkpt lat="42.8444910" lon="-0.1653010">
        <ele>1589.0</ele>
        <time>2020-09-12T14:24:46Z</time>
      </trkpt>
      <trkpt lat="42.8445940" lon="-0.1652650">
        <ele>1589.6</ele>
        <time>2020-09-12T14:24:54Z</time>
      </trkpt>
      <trkpt lat="42.8447170" lon="-0.1652210">
        <ele>1588.6</ele>
        <time>2020-09-12T14:25:04Z</time>
      </trkpt>
      <trkpt lat="42.8448970" lon="-0.1651530">
        <ele>1587.8</ele>
        <time>2020-09-12T14:25:17Z</time>
      </trkpt>
      <trkpt lat="42.8450710" lon="-0.1650660">
        <ele>1588.0</ele>
        <time>2020-09-12T14:25:30Z</time>
      </trkpt>
      <trkpt lat="42.8451980" lon="-0.1650160">
        <ele>1587.4</ele>
        <time>2020-09-12T14:25:40Z</time>
      </trkpt>
      <trkpt lat="42.8453750" lon="-0.1649430">
        <ele>1586.6</ele>
        <time>2020-09-12T14:25:54Z</time>
      </trkpt>
      <trkpt lat="42.8455450" lon="-0.1648290">
        <ele>1587.6</ele>
        <time>2020-09-12T14:26:08Z</time>
      </trkpt>
      <trkpt lat="42.8457250" lon="-0.1647660">
        <ele>1587.0</ele>
        <time>2020-09-12T14:26:22Z</time>
      </trkpt>
      <trkpt lat="42.8459010" lon="-0.1646840">
        <ele>1587.4</ele>
        <time>2020-09-12T14:26:36Z</time>
      </trkpt>
      <trkpt lat="42.8460520" lon="-0.1646360">
        <ele>1586.2</ele>
        <time>2020-09-12T14:26:48Z</time>
      </trkpt>
      <trkpt lat="42.8462300" lon="-0.1645740">
        <ele>1586.8</ele>
        <time>2020-09-12T14:27:02Z</time>
      </trkpt>
      <trkpt lat="42.8462760" lon="-0.1645830">
        <ele>1587.4</ele>
        <time>2020-09-12T14:27:05Z</time>
      </trkpt>
      <trkpt lat="42.8464150" lon="-0.1645600">
        <ele>1586.4</ele>
        <time>2020-09-12T14:27:15Z</time>
      </trkpt>
      <trkpt lat="42.8464250" lon="-0.1645540">
        <ele>1586.0</ele>
        <time>2020-09-12T14:27:16Z</time>
      </trkpt>
      <trkpt lat="42.8465830" lon="-0.1644050">
        <ele>1585.6</ele>
        <time>2020-09-12T14:27:29Z</time>
      </trkpt>
      <trkpt lat="42.8466890" lon="-0.1643630">
        <ele>1585.6</ele>
        <time>2020-09-12T14:27:35Z</time>
      </trkpt>
      <trkpt lat="42.8468360" lon="-0.1642690">
        <ele>1586.4</ele>
        <time>2020-09-12T14:27:47Z</time>
      </trkpt>
      <trkpt lat="42.8469960" lon="-0.1642550">
        <ele>1587.0</ele>
        <time>2020-09-12T14:27:59Z</time>
      </trkpt>
      <trkpt lat="42.8471120" lon="-0.1642080">
        <ele>1586.0</ele>
        <time>2020-09-12T14:28:04Z</time>
      </trkpt>
      <trkpt lat="42.8472730" lon="-0.1641210">
        <ele>1584.6</ele>
        <time>2020-09-12T14:28:19Z</time>
      </trkpt>
      <trkpt lat="42.8473490" lon="-0.1640650">
        <ele>1585.8</ele>
        <time>2020-09-12T14:28:24Z</time>
      </trkpt>
      <trkpt lat="42.8474910" lon="-0.1639040">
        <ele>1586.0</ele>
        <time>2020-09-12T14:28:36Z</time>
      </trkpt>
      <trkpt lat="42.8475420" lon="-0.1638930">
        <ele>1587.0</ele>
        <time>2020-09-12T14:28:39Z</time>
      </trkpt>
      <trkpt lat="42.8476290" lon="-0.1638700">
        <ele>1585.8</ele>
        <time>2020-09-12T14:28:45Z</time>
      </trkpt>
      <trkpt lat="42.8477120" lon="-0.1638300">
        <ele>1585.6</ele>
        <time>2020-09-12T14:28:51Z</time>
      </trkpt>
      <trkpt lat="42.8477690" lon="-0.1637680">
        <ele>1586.0</ele>
        <time>2020-09-12T14:28:57Z</time>
      </trkpt>
      <trkpt lat="42.8479390" lon="-0.1636790">
        <ele>1586.6</ele>
        <time>2020-09-12T14:29:09Z</time>
      </trkpt>
      <trkpt lat="42.8479600" lon="-0.1636600">
        <ele>1586.2</ele>
        <time>2020-09-12T14:29:11Z</time>
      </trkpt>
      <trkpt lat="42.8481070" lon="-0.1635480">
        <ele>1586.0</ele>
        <time>2020-09-12T14:29:23Z</time>
      </trkpt>
      <trkpt lat="42.8481190" lon="-0.1634800">
        <ele>1586.8</ele>
        <time>2020-09-12T14:29:27Z</time>
      </trkpt>
      <trkpt lat="42.8481280" lon="-0.1634230">
        <ele>1587.0</ele>
        <time>2020-09-12T14:29:30Z</time>
      </trkpt>
      <trkpt lat="42.8481080" lon="-0.1633070">
        <ele>1585.8</ele>
        <time>2020-09-12T14:29:36Z</time>
      </trkpt>
      <trkpt lat="42.8481020" lon="-0.1631290">
        <ele>1585.2</ele>
        <time>2020-09-12T14:29:45Z</time>
      </trkpt>
      <trkpt lat="42.8481170" lon="-0.1630080">
        <ele>1584.8</ele>
        <time>2020-09-12T14:29:53Z</time>
      </trkpt>
      <trkpt lat="42.8480900" lon="-0.1629420">
        <ele>1583.8</ele>
        <time>2020-09-12T14:29:58Z</time>
      </trkpt>
      <trkpt lat="42.8480500" lon="-0.1627800">
        <ele>1582.6</ele>
        <time>2020-09-12T14:30:08Z</time>
      </trkpt>
      <trkpt lat="42.8480170" lon="-0.1626390">
        <ele>1581.6</ele>
        <time>2020-09-12T14:30:15Z</time>
      </trkpt>
      <trkpt lat="42.8480400" lon="-0.1625330">
        <ele>1580.8</ele>
        <time>2020-09-12T14:30:20Z</time>
      </trkpt>
      <trkpt lat="42.8480400" lon="-0.1624980">
        <ele>1580.8</ele>
        <time>2020-09-12T14:30:22Z</time>
      </trkpt>
      <trkpt lat="42.8480450" lon="-0.1624610">
        <ele>1580.4</ele>
        <time>2020-09-12T14:30:24Z</time>
      </trkpt>
      <trkpt lat="42.8481020" lon="-0.1623860">
        <ele>1579.6</ele>
        <time>2020-09-12T14:30:29Z</time>
      </trkpt>
      <trkpt lat="42.8481160" lon="-0.1623700">
        <ele>1579.4</ele>
        <time>2020-09-12T14:30:30Z</time>
      </trkpt>
      <trkpt lat="42.8481570" lon="-0.1622800">
        <ele>1578.4</ele>
        <time>2020-09-12T14:30:36Z</time>
      </trkpt>
      <trkpt lat="42.8481670" lon="-0.1622390">
        <ele>1578.2</ele>
        <time>2020-09-12T14:30:39Z</time>
      </trkpt>
      <trkpt lat="42.8482300" lon="-0.1621750">
        <ele>1577.4</ele>
        <time>2020-09-12T14:30:46Z</time>
      </trkpt>
      <trkpt lat="42.8483120" lon="-0.1620910">
        <ele>1576.2</ele>
        <time>2020-09-12T14:30:55Z</time>
      </trkpt>
      <trkpt lat="42.8484530" lon="-0.1619310">
        <ele>1575.2</ele>
        <time>2020-09-12T14:31:07Z</time>
      </trkpt>
      <trkpt lat="42.8484640" lon="-0.1619170">
        <ele>1575.2</ele>
        <time>2020-09-12T14:31:08Z</time>
      </trkpt>
      <trkpt lat="42.8486490" lon="-0.1618710">
        <ele>1574.2</ele>
        <time>2020-09-12T14:31:20Z</time>
      </trkpt>
      <trkpt lat="42.8486640" lon="-0.1618650">
        <ele>1574.2</ele>
        <time>2020-09-12T14:31:21Z</time>
      </trkpt>
      <trkpt lat="42.8488270" lon="-0.1617520">
        <ele>1574.4</ele>
        <time>2020-09-12T14:31:34Z</time>
      </trkpt>
      <trkpt lat="42.8488680" lon="-0.1617130">
        <ele>1575.4</ele>
        <time>2020-09-12T14:31:38Z</time>
      </trkpt>
      <trkpt lat="42.8489400" lon="-0.1616520">
        <ele>1576.6</ele>
        <time>2020-09-12T14:31:44Z</time>
      </trkpt>
      <trkpt lat="42.8490020" lon="-0.1616050">
        <ele>1577.8</ele>
        <time>2020-09-12T14:31:49Z</time>
      </trkpt>
      <trkpt lat="42.8491470" lon="-0.1615230">
        <ele>1579.0</ele>
        <time>2020-09-12T14:32:00Z</time>
      </trkpt>
      <trkpt lat="42.8491560" lon="-0.1615140">
        <ele>1579.0</ele>
        <time>2020-09-12T14:32:01Z</time>
      </trkpt>
      <trkpt lat="42.8493380" lon="-0.1614910">
        <ele>1578.6</ele>
        <time>2020-09-12T14:32:18Z</time>
      </trkpt>
      <trkpt lat="42.8493700" lon="-0.1615440">
        <ele>1577.8</ele>
        <time>2020-09-12T14:32:21Z</time>
      </trkpt>
      <trkpt lat="42.8494450" lon="-0.1615550">
        <ele>1576.8</ele>
        <time>2020-09-12T14:32:28Z</time>
      </trkpt>
      <trkpt lat="42.8496250" lon="-0.1616120">
        <ele>1576.2</ele>
        <time>2020-09-12T14:32:40Z</time>
      </trkpt>
      <trkpt lat="42.8496530" lon="-0.1616220">
        <ele>1575.8</ele>
        <time>2020-09-12T14:32:42Z</time>
      </trkpt>
      <trkpt lat="42.8497830" lon="-0.1616380">
        <ele>1574.8</ele>
        <time>2020-09-12T14:32:50Z</time>
      </trkpt>
      <trkpt lat="42.8499230" lon="-0.1616530">
        <ele>1573.8</ele>
        <time>2020-09-12T14:33:00Z</time>
      </trkpt>
      <trkpt lat="42.8500980" lon="-0.1615090">
        <ele>1573.4</ele>
        <time>2020-09-12T14:33:13Z</time>
      </trkpt>
      <trkpt lat="42.8501770" lon="-0.1613330">
        <ele>1572.8</ele>
        <time>2020-09-12T14:33:20Z</time>
      </trkpt>
      <trkpt lat="42.8502130" lon="-0.1610890">
        <ele>1572.4</ele>
        <time>2020-09-12T14:33:31Z</time>
      </trkpt>
      <trkpt lat="42.8502230" lon="-0.1610540">
        <ele>1572.4</ele>
        <time>2020-09-12T14:33:33Z</time>
      </trkpt>
      <trkpt lat="42.8503080" lon="-0.1608400">
        <ele>1572.4</ele>
        <time>2020-09-12T14:33:45Z</time>
      </trkpt>
      <trkpt lat="42.8503800" lon="-0.1606840">
        <ele>1571.8</ele>
        <time>2020-09-12T14:33:53Z</time>
      </trkpt>
      <trkpt lat="42.8503830" lon="-0.1606630">
        <ele>1571.8</ele>
        <time>2020-09-12T14:33:54Z</time>
      </trkpt>
      <trkpt lat="42.8504290" lon="-0.1604130">
        <ele>1571.0</ele>
        <time>2020-09-12T14:34:07Z</time>
      </trkpt>
      <trkpt lat="42.8504950" lon="-0.1602580">
        <ele>1570.6</ele>
        <time>2020-09-12T14:34:16Z</time>
      </trkpt>
      <trkpt lat="42.8505070" lon="-0.1602290">
        <ele>1570.6</ele>
        <time>2020-09-12T14:34:18Z</time>
      </trkpt>
      <trkpt lat="42.8506000" lon="-0.1600130">
        <ele>1570.6</ele>
        <time>2020-09-12T14:34:31Z</time>
      </trkpt>
      <trkpt lat="42.8506970" lon="-0.1598120">
        <ele>1571.0</ele>
        <time>2020-09-12T14:34:46Z</time>
      </trkpt>
      <trkpt lat="42.8507610" lon="-0.1597770">
        <ele>1572.0</ele>
        <time>2020-09-12T14:34:50Z</time>
      </trkpt>
      <trkpt lat="42.8508320" lon="-0.1597230">
        <ele>1572.4</ele>
        <time>2020-09-12T14:34:55Z</time>
      </trkpt>
      <trkpt lat="42.8508690" lon="-0.1596900">
        <ele>1572.2</ele>
        <time>2020-09-12T14:34:58Z</time>
      </trkpt>
      <trkpt lat="42.8509030" lon="-0.1596530">
        <ele>1572.2</ele>
        <time>2020-09-12T14:35:04Z</time>
      </trkpt>
      <trkpt lat="42.8509550" lon="-0.1596080">
        <ele>1573.0</ele>
        <time>2020-09-12T14:35:09Z</time>
      </trkpt>
      <trkpt lat="42.8510540" lon="-0.1594650">
        <ele>1572.8</ele>
        <time>2020-09-12T14:35:19Z</time>
      </trkpt>
      <trkpt lat="42.8510870" lon="-0.1593450">
        <ele>1572.0</ele>
        <time>2020-09-12T14:35:25Z</time>
      </trkpt>
      <trkpt lat="42.8511080" lon="-0.1592330">
        <ele>1570.6</ele>
        <time>2020-09-12T14:35:30Z</time>
      </trkpt>
      <trkpt lat="42.8511120" lon="-0.1591900">
        <ele>1569.6</ele>
        <time>2020-09-12T14:35:32Z</time>
      </trkpt>
      <trkpt lat="42.8511320" lon="-0.1591200">
        <ele>1568.8</ele>
        <time>2020-09-12T14:35:36Z</time>
      </trkpt>
      <trkpt lat="42.8511350" lon="-0.1590650">
        <ele>1568.4</ele>
        <time>2020-09-12T14:35:39Z</time>
      </trkpt>
      <trkpt lat="42.8510380" lon="-0.1588630">
        <ele>1567.6</ele>
        <time>2020-09-12T14:35:51Z</time>
      </trkpt>
      <trkpt lat="42.8510280" lon="-0.1588550">
        <ele>1567.4</ele>
        <time>2020-09-12T14:35:52Z</time>
      </trkpt>
      <trkpt lat="42.8509720" lon="-0.1588520">
        <ele>1566.2</ele>
        <time>2020-09-12T14:35:55Z</time>
      </trkpt>
      <trkpt lat="42.8509130" lon="-0.1588900">
        <ele>1565.2</ele>
        <time>2020-09-12T14:35:59Z</time>
      </trkpt>
      <trkpt lat="42.8508680" lon="-0.1589130">
        <ele>1564.2</ele>
        <time>2020-09-12T14:36:02Z</time>
      </trkpt>
      <trkpt lat="42.8508580" lon="-0.1589210">
        <ele>1564.0</ele>
        <time>2020-09-12T14:36:03Z</time>
      </trkpt>
      <trkpt lat="42.8508370" lon="-0.1589210">
        <ele>1563.8</ele>
        <time>2020-09-12T14:36:04Z</time>
      </trkpt>
      <trkpt lat="42.8507840" lon="-0.1589320">
        <ele>1563.0</ele>
        <time>2020-09-12T14:36:07Z</time>
      </trkpt>
      <trkpt lat="42.8507760" lon="-0.1589390">
        <ele>1562.8</ele>
        <time>2020-09-12T14:36:08Z</time>
      </trkpt>
      <trkpt lat="42.8507650" lon="-0.1589420">
        <ele>1562.8</ele>
        <time>2020-09-12T14:36:09Z</time>
      </trkpt>
      <trkpt lat="42.8506910" lon="-0.1589090">
        <ele>1561.8</ele>
        <time>2020-09-12T14:36:14Z</time>
      </trkpt>
      <trkpt lat="42.8506250" lon="-0.1589060">
        <ele>1561.4</ele>
        <time>2020-09-12T14:36:22Z</time>
      </trkpt>
      <trkpt lat="42.8506010" lon="-0.1589000">
        <ele>1560.8</ele>
        <time>2020-09-12T14:36:28Z</time>
      </trkpt>
      <trkpt lat="42.8505680" lon="-0.1588720">
        <ele>1560.8</ele>
        <time>2020-09-12T14:36:31Z</time>
      </trkpt>
      <trkpt lat="42.8505520" lon="-0.1588450">
        <ele>1561.0</ele>
        <time>2020-09-12T14:36:35Z</time>
      </trkpt>
      <trkpt lat="42.8505390" lon="-0.1587950">
        <ele>1561.2</ele>
        <time>2020-09-12T14:36:40Z</time>
      </trkpt>
      <trkpt lat="42.8505340" lon="-0.1587710">
        <ele>1561.4</ele>
        <time>2020-09-12T14:36:43Z</time>
      </trkpt>
      <trkpt lat="42.8505130" lon="-0.1587570">
        <ele>1561.4</ele>
        <time>2020-09-12T14:36:45Z</time>
      </trkpt>
      <trkpt lat="42.8504880" lon="-0.1587450">
        <ele>1561.4</ele>
        <time>2020-09-12T14:36:47Z</time>
      </trkpt>
      <trkpt lat="42.8504450" lon="-0.1587170">
        <ele>1561.2</ele>
        <time>2020-09-12T14:36:50Z</time>
      </trkpt>
      <trkpt lat="42.8503470" lon="-0.1586660">
        <ele>1560.6</ele>
        <time>2020-09-12T14:36:55Z</time>
      </trkpt>
      <trkpt lat="42.8502830" lon="-0.1586530">
        <ele>1559.8</ele>
        <time>2020-09-12T14:37:02Z</time>
      </trkpt>
      <trkpt lat="42.8502560" lon="-0.1586470">
        <ele>1559.6</ele>
        <time>2020-09-12T14:37:04Z</time>
      </trkpt>
      <trkpt lat="42.8502070" lon="-0.1586090">
        <ele>1559.6</ele>
        <time>2020-09-12T14:37:06Z</time>
      </trkpt>
      <trkpt lat="42.8500630" lon="-0.1584920">
        <ele>1558.8</ele>
        <time>2020-09-12T14:37:18Z</time>
      </trkpt>
      <trkpt lat="42.8500680" lon="-0.1584760">
        <ele>1558.4</ele>
        <time>2020-09-12T14:37:19Z</time>
      </trkpt>
      <trkpt lat="42.8500550" lon="-0.1583700">
        <ele>1557.2</ele>
        <time>2020-09-12T14:37:26Z</time>
      </trkpt>
      <trkpt lat="42.8500660" lon="-0.1583410">
        <ele>1556.6</ele>
        <time>2020-09-12T14:37:28Z</time>
      </trkpt>
      <trkpt lat="42.8500600" lon="-0.1582400">
        <ele>1556.2</ele>
        <time>2020-09-12T14:37:34Z</time>
      </trkpt>
      <trkpt lat="42.8500620" lon="-0.1581590">
        <ele>1555.8</ele>
        <time>2020-09-12T14:37:39Z</time>
      </trkpt>
      <trkpt lat="42.8500800" lon="-0.1580630">
        <ele>1555.2</ele>
        <time>2020-09-12T14:37:45Z</time>
      </trkpt>
      <trkpt lat="42.8500780" lon="-0.1580050">
        <ele>1554.2</ele>
        <time>2020-09-12T14:37:49Z</time>
      </trkpt>
      <trkpt lat="42.8500800" lon="-0.1579920">
        <ele>1554.0</ele>
        <time>2020-09-12T14:37:50Z</time>
      </trkpt>
      <trkpt lat="42.8500860" lon="-0.1579640">
        <ele>1553.8</ele>
        <time>2020-09-12T14:37:52Z</time>
      </trkpt>
      <trkpt lat="42.8501000" lon="-0.1578730">
        <ele>1553.2</ele>
        <time>2020-09-12T14:37:58Z</time>
      </trkpt>
      <trkpt lat="42.8501210" lon="-0.1578370">
        <ele>1553.2</ele>
        <time>2020-09-12T14:38:01Z</time>
      </trkpt>
      <trkpt lat="42.8502980" lon="-0.1577130">
        <ele>1554.0</ele>
        <time>2020-09-12T14:38:13Z</time>
      </trkpt>
      <trkpt lat="42.8503240" lon="-0.1576580">
        <ele>1553.6</ele>
        <time>2020-09-12T14:38:17Z</time>
      </trkpt>
      <trkpt lat="42.8503910" lon="-0.1575320">
        <ele>1554.4</ele>
        <time>2020-09-12T14:38:25Z</time>
      </trkpt>
      <trkpt lat="42.8504580" lon="-0.1574400">
        <ele>1554.2</ele>
        <time>2020-09-12T14:38:32Z</time>
      </trkpt>
      <trkpt lat="42.8504550" lon="-0.1573350">
        <ele>1553.8</ele>
        <time>2020-09-12T14:38:37Z</time>
      </trkpt>
      <trkpt lat="42.8504510" lon="-0.1572690">
        <ele>1553.4</ele>
        <time>2020-09-12T14:38:40Z</time>
      </trkpt>
      <trkpt lat="42.8505170" lon="-0.1570850">
        <ele>1553.0</ele>
        <time>2020-09-12T14:38:51Z</time>
      </trkpt>
      <trkpt lat="42.8505300" lon="-0.1570620">
        <ele>1552.8</ele>
        <time>2020-09-12T14:38:53Z</time>
      </trkpt>
      <trkpt lat="42.8506060" lon="-0.1569680">
        <ele>1551.8</ele>
        <time>2020-09-12T14:39:00Z</time>
      </trkpt>
      <trkpt lat="42.8506130" lon="-0.1569470">
        <ele>1551.4</ele>
        <time>2020-09-12T14:39:01Z</time>
      </trkpt>
      <trkpt lat="42.8506290" lon="-0.1568830">
        <ele>1550.6</ele>
        <time>2020-09-12T14:39:04Z</time>
      </trkpt>
      <trkpt lat="42.8506480" lon="-0.1567990">
        <ele>1549.6</ele>
        <time>2020-09-12T14:39:08Z</time>
      </trkpt>
      <trkpt lat="42.8506390" lon="-0.1567460">
        <ele>1549.0</ele>
        <time>2020-09-12T14:39:11Z</time>
      </trkpt>
      <trkpt lat="42.8506120" lon="-0.1566940">
        <ele>1549.0</ele>
        <time>2020-09-12T14:39:14Z</time>
      </trkpt>
      <trkpt lat="42.8505750" lon="-0.1565320">
        <ele>1548.4</ele>
        <time>2020-09-12T14:39:24Z</time>
      </trkpt>
      <trkpt lat="42.8505370" lon="-0.1564770">
        <ele>1547.0</ele>
        <time>2020-09-12T14:39:27Z</time>
      </trkpt>
      <trkpt lat="42.8505110" lon="-0.1563670">
        <ele>1545.8</ele>
        <time>2020-09-12T14:39:32Z</time>
      </trkpt>
      <trkpt lat="42.8505110" lon="-0.1563080">
        <ele>1545.2</ele>
        <time>2020-09-12T14:39:35Z</time>
      </trkpt>
      <trkpt lat="42.8504970" lon="-0.1562550">
        <ele>1544.8</ele>
        <time>2020-09-12T14:39:38Z</time>
      </trkpt>
      <trkpt lat="42.8504610" lon="-0.1561120">
        <ele>1543.8</ele>
        <time>2020-09-12T14:39:45Z</time>
      </trkpt>
      <trkpt lat="42.8504610" lon="-0.1560510">
        <ele>1543.6</ele>
        <time>2020-09-12T14:39:48Z</time>
      </trkpt>
      <trkpt lat="42.8504890" lon="-0.1558840">
        <ele>1542.8</ele>
        <time>2020-09-12T14:39:57Z</time>
      </trkpt>
      <trkpt lat="42.8504810" lon="-0.1558610">
        <ele>1542.8</ele>
        <time>2020-09-12T14:39:58Z</time>
      </trkpt>
      <trkpt lat="42.8504730" lon="-0.1558420">
        <ele>1542.6</ele>
        <time>2020-09-12T14:39:59Z</time>
      </trkpt>
      <trkpt lat="42.8504360" lon="-0.1557520">
        <ele>1541.6</ele>
        <time>2020-09-12T14:40:04Z</time>
      </trkpt>
      <trkpt lat="42.8503240" lon="-0.1555470">
        <ele>1541.4</ele>
        <time>2020-09-12T14:40:15Z</time>
      </trkpt>
      <trkpt lat="42.8503480" lon="-0.1555110">
        <ele>1541.6</ele>
        <time>2020-09-12T14:40:18Z</time>
      </trkpt>
      <trkpt lat="42.8503660" lon="-0.1554190">
        <ele>1541.2</ele>
        <time>2020-09-12T14:40:23Z</time>
      </trkpt>
      <trkpt lat="42.8503530" lon="-0.1552860">
        <ele>1541.0</ele>
        <time>2020-09-12T14:40:30Z</time>
      </trkpt>
      <trkpt lat="42.8503360" lon="-0.1552480">
        <ele>1540.8</ele>
        <time>2020-09-12T14:40:32Z</time>
      </trkpt>
      <trkpt lat="42.8503600" lon="-0.1551990">
        <ele>1540.6</ele>
        <time>2020-09-12T14:40:35Z</time>
      </trkpt>
      <trkpt lat="42.8504020" lon="-0.1550550">
        <ele>1539.8</ele>
        <time>2020-09-12T14:40:43Z</time>
      </trkpt>
      <trkpt lat="42.8503970" lon="-0.1550270">
        <ele>1539.6</ele>
        <time>2020-09-12T14:40:45Z</time>
      </trkpt>
      <trkpt lat="42.8503760" lon="-0.1549820">
        <ele>1539.4</ele>
        <time>2020-09-12T14:40:47Z</time>
      </trkpt>
      <trkpt lat="42.8503840" lon="-0.1549290">
        <ele>1538.8</ele>
        <time>2020-09-12T14:40:50Z</time>
      </trkpt>
      <trkpt lat="42.8504020" lon="-0.1549000">
        <ele>1538.4</ele>
        <time>2020-09-12T14:40:52Z</time>
      </trkpt>
      <trkpt lat="42.8504010" lon="-0.1548630">
        <ele>1538.4</ele>
        <time>2020-09-12T14:40:54Z</time>
      </trkpt>
      <trkpt lat="42.8503750" lon="-0.1546110">
        <ele>1538.2</ele>
        <time>2020-09-12T14:41:07Z</time>
      </trkpt>
      <trkpt lat="42.8503880" lon="-0.1545770">
        <ele>1538.2</ele>
        <time>2020-09-12T14:41:09Z</time>
      </trkpt>
      <trkpt lat="42.8504400" lon="-0.1543780">
        <ele>1538.0</ele>
        <time>2020-09-12T14:41:19Z</time>
      </trkpt>
      <trkpt lat="42.8504540" lon="-0.1543380">
        <ele>1538.0</ele>
        <time>2020-09-12T14:41:21Z</time>
      </trkpt>
      <trkpt lat="42.8504710" lon="-0.1540770">
        <ele>1539.2</ele>
        <time>2020-09-12T14:41:36Z</time>
      </trkpt>
      <trkpt lat="42.8504080" lon="-0.1538780">
        <ele>1537.2</ele>
        <time>2020-09-12T14:41:47Z</time>
      </trkpt>
      <trkpt lat="42.8503490" lon="-0.1537980">
        <ele>1536.0</ele>
        <time>2020-09-12T14:41:52Z</time>
      </trkpt>
      <trkpt lat="42.8502840" lon="-0.1536910">
        <ele>1535.2</ele>
        <time>2020-09-12T14:41:59Z</time>
      </trkpt>
      <trkpt lat="42.8502620" lon="-0.1536720">
        <ele>1534.8</ele>
        <time>2020-09-12T14:42:00Z</time>
      </trkpt>
      <trkpt lat="42.8502270" lon="-0.1536230">
        <ele>1533.8</ele>
        <time>2020-09-12T14:42:03Z</time>
      </trkpt>
      <trkpt lat="42.8501380" lon="-0.1535450">
        <ele>1532.6</ele>
        <time>2020-09-12T14:42:09Z</time>
      </trkpt>
      <trkpt lat="42.8500900" lon="-0.1534810">
        <ele>1531.4</ele>
        <time>2020-09-12T14:42:13Z</time>
      </trkpt>
      <trkpt lat="42.8500810" lon="-0.1534310">
        <ele>1530.4</ele>
        <time>2020-09-12T14:42:16Z</time>
      </trkpt>
      <trkpt lat="42.8500950" lon="-0.1534190">
        <ele>1530.2</ele>
        <time>2020-09-12T14:42:17Z</time>
      </trkpt>
      <trkpt lat="42.8500360" lon="-0.1532930">
        <ele>1529.2</ele>
        <time>2020-09-12T14:42:24Z</time>
      </trkpt>
      <trkpt lat="42.8500120" lon="-0.1532050">
        <ele>1527.8</ele>
        <time>2020-09-12T14:42:28Z</time>
      </trkpt>
      <trkpt lat="42.8499990" lon="-0.1530620">
        <ele>1527.2</ele>
        <time>2020-09-12T14:42:34Z</time>
      </trkpt>
      <trkpt lat="42.8500100" lon="-0.1529080">
        <ele>1526.8</ele>
        <time>2020-09-12T14:42:41Z</time>
      </trkpt>
      <trkpt lat="42.8500200" lon="-0.1528140">
        <ele>1526.2</ele>
        <time>2020-09-12T14:42:46Z</time>
      </trkpt>
      <trkpt lat="42.8500700" lon="-0.1527550">
        <ele>1525.8</ele>
        <time>2020-09-12T14:42:50Z</time>
      </trkpt>
      <trkpt lat="42.8500590" lon="-0.1526170">
        <ele>1524.6</ele>
        <time>2020-09-12T14:42:59Z</time>
      </trkpt>
      <trkpt lat="42.8500510" lon="-0.1525960">
        <ele>1524.4</ele>
        <time>2020-09-12T14:43:00Z</time>
      </trkpt>
      <trkpt lat="42.8500210" lon="-0.1525170">
        <ele>1523.8</ele>
        <time>2020-09-12T14:43:06Z</time>
      </trkpt>
      <trkpt lat="42.8500150" lon="-0.1524420">
        <ele>1523.4</ele>
        <time>2020-09-12T14:43:10Z</time>
      </trkpt>
      <trkpt lat="42.8500150" lon="-0.1524240">
        <ele>1523.0</ele>
        <time>2020-09-12T14:43:11Z</time>
      </trkpt>
      <trkpt lat="42.8500170" lon="-0.1523840">
        <ele>1522.4</ele>
        <time>2020-09-12T14:43:14Z</time>
      </trkpt>
      <trkpt lat="42.8500270" lon="-0.1523270">
        <ele>1521.6</ele>
        <time>2020-09-12T14:43:18Z</time>
      </trkpt>
      <trkpt lat="42.8500330" lon="-0.1523020">
        <ele>1521.4</ele>
        <time>2020-09-12T14:43:20Z</time>
      </trkpt>
      <trkpt lat="42.8500780" lon="-0.1521150">
        <ele>1520.6</ele>
        <time>2020-09-12T14:43:32Z</time>
      </trkpt>
      <trkpt lat="42.8500990" lon="-0.1520860">
        <ele>1520.2</ele>
        <time>2020-09-12T14:43:35Z</time>
      </trkpt>
      <trkpt lat="42.8501040" lon="-0.1520680">
        <ele>1520.0</ele>
        <time>2020-09-12T14:43:36Z</time>
      </trkpt>
      <trkpt lat="42.8501130" lon="-0.1519620">
        <ele>1519.6</ele>
        <time>2020-09-12T14:43:42Z</time>
      </trkpt>
      <trkpt lat="42.8501420" lon="-0.1518790">
        <ele>1519.2</ele>
        <time>2020-09-12T14:43:48Z</time>
      </trkpt>
      <trkpt lat="42.8501460" lon="-0.1518540">
        <ele>1518.4</ele>
        <time>2020-09-12T14:43:50Z</time>
      </trkpt>
      <trkpt lat="42.8501390" lon="-0.1517930">
        <ele>1518.0</ele>
        <time>2020-09-12T14:43:53Z</time>
      </trkpt>
      <trkpt lat="42.8500870" lon="-0.1516060">
        <ele>1517.0</ele>
        <time>2020-09-12T14:44:02Z</time>
      </trkpt>
      <trkpt lat="42.8500840" lon="-0.1515620">
        <ele>1516.4</ele>
        <time>2020-09-12T14:44:05Z</time>
      </trkpt>
      <trkpt lat="42.8500730" lon="-0.1515120">
        <ele>1516.0</ele>
        <time>2020-09-12T14:44:08Z</time>
      </trkpt>
      <trkpt lat="42.8500550" lon="-0.1514670">
        <ele>1515.0</ele>
        <time>2020-09-12T14:44:11Z</time>
      </trkpt>
      <trkpt lat="42.8500530" lon="-0.1514580">
        <ele>1514.6</ele>
        <time>2020-09-12T14:44:12Z</time>
      </trkpt>
      <trkpt lat="42.8500480" lon="-0.1514290">
        <ele>1514.0</ele>
        <time>2020-09-12T14:44:14Z</time>
      </trkpt>
      <trkpt lat="42.8500510" lon="-0.1514000">
        <ele>1513.8</ele>
        <time>2020-09-12T14:44:16Z</time>
      </trkpt>
      <trkpt lat="42.8500610" lon="-0.1513640">
        <ele>1513.2</ele>
        <time>2020-09-12T14:44:18Z</time>
      </trkpt>
      <trkpt lat="42.8500530" lon="-0.1512980">
        <ele>1512.6</ele>
        <time>2020-09-12T14:44:21Z</time>
      </trkpt>
      <trkpt lat="42.8500300" lon="-0.1511700">
        <ele>1511.4</ele>
        <time>2020-09-12T14:44:27Z</time>
      </trkpt>
      <trkpt lat="42.8500240" lon="-0.1511500">
        <ele>1511.0</ele>
        <time>2020-09-12T14:44:28Z</time>
      </trkpt>
      <trkpt lat="42.8500220" lon="-0.1510950">
        <ele>1510.4</ele>
        <time>2020-09-12T14:44:31Z</time>
      </trkpt>
      <trkpt lat="42.8500280" lon="-0.1510370">
        <ele>1510.2</ele>
        <time>2020-09-12T14:44:34Z</time>
      </trkpt>
      <trkpt lat="42.8500350" lon="-0.1509010">
        <ele>1510.2</ele>
        <time>2020-09-12T14:44:41Z</time>
      </trkpt>
      <trkpt lat="42.8500160" lon="-0.1508800">
        <ele>1509.8</ele>
        <time>2020-09-12T14:44:43Z</time>
      </trkpt>
      <trkpt lat="42.8500100" lon="-0.1507570">
        <ele>1510.0</ele>
        <time>2020-09-12T14:44:53Z</time>
      </trkpt>
      <trkpt lat="42.8500040" lon="-0.1506820">
        <ele>1509.2</ele>
        <time>2020-09-12T14:44:57Z</time>
      </trkpt>
      <trkpt lat="42.8499810" lon="-0.1506040">
        <ele>1509.2</ele>
        <time>2020-09-12T14:45:01Z</time>
      </trkpt>
      <trkpt lat="42.8499830" lon="-0.1505600">
        <ele>1509.2</ele>
        <time>2020-09-12T14:45:04Z</time>
      </trkpt>
      <trkpt lat="42.8499550" lon="-0.1505030">
        <ele>1509.0</ele>
        <time>2020-09-12T14:45:07Z</time>
      </trkpt>
      <trkpt lat="42.8499640" lon="-0.1503830">
        <ele>1508.4</ele>
        <time>2020-09-12T14:45:13Z</time>
      </trkpt>
      <trkpt lat="42.8499760" lon="-0.1503430">
        <ele>1508.4</ele>
        <time>2020-09-12T14:45:15Z</time>
      </trkpt>
      <trkpt lat="42.8500250" lon="-0.1502880">
        <ele>1508.2</ele>
        <time>2020-09-12T14:45:20Z</time>
      </trkpt>
      <trkpt lat="42.8500510" lon="-0.1502650">
        <ele>1507.8</ele>
        <time>2020-09-12T14:45:22Z</time>
      </trkpt>
      <trkpt lat="42.8500930" lon="-0.1502190">
        <ele>1507.4</ele>
        <time>2020-09-12T14:45:26Z</time>
      </trkpt>
      <trkpt lat="42.8501030" lon="-0.1500620">
        <ele>1507.2</ele>
        <time>2020-09-12T14:45:35Z</time>
      </trkpt>
      <trkpt lat="42.8500940" lon="-0.1500080">
        <ele>1507.2</ele>
        <time>2020-09-12T14:45:38Z</time>
      </trkpt>
      <trkpt lat="42.8501280" lon="-0.1499340">
        <ele>1507.2</ele>
        <time>2020-09-12T14:45:43Z</time>
      </trkpt>
      <trkpt lat="42.8501650" lon="-0.1497600">
        <ele>1506.8</ele>
        <time>2020-09-12T14:45:53Z</time>
      </trkpt>
      <trkpt lat="42.8502420" lon="-0.1496790">
        <ele>1506.4</ele>
        <time>2020-09-12T14:45:59Z</time>
      </trkpt>
      <trkpt lat="42.8502640" lon="-0.1496580">
        <ele>1505.8</ele>
        <time>2020-09-12T14:46:01Z</time>
      </trkpt>
      <trkpt lat="42.8503130" lon="-0.1495000">
        <ele>1504.8</ele>
        <time>2020-09-12T14:46:09Z</time>
      </trkpt>
      <trkpt lat="42.8503490" lon="-0.1493330">
        <ele>1503.6</ele>
        <time>2020-09-12T14:46:18Z</time>
      </trkpt>
      <trkpt lat="42.8503550" lon="-0.1492440">
        <ele>1503.0</ele>
        <time>2020-09-12T14:46:23Z</time>
      </trkpt>
      <trkpt lat="42.8503700" lon="-0.1492080">
        <ele>1502.4</ele>
        <time>2020-09-12T14:46:25Z</time>
      </trkpt>
      <trkpt lat="42.8503750" lon="-0.1491900">
        <ele>1502.0</ele>
        <time>2020-09-12T14:46:26Z</time>
      </trkpt>
      <trkpt lat="42.8503970" lon="-0.1491290">
        <ele>1501.2</ele>
        <time>2020-09-12T14:46:29Z</time>
      </trkpt>
      <trkpt lat="42.8504210" lon="-0.1490300">
        <ele>1500.4</ele>
        <time>2020-09-12T14:46:34Z</time>
      </trkpt>
      <trkpt lat="42.8504290" lon="-0.1489920">
        <ele>1500.2</ele>
        <time>2020-09-12T14:46:36Z</time>
      </trkpt>
      <trkpt lat="42.8504350" lon="-0.1489380">
        <ele>1500.0</ele>
        <time>2020-09-12T14:46:39Z</time>
      </trkpt>
      <trkpt lat="42.8504420" lon="-0.1488830">
        <ele>1499.6</ele>
        <time>2020-09-12T14:46:42Z</time>
      </trkpt>
      <trkpt lat="42.8504490" lon="-0.1488360">
        <ele>1499.4</ele>
        <time>2020-09-12T14:46:45Z</time>
      </trkpt>
      <trkpt lat="42.8504550" lon="-0.1488100">
        <ele>1499.4</ele>
        <time>2020-09-12T14:46:47Z</time>
      </trkpt>
      <trkpt lat="42.8504600" lon="-0.1487830">
        <ele>1499.2</ele>
        <time>2020-09-12T14:46:49Z</time>
      </trkpt>
      <trkpt lat="42.8504760" lon="-0.1487270">
        <ele>1499.0</ele>
        <time>2020-09-12T14:46:53Z</time>
      </trkpt>
      <trkpt lat="42.8504900" lon="-0.1486850">
        <ele>1499.0</ele>
        <time>2020-09-12T14:46:56Z</time>
      </trkpt>
      <trkpt lat="42.8505130" lon="-0.1485750">
        <ele>1498.8</ele>
        <time>2020-09-12T14:47:03Z</time>
      </trkpt>
      <trkpt lat="42.8505310" lon="-0.1485460">
        <ele>1498.8</ele>
        <time>2020-09-12T14:47:05Z</time>
      </trkpt>
      <trkpt lat="42.8505440" lon="-0.1484670">
        <ele>1498.6</ele>
        <time>2020-09-12T14:47:09Z</time>
      </trkpt>
      <trkpt lat="42.8505510" lon="-0.1484330">
        <ele>1498.6</ele>
        <time>2020-09-12T14:47:11Z</time>
      </trkpt>
      <trkpt lat="42.8505540" lon="-0.1483820">
        <ele>1498.4</ele>
        <time>2020-09-12T14:47:14Z</time>
      </trkpt>
      <trkpt lat="42.8505510" lon="-0.1482730">
        <ele>1498.2</ele>
        <time>2020-09-12T14:47:20Z</time>
      </trkpt>
      <trkpt lat="42.8506370" lon="-0.1480430">
        <ele>1497.6</ele>
        <time>2020-09-12T14:47:32Z</time>
      </trkpt>
      <trkpt lat="42.8506370" lon="-0.1480260">
        <ele>1497.4</ele>
        <time>2020-09-12T14:47:33Z</time>
      </trkpt>
      <trkpt lat="42.8506100" lon="-0.1478300">
        <ele>1497.4</ele>
        <time>2020-09-12T14:47:43Z</time>
      </trkpt>
      <trkpt lat="42.8506120" lon="-0.1477740">
        <ele>1497.2</ele>
        <time>2020-09-12T14:47:46Z</time>
      </trkpt>
      <trkpt lat="42.8506260" lon="-0.1475170">
        <ele>1496.4</ele>
        <time>2020-09-12T14:48:00Z</time>
      </trkpt>
      <trkpt lat="42.8506370" lon="-0.1474450">
        <ele>1496.0</ele>
        <time>2020-09-12T14:48:04Z</time>
      </trkpt>
      <trkpt lat="42.8506570" lon="-0.1473120">
        <ele>1496.8</ele>
        <time>2020-09-12T14:48:12Z</time>
      </trkpt>
      <trkpt lat="42.8506430" lon="-0.1471260">
        <ele>1497.0</ele>
        <time>2020-09-12T14:48:22Z</time>
      </trkpt>
      <trkpt lat="42.8505980" lon="-0.1469810">
        <ele>1496.2</ele>
        <time>2020-09-12T14:48:29Z</time>
      </trkpt>
      <trkpt lat="42.8505960" lon="-0.1469610">
        <ele>1496.0</ele>
        <time>2020-09-12T14:48:30Z</time>
      </trkpt>
      <trkpt lat="42.8506170" lon="-0.1468500">
        <ele>1495.6</ele>
        <time>2020-09-12T14:48:36Z</time>
      </trkpt>
      <trkpt lat="42.8506550" lon="-0.1467680">
        <ele>1495.6</ele>
        <time>2020-09-12T14:48:41Z</time>
      </trkpt>
      <trkpt lat="42.8508290" lon="-0.1467830">
        <ele>1495.2</ele>
        <time>2020-09-12T14:48:53Z</time>
      </trkpt>
      <trkpt lat="42.8508450" lon="-0.1468050">
        <ele>1495.0</ele>
        <time>2020-09-12T14:48:55Z</time>
      </trkpt>
      <trkpt lat="42.8510060" lon="-0.1469490">
        <ele>1494.4</ele>
        <time>2020-09-12T14:49:11Z</time>
      </trkpt>
      <trkpt lat="42.8511780" lon="-0.1470260">
        <ele>1494.8</ele>
        <time>2020-09-12T14:49:27Z</time>
      </trkpt>
      <trkpt lat="42.8513620" lon="-0.1470720">
        <ele>1494.8</ele>
        <time>2020-09-12T14:49:40Z</time>
      </trkpt>
      <trkpt lat="42.8515410" lon="-0.1471090">
        <ele>1495.0</ele>
        <time>2020-09-12T14:49:52Z</time>
      </trkpt>
      <trkpt lat="42.8517190" lon="-0.1471220">
        <ele>1495.0</ele>
        <time>2020-09-12T14:50:08Z</time>
      </trkpt>
      <trkpt lat="42.8517460" lon="-0.1471630">
        <ele>1495.0</ele>
        <time>2020-09-12T14:50:13Z</time>
      </trkpt>
      <trkpt lat="42.8517780" lon="-0.1471860">
        <ele>1495.0</ele>
        <time>2020-09-12T14:50:17Z</time>
      </trkpt>
    </trkseg>
  </trk>
</gpx>
